<?xml version="1.0" encoding="UTF-8" standalone="no" ?>
<gpx xmlns="http://www.topografix.com/GPX/1/1" xmlns:xsi="http://www.w3.org/2001/XMLSchema-instance" xsi:schemaLocation="http://www.topografix.com/GPX/1/1 http://www.topografix.com/GPX/1/1/gpx.xsd" version="1.1" creator="VisuGPX - https://www.visugpx.com">
  <metadata>
    <name>Les 2.5 bosses</name>
    <desc><![CDATA[Les 2.5 bosses]]></desc>
  </metadata>
  <wpt lat="47.51796" lon="6.77494">
    <ele>388</ele>
    <name><![CDATA[Point de cheminement 1]]></name>
    <desc><![CDATA[]]></desc>
  </wpt>
  <wpt lat="47.49178" lon="6.76499">
    <ele>315</ele>
    <name><![CDATA[Point de cheminement 2]]></name>
    <desc><![CDATA[]]></desc>
  </wpt>
  <wpt lat="47.4753" lon="6.74116">
    <ele>308</ele>
    <name><![CDATA[Point de cheminement 3]]></name>
    <desc><![CDATA[]]></desc>
  </wpt>
  <wpt lat="47.46127" lon="6.73666">
    <ele>428</ele>
    <name><![CDATA[Point de cheminement 4]]></name>
    <desc><![CDATA[]]></desc>
  </wpt>
  <wpt lat="47.43811" lon="6.72385">
    <ele>462</ele>
    <name><![CDATA[Point de cheminement 5]]></name>
    <desc><![CDATA[]]></desc>
  </wpt>
  <wpt lat="47.42489" lon="6.71328">
    <ele>480</ele>
    <name><![CDATA[Point de cheminement 6]]></name>
    <desc><![CDATA[]]></desc>
  </wpt>
  <wpt lat="47.40757" lon="6.70968">
    <ele>449</ele>
    <name><![CDATA[Point de cheminement 7]]></name>
    <desc><![CDATA[]]></desc>
  </wpt>
  <wpt lat="47.40121" lon="6.7038">
    <ele>482</ele>
    <name><![CDATA[Point de cheminement 8]]></name>
    <desc><![CDATA[]]></desc>
  </wpt>
  <wpt lat="47.41423" lon="6.70046">
    <ele>371</ele>
    <name><![CDATA[Point de cheminement 9]]></name>
    <desc><![CDATA[]]></desc>
  </wpt>
  <wpt lat="47.42946" lon="6.70824">
    <ele>445</ele>
    <name><![CDATA[Point de cheminement 10]]></name>
    <desc><![CDATA[]]></desc>
  </wpt>
  <wpt lat="47.45461" lon="6.73408">
    <ele>464</ele>
    <name><![CDATA[Point de cheminement 11]]></name>
    <desc><![CDATA[]]></desc>
  </wpt>
  <wpt lat="47.46718" lon="6.76012">
    <ele>338</ele>
    <name><![CDATA[Point de cheminement 12]]></name>
    <desc><![CDATA[]]></desc>
  </wpt>
  <wpt lat="47.49705" lon="6.77342">
    <ele>313</ele>
    <name><![CDATA[Point de cheminement 13]]></name>
    <desc><![CDATA[]]></desc>
  </wpt>
  <wpt lat="47.51798" lon="6.77475">
    <ele>388</ele>
    <name><![CDATA[Point de cheminement 14]]></name>
    <desc><![CDATA[]]></desc>
  </wpt>
  <trk>
    <name><![CDATA[Rue Antoine Coysevox]]></name>
    <desc><![CDATA[]]></desc>
    <trkseg>
      <trkpt lat="47.51834" lon="6.77488">
        <ele>387</ele>
        <time>2016-02-28T08:09:06.000Z</time>
      </trkpt>
      <trkpt lat="47.51831" lon="6.77486">
        <ele>387</ele>
        <time>2016-02-28T08:09:10.000Z</time>
      </trkpt>
      <trkpt lat="47.51828" lon="6.77486">
        <ele>387</ele>
        <time>2016-02-28T08:09:11.000Z</time>
      </trkpt>
      <trkpt lat="47.51824" lon="6.77485">
        <ele>387</ele>
        <time>2016-02-28T08:09:13.000Z</time>
      </trkpt>
      <trkpt lat="47.51824" lon="6.77485">
        <ele>387</ele>
        <time>2016-02-28T08:09:14.000Z</time>
      </trkpt>
      <trkpt lat="47.51826" lon="6.77486">
        <ele>387</ele>
        <time>2016-02-28T08:09:26.000Z</time>
      </trkpt>
      <trkpt lat="47.51816" lon="6.7748">
        <ele>388</ele>
        <time>2016-02-28T08:09:27.000Z</time>
      </trkpt>
      <trkpt lat="47.51811" lon="6.77476">
        <ele>388</ele>
        <time>2016-02-28T08:09:28.000Z</time>
      </trkpt>
      <trkpt lat="47.51808" lon="6.77474">
        <ele>388</ele>
        <time>2016-02-28T08:09:30.000Z</time>
      </trkpt>
      <trkpt lat="47.51807" lon="6.77474">
        <ele>388</ele>
        <time>2016-02-28T08:09:31.000Z</time>
      </trkpt>
      <trkpt lat="47.51802" lon="6.77472">
        <ele>388</ele>
        <time>2016-02-28T08:11:38.000Z</time>
      </trkpt>
      <trkpt lat="47.51811" lon="6.77487">
        <ele>388</ele>
        <time>2016-02-28T08:11:39.000Z</time>
      </trkpt>
      <trkpt lat="47.51808" lon="6.77481">
        <ele>388</ele>
        <time>2016-02-28T08:16:39.000Z</time>
      </trkpt>
      <trkpt lat="47.51807" lon="6.77481">
        <ele>388</ele>
        <time>2016-02-28T08:16:40.000Z</time>
      </trkpt>
      <trkpt lat="47.51809" lon="6.77486">
        <ele>388</ele>
        <time>2016-02-28T08:17:22.000Z</time>
      </trkpt>
      <trkpt lat="47.5181" lon="6.77488">
        <ele>388</ele>
        <time>2016-02-28T08:17:23.000Z</time>
      </trkpt>
      <trkpt lat="47.51809" lon="6.77492">
        <ele>388</ele>
        <time>2016-02-28T08:17:25.000Z</time>
      </trkpt>
      <trkpt lat="47.51807" lon="6.77494">
        <ele>388</ele>
        <time>2016-02-28T08:17:26.000Z</time>
      </trkpt>
      <trkpt lat="47.51804" lon="6.77495">
        <ele>388</ele>
        <time>2016-02-28T08:17:27.000Z</time>
      </trkpt>
      <trkpt lat="47.518" lon="6.77494">
        <ele>388</ele>
        <time>2016-02-28T08:17:28.000Z</time>
      </trkpt>
      <trkpt lat="47.51796" lon="6.77493">
        <ele>388</ele>
        <time>2016-02-28T08:17:29.000Z</time>
      </trkpt>
      <trkpt lat="47.51793" lon="6.77491">
        <ele>388</ele>
        <time>2016-02-28T08:17:30.000Z</time>
      </trkpt>
      <trkpt lat="47.5179" lon="6.7749">
        <ele>388</ele>
        <time>2016-02-28T08:17:31.000Z</time>
      </trkpt>
      <trkpt lat="47.51787" lon="6.77488">
        <ele>388</ele>
        <time>2016-02-28T08:17:32.000Z</time>
      </trkpt>
      <trkpt lat="47.51785" lon="6.77487">
        <ele>388</ele>
        <time>2016-02-28T08:17:33.000Z</time>
      </trkpt>
      <trkpt lat="47.51783" lon="6.77487">
        <ele>388</ele>
        <time>2016-02-28T08:17:34.000Z</time>
      </trkpt>
      <trkpt lat="47.5178" lon="6.77486">
        <ele>388</ele>
        <time>2016-02-28T08:17:35.000Z</time>
      </trkpt>
      <trkpt lat="47.51777" lon="6.77485">
        <ele>388</ele>
        <time>2016-02-28T08:17:36.000Z</time>
      </trkpt>
      <trkpt lat="47.51774" lon="6.77484">
        <ele>388</ele>
        <time>2016-02-28T08:17:37.000Z</time>
      </trkpt>
      <trkpt lat="47.5177" lon="6.77482">
        <ele>388</ele>
        <time>2016-02-28T08:17:38.000Z</time>
      </trkpt>
      <trkpt lat="47.51767" lon="6.77482">
        <ele>389</ele>
        <time>2016-02-28T08:17:39.000Z</time>
      </trkpt>
      <trkpt lat="47.51763" lon="6.77482">
        <ele>389</ele>
        <time>2016-02-28T08:17:40.000Z</time>
      </trkpt>
      <trkpt lat="47.5176" lon="6.77482">
        <ele>389</ele>
        <time>2016-02-28T08:17:41.000Z</time>
      </trkpt>
      <trkpt lat="47.51756" lon="6.7748">
        <ele>389</ele>
        <time>2016-02-28T08:17:42.000Z</time>
      </trkpt>
      <trkpt lat="47.51753" lon="6.77478">
        <ele>389</ele>
        <time>2016-02-28T08:17:43.000Z</time>
      </trkpt>
      <trkpt lat="47.5175" lon="6.77476">
        <ele>389</ele>
        <time>2016-02-28T08:17:44.000Z</time>
      </trkpt>
      <trkpt lat="47.51747" lon="6.77474">
        <ele>389</ele>
        <time>2016-02-28T08:17:45.000Z</time>
      </trkpt>
      <trkpt lat="47.51741" lon="6.77471">
        <ele>389</ele>
        <time>2016-02-28T08:17:47.000Z</time>
      </trkpt>
      <trkpt lat="47.51738" lon="6.7747">
        <ele>389</ele>
        <time>2016-02-28T08:17:48.000Z</time>
      </trkpt>
      <trkpt lat="47.51735" lon="6.7747">
        <ele>389</ele>
        <time>2016-02-28T08:17:49.000Z</time>
      </trkpt>
      <trkpt lat="47.51732" lon="6.77472">
        <ele>389</ele>
        <time>2016-02-28T08:17:51.000Z</time>
      </trkpt>
      <trkpt lat="47.51729" lon="6.77474">
        <ele>389</ele>
        <time>2016-02-28T08:17:52.000Z</time>
      </trkpt>
      <trkpt lat="47.51727" lon="6.77478">
        <ele>389</ele>
        <time>2016-02-28T08:17:53.000Z</time>
      </trkpt>
      <trkpt lat="47.51725" lon="6.77482">
        <ele>389</ele>
        <time>2016-02-28T08:17:54.000Z</time>
      </trkpt>
      <trkpt lat="47.51724" lon="6.77487">
        <ele>389</ele>
        <time>2016-02-28T08:17:55.000Z</time>
      </trkpt>
      <trkpt lat="47.51722" lon="6.77492">
        <ele>389</ele>
        <time>2016-02-28T08:17:56.000Z</time>
      </trkpt>
      <trkpt lat="47.51721" lon="6.77497">
        <ele>389</ele>
        <time>2016-02-28T08:17:57.000Z</time>
      </trkpt>
      <trkpt lat="47.51721" lon="6.77502">
        <ele>390</ele>
        <time>2016-02-28T08:17:58.000Z</time>
      </trkpt>
      <trkpt lat="47.51721" lon="6.77506">
        <ele>390</ele>
        <time>2016-02-28T08:17:59.000Z</time>
      </trkpt>
      <trkpt lat="47.51721" lon="6.77509">
        <ele>390</ele>
        <time>2016-02-28T08:18:00.000Z</time>
      </trkpt>
      <trkpt lat="47.51725" lon="6.77511">
        <ele>390</ele>
        <time>2016-02-28T08:18:02.000Z</time>
      </trkpt>
      <trkpt lat="47.51728" lon="6.77508">
        <ele>390</ele>
        <time>2016-02-28T08:18:03.000Z</time>
      </trkpt>
      <trkpt lat="47.5173" lon="6.77504">
        <ele>390</ele>
        <time>2016-02-28T08:18:04.000Z</time>
      </trkpt>
      <trkpt lat="47.51732" lon="6.77498">
        <ele>389</ele>
        <time>2016-02-28T08:18:05.000Z</time>
      </trkpt>
      <trkpt lat="47.51734" lon="6.77491">
        <ele>389</ele>
        <time>2016-02-28T08:18:06.000Z</time>
      </trkpt>
      <trkpt lat="47.51736" lon="6.77486">
        <ele>389</ele>
        <time>2016-02-28T08:18:07.000Z</time>
      </trkpt>
      <trkpt lat="47.51739" lon="6.77482">
        <ele>389</ele>
        <time>2016-02-28T08:18:08.000Z</time>
      </trkpt>
      <trkpt lat="47.51743" lon="6.7748">
        <ele>389</ele>
        <time>2016-02-28T08:18:09.000Z</time>
      </trkpt>
      <trkpt lat="47.51746" lon="6.77478">
        <ele>389</ele>
        <time>2016-02-28T08:18:10.000Z</time>
      </trkpt>
      <trkpt lat="47.51751" lon="6.77482">
        <ele>389</ele>
        <time>2016-02-28T08:18:11.000Z</time>
      </trkpt>
      <trkpt lat="47.51755" lon="6.77483">
        <ele>389</ele>
        <time>2016-02-28T08:18:12.000Z</time>
      </trkpt>
      <trkpt lat="47.51759" lon="6.77484">
        <ele>389</ele>
        <time>2016-02-28T08:18:13.000Z</time>
      </trkpt>
      <trkpt lat="47.51763" lon="6.77485">
        <ele>389</ele>
        <time>2016-02-28T08:18:14.000Z</time>
      </trkpt>
      <trkpt lat="47.51768" lon="6.77486">
        <ele>389</ele>
        <time>2016-02-28T08:18:15.000Z</time>
      </trkpt>
      <trkpt lat="47.51773" lon="6.77489">
        <ele>388</ele>
        <time>2016-02-28T08:18:16.000Z</time>
      </trkpt>
      <trkpt lat="47.51778" lon="6.77489">
        <ele>388</ele>
        <time>2016-02-28T08:18:17.000Z</time>
      </trkpt>
      <trkpt lat="47.51783" lon="6.77491">
        <ele>388</ele>
        <time>2016-02-28T08:18:18.000Z</time>
      </trkpt>
      <trkpt lat="47.51787" lon="6.77492">
        <ele>388</ele>
        <time>2016-02-28T08:18:19.000Z</time>
      </trkpt>
      <trkpt lat="47.51792" lon="6.77498">
        <ele>388</ele>
        <time>2016-02-28T08:18:20.000Z</time>
      </trkpt>
      <trkpt lat="47.51797" lon="6.77499">
        <ele>388</ele>
        <time>2016-02-28T08:18:21.000Z</time>
      </trkpt>
      <trkpt lat="47.51802" lon="6.77498">
        <ele>388</ele>
        <time>2016-02-28T08:18:22.000Z</time>
      </trkpt>
      <trkpt lat="47.51806" lon="6.77497">
        <ele>388</ele>
        <time>2016-02-28T08:18:23.000Z</time>
      </trkpt>
      <trkpt lat="47.51808" lon="6.77494">
        <ele>388</ele>
        <time>2016-02-28T08:18:24.000Z</time>
      </trkpt>
      <trkpt lat="47.51808" lon="6.7749">
        <ele>388</ele>
        <time>2016-02-28T08:18:25.000Z</time>
      </trkpt>
      <trkpt lat="47.51808" lon="6.77486">
        <ele>388</ele>
        <time>2016-02-28T08:18:26.000Z</time>
      </trkpt>
      <trkpt lat="47.51805" lon="6.77481">
        <ele>388</ele>
        <time>2016-02-28T08:18:32.000Z</time>
      </trkpt>
      <trkpt lat="47.51805" lon="6.77481">
        <ele>388</ele>
        <time>2016-02-28T08:18:33.000Z</time>
      </trkpt>
      <trkpt lat="47.51801" lon="6.77481">
        <ele>388</ele>
        <time>2016-02-28T08:18:38.000Z</time>
      </trkpt>
      <trkpt lat="47.518" lon="6.7748">
        <ele>388</ele>
        <time>2016-02-28T08:18:39.000Z</time>
      </trkpt>
      <trkpt lat="47.51803" lon="6.77484">
        <ele>388</ele>
        <time>2016-02-28T08:21:24.000Z</time>
      </trkpt>
      <trkpt lat="47.51804" lon="6.77484">
        <ele>388</ele>
        <time>2016-02-28T08:21:25.000Z</time>
      </trkpt>
      <trkpt lat="47.51807" lon="6.77489">
        <ele>388</ele>
        <time>2016-02-28T08:21:41.000Z</time>
      </trkpt>
      <trkpt lat="47.51807" lon="6.77491">
        <ele>388</ele>
        <time>2016-02-28T08:21:42.000Z</time>
      </trkpt>
      <trkpt lat="47.51806" lon="6.77493">
        <ele>388</ele>
        <time>2016-02-28T08:21:43.000Z</time>
      </trkpt>
      <trkpt lat="47.51803" lon="6.77494">
        <ele>388</ele>
        <time>2016-02-28T08:21:44.000Z</time>
      </trkpt>
      <trkpt lat="47.51799" lon="6.77495">
        <ele>388</ele>
        <time>2016-02-28T08:21:45.000Z</time>
      </trkpt>
      <trkpt lat="47.51796" lon="6.77494">
        <ele>388</ele>
        <time>2016-02-28T08:21:46.000Z</time>
      </trkpt>
      <trkpt lat="47.51791" lon="6.77491">
        <ele>388</ele>
        <time>2016-02-28T08:21:47.000Z</time>
      </trkpt>
      <trkpt lat="47.51788" lon="6.77489">
        <ele>388</ele>
        <time>2016-02-28T08:21:48.000Z</time>
      </trkpt>
      <trkpt lat="47.51784" lon="6.77486">
        <ele>388</ele>
        <time>2016-02-28T08:21:49.000Z</time>
      </trkpt>
      <trkpt lat="47.51777" lon="6.77481">
        <ele>388</ele>
        <time>2016-02-28T08:21:50.000Z</time>
      </trkpt>
      <trkpt lat="47.51773" lon="6.7748">
        <ele>388</ele>
        <time>2016-02-28T08:21:51.000Z</time>
      </trkpt>
      <trkpt lat="47.5177" lon="6.77479">
        <ele>388</ele>
        <time>2016-02-28T08:21:52.000Z</time>
      </trkpt>
      <trkpt lat="47.51766" lon="6.77478">
        <ele>388</ele>
        <time>2016-02-28T08:21:53.000Z</time>
      </trkpt>
      <trkpt lat="47.51763" lon="6.77478">
        <ele>389</ele>
        <time>2016-02-28T08:21:54.000Z</time>
      </trkpt>
      <trkpt lat="47.5176" lon="6.77478">
        <ele>389</ele>
        <time>2016-02-28T08:21:55.000Z</time>
      </trkpt>
      <trkpt lat="47.51756" lon="6.77478">
        <ele>389</ele>
        <time>2016-02-28T08:21:56.000Z</time>
      </trkpt>
      <trkpt lat="47.51753" lon="6.77479">
        <ele>389</ele>
        <time>2016-02-28T08:21:57.000Z</time>
      </trkpt>
      <trkpt lat="47.5175" lon="6.77478">
        <ele>389</ele>
        <time>2016-02-28T08:21:58.000Z</time>
      </trkpt>
      <trkpt lat="47.51746" lon="6.77478">
        <ele>389</ele>
        <time>2016-02-28T08:21:59.000Z</time>
      </trkpt>
      <trkpt lat="47.51742" lon="6.77477">
        <ele>389</ele>
        <time>2016-02-28T08:22:00.000Z</time>
      </trkpt>
      <trkpt lat="47.51738" lon="6.77476">
        <ele>389</ele>
        <time>2016-02-28T08:22:01.000Z</time>
      </trkpt>
      <trkpt lat="47.51734" lon="6.77476">
        <ele>389</ele>
        <time>2016-02-28T08:22:02.000Z</time>
      </trkpt>
      <trkpt lat="47.5173" lon="6.77477">
        <ele>389</ele>
        <time>2016-02-28T08:22:03.000Z</time>
      </trkpt>
      <trkpt lat="47.51726" lon="6.77479">
        <ele>389</ele>
        <time>2016-02-28T08:22:04.000Z</time>
      </trkpt>
      <trkpt lat="47.51723" lon="6.77484">
        <ele>389</ele>
        <time>2016-02-28T08:22:05.000Z</time>
      </trkpt>
      <trkpt lat="47.51724" lon="6.77496">
        <ele>389</ele>
        <time>2016-02-28T08:22:06.000Z</time>
      </trkpt>
      <trkpt lat="47.51722" lon="6.77502">
        <ele>390</ele>
        <time>2016-02-28T08:22:07.000Z</time>
      </trkpt>
      <trkpt lat="47.51721" lon="6.77508">
        <ele>390</ele>
        <time>2016-02-28T08:22:08.000Z</time>
      </trkpt>
      <trkpt lat="47.51719" lon="6.77513">
        <ele>390</ele>
        <time>2016-02-28T08:22:09.000Z</time>
      </trkpt>
      <trkpt lat="47.51718" lon="6.7752">
        <ele>390</ele>
        <time>2016-02-28T08:22:10.000Z</time>
      </trkpt>
      <trkpt lat="47.51716" lon="6.77525">
        <ele>390</ele>
        <time>2016-02-28T08:22:11.000Z</time>
      </trkpt>
      <trkpt lat="47.51715" lon="6.77532">
        <ele>390</ele>
        <time>2016-02-28T08:22:12.000Z</time>
      </trkpt>
      <trkpt lat="47.51715" lon="6.77539">
        <ele>390</ele>
        <time>2016-02-28T08:22:13.000Z</time>
      </trkpt>
      <trkpt lat="47.51711" lon="6.77541">
        <ele>390</ele>
        <time>2016-02-28T08:22:14.000Z</time>
      </trkpt>
      <trkpt lat="47.51708" lon="6.77544">
        <ele>390</ele>
        <time>2016-02-28T08:22:15.000Z</time>
      </trkpt>
      <trkpt lat="47.51703" lon="6.77543">
        <ele>390</ele>
        <time>2016-02-28T08:22:16.000Z</time>
      </trkpt>
      <trkpt lat="47.51699" lon="6.77543">
        <ele>390</ele>
        <time>2016-02-28T08:22:17.000Z</time>
      </trkpt>
      <trkpt lat="47.51696" lon="6.77541">
        <ele>390</ele>
        <time>2016-02-28T08:22:18.000Z</time>
      </trkpt>
      <trkpt lat="47.51693" lon="6.77535">
        <ele>390</ele>
        <time>2016-02-28T08:22:19.000Z</time>
      </trkpt>
      <trkpt lat="47.5169" lon="6.77531">
        <ele>390</ele>
        <time>2016-02-28T08:22:20.000Z</time>
      </trkpt>
      <trkpt lat="47.51686" lon="6.77526">
        <ele>390</ele>
        <time>2016-02-28T08:22:21.000Z</time>
      </trkpt>
      <trkpt lat="47.51681" lon="6.77521">
        <ele>390</ele>
        <time>2016-02-28T08:22:22.000Z</time>
      </trkpt>
      <trkpt lat="47.51676" lon="6.77516">
        <ele>389</ele>
        <time>2016-02-28T08:22:23.000Z</time>
      </trkpt>
      <trkpt lat="47.51672" lon="6.7751">
        <ele>389</ele>
        <time>2016-02-28T08:22:24.000Z</time>
      </trkpt>
      <trkpt lat="47.51667" lon="6.77504">
        <ele>389</ele>
        <time>2016-02-28T08:22:25.000Z</time>
      </trkpt>
      <trkpt lat="47.51663" lon="6.77498">
        <ele>388</ele>
        <time>2016-02-28T08:22:26.000Z</time>
      </trkpt>
      <trkpt lat="47.51658" lon="6.77491">
        <ele>388</ele>
        <time>2016-02-28T08:22:27.000Z</time>
      </trkpt>
      <trkpt lat="47.51653" lon="6.77485">
        <ele>387</ele>
        <time>2016-02-28T08:22:28.000Z</time>
      </trkpt>
      <trkpt lat="47.51648" lon="6.77479">
        <ele>387</ele>
        <time>2016-02-28T08:22:29.000Z</time>
      </trkpt>
      <trkpt lat="47.51643" lon="6.77471">
        <ele>386</ele>
        <time>2016-02-28T08:22:30.000Z</time>
      </trkpt>
      <trkpt lat="47.51639" lon="6.77465">
        <ele>386</ele>
        <time>2016-02-28T08:22:31.000Z</time>
      </trkpt>
      <trkpt lat="47.51634" lon="6.77457">
        <ele>386</ele>
        <time>2016-02-28T08:22:32.000Z</time>
      </trkpt>
      <trkpt lat="47.51628" lon="6.77451">
        <ele>386</ele>
        <time>2016-02-28T08:22:33.000Z</time>
      </trkpt>
      <trkpt lat="47.51622" lon="6.77444">
        <ele>385</ele>
        <time>2016-02-28T08:22:34.000Z</time>
      </trkpt>
      <trkpt lat="47.51616" lon="6.77437">
        <ele>385</ele>
        <time>2016-02-28T08:22:35.000Z</time>
      </trkpt>
      <trkpt lat="47.5161" lon="6.7743">
        <ele>385</ele>
        <time>2016-02-28T08:22:36.000Z</time>
      </trkpt>
      <trkpt lat="47.51604" lon="6.77423">
        <ele>385</ele>
        <time>2016-02-28T08:22:37.000Z</time>
      </trkpt>
      <trkpt lat="47.51598" lon="6.77416">
        <ele>383</ele>
        <time>2016-02-28T08:22:38.000Z</time>
      </trkpt>
      <trkpt lat="47.51592" lon="6.77409">
        <ele>383</ele>
        <time>2016-02-28T08:22:39.000Z</time>
      </trkpt>
      <trkpt lat="47.51586" lon="6.77402">
        <ele>383</ele>
        <time>2016-02-28T08:22:40.000Z</time>
      </trkpt>
      <trkpt lat="47.5158" lon="6.77395">
        <ele>382</ele>
        <time>2016-02-28T08:22:41.000Z</time>
      </trkpt>
      <trkpt lat="47.51574" lon="6.77388">
        <ele>381</ele>
        <time>2016-02-28T08:22:42.000Z</time>
      </trkpt>
      <trkpt lat="47.51568" lon="6.77381">
        <ele>381</ele>
        <time>2016-02-28T08:22:43.000Z</time>
      </trkpt>
      <trkpt lat="47.51562" lon="6.77373">
        <ele>381</ele>
        <time>2016-02-28T08:22:44.000Z</time>
      </trkpt>
      <trkpt lat="47.51555" lon="6.77366">
        <ele>381</ele>
        <time>2016-02-28T08:22:45.000Z</time>
      </trkpt>
      <trkpt lat="47.51549" lon="6.77359">
        <ele>380</ele>
        <time>2016-02-28T08:22:46.000Z</time>
      </trkpt>
      <trkpt lat="47.51543" lon="6.77352">
        <ele>380</ele>
        <time>2016-02-28T08:22:47.000Z</time>
      </trkpt>
      <trkpt lat="47.51536" lon="6.77345">
        <ele>380</ele>
        <time>2016-02-28T08:22:48.000Z</time>
      </trkpt>
      <trkpt lat="47.51529" lon="6.77337">
        <ele>380</ele>
        <time>2016-02-28T08:22:49.000Z</time>
      </trkpt>
      <trkpt lat="47.51523" lon="6.77329">
        <ele>378</ele>
        <time>2016-02-28T08:22:50.000Z</time>
      </trkpt>
      <trkpt lat="47.51517" lon="6.7732">
        <ele>378</ele>
        <time>2016-02-28T08:22:51.000Z</time>
      </trkpt>
      <trkpt lat="47.51511" lon="6.77312">
        <ele>378</ele>
        <time>2016-02-28T08:22:52.000Z</time>
      </trkpt>
      <trkpt lat="47.51506" lon="6.77305">
        <ele>378</ele>
        <time>2016-02-28T08:22:53.000Z</time>
      </trkpt>
      <trkpt lat="47.51502" lon="6.77299">
        <ele>378</ele>
        <time>2016-02-28T08:22:54.000Z</time>
      </trkpt>
      <trkpt lat="47.51498" lon="6.77291">
        <ele>377</ele>
        <time>2016-02-28T08:22:55.000Z</time>
      </trkpt>
      <trkpt lat="47.51496" lon="6.77285">
        <ele>377</ele>
        <time>2016-02-28T08:22:56.000Z</time>
      </trkpt>
      <trkpt lat="47.51496" lon="6.77277">
        <ele>377</ele>
        <time>2016-02-28T08:22:57.000Z</time>
      </trkpt>
      <trkpt lat="47.51495" lon="6.7727">
        <ele>376</ele>
        <time>2016-02-28T08:22:58.000Z</time>
      </trkpt>
      <trkpt lat="47.51493" lon="6.77261">
        <ele>376</ele>
        <time>2016-02-28T08:22:59.000Z</time>
      </trkpt>
      <trkpt lat="47.51492" lon="6.77251">
        <ele>376</ele>
        <time>2016-02-28T08:23:00.000Z</time>
      </trkpt>
      <trkpt lat="47.51491" lon="6.77242">
        <ele>376</ele>
        <time>2016-02-28T08:23:01.000Z</time>
      </trkpt>
      <trkpt lat="47.51491" lon="6.77233">
        <ele>375</ele>
        <time>2016-02-28T08:23:02.000Z</time>
      </trkpt>
      <trkpt lat="47.5149" lon="6.77224">
        <ele>375</ele>
        <time>2016-02-28T08:23:03.000Z</time>
      </trkpt>
      <trkpt lat="47.51489" lon="6.77215">
        <ele>375</ele>
        <time>2016-02-28T08:23:04.000Z</time>
      </trkpt>
      <trkpt lat="47.51486" lon="6.77207">
        <ele>375</ele>
        <time>2016-02-28T08:23:05.000Z</time>
      </trkpt>
      <trkpt lat="47.51482" lon="6.77201">
        <ele>375</ele>
        <time>2016-02-28T08:23:06.000Z</time>
      </trkpt>
      <trkpt lat="47.51476" lon="6.77197">
        <ele>375</ele>
        <time>2016-02-28T08:23:07.000Z</time>
      </trkpt>
      <trkpt lat="47.51469" lon="6.77197">
        <ele>375</ele>
        <time>2016-02-28T08:23:08.000Z</time>
      </trkpt>
      <trkpt lat="47.51462" lon="6.772">
        <ele>375</ele>
        <time>2016-02-28T08:23:09.000Z</time>
      </trkpt>
      <trkpt lat="47.51455" lon="6.77204">
        <ele>375</ele>
        <time>2016-02-28T08:23:10.000Z</time>
      </trkpt>
      <trkpt lat="47.51447" lon="6.77207">
        <ele>375</ele>
        <time>2016-02-28T08:23:11.000Z</time>
      </trkpt>
      <trkpt lat="47.5144" lon="6.7721">
        <ele>375</ele>
        <time>2016-02-28T08:23:12.000Z</time>
      </trkpt>
      <trkpt lat="47.51433" lon="6.77215">
        <ele>375</ele>
        <time>2016-02-28T08:23:13.000Z</time>
      </trkpt>
      <trkpt lat="47.51426" lon="6.77217">
        <ele>375</ele>
        <time>2016-02-28T08:23:14.000Z</time>
      </trkpt>
      <trkpt lat="47.51419" lon="6.7722">
        <ele>375</ele>
        <time>2016-02-28T08:23:15.000Z</time>
      </trkpt>
      <trkpt lat="47.51413" lon="6.77223">
        <ele>376</ele>
        <time>2016-02-28T08:23:16.000Z</time>
      </trkpt>
      <trkpt lat="47.51407" lon="6.77226">
        <ele>376</ele>
        <time>2016-02-28T08:23:17.000Z</time>
      </trkpt>
      <trkpt lat="47.51402" lon="6.77229">
        <ele>376</ele>
        <time>2016-02-28T08:23:18.000Z</time>
      </trkpt>
      <trkpt lat="47.51397" lon="6.7723">
        <ele>376</ele>
        <time>2016-02-28T08:23:19.000Z</time>
      </trkpt>
      <trkpt lat="47.51392" lon="6.77232">
        <ele>376</ele>
        <time>2016-02-28T08:23:20.000Z</time>
      </trkpt>
      <trkpt lat="47.51387" lon="6.77236">
        <ele>376</ele>
        <time>2016-02-28T08:23:21.000Z</time>
      </trkpt>
      <trkpt lat="47.51383" lon="6.77239">
        <ele>376</ele>
        <time>2016-02-28T08:23:22.000Z</time>
      </trkpt>
      <trkpt lat="47.51378" lon="6.77239">
        <ele>376</ele>
        <time>2016-02-28T08:23:23.000Z</time>
      </trkpt>
      <trkpt lat="47.51374" lon="6.77242">
        <ele>376</ele>
        <time>2016-02-28T08:23:24.000Z</time>
      </trkpt>
      <trkpt lat="47.5137" lon="6.77245">
        <ele>376</ele>
        <time>2016-02-28T08:23:25.000Z</time>
      </trkpt>
      <trkpt lat="47.51366" lon="6.77249">
        <ele>376</ele>
        <time>2016-02-28T08:23:26.000Z</time>
      </trkpt>
      <trkpt lat="47.51362" lon="6.77252">
        <ele>378</ele>
        <time>2016-02-28T08:23:27.000Z</time>
      </trkpt>
      <trkpt lat="47.51359" lon="6.77255">
        <ele>378</ele>
        <time>2016-02-28T08:23:28.000Z</time>
      </trkpt>
      <trkpt lat="47.51355" lon="6.77256">
        <ele>378</ele>
        <time>2016-02-28T08:23:29.000Z</time>
      </trkpt>
      <trkpt lat="47.51352" lon="6.77258">
        <ele>378</ele>
        <time>2016-02-28T08:23:30.000Z</time>
      </trkpt>
      <trkpt lat="47.51349" lon="6.77263">
        <ele>378</ele>
        <time>2016-02-28T08:23:31.000Z</time>
      </trkpt>
      <trkpt lat="47.51346" lon="6.77266">
        <ele>378</ele>
        <time>2016-02-28T08:23:32.000Z</time>
      </trkpt>
      <trkpt lat="47.51343" lon="6.7727">
        <ele>378</ele>
        <time>2016-02-28T08:23:33.000Z</time>
      </trkpt>
      <trkpt lat="47.5134" lon="6.77271">
        <ele>378</ele>
        <time>2016-02-28T08:23:34.000Z</time>
      </trkpt>
      <trkpt lat="47.51337" lon="6.77274">
        <ele>378</ele>
        <time>2016-02-28T08:23:35.000Z</time>
      </trkpt>
      <trkpt lat="47.51334" lon="6.77276">
        <ele>378</ele>
        <time>2016-02-28T08:23:36.000Z</time>
      </trkpt>
      <trkpt lat="47.51331" lon="6.77277">
        <ele>377</ele>
        <time>2016-02-28T08:23:37.000Z</time>
      </trkpt>
      <trkpt lat="47.51328" lon="6.77278">
        <ele>377</ele>
        <time>2016-02-28T08:23:38.000Z</time>
      </trkpt>
      <trkpt lat="47.51324" lon="6.77278">
        <ele>377</ele>
        <time>2016-02-28T08:23:39.000Z</time>
      </trkpt>
      <trkpt lat="47.5132" lon="6.77278">
        <ele>377</ele>
        <time>2016-02-28T08:23:40.000Z</time>
      </trkpt>
      <trkpt lat="47.51317" lon="6.77276">
        <ele>377</ele>
        <time>2016-02-28T08:23:41.000Z</time>
      </trkpt>
      <trkpt lat="47.51313" lon="6.77275">
        <ele>377</ele>
        <time>2016-02-28T08:23:42.000Z</time>
      </trkpt>
      <trkpt lat="47.5131" lon="6.77273">
        <ele>377</ele>
        <time>2016-02-28T08:23:43.000Z</time>
      </trkpt>
      <trkpt lat="47.51307" lon="6.77272">
        <ele>377</ele>
        <time>2016-02-28T08:23:44.000Z</time>
      </trkpt>
      <trkpt lat="47.51303" lon="6.7727">
        <ele>377</ele>
        <time>2016-02-28T08:23:45.000Z</time>
      </trkpt>
      <trkpt lat="47.513" lon="6.77268">
        <ele>377</ele>
        <time>2016-02-28T08:23:46.000Z</time>
      </trkpt>
      <trkpt lat="47.51297" lon="6.77266">
        <ele>377</ele>
        <time>2016-02-28T08:23:47.000Z</time>
      </trkpt>
      <trkpt lat="47.51293" lon="6.77264">
        <ele>377</ele>
        <time>2016-02-28T08:23:48.000Z</time>
      </trkpt>
      <trkpt lat="47.51289" lon="6.77262">
        <ele>377</ele>
        <time>2016-02-28T08:23:49.000Z</time>
      </trkpt>
      <trkpt lat="47.51286" lon="6.77261">
        <ele>377</ele>
        <time>2016-02-28T08:23:50.000Z</time>
      </trkpt>
      <trkpt lat="47.51282" lon="6.77259">
        <ele>377</ele>
        <time>2016-02-28T08:23:51.000Z</time>
      </trkpt>
      <trkpt lat="47.51279" lon="6.77257">
        <ele>377</ele>
        <time>2016-02-28T08:23:52.000Z</time>
      </trkpt>
      <trkpt lat="47.51275" lon="6.77254">
        <ele>377</ele>
        <time>2016-02-28T08:23:53.000Z</time>
      </trkpt>
      <trkpt lat="47.51272" lon="6.77251">
        <ele>378</ele>
        <time>2016-02-28T08:23:54.000Z</time>
      </trkpt>
      <trkpt lat="47.51268" lon="6.77248">
        <ele>378</ele>
        <time>2016-02-28T08:23:55.000Z</time>
      </trkpt>
      <trkpt lat="47.51265" lon="6.77245">
        <ele>378</ele>
        <time>2016-02-28T08:23:56.000Z</time>
      </trkpt>
      <trkpt lat="47.51262" lon="6.77241">
        <ele>378</ele>
        <time>2016-02-28T08:23:57.000Z</time>
      </trkpt>
      <trkpt lat="47.51259" lon="6.77237">
        <ele>378</ele>
        <time>2016-02-28T08:23:58.000Z</time>
      </trkpt>
      <trkpt lat="47.51257" lon="6.77232">
        <ele>378</ele>
        <time>2016-02-28T08:23:59.000Z</time>
      </trkpt>
      <trkpt lat="47.51254" lon="6.77223">
        <ele>378</ele>
        <time>2016-02-28T08:24:00.000Z</time>
      </trkpt>
      <trkpt lat="47.51251" lon="6.77218">
        <ele>378</ele>
        <time>2016-02-28T08:24:01.000Z</time>
      </trkpt>
      <trkpt lat="47.51248" lon="6.77213">
        <ele>376</ele>
        <time>2016-02-28T08:24:02.000Z</time>
      </trkpt>
      <trkpt lat="47.51245" lon="6.77208">
        <ele>376</ele>
        <time>2016-02-28T08:24:03.000Z</time>
      </trkpt>
      <trkpt lat="47.51241" lon="6.77201">
        <ele>376</ele>
        <time>2016-02-28T08:24:04.000Z</time>
      </trkpt>
      <trkpt lat="47.51238" lon="6.77195">
        <ele>376</ele>
        <time>2016-02-28T08:24:05.000Z</time>
      </trkpt>
      <trkpt lat="47.51235" lon="6.7719">
        <ele>377</ele>
        <time>2016-02-28T08:24:06.000Z</time>
      </trkpt>
      <trkpt lat="47.51231" lon="6.77182">
        <ele>377</ele>
        <time>2016-02-28T08:24:07.000Z</time>
      </trkpt>
      <trkpt lat="47.51228" lon="6.77176">
        <ele>377</ele>
        <time>2016-02-28T08:24:08.000Z</time>
      </trkpt>
      <trkpt lat="47.51225" lon="6.7717">
        <ele>377</ele>
        <time>2016-02-28T08:24:09.000Z</time>
      </trkpt>
      <trkpt lat="47.51221" lon="6.77163">
        <ele>378</ele>
        <time>2016-02-28T08:24:10.000Z</time>
      </trkpt>
      <trkpt lat="47.51218" lon="6.77157">
        <ele>378</ele>
        <time>2016-02-28T08:24:11.000Z</time>
      </trkpt>
      <trkpt lat="47.51214" lon="6.7715">
        <ele>378</ele>
        <time>2016-02-28T08:24:12.000Z</time>
      </trkpt>
      <trkpt lat="47.5121" lon="6.77143">
        <ele>378</ele>
        <time>2016-02-28T08:24:13.000Z</time>
      </trkpt>
      <trkpt lat="47.51206" lon="6.77135">
        <ele>378</ele>
        <time>2016-02-28T08:24:14.000Z</time>
      </trkpt>
      <trkpt lat="47.51202" lon="6.77128">
        <ele>378</ele>
        <time>2016-02-28T08:24:15.000Z</time>
      </trkpt>
      <trkpt lat="47.51196" lon="6.77121">
        <ele>378</ele>
        <time>2016-02-28T08:24:16.000Z</time>
      </trkpt>
      <trkpt lat="47.51192" lon="6.77113">
        <ele>378</ele>
        <time>2016-02-28T08:24:17.000Z</time>
      </trkpt>
      <trkpt lat="47.51188" lon="6.77105">
        <ele>378</ele>
        <time>2016-02-28T08:24:18.000Z</time>
      </trkpt>
      <trkpt lat="47.51184" lon="6.77098">
        <ele>378</ele>
        <time>2016-02-28T08:24:19.000Z</time>
      </trkpt>
      <trkpt lat="47.51179" lon="6.7709">
        <ele>378</ele>
        <time>2016-02-28T08:24:20.000Z</time>
      </trkpt>
      <trkpt lat="47.51174" lon="6.77082">
        <ele>377</ele>
        <time>2016-02-28T08:24:21.000Z</time>
      </trkpt>
      <trkpt lat="47.51169" lon="6.77074">
        <ele>377</ele>
        <time>2016-02-28T08:24:22.000Z</time>
      </trkpt>
      <trkpt lat="47.51163" lon="6.77067">
        <ele>377</ele>
        <time>2016-02-28T08:24:23.000Z</time>
      </trkpt>
      <trkpt lat="47.51158" lon="6.7706">
        <ele>376</ele>
        <time>2016-02-28T08:24:24.000Z</time>
      </trkpt>
      <trkpt lat="47.51151" lon="6.77055">
        <ele>376</ele>
        <time>2016-02-28T08:24:25.000Z</time>
      </trkpt>
      <trkpt lat="47.51145" lon="6.7705">
        <ele>376</ele>
        <time>2016-02-28T08:24:26.000Z</time>
      </trkpt>
      <trkpt lat="47.51139" lon="6.77045">
        <ele>375</ele>
        <time>2016-02-28T08:24:27.000Z</time>
      </trkpt>
      <trkpt lat="47.51133" lon="6.77038">
        <ele>375</ele>
        <time>2016-02-28T08:24:28.000Z</time>
      </trkpt>
      <trkpt lat="47.51127" lon="6.77033">
        <ele>375</ele>
        <time>2016-02-28T08:24:29.000Z</time>
      </trkpt>
      <trkpt lat="47.51122" lon="6.77026">
        <ele>375</ele>
        <time>2016-02-28T08:24:30.000Z</time>
      </trkpt>
      <trkpt lat="47.51115" lon="6.77021">
        <ele>375</ele>
        <time>2016-02-28T08:24:31.000Z</time>
      </trkpt>
      <trkpt lat="47.51109" lon="6.77015">
        <ele>375</ele>
        <time>2016-02-28T08:24:32.000Z</time>
      </trkpt>
      <trkpt lat="47.51103" lon="6.7701">
        <ele>375</ele>
        <time>2016-02-28T08:24:33.000Z</time>
      </trkpt>
      <trkpt lat="47.51097" lon="6.77004">
        <ele>375</ele>
        <time>2016-02-28T08:24:34.000Z</time>
      </trkpt>
      <trkpt lat="47.51091" lon="6.76999">
        <ele>375</ele>
        <time>2016-02-28T08:24:35.000Z</time>
      </trkpt>
      <trkpt lat="47.51085" lon="6.76994">
        <ele>375</ele>
        <time>2016-02-28T08:24:36.000Z</time>
      </trkpt>
      <trkpt lat="47.51079" lon="6.76988">
        <ele>375</ele>
        <time>2016-02-28T08:24:37.000Z</time>
      </trkpt>
      <trkpt lat="47.51073" lon="6.76983">
        <ele>375</ele>
        <time>2016-02-28T08:24:38.000Z</time>
      </trkpt>
      <trkpt lat="47.51068" lon="6.76978">
        <ele>375</ele>
        <time>2016-02-28T08:24:39.000Z</time>
      </trkpt>
      <trkpt lat="47.51063" lon="6.76972">
        <ele>375</ele>
        <time>2016-02-28T08:24:40.000Z</time>
      </trkpt>
      <trkpt lat="47.51056" lon="6.76968">
        <ele>375</ele>
        <time>2016-02-28T08:24:41.000Z</time>
      </trkpt>
      <trkpt lat="47.5105" lon="6.76964">
        <ele>375</ele>
        <time>2016-02-28T08:24:42.000Z</time>
      </trkpt>
      <trkpt lat="47.51045" lon="6.76959">
        <ele>375</ele>
        <time>2016-02-28T08:24:43.000Z</time>
      </trkpt>
      <trkpt lat="47.5104" lon="6.76956">
        <ele>375</ele>
        <time>2016-02-28T08:24:44.000Z</time>
      </trkpt>
      <trkpt lat="47.51035" lon="6.76952">
        <ele>375</ele>
        <time>2016-02-28T08:24:45.000Z</time>
      </trkpt>
      <trkpt lat="47.5103" lon="6.76946">
        <ele>375</ele>
        <time>2016-02-28T08:24:46.000Z</time>
      </trkpt>
      <trkpt lat="47.51027" lon="6.76942">
        <ele>375</ele>
        <time>2016-02-28T08:24:47.000Z</time>
      </trkpt>
      <trkpt lat="47.51022" lon="6.76937">
        <ele>375</ele>
        <time>2016-02-28T08:24:48.000Z</time>
      </trkpt>
      <trkpt lat="47.51017" lon="6.76933">
        <ele>375</ele>
        <time>2016-02-28T08:24:49.000Z</time>
      </trkpt>
      <trkpt lat="47.51012" lon="6.76929">
        <ele>375</ele>
        <time>2016-02-28T08:24:50.000Z</time>
      </trkpt>
      <trkpt lat="47.51008" lon="6.76925">
        <ele>375</ele>
        <time>2016-02-28T08:24:51.000Z</time>
      </trkpt>
      <trkpt lat="47.51003" lon="6.76921">
        <ele>376</ele>
        <time>2016-02-28T08:24:52.000Z</time>
      </trkpt>
      <trkpt lat="47.50998" lon="6.76916">
        <ele>376</ele>
        <time>2016-02-28T08:24:53.000Z</time>
      </trkpt>
      <trkpt lat="47.50994" lon="6.76912">
        <ele>376</ele>
        <time>2016-02-28T08:24:54.000Z</time>
      </trkpt>
      <trkpt lat="47.50991" lon="6.76907">
        <ele>377</ele>
        <time>2016-02-28T08:24:55.000Z</time>
      </trkpt>
      <trkpt lat="47.5099" lon="6.769">
        <ele>377</ele>
        <time>2016-02-28T08:24:56.000Z</time>
      </trkpt>
      <trkpt lat="47.50987" lon="6.76894">
        <ele>377</ele>
        <time>2016-02-28T08:24:57.000Z</time>
      </trkpt>
      <trkpt lat="47.50982" lon="6.7689">
        <ele>377</ele>
        <time>2016-02-28T08:24:58.000Z</time>
      </trkpt>
      <trkpt lat="47.50978" lon="6.76889">
        <ele>377</ele>
        <time>2016-02-28T08:24:59.000Z</time>
      </trkpt>
      <trkpt lat="47.50973" lon="6.76889">
        <ele>377</ele>
        <time>2016-02-28T08:25:00.000Z</time>
      </trkpt>
      <trkpt lat="47.50969" lon="6.76889">
        <ele>377</ele>
        <time>2016-02-28T08:25:01.000Z</time>
      </trkpt>
      <trkpt lat="47.50965" lon="6.76888">
        <ele>377</ele>
        <time>2016-02-28T08:25:02.000Z</time>
      </trkpt>
      <trkpt lat="47.50961" lon="6.76886">
        <ele>377</ele>
        <time>2016-02-28T08:25:03.000Z</time>
      </trkpt>
      <trkpt lat="47.50958" lon="6.76883">
        <ele>377</ele>
        <time>2016-02-28T08:25:04.000Z</time>
      </trkpt>
      <trkpt lat="47.50955" lon="6.7688">
        <ele>378</ele>
        <time>2016-02-28T08:25:05.000Z</time>
      </trkpt>
      <trkpt lat="47.50951" lon="6.76878">
        <ele>378</ele>
        <time>2016-02-28T08:25:06.000Z</time>
      </trkpt>
      <trkpt lat="47.50947" lon="6.76875">
        <ele>378</ele>
        <time>2016-02-28T08:25:07.000Z</time>
      </trkpt>
      <trkpt lat="47.50944" lon="6.76871">
        <ele>378</ele>
        <time>2016-02-28T08:25:08.000Z</time>
      </trkpt>
      <trkpt lat="47.50941" lon="6.76868">
        <ele>378</ele>
        <time>2016-02-28T08:25:09.000Z</time>
      </trkpt>
      <trkpt lat="47.50937" lon="6.76864">
        <ele>378</ele>
        <time>2016-02-28T08:25:10.000Z</time>
      </trkpt>
      <trkpt lat="47.50933" lon="6.7686">
        <ele>378</ele>
        <time>2016-02-28T08:25:11.000Z</time>
      </trkpt>
      <trkpt lat="47.5093" lon="6.76856">
        <ele>378</ele>
        <time>2016-02-28T08:25:12.000Z</time>
      </trkpt>
      <trkpt lat="47.50926" lon="6.7685">
        <ele>379</ele>
        <time>2016-02-28T08:25:13.000Z</time>
      </trkpt>
      <trkpt lat="47.50922" lon="6.76846">
        <ele>379</ele>
        <time>2016-02-28T08:25:14.000Z</time>
      </trkpt>
      <trkpt lat="47.5092" lon="6.76841">
        <ele>379</ele>
        <time>2016-02-28T08:25:15.000Z</time>
      </trkpt>
      <trkpt lat="47.50918" lon="6.76835">
        <ele>380</ele>
        <time>2016-02-28T08:25:16.000Z</time>
      </trkpt>
      <trkpt lat="47.50915" lon="6.76829">
        <ele>380</ele>
        <time>2016-02-28T08:25:17.000Z</time>
      </trkpt>
      <trkpt lat="47.50914" lon="6.76824">
        <ele>380</ele>
        <time>2016-02-28T08:25:18.000Z</time>
      </trkpt>
      <trkpt lat="47.50912" lon="6.76819">
        <ele>381</ele>
        <time>2016-02-28T08:25:19.000Z</time>
      </trkpt>
      <trkpt lat="47.5091" lon="6.76813">
        <ele>381</ele>
        <time>2016-02-28T08:25:20.000Z</time>
      </trkpt>
      <trkpt lat="47.50908" lon="6.76807">
        <ele>381</ele>
        <time>2016-02-28T08:25:21.000Z</time>
      </trkpt>
      <trkpt lat="47.50905" lon="6.76802">
        <ele>381</ele>
        <time>2016-02-28T08:25:22.000Z</time>
      </trkpt>
      <trkpt lat="47.50903" lon="6.76797">
        <ele>381</ele>
        <time>2016-02-28T08:25:23.000Z</time>
      </trkpt>
      <trkpt lat="47.50901" lon="6.76791">
        <ele>381</ele>
        <time>2016-02-28T08:25:24.000Z</time>
      </trkpt>
      <trkpt lat="47.50898" lon="6.76786">
        <ele>381</ele>
        <time>2016-02-28T08:25:25.000Z</time>
      </trkpt>
      <trkpt lat="47.50896" lon="6.76781">
        <ele>381</ele>
        <time>2016-02-28T08:25:26.000Z</time>
      </trkpt>
      <trkpt lat="47.50894" lon="6.76775">
        <ele>381</ele>
        <time>2016-02-28T08:25:27.000Z</time>
      </trkpt>
      <trkpt lat="47.50892" lon="6.7677">
        <ele>381</ele>
        <time>2016-02-28T08:25:28.000Z</time>
      </trkpt>
      <trkpt lat="47.5089" lon="6.76764">
        <ele>381</ele>
        <time>2016-02-28T08:25:29.000Z</time>
      </trkpt>
      <trkpt lat="47.50888" lon="6.76759">
        <ele>381</ele>
        <time>2016-02-28T08:25:30.000Z</time>
      </trkpt>
      <trkpt lat="47.50886" lon="6.76754">
        <ele>381</ele>
        <time>2016-02-28T08:25:31.000Z</time>
      </trkpt>
      <trkpt lat="47.50884" lon="6.76749">
        <ele>382</ele>
        <time>2016-02-28T08:25:32.000Z</time>
      </trkpt>
      <trkpt lat="47.50883" lon="6.76744">
        <ele>382</ele>
        <time>2016-02-28T08:25:33.000Z</time>
      </trkpt>
      <trkpt lat="47.50881" lon="6.76739">
        <ele>382</ele>
        <time>2016-02-28T08:25:34.000Z</time>
      </trkpt>
      <trkpt lat="47.5088" lon="6.76734">
        <ele>383</ele>
        <time>2016-02-28T08:25:35.000Z</time>
      </trkpt>
      <trkpt lat="47.50879" lon="6.7673">
        <ele>383</ele>
        <time>2016-02-28T08:25:36.000Z</time>
      </trkpt>
      <trkpt lat="47.50877" lon="6.76725">
        <ele>383</ele>
        <time>2016-02-28T08:25:37.000Z</time>
      </trkpt>
      <trkpt lat="47.50876" lon="6.7672">
        <ele>383</ele>
        <time>2016-02-28T08:25:38.000Z</time>
      </trkpt>
      <trkpt lat="47.50875" lon="6.76716">
        <ele>383</ele>
        <time>2016-02-28T08:25:39.000Z</time>
      </trkpt>
      <trkpt lat="47.50873" lon="6.76711">
        <ele>383</ele>
        <time>2016-02-28T08:25:40.000Z</time>
      </trkpt>
      <trkpt lat="47.50872" lon="6.76706">
        <ele>383</ele>
        <time>2016-02-28T08:25:41.000Z</time>
      </trkpt>
      <trkpt lat="47.50871" lon="6.76702">
        <ele>384</ele>
        <time>2016-02-28T08:25:42.000Z</time>
      </trkpt>
      <trkpt lat="47.50869" lon="6.76698">
        <ele>384</ele>
        <time>2016-02-28T08:25:43.000Z</time>
      </trkpt>
      <trkpt lat="47.50867" lon="6.76693">
        <ele>384</ele>
        <time>2016-02-28T08:25:44.000Z</time>
      </trkpt>
      <trkpt lat="47.50866" lon="6.76688">
        <ele>384</ele>
        <time>2016-02-28T08:25:45.000Z</time>
      </trkpt>
      <trkpt lat="47.50864" lon="6.76684">
        <ele>384</ele>
        <time>2016-02-28T08:25:46.000Z</time>
      </trkpt>
      <trkpt lat="47.50862" lon="6.76679">
        <ele>385</ele>
        <time>2016-02-28T08:25:47.000Z</time>
      </trkpt>
      <trkpt lat="47.5086" lon="6.76675">
        <ele>385</ele>
        <time>2016-02-28T08:25:48.000Z</time>
      </trkpt>
      <trkpt lat="47.50858" lon="6.7667">
        <ele>385</ele>
        <time>2016-02-28T08:25:49.000Z</time>
      </trkpt>
      <trkpt lat="47.50857" lon="6.76666">
        <ele>387</ele>
        <time>2016-02-28T08:25:50.000Z</time>
      </trkpt>
      <trkpt lat="47.50855" lon="6.76661">
        <ele>387</ele>
        <time>2016-02-28T08:25:51.000Z</time>
      </trkpt>
      <trkpt lat="47.50853" lon="6.76657">
        <ele>387</ele>
        <time>2016-02-28T08:25:52.000Z</time>
      </trkpt>
      <trkpt lat="47.50852" lon="6.76652">
        <ele>387</ele>
        <time>2016-02-28T08:25:53.000Z</time>
      </trkpt>
      <trkpt lat="47.5085" lon="6.76648">
        <ele>387</ele>
        <time>2016-02-28T08:25:54.000Z</time>
      </trkpt>
      <trkpt lat="47.50848" lon="6.76644">
        <ele>387</ele>
        <time>2016-02-28T08:25:55.000Z</time>
      </trkpt>
      <trkpt lat="47.50846" lon="6.76641">
        <ele>387</ele>
        <time>2016-02-28T08:25:56.000Z</time>
      </trkpt>
      <trkpt lat="47.50844" lon="6.76637">
        <ele>387</ele>
        <time>2016-02-28T08:25:57.000Z</time>
      </trkpt>
      <trkpt lat="47.50842" lon="6.76633">
        <ele>387</ele>
        <time>2016-02-28T08:25:58.000Z</time>
      </trkpt>
      <trkpt lat="47.5084" lon="6.76629">
        <ele>387</ele>
        <time>2016-02-28T08:25:59.000Z</time>
      </trkpt>
      <trkpt lat="47.50838" lon="6.76625">
        <ele>387</ele>
        <time>2016-02-28T08:26:00.000Z</time>
      </trkpt>
      <trkpt lat="47.50836" lon="6.76621">
        <ele>387</ele>
        <time>2016-02-28T08:26:01.000Z</time>
      </trkpt>
      <trkpt lat="47.50834" lon="6.76616">
        <ele>387</ele>
        <time>2016-02-28T08:26:02.000Z</time>
      </trkpt>
      <trkpt lat="47.50832" lon="6.76612">
        <ele>390</ele>
        <time>2016-02-28T08:26:03.000Z</time>
      </trkpt>
      <trkpt lat="47.50831" lon="6.76608">
        <ele>390</ele>
        <time>2016-02-28T08:26:04.000Z</time>
      </trkpt>
      <trkpt lat="47.5083" lon="6.76604">
        <ele>390</ele>
        <time>2016-02-28T08:26:05.000Z</time>
      </trkpt>
      <trkpt lat="47.50829" lon="6.766">
        <ele>390</ele>
        <time>2016-02-28T08:26:06.000Z</time>
      </trkpt>
      <trkpt lat="47.50828" lon="6.76596">
        <ele>390</ele>
        <time>2016-02-28T08:26:07.000Z</time>
      </trkpt>
      <trkpt lat="47.50824" lon="6.76592">
        <ele>390</ele>
        <time>2016-02-28T08:26:09.000Z</time>
      </trkpt>
      <trkpt lat="47.50822" lon="6.76593">
        <ele>390</ele>
        <time>2016-02-28T08:26:10.000Z</time>
      </trkpt>
      <trkpt lat="47.50819" lon="6.76595">
        <ele>390</ele>
        <time>2016-02-28T08:26:11.000Z</time>
      </trkpt>
      <trkpt lat="47.50816" lon="6.76596">
        <ele>390</ele>
        <time>2016-02-28T08:26:12.000Z</time>
      </trkpt>
      <trkpt lat="47.50813" lon="6.76595">
        <ele>390</ele>
        <time>2016-02-28T08:26:13.000Z</time>
      </trkpt>
      <trkpt lat="47.50811" lon="6.76592">
        <ele>390</ele>
        <time>2016-02-28T08:26:14.000Z</time>
      </trkpt>
      <trkpt lat="47.50809" lon="6.76589">
        <ele>390</ele>
        <time>2016-02-28T08:26:15.000Z</time>
      </trkpt>
      <trkpt lat="47.50807" lon="6.76587">
        <ele>390</ele>
        <time>2016-02-28T08:26:16.000Z</time>
      </trkpt>
      <trkpt lat="47.50802" lon="6.76587">
        <ele>391</ele>
        <time>2016-02-28T08:26:18.000Z</time>
      </trkpt>
      <trkpt lat="47.508" lon="6.76589">
        <ele>391</ele>
        <time>2016-02-28T08:26:19.000Z</time>
      </trkpt>
      <trkpt lat="47.50796" lon="6.76589">
        <ele>391</ele>
        <time>2016-02-28T08:26:22.000Z</time>
      </trkpt>
      <trkpt lat="47.50796" lon="6.76589">
        <ele>391</ele>
        <time>2016-02-28T08:26:23.000Z</time>
      </trkpt>
      <trkpt lat="47.50791" lon="6.76589">
        <ele>391</ele>
        <time>2016-02-28T08:26:33.000Z</time>
      </trkpt>
      <trkpt lat="47.5079" lon="6.76589">
        <ele>391</ele>
        <time>2016-02-28T08:26:34.000Z</time>
      </trkpt>
      <trkpt lat="47.50786" lon="6.76588">
        <ele>391</ele>
        <time>2016-02-28T08:26:36.000Z</time>
      </trkpt>
      <trkpt lat="47.50783" lon="6.76588">
        <ele>391</ele>
        <time>2016-02-28T08:26:37.000Z</time>
      </trkpt>
      <trkpt lat="47.5078" lon="6.76589">
        <ele>392</ele>
        <time>2016-02-28T08:26:38.000Z</time>
      </trkpt>
      <trkpt lat="47.50777" lon="6.7659">
        <ele>392</ele>
        <time>2016-02-28T08:26:39.000Z</time>
      </trkpt>
      <trkpt lat="47.50773" lon="6.76591">
        <ele>392</ele>
        <time>2016-02-28T08:26:40.000Z</time>
      </trkpt>
      <trkpt lat="47.5077" lon="6.76592">
        <ele>392</ele>
        <time>2016-02-28T08:26:41.000Z</time>
      </trkpt>
      <trkpt lat="47.50767" lon="6.76592">
        <ele>392</ele>
        <time>2016-02-28T08:26:42.000Z</time>
      </trkpt>
      <trkpt lat="47.50763" lon="6.76593">
        <ele>392</ele>
        <time>2016-02-28T08:26:43.000Z</time>
      </trkpt>
      <trkpt lat="47.50759" lon="6.76593">
        <ele>393</ele>
        <time>2016-02-28T08:26:44.000Z</time>
      </trkpt>
      <trkpt lat="47.50756" lon="6.76592">
        <ele>393</ele>
        <time>2016-02-28T08:26:45.000Z</time>
      </trkpt>
      <trkpt lat="47.50752" lon="6.76591">
        <ele>393</ele>
        <time>2016-02-28T08:26:46.000Z</time>
      </trkpt>
      <trkpt lat="47.50748" lon="6.76589">
        <ele>394</ele>
        <time>2016-02-28T08:26:47.000Z</time>
      </trkpt>
      <trkpt lat="47.50744" lon="6.76588">
        <ele>394</ele>
        <time>2016-02-28T08:26:48.000Z</time>
      </trkpt>
      <trkpt lat="47.50741" lon="6.76588">
        <ele>394</ele>
        <time>2016-02-28T08:26:49.000Z</time>
      </trkpt>
      <trkpt lat="47.50737" lon="6.76589">
        <ele>394</ele>
        <time>2016-02-28T08:26:50.000Z</time>
      </trkpt>
      <trkpt lat="47.50734" lon="6.76591">
        <ele>394</ele>
        <time>2016-02-28T08:26:51.000Z</time>
      </trkpt>
      <trkpt lat="47.5073" lon="6.76592">
        <ele>394</ele>
        <time>2016-02-28T08:26:52.000Z</time>
      </trkpt>
      <trkpt lat="47.50727" lon="6.76592">
        <ele>394</ele>
        <time>2016-02-28T08:26:53.000Z</time>
      </trkpt>
      <trkpt lat="47.50723" lon="6.76592">
        <ele>394</ele>
        <time>2016-02-28T08:26:54.000Z</time>
      </trkpt>
      <trkpt lat="47.50719" lon="6.76591">
        <ele>394</ele>
        <time>2016-02-28T08:26:55.000Z</time>
      </trkpt>
      <trkpt lat="47.50716" lon="6.7659">
        <ele>394</ele>
        <time>2016-02-28T08:26:56.000Z</time>
      </trkpt>
      <trkpt lat="47.50712" lon="6.76589">
        <ele>395</ele>
        <time>2016-02-28T08:26:57.000Z</time>
      </trkpt>
      <trkpt lat="47.50708" lon="6.76587">
        <ele>395</ele>
        <time>2016-02-28T08:26:58.000Z</time>
      </trkpt>
      <trkpt lat="47.50705" lon="6.76586">
        <ele>395</ele>
        <time>2016-02-28T08:26:59.000Z</time>
      </trkpt>
      <trkpt lat="47.50701" lon="6.76584">
        <ele>395</ele>
        <time>2016-02-28T08:27:00.000Z</time>
      </trkpt>
      <trkpt lat="47.50698" lon="6.76584">
        <ele>395</ele>
        <time>2016-02-28T08:27:01.000Z</time>
      </trkpt>
      <trkpt lat="47.50694" lon="6.76583">
        <ele>396</ele>
        <time>2016-02-28T08:27:02.000Z</time>
      </trkpt>
      <trkpt lat="47.50691" lon="6.76583">
        <ele>396</ele>
        <time>2016-02-28T08:27:03.000Z</time>
      </trkpt>
      <trkpt lat="47.50687" lon="6.76582">
        <ele>396</ele>
        <time>2016-02-28T08:27:04.000Z</time>
      </trkpt>
      <trkpt lat="47.50684" lon="6.76582">
        <ele>396</ele>
        <time>2016-02-28T08:27:05.000Z</time>
      </trkpt>
      <trkpt lat="47.50681" lon="6.76582">
        <ele>396</ele>
        <time>2016-02-28T08:27:06.000Z</time>
      </trkpt>
      <trkpt lat="47.50677" lon="6.76583">
        <ele>396</ele>
        <time>2016-02-28T08:27:07.000Z</time>
      </trkpt>
      <trkpt lat="47.50674" lon="6.76583">
        <ele>396</ele>
        <time>2016-02-28T08:27:08.000Z</time>
      </trkpt>
      <trkpt lat="47.50671" lon="6.76584">
        <ele>397</ele>
        <time>2016-02-28T08:27:09.000Z</time>
      </trkpt>
      <trkpt lat="47.50667" lon="6.76585">
        <ele>397</ele>
        <time>2016-02-28T08:27:10.000Z</time>
      </trkpt>
      <trkpt lat="47.50664" lon="6.76586">
        <ele>397</ele>
        <time>2016-02-28T08:27:11.000Z</time>
      </trkpt>
      <trkpt lat="47.50661" lon="6.76586">
        <ele>397</ele>
        <time>2016-02-28T08:27:12.000Z</time>
      </trkpt>
      <trkpt lat="47.50658" lon="6.76587">
        <ele>397</ele>
        <time>2016-02-28T08:27:13.000Z</time>
      </trkpt>
      <trkpt lat="47.50655" lon="6.76591">
        <ele>397</ele>
        <time>2016-02-28T08:27:14.000Z</time>
      </trkpt>
      <trkpt lat="47.50652" lon="6.76594">
        <ele>397</ele>
        <time>2016-02-28T08:27:15.000Z</time>
      </trkpt>
      <trkpt lat="47.50649" lon="6.76597">
        <ele>397</ele>
        <time>2016-02-28T08:27:16.000Z</time>
      </trkpt>
      <trkpt lat="47.50646" lon="6.76599">
        <ele>397</ele>
        <time>2016-02-28T08:27:17.000Z</time>
      </trkpt>
      <trkpt lat="47.50642" lon="6.76601">
        <ele>397</ele>
        <time>2016-02-28T08:27:18.000Z</time>
      </trkpt>
      <trkpt lat="47.50639" lon="6.76602">
        <ele>397</ele>
        <time>2016-02-28T08:27:19.000Z</time>
      </trkpt>
      <trkpt lat="47.50636" lon="6.76604">
        <ele>397</ele>
        <time>2016-02-28T08:27:20.000Z</time>
      </trkpt>
      <trkpt lat="47.50633" lon="6.76605">
        <ele>397</ele>
        <time>2016-02-28T08:27:21.000Z</time>
      </trkpt>
      <trkpt lat="47.5063" lon="6.76607">
        <ele>397</ele>
        <time>2016-02-28T08:27:22.000Z</time>
      </trkpt>
      <trkpt lat="47.50627" lon="6.7661">
        <ele>397</ele>
        <time>2016-02-28T08:27:23.000Z</time>
      </trkpt>
      <trkpt lat="47.50625" lon="6.76613">
        <ele>397</ele>
        <time>2016-02-28T08:27:24.000Z</time>
      </trkpt>
      <trkpt lat="47.50622" lon="6.76615">
        <ele>397</ele>
        <time>2016-02-28T08:27:25.000Z</time>
      </trkpt>
      <trkpt lat="47.50619" lon="6.76617">
        <ele>397</ele>
        <time>2016-02-28T08:27:26.000Z</time>
      </trkpt>
      <trkpt lat="47.50616" lon="6.76619">
        <ele>397</ele>
        <time>2016-02-28T08:27:27.000Z</time>
      </trkpt>
      <trkpt lat="47.50613" lon="6.76621">
        <ele>397</ele>
        <time>2016-02-28T08:27:28.000Z</time>
      </trkpt>
      <trkpt lat="47.5061" lon="6.76622">
        <ele>397</ele>
        <time>2016-02-28T08:27:29.000Z</time>
      </trkpt>
      <trkpt lat="47.50607" lon="6.76624">
        <ele>398</ele>
        <time>2016-02-28T08:27:30.000Z</time>
      </trkpt>
      <trkpt lat="47.50604" lon="6.76626">
        <ele>398</ele>
        <time>2016-02-28T08:27:31.000Z</time>
      </trkpt>
      <trkpt lat="47.50601" lon="6.76627">
        <ele>398</ele>
        <time>2016-02-28T08:27:32.000Z</time>
      </trkpt>
      <trkpt lat="47.50598" lon="6.76628">
        <ele>398</ele>
        <time>2016-02-28T08:27:33.000Z</time>
      </trkpt>
      <trkpt lat="47.50595" lon="6.76629">
        <ele>398</ele>
        <time>2016-02-28T08:27:34.000Z</time>
      </trkpt>
      <trkpt lat="47.50592" lon="6.7663">
        <ele>398</ele>
        <time>2016-02-28T08:27:35.000Z</time>
      </trkpt>
      <trkpt lat="47.50589" lon="6.7663">
        <ele>398</ele>
        <time>2016-02-28T08:27:36.000Z</time>
      </trkpt>
      <trkpt lat="47.50586" lon="6.76632">
        <ele>398</ele>
        <time>2016-02-28T08:27:37.000Z</time>
      </trkpt>
      <trkpt lat="47.50583" lon="6.76633">
        <ele>399</ele>
        <time>2016-02-28T08:27:38.000Z</time>
      </trkpt>
      <trkpt lat="47.5058" lon="6.76635">
        <ele>399</ele>
        <time>2016-02-28T08:27:39.000Z</time>
      </trkpt>
      <trkpt lat="47.50577" lon="6.76636">
        <ele>399</ele>
        <time>2016-02-28T08:27:40.000Z</time>
      </trkpt>
      <trkpt lat="47.50574" lon="6.76637">
        <ele>399</ele>
        <time>2016-02-28T08:27:41.000Z</time>
      </trkpt>
      <trkpt lat="47.50571" lon="6.76637">
        <ele>399</ele>
        <time>2016-02-28T08:27:42.000Z</time>
      </trkpt>
      <trkpt lat="47.50568" lon="6.76638">
        <ele>399</ele>
        <time>2016-02-28T08:27:43.000Z</time>
      </trkpt>
      <trkpt lat="47.50565" lon="6.76638">
        <ele>399</ele>
        <time>2016-02-28T08:27:44.000Z</time>
      </trkpt>
      <trkpt lat="47.50562" lon="6.76639">
        <ele>399</ele>
        <time>2016-02-28T08:27:45.000Z</time>
      </trkpt>
      <trkpt lat="47.50558" lon="6.76639">
        <ele>399</ele>
        <time>2016-02-28T08:27:46.000Z</time>
      </trkpt>
      <trkpt lat="47.50555" lon="6.7664">
        <ele>399</ele>
        <time>2016-02-28T08:27:47.000Z</time>
      </trkpt>
      <trkpt lat="47.50551" lon="6.7664">
        <ele>399</ele>
        <time>2016-02-28T08:27:48.000Z</time>
      </trkpt>
      <trkpt lat="47.50548" lon="6.7664">
        <ele>399</ele>
        <time>2016-02-28T08:27:49.000Z</time>
      </trkpt>
      <trkpt lat="47.50544" lon="6.76641">
        <ele>399</ele>
        <time>2016-02-28T08:27:50.000Z</time>
      </trkpt>
      <trkpt lat="47.5054" lon="6.76641">
        <ele>399</ele>
        <time>2016-02-28T08:27:51.000Z</time>
      </trkpt>
      <trkpt lat="47.50537" lon="6.76642">
        <ele>399</ele>
        <time>2016-02-28T08:27:52.000Z</time>
      </trkpt>
      <trkpt lat="47.50533" lon="6.76644">
        <ele>399</ele>
        <time>2016-02-28T08:27:53.000Z</time>
      </trkpt>
      <trkpt lat="47.5053" lon="6.76645">
        <ele>399</ele>
        <time>2016-02-28T08:27:54.000Z</time>
      </trkpt>
      <trkpt lat="47.50527" lon="6.76647">
        <ele>399</ele>
        <time>2016-02-28T08:27:55.000Z</time>
      </trkpt>
      <trkpt lat="47.50523" lon="6.76649">
        <ele>399</ele>
        <time>2016-02-28T08:27:56.000Z</time>
      </trkpt>
      <trkpt lat="47.50519" lon="6.7665">
        <ele>399</ele>
        <time>2016-02-28T08:27:57.000Z</time>
      </trkpt>
      <trkpt lat="47.50515" lon="6.76652">
        <ele>399</ele>
        <time>2016-02-28T08:27:58.000Z</time>
      </trkpt>
      <trkpt lat="47.5051" lon="6.76653">
        <ele>399</ele>
        <time>2016-02-28T08:27:59.000Z</time>
      </trkpt>
      <trkpt lat="47.50506" lon="6.76654">
        <ele>399</ele>
        <time>2016-02-28T08:28:00.000Z</time>
      </trkpt>
      <trkpt lat="47.50502" lon="6.76655">
        <ele>399</ele>
        <time>2016-02-28T08:28:01.000Z</time>
      </trkpt>
      <trkpt lat="47.50498" lon="6.76657">
        <ele>399</ele>
        <time>2016-02-28T08:28:02.000Z</time>
      </trkpt>
      <trkpt lat="47.50493" lon="6.76658">
        <ele>399</ele>
        <time>2016-02-28T08:28:03.000Z</time>
      </trkpt>
      <trkpt lat="47.50489" lon="6.76659">
        <ele>399</ele>
        <time>2016-02-28T08:28:04.000Z</time>
      </trkpt>
      <trkpt lat="47.50484" lon="6.76659">
        <ele>399</ele>
        <time>2016-02-28T08:28:05.000Z</time>
      </trkpt>
      <trkpt lat="47.50479" lon="6.76661">
        <ele>399</ele>
        <time>2016-02-28T08:28:06.000Z</time>
      </trkpt>
      <trkpt lat="47.50475" lon="6.76664">
        <ele>398</ele>
        <time>2016-02-28T08:28:07.000Z</time>
      </trkpt>
      <trkpt lat="47.5047" lon="6.76666">
        <ele>398</ele>
        <time>2016-02-28T08:28:08.000Z</time>
      </trkpt>
      <trkpt lat="47.50466" lon="6.76668">
        <ele>397</ele>
        <time>2016-02-28T08:28:09.000Z</time>
      </trkpt>
      <trkpt lat="47.50461" lon="6.7667">
        <ele>397</ele>
        <time>2016-02-28T08:28:10.000Z</time>
      </trkpt>
      <trkpt lat="47.50457" lon="6.76671">
        <ele>397</ele>
        <time>2016-02-28T08:28:11.000Z</time>
      </trkpt>
      <trkpt lat="47.50452" lon="6.76672">
        <ele>397</ele>
        <time>2016-02-28T08:28:12.000Z</time>
      </trkpt>
      <trkpt lat="47.50448" lon="6.76673">
        <ele>397</ele>
        <time>2016-02-28T08:28:13.000Z</time>
      </trkpt>
      <trkpt lat="47.50444" lon="6.76675">
        <ele>397</ele>
        <time>2016-02-28T08:28:14.000Z</time>
      </trkpt>
      <trkpt lat="47.5044" lon="6.76676">
        <ele>397</ele>
        <time>2016-02-28T08:28:15.000Z</time>
      </trkpt>
      <trkpt lat="47.50436" lon="6.76677">
        <ele>397</ele>
        <time>2016-02-28T08:28:16.000Z</time>
      </trkpt>
      <trkpt lat="47.50432" lon="6.76679">
        <ele>397</ele>
        <time>2016-02-28T08:28:17.000Z</time>
      </trkpt>
      <trkpt lat="47.50429" lon="6.76679">
        <ele>397</ele>
        <time>2016-02-28T08:28:18.000Z</time>
      </trkpt>
      <trkpt lat="47.50425" lon="6.7668">
        <ele>397</ele>
        <time>2016-02-28T08:28:19.000Z</time>
      </trkpt>
      <trkpt lat="47.50421" lon="6.7668">
        <ele>397</ele>
        <time>2016-02-28T08:28:20.000Z</time>
      </trkpt>
      <trkpt lat="47.50416" lon="6.76684">
        <ele>397</ele>
        <time>2016-02-28T08:28:21.000Z</time>
      </trkpt>
      <trkpt lat="47.50412" lon="6.76686">
        <ele>397</ele>
        <time>2016-02-28T08:28:22.000Z</time>
      </trkpt>
      <trkpt lat="47.50408" lon="6.76687">
        <ele>397</ele>
        <time>2016-02-28T08:28:23.000Z</time>
      </trkpt>
      <trkpt lat="47.50403" lon="6.76688">
        <ele>397</ele>
        <time>2016-02-28T08:28:24.000Z</time>
      </trkpt>
      <trkpt lat="47.50399" lon="6.76691">
        <ele>397</ele>
        <time>2016-02-28T08:28:25.000Z</time>
      </trkpt>
      <trkpt lat="47.50395" lon="6.76694">
        <ele>397</ele>
        <time>2016-02-28T08:28:26.000Z</time>
      </trkpt>
      <trkpt lat="47.50391" lon="6.76696">
        <ele>397</ele>
        <time>2016-02-28T08:28:27.000Z</time>
      </trkpt>
      <trkpt lat="47.50386" lon="6.76698">
        <ele>397</ele>
        <time>2016-02-28T08:28:28.000Z</time>
      </trkpt>
      <trkpt lat="47.50382" lon="6.76699">
        <ele>397</ele>
        <time>2016-02-28T08:28:29.000Z</time>
      </trkpt>
      <trkpt lat="47.50378" lon="6.76701">
        <ele>397</ele>
        <time>2016-02-28T08:28:30.000Z</time>
      </trkpt>
      <trkpt lat="47.50374" lon="6.76703">
        <ele>397</ele>
        <time>2016-02-28T08:28:31.000Z</time>
      </trkpt>
      <trkpt lat="47.5037" lon="6.76705">
        <ele>397</ele>
        <time>2016-02-28T08:28:32.000Z</time>
      </trkpt>
      <trkpt lat="47.50366" lon="6.76707">
        <ele>397</ele>
        <time>2016-02-28T08:28:33.000Z</time>
      </trkpt>
      <trkpt lat="47.50363" lon="6.76708">
        <ele>397</ele>
        <time>2016-02-28T08:28:34.000Z</time>
      </trkpt>
      <trkpt lat="47.50359" lon="6.76709">
        <ele>398</ele>
        <time>2016-02-28T08:28:35.000Z</time>
      </trkpt>
      <trkpt lat="47.50355" lon="6.7671">
        <ele>398</ele>
        <time>2016-02-28T08:28:36.000Z</time>
      </trkpt>
      <trkpt lat="47.50351" lon="6.76711">
        <ele>398</ele>
        <time>2016-02-28T08:28:37.000Z</time>
      </trkpt>
      <trkpt lat="47.50347" lon="6.76713">
        <ele>398</ele>
        <time>2016-02-28T08:28:38.000Z</time>
      </trkpt>
      <trkpt lat="47.50343" lon="6.76715">
        <ele>398</ele>
        <time>2016-02-28T08:28:39.000Z</time>
      </trkpt>
      <trkpt lat="47.5034" lon="6.76716">
        <ele>398</ele>
        <time>2016-02-28T08:28:40.000Z</time>
      </trkpt>
      <trkpt lat="47.50336" lon="6.76718">
        <ele>398</ele>
        <time>2016-02-28T08:28:41.000Z</time>
      </trkpt>
      <trkpt lat="47.50332" lon="6.76719">
        <ele>398</ele>
        <time>2016-02-28T08:28:42.000Z</time>
      </trkpt>
      <trkpt lat="47.50329" lon="6.76721">
        <ele>398</ele>
        <time>2016-02-28T08:28:43.000Z</time>
      </trkpt>
      <trkpt lat="47.50325" lon="6.76723">
        <ele>398</ele>
        <time>2016-02-28T08:28:44.000Z</time>
      </trkpt>
      <trkpt lat="47.50322" lon="6.76725">
        <ele>398</ele>
        <time>2016-02-28T08:28:45.000Z</time>
      </trkpt>
      <trkpt lat="47.50318" lon="6.76726">
        <ele>398</ele>
        <time>2016-02-28T08:28:46.000Z</time>
      </trkpt>
      <trkpt lat="47.50315" lon="6.76728">
        <ele>398</ele>
        <time>2016-02-28T08:28:47.000Z</time>
      </trkpt>
      <trkpt lat="47.50311" lon="6.76729">
        <ele>398</ele>
        <time>2016-02-28T08:28:48.000Z</time>
      </trkpt>
      <trkpt lat="47.50308" lon="6.7673">
        <ele>398</ele>
        <time>2016-02-28T08:28:49.000Z</time>
      </trkpt>
      <trkpt lat="47.50304" lon="6.7673">
        <ele>398</ele>
        <time>2016-02-28T08:28:50.000Z</time>
      </trkpt>
      <trkpt lat="47.503" lon="6.76731">
        <ele>399</ele>
        <time>2016-02-28T08:28:51.000Z</time>
      </trkpt>
      <trkpt lat="47.50296" lon="6.76731">
        <ele>399</ele>
        <time>2016-02-28T08:28:52.000Z</time>
      </trkpt>
      <trkpt lat="47.50293" lon="6.76732">
        <ele>399</ele>
        <time>2016-02-28T08:28:53.000Z</time>
      </trkpt>
      <trkpt lat="47.50289" lon="6.76732">
        <ele>399</ele>
        <time>2016-02-28T08:28:54.000Z</time>
      </trkpt>
      <trkpt lat="47.50285" lon="6.76732">
        <ele>399</ele>
        <time>2016-02-28T08:28:55.000Z</time>
      </trkpt>
      <trkpt lat="47.50282" lon="6.76733">
        <ele>399</ele>
        <time>2016-02-28T08:28:56.000Z</time>
      </trkpt>
      <trkpt lat="47.50278" lon="6.76733">
        <ele>399</ele>
        <time>2016-02-28T08:28:57.000Z</time>
      </trkpt>
      <trkpt lat="47.50275" lon="6.76734">
        <ele>399</ele>
        <time>2016-02-28T08:28:58.000Z</time>
      </trkpt>
      <trkpt lat="47.50271" lon="6.76734">
        <ele>399</ele>
        <time>2016-02-28T08:28:59.000Z</time>
      </trkpt>
      <trkpt lat="47.50268" lon="6.76735">
        <ele>399</ele>
        <time>2016-02-28T08:29:00.000Z</time>
      </trkpt>
      <trkpt lat="47.50265" lon="6.76736">
        <ele>399</ele>
        <time>2016-02-28T08:29:01.000Z</time>
      </trkpt>
      <trkpt lat="47.50262" lon="6.76737">
        <ele>399</ele>
        <time>2016-02-28T08:29:02.000Z</time>
      </trkpt>
      <trkpt lat="47.50259" lon="6.76739">
        <ele>399</ele>
        <time>2016-02-28T08:29:03.000Z</time>
      </trkpt>
      <trkpt lat="47.50256" lon="6.76739">
        <ele>399</ele>
        <time>2016-02-28T08:29:04.000Z</time>
      </trkpt>
      <trkpt lat="47.50253" lon="6.7674">
        <ele>399</ele>
        <time>2016-02-28T08:29:05.000Z</time>
      </trkpt>
      <trkpt lat="47.5025" lon="6.76739">
        <ele>401</ele>
        <time>2016-02-28T08:29:06.000Z</time>
      </trkpt>
      <trkpt lat="47.50247" lon="6.76738">
        <ele>401</ele>
        <time>2016-02-28T08:29:07.000Z</time>
      </trkpt>
      <trkpt lat="47.50244" lon="6.76736">
        <ele>401</ele>
        <time>2016-02-28T08:29:08.000Z</time>
      </trkpt>
      <trkpt lat="47.50242" lon="6.76734">
        <ele>401</ele>
        <time>2016-02-28T08:29:09.000Z</time>
      </trkpt>
      <trkpt lat="47.50241" lon="6.76731">
        <ele>401</ele>
        <time>2016-02-28T08:29:10.000Z</time>
      </trkpt>
      <trkpt lat="47.50239" lon="6.76728">
        <ele>401</ele>
        <time>2016-02-28T08:29:11.000Z</time>
      </trkpt>
      <trkpt lat="47.50237" lon="6.76724">
        <ele>401</ele>
        <time>2016-02-28T08:29:12.000Z</time>
      </trkpt>
      <trkpt lat="47.50236" lon="6.76721">
        <ele>401</ele>
        <time>2016-02-28T08:29:13.000Z</time>
      </trkpt>
      <trkpt lat="47.50234" lon="6.76717">
        <ele>402</ele>
        <time>2016-02-28T08:29:14.000Z</time>
      </trkpt>
      <trkpt lat="47.50233" lon="6.76714">
        <ele>402</ele>
        <time>2016-02-28T08:29:15.000Z</time>
      </trkpt>
      <trkpt lat="47.50232" lon="6.7671">
        <ele>402</ele>
        <time>2016-02-28T08:29:16.000Z</time>
      </trkpt>
      <trkpt lat="47.50231" lon="6.76706">
        <ele>402</ele>
        <time>2016-02-28T08:29:17.000Z</time>
      </trkpt>
      <trkpt lat="47.5023" lon="6.76703">
        <ele>402</ele>
        <time>2016-02-28T08:29:18.000Z</time>
      </trkpt>
      <trkpt lat="47.50228" lon="6.76698">
        <ele>402</ele>
        <time>2016-02-28T08:29:19.000Z</time>
      </trkpt>
      <trkpt lat="47.50227" lon="6.76694">
        <ele>401</ele>
        <time>2016-02-28T08:29:20.000Z</time>
      </trkpt>
      <trkpt lat="47.50225" lon="6.7669">
        <ele>401</ele>
        <time>2016-02-28T08:29:21.000Z</time>
      </trkpt>
      <trkpt lat="47.50224" lon="6.76685">
        <ele>401</ele>
        <time>2016-02-28T08:29:22.000Z</time>
      </trkpt>
      <trkpt lat="47.50222" lon="6.76681">
        <ele>401</ele>
        <time>2016-02-28T08:29:23.000Z</time>
      </trkpt>
      <trkpt lat="47.50221" lon="6.76676">
        <ele>401</ele>
        <time>2016-02-28T08:29:24.000Z</time>
      </trkpt>
      <trkpt lat="47.50219" lon="6.76672">
        <ele>401</ele>
        <time>2016-02-28T08:29:25.000Z</time>
      </trkpt>
      <trkpt lat="47.50218" lon="6.76667">
        <ele>401</ele>
        <time>2016-02-28T08:29:26.000Z</time>
      </trkpt>
      <trkpt lat="47.50217" lon="6.76662">
        <ele>401</ele>
        <time>2016-02-28T08:29:27.000Z</time>
      </trkpt>
      <trkpt lat="47.50216" lon="6.76656">
        <ele>401</ele>
        <time>2016-02-28T08:29:28.000Z</time>
      </trkpt>
      <trkpt lat="47.50215" lon="6.76652">
        <ele>402</ele>
        <time>2016-02-28T08:29:29.000Z</time>
      </trkpt>
      <trkpt lat="47.50213" lon="6.76647">
        <ele>402</ele>
        <time>2016-02-28T08:29:30.000Z</time>
      </trkpt>
      <trkpt lat="47.50212" lon="6.76643">
        <ele>402</ele>
        <time>2016-02-28T08:29:31.000Z</time>
      </trkpt>
      <trkpt lat="47.5021" lon="6.76638">
        <ele>402</ele>
        <time>2016-02-28T08:29:32.000Z</time>
      </trkpt>
      <trkpt lat="47.50208" lon="6.76633">
        <ele>402</ele>
        <time>2016-02-28T08:29:33.000Z</time>
      </trkpt>
      <trkpt lat="47.50206" lon="6.76628">
        <ele>402</ele>
        <time>2016-02-28T08:29:34.000Z</time>
      </trkpt>
      <trkpt lat="47.50204" lon="6.76623">
        <ele>402</ele>
        <time>2016-02-28T08:29:35.000Z</time>
      </trkpt>
      <trkpt lat="47.50203" lon="6.76618">
        <ele>402</ele>
        <time>2016-02-28T08:29:36.000Z</time>
      </trkpt>
      <trkpt lat="47.50201" lon="6.76612">
        <ele>402</ele>
        <time>2016-02-28T08:29:37.000Z</time>
      </trkpt>
      <trkpt lat="47.502" lon="6.76607">
        <ele>403</ele>
        <time>2016-02-28T08:29:38.000Z</time>
      </trkpt>
      <trkpt lat="47.50199" lon="6.76601">
        <ele>403</ele>
        <time>2016-02-28T08:29:39.000Z</time>
      </trkpt>
      <trkpt lat="47.50198" lon="6.76597">
        <ele>403</ele>
        <time>2016-02-28T08:29:40.000Z</time>
      </trkpt>
      <trkpt lat="47.50197" lon="6.76592">
        <ele>403</ele>
        <time>2016-02-28T08:29:42.000Z</time>
      </trkpt>
      <trkpt lat="47.50197" lon="6.7659">
        <ele>403</ele>
        <time>2016-02-28T08:29:43.000Z</time>
      </trkpt>
      <trkpt lat="47.50196" lon="6.76586">
        <ele>403</ele>
        <time>2016-02-28T08:29:45.000Z</time>
      </trkpt>
      <trkpt lat="47.50196" lon="6.76583">
        <ele>403</ele>
        <time>2016-02-28T08:29:46.000Z</time>
      </trkpt>
      <trkpt lat="47.50197" lon="6.7658">
        <ele>402</ele>
        <time>2016-02-28T08:29:47.000Z</time>
      </trkpt>
      <trkpt lat="47.50199" lon="6.76577">
        <ele>402</ele>
        <time>2016-02-28T08:29:48.000Z</time>
      </trkpt>
      <trkpt lat="47.50202" lon="6.76576">
        <ele>402</ele>
        <time>2016-02-28T08:29:49.000Z</time>
      </trkpt>
      <trkpt lat="47.50206" lon="6.76575">
        <ele>402</ele>
        <time>2016-02-28T08:29:50.000Z</time>
      </trkpt>
      <trkpt lat="47.50208" lon="6.76573">
        <ele>401</ele>
        <time>2016-02-28T08:29:51.000Z</time>
      </trkpt>
      <trkpt lat="47.5021" lon="6.76569">
        <ele>401</ele>
        <time>2016-02-28T08:29:52.000Z</time>
      </trkpt>
      <trkpt lat="47.50211" lon="6.76565">
        <ele>401</ele>
        <time>2016-02-28T08:29:53.000Z</time>
      </trkpt>
      <trkpt lat="47.50213" lon="6.7656">
        <ele>401</ele>
        <time>2016-02-28T08:29:54.000Z</time>
      </trkpt>
      <trkpt lat="47.50215" lon="6.76555">
        <ele>401</ele>
        <time>2016-02-28T08:29:55.000Z</time>
      </trkpt>
      <trkpt lat="47.50217" lon="6.76551">
        <ele>400</ele>
        <time>2016-02-28T08:29:56.000Z</time>
      </trkpt>
      <trkpt lat="47.50219" lon="6.76548">
        <ele>400</ele>
        <time>2016-02-28T08:29:57.000Z</time>
      </trkpt>
      <trkpt lat="47.50221" lon="6.76546">
        <ele>400</ele>
        <time>2016-02-28T08:29:58.000Z</time>
      </trkpt>
      <trkpt lat="47.50224" lon="6.76542">
        <ele>400</ele>
        <time>2016-02-28T08:30:00.000Z</time>
      </trkpt>
      <trkpt lat="47.50225" lon="6.76539">
        <ele>400</ele>
        <time>2016-02-28T08:30:01.000Z</time>
      </trkpt>
      <trkpt lat="47.50225" lon="6.76534">
        <ele>399</ele>
        <time>2016-02-28T08:30:02.000Z</time>
      </trkpt>
      <trkpt lat="47.50226" lon="6.76528">
        <ele>399</ele>
        <time>2016-02-28T08:30:03.000Z</time>
      </trkpt>
      <trkpt lat="47.50226" lon="6.76522">
        <ele>399</ele>
        <time>2016-02-28T08:30:04.000Z</time>
      </trkpt>
      <trkpt lat="47.50225" lon="6.76515">
        <ele>398</ele>
        <time>2016-02-28T08:30:05.000Z</time>
      </trkpt>
      <trkpt lat="47.50224" lon="6.76507">
        <ele>398</ele>
        <time>2016-02-28T08:30:06.000Z</time>
      </trkpt>
      <trkpt lat="47.50219" lon="6.76489">
        <ele>395</ele>
        <time>2016-02-28T08:30:07.000Z</time>
      </trkpt>
      <trkpt lat="47.50218" lon="6.76478">
        <ele>395</ele>
        <time>2016-02-28T08:30:08.000Z</time>
      </trkpt>
      <trkpt lat="47.50216" lon="6.76468">
        <ele>395</ele>
        <time>2016-02-28T08:30:09.000Z</time>
      </trkpt>
      <trkpt lat="47.50215" lon="6.76457">
        <ele>395</ele>
        <time>2016-02-28T08:30:10.000Z</time>
      </trkpt>
      <trkpt lat="47.5021" lon="6.76446">
        <ele>395</ele>
        <time>2016-02-28T08:30:11.000Z</time>
      </trkpt>
      <trkpt lat="47.50204" lon="6.76433">
        <ele>395</ele>
        <time>2016-02-28T08:30:12.000Z</time>
      </trkpt>
      <trkpt lat="47.502" lon="6.76422">
        <ele>395</ele>
        <time>2016-02-28T08:30:13.000Z</time>
      </trkpt>
      <trkpt lat="47.50197" lon="6.76411">
        <ele>392</ele>
        <time>2016-02-28T08:30:14.000Z</time>
      </trkpt>
      <trkpt lat="47.50192" lon="6.76401">
        <ele>392</ele>
        <time>2016-02-28T08:30:15.000Z</time>
      </trkpt>
      <trkpt lat="47.50189" lon="6.7639">
        <ele>391</ele>
        <time>2016-02-28T08:30:16.000Z</time>
      </trkpt>
      <trkpt lat="47.50186" lon="6.76381">
        <ele>391</ele>
        <time>2016-02-28T08:30:17.000Z</time>
      </trkpt>
      <trkpt lat="47.50185" lon="6.76374">
        <ele>390</ele>
        <time>2016-02-28T08:30:18.000Z</time>
      </trkpt>
      <trkpt lat="47.50181" lon="6.76364">
        <ele>390</ele>
        <time>2016-02-28T08:30:19.000Z</time>
      </trkpt>
      <trkpt lat="47.50178" lon="6.76355">
        <ele>390</ele>
        <time>2016-02-28T08:30:20.000Z</time>
      </trkpt>
      <trkpt lat="47.50176" lon="6.76347">
        <ele>390</ele>
        <time>2016-02-28T08:30:21.000Z</time>
      </trkpt>
      <trkpt lat="47.50173" lon="6.76338">
        <ele>391</ele>
        <time>2016-02-28T08:30:22.000Z</time>
      </trkpt>
      <trkpt lat="47.50167" lon="6.76327">
        <ele>390</ele>
        <time>2016-02-28T08:30:23.000Z</time>
      </trkpt>
      <trkpt lat="47.50159" lon="6.76316">
        <ele>394</ele>
        <time>2016-02-28T08:30:24.000Z</time>
      </trkpt>
      <trkpt lat="47.50154" lon="6.76306">
        <ele>395</ele>
        <time>2016-02-28T08:30:25.000Z</time>
      </trkpt>
      <trkpt lat="47.50151" lon="6.76297">
        <ele>395</ele>
        <time>2016-02-28T08:30:26.000Z</time>
      </trkpt>
      <trkpt lat="47.50149" lon="6.76288">
        <ele>395</ele>
        <time>2016-02-28T08:30:27.000Z</time>
      </trkpt>
      <trkpt lat="47.50147" lon="6.7628">
        <ele>394</ele>
        <time>2016-02-28T08:30:28.000Z</time>
      </trkpt>
      <trkpt lat="47.50147" lon="6.76273">
        <ele>394</ele>
        <time>2016-02-28T08:30:29.000Z</time>
      </trkpt>
      <trkpt lat="47.50147" lon="6.76264">
        <ele>393</ele>
        <time>2016-02-28T08:30:30.000Z</time>
      </trkpt>
      <trkpt lat="47.50148" lon="6.76255">
        <ele>392</ele>
        <time>2016-02-28T08:30:31.000Z</time>
      </trkpt>
      <trkpt lat="47.50148" lon="6.76246">
        <ele>389</ele>
        <time>2016-02-28T08:30:32.000Z</time>
      </trkpt>
      <trkpt lat="47.50147" lon="6.76237">
        <ele>389</ele>
        <time>2016-02-28T08:30:33.000Z</time>
      </trkpt>
      <trkpt lat="47.50147" lon="6.7623">
        <ele>389</ele>
        <time>2016-02-28T08:30:34.000Z</time>
      </trkpt>
      <trkpt lat="47.50147" lon="6.76222">
        <ele>389</ele>
        <time>2016-02-28T08:30:35.000Z</time>
      </trkpt>
      <trkpt lat="47.50146" lon="6.76212">
        <ele>389</ele>
        <time>2016-02-28T08:30:36.000Z</time>
      </trkpt>
      <trkpt lat="47.50147" lon="6.76203">
        <ele>388</ele>
        <time>2016-02-28T08:30:37.000Z</time>
      </trkpt>
      <trkpt lat="47.50143" lon="6.76193">
        <ele>387</ele>
        <time>2016-02-28T08:30:38.000Z</time>
      </trkpt>
      <trkpt lat="47.50142" lon="6.76183">
        <ele>387</ele>
        <time>2016-02-28T08:30:39.000Z</time>
      </trkpt>
      <trkpt lat="47.50141" lon="6.76174">
        <ele>386</ele>
        <time>2016-02-28T08:30:40.000Z</time>
      </trkpt>
      <trkpt lat="47.50139" lon="6.76164">
        <ele>383</ele>
        <time>2016-02-28T08:30:41.000Z</time>
      </trkpt>
      <trkpt lat="47.50139" lon="6.76155">
        <ele>383</ele>
        <time>2016-02-28T08:30:42.000Z</time>
      </trkpt>
      <trkpt lat="47.50139" lon="6.76147">
        <ele>383</ele>
        <time>2016-02-28T08:30:43.000Z</time>
      </trkpt>
      <trkpt lat="47.50136" lon="6.76137">
        <ele>383</ele>
        <time>2016-02-28T08:30:44.000Z</time>
      </trkpt>
      <trkpt lat="47.50135" lon="6.76127">
        <ele>383</ele>
        <time>2016-02-28T08:30:45.000Z</time>
      </trkpt>
      <trkpt lat="47.50131" lon="6.76117">
        <ele>383</ele>
        <time>2016-02-28T08:30:46.000Z</time>
      </trkpt>
      <trkpt lat="47.50132" lon="6.76108">
        <ele>383</ele>
        <time>2016-02-28T08:30:47.000Z</time>
      </trkpt>
      <trkpt lat="47.5013" lon="6.76097">
        <ele>383</ele>
        <time>2016-02-28T08:30:48.000Z</time>
      </trkpt>
      <trkpt lat="47.50128" lon="6.76085">
        <ele>383</ele>
        <time>2016-02-28T08:30:49.000Z</time>
      </trkpt>
      <trkpt lat="47.50126" lon="6.76074">
        <ele>379</ele>
        <time>2016-02-28T08:30:50.000Z</time>
      </trkpt>
      <trkpt lat="47.50127" lon="6.76066">
        <ele>379</ele>
        <time>2016-02-28T08:30:51.000Z</time>
      </trkpt>
      <trkpt lat="47.50127" lon="6.76054">
        <ele>379</ele>
        <time>2016-02-28T08:30:52.000Z</time>
      </trkpt>
      <trkpt lat="47.50126" lon="6.76042">
        <ele>378</ele>
        <time>2016-02-28T08:30:53.000Z</time>
      </trkpt>
      <trkpt lat="47.50129" lon="6.76028">
        <ele>378</ele>
        <time>2016-02-28T08:30:54.000Z</time>
      </trkpt>
      <trkpt lat="47.5013" lon="6.76017">
        <ele>377</ele>
        <time>2016-02-28T08:30:55.000Z</time>
      </trkpt>
      <trkpt lat="47.50125" lon="6.76004">
        <ele>377</ele>
        <time>2016-02-28T08:30:56.000Z</time>
      </trkpt>
      <trkpt lat="47.50118" lon="6.75995">
        <ele>374</ele>
        <time>2016-02-28T08:30:57.000Z</time>
      </trkpt>
      <trkpt lat="47.5011" lon="6.75985">
        <ele>374</ele>
        <time>2016-02-28T08:30:58.000Z</time>
      </trkpt>
      <trkpt lat="47.50101" lon="6.75974">
        <ele>374</ele>
        <time>2016-02-28T08:30:59.000Z</time>
      </trkpt>
      <trkpt lat="47.50092" lon="6.75963">
        <ele>374</ele>
        <time>2016-02-28T08:31:00.000Z</time>
      </trkpt>
      <trkpt lat="47.50087" lon="6.75955">
        <ele>374</ele>
        <time>2016-02-28T08:31:01.000Z</time>
      </trkpt>
      <trkpt lat="47.5008" lon="6.75945">
        <ele>377</ele>
        <time>2016-02-28T08:31:02.000Z</time>
      </trkpt>
      <trkpt lat="47.50076" lon="6.75937">
        <ele>377</ele>
        <time>2016-02-28T08:31:03.000Z</time>
      </trkpt>
      <trkpt lat="47.50072" lon="6.75929">
        <ele>376</ele>
        <time>2016-02-28T08:31:04.000Z</time>
      </trkpt>
      <trkpt lat="47.50067" lon="6.75921">
        <ele>376</ele>
        <time>2016-02-28T08:31:05.000Z</time>
      </trkpt>
      <trkpt lat="47.50063" lon="6.75914">
        <ele>375</ele>
        <time>2016-02-28T08:31:06.000Z</time>
      </trkpt>
      <trkpt lat="47.50058" lon="6.75906">
        <ele>375</ele>
        <time>2016-02-28T08:31:07.000Z</time>
      </trkpt>
      <trkpt lat="47.50055" lon="6.75897">
        <ele>376</ele>
        <time>2016-02-28T08:31:08.000Z</time>
      </trkpt>
      <trkpt lat="47.50049" lon="6.75888">
        <ele>376</ele>
        <time>2016-02-28T08:31:09.000Z</time>
      </trkpt>
      <trkpt lat="47.50044" lon="6.7588">
        <ele>376</ele>
        <time>2016-02-28T08:31:10.000Z</time>
      </trkpt>
      <trkpt lat="47.5004" lon="6.75872">
        <ele>376</ele>
        <time>2016-02-28T08:31:11.000Z</time>
      </trkpt>
      <trkpt lat="47.50033" lon="6.75863">
        <ele>376</ele>
        <time>2016-02-28T08:31:12.000Z</time>
      </trkpt>
      <trkpt lat="47.50028" lon="6.75854">
        <ele>377</ele>
        <time>2016-02-28T08:31:13.000Z</time>
      </trkpt>
      <trkpt lat="47.50025" lon="6.75846">
        <ele>377</ele>
        <time>2016-02-28T08:31:14.000Z</time>
      </trkpt>
      <trkpt lat="47.50022" lon="6.75837">
        <ele>377</ele>
        <time>2016-02-28T08:31:15.000Z</time>
      </trkpt>
      <trkpt lat="47.50018" lon="6.75826">
        <ele>376</ele>
        <time>2016-02-28T08:31:16.000Z</time>
      </trkpt>
      <trkpt lat="47.50015" lon="6.75816">
        <ele>376</ele>
        <time>2016-02-28T08:31:17.000Z</time>
      </trkpt>
      <trkpt lat="47.50013" lon="6.75808">
        <ele>376</ele>
        <time>2016-02-28T08:31:18.000Z</time>
      </trkpt>
      <trkpt lat="47.5001" lon="6.75801">
        <ele>376</ele>
        <time>2016-02-28T08:31:19.000Z</time>
      </trkpt>
      <trkpt lat="47.50005" lon="6.75793">
        <ele>375</ele>
        <time>2016-02-28T08:31:20.000Z</time>
      </trkpt>
      <trkpt lat="47.49997" lon="6.75782">
        <ele>375</ele>
        <time>2016-02-28T08:31:21.000Z</time>
      </trkpt>
      <trkpt lat="47.49992" lon="6.75773">
        <ele>375</ele>
        <time>2016-02-28T08:31:22.000Z</time>
      </trkpt>
      <trkpt lat="47.49984" lon="6.75765">
        <ele>375</ele>
        <time>2016-02-28T08:31:23.000Z</time>
      </trkpt>
      <trkpt lat="47.49976" lon="6.75756">
        <ele>375</ele>
        <time>2016-02-28T08:31:24.000Z</time>
      </trkpt>
      <trkpt lat="47.49961" lon="6.75745">
        <ele>371</ele>
        <time>2016-02-28T08:31:25.000Z</time>
      </trkpt>
      <trkpt lat="47.49954" lon="6.75735">
        <ele>371</ele>
        <time>2016-02-28T08:31:26.000Z</time>
      </trkpt>
      <trkpt lat="47.49943" lon="6.75727">
        <ele>370</ele>
        <time>2016-02-28T08:31:27.000Z</time>
      </trkpt>
      <trkpt lat="47.49936" lon="6.75721">
        <ele>370</ele>
        <time>2016-02-28T08:31:28.000Z</time>
      </trkpt>
      <trkpt lat="47.4993" lon="6.75716">
        <ele>370</ele>
        <time>2016-02-28T08:31:29.000Z</time>
      </trkpt>
      <trkpt lat="47.49925" lon="6.7571">
        <ele>370</ele>
        <time>2016-02-28T08:31:30.000Z</time>
      </trkpt>
      <trkpt lat="47.49916" lon="6.75706">
        <ele>365</ele>
        <time>2016-02-28T08:31:31.000Z</time>
      </trkpt>
      <trkpt lat="47.49908" lon="6.75703">
        <ele>364</ele>
        <time>2016-02-28T08:31:32.000Z</time>
      </trkpt>
      <trkpt lat="47.499" lon="6.75703">
        <ele>364</ele>
        <time>2016-02-28T08:31:33.000Z</time>
      </trkpt>
      <trkpt lat="47.49891" lon="6.75705">
        <ele>364</ele>
        <time>2016-02-28T08:31:34.000Z</time>
      </trkpt>
      <trkpt lat="47.49883" lon="6.75706">
        <ele>363</ele>
        <time>2016-02-28T08:31:35.000Z</time>
      </trkpt>
      <trkpt lat="47.49878" lon="6.75706">
        <ele>363</ele>
        <time>2016-02-28T08:31:36.000Z</time>
      </trkpt>
      <trkpt lat="47.49871" lon="6.75707">
        <ele>362</ele>
        <time>2016-02-28T08:31:37.000Z</time>
      </trkpt>
      <trkpt lat="47.4986" lon="6.75708">
        <ele>361</ele>
        <time>2016-02-28T08:31:38.000Z</time>
      </trkpt>
      <trkpt lat="47.49851" lon="6.75712">
        <ele>361</ele>
        <time>2016-02-28T08:31:39.000Z</time>
      </trkpt>
      <trkpt lat="47.49842" lon="6.75715">
        <ele>361</ele>
        <time>2016-02-28T08:31:40.000Z</time>
      </trkpt>
      <trkpt lat="47.49834" lon="6.75716">
        <ele>360</ele>
        <time>2016-02-28T08:31:41.000Z</time>
      </trkpt>
      <trkpt lat="47.49826" lon="6.75717">
        <ele>353</ele>
        <time>2016-02-28T08:31:42.000Z</time>
      </trkpt>
      <trkpt lat="47.49811" lon="6.75725">
        <ele>353</ele>
        <time>2016-02-28T08:31:43.000Z</time>
      </trkpt>
      <trkpt lat="47.498" lon="6.75729">
        <ele>352</ele>
        <time>2016-02-28T08:31:44.000Z</time>
      </trkpt>
      <trkpt lat="47.49788" lon="6.75732">
        <ele>351</ele>
        <time>2016-02-28T08:31:45.000Z</time>
      </trkpt>
      <trkpt lat="47.49779" lon="6.75734">
        <ele>351</ele>
        <time>2016-02-28T08:31:46.000Z</time>
      </trkpt>
      <trkpt lat="47.49771" lon="6.75738">
        <ele>351</ele>
        <time>2016-02-28T08:31:47.000Z</time>
      </trkpt>
      <trkpt lat="47.49762" lon="6.75741">
        <ele>351</ele>
        <time>2016-02-28T08:31:48.000Z</time>
      </trkpt>
      <trkpt lat="47.49754" lon="6.75744">
        <ele>351</ele>
        <time>2016-02-28T08:31:49.000Z</time>
      </trkpt>
      <trkpt lat="47.49746" lon="6.75745">
        <ele>349</ele>
        <time>2016-02-28T08:31:50.000Z</time>
      </trkpt>
      <trkpt lat="47.49737" lon="6.75748">
        <ele>347</ele>
        <time>2016-02-28T08:31:51.000Z</time>
      </trkpt>
      <trkpt lat="47.49728" lon="6.75752">
        <ele>353</ele>
        <time>2016-02-28T08:31:52.000Z</time>
      </trkpt>
      <trkpt lat="47.4972" lon="6.75755">
        <ele>353</ele>
        <time>2016-02-28T08:31:53.000Z</time>
      </trkpt>
      <trkpt lat="47.49711" lon="6.7576">
        <ele>353</ele>
        <time>2016-02-28T08:31:54.000Z</time>
      </trkpt>
      <trkpt lat="47.49704" lon="6.75762">
        <ele>352</ele>
        <time>2016-02-28T08:31:55.000Z</time>
      </trkpt>
      <trkpt lat="47.49696" lon="6.75765">
        <ele>352</ele>
        <time>2016-02-28T08:31:56.000Z</time>
      </trkpt>
      <trkpt lat="47.49689" lon="6.75766">
        <ele>351</ele>
        <time>2016-02-28T08:31:57.000Z</time>
      </trkpt>
      <trkpt lat="47.49682" lon="6.75766">
        <ele>350</ele>
        <time>2016-02-28T08:31:58.000Z</time>
      </trkpt>
      <trkpt lat="47.49678" lon="6.7577">
        <ele>350</ele>
        <time>2016-02-28T08:31:59.000Z</time>
      </trkpt>
      <trkpt lat="47.49671" lon="6.7577">
        <ele>350</ele>
        <time>2016-02-28T08:32:00.000Z</time>
      </trkpt>
      <trkpt lat="47.49664" lon="6.7577">
        <ele>346</ele>
        <time>2016-02-28T08:32:01.000Z</time>
      </trkpt>
      <trkpt lat="47.49657" lon="6.75771">
        <ele>346</ele>
        <time>2016-02-28T08:32:02.000Z</time>
      </trkpt>
      <trkpt lat="47.49653" lon="6.75775">
        <ele>346</ele>
        <time>2016-02-28T08:32:03.000Z</time>
      </trkpt>
      <trkpt lat="47.49647" lon="6.75773">
        <ele>346</ele>
        <time>2016-02-28T08:32:04.000Z</time>
      </trkpt>
      <trkpt lat="47.4964" lon="6.7577">
        <ele>345</ele>
        <time>2016-02-28T08:32:05.000Z</time>
      </trkpt>
      <trkpt lat="47.49632" lon="6.75771">
        <ele>345</ele>
        <time>2016-02-28T08:32:06.000Z</time>
      </trkpt>
      <trkpt lat="47.4962" lon="6.75771">
        <ele>344</ele>
        <time>2016-02-28T08:32:07.000Z</time>
      </trkpt>
      <trkpt lat="47.49611" lon="6.75771">
        <ele>343</ele>
        <time>2016-02-28T08:32:08.000Z</time>
      </trkpt>
      <trkpt lat="47.49603" lon="6.7577">
        <ele>342</ele>
        <time>2016-02-28T08:32:09.000Z</time>
      </trkpt>
      <trkpt lat="47.49595" lon="6.75768">
        <ele>341</ele>
        <time>2016-02-28T08:32:10.000Z</time>
      </trkpt>
      <trkpt lat="47.49589" lon="6.75766">
        <ele>340</ele>
        <time>2016-02-28T08:32:11.000Z</time>
      </trkpt>
      <trkpt lat="47.49581" lon="6.75764">
        <ele>335</ele>
        <time>2016-02-28T08:32:12.000Z</time>
      </trkpt>
      <trkpt lat="47.49573" lon="6.75761">
        <ele>335</ele>
        <time>2016-02-28T08:32:13.000Z</time>
      </trkpt>
      <trkpt lat="47.49567" lon="6.75758">
        <ele>335</ele>
        <time>2016-02-28T08:32:14.000Z</time>
      </trkpt>
      <trkpt lat="47.49561" lon="6.75754">
        <ele>335</ele>
        <time>2016-02-28T08:32:15.000Z</time>
      </trkpt>
      <trkpt lat="47.49557" lon="6.7575">
        <ele>328</ele>
        <time>2016-02-28T08:32:16.000Z</time>
      </trkpt>
      <trkpt lat="47.49559" lon="6.75745">
        <ele>328</ele>
        <time>2016-02-28T08:32:19.000Z</time>
      </trkpt>
      <trkpt lat="47.4956" lon="6.75744">
        <ele>328</ele>
        <time>2016-02-28T08:32:20.000Z</time>
      </trkpt>
      <trkpt lat="47.49565" lon="6.75742">
        <ele>329</ele>
        <time>2016-02-28T08:32:22.000Z</time>
      </trkpt>
      <trkpt lat="47.49568" lon="6.75739">
        <ele>329</ele>
        <time>2016-02-28T08:32:23.000Z</time>
      </trkpt>
      <trkpt lat="47.49572" lon="6.75736">
        <ele>329</ele>
        <time>2016-02-28T08:32:24.000Z</time>
      </trkpt>
      <trkpt lat="47.49576" lon="6.75732">
        <ele>329</ele>
        <time>2016-02-28T08:32:25.000Z</time>
      </trkpt>
      <trkpt lat="47.49579" lon="6.75729">
        <ele>329</ele>
        <time>2016-02-28T08:32:26.000Z</time>
      </trkpt>
      <trkpt lat="47.49583" lon="6.75727">
        <ele>332</ele>
        <time>2016-02-28T08:32:27.000Z</time>
      </trkpt>
      <trkpt lat="47.49586" lon="6.75722">
        <ele>331</ele>
        <time>2016-02-28T08:32:28.000Z</time>
      </trkpt>
      <trkpt lat="47.49589" lon="6.75717">
        <ele>331</ele>
        <time>2016-02-28T08:32:29.000Z</time>
      </trkpt>
      <trkpt lat="47.49593" lon="6.75711">
        <ele>330</ele>
        <time>2016-02-28T08:32:30.000Z</time>
      </trkpt>
      <trkpt lat="47.49596" lon="6.75707">
        <ele>330</ele>
        <time>2016-02-28T08:32:31.000Z</time>
      </trkpt>
      <trkpt lat="47.49599" lon="6.757">
        <ele>329</ele>
        <time>2016-02-28T08:32:32.000Z</time>
      </trkpt>
      <trkpt lat="47.49597" lon="6.75692">
        <ele>328</ele>
        <time>2016-02-28T08:32:33.000Z</time>
      </trkpt>
      <trkpt lat="47.49593" lon="6.75685">
        <ele>327</ele>
        <time>2016-02-28T08:32:34.000Z</time>
      </trkpt>
      <trkpt lat="47.4959" lon="6.75679">
        <ele>325</ele>
        <time>2016-02-28T08:32:35.000Z</time>
      </trkpt>
      <trkpt lat="47.49586" lon="6.75674">
        <ele>324</ele>
        <time>2016-02-28T08:32:36.000Z</time>
      </trkpt>
      <trkpt lat="47.49582" lon="6.75669">
        <ele>321</ele>
        <time>2016-02-28T08:32:37.000Z</time>
      </trkpt>
      <trkpt lat="47.49577" lon="6.75665">
        <ele>321</ele>
        <time>2016-02-28T08:32:38.000Z</time>
      </trkpt>
      <trkpt lat="47.49571" lon="6.75666">
        <ele>321</ele>
        <time>2016-02-28T08:32:39.000Z</time>
      </trkpt>
      <trkpt lat="47.49566" lon="6.75671">
        <ele>323</ele>
        <time>2016-02-28T08:32:40.000Z</time>
      </trkpt>
      <trkpt lat="47.49561" lon="6.75676">
        <ele>323</ele>
        <time>2016-02-28T08:32:41.000Z</time>
      </trkpt>
      <trkpt lat="47.49558" lon="6.75683">
        <ele>324</ele>
        <time>2016-02-28T08:32:42.000Z</time>
      </trkpt>
      <trkpt lat="47.49554" lon="6.7569">
        <ele>324</ele>
        <time>2016-02-28T08:32:43.000Z</time>
      </trkpt>
      <trkpt lat="47.4955" lon="6.75695">
        <ele>325</ele>
        <time>2016-02-28T08:32:44.000Z</time>
      </trkpt>
      <trkpt lat="47.49546" lon="6.75701">
        <ele>325</ele>
        <time>2016-02-28T08:32:45.000Z</time>
      </trkpt>
      <trkpt lat="47.49541" lon="6.75706">
        <ele>325</ele>
        <time>2016-02-28T08:32:46.000Z</time>
      </trkpt>
      <trkpt lat="47.49537" lon="6.75711">
        <ele>325</ele>
        <time>2016-02-28T08:32:47.000Z</time>
      </trkpt>
      <trkpt lat="47.49532" lon="6.75716">
        <ele>325</ele>
        <time>2016-02-28T08:32:48.000Z</time>
      </trkpt>
      <trkpt lat="47.49527" lon="6.7572">
        <ele>325</ele>
        <time>2016-02-28T08:32:49.000Z</time>
      </trkpt>
      <trkpt lat="47.49522" lon="6.75722">
        <ele>325</ele>
        <time>2016-02-28T08:32:50.000Z</time>
      </trkpt>
      <trkpt lat="47.49517" lon="6.75727">
        <ele>325</ele>
        <time>2016-02-28T08:32:51.000Z</time>
      </trkpt>
      <trkpt lat="47.49512" lon="6.75729">
        <ele>325</ele>
        <time>2016-02-28T08:32:52.000Z</time>
      </trkpt>
      <trkpt lat="47.49506" lon="6.7573">
        <ele>325</ele>
        <time>2016-02-28T08:32:53.000Z</time>
      </trkpt>
      <trkpt lat="47.495" lon="6.75732">
        <ele>324</ele>
        <time>2016-02-28T08:32:54.000Z</time>
      </trkpt>
      <trkpt lat="47.49495" lon="6.75735">
        <ele>323</ele>
        <time>2016-02-28T08:32:55.000Z</time>
      </trkpt>
      <trkpt lat="47.4949" lon="6.75738">
        <ele>323</ele>
        <time>2016-02-28T08:32:56.000Z</time>
      </trkpt>
      <trkpt lat="47.49485" lon="6.75738">
        <ele>322</ele>
        <time>2016-02-28T08:32:57.000Z</time>
      </trkpt>
      <trkpt lat="47.49481" lon="6.75734">
        <ele>322</ele>
        <time>2016-02-28T08:32:58.000Z</time>
      </trkpt>
      <trkpt lat="47.49478" lon="6.75728">
        <ele>322</ele>
        <time>2016-02-28T08:32:59.000Z</time>
      </trkpt>
      <trkpt lat="47.49476" lon="6.7572">
        <ele>322</ele>
        <time>2016-02-28T08:33:00.000Z</time>
      </trkpt>
      <trkpt lat="47.49475" lon="6.75712">
        <ele>321</ele>
        <time>2016-02-28T08:33:01.000Z</time>
      </trkpt>
      <trkpt lat="47.49472" lon="6.75705">
        <ele>321</ele>
        <time>2016-02-28T08:33:02.000Z</time>
      </trkpt>
      <trkpt lat="47.4947" lon="6.75699">
        <ele>321</ele>
        <time>2016-02-28T08:33:03.000Z</time>
      </trkpt>
      <trkpt lat="47.49467" lon="6.75693">
        <ele>321</ele>
        <time>2016-02-28T08:33:04.000Z</time>
      </trkpt>
      <trkpt lat="47.49462" lon="6.7569">
        <ele>321</ele>
        <time>2016-02-28T08:33:05.000Z</time>
      </trkpt>
      <trkpt lat="47.49457" lon="6.7569">
        <ele>321</ele>
        <time>2016-02-28T08:33:06.000Z</time>
      </trkpt>
      <trkpt lat="47.49453" lon="6.75693">
        <ele>321</ele>
        <time>2016-02-28T08:33:07.000Z</time>
      </trkpt>
      <trkpt lat="47.49448" lon="6.75695">
        <ele>321</ele>
        <time>2016-02-28T08:33:08.000Z</time>
      </trkpt>
      <trkpt lat="47.49444" lon="6.75693">
        <ele>321</ele>
        <time>2016-02-28T08:33:09.000Z</time>
      </trkpt>
      <trkpt lat="47.49441" lon="6.75689">
        <ele>320</ele>
        <time>2016-02-28T08:33:10.000Z</time>
      </trkpt>
      <trkpt lat="47.4944" lon="6.75683">
        <ele>320</ele>
        <time>2016-02-28T08:33:11.000Z</time>
      </trkpt>
      <trkpt lat="47.49438" lon="6.75677">
        <ele>320</ele>
        <time>2016-02-28T08:33:12.000Z</time>
      </trkpt>
      <trkpt lat="47.49436" lon="6.75671">
        <ele>320</ele>
        <time>2016-02-28T08:33:13.000Z</time>
      </trkpt>
      <trkpt lat="47.49437" lon="6.75666">
        <ele>320</ele>
        <time>2016-02-28T08:33:14.000Z</time>
      </trkpt>
      <trkpt lat="47.49431" lon="6.75665">
        <ele>320</ele>
        <time>2016-02-28T08:33:15.000Z</time>
      </trkpt>
      <trkpt lat="47.49427" lon="6.75665">
        <ele>320</ele>
        <time>2016-02-28T08:33:16.000Z</time>
      </trkpt>
      <trkpt lat="47.4942" lon="6.75661">
        <ele>319</ele>
        <time>2016-02-28T08:33:17.000Z</time>
      </trkpt>
      <trkpt lat="47.49416" lon="6.75663">
        <ele>319</ele>
        <time>2016-02-28T08:33:18.000Z</time>
      </trkpt>
      <trkpt lat="47.49411" lon="6.75664">
        <ele>319</ele>
        <time>2016-02-28T08:33:19.000Z</time>
      </trkpt>
      <trkpt lat="47.49406" lon="6.75666">
        <ele>319</ele>
        <time>2016-02-28T08:33:20.000Z</time>
      </trkpt>
      <trkpt lat="47.49401" lon="6.75669">
        <ele>319</ele>
        <time>2016-02-28T08:33:21.000Z</time>
      </trkpt>
      <trkpt lat="47.49397" lon="6.75672">
        <ele>319</ele>
        <time>2016-02-28T08:33:22.000Z</time>
      </trkpt>
      <trkpt lat="47.49392" lon="6.75675">
        <ele>319</ele>
        <time>2016-02-28T08:33:23.000Z</time>
      </trkpt>
      <trkpt lat="47.49388" lon="6.75678">
        <ele>319</ele>
        <time>2016-02-28T08:33:24.000Z</time>
      </trkpt>
      <trkpt lat="47.49384" lon="6.75683">
        <ele>319</ele>
        <time>2016-02-28T08:33:25.000Z</time>
      </trkpt>
      <trkpt lat="47.4938" lon="6.75686">
        <ele>319</ele>
        <time>2016-02-28T08:33:26.000Z</time>
      </trkpt>
      <trkpt lat="47.49375" lon="6.75689">
        <ele>319</ele>
        <time>2016-02-28T08:33:27.000Z</time>
      </trkpt>
      <trkpt lat="47.49372" lon="6.75693">
        <ele>319</ele>
        <time>2016-02-28T08:33:28.000Z</time>
      </trkpt>
      <trkpt lat="47.49367" lon="6.75695">
        <ele>319</ele>
        <time>2016-02-28T08:33:29.000Z</time>
      </trkpt>
      <trkpt lat="47.49364" lon="6.75698">
        <ele>319</ele>
        <time>2016-02-28T08:33:30.000Z</time>
      </trkpt>
      <trkpt lat="47.49362" lon="6.757">
        <ele>319</ele>
        <time>2016-02-28T08:33:31.000Z</time>
      </trkpt>
      <trkpt lat="47.49359" lon="6.75705">
        <ele>319</ele>
        <time>2016-02-28T08:33:33.000Z</time>
      </trkpt>
      <trkpt lat="47.49357" lon="6.75706">
        <ele>319</ele>
        <time>2016-02-28T08:33:34.000Z</time>
      </trkpt>
      <trkpt lat="47.49355" lon="6.75707">
        <ele>319</ele>
        <time>2016-02-28T08:33:35.000Z</time>
      </trkpt>
      <trkpt lat="47.49352" lon="6.75708">
        <ele>319</ele>
        <time>2016-02-28T08:33:36.000Z</time>
      </trkpt>
      <trkpt lat="47.49345" lon="6.75712">
        <ele>319</ele>
        <time>2016-02-28T08:33:37.000Z</time>
      </trkpt>
      <trkpt lat="47.4934" lon="6.75714">
        <ele>318</ele>
        <time>2016-02-28T08:33:38.000Z</time>
      </trkpt>
      <trkpt lat="47.49336" lon="6.75715">
        <ele>318</ele>
        <time>2016-02-28T08:33:39.000Z</time>
      </trkpt>
      <trkpt lat="47.49332" lon="6.75717">
        <ele>319</ele>
        <time>2016-02-28T08:33:40.000Z</time>
      </trkpt>
      <trkpt lat="47.49328" lon="6.7572">
        <ele>319</ele>
        <time>2016-02-28T08:33:41.000Z</time>
      </trkpt>
      <trkpt lat="47.49324" lon="6.75724">
        <ele>319</ele>
        <time>2016-02-28T08:33:42.000Z</time>
      </trkpt>
      <trkpt lat="47.49319" lon="6.75729">
        <ele>319</ele>
        <time>2016-02-28T08:33:43.000Z</time>
      </trkpt>
      <trkpt lat="47.49314" lon="6.75737">
        <ele>319</ele>
        <time>2016-02-28T08:33:44.000Z</time>
      </trkpt>
      <trkpt lat="47.49311" lon="6.7574">
        <ele>319</ele>
        <time>2016-02-28T08:33:45.000Z</time>
      </trkpt>
      <trkpt lat="47.49307" lon="6.75743">
        <ele>319</ele>
        <time>2016-02-28T08:33:46.000Z</time>
      </trkpt>
      <trkpt lat="47.49303" lon="6.75748">
        <ele>319</ele>
        <time>2016-02-28T08:33:47.000Z</time>
      </trkpt>
      <trkpt lat="47.493" lon="6.75753">
        <ele>318</ele>
        <time>2016-02-28T08:33:48.000Z</time>
      </trkpt>
      <trkpt lat="47.49297" lon="6.75759">
        <ele>318</ele>
        <time>2016-02-28T08:33:49.000Z</time>
      </trkpt>
      <trkpt lat="47.49294" lon="6.75764">
        <ele>318</ele>
        <time>2016-02-28T08:33:50.000Z</time>
      </trkpt>
      <trkpt lat="47.49291" lon="6.75768">
        <ele>318</ele>
        <time>2016-02-28T08:33:51.000Z</time>
      </trkpt>
      <trkpt lat="47.49288" lon="6.75774">
        <ele>318</ele>
        <time>2016-02-28T08:33:52.000Z</time>
      </trkpt>
      <trkpt lat="47.49283" lon="6.7578">
        <ele>318</ele>
        <time>2016-02-28T08:33:53.000Z</time>
      </trkpt>
      <trkpt lat="47.49279" lon="6.75787">
        <ele>318</ele>
        <time>2016-02-28T08:33:54.000Z</time>
      </trkpt>
      <trkpt lat="47.49276" lon="6.75794">
        <ele>318</ele>
        <time>2016-02-28T08:33:55.000Z</time>
      </trkpt>
      <trkpt lat="47.49273" lon="6.758">
        <ele>317</ele>
        <time>2016-02-28T08:33:56.000Z</time>
      </trkpt>
      <trkpt lat="47.4927" lon="6.75806">
        <ele>317</ele>
        <time>2016-02-28T08:33:57.000Z</time>
      </trkpt>
      <trkpt lat="47.49267" lon="6.75812">
        <ele>317</ele>
        <time>2016-02-28T08:33:58.000Z</time>
      </trkpt>
      <trkpt lat="47.49263" lon="6.75817">
        <ele>316</ele>
        <time>2016-02-28T08:33:59.000Z</time>
      </trkpt>
      <trkpt lat="47.4926" lon="6.75825">
        <ele>315</ele>
        <time>2016-02-28T08:34:00.000Z</time>
      </trkpt>
      <trkpt lat="47.49257" lon="6.75832">
        <ele>314</ele>
        <time>2016-02-28T08:34:01.000Z</time>
      </trkpt>
      <trkpt lat="47.49253" lon="6.75839">
        <ele>315</ele>
        <time>2016-02-28T08:34:02.000Z</time>
      </trkpt>
      <trkpt lat="47.49248" lon="6.75846">
        <ele>315</ele>
        <time>2016-02-28T08:34:03.000Z</time>
      </trkpt>
      <trkpt lat="47.49245" lon="6.75851">
        <ele>316</ele>
        <time>2016-02-28T08:34:04.000Z</time>
      </trkpt>
      <trkpt lat="47.49242" lon="6.75858">
        <ele>317</ele>
        <time>2016-02-28T08:34:05.000Z</time>
      </trkpt>
      <trkpt lat="47.49239" lon="6.75864">
        <ele>318</ele>
        <time>2016-02-28T08:34:06.000Z</time>
      </trkpt>
      <trkpt lat="47.49235" lon="6.75872">
        <ele>318</ele>
        <time>2016-02-28T08:34:07.000Z</time>
      </trkpt>
      <trkpt lat="47.49233" lon="6.7588">
        <ele>318</ele>
        <time>2016-02-28T08:34:08.000Z</time>
      </trkpt>
      <trkpt lat="47.49229" lon="6.75882">
        <ele>318</ele>
        <time>2016-02-28T08:34:09.000Z</time>
      </trkpt>
      <trkpt lat="47.49229" lon="6.75886">
        <ele>318</ele>
        <time>2016-02-28T08:34:10.000Z</time>
      </trkpt>
      <trkpt lat="47.49226" lon="6.75894">
        <ele>319</ele>
        <time>2016-02-28T08:34:11.000Z</time>
      </trkpt>
      <trkpt lat="47.49223" lon="6.759">
        <ele>319</ele>
        <time>2016-02-28T08:34:12.000Z</time>
      </trkpt>
      <trkpt lat="47.49219" lon="6.75905">
        <ele>319</ele>
        <time>2016-02-28T08:34:13.000Z</time>
      </trkpt>
      <trkpt lat="47.49216" lon="6.75913">
        <ele>319</ele>
        <time>2016-02-28T08:34:14.000Z</time>
      </trkpt>
      <trkpt lat="47.49213" lon="6.7592">
        <ele>320</ele>
        <time>2016-02-28T08:34:15.000Z</time>
      </trkpt>
      <trkpt lat="47.49209" lon="6.75925">
        <ele>320</ele>
        <time>2016-02-28T08:34:16.000Z</time>
      </trkpt>
      <trkpt lat="47.49205" lon="6.7593">
        <ele>320</ele>
        <time>2016-02-28T08:34:17.000Z</time>
      </trkpt>
      <trkpt lat="47.49203" lon="6.75935">
        <ele>320</ele>
        <time>2016-02-28T08:34:18.000Z</time>
      </trkpt>
      <trkpt lat="47.49198" lon="6.75941">
        <ele>320</ele>
        <time>2016-02-28T08:34:19.000Z</time>
      </trkpt>
      <trkpt lat="47.49193" lon="6.75946">
        <ele>320</ele>
        <time>2016-02-28T08:34:20.000Z</time>
      </trkpt>
      <trkpt lat="47.49189" lon="6.75951">
        <ele>321</ele>
        <time>2016-02-28T08:34:21.000Z</time>
      </trkpt>
      <trkpt lat="47.49184" lon="6.75956">
        <ele>320</ele>
        <time>2016-02-28T08:34:22.000Z</time>
      </trkpt>
      <trkpt lat="47.49181" lon="6.75962">
        <ele>320</ele>
        <time>2016-02-28T08:34:23.000Z</time>
      </trkpt>
      <trkpt lat="47.49178" lon="6.7597">
        <ele>320</ele>
        <time>2016-02-28T08:34:24.000Z</time>
      </trkpt>
      <trkpt lat="47.49175" lon="6.75977">
        <ele>320</ele>
        <time>2016-02-28T08:34:25.000Z</time>
      </trkpt>
      <trkpt lat="47.49173" lon="6.75984">
        <ele>320</ele>
        <time>2016-02-28T08:34:26.000Z</time>
      </trkpt>
      <trkpt lat="47.4917" lon="6.75989">
        <ele>320</ele>
        <time>2016-02-28T08:34:27.000Z</time>
      </trkpt>
      <trkpt lat="47.49167" lon="6.75997">
        <ele>319</ele>
        <time>2016-02-28T08:34:28.000Z</time>
      </trkpt>
      <trkpt lat="47.49165" lon="6.76003">
        <ele>320</ele>
        <time>2016-02-28T08:34:29.000Z</time>
      </trkpt>
      <trkpt lat="47.49162" lon="6.76009">
        <ele>321</ele>
        <time>2016-02-28T08:34:30.000Z</time>
      </trkpt>
      <trkpt lat="47.4916" lon="6.76016">
        <ele>322</ele>
        <time>2016-02-28T08:34:31.000Z</time>
      </trkpt>
      <trkpt lat="47.49157" lon="6.76021">
        <ele>322</ele>
        <time>2016-02-28T08:34:32.000Z</time>
      </trkpt>
      <trkpt lat="47.49154" lon="6.76028">
        <ele>323</ele>
        <time>2016-02-28T08:34:33.000Z</time>
      </trkpt>
      <trkpt lat="47.49152" lon="6.76033">
        <ele>323</ele>
        <time>2016-02-28T08:34:34.000Z</time>
      </trkpt>
      <trkpt lat="47.49149" lon="6.76039">
        <ele>323</ele>
        <time>2016-02-28T08:34:35.000Z</time>
      </trkpt>
      <trkpt lat="47.49146" lon="6.76047">
        <ele>323</ele>
        <time>2016-02-28T08:34:36.000Z</time>
      </trkpt>
      <trkpt lat="47.49143" lon="6.76054">
        <ele>323</ele>
        <time>2016-02-28T08:34:37.000Z</time>
      </trkpt>
      <trkpt lat="47.49141" lon="6.76061">
        <ele>323</ele>
        <time>2016-02-28T08:34:38.000Z</time>
      </trkpt>
      <trkpt lat="47.4914" lon="6.76072">
        <ele>323</ele>
        <time>2016-02-28T08:34:39.000Z</time>
      </trkpt>
      <trkpt lat="47.49138" lon="6.76081">
        <ele>323</ele>
        <time>2016-02-28T08:34:40.000Z</time>
      </trkpt>
      <trkpt lat="47.49135" lon="6.76087">
        <ele>322</ele>
        <time>2016-02-28T08:34:41.000Z</time>
      </trkpt>
      <trkpt lat="47.49131" lon="6.76092">
        <ele>322</ele>
        <time>2016-02-28T08:34:42.000Z</time>
      </trkpt>
      <trkpt lat="47.49128" lon="6.76097">
        <ele>322</ele>
        <time>2016-02-28T08:34:43.000Z</time>
      </trkpt>
      <trkpt lat="47.49126" lon="6.76103">
        <ele>322</ele>
        <time>2016-02-28T08:34:44.000Z</time>
      </trkpt>
      <trkpt lat="47.49123" lon="6.7611">
        <ele>322</ele>
        <time>2016-02-28T08:34:45.000Z</time>
      </trkpt>
      <trkpt lat="47.49121" lon="6.76118">
        <ele>322</ele>
        <time>2016-02-28T08:34:46.000Z</time>
      </trkpt>
      <trkpt lat="47.49119" lon="6.76124">
        <ele>323</ele>
        <time>2016-02-28T08:34:47.000Z</time>
      </trkpt>
      <trkpt lat="47.49118" lon="6.76131">
        <ele>322</ele>
        <time>2016-02-28T08:34:48.000Z</time>
      </trkpt>
      <trkpt lat="47.49117" lon="6.76136">
        <ele>322</ele>
        <time>2016-02-28T08:34:49.000Z</time>
      </trkpt>
      <trkpt lat="47.49117" lon="6.76142">
        <ele>322</ele>
        <time>2016-02-28T08:34:50.000Z</time>
      </trkpt>
      <trkpt lat="47.49116" lon="6.7615">
        <ele>322</ele>
        <time>2016-02-28T08:34:51.000Z</time>
      </trkpt>
      <trkpt lat="47.49116" lon="6.76158">
        <ele>322</ele>
        <time>2016-02-28T08:34:52.000Z</time>
      </trkpt>
      <trkpt lat="47.49115" lon="6.76167">
        <ele>322</ele>
        <time>2016-02-28T08:34:53.000Z</time>
      </trkpt>
      <trkpt lat="47.49114" lon="6.76176">
        <ele>322</ele>
        <time>2016-02-28T08:34:54.000Z</time>
      </trkpt>
      <trkpt lat="47.49114" lon="6.76187">
        <ele>322</ele>
        <time>2016-02-28T08:34:55.000Z</time>
      </trkpt>
      <trkpt lat="47.49114" lon="6.76196">
        <ele>321</ele>
        <time>2016-02-28T08:34:56.000Z</time>
      </trkpt>
      <trkpt lat="47.49115" lon="6.76202">
        <ele>321</ele>
        <time>2016-02-28T08:34:57.000Z</time>
      </trkpt>
      <trkpt lat="47.49115" lon="6.76212">
        <ele>321</ele>
        <time>2016-02-28T08:34:58.000Z</time>
      </trkpt>
      <trkpt lat="47.49115" lon="6.76221">
        <ele>321</ele>
        <time>2016-02-28T08:34:59.000Z</time>
      </trkpt>
      <trkpt lat="47.49114" lon="6.76229">
        <ele>322</ele>
        <time>2016-02-28T08:35:00.000Z</time>
      </trkpt>
      <trkpt lat="47.49114" lon="6.76235">
        <ele>322</ele>
        <time>2016-02-28T08:35:01.000Z</time>
      </trkpt>
      <trkpt lat="47.49113" lon="6.76242">
        <ele>322</ele>
        <time>2016-02-28T08:35:02.000Z</time>
      </trkpt>
      <trkpt lat="47.49111" lon="6.76249">
        <ele>322</ele>
        <time>2016-02-28T08:35:03.000Z</time>
      </trkpt>
      <trkpt lat="47.4911" lon="6.76256">
        <ele>321</ele>
        <time>2016-02-28T08:35:04.000Z</time>
      </trkpt>
      <trkpt lat="47.4911" lon="6.76263">
        <ele>321</ele>
        <time>2016-02-28T08:35:05.000Z</time>
      </trkpt>
      <trkpt lat="47.4911" lon="6.76271">
        <ele>321</ele>
        <time>2016-02-28T08:35:06.000Z</time>
      </trkpt>
      <trkpt lat="47.4911" lon="6.76279">
        <ele>321</ele>
        <time>2016-02-28T08:35:07.000Z</time>
      </trkpt>
      <trkpt lat="47.4911" lon="6.76287">
        <ele>320</ele>
        <time>2016-02-28T08:35:08.000Z</time>
      </trkpt>
      <trkpt lat="47.4911" lon="6.763">
        <ele>320</ele>
        <time>2016-02-28T08:35:09.000Z</time>
      </trkpt>
      <trkpt lat="47.49109" lon="6.76308">
        <ele>320</ele>
        <time>2016-02-28T08:35:10.000Z</time>
      </trkpt>
      <trkpt lat="47.49108" lon="6.76316">
        <ele>320</ele>
        <time>2016-02-28T08:35:11.000Z</time>
      </trkpt>
      <trkpt lat="47.49109" lon="6.76326">
        <ele>320</ele>
        <time>2016-02-28T08:35:12.000Z</time>
      </trkpt>
      <trkpt lat="47.4911" lon="6.76337">
        <ele>319</ele>
        <time>2016-02-28T08:35:13.000Z</time>
      </trkpt>
      <trkpt lat="47.49111" lon="6.76346">
        <ele>319</ele>
        <time>2016-02-28T08:35:14.000Z</time>
      </trkpt>
      <trkpt lat="47.49111" lon="6.76354">
        <ele>319</ele>
        <time>2016-02-28T08:35:15.000Z</time>
      </trkpt>
      <trkpt lat="47.49111" lon="6.76362">
        <ele>319</ele>
        <time>2016-02-28T08:35:16.000Z</time>
      </trkpt>
      <trkpt lat="47.49111" lon="6.76371">
        <ele>319</ele>
        <time>2016-02-28T08:35:17.000Z</time>
      </trkpt>
      <trkpt lat="47.49111" lon="6.76381">
        <ele>318</ele>
        <time>2016-02-28T08:35:18.000Z</time>
      </trkpt>
      <trkpt lat="47.49111" lon="6.76389">
        <ele>318</ele>
        <time>2016-02-28T08:35:19.000Z</time>
      </trkpt>
      <trkpt lat="47.4911" lon="6.76398">
        <ele>318</ele>
        <time>2016-02-28T08:35:20.000Z</time>
      </trkpt>
      <trkpt lat="47.49111" lon="6.76408">
        <ele>318</ele>
        <time>2016-02-28T08:35:21.000Z</time>
      </trkpt>
      <trkpt lat="47.49111" lon="6.76417">
        <ele>318</ele>
        <time>2016-02-28T08:35:22.000Z</time>
      </trkpt>
      <trkpt lat="47.49111" lon="6.76427">
        <ele>318</ele>
        <time>2016-02-28T08:35:23.000Z</time>
      </trkpt>
      <trkpt lat="47.49111" lon="6.76434">
        <ele>318</ele>
        <time>2016-02-28T08:35:24.000Z</time>
      </trkpt>
      <trkpt lat="47.4911" lon="6.76443">
        <ele>318</ele>
        <time>2016-02-28T08:35:25.000Z</time>
      </trkpt>
      <trkpt lat="47.49109" lon="6.76452">
        <ele>318</ele>
        <time>2016-02-28T08:35:26.000Z</time>
      </trkpt>
      <trkpt lat="47.49109" lon="6.76457">
        <ele>318</ele>
        <time>2016-02-28T08:35:27.000Z</time>
      </trkpt>
      <trkpt lat="47.4911" lon="6.76465">
        <ele>318</ele>
        <time>2016-02-28T08:35:28.000Z</time>
      </trkpt>
      <trkpt lat="47.4911" lon="6.76473">
        <ele>318</ele>
        <time>2016-02-28T08:35:29.000Z</time>
      </trkpt>
      <trkpt lat="47.4911" lon="6.76482">
        <ele>318</ele>
        <time>2016-02-28T08:35:30.000Z</time>
      </trkpt>
      <trkpt lat="47.49109" lon="6.76491">
        <ele>318</ele>
        <time>2016-02-28T08:35:31.000Z</time>
      </trkpt>
      <trkpt lat="47.4911" lon="6.76501">
        <ele>317</ele>
        <time>2016-02-28T08:35:32.000Z</time>
      </trkpt>
      <trkpt lat="47.49111" lon="6.7651">
        <ele>317</ele>
        <time>2016-02-28T08:35:33.000Z</time>
      </trkpt>
      <trkpt lat="47.49117" lon="6.76515">
        <ele>317</ele>
        <time>2016-02-28T08:35:34.000Z</time>
      </trkpt>
      <trkpt lat="47.49125" lon="6.76519">
        <ele>316</ele>
        <time>2016-02-28T08:35:35.000Z</time>
      </trkpt>
      <trkpt lat="47.49132" lon="6.76521">
        <ele>316</ele>
        <time>2016-02-28T08:35:36.000Z</time>
      </trkpt>
      <trkpt lat="47.49136" lon="6.7652">
        <ele>315</ele>
        <time>2016-02-28T08:35:37.000Z</time>
      </trkpt>
      <trkpt lat="47.49142" lon="6.76519">
        <ele>315</ele>
        <time>2016-02-28T08:35:38.000Z</time>
      </trkpt>
      <trkpt lat="47.49147" lon="6.76516">
        <ele>315</ele>
        <time>2016-02-28T08:35:39.000Z</time>
      </trkpt>
      <trkpt lat="47.49152" lon="6.76514">
        <ele>315</ele>
        <time>2016-02-28T08:35:40.000Z</time>
      </trkpt>
      <trkpt lat="47.49157" lon="6.76512">
        <ele>314</ele>
        <time>2016-02-28T08:35:41.000Z</time>
      </trkpt>
      <trkpt lat="47.49161" lon="6.7651">
        <ele>314</ele>
        <time>2016-02-28T08:35:42.000Z</time>
      </trkpt>
      <trkpt lat="47.49164" lon="6.76509">
        <ele>314</ele>
        <time>2016-02-28T08:35:43.000Z</time>
      </trkpt>
      <trkpt lat="47.49165" lon="6.76508">
        <ele>314</ele>
        <time>2016-02-28T08:35:44.000Z</time>
      </trkpt>
      <trkpt lat="47.49168" lon="6.76507">
        <ele>314</ele>
        <time>2016-02-28T08:35:45.000Z</time>
      </trkpt>
      <trkpt lat="47.4917" lon="6.76506">
        <ele>314</ele>
        <time>2016-02-28T08:35:46.000Z</time>
      </trkpt>
      <trkpt lat="47.49173" lon="6.76504">
        <ele>314</ele>
        <time>2016-02-28T08:35:47.000Z</time>
      </trkpt>
      <trkpt lat="47.49177" lon="6.76501">
        <ele>314</ele>
        <time>2016-02-28T08:35:49.000Z</time>
      </trkpt>
      <trkpt lat="47.49178" lon="6.76499">
        <ele>315</ele>
        <time>2016-02-28T08:35:50.000Z</time>
      </trkpt>
      <trkpt lat="47.49176" lon="6.76494">
        <ele>315</ele>
        <time>2016-02-28T08:37:59.000Z</time>
      </trkpt>
      <trkpt lat="47.49175" lon="6.76494">
        <ele>315</ele>
        <time>2016-02-28T08:38:00.000Z</time>
      </trkpt>
      <trkpt lat="47.49178" lon="6.76491">
        <ele>315</ele>
        <time>2016-02-28T08:38:54.000Z</time>
      </trkpt>
      <trkpt lat="47.49179" lon="6.76491">
        <ele>315</ele>
        <time>2016-02-28T08:38:55.000Z</time>
      </trkpt>
      <trkpt lat="47.49182" lon="6.76495">
        <ele>315</ele>
        <time>2016-02-28T08:38:58.000Z</time>
      </trkpt>
      <trkpt lat="47.49181" lon="6.76498">
        <ele>315</ele>
        <time>2016-02-28T08:38:59.000Z</time>
      </trkpt>
      <trkpt lat="47.49179" lon="6.765">
        <ele>315</ele>
        <time>2016-02-28T08:39:00.000Z</time>
      </trkpt>
      <trkpt lat="47.49177" lon="6.76503">
        <ele>314</ele>
        <time>2016-02-28T08:39:01.000Z</time>
      </trkpt>
      <trkpt lat="47.49174" lon="6.76505">
        <ele>314</ele>
        <time>2016-02-28T08:39:02.000Z</time>
      </trkpt>
      <trkpt lat="47.49171" lon="6.76507">
        <ele>314</ele>
        <time>2016-02-28T08:39:03.000Z</time>
      </trkpt>
      <trkpt lat="47.49167" lon="6.76509">
        <ele>314</ele>
        <time>2016-02-28T08:39:04.000Z</time>
      </trkpt>
      <trkpt lat="47.49163" lon="6.76511">
        <ele>314</ele>
        <time>2016-02-28T08:39:05.000Z</time>
      </trkpt>
      <trkpt lat="47.49159" lon="6.76514">
        <ele>314</ele>
        <time>2016-02-28T08:39:06.000Z</time>
      </trkpt>
      <trkpt lat="47.4915" lon="6.76518">
        <ele>315</ele>
        <time>2016-02-28T08:39:07.000Z</time>
      </trkpt>
      <trkpt lat="47.49146" lon="6.76521">
        <ele>315</ele>
        <time>2016-02-28T08:39:08.000Z</time>
      </trkpt>
      <trkpt lat="47.49141" lon="6.76522">
        <ele>315</ele>
        <time>2016-02-28T08:39:09.000Z</time>
      </trkpt>
      <trkpt lat="47.49136" lon="6.76521">
        <ele>315</ele>
        <time>2016-02-28T08:39:10.000Z</time>
      </trkpt>
      <trkpt lat="47.49132" lon="6.76521">
        <ele>316</ele>
        <time>2016-02-28T08:39:11.000Z</time>
      </trkpt>
      <trkpt lat="47.49128" lon="6.7652">
        <ele>316</ele>
        <time>2016-02-28T08:39:12.000Z</time>
      </trkpt>
      <trkpt lat="47.49125" lon="6.76524">
        <ele>316</ele>
        <time>2016-02-28T08:39:13.000Z</time>
      </trkpt>
      <trkpt lat="47.49123" lon="6.7653">
        <ele>316</ele>
        <time>2016-02-28T08:39:14.000Z</time>
      </trkpt>
      <trkpt lat="47.49122" lon="6.76536">
        <ele>316</ele>
        <time>2016-02-28T08:39:15.000Z</time>
      </trkpt>
      <trkpt lat="47.49121" lon="6.76541">
        <ele>316</ele>
        <time>2016-02-28T08:39:16.000Z</time>
      </trkpt>
      <trkpt lat="47.4912" lon="6.76547">
        <ele>316</ele>
        <time>2016-02-28T08:39:17.000Z</time>
      </trkpt>
      <trkpt lat="47.49119" lon="6.76552">
        <ele>316</ele>
        <time>2016-02-28T08:39:18.000Z</time>
      </trkpt>
      <trkpt lat="47.4912" lon="6.76561">
        <ele>316</ele>
        <time>2016-02-28T08:39:19.000Z</time>
      </trkpt>
      <trkpt lat="47.49121" lon="6.76569">
        <ele>316</ele>
        <time>2016-02-28T08:39:20.000Z</time>
      </trkpt>
      <trkpt lat="47.49122" lon="6.76577">
        <ele>315</ele>
        <time>2016-02-28T08:39:21.000Z</time>
      </trkpt>
      <trkpt lat="47.49123" lon="6.76586">
        <ele>314</ele>
        <time>2016-02-28T08:39:22.000Z</time>
      </trkpt>
      <trkpt lat="47.49123" lon="6.76594">
        <ele>314</ele>
        <time>2016-02-28T08:39:23.000Z</time>
      </trkpt>
      <trkpt lat="47.49125" lon="6.76602">
        <ele>314</ele>
        <time>2016-02-28T08:39:24.000Z</time>
      </trkpt>
      <trkpt lat="47.49125" lon="6.76609">
        <ele>314</ele>
        <time>2016-02-28T08:39:25.000Z</time>
      </trkpt>
      <trkpt lat="47.49127" lon="6.76618">
        <ele>314</ele>
        <time>2016-02-28T08:39:26.000Z</time>
      </trkpt>
      <trkpt lat="47.49128" lon="6.76625">
        <ele>314</ele>
        <time>2016-02-28T08:39:27.000Z</time>
      </trkpt>
      <trkpt lat="47.49128" lon="6.76632">
        <ele>314</ele>
        <time>2016-02-28T08:39:28.000Z</time>
      </trkpt>
      <trkpt lat="47.49129" lon="6.7664">
        <ele>314</ele>
        <time>2016-02-28T08:39:29.000Z</time>
      </trkpt>
      <trkpt lat="47.49131" lon="6.76648">
        <ele>314</ele>
        <time>2016-02-28T08:39:30.000Z</time>
      </trkpt>
      <trkpt lat="47.49133" lon="6.76654">
        <ele>314</ele>
        <time>2016-02-28T08:39:31.000Z</time>
      </trkpt>
      <trkpt lat="47.49134" lon="6.76661">
        <ele>314</ele>
        <time>2016-02-28T08:39:32.000Z</time>
      </trkpt>
      <trkpt lat="47.49135" lon="6.76668">
        <ele>314</ele>
        <time>2016-02-28T08:39:33.000Z</time>
      </trkpt>
      <trkpt lat="47.49136" lon="6.76674">
        <ele>314</ele>
        <time>2016-02-28T08:39:34.000Z</time>
      </trkpt>
      <trkpt lat="47.49137" lon="6.76679">
        <ele>314</ele>
        <time>2016-02-28T08:39:35.000Z</time>
      </trkpt>
      <trkpt lat="47.49137" lon="6.76686">
        <ele>313</ele>
        <time>2016-02-28T08:39:36.000Z</time>
      </trkpt>
      <trkpt lat="47.49137" lon="6.76693">
        <ele>313</ele>
        <time>2016-02-28T08:39:37.000Z</time>
      </trkpt>
      <trkpt lat="47.49137" lon="6.76699">
        <ele>313</ele>
        <time>2016-02-28T08:39:38.000Z</time>
      </trkpt>
      <trkpt lat="47.49138" lon="6.76706">
        <ele>313</ele>
        <time>2016-02-28T08:39:39.000Z</time>
      </trkpt>
      <trkpt lat="47.49138" lon="6.76713">
        <ele>313</ele>
        <time>2016-02-28T08:39:40.000Z</time>
      </trkpt>
      <trkpt lat="47.49138" lon="6.76719">
        <ele>313</ele>
        <time>2016-02-28T08:39:41.000Z</time>
      </trkpt>
      <trkpt lat="47.49139" lon="6.76729">
        <ele>313</ele>
        <time>2016-02-28T08:39:42.000Z</time>
      </trkpt>
      <trkpt lat="47.4914" lon="6.76737">
        <ele>313</ele>
        <time>2016-02-28T08:39:43.000Z</time>
      </trkpt>
      <trkpt lat="47.49141" lon="6.76743">
        <ele>313</ele>
        <time>2016-02-28T08:39:44.000Z</time>
      </trkpt>
      <trkpt lat="47.49142" lon="6.76751">
        <ele>313</ele>
        <time>2016-02-28T08:39:45.000Z</time>
      </trkpt>
      <trkpt lat="47.49142" lon="6.76761">
        <ele>313</ele>
        <time>2016-02-28T08:39:46.000Z</time>
      </trkpt>
      <trkpt lat="47.49143" lon="6.76769">
        <ele>312</ele>
        <time>2016-02-28T08:39:47.000Z</time>
      </trkpt>
      <trkpt lat="47.49142" lon="6.76777">
        <ele>312</ele>
        <time>2016-02-28T08:39:48.000Z</time>
      </trkpt>
      <trkpt lat="47.49143" lon="6.76785">
        <ele>312</ele>
        <time>2016-02-28T08:39:49.000Z</time>
      </trkpt>
      <trkpt lat="47.49144" lon="6.76793">
        <ele>312</ele>
        <time>2016-02-28T08:39:50.000Z</time>
      </trkpt>
      <trkpt lat="47.49143" lon="6.76802">
        <ele>312</ele>
        <time>2016-02-28T08:39:51.000Z</time>
      </trkpt>
      <trkpt lat="47.49144" lon="6.76808">
        <ele>312</ele>
        <time>2016-02-28T08:39:52.000Z</time>
      </trkpt>
      <trkpt lat="47.49144" lon="6.76815">
        <ele>312</ele>
        <time>2016-02-28T08:39:53.000Z</time>
      </trkpt>
      <trkpt lat="47.49144" lon="6.76822">
        <ele>312</ele>
        <time>2016-02-28T08:39:54.000Z</time>
      </trkpt>
      <trkpt lat="47.49144" lon="6.7683">
        <ele>312</ele>
        <time>2016-02-28T08:39:55.000Z</time>
      </trkpt>
      <trkpt lat="47.49146" lon="6.76836">
        <ele>312</ele>
        <time>2016-02-28T08:39:56.000Z</time>
      </trkpt>
      <trkpt lat="47.49146" lon="6.76843">
        <ele>312</ele>
        <time>2016-02-28T08:39:57.000Z</time>
      </trkpt>
      <trkpt lat="47.49146" lon="6.76851">
        <ele>312</ele>
        <time>2016-02-28T08:39:58.000Z</time>
      </trkpt>
      <trkpt lat="47.49146" lon="6.76859">
        <ele>312</ele>
        <time>2016-02-28T08:39:59.000Z</time>
      </trkpt>
      <trkpt lat="47.49146" lon="6.76869">
        <ele>312</ele>
        <time>2016-02-28T08:40:00.000Z</time>
      </trkpt>
      <trkpt lat="47.49148" lon="6.76876">
        <ele>312</ele>
        <time>2016-02-28T08:40:01.000Z</time>
      </trkpt>
      <trkpt lat="47.49148" lon="6.76885">
        <ele>312</ele>
        <time>2016-02-28T08:40:02.000Z</time>
      </trkpt>
      <trkpt lat="47.49148" lon="6.76892">
        <ele>312</ele>
        <time>2016-02-28T08:40:03.000Z</time>
      </trkpt>
      <trkpt lat="47.49148" lon="6.76899">
        <ele>312</ele>
        <time>2016-02-28T08:40:04.000Z</time>
      </trkpt>
      <trkpt lat="47.49147" lon="6.76906">
        <ele>312</ele>
        <time>2016-02-28T08:40:05.000Z</time>
      </trkpt>
      <trkpt lat="47.49147" lon="6.76914">
        <ele>312</ele>
        <time>2016-02-28T08:40:06.000Z</time>
      </trkpt>
      <trkpt lat="47.49146" lon="6.76921">
        <ele>312</ele>
        <time>2016-02-28T08:40:07.000Z</time>
      </trkpt>
      <trkpt lat="47.49144" lon="6.76927">
        <ele>312</ele>
        <time>2016-02-28T08:40:08.000Z</time>
      </trkpt>
      <trkpt lat="47.49143" lon="6.76933">
        <ele>312</ele>
        <time>2016-02-28T08:40:09.000Z</time>
      </trkpt>
      <trkpt lat="47.49142" lon="6.7694">
        <ele>312</ele>
        <time>2016-02-28T08:40:10.000Z</time>
      </trkpt>
      <trkpt lat="47.49141" lon="6.76946">
        <ele>312</ele>
        <time>2016-02-28T08:40:11.000Z</time>
      </trkpt>
      <trkpt lat="47.4914" lon="6.76951">
        <ele>312</ele>
        <time>2016-02-28T08:40:12.000Z</time>
      </trkpt>
      <trkpt lat="47.4914" lon="6.7696">
        <ele>312</ele>
        <time>2016-02-28T08:40:13.000Z</time>
      </trkpt>
      <trkpt lat="47.4914" lon="6.76968">
        <ele>312</ele>
        <time>2016-02-28T08:40:14.000Z</time>
      </trkpt>
      <trkpt lat="47.49141" lon="6.76978">
        <ele>312</ele>
        <time>2016-02-28T08:40:15.000Z</time>
      </trkpt>
      <trkpt lat="47.49146" lon="6.76985">
        <ele>312</ele>
        <time>2016-02-28T08:40:16.000Z</time>
      </trkpt>
      <trkpt lat="47.49149" lon="6.76992">
        <ele>312</ele>
        <time>2016-02-28T08:40:17.000Z</time>
      </trkpt>
      <trkpt lat="47.49152" lon="6.77001">
        <ele>312</ele>
        <time>2016-02-28T08:40:18.000Z</time>
      </trkpt>
      <trkpt lat="47.49156" lon="6.77009">
        <ele>312</ele>
        <time>2016-02-28T08:40:19.000Z</time>
      </trkpt>
      <trkpt lat="47.49158" lon="6.77017">
        <ele>312</ele>
        <time>2016-02-28T08:40:20.000Z</time>
      </trkpt>
      <trkpt lat="47.49161" lon="6.77024">
        <ele>312</ele>
        <time>2016-02-28T08:40:21.000Z</time>
      </trkpt>
      <trkpt lat="47.49162" lon="6.77032">
        <ele>312</ele>
        <time>2016-02-28T08:40:22.000Z</time>
      </trkpt>
      <trkpt lat="47.49163" lon="6.7704">
        <ele>312</ele>
        <time>2016-02-28T08:40:23.000Z</time>
      </trkpt>
      <trkpt lat="47.49164" lon="6.77048">
        <ele>312</ele>
        <time>2016-02-28T08:40:24.000Z</time>
      </trkpt>
      <trkpt lat="47.49165" lon="6.77056">
        <ele>312</ele>
        <time>2016-02-28T08:40:25.000Z</time>
      </trkpt>
      <trkpt lat="47.49166" lon="6.77064">
        <ele>312</ele>
        <time>2016-02-28T08:40:26.000Z</time>
      </trkpt>
      <trkpt lat="47.49168" lon="6.77071">
        <ele>312</ele>
        <time>2016-02-28T08:40:27.000Z</time>
      </trkpt>
      <trkpt lat="47.49169" lon="6.77078">
        <ele>312</ele>
        <time>2016-02-28T08:40:28.000Z</time>
      </trkpt>
      <trkpt lat="47.49171" lon="6.77086">
        <ele>312</ele>
        <time>2016-02-28T08:40:29.000Z</time>
      </trkpt>
      <trkpt lat="47.49172" lon="6.77093">
        <ele>312</ele>
        <time>2016-02-28T08:40:30.000Z</time>
      </trkpt>
      <trkpt lat="47.49173" lon="6.77099">
        <ele>312</ele>
        <time>2016-02-28T08:40:31.000Z</time>
      </trkpt>
      <trkpt lat="47.49173" lon="6.77106">
        <ele>312</ele>
        <time>2016-02-28T08:40:32.000Z</time>
      </trkpt>
      <trkpt lat="47.49174" lon="6.77111">
        <ele>313</ele>
        <time>2016-02-28T08:40:33.000Z</time>
      </trkpt>
      <trkpt lat="47.49174" lon="6.77116">
        <ele>313</ele>
        <time>2016-02-28T08:40:34.000Z</time>
      </trkpt>
      <trkpt lat="47.49174" lon="6.77121">
        <ele>313</ele>
        <time>2016-02-28T08:40:35.000Z</time>
      </trkpt>
      <trkpt lat="47.49174" lon="6.77124">
        <ele>313</ele>
        <time>2016-02-28T08:40:36.000Z</time>
      </trkpt>
      <trkpt lat="47.49174" lon="6.7713">
        <ele>313</ele>
        <time>2016-02-28T08:40:39.000Z</time>
      </trkpt>
      <trkpt lat="47.49174" lon="6.77133">
        <ele>313</ele>
        <time>2016-02-28T08:40:40.000Z</time>
      </trkpt>
      <trkpt lat="47.49175" lon="6.77137">
        <ele>313</ele>
        <time>2016-02-28T08:40:41.000Z</time>
      </trkpt>
      <trkpt lat="47.49176" lon="6.77141">
        <ele>313</ele>
        <time>2016-02-28T08:40:42.000Z</time>
      </trkpt>
      <trkpt lat="47.49177" lon="6.77147">
        <ele>313</ele>
        <time>2016-02-28T08:40:43.000Z</time>
      </trkpt>
      <trkpt lat="47.49178" lon="6.77153">
        <ele>313</ele>
        <time>2016-02-28T08:40:44.000Z</time>
      </trkpt>
      <trkpt lat="47.49179" lon="6.77159">
        <ele>313</ele>
        <time>2016-02-28T08:40:45.000Z</time>
      </trkpt>
      <trkpt lat="47.4918" lon="6.77165">
        <ele>313</ele>
        <time>2016-02-28T08:40:46.000Z</time>
      </trkpt>
      <trkpt lat="47.49181" lon="6.77171">
        <ele>313</ele>
        <time>2016-02-28T08:40:47.000Z</time>
      </trkpt>
      <trkpt lat="47.49181" lon="6.77177">
        <ele>313</ele>
        <time>2016-02-28T08:40:48.000Z</time>
      </trkpt>
      <trkpt lat="47.49181" lon="6.77184">
        <ele>313</ele>
        <time>2016-02-28T08:40:49.000Z</time>
      </trkpt>
      <trkpt lat="47.49182" lon="6.7719">
        <ele>313</ele>
        <time>2016-02-28T08:40:50.000Z</time>
      </trkpt>
      <trkpt lat="47.49182" lon="6.77196">
        <ele>312</ele>
        <time>2016-02-28T08:40:51.000Z</time>
      </trkpt>
      <trkpt lat="47.49182" lon="6.77202">
        <ele>312</ele>
        <time>2016-02-28T08:40:52.000Z</time>
      </trkpt>
      <trkpt lat="47.49183" lon="6.77208">
        <ele>312</ele>
        <time>2016-02-28T08:40:53.000Z</time>
      </trkpt>
      <trkpt lat="47.49183" lon="6.77213">
        <ele>312</ele>
        <time>2016-02-28T08:40:54.000Z</time>
      </trkpt>
      <trkpt lat="47.49182" lon="6.77218">
        <ele>312</ele>
        <time>2016-02-28T08:40:55.000Z</time>
      </trkpt>
      <trkpt lat="47.49181" lon="6.77224">
        <ele>312</ele>
        <time>2016-02-28T08:40:56.000Z</time>
      </trkpt>
      <trkpt lat="47.4918" lon="6.77229">
        <ele>312</ele>
        <time>2016-02-28T08:40:57.000Z</time>
      </trkpt>
      <trkpt lat="47.4918" lon="6.77234">
        <ele>312</ele>
        <time>2016-02-28T08:40:58.000Z</time>
      </trkpt>
      <trkpt lat="47.49179" lon="6.77238">
        <ele>312</ele>
        <time>2016-02-28T08:40:59.000Z</time>
      </trkpt>
      <trkpt lat="47.4918" lon="6.77242">
        <ele>312</ele>
        <time>2016-02-28T08:41:00.000Z</time>
      </trkpt>
      <trkpt lat="47.49181" lon="6.77246">
        <ele>312</ele>
        <time>2016-02-28T08:41:01.000Z</time>
      </trkpt>
      <trkpt lat="47.49182" lon="6.7725">
        <ele>311</ele>
        <time>2016-02-28T08:41:02.000Z</time>
      </trkpt>
      <trkpt lat="47.49183" lon="6.77255">
        <ele>311</ele>
        <time>2016-02-28T08:41:03.000Z</time>
      </trkpt>
      <trkpt lat="47.49182" lon="6.77264">
        <ele>311</ele>
        <time>2016-02-28T08:41:04.000Z</time>
      </trkpt>
      <trkpt lat="47.49182" lon="6.77271">
        <ele>311</ele>
        <time>2016-02-28T08:41:05.000Z</time>
      </trkpt>
      <trkpt lat="47.49182" lon="6.77278">
        <ele>311</ele>
        <time>2016-02-28T08:41:06.000Z</time>
      </trkpt>
      <trkpt lat="47.49181" lon="6.77286">
        <ele>311</ele>
        <time>2016-02-28T08:41:07.000Z</time>
      </trkpt>
      <trkpt lat="47.49181" lon="6.77294">
        <ele>311</ele>
        <time>2016-02-28T08:41:08.000Z</time>
      </trkpt>
      <trkpt lat="47.49181" lon="6.77302">
        <ele>311</ele>
        <time>2016-02-28T08:41:09.000Z</time>
      </trkpt>
      <trkpt lat="47.49181" lon="6.77309">
        <ele>311</ele>
        <time>2016-02-28T08:41:10.000Z</time>
      </trkpt>
      <trkpt lat="47.49181" lon="6.77316">
        <ele>310</ele>
        <time>2016-02-28T08:41:11.000Z</time>
      </trkpt>
      <trkpt lat="47.49179" lon="6.77321">
        <ele>310</ele>
        <time>2016-02-28T08:41:12.000Z</time>
      </trkpt>
      <trkpt lat="47.49177" lon="6.77328">
        <ele>310</ele>
        <time>2016-02-28T08:41:13.000Z</time>
      </trkpt>
      <trkpt lat="47.49175" lon="6.77332">
        <ele>310</ele>
        <time>2016-02-28T08:41:14.000Z</time>
      </trkpt>
      <trkpt lat="47.49173" lon="6.77331">
        <ele>310</ele>
        <time>2016-02-28T08:41:15.000Z</time>
      </trkpt>
      <trkpt lat="47.49169" lon="6.77331">
        <ele>310</ele>
        <time>2016-02-28T08:41:17.000Z</time>
      </trkpt>
      <trkpt lat="47.49165" lon="6.7733">
        <ele>310</ele>
        <time>2016-02-28T08:41:18.000Z</time>
      </trkpt>
      <trkpt lat="47.49161" lon="6.77329">
        <ele>310</ele>
        <time>2016-02-28T08:41:19.000Z</time>
      </trkpt>
      <trkpt lat="47.49158" lon="6.77329">
        <ele>310</ele>
        <time>2016-02-28T08:41:20.000Z</time>
      </trkpt>
      <trkpt lat="47.49155" lon="6.77329">
        <ele>311</ele>
        <time>2016-02-28T08:41:21.000Z</time>
      </trkpt>
      <trkpt lat="47.49152" lon="6.77328">
        <ele>311</ele>
        <time>2016-02-28T08:41:22.000Z</time>
      </trkpt>
      <trkpt lat="47.49148" lon="6.77328">
        <ele>311</ele>
        <time>2016-02-28T08:41:23.000Z</time>
      </trkpt>
      <trkpt lat="47.49144" lon="6.77327">
        <ele>311</ele>
        <time>2016-02-28T08:41:24.000Z</time>
      </trkpt>
      <trkpt lat="47.49141" lon="6.77327">
        <ele>311</ele>
        <time>2016-02-28T08:41:25.000Z</time>
      </trkpt>
      <trkpt lat="47.49137" lon="6.77327">
        <ele>311</ele>
        <time>2016-02-28T08:41:26.000Z</time>
      </trkpt>
      <trkpt lat="47.49133" lon="6.77326">
        <ele>311</ele>
        <time>2016-02-28T08:41:27.000Z</time>
      </trkpt>
      <trkpt lat="47.49129" lon="6.77326">
        <ele>311</ele>
        <time>2016-02-28T08:41:28.000Z</time>
      </trkpt>
      <trkpt lat="47.49124" lon="6.77324">
        <ele>311</ele>
        <time>2016-02-28T08:41:29.000Z</time>
      </trkpt>
      <trkpt lat="47.4912" lon="6.77323">
        <ele>311</ele>
        <time>2016-02-28T08:41:30.000Z</time>
      </trkpt>
      <trkpt lat="47.49116" lon="6.77322">
        <ele>311</ele>
        <time>2016-02-28T08:41:31.000Z</time>
      </trkpt>
      <trkpt lat="47.49112" lon="6.77322">
        <ele>311</ele>
        <time>2016-02-28T08:41:32.000Z</time>
      </trkpt>
      <trkpt lat="47.49107" lon="6.77322">
        <ele>311</ele>
        <time>2016-02-28T08:41:33.000Z</time>
      </trkpt>
      <trkpt lat="47.49103" lon="6.77321">
        <ele>311</ele>
        <time>2016-02-28T08:41:34.000Z</time>
      </trkpt>
      <trkpt lat="47.49099" lon="6.7732">
        <ele>311</ele>
        <time>2016-02-28T08:41:35.000Z</time>
      </trkpt>
      <trkpt lat="47.49094" lon="6.77319">
        <ele>311</ele>
        <time>2016-02-28T08:41:36.000Z</time>
      </trkpt>
      <trkpt lat="47.49089" lon="6.77318">
        <ele>311</ele>
        <time>2016-02-28T08:41:37.000Z</time>
      </trkpt>
      <trkpt lat="47.49085" lon="6.77319">
        <ele>311</ele>
        <time>2016-02-28T08:41:38.000Z</time>
      </trkpt>
      <trkpt lat="47.4908" lon="6.77318">
        <ele>311</ele>
        <time>2016-02-28T08:41:39.000Z</time>
      </trkpt>
      <trkpt lat="47.49075" lon="6.77318">
        <ele>311</ele>
        <time>2016-02-28T08:41:40.000Z</time>
      </trkpt>
      <trkpt lat="47.4907" lon="6.77317">
        <ele>311</ele>
        <time>2016-02-28T08:41:41.000Z</time>
      </trkpt>
      <trkpt lat="47.49065" lon="6.77317">
        <ele>311</ele>
        <time>2016-02-28T08:41:42.000Z</time>
      </trkpt>
      <trkpt lat="47.4906" lon="6.77317">
        <ele>311</ele>
        <time>2016-02-28T08:41:43.000Z</time>
      </trkpt>
      <trkpt lat="47.49055" lon="6.77316">
        <ele>311</ele>
        <time>2016-02-28T08:41:44.000Z</time>
      </trkpt>
      <trkpt lat="47.4905" lon="6.77315">
        <ele>311</ele>
        <time>2016-02-28T08:41:45.000Z</time>
      </trkpt>
      <trkpt lat="47.49045" lon="6.77315">
        <ele>311</ele>
        <time>2016-02-28T08:41:46.000Z</time>
      </trkpt>
      <trkpt lat="47.49041" lon="6.77314">
        <ele>311</ele>
        <time>2016-02-28T08:41:47.000Z</time>
      </trkpt>
      <trkpt lat="47.49037" lon="6.77313">
        <ele>311</ele>
        <time>2016-02-28T08:41:48.000Z</time>
      </trkpt>
      <trkpt lat="47.49032" lon="6.77312">
        <ele>311</ele>
        <time>2016-02-28T08:41:49.000Z</time>
      </trkpt>
      <trkpt lat="47.49028" lon="6.77312">
        <ele>311</ele>
        <time>2016-02-28T08:41:50.000Z</time>
      </trkpt>
      <trkpt lat="47.49023" lon="6.77312">
        <ele>311</ele>
        <time>2016-02-28T08:41:51.000Z</time>
      </trkpt>
      <trkpt lat="47.49019" lon="6.77312">
        <ele>311</ele>
        <time>2016-02-28T08:41:52.000Z</time>
      </trkpt>
      <trkpt lat="47.49013" lon="6.77311">
        <ele>311</ele>
        <time>2016-02-28T08:41:53.000Z</time>
      </trkpt>
      <trkpt lat="47.49009" lon="6.77311">
        <ele>311</ele>
        <time>2016-02-28T08:41:54.000Z</time>
      </trkpt>
      <trkpt lat="47.49003" lon="6.7731">
        <ele>311</ele>
        <time>2016-02-28T08:41:55.000Z</time>
      </trkpt>
      <trkpt lat="47.48999" lon="6.7731">
        <ele>311</ele>
        <time>2016-02-28T08:41:56.000Z</time>
      </trkpt>
      <trkpt lat="47.48994" lon="6.77309">
        <ele>311</ele>
        <time>2016-02-28T08:41:57.000Z</time>
      </trkpt>
      <trkpt lat="47.48988" lon="6.77309">
        <ele>311</ele>
        <time>2016-02-28T08:41:58.000Z</time>
      </trkpt>
      <trkpt lat="47.48983" lon="6.77309">
        <ele>311</ele>
        <time>2016-02-28T08:41:59.000Z</time>
      </trkpt>
      <trkpt lat="47.48978" lon="6.77308">
        <ele>311</ele>
        <time>2016-02-28T08:42:00.000Z</time>
      </trkpt>
      <trkpt lat="47.48973" lon="6.77308">
        <ele>311</ele>
        <time>2016-02-28T08:42:01.000Z</time>
      </trkpt>
      <trkpt lat="47.48967" lon="6.77307">
        <ele>311</ele>
        <time>2016-02-28T08:42:02.000Z</time>
      </trkpt>
      <trkpt lat="47.48962" lon="6.77305">
        <ele>311</ele>
        <time>2016-02-28T08:42:03.000Z</time>
      </trkpt>
      <trkpt lat="47.48957" lon="6.77305">
        <ele>311</ele>
        <time>2016-02-28T08:42:04.000Z</time>
      </trkpt>
      <trkpt lat="47.48952" lon="6.77305">
        <ele>311</ele>
        <time>2016-02-28T08:42:05.000Z</time>
      </trkpt>
      <trkpt lat="47.48947" lon="6.77303">
        <ele>311</ele>
        <time>2016-02-28T08:42:06.000Z</time>
      </trkpt>
      <trkpt lat="47.48941" lon="6.77302">
        <ele>311</ele>
        <time>2016-02-28T08:42:07.000Z</time>
      </trkpt>
      <trkpt lat="47.48937" lon="6.773">
        <ele>311</ele>
        <time>2016-02-28T08:42:08.000Z</time>
      </trkpt>
      <trkpt lat="47.48932" lon="6.77298">
        <ele>311</ele>
        <time>2016-02-28T08:42:09.000Z</time>
      </trkpt>
      <trkpt lat="47.48927" lon="6.77296">
        <ele>311</ele>
        <time>2016-02-28T08:42:10.000Z</time>
      </trkpt>
      <trkpt lat="47.48921" lon="6.77295">
        <ele>311</ele>
        <time>2016-02-28T08:42:11.000Z</time>
      </trkpt>
      <trkpt lat="47.48916" lon="6.77295">
        <ele>310</ele>
        <time>2016-02-28T08:42:12.000Z</time>
      </trkpt>
      <trkpt lat="47.48912" lon="6.77293">
        <ele>310</ele>
        <time>2016-02-28T08:42:13.000Z</time>
      </trkpt>
      <trkpt lat="47.48906" lon="6.77291">
        <ele>310</ele>
        <time>2016-02-28T08:42:14.000Z</time>
      </trkpt>
      <trkpt lat="47.48901" lon="6.77289">
        <ele>310</ele>
        <time>2016-02-28T08:42:15.000Z</time>
      </trkpt>
      <trkpt lat="47.48896" lon="6.77288">
        <ele>310</ele>
        <time>2016-02-28T08:42:16.000Z</time>
      </trkpt>
      <trkpt lat="47.4889" lon="6.77286">
        <ele>310</ele>
        <time>2016-02-28T08:42:17.000Z</time>
      </trkpt>
      <trkpt lat="47.48885" lon="6.77284">
        <ele>310</ele>
        <time>2016-02-28T08:42:18.000Z</time>
      </trkpt>
      <trkpt lat="47.4888" lon="6.77283">
        <ele>310</ele>
        <time>2016-02-28T08:42:19.000Z</time>
      </trkpt>
      <trkpt lat="47.48875" lon="6.77281">
        <ele>310</ele>
        <time>2016-02-28T08:42:20.000Z</time>
      </trkpt>
      <trkpt lat="47.4887" lon="6.77278">
        <ele>310</ele>
        <time>2016-02-28T08:42:21.000Z</time>
      </trkpt>
      <trkpt lat="47.48865" lon="6.77276">
        <ele>310</ele>
        <time>2016-02-28T08:42:22.000Z</time>
      </trkpt>
      <trkpt lat="47.4886" lon="6.77274">
        <ele>310</ele>
        <time>2016-02-28T08:42:23.000Z</time>
      </trkpt>
      <trkpt lat="47.48855" lon="6.77272">
        <ele>310</ele>
        <time>2016-02-28T08:42:24.000Z</time>
      </trkpt>
      <trkpt lat="47.48851" lon="6.77269">
        <ele>310</ele>
        <time>2016-02-28T08:42:25.000Z</time>
      </trkpt>
      <trkpt lat="47.48846" lon="6.77266">
        <ele>310</ele>
        <time>2016-02-28T08:42:26.000Z</time>
      </trkpt>
      <trkpt lat="47.48842" lon="6.77265">
        <ele>310</ele>
        <time>2016-02-28T08:42:27.000Z</time>
      </trkpt>
      <trkpt lat="47.48837" lon="6.77263">
        <ele>311</ele>
        <time>2016-02-28T08:42:28.000Z</time>
      </trkpt>
      <trkpt lat="47.48834" lon="6.7726">
        <ele>311</ele>
        <time>2016-02-28T08:42:29.000Z</time>
      </trkpt>
      <trkpt lat="47.48829" lon="6.77256">
        <ele>311</ele>
        <time>2016-02-28T08:42:30.000Z</time>
      </trkpt>
      <trkpt lat="47.48824" lon="6.77253">
        <ele>311</ele>
        <time>2016-02-28T08:42:31.000Z</time>
      </trkpt>
      <trkpt lat="47.48819" lon="6.77249">
        <ele>311</ele>
        <time>2016-02-28T08:42:32.000Z</time>
      </trkpt>
      <trkpt lat="47.48815" lon="6.77246">
        <ele>311</ele>
        <time>2016-02-28T08:42:33.000Z</time>
      </trkpt>
      <trkpt lat="47.48811" lon="6.77243">
        <ele>311</ele>
        <time>2016-02-28T08:42:34.000Z</time>
      </trkpt>
      <trkpt lat="47.48805" lon="6.77239">
        <ele>311</ele>
        <time>2016-02-28T08:42:35.000Z</time>
      </trkpt>
      <trkpt lat="47.48801" lon="6.77234">
        <ele>310</ele>
        <time>2016-02-28T08:42:36.000Z</time>
      </trkpt>
      <trkpt lat="47.48796" lon="6.77231">
        <ele>310</ele>
        <time>2016-02-28T08:42:37.000Z</time>
      </trkpt>
      <trkpt lat="47.48791" lon="6.77228">
        <ele>310</ele>
        <time>2016-02-28T08:42:38.000Z</time>
      </trkpt>
      <trkpt lat="47.48785" lon="6.77225">
        <ele>310</ele>
        <time>2016-02-28T08:42:39.000Z</time>
      </trkpt>
      <trkpt lat="47.48781" lon="6.77221">
        <ele>310</ele>
        <time>2016-02-28T08:42:40.000Z</time>
      </trkpt>
      <trkpt lat="47.48776" lon="6.77217">
        <ele>310</ele>
        <time>2016-02-28T08:42:41.000Z</time>
      </trkpt>
      <trkpt lat="47.4877" lon="6.77215">
        <ele>310</ele>
        <time>2016-02-28T08:42:42.000Z</time>
      </trkpt>
      <trkpt lat="47.48766" lon="6.77213">
        <ele>310</ele>
        <time>2016-02-28T08:42:43.000Z</time>
      </trkpt>
      <trkpt lat="47.48762" lon="6.7721">
        <ele>310</ele>
        <time>2016-02-28T08:42:44.000Z</time>
      </trkpt>
      <trkpt lat="47.48756" lon="6.77205">
        <ele>310</ele>
        <time>2016-02-28T08:42:45.000Z</time>
      </trkpt>
      <trkpt lat="47.48751" lon="6.77201">
        <ele>310</ele>
        <time>2016-02-28T08:42:46.000Z</time>
      </trkpt>
      <trkpt lat="47.48746" lon="6.77198">
        <ele>310</ele>
        <time>2016-02-28T08:42:47.000Z</time>
      </trkpt>
      <trkpt lat="47.48742" lon="6.77194">
        <ele>310</ele>
        <time>2016-02-28T08:42:48.000Z</time>
      </trkpt>
      <trkpt lat="47.48737" lon="6.77191">
        <ele>310</ele>
        <time>2016-02-28T08:42:49.000Z</time>
      </trkpt>
      <trkpt lat="47.48732" lon="6.77187">
        <ele>310</ele>
        <time>2016-02-28T08:42:50.000Z</time>
      </trkpt>
      <trkpt lat="47.48727" lon="6.77184">
        <ele>310</ele>
        <time>2016-02-28T08:42:51.000Z</time>
      </trkpt>
      <trkpt lat="47.48722" lon="6.7718">
        <ele>310</ele>
        <time>2016-02-28T08:42:52.000Z</time>
      </trkpt>
      <trkpt lat="47.48718" lon="6.77176">
        <ele>311</ele>
        <time>2016-02-28T08:42:53.000Z</time>
      </trkpt>
      <trkpt lat="47.48714" lon="6.77173">
        <ele>311</ele>
        <time>2016-02-28T08:42:54.000Z</time>
      </trkpt>
      <trkpt lat="47.48709" lon="6.7717">
        <ele>311</ele>
        <time>2016-02-28T08:42:55.000Z</time>
      </trkpt>
      <trkpt lat="47.48705" lon="6.77167">
        <ele>311</ele>
        <time>2016-02-28T08:42:56.000Z</time>
      </trkpt>
      <trkpt lat="47.487" lon="6.77162">
        <ele>311</ele>
        <time>2016-02-28T08:42:57.000Z</time>
      </trkpt>
      <trkpt lat="47.48696" lon="6.77158">
        <ele>311</ele>
        <time>2016-02-28T08:42:58.000Z</time>
      </trkpt>
      <trkpt lat="47.48691" lon="6.77154">
        <ele>311</ele>
        <time>2016-02-28T08:42:59.000Z</time>
      </trkpt>
      <trkpt lat="47.48687" lon="6.77149">
        <ele>311</ele>
        <time>2016-02-28T08:43:00.000Z</time>
      </trkpt>
      <trkpt lat="47.48682" lon="6.77145">
        <ele>311</ele>
        <time>2016-02-28T08:43:01.000Z</time>
      </trkpt>
      <trkpt lat="47.48678" lon="6.77141">
        <ele>311</ele>
        <time>2016-02-28T08:43:02.000Z</time>
      </trkpt>
      <trkpt lat="47.48673" lon="6.77137">
        <ele>312</ele>
        <time>2016-02-28T08:43:03.000Z</time>
      </trkpt>
      <trkpt lat="47.48669" lon="6.77131">
        <ele>312</ele>
        <time>2016-02-28T08:43:04.000Z</time>
      </trkpt>
      <trkpt lat="47.48665" lon="6.77126">
        <ele>312</ele>
        <time>2016-02-28T08:43:05.000Z</time>
      </trkpt>
      <trkpt lat="47.48661" lon="6.77121">
        <ele>312</ele>
        <time>2016-02-28T08:43:06.000Z</time>
      </trkpt>
      <trkpt lat="47.48657" lon="6.77117">
        <ele>312</ele>
        <time>2016-02-28T08:43:07.000Z</time>
      </trkpt>
      <trkpt lat="47.48652" lon="6.77112">
        <ele>312</ele>
        <time>2016-02-28T08:43:08.000Z</time>
      </trkpt>
      <trkpt lat="47.48649" lon="6.77106">
        <ele>312</ele>
        <time>2016-02-28T08:43:09.000Z</time>
      </trkpt>
      <trkpt lat="47.48644" lon="6.77102">
        <ele>312</ele>
        <time>2016-02-28T08:43:10.000Z</time>
      </trkpt>
      <trkpt lat="47.4864" lon="6.77098">
        <ele>312</ele>
        <time>2016-02-28T08:43:11.000Z</time>
      </trkpt>
      <trkpt lat="47.48636" lon="6.77094">
        <ele>312</ele>
        <time>2016-02-28T08:43:12.000Z</time>
      </trkpt>
      <trkpt lat="47.48632" lon="6.77091">
        <ele>312</ele>
        <time>2016-02-28T08:43:13.000Z</time>
      </trkpt>
      <trkpt lat="47.48629" lon="6.77088">
        <ele>312</ele>
        <time>2016-02-28T08:43:14.000Z</time>
      </trkpt>
      <trkpt lat="47.48625" lon="6.77086">
        <ele>312</ele>
        <time>2016-02-28T08:43:15.000Z</time>
      </trkpt>
      <trkpt lat="47.4862" lon="6.77082">
        <ele>313</ele>
        <time>2016-02-28T08:43:16.000Z</time>
      </trkpt>
      <trkpt lat="47.48616" lon="6.77079">
        <ele>313</ele>
        <time>2016-02-28T08:43:17.000Z</time>
      </trkpt>
      <trkpt lat="47.48611" lon="6.77076">
        <ele>313</ele>
        <time>2016-02-28T08:43:18.000Z</time>
      </trkpt>
      <trkpt lat="47.48606" lon="6.77071">
        <ele>313</ele>
        <time>2016-02-28T08:43:19.000Z</time>
      </trkpt>
      <trkpt lat="47.48601" lon="6.77067">
        <ele>313</ele>
        <time>2016-02-28T08:43:20.000Z</time>
      </trkpt>
      <trkpt lat="47.48596" lon="6.77064">
        <ele>313</ele>
        <time>2016-02-28T08:43:21.000Z</time>
      </trkpt>
      <trkpt lat="47.48591" lon="6.77061">
        <ele>313</ele>
        <time>2016-02-28T08:43:22.000Z</time>
      </trkpt>
      <trkpt lat="47.48586" lon="6.77059">
        <ele>313</ele>
        <time>2016-02-28T08:43:23.000Z</time>
      </trkpt>
      <trkpt lat="47.48581" lon="6.77057">
        <ele>314</ele>
        <time>2016-02-28T08:43:24.000Z</time>
      </trkpt>
      <trkpt lat="47.48577" lon="6.77054">
        <ele>314</ele>
        <time>2016-02-28T08:43:25.000Z</time>
      </trkpt>
      <trkpt lat="47.48572" lon="6.77051">
        <ele>314</ele>
        <time>2016-02-28T08:43:26.000Z</time>
      </trkpt>
      <trkpt lat="47.48568" lon="6.77049">
        <ele>314</ele>
        <time>2016-02-28T08:43:27.000Z</time>
      </trkpt>
      <trkpt lat="47.48564" lon="6.77048">
        <ele>314</ele>
        <time>2016-02-28T08:43:28.000Z</time>
      </trkpt>
      <trkpt lat="47.48558" lon="6.77046">
        <ele>314</ele>
        <time>2016-02-28T08:43:29.000Z</time>
      </trkpt>
      <trkpt lat="47.48552" lon="6.77044">
        <ele>314</ele>
        <time>2016-02-28T08:43:30.000Z</time>
      </trkpt>
      <trkpt lat="47.48545" lon="6.77039">
        <ele>314</ele>
        <time>2016-02-28T08:43:31.000Z</time>
      </trkpt>
      <trkpt lat="47.48539" lon="6.77035">
        <ele>314</ele>
        <time>2016-02-28T08:43:32.000Z</time>
      </trkpt>
      <trkpt lat="47.48533" lon="6.77029">
        <ele>314</ele>
        <time>2016-02-28T08:43:33.000Z</time>
      </trkpt>
      <trkpt lat="47.48526" lon="6.77024">
        <ele>314</ele>
        <time>2016-02-28T08:43:34.000Z</time>
      </trkpt>
      <trkpt lat="47.48521" lon="6.77019">
        <ele>315</ele>
        <time>2016-02-28T08:43:35.000Z</time>
      </trkpt>
      <trkpt lat="47.48516" lon="6.77015">
        <ele>315</ele>
        <time>2016-02-28T08:43:36.000Z</time>
      </trkpt>
      <trkpt lat="47.4851" lon="6.77011">
        <ele>315</ele>
        <time>2016-02-28T08:43:37.000Z</time>
      </trkpt>
      <trkpt lat="47.48505" lon="6.77007">
        <ele>315</ele>
        <time>2016-02-28T08:43:38.000Z</time>
      </trkpt>
      <trkpt lat="47.48499" lon="6.77003">
        <ele>316</ele>
        <time>2016-02-28T08:43:39.000Z</time>
      </trkpt>
      <trkpt lat="47.48494" lon="6.77">
        <ele>316</ele>
        <time>2016-02-28T08:43:40.000Z</time>
      </trkpt>
      <trkpt lat="47.48489" lon="6.76996">
        <ele>316</ele>
        <time>2016-02-28T08:43:41.000Z</time>
      </trkpt>
      <trkpt lat="47.48483" lon="6.76992">
        <ele>315</ele>
        <time>2016-02-28T08:43:42.000Z</time>
      </trkpt>
      <trkpt lat="47.48478" lon="6.76989">
        <ele>315</ele>
        <time>2016-02-28T08:43:43.000Z</time>
      </trkpt>
      <trkpt lat="47.48473" lon="6.76986">
        <ele>315</ele>
        <time>2016-02-28T08:43:44.000Z</time>
      </trkpt>
      <trkpt lat="47.48467" lon="6.76982">
        <ele>315</ele>
        <time>2016-02-28T08:43:45.000Z</time>
      </trkpt>
      <trkpt lat="47.48462" lon="6.76979">
        <ele>315</ele>
        <time>2016-02-28T08:43:46.000Z</time>
      </trkpt>
      <trkpt lat="47.48456" lon="6.76975">
        <ele>315</ele>
        <time>2016-02-28T08:43:47.000Z</time>
      </trkpt>
      <trkpt lat="47.48451" lon="6.76971">
        <ele>315</ele>
        <time>2016-02-28T08:43:48.000Z</time>
      </trkpt>
      <trkpt lat="47.48445" lon="6.76967">
        <ele>315</ele>
        <time>2016-02-28T08:43:49.000Z</time>
      </trkpt>
      <trkpt lat="47.48441" lon="6.76963">
        <ele>315</ele>
        <time>2016-02-28T08:43:50.000Z</time>
      </trkpt>
      <trkpt lat="47.48435" lon="6.7696">
        <ele>314</ele>
        <time>2016-02-28T08:43:51.000Z</time>
      </trkpt>
      <trkpt lat="47.48429" lon="6.76958">
        <ele>314</ele>
        <time>2016-02-28T08:43:52.000Z</time>
      </trkpt>
      <trkpt lat="47.48424" lon="6.76955">
        <ele>314</ele>
        <time>2016-02-28T08:43:53.000Z</time>
      </trkpt>
      <trkpt lat="47.48417" lon="6.76953">
        <ele>314</ele>
        <time>2016-02-28T08:43:54.000Z</time>
      </trkpt>
      <trkpt lat="47.4841" lon="6.7695">
        <ele>312</ele>
        <time>2016-02-28T08:43:55.000Z</time>
      </trkpt>
      <trkpt lat="47.48404" lon="6.76948">
        <ele>312</ele>
        <time>2016-02-28T08:43:56.000Z</time>
      </trkpt>
      <trkpt lat="47.48399" lon="6.76945">
        <ele>312</ele>
        <time>2016-02-28T08:43:57.000Z</time>
      </trkpt>
      <trkpt lat="47.48393" lon="6.76942">
        <ele>312</ele>
        <time>2016-02-28T08:43:58.000Z</time>
      </trkpt>
      <trkpt lat="47.48387" lon="6.76938">
        <ele>312</ele>
        <time>2016-02-28T08:43:59.000Z</time>
      </trkpt>
      <trkpt lat="47.48381" lon="6.76935">
        <ele>312</ele>
        <time>2016-02-28T08:44:00.000Z</time>
      </trkpt>
      <trkpt lat="47.48376" lon="6.76932">
        <ele>312</ele>
        <time>2016-02-28T08:44:01.000Z</time>
      </trkpt>
      <trkpt lat="47.48371" lon="6.76928">
        <ele>312</ele>
        <time>2016-02-28T08:44:02.000Z</time>
      </trkpt>
      <trkpt lat="47.48365" lon="6.76925">
        <ele>311</ele>
        <time>2016-02-28T08:44:03.000Z</time>
      </trkpt>
      <trkpt lat="47.4836" lon="6.76922">
        <ele>311</ele>
        <time>2016-02-28T08:44:04.000Z</time>
      </trkpt>
      <trkpt lat="47.48354" lon="6.76918">
        <ele>311</ele>
        <time>2016-02-28T08:44:05.000Z</time>
      </trkpt>
      <trkpt lat="47.48349" lon="6.76913">
        <ele>310</ele>
        <time>2016-02-28T08:44:06.000Z</time>
      </trkpt>
      <trkpt lat="47.48343" lon="6.76909">
        <ele>310</ele>
        <time>2016-02-28T08:44:07.000Z</time>
      </trkpt>
      <trkpt lat="47.48337" lon="6.76906">
        <ele>310</ele>
        <time>2016-02-28T08:44:08.000Z</time>
      </trkpt>
      <trkpt lat="47.48331" lon="6.76902">
        <ele>310</ele>
        <time>2016-02-28T08:44:09.000Z</time>
      </trkpt>
      <trkpt lat="47.48327" lon="6.76896">
        <ele>310</ele>
        <time>2016-02-28T08:44:10.000Z</time>
      </trkpt>
      <trkpt lat="47.48321" lon="6.76892">
        <ele>310</ele>
        <time>2016-02-28T08:44:11.000Z</time>
      </trkpt>
      <trkpt lat="47.48316" lon="6.76888">
        <ele>310</ele>
        <time>2016-02-28T08:44:12.000Z</time>
      </trkpt>
      <trkpt lat="47.48311" lon="6.76884">
        <ele>310</ele>
        <time>2016-02-28T08:44:13.000Z</time>
      </trkpt>
      <trkpt lat="47.48305" lon="6.76879">
        <ele>310</ele>
        <time>2016-02-28T08:44:14.000Z</time>
      </trkpt>
      <trkpt lat="47.48299" lon="6.76876">
        <ele>310</ele>
        <time>2016-02-28T08:44:15.000Z</time>
      </trkpt>
      <trkpt lat="47.48295" lon="6.76871">
        <ele>310</ele>
        <time>2016-02-28T08:44:16.000Z</time>
      </trkpt>
      <trkpt lat="47.4829" lon="6.76866">
        <ele>310</ele>
        <time>2016-02-28T08:44:17.000Z</time>
      </trkpt>
      <trkpt lat="47.48285" lon="6.76862">
        <ele>310</ele>
        <time>2016-02-28T08:44:18.000Z</time>
      </trkpt>
      <trkpt lat="47.48281" lon="6.76857">
        <ele>310</ele>
        <time>2016-02-28T08:44:19.000Z</time>
      </trkpt>
      <trkpt lat="47.48277" lon="6.76852">
        <ele>310</ele>
        <time>2016-02-28T08:44:20.000Z</time>
      </trkpt>
      <trkpt lat="47.48273" lon="6.76845">
        <ele>311</ele>
        <time>2016-02-28T08:44:21.000Z</time>
      </trkpt>
      <trkpt lat="47.4827" lon="6.76839">
        <ele>311</ele>
        <time>2016-02-28T08:44:22.000Z</time>
      </trkpt>
      <trkpt lat="47.48265" lon="6.76834">
        <ele>311</ele>
        <time>2016-02-28T08:44:23.000Z</time>
      </trkpt>
      <trkpt lat="47.48261" lon="6.76828">
        <ele>312</ele>
        <time>2016-02-28T08:44:24.000Z</time>
      </trkpt>
      <trkpt lat="47.48257" lon="6.76822">
        <ele>312</ele>
        <time>2016-02-28T08:44:25.000Z</time>
      </trkpt>
      <trkpt lat="47.48253" lon="6.76816">
        <ele>312</ele>
        <time>2016-02-28T08:44:26.000Z</time>
      </trkpt>
      <trkpt lat="47.48249" lon="6.76811">
        <ele>312</ele>
        <time>2016-02-28T08:44:27.000Z</time>
      </trkpt>
      <trkpt lat="47.48245" lon="6.76807">
        <ele>312</ele>
        <time>2016-02-28T08:44:28.000Z</time>
      </trkpt>
      <trkpt lat="47.4824" lon="6.76803">
        <ele>312</ele>
        <time>2016-02-28T08:44:29.000Z</time>
      </trkpt>
      <trkpt lat="47.48235" lon="6.76799">
        <ele>312</ele>
        <time>2016-02-28T08:44:30.000Z</time>
      </trkpt>
      <trkpt lat="47.48229" lon="6.76795">
        <ele>312</ele>
        <time>2016-02-28T08:44:31.000Z</time>
      </trkpt>
      <trkpt lat="47.48224" lon="6.76793">
        <ele>312</ele>
        <time>2016-02-28T08:44:32.000Z</time>
      </trkpt>
      <trkpt lat="47.48218" lon="6.7679">
        <ele>312</ele>
        <time>2016-02-28T08:44:33.000Z</time>
      </trkpt>
      <trkpt lat="47.48213" lon="6.76788">
        <ele>312</ele>
        <time>2016-02-28T08:44:34.000Z</time>
      </trkpt>
      <trkpt lat="47.48207" lon="6.76785">
        <ele>312</ele>
        <time>2016-02-28T08:44:35.000Z</time>
      </trkpt>
      <trkpt lat="47.48201" lon="6.76782">
        <ele>312</ele>
        <time>2016-02-28T08:44:36.000Z</time>
      </trkpt>
      <trkpt lat="47.48195" lon="6.76779">
        <ele>312</ele>
        <time>2016-02-28T08:44:37.000Z</time>
      </trkpt>
      <trkpt lat="47.4819" lon="6.76775">
        <ele>312</ele>
        <time>2016-02-28T08:44:38.000Z</time>
      </trkpt>
      <trkpt lat="47.48185" lon="6.76771">
        <ele>312</ele>
        <time>2016-02-28T08:44:39.000Z</time>
      </trkpt>
      <trkpt lat="47.4818" lon="6.76767">
        <ele>312</ele>
        <time>2016-02-28T08:44:40.000Z</time>
      </trkpt>
      <trkpt lat="47.48176" lon="6.76762">
        <ele>313</ele>
        <time>2016-02-28T08:44:41.000Z</time>
      </trkpt>
      <trkpt lat="47.48171" lon="6.76757">
        <ele>313</ele>
        <time>2016-02-28T08:44:42.000Z</time>
      </trkpt>
      <trkpt lat="47.48167" lon="6.76752">
        <ele>313</ele>
        <time>2016-02-28T08:44:43.000Z</time>
      </trkpt>
      <trkpt lat="47.48163" lon="6.76746">
        <ele>313</ele>
        <time>2016-02-28T08:44:44.000Z</time>
      </trkpt>
      <trkpt lat="47.48159" lon="6.7674">
        <ele>313</ele>
        <time>2016-02-28T08:44:45.000Z</time>
      </trkpt>
      <trkpt lat="47.48155" lon="6.76733">
        <ele>312</ele>
        <time>2016-02-28T08:44:46.000Z</time>
      </trkpt>
      <trkpt lat="47.48152" lon="6.76726">
        <ele>312</ele>
        <time>2016-02-28T08:44:47.000Z</time>
      </trkpt>
      <trkpt lat="47.48149" lon="6.76719">
        <ele>312</ele>
        <time>2016-02-28T08:44:48.000Z</time>
      </trkpt>
      <trkpt lat="47.48145" lon="6.76712">
        <ele>312</ele>
        <time>2016-02-28T08:44:49.000Z</time>
      </trkpt>
      <trkpt lat="47.48142" lon="6.76704">
        <ele>312</ele>
        <time>2016-02-28T08:44:50.000Z</time>
      </trkpt>
      <trkpt lat="47.48139" lon="6.76697">
        <ele>312</ele>
        <time>2016-02-28T08:44:51.000Z</time>
      </trkpt>
      <trkpt lat="47.48135" lon="6.76689">
        <ele>312</ele>
        <time>2016-02-28T08:44:52.000Z</time>
      </trkpt>
      <trkpt lat="47.48132" lon="6.76682">
        <ele>312</ele>
        <time>2016-02-28T08:44:53.000Z</time>
      </trkpt>
      <trkpt lat="47.48129" lon="6.76677">
        <ele>312</ele>
        <time>2016-02-28T08:44:54.000Z</time>
      </trkpt>
      <trkpt lat="47.48125" lon="6.76672">
        <ele>312</ele>
        <time>2016-02-28T08:44:55.000Z</time>
      </trkpt>
      <trkpt lat="47.48121" lon="6.76666">
        <ele>313</ele>
        <time>2016-02-28T08:44:56.000Z</time>
      </trkpt>
      <trkpt lat="47.48117" lon="6.76661">
        <ele>312</ele>
        <time>2016-02-28T08:44:57.000Z</time>
      </trkpt>
      <trkpt lat="47.48112" lon="6.76657">
        <ele>312</ele>
        <time>2016-02-28T08:44:58.000Z</time>
      </trkpt>
      <trkpt lat="47.48109" lon="6.76651">
        <ele>312</ele>
        <time>2016-02-28T08:44:59.000Z</time>
      </trkpt>
      <trkpt lat="47.48107" lon="6.76646">
        <ele>312</ele>
        <time>2016-02-28T08:45:00.000Z</time>
      </trkpt>
      <trkpt lat="47.48105" lon="6.7664">
        <ele>313</ele>
        <time>2016-02-28T08:45:01.000Z</time>
      </trkpt>
      <trkpt lat="47.48101" lon="6.76633">
        <ele>313</ele>
        <time>2016-02-28T08:45:02.000Z</time>
      </trkpt>
      <trkpt lat="47.48098" lon="6.76626">
        <ele>313</ele>
        <time>2016-02-28T08:45:03.000Z</time>
      </trkpt>
      <trkpt lat="47.48097" lon="6.76619">
        <ele>313</ele>
        <time>2016-02-28T08:45:04.000Z</time>
      </trkpt>
      <trkpt lat="47.48098" lon="6.76612">
        <ele>313</ele>
        <time>2016-02-28T08:45:05.000Z</time>
      </trkpt>
      <trkpt lat="47.481" lon="6.76605">
        <ele>313</ele>
        <time>2016-02-28T08:45:06.000Z</time>
      </trkpt>
      <trkpt lat="47.48101" lon="6.76597">
        <ele>313</ele>
        <time>2016-02-28T08:45:07.000Z</time>
      </trkpt>
      <trkpt lat="47.48104" lon="6.76589">
        <ele>313</ele>
        <time>2016-02-28T08:45:08.000Z</time>
      </trkpt>
      <trkpt lat="47.48107" lon="6.76582">
        <ele>316</ele>
        <time>2016-02-28T08:45:09.000Z</time>
      </trkpt>
      <trkpt lat="47.4811" lon="6.76577">
        <ele>317</ele>
        <time>2016-02-28T08:45:10.000Z</time>
      </trkpt>
      <trkpt lat="47.48114" lon="6.76571">
        <ele>318</ele>
        <time>2016-02-28T08:45:11.000Z</time>
      </trkpt>
      <trkpt lat="47.48117" lon="6.76566">
        <ele>318</ele>
        <time>2016-02-28T08:45:12.000Z</time>
      </trkpt>
      <trkpt lat="47.48121" lon="6.76561">
        <ele>319</ele>
        <time>2016-02-28T08:45:13.000Z</time>
      </trkpt>
      <trkpt lat="47.48123" lon="6.76556">
        <ele>319</ele>
        <time>2016-02-28T08:45:14.000Z</time>
      </trkpt>
      <trkpt lat="47.48124" lon="6.76553">
        <ele>319</ele>
        <time>2016-02-28T08:45:15.000Z</time>
      </trkpt>
      <trkpt lat="47.48122" lon="6.76547">
        <ele>319</ele>
        <time>2016-02-28T08:45:16.000Z</time>
      </trkpt>
      <trkpt lat="47.4812" lon="6.76544">
        <ele>319</ele>
        <time>2016-02-28T08:45:17.000Z</time>
      </trkpt>
      <trkpt lat="47.48119" lon="6.76539">
        <ele>320</ele>
        <time>2016-02-28T08:45:18.000Z</time>
      </trkpt>
      <trkpt lat="47.48118" lon="6.76535">
        <ele>320</ele>
        <time>2016-02-28T08:45:19.000Z</time>
      </trkpt>
      <trkpt lat="47.48115" lon="6.76529">
        <ele>320</ele>
        <time>2016-02-28T08:45:20.000Z</time>
      </trkpt>
      <trkpt lat="47.48113" lon="6.76524">
        <ele>319</ele>
        <time>2016-02-28T08:45:21.000Z</time>
      </trkpt>
      <trkpt lat="47.48111" lon="6.7652">
        <ele>319</ele>
        <time>2016-02-28T08:45:22.000Z</time>
      </trkpt>
      <trkpt lat="47.4811" lon="6.76516">
        <ele>319</ele>
        <time>2016-02-28T08:45:23.000Z</time>
      </trkpt>
      <trkpt lat="47.48108" lon="6.76513">
        <ele>319</ele>
        <time>2016-02-28T08:45:24.000Z</time>
      </trkpt>
      <trkpt lat="47.48106" lon="6.76514">
        <ele>318</ele>
        <time>2016-02-28T08:45:25.000Z</time>
      </trkpt>
      <trkpt lat="47.48103" lon="6.76516">
        <ele>318</ele>
        <time>2016-02-28T08:45:26.000Z</time>
      </trkpt>
      <trkpt lat="47.48099" lon="6.7652">
        <ele>318</ele>
        <time>2016-02-28T08:45:27.000Z</time>
      </trkpt>
      <trkpt lat="47.48092" lon="6.7653">
        <ele>318</ele>
        <time>2016-02-28T08:45:28.000Z</time>
      </trkpt>
      <trkpt lat="47.48087" lon="6.76533">
        <ele>317</ele>
        <time>2016-02-28T08:45:29.000Z</time>
      </trkpt>
      <trkpt lat="47.48083" lon="6.76537">
        <ele>312</ele>
        <time>2016-02-28T08:45:30.000Z</time>
      </trkpt>
      <trkpt lat="47.48079" lon="6.76541">
        <ele>312</ele>
        <time>2016-02-28T08:45:31.000Z</time>
      </trkpt>
      <trkpt lat="47.48075" lon="6.76545">
        <ele>312</ele>
        <time>2016-02-28T08:45:32.000Z</time>
      </trkpt>
      <trkpt lat="47.4807" lon="6.76548">
        <ele>312</ele>
        <time>2016-02-28T08:45:33.000Z</time>
      </trkpt>
      <trkpt lat="47.48066" lon="6.76551">
        <ele>312</ele>
        <time>2016-02-28T08:45:34.000Z</time>
      </trkpt>
      <trkpt lat="47.48062" lon="6.76556">
        <ele>312</ele>
        <time>2016-02-28T08:45:35.000Z</time>
      </trkpt>
      <trkpt lat="47.48058" lon="6.7656">
        <ele>312</ele>
        <time>2016-02-28T08:45:36.000Z</time>
      </trkpt>
      <trkpt lat="47.48054" lon="6.76564">
        <ele>312</ele>
        <time>2016-02-28T08:45:37.000Z</time>
      </trkpt>
      <trkpt lat="47.48048" lon="6.76567">
        <ele>312</ele>
        <time>2016-02-28T08:45:38.000Z</time>
      </trkpt>
      <trkpt lat="47.48044" lon="6.7657">
        <ele>312</ele>
        <time>2016-02-28T08:45:39.000Z</time>
      </trkpt>
      <trkpt lat="47.48039" lon="6.76574">
        <ele>312</ele>
        <time>2016-02-28T08:45:40.000Z</time>
      </trkpt>
      <trkpt lat="47.48034" lon="6.76577">
        <ele>312</ele>
        <time>2016-02-28T08:45:41.000Z</time>
      </trkpt>
      <trkpt lat="47.48029" lon="6.76579">
        <ele>312</ele>
        <time>2016-02-28T08:45:42.000Z</time>
      </trkpt>
      <trkpt lat="47.48024" lon="6.76581">
        <ele>312</ele>
        <time>2016-02-28T08:45:43.000Z</time>
      </trkpt>
      <trkpt lat="47.4802" lon="6.76584">
        <ele>312</ele>
        <time>2016-02-28T08:45:44.000Z</time>
      </trkpt>
      <trkpt lat="47.48015" lon="6.76587">
        <ele>312</ele>
        <time>2016-02-28T08:45:45.000Z</time>
      </trkpt>
      <trkpt lat="47.48011" lon="6.76589">
        <ele>312</ele>
        <time>2016-02-28T08:45:46.000Z</time>
      </trkpt>
      <trkpt lat="47.48007" lon="6.76592">
        <ele>312</ele>
        <time>2016-02-28T08:45:47.000Z</time>
      </trkpt>
      <trkpt lat="47.48002" lon="6.76594">
        <ele>312</ele>
        <time>2016-02-28T08:45:48.000Z</time>
      </trkpt>
      <trkpt lat="47.47998" lon="6.76597">
        <ele>312</ele>
        <time>2016-02-28T08:45:49.000Z</time>
      </trkpt>
      <trkpt lat="47.47993" lon="6.76599">
        <ele>312</ele>
        <time>2016-02-28T08:45:50.000Z</time>
      </trkpt>
      <trkpt lat="47.47989" lon="6.76601">
        <ele>312</ele>
        <time>2016-02-28T08:45:51.000Z</time>
      </trkpt>
      <trkpt lat="47.47985" lon="6.76604">
        <ele>312</ele>
        <time>2016-02-28T08:45:52.000Z</time>
      </trkpt>
      <trkpt lat="47.47982" lon="6.76606">
        <ele>311</ele>
        <time>2016-02-28T08:45:53.000Z</time>
      </trkpt>
      <trkpt lat="47.47978" lon="6.76608">
        <ele>311</ele>
        <time>2016-02-28T08:45:54.000Z</time>
      </trkpt>
      <trkpt lat="47.47975" lon="6.76611">
        <ele>311</ele>
        <time>2016-02-28T08:45:55.000Z</time>
      </trkpt>
      <trkpt lat="47.47971" lon="6.76613">
        <ele>311</ele>
        <time>2016-02-28T08:45:56.000Z</time>
      </trkpt>
      <trkpt lat="47.47968" lon="6.76615">
        <ele>311</ele>
        <time>2016-02-28T08:45:57.000Z</time>
      </trkpt>
      <trkpt lat="47.47965" lon="6.76618">
        <ele>311</ele>
        <time>2016-02-28T08:45:58.000Z</time>
      </trkpt>
      <trkpt lat="47.47961" lon="6.76619">
        <ele>311</ele>
        <time>2016-02-28T08:45:59.000Z</time>
      </trkpt>
      <trkpt lat="47.47957" lon="6.7662">
        <ele>311</ele>
        <time>2016-02-28T08:46:00.000Z</time>
      </trkpt>
      <trkpt lat="47.47953" lon="6.76619">
        <ele>311</ele>
        <time>2016-02-28T08:46:01.000Z</time>
      </trkpt>
      <trkpt lat="47.47951" lon="6.76607">
        <ele>311</ele>
        <time>2016-02-28T08:46:02.000Z</time>
      </trkpt>
      <trkpt lat="47.47949" lon="6.766">
        <ele>311</ele>
        <time>2016-02-28T08:46:03.000Z</time>
      </trkpt>
      <trkpt lat="47.47948" lon="6.76591">
        <ele>311</ele>
        <time>2016-02-28T08:46:04.000Z</time>
      </trkpt>
      <trkpt lat="47.47946" lon="6.76582">
        <ele>311</ele>
        <time>2016-02-28T08:46:05.000Z</time>
      </trkpt>
      <trkpt lat="47.47944" lon="6.76572">
        <ele>311</ele>
        <time>2016-02-28T08:46:06.000Z</time>
      </trkpt>
      <trkpt lat="47.47942" lon="6.76562">
        <ele>311</ele>
        <time>2016-02-28T08:46:07.000Z</time>
      </trkpt>
      <trkpt lat="47.4794" lon="6.76553">
        <ele>311</ele>
        <time>2016-02-28T08:46:08.000Z</time>
      </trkpt>
      <trkpt lat="47.47938" lon="6.76544">
        <ele>311</ele>
        <time>2016-02-28T08:46:09.000Z</time>
      </trkpt>
      <trkpt lat="47.47936" lon="6.76535">
        <ele>311</ele>
        <time>2016-02-28T08:46:10.000Z</time>
      </trkpt>
      <trkpt lat="47.47935" lon="6.76527">
        <ele>311</ele>
        <time>2016-02-28T08:46:11.000Z</time>
      </trkpt>
      <trkpt lat="47.47934" lon="6.76518">
        <ele>311</ele>
        <time>2016-02-28T08:46:12.000Z</time>
      </trkpt>
      <trkpt lat="47.47932" lon="6.76509">
        <ele>311</ele>
        <time>2016-02-28T08:46:13.000Z</time>
      </trkpt>
      <trkpt lat="47.47929" lon="6.76501">
        <ele>310</ele>
        <time>2016-02-28T08:46:14.000Z</time>
      </trkpt>
      <trkpt lat="47.47928" lon="6.76493">
        <ele>310</ele>
        <time>2016-02-28T08:46:15.000Z</time>
      </trkpt>
      <trkpt lat="47.47925" lon="6.76484">
        <ele>311</ele>
        <time>2016-02-28T08:46:16.000Z</time>
      </trkpt>
      <trkpt lat="47.47923" lon="6.76475">
        <ele>311</ele>
        <time>2016-02-28T08:46:17.000Z</time>
      </trkpt>
      <trkpt lat="47.47921" lon="6.76467">
        <ele>311</ele>
        <time>2016-02-28T08:46:18.000Z</time>
      </trkpt>
      <trkpt lat="47.47919" lon="6.76459">
        <ele>311</ele>
        <time>2016-02-28T08:46:19.000Z</time>
      </trkpt>
      <trkpt lat="47.47916" lon="6.76451">
        <ele>311</ele>
        <time>2016-02-28T08:46:20.000Z</time>
      </trkpt>
      <trkpt lat="47.47914" lon="6.76443">
        <ele>311</ele>
        <time>2016-02-28T08:46:21.000Z</time>
      </trkpt>
      <trkpt lat="47.47911" lon="6.76434">
        <ele>311</ele>
        <time>2016-02-28T08:46:22.000Z</time>
      </trkpt>
      <trkpt lat="47.47909" lon="6.76426">
        <ele>311</ele>
        <time>2016-02-28T08:46:23.000Z</time>
      </trkpt>
      <trkpt lat="47.47906" lon="6.76418">
        <ele>311</ele>
        <time>2016-02-28T08:46:24.000Z</time>
      </trkpt>
      <trkpt lat="47.47904" lon="6.7641">
        <ele>311</ele>
        <time>2016-02-28T08:46:25.000Z</time>
      </trkpt>
      <trkpt lat="47.47901" lon="6.76403">
        <ele>311</ele>
        <time>2016-02-28T08:46:26.000Z</time>
      </trkpt>
      <trkpt lat="47.47898" lon="6.76397">
        <ele>311</ele>
        <time>2016-02-28T08:46:27.000Z</time>
      </trkpt>
      <trkpt lat="47.47895" lon="6.7639">
        <ele>311</ele>
        <time>2016-02-28T08:46:28.000Z</time>
      </trkpt>
      <trkpt lat="47.47891" lon="6.76383">
        <ele>311</ele>
        <time>2016-02-28T08:46:29.000Z</time>
      </trkpt>
      <trkpt lat="47.47888" lon="6.76376">
        <ele>311</ele>
        <time>2016-02-28T08:46:30.000Z</time>
      </trkpt>
      <trkpt lat="47.47885" lon="6.76369">
        <ele>311</ele>
        <time>2016-02-28T08:46:31.000Z</time>
      </trkpt>
      <trkpt lat="47.47881" lon="6.76363">
        <ele>311</ele>
        <time>2016-02-28T08:46:32.000Z</time>
      </trkpt>
      <trkpt lat="47.47878" lon="6.76356">
        <ele>311</ele>
        <time>2016-02-28T08:46:33.000Z</time>
      </trkpt>
      <trkpt lat="47.47875" lon="6.76349">
        <ele>311</ele>
        <time>2016-02-28T08:46:34.000Z</time>
      </trkpt>
      <trkpt lat="47.47872" lon="6.76342">
        <ele>311</ele>
        <time>2016-02-28T08:46:35.000Z</time>
      </trkpt>
      <trkpt lat="47.47869" lon="6.76335">
        <ele>311</ele>
        <time>2016-02-28T08:46:36.000Z</time>
      </trkpt>
      <trkpt lat="47.47865" lon="6.76328">
        <ele>310</ele>
        <time>2016-02-28T08:46:37.000Z</time>
      </trkpt>
      <trkpt lat="47.47862" lon="6.76321">
        <ele>310</ele>
        <time>2016-02-28T08:46:38.000Z</time>
      </trkpt>
      <trkpt lat="47.47858" lon="6.76314">
        <ele>310</ele>
        <time>2016-02-28T08:46:39.000Z</time>
      </trkpt>
      <trkpt lat="47.47855" lon="6.76307">
        <ele>310</ele>
        <time>2016-02-28T08:46:40.000Z</time>
      </trkpt>
      <trkpt lat="47.47852" lon="6.76301">
        <ele>310</ele>
        <time>2016-02-28T08:46:41.000Z</time>
      </trkpt>
      <trkpt lat="47.47848" lon="6.76294">
        <ele>310</ele>
        <time>2016-02-28T08:46:42.000Z</time>
      </trkpt>
      <trkpt lat="47.47845" lon="6.76289">
        <ele>310</ele>
        <time>2016-02-28T08:46:43.000Z</time>
      </trkpt>
      <trkpt lat="47.47841" lon="6.76283">
        <ele>311</ele>
        <time>2016-02-28T08:46:44.000Z</time>
      </trkpt>
      <trkpt lat="47.47837" lon="6.76279">
        <ele>311</ele>
        <time>2016-02-28T08:46:45.000Z</time>
      </trkpt>
      <trkpt lat="47.47832" lon="6.76275">
        <ele>310</ele>
        <time>2016-02-28T08:46:46.000Z</time>
      </trkpt>
      <trkpt lat="47.47826" lon="6.76271">
        <ele>310</ele>
        <time>2016-02-28T08:46:47.000Z</time>
      </trkpt>
      <trkpt lat="47.47821" lon="6.76267">
        <ele>310</ele>
        <time>2016-02-28T08:46:48.000Z</time>
      </trkpt>
      <trkpt lat="47.47815" lon="6.76263">
        <ele>310</ele>
        <time>2016-02-28T08:46:49.000Z</time>
      </trkpt>
      <trkpt lat="47.47809" lon="6.76261">
        <ele>310</ele>
        <time>2016-02-28T08:46:50.000Z</time>
      </trkpt>
      <trkpt lat="47.47804" lon="6.76258">
        <ele>310</ele>
        <time>2016-02-28T08:46:51.000Z</time>
      </trkpt>
      <trkpt lat="47.47799" lon="6.76256">
        <ele>310</ele>
        <time>2016-02-28T08:46:52.000Z</time>
      </trkpt>
      <trkpt lat="47.47794" lon="6.76253">
        <ele>310</ele>
        <time>2016-02-28T08:46:53.000Z</time>
      </trkpt>
      <trkpt lat="47.47788" lon="6.7625">
        <ele>309</ele>
        <time>2016-02-28T08:46:54.000Z</time>
      </trkpt>
      <trkpt lat="47.47784" lon="6.76246">
        <ele>309</ele>
        <time>2016-02-28T08:46:55.000Z</time>
      </trkpt>
      <trkpt lat="47.4778" lon="6.7624">
        <ele>309</ele>
        <time>2016-02-28T08:46:56.000Z</time>
      </trkpt>
      <trkpt lat="47.47776" lon="6.76234">
        <ele>309</ele>
        <time>2016-02-28T08:46:57.000Z</time>
      </trkpt>
      <trkpt lat="47.47773" lon="6.76228">
        <ele>309</ele>
        <time>2016-02-28T08:46:58.000Z</time>
      </trkpt>
      <trkpt lat="47.47769" lon="6.76222">
        <ele>309</ele>
        <time>2016-02-28T08:46:59.000Z</time>
      </trkpt>
      <trkpt lat="47.47766" lon="6.76217">
        <ele>309</ele>
        <time>2016-02-28T08:47:00.000Z</time>
      </trkpt>
      <trkpt lat="47.47762" lon="6.76211">
        <ele>309</ele>
        <time>2016-02-28T08:47:01.000Z</time>
      </trkpt>
      <trkpt lat="47.47759" lon="6.76205">
        <ele>309</ele>
        <time>2016-02-28T08:47:02.000Z</time>
      </trkpt>
      <trkpt lat="47.47754" lon="6.76201">
        <ele>309</ele>
        <time>2016-02-28T08:47:03.000Z</time>
      </trkpt>
      <trkpt lat="47.47751" lon="6.76194">
        <ele>308</ele>
        <time>2016-02-28T08:47:04.000Z</time>
      </trkpt>
      <trkpt lat="47.47747" lon="6.76188">
        <ele>308</ele>
        <time>2016-02-28T08:47:05.000Z</time>
      </trkpt>
      <trkpt lat="47.47742" lon="6.76182">
        <ele>308</ele>
        <time>2016-02-28T08:47:06.000Z</time>
      </trkpt>
      <trkpt lat="47.47738" lon="6.76177">
        <ele>308</ele>
        <time>2016-02-28T08:47:07.000Z</time>
      </trkpt>
      <trkpt lat="47.47734" lon="6.7617">
        <ele>308</ele>
        <time>2016-02-28T08:47:08.000Z</time>
      </trkpt>
      <trkpt lat="47.4773" lon="6.76164">
        <ele>308</ele>
        <time>2016-02-28T08:47:09.000Z</time>
      </trkpt>
      <trkpt lat="47.47726" lon="6.76158">
        <ele>309</ele>
        <time>2016-02-28T08:47:10.000Z</time>
      </trkpt>
      <trkpt lat="47.47723" lon="6.76152">
        <ele>309</ele>
        <time>2016-02-28T08:47:11.000Z</time>
      </trkpt>
      <trkpt lat="47.47718" lon="6.76146">
        <ele>309</ele>
        <time>2016-02-28T08:47:12.000Z</time>
      </trkpt>
      <trkpt lat="47.47714" lon="6.7614">
        <ele>309</ele>
        <time>2016-02-28T08:47:13.000Z</time>
      </trkpt>
      <trkpt lat="47.4771" lon="6.76134">
        <ele>309</ele>
        <time>2016-02-28T08:47:14.000Z</time>
      </trkpt>
      <trkpt lat="47.47705" lon="6.76128">
        <ele>310</ele>
        <time>2016-02-28T08:47:15.000Z</time>
      </trkpt>
      <trkpt lat="47.47701" lon="6.76122">
        <ele>310</ele>
        <time>2016-02-28T08:47:16.000Z</time>
      </trkpt>
      <trkpt lat="47.47698" lon="6.76116">
        <ele>310</ele>
        <time>2016-02-28T08:47:17.000Z</time>
      </trkpt>
      <trkpt lat="47.47694" lon="6.76109">
        <ele>310</ele>
        <time>2016-02-28T08:47:18.000Z</time>
      </trkpt>
      <trkpt lat="47.4769" lon="6.76104">
        <ele>310</ele>
        <time>2016-02-28T08:47:19.000Z</time>
      </trkpt>
      <trkpt lat="47.47687" lon="6.76099">
        <ele>310</ele>
        <time>2016-02-28T08:47:20.000Z</time>
      </trkpt>
      <trkpt lat="47.47683" lon="6.76094">
        <ele>310</ele>
        <time>2016-02-28T08:47:21.000Z</time>
      </trkpt>
      <trkpt lat="47.47679" lon="6.76088">
        <ele>310</ele>
        <time>2016-02-28T08:47:22.000Z</time>
      </trkpt>
      <trkpt lat="47.47676" lon="6.76083">
        <ele>311</ele>
        <time>2016-02-28T08:47:23.000Z</time>
      </trkpt>
      <trkpt lat="47.47673" lon="6.76076">
        <ele>311</ele>
        <time>2016-02-28T08:47:24.000Z</time>
      </trkpt>
      <trkpt lat="47.4767" lon="6.76069">
        <ele>311</ele>
        <time>2016-02-28T08:47:25.000Z</time>
      </trkpt>
      <trkpt lat="47.47669" lon="6.76062">
        <ele>311</ele>
        <time>2016-02-28T08:47:26.000Z</time>
      </trkpt>
      <trkpt lat="47.47667" lon="6.76055">
        <ele>311</ele>
        <time>2016-02-28T08:47:27.000Z</time>
      </trkpt>
      <trkpt lat="47.47666" lon="6.76047">
        <ele>311</ele>
        <time>2016-02-28T08:47:28.000Z</time>
      </trkpt>
      <trkpt lat="47.47666" lon="6.76039">
        <ele>311</ele>
        <time>2016-02-28T08:47:29.000Z</time>
      </trkpt>
      <trkpt lat="47.47666" lon="6.76031">
        <ele>311</ele>
        <time>2016-02-28T08:47:30.000Z</time>
      </trkpt>
      <trkpt lat="47.47665" lon="6.76022">
        <ele>311</ele>
        <time>2016-02-28T08:47:31.000Z</time>
      </trkpt>
      <trkpt lat="47.47666" lon="6.76014">
        <ele>311</ele>
        <time>2016-02-28T08:47:32.000Z</time>
      </trkpt>
      <trkpt lat="47.47667" lon="6.76006">
        <ele>312</ele>
        <time>2016-02-28T08:47:33.000Z</time>
      </trkpt>
      <trkpt lat="47.47668" lon="6.75998">
        <ele>312</ele>
        <time>2016-02-28T08:47:34.000Z</time>
      </trkpt>
      <trkpt lat="47.4767" lon="6.7599">
        <ele>312</ele>
        <time>2016-02-28T08:47:35.000Z</time>
      </trkpt>
      <trkpt lat="47.47672" lon="6.75983">
        <ele>312</ele>
        <time>2016-02-28T08:47:36.000Z</time>
      </trkpt>
      <trkpt lat="47.47675" lon="6.75976">
        <ele>311</ele>
        <time>2016-02-28T08:47:37.000Z</time>
      </trkpt>
      <trkpt lat="47.47679" lon="6.75969">
        <ele>311</ele>
        <time>2016-02-28T08:47:38.000Z</time>
      </trkpt>
      <trkpt lat="47.47682" lon="6.75962">
        <ele>311</ele>
        <time>2016-02-28T08:47:39.000Z</time>
      </trkpt>
      <trkpt lat="47.47685" lon="6.75955">
        <ele>311</ele>
        <time>2016-02-28T08:47:40.000Z</time>
      </trkpt>
      <trkpt lat="47.47688" lon="6.75947">
        <ele>311</ele>
        <time>2016-02-28T08:47:41.000Z</time>
      </trkpt>
      <trkpt lat="47.47691" lon="6.75939">
        <ele>311</ele>
        <time>2016-02-28T08:47:42.000Z</time>
      </trkpt>
      <trkpt lat="47.47693" lon="6.75931">
        <ele>311</ele>
        <time>2016-02-28T08:47:43.000Z</time>
      </trkpt>
      <trkpt lat="47.47694" lon="6.75922">
        <ele>311</ele>
        <time>2016-02-28T08:47:44.000Z</time>
      </trkpt>
      <trkpt lat="47.47695" lon="6.75914">
        <ele>311</ele>
        <time>2016-02-28T08:47:45.000Z</time>
      </trkpt>
      <trkpt lat="47.47696" lon="6.75905">
        <ele>311</ele>
        <time>2016-02-28T08:47:46.000Z</time>
      </trkpt>
      <trkpt lat="47.47696" lon="6.75895">
        <ele>311</ele>
        <time>2016-02-28T08:47:47.000Z</time>
      </trkpt>
      <trkpt lat="47.47696" lon="6.75886">
        <ele>311</ele>
        <time>2016-02-28T08:47:48.000Z</time>
      </trkpt>
      <trkpt lat="47.47696" lon="6.75878">
        <ele>311</ele>
        <time>2016-02-28T08:47:49.000Z</time>
      </trkpt>
      <trkpt lat="47.47696" lon="6.75868">
        <ele>311</ele>
        <time>2016-02-28T08:47:50.000Z</time>
      </trkpt>
      <trkpt lat="47.47696" lon="6.75859">
        <ele>311</ele>
        <time>2016-02-28T08:47:51.000Z</time>
      </trkpt>
      <trkpt lat="47.47696" lon="6.75849">
        <ele>311</ele>
        <time>2016-02-28T08:47:52.000Z</time>
      </trkpt>
      <trkpt lat="47.47697" lon="6.7584">
        <ele>311</ele>
        <time>2016-02-28T08:47:53.000Z</time>
      </trkpt>
      <trkpt lat="47.47697" lon="6.75831">
        <ele>310</ele>
        <time>2016-02-28T08:47:54.000Z</time>
      </trkpt>
      <trkpt lat="47.47698" lon="6.75822">
        <ele>310</ele>
        <time>2016-02-28T08:47:55.000Z</time>
      </trkpt>
      <trkpt lat="47.47698" lon="6.75813">
        <ele>310</ele>
        <time>2016-02-28T08:47:56.000Z</time>
      </trkpt>
      <trkpt lat="47.47699" lon="6.75803">
        <ele>310</ele>
        <time>2016-02-28T08:47:57.000Z</time>
      </trkpt>
      <trkpt lat="47.47699" lon="6.75793">
        <ele>310</ele>
        <time>2016-02-28T08:47:58.000Z</time>
      </trkpt>
      <trkpt lat="47.477" lon="6.75784">
        <ele>310</ele>
        <time>2016-02-28T08:47:59.000Z</time>
      </trkpt>
      <trkpt lat="47.477" lon="6.75774">
        <ele>310</ele>
        <time>2016-02-28T08:48:00.000Z</time>
      </trkpt>
      <trkpt lat="47.477" lon="6.75765">
        <ele>310</ele>
        <time>2016-02-28T08:48:01.000Z</time>
      </trkpt>
      <trkpt lat="47.477" lon="6.75755">
        <ele>310</ele>
        <time>2016-02-28T08:48:02.000Z</time>
      </trkpt>
      <trkpt lat="47.477" lon="6.75746">
        <ele>310</ele>
        <time>2016-02-28T08:48:03.000Z</time>
      </trkpt>
      <trkpt lat="47.477" lon="6.75737">
        <ele>310</ele>
        <time>2016-02-28T08:48:04.000Z</time>
      </trkpt>
      <trkpt lat="47.47701" lon="6.75728">
        <ele>310</ele>
        <time>2016-02-28T08:48:05.000Z</time>
      </trkpt>
      <trkpt lat="47.47701" lon="6.75718">
        <ele>310</ele>
        <time>2016-02-28T08:48:06.000Z</time>
      </trkpt>
      <trkpt lat="47.477" lon="6.7571">
        <ele>310</ele>
        <time>2016-02-28T08:48:07.000Z</time>
      </trkpt>
      <trkpt lat="47.47701" lon="6.75701">
        <ele>310</ele>
        <time>2016-02-28T08:48:08.000Z</time>
      </trkpt>
      <trkpt lat="47.47702" lon="6.75692">
        <ele>310</ele>
        <time>2016-02-28T08:48:09.000Z</time>
      </trkpt>
      <trkpt lat="47.47702" lon="6.75681">
        <ele>310</ele>
        <time>2016-02-28T08:48:10.000Z</time>
      </trkpt>
      <trkpt lat="47.47702" lon="6.75671">
        <ele>310</ele>
        <time>2016-02-28T08:48:11.000Z</time>
      </trkpt>
      <trkpt lat="47.47703" lon="6.75661">
        <ele>309</ele>
        <time>2016-02-28T08:48:12.000Z</time>
      </trkpt>
      <trkpt lat="47.47703" lon="6.7565">
        <ele>309</ele>
        <time>2016-02-28T08:48:13.000Z</time>
      </trkpt>
      <trkpt lat="47.47703" lon="6.75639">
        <ele>309</ele>
        <time>2016-02-28T08:48:14.000Z</time>
      </trkpt>
      <trkpt lat="47.47703" lon="6.75629">
        <ele>309</ele>
        <time>2016-02-28T08:48:15.000Z</time>
      </trkpt>
      <trkpt lat="47.47704" lon="6.75619">
        <ele>309</ele>
        <time>2016-02-28T08:48:16.000Z</time>
      </trkpt>
      <trkpt lat="47.47704" lon="6.75609">
        <ele>309</ele>
        <time>2016-02-28T08:48:17.000Z</time>
      </trkpt>
      <trkpt lat="47.47704" lon="6.75598">
        <ele>309</ele>
        <time>2016-02-28T08:48:18.000Z</time>
      </trkpt>
      <trkpt lat="47.47704" lon="6.75588">
        <ele>309</ele>
        <time>2016-02-28T08:48:19.000Z</time>
      </trkpt>
      <trkpt lat="47.47704" lon="6.75578">
        <ele>309</ele>
        <time>2016-02-28T08:48:20.000Z</time>
      </trkpt>
      <trkpt lat="47.47705" lon="6.75568">
        <ele>309</ele>
        <time>2016-02-28T08:48:21.000Z</time>
      </trkpt>
      <trkpt lat="47.47705" lon="6.75558">
        <ele>309</ele>
        <time>2016-02-28T08:48:22.000Z</time>
      </trkpt>
      <trkpt lat="47.47705" lon="6.75548">
        <ele>309</ele>
        <time>2016-02-28T08:48:23.000Z</time>
      </trkpt>
      <trkpt lat="47.47705" lon="6.75539">
        <ele>309</ele>
        <time>2016-02-28T08:48:24.000Z</time>
      </trkpt>
      <trkpt lat="47.47706" lon="6.7553">
        <ele>309</ele>
        <time>2016-02-28T08:48:25.000Z</time>
      </trkpt>
      <trkpt lat="47.47705" lon="6.7552">
        <ele>309</ele>
        <time>2016-02-28T08:48:26.000Z</time>
      </trkpt>
      <trkpt lat="47.47705" lon="6.75511">
        <ele>309</ele>
        <time>2016-02-28T08:48:27.000Z</time>
      </trkpt>
      <trkpt lat="47.47705" lon="6.75501">
        <ele>309</ele>
        <time>2016-02-28T08:48:28.000Z</time>
      </trkpt>
      <trkpt lat="47.47706" lon="6.75491">
        <ele>309</ele>
        <time>2016-02-28T08:48:29.000Z</time>
      </trkpt>
      <trkpt lat="47.47706" lon="6.75482">
        <ele>309</ele>
        <time>2016-02-28T08:48:30.000Z</time>
      </trkpt>
      <trkpt lat="47.47706" lon="6.75472">
        <ele>309</ele>
        <time>2016-02-28T08:48:31.000Z</time>
      </trkpt>
      <trkpt lat="47.47707" lon="6.75463">
        <ele>309</ele>
        <time>2016-02-28T08:48:32.000Z</time>
      </trkpt>
      <trkpt lat="47.47707" lon="6.75454">
        <ele>309</ele>
        <time>2016-02-28T08:48:33.000Z</time>
      </trkpt>
      <trkpt lat="47.47708" lon="6.75445">
        <ele>309</ele>
        <time>2016-02-28T08:48:34.000Z</time>
      </trkpt>
      <trkpt lat="47.47708" lon="6.75435">
        <ele>309</ele>
        <time>2016-02-28T08:48:35.000Z</time>
      </trkpt>
      <trkpt lat="47.47708" lon="6.75426">
        <ele>309</ele>
        <time>2016-02-28T08:48:36.000Z</time>
      </trkpt>
      <trkpt lat="47.47708" lon="6.75416">
        <ele>309</ele>
        <time>2016-02-28T08:48:37.000Z</time>
      </trkpt>
      <trkpt lat="47.47709" lon="6.75407">
        <ele>309</ele>
        <time>2016-02-28T08:48:38.000Z</time>
      </trkpt>
      <trkpt lat="47.47709" lon="6.75397">
        <ele>309</ele>
        <time>2016-02-28T08:48:39.000Z</time>
      </trkpt>
      <trkpt lat="47.4771" lon="6.75388">
        <ele>309</ele>
        <time>2016-02-28T08:48:40.000Z</time>
      </trkpt>
      <trkpt lat="47.47709" lon="6.75378">
        <ele>309</ele>
        <time>2016-02-28T08:48:41.000Z</time>
      </trkpt>
      <trkpt lat="47.47709" lon="6.75369">
        <ele>309</ele>
        <time>2016-02-28T08:48:42.000Z</time>
      </trkpt>
      <trkpt lat="47.4771" lon="6.7536">
        <ele>309</ele>
        <time>2016-02-28T08:48:43.000Z</time>
      </trkpt>
      <trkpt lat="47.47712" lon="6.75352">
        <ele>309</ele>
        <time>2016-02-28T08:48:44.000Z</time>
      </trkpt>
      <trkpt lat="47.47712" lon="6.75344">
        <ele>309</ele>
        <time>2016-02-28T08:48:45.000Z</time>
      </trkpt>
      <trkpt lat="47.47712" lon="6.75334">
        <ele>309</ele>
        <time>2016-02-28T08:48:46.000Z</time>
      </trkpt>
      <trkpt lat="47.47713" lon="6.75325">
        <ele>310</ele>
        <time>2016-02-28T08:48:47.000Z</time>
      </trkpt>
      <trkpt lat="47.47713" lon="6.75316">
        <ele>310</ele>
        <time>2016-02-28T08:48:48.000Z</time>
      </trkpt>
      <trkpt lat="47.47713" lon="6.75307">
        <ele>310</ele>
        <time>2016-02-28T08:48:49.000Z</time>
      </trkpt>
      <trkpt lat="47.47714" lon="6.75299">
        <ele>310</ele>
        <time>2016-02-28T08:48:50.000Z</time>
      </trkpt>
      <trkpt lat="47.47714" lon="6.7529">
        <ele>310</ele>
        <time>2016-02-28T08:48:51.000Z</time>
      </trkpt>
      <trkpt lat="47.47714" lon="6.75281">
        <ele>310</ele>
        <time>2016-02-28T08:48:52.000Z</time>
      </trkpt>
      <trkpt lat="47.47714" lon="6.75272">
        <ele>310</ele>
        <time>2016-02-28T08:48:53.000Z</time>
      </trkpt>
      <trkpt lat="47.47715" lon="6.75264">
        <ele>310</ele>
        <time>2016-02-28T08:48:54.000Z</time>
      </trkpt>
      <trkpt lat="47.47715" lon="6.75255">
        <ele>310</ele>
        <time>2016-02-28T08:48:55.000Z</time>
      </trkpt>
      <trkpt lat="47.47715" lon="6.75245">
        <ele>311</ele>
        <time>2016-02-28T08:48:56.000Z</time>
      </trkpt>
      <trkpt lat="47.47715" lon="6.75237">
        <ele>311</ele>
        <time>2016-02-28T08:48:57.000Z</time>
      </trkpt>
      <trkpt lat="47.47715" lon="6.75227">
        <ele>311</ele>
        <time>2016-02-28T08:48:58.000Z</time>
      </trkpt>
      <trkpt lat="47.47716" lon="6.75219">
        <ele>311</ele>
        <time>2016-02-28T08:48:59.000Z</time>
      </trkpt>
      <trkpt lat="47.47715" lon="6.75209">
        <ele>311</ele>
        <time>2016-02-28T08:49:00.000Z</time>
      </trkpt>
      <trkpt lat="47.47715" lon="6.752">
        <ele>311</ele>
        <time>2016-02-28T08:49:01.000Z</time>
      </trkpt>
      <trkpt lat="47.47716" lon="6.75191">
        <ele>311</ele>
        <time>2016-02-28T08:49:02.000Z</time>
      </trkpt>
      <trkpt lat="47.47716" lon="6.75182">
        <ele>311</ele>
        <time>2016-02-28T08:49:03.000Z</time>
      </trkpt>
      <trkpt lat="47.47716" lon="6.75173">
        <ele>310</ele>
        <time>2016-02-28T08:49:04.000Z</time>
      </trkpt>
      <trkpt lat="47.47716" lon="6.75163">
        <ele>310</ele>
        <time>2016-02-28T08:49:05.000Z</time>
      </trkpt>
      <trkpt lat="47.47716" lon="6.75154">
        <ele>310</ele>
        <time>2016-02-28T08:49:06.000Z</time>
      </trkpt>
      <trkpt lat="47.47716" lon="6.75145">
        <ele>310</ele>
        <time>2016-02-28T08:49:07.000Z</time>
      </trkpt>
      <trkpt lat="47.47717" lon="6.75136">
        <ele>310</ele>
        <time>2016-02-28T08:49:08.000Z</time>
      </trkpt>
      <trkpt lat="47.47717" lon="6.75127">
        <ele>310</ele>
        <time>2016-02-28T08:49:09.000Z</time>
      </trkpt>
      <trkpt lat="47.47716" lon="6.75118">
        <ele>310</ele>
        <time>2016-02-28T08:49:10.000Z</time>
      </trkpt>
      <trkpt lat="47.47717" lon="6.75109">
        <ele>310</ele>
        <time>2016-02-28T08:49:11.000Z</time>
      </trkpt>
      <trkpt lat="47.47718" lon="6.751">
        <ele>310</ele>
        <time>2016-02-28T08:49:12.000Z</time>
      </trkpt>
      <trkpt lat="47.47717" lon="6.7509">
        <ele>310</ele>
        <time>2016-02-28T08:49:13.000Z</time>
      </trkpt>
      <trkpt lat="47.47716" lon="6.7508">
        <ele>310</ele>
        <time>2016-02-28T08:49:14.000Z</time>
      </trkpt>
      <trkpt lat="47.47716" lon="6.75072">
        <ele>310</ele>
        <time>2016-02-28T08:49:15.000Z</time>
      </trkpt>
      <trkpt lat="47.47716" lon="6.75062">
        <ele>310</ele>
        <time>2016-02-28T08:49:16.000Z</time>
      </trkpt>
      <trkpt lat="47.47717" lon="6.75053">
        <ele>310</ele>
        <time>2016-02-28T08:49:17.000Z</time>
      </trkpt>
      <trkpt lat="47.47718" lon="6.75044">
        <ele>310</ele>
        <time>2016-02-28T08:49:18.000Z</time>
      </trkpt>
      <trkpt lat="47.47718" lon="6.75035">
        <ele>310</ele>
        <time>2016-02-28T08:49:19.000Z</time>
      </trkpt>
      <trkpt lat="47.47718" lon="6.75026">
        <ele>310</ele>
        <time>2016-02-28T08:49:20.000Z</time>
      </trkpt>
      <trkpt lat="47.47719" lon="6.75016">
        <ele>310</ele>
        <time>2016-02-28T08:49:21.000Z</time>
      </trkpt>
      <trkpt lat="47.47719" lon="6.75007">
        <ele>310</ele>
        <time>2016-02-28T08:49:22.000Z</time>
      </trkpt>
      <trkpt lat="47.47719" lon="6.74997">
        <ele>310</ele>
        <time>2016-02-28T08:49:23.000Z</time>
      </trkpt>
      <trkpt lat="47.4772" lon="6.74989">
        <ele>310</ele>
        <time>2016-02-28T08:49:24.000Z</time>
      </trkpt>
      <trkpt lat="47.47721" lon="6.7498">
        <ele>310</ele>
        <time>2016-02-28T08:49:25.000Z</time>
      </trkpt>
      <trkpt lat="47.47721" lon="6.74969">
        <ele>310</ele>
        <time>2016-02-28T08:49:26.000Z</time>
      </trkpt>
      <trkpt lat="47.47722" lon="6.74961">
        <ele>310</ele>
        <time>2016-02-28T08:49:27.000Z</time>
      </trkpt>
      <trkpt lat="47.47723" lon="6.74951">
        <ele>310</ele>
        <time>2016-02-28T08:49:28.000Z</time>
      </trkpt>
      <trkpt lat="47.47723" lon="6.74942">
        <ele>310</ele>
        <time>2016-02-28T08:49:29.000Z</time>
      </trkpt>
      <trkpt lat="47.47723" lon="6.74932">
        <ele>310</ele>
        <time>2016-02-28T08:49:30.000Z</time>
      </trkpt>
      <trkpt lat="47.47723" lon="6.74923">
        <ele>310</ele>
        <time>2016-02-28T08:49:31.000Z</time>
      </trkpt>
      <trkpt lat="47.47723" lon="6.74914">
        <ele>309</ele>
        <time>2016-02-28T08:49:32.000Z</time>
      </trkpt>
      <trkpt lat="47.47722" lon="6.74905">
        <ele>309</ele>
        <time>2016-02-28T08:49:33.000Z</time>
      </trkpt>
      <trkpt lat="47.47723" lon="6.74897">
        <ele>309</ele>
        <time>2016-02-28T08:49:34.000Z</time>
      </trkpt>
      <trkpt lat="47.47723" lon="6.74888">
        <ele>309</ele>
        <time>2016-02-28T08:49:35.000Z</time>
      </trkpt>
      <trkpt lat="47.47723" lon="6.74879">
        <ele>309</ele>
        <time>2016-02-28T08:49:36.000Z</time>
      </trkpt>
      <trkpt lat="47.47723" lon="6.7487">
        <ele>309</ele>
        <time>2016-02-28T08:49:37.000Z</time>
      </trkpt>
      <trkpt lat="47.47725" lon="6.74861">
        <ele>309</ele>
        <time>2016-02-28T08:49:38.000Z</time>
      </trkpt>
      <trkpt lat="47.47725" lon="6.74853">
        <ele>309</ele>
        <time>2016-02-28T08:49:39.000Z</time>
      </trkpt>
      <trkpt lat="47.47725" lon="6.74843">
        <ele>309</ele>
        <time>2016-02-28T08:49:40.000Z</time>
      </trkpt>
      <trkpt lat="47.47725" lon="6.74834">
        <ele>309</ele>
        <time>2016-02-28T08:49:41.000Z</time>
      </trkpt>
      <trkpt lat="47.47726" lon="6.74825">
        <ele>309</ele>
        <time>2016-02-28T08:49:42.000Z</time>
      </trkpt>
      <trkpt lat="47.47726" lon="6.74815">
        <ele>309</ele>
        <time>2016-02-28T08:49:43.000Z</time>
      </trkpt>
      <trkpt lat="47.47726" lon="6.74807">
        <ele>309</ele>
        <time>2016-02-28T08:49:44.000Z</time>
      </trkpt>
      <trkpt lat="47.47727" lon="6.74798">
        <ele>309</ele>
        <time>2016-02-28T08:49:45.000Z</time>
      </trkpt>
      <trkpt lat="47.47727" lon="6.7479">
        <ele>309</ele>
        <time>2016-02-28T08:49:46.000Z</time>
      </trkpt>
      <trkpt lat="47.47728" lon="6.7478">
        <ele>309</ele>
        <time>2016-02-28T08:49:47.000Z</time>
      </trkpt>
      <trkpt lat="47.47728" lon="6.74772">
        <ele>309</ele>
        <time>2016-02-28T08:49:48.000Z</time>
      </trkpt>
      <trkpt lat="47.47729" lon="6.74763">
        <ele>309</ele>
        <time>2016-02-28T08:49:49.000Z</time>
      </trkpt>
      <trkpt lat="47.47729" lon="6.74754">
        <ele>309</ele>
        <time>2016-02-28T08:49:50.000Z</time>
      </trkpt>
      <trkpt lat="47.4773" lon="6.74745">
        <ele>309</ele>
        <time>2016-02-28T08:49:51.000Z</time>
      </trkpt>
      <trkpt lat="47.4773" lon="6.74736">
        <ele>309</ele>
        <time>2016-02-28T08:49:52.000Z</time>
      </trkpt>
      <trkpt lat="47.4773" lon="6.74727">
        <ele>309</ele>
        <time>2016-02-28T08:49:53.000Z</time>
      </trkpt>
      <trkpt lat="47.47731" lon="6.74718">
        <ele>309</ele>
        <time>2016-02-28T08:49:54.000Z</time>
      </trkpt>
      <trkpt lat="47.47731" lon="6.7471">
        <ele>309</ele>
        <time>2016-02-28T08:49:55.000Z</time>
      </trkpt>
      <trkpt lat="47.47734" lon="6.747">
        <ele>309</ele>
        <time>2016-02-28T08:49:56.000Z</time>
      </trkpt>
      <trkpt lat="47.47734" lon="6.74691">
        <ele>308</ele>
        <time>2016-02-28T08:49:57.000Z</time>
      </trkpt>
      <trkpt lat="47.47734" lon="6.74682">
        <ele>308</ele>
        <time>2016-02-28T08:49:58.000Z</time>
      </trkpt>
      <trkpt lat="47.47734" lon="6.74672">
        <ele>308</ele>
        <time>2016-02-28T08:49:59.000Z</time>
      </trkpt>
      <trkpt lat="47.47733" lon="6.74663">
        <ele>308</ele>
        <time>2016-02-28T08:50:00.000Z</time>
      </trkpt>
      <trkpt lat="47.47733" lon="6.74653">
        <ele>308</ele>
        <time>2016-02-28T08:50:01.000Z</time>
      </trkpt>
      <trkpt lat="47.47733" lon="6.74644">
        <ele>308</ele>
        <time>2016-02-28T08:50:02.000Z</time>
      </trkpt>
      <trkpt lat="47.47733" lon="6.74634">
        <ele>308</ele>
        <time>2016-02-28T08:50:03.000Z</time>
      </trkpt>
      <trkpt lat="47.47732" lon="6.74626">
        <ele>308</ele>
        <time>2016-02-28T08:50:04.000Z</time>
      </trkpt>
      <trkpt lat="47.47732" lon="6.74618">
        <ele>308</ele>
        <time>2016-02-28T08:50:05.000Z</time>
      </trkpt>
      <trkpt lat="47.47731" lon="6.74609">
        <ele>308</ele>
        <time>2016-02-28T08:50:06.000Z</time>
      </trkpt>
      <trkpt lat="47.47731" lon="6.746">
        <ele>308</ele>
        <time>2016-02-28T08:50:07.000Z</time>
      </trkpt>
      <trkpt lat="47.4773" lon="6.74591">
        <ele>308</ele>
        <time>2016-02-28T08:50:08.000Z</time>
      </trkpt>
      <trkpt lat="47.4773" lon="6.74581">
        <ele>308</ele>
        <time>2016-02-28T08:50:09.000Z</time>
      </trkpt>
      <trkpt lat="47.4773" lon="6.74573">
        <ele>308</ele>
        <time>2016-02-28T08:50:10.000Z</time>
      </trkpt>
      <trkpt lat="47.47729" lon="6.74564">
        <ele>308</ele>
        <time>2016-02-28T08:50:11.000Z</time>
      </trkpt>
      <trkpt lat="47.47729" lon="6.74554">
        <ele>308</ele>
        <time>2016-02-28T08:50:12.000Z</time>
      </trkpt>
      <trkpt lat="47.47727" lon="6.74546">
        <ele>308</ele>
        <time>2016-02-28T08:50:13.000Z</time>
      </trkpt>
      <trkpt lat="47.47725" lon="6.74537">
        <ele>308</ele>
        <time>2016-02-28T08:50:14.000Z</time>
      </trkpt>
      <trkpt lat="47.47722" lon="6.74529">
        <ele>308</ele>
        <time>2016-02-28T08:50:15.000Z</time>
      </trkpt>
      <trkpt lat="47.4772" lon="6.74521">
        <ele>308</ele>
        <time>2016-02-28T08:50:16.000Z</time>
      </trkpt>
      <trkpt lat="47.47718" lon="6.74512">
        <ele>308</ele>
        <time>2016-02-28T08:50:17.000Z</time>
      </trkpt>
      <trkpt lat="47.47718" lon="6.74504">
        <ele>308</ele>
        <time>2016-02-28T08:50:18.000Z</time>
      </trkpt>
      <trkpt lat="47.47716" lon="6.74496">
        <ele>308</ele>
        <time>2016-02-28T08:50:19.000Z</time>
      </trkpt>
      <trkpt lat="47.47715" lon="6.74487">
        <ele>308</ele>
        <time>2016-02-28T08:50:20.000Z</time>
      </trkpt>
      <trkpt lat="47.47714" lon="6.74479">
        <ele>308</ele>
        <time>2016-02-28T08:50:21.000Z</time>
      </trkpt>
      <trkpt lat="47.47714" lon="6.7447">
        <ele>308</ele>
        <time>2016-02-28T08:50:22.000Z</time>
      </trkpt>
      <trkpt lat="47.47713" lon="6.74461">
        <ele>308</ele>
        <time>2016-02-28T08:50:23.000Z</time>
      </trkpt>
      <trkpt lat="47.47713" lon="6.74453">
        <ele>308</ele>
        <time>2016-02-28T08:50:24.000Z</time>
      </trkpt>
      <trkpt lat="47.47715" lon="6.74446">
        <ele>308</ele>
        <time>2016-02-28T08:50:25.000Z</time>
      </trkpt>
      <trkpt lat="47.47718" lon="6.74439">
        <ele>308</ele>
        <time>2016-02-28T08:50:26.000Z</time>
      </trkpt>
      <trkpt lat="47.47721" lon="6.74432">
        <ele>308</ele>
        <time>2016-02-28T08:50:27.000Z</time>
      </trkpt>
      <trkpt lat="47.4772" lon="6.74422">
        <ele>308</ele>
        <time>2016-02-28T08:50:28.000Z</time>
      </trkpt>
      <trkpt lat="47.47719" lon="6.74413">
        <ele>309</ele>
        <time>2016-02-28T08:50:29.000Z</time>
      </trkpt>
      <trkpt lat="47.47718" lon="6.74403">
        <ele>309</ele>
        <time>2016-02-28T08:50:30.000Z</time>
      </trkpt>
      <trkpt lat="47.47716" lon="6.74394">
        <ele>309</ele>
        <time>2016-02-28T08:50:31.000Z</time>
      </trkpt>
      <trkpt lat="47.47715" lon="6.74385">
        <ele>309</ele>
        <time>2016-02-28T08:50:32.000Z</time>
      </trkpt>
      <trkpt lat="47.47714" lon="6.74375">
        <ele>309</ele>
        <time>2016-02-28T08:50:33.000Z</time>
      </trkpt>
      <trkpt lat="47.47714" lon="6.74366">
        <ele>309</ele>
        <time>2016-02-28T08:50:34.000Z</time>
      </trkpt>
      <trkpt lat="47.47713" lon="6.74356">
        <ele>309</ele>
        <time>2016-02-28T08:50:35.000Z</time>
      </trkpt>
      <trkpt lat="47.47712" lon="6.74348">
        <ele>309</ele>
        <time>2016-02-28T08:50:36.000Z</time>
      </trkpt>
      <trkpt lat="47.47711" lon="6.74339">
        <ele>309</ele>
        <time>2016-02-28T08:50:37.000Z</time>
      </trkpt>
      <trkpt lat="47.47709" lon="6.74331">
        <ele>310</ele>
        <time>2016-02-28T08:50:38.000Z</time>
      </trkpt>
      <trkpt lat="47.47709" lon="6.74321">
        <ele>310</ele>
        <time>2016-02-28T08:50:39.000Z</time>
      </trkpt>
      <trkpt lat="47.47707" lon="6.74312">
        <ele>310</ele>
        <time>2016-02-28T08:50:40.000Z</time>
      </trkpt>
      <trkpt lat="47.47706" lon="6.74304">
        <ele>310</ele>
        <time>2016-02-28T08:50:41.000Z</time>
      </trkpt>
      <trkpt lat="47.47705" lon="6.74295">
        <ele>310</ele>
        <time>2016-02-28T08:50:42.000Z</time>
      </trkpt>
      <trkpt lat="47.47704" lon="6.74288">
        <ele>310</ele>
        <time>2016-02-28T08:50:43.000Z</time>
      </trkpt>
      <trkpt lat="47.47702" lon="6.74279">
        <ele>310</ele>
        <time>2016-02-28T08:50:44.000Z</time>
      </trkpt>
      <trkpt lat="47.47701" lon="6.7427">
        <ele>310</ele>
        <time>2016-02-28T08:50:45.000Z</time>
      </trkpt>
      <trkpt lat="47.47699" lon="6.74262">
        <ele>310</ele>
        <time>2016-02-28T08:50:46.000Z</time>
      </trkpt>
      <trkpt lat="47.47697" lon="6.74252">
        <ele>310</ele>
        <time>2016-02-28T08:50:47.000Z</time>
      </trkpt>
      <trkpt lat="47.47696" lon="6.74244">
        <ele>310</ele>
        <time>2016-02-28T08:50:48.000Z</time>
      </trkpt>
      <trkpt lat="47.47694" lon="6.74235">
        <ele>310</ele>
        <time>2016-02-28T08:50:49.000Z</time>
      </trkpt>
      <trkpt lat="47.47693" lon="6.74226">
        <ele>310</ele>
        <time>2016-02-28T08:50:50.000Z</time>
      </trkpt>
      <trkpt lat="47.47692" lon="6.74217">
        <ele>310</ele>
        <time>2016-02-28T08:50:51.000Z</time>
      </trkpt>
      <trkpt lat="47.4769" lon="6.7421">
        <ele>310</ele>
        <time>2016-02-28T08:50:52.000Z</time>
      </trkpt>
      <trkpt lat="47.47688" lon="6.74202">
        <ele>310</ele>
        <time>2016-02-28T08:50:53.000Z</time>
      </trkpt>
      <trkpt lat="47.47687" lon="6.74193">
        <ele>310</ele>
        <time>2016-02-28T08:50:54.000Z</time>
      </trkpt>
      <trkpt lat="47.47685" lon="6.74185">
        <ele>310</ele>
        <time>2016-02-28T08:50:55.000Z</time>
      </trkpt>
      <trkpt lat="47.47683" lon="6.74177">
        <ele>310</ele>
        <time>2016-02-28T08:50:56.000Z</time>
      </trkpt>
      <trkpt lat="47.47682" lon="6.74169">
        <ele>310</ele>
        <time>2016-02-28T08:50:57.000Z</time>
      </trkpt>
      <trkpt lat="47.4768" lon="6.7416">
        <ele>310</ele>
        <time>2016-02-28T08:50:58.000Z</time>
      </trkpt>
      <trkpt lat="47.47678" lon="6.74153">
        <ele>310</ele>
        <time>2016-02-28T08:50:59.000Z</time>
      </trkpt>
      <trkpt lat="47.47676" lon="6.74144">
        <ele>310</ele>
        <time>2016-02-28T08:51:00.000Z</time>
      </trkpt>
      <trkpt lat="47.47674" lon="6.74137">
        <ele>310</ele>
        <time>2016-02-28T08:51:01.000Z</time>
      </trkpt>
      <trkpt lat="47.47673" lon="6.74129">
        <ele>310</ele>
        <time>2016-02-28T08:51:02.000Z</time>
      </trkpt>
      <trkpt lat="47.47671" lon="6.74123">
        <ele>310</ele>
        <time>2016-02-28T08:51:03.000Z</time>
      </trkpt>
      <trkpt lat="47.4767" lon="6.74117">
        <ele>310</ele>
        <time>2016-02-28T08:51:04.000Z</time>
      </trkpt>
      <trkpt lat="47.47667" lon="6.74113">
        <ele>310</ele>
        <time>2016-02-28T08:51:05.000Z</time>
      </trkpt>
      <trkpt lat="47.47665" lon="6.74108">
        <ele>309</ele>
        <time>2016-02-28T08:51:11.000Z</time>
      </trkpt>
      <trkpt lat="47.47665" lon="6.74107">
        <ele>309</ele>
        <time>2016-02-28T08:51:12.000Z</time>
      </trkpt>
      <trkpt lat="47.47663" lon="6.74103">
        <ele>309</ele>
        <time>2016-02-28T08:51:15.000Z</time>
      </trkpt>
      <trkpt lat="47.47662" lon="6.74101">
        <ele>309</ele>
        <time>2016-02-28T08:51:16.000Z</time>
      </trkpt>
      <trkpt lat="47.47658" lon="6.74096">
        <ele>310</ele>
        <time>2016-02-28T08:51:18.000Z</time>
      </trkpt>
      <trkpt lat="47.47656" lon="6.74093">
        <ele>310</ele>
        <time>2016-02-28T08:51:19.000Z</time>
      </trkpt>
      <trkpt lat="47.47653" lon="6.74089">
        <ele>310</ele>
        <time>2016-02-28T08:51:20.000Z</time>
      </trkpt>
      <trkpt lat="47.4765" lon="6.74083">
        <ele>310</ele>
        <time>2016-02-28T08:51:21.000Z</time>
      </trkpt>
      <trkpt lat="47.47648" lon="6.74077">
        <ele>310</ele>
        <time>2016-02-28T08:51:22.000Z</time>
      </trkpt>
      <trkpt lat="47.47646" lon="6.74068">
        <ele>310</ele>
        <time>2016-02-28T08:51:23.000Z</time>
      </trkpt>
      <trkpt lat="47.47643" lon="6.74062">
        <ele>310</ele>
        <time>2016-02-28T08:51:24.000Z</time>
      </trkpt>
      <trkpt lat="47.47641" lon="6.74056">
        <ele>310</ele>
        <time>2016-02-28T08:51:25.000Z</time>
      </trkpt>
      <trkpt lat="47.47639" lon="6.74049">
        <ele>310</ele>
        <time>2016-02-28T08:51:26.000Z</time>
      </trkpt>
      <trkpt lat="47.47636" lon="6.74043">
        <ele>310</ele>
        <time>2016-02-28T08:51:27.000Z</time>
      </trkpt>
      <trkpt lat="47.47631" lon="6.74039">
        <ele>310</ele>
        <time>2016-02-28T08:51:28.000Z</time>
      </trkpt>
      <trkpt lat="47.47626" lon="6.7404">
        <ele>310</ele>
        <time>2016-02-28T08:51:29.000Z</time>
      </trkpt>
      <trkpt lat="47.4762" lon="6.74044">
        <ele>309</ele>
        <time>2016-02-28T08:51:30.000Z</time>
      </trkpt>
      <trkpt lat="47.47615" lon="6.74049">
        <ele>309</ele>
        <time>2016-02-28T08:51:31.000Z</time>
      </trkpt>
      <trkpt lat="47.47609" lon="6.74054">
        <ele>309</ele>
        <time>2016-02-28T08:51:32.000Z</time>
      </trkpt>
      <trkpt lat="47.47604" lon="6.7406">
        <ele>309</ele>
        <time>2016-02-28T08:51:33.000Z</time>
      </trkpt>
      <trkpt lat="47.47598" lon="6.74064">
        <ele>309</ele>
        <time>2016-02-28T08:51:34.000Z</time>
      </trkpt>
      <trkpt lat="47.47593" lon="6.74069">
        <ele>309</ele>
        <time>2016-02-28T08:51:35.000Z</time>
      </trkpt>
      <trkpt lat="47.47587" lon="6.74072">
        <ele>309</ele>
        <time>2016-02-28T08:51:36.000Z</time>
      </trkpt>
      <trkpt lat="47.47582" lon="6.74076">
        <ele>309</ele>
        <time>2016-02-28T08:51:37.000Z</time>
      </trkpt>
      <trkpt lat="47.47577" lon="6.7408">
        <ele>309</ele>
        <time>2016-02-28T08:51:38.000Z</time>
      </trkpt>
      <trkpt lat="47.47573" lon="6.74083">
        <ele>309</ele>
        <time>2016-02-28T08:51:39.000Z</time>
      </trkpt>
      <trkpt lat="47.47567" lon="6.74087">
        <ele>309</ele>
        <time>2016-02-28T08:51:40.000Z</time>
      </trkpt>
      <trkpt lat="47.47562" lon="6.74091">
        <ele>309</ele>
        <time>2016-02-28T08:51:41.000Z</time>
      </trkpt>
      <trkpt lat="47.47556" lon="6.74094">
        <ele>309</ele>
        <time>2016-02-28T08:51:42.000Z</time>
      </trkpt>
      <trkpt lat="47.47551" lon="6.74099">
        <ele>309</ele>
        <time>2016-02-28T08:51:43.000Z</time>
      </trkpt>
      <trkpt lat="47.47546" lon="6.74103">
        <ele>309</ele>
        <time>2016-02-28T08:51:44.000Z</time>
      </trkpt>
      <trkpt lat="47.4754" lon="6.74107">
        <ele>308</ele>
        <time>2016-02-28T08:51:45.000Z</time>
      </trkpt>
      <trkpt lat="47.47535" lon="6.74112">
        <ele>308</ele>
        <time>2016-02-28T08:51:46.000Z</time>
      </trkpt>
      <trkpt lat="47.4753" lon="6.74116">
        <ele>308</ele>
        <time>2016-02-28T08:51:47.000Z</time>
      </trkpt>
      <trkpt lat="47.47525" lon="6.7412">
        <ele>308</ele>
        <time>2016-02-28T08:51:48.000Z</time>
      </trkpt>
      <trkpt lat="47.47519" lon="6.74125">
        <ele>308</ele>
        <time>2016-02-28T08:51:49.000Z</time>
      </trkpt>
      <trkpt lat="47.47514" lon="6.7413">
        <ele>309</ele>
        <time>2016-02-28T08:51:50.000Z</time>
      </trkpt>
      <trkpt lat="47.47509" lon="6.74133">
        <ele>309</ele>
        <time>2016-02-28T08:51:51.000Z</time>
      </trkpt>
      <trkpt lat="47.47504" lon="6.74137">
        <ele>309</ele>
        <time>2016-02-28T08:51:52.000Z</time>
      </trkpt>
      <trkpt lat="47.47499" lon="6.74142">
        <ele>309</ele>
        <time>2016-02-28T08:51:53.000Z</time>
      </trkpt>
      <trkpt lat="47.47494" lon="6.74146">
        <ele>309</ele>
        <time>2016-02-28T08:51:54.000Z</time>
      </trkpt>
      <trkpt lat="47.4749" lon="6.7415">
        <ele>309</ele>
        <time>2016-02-28T08:51:55.000Z</time>
      </trkpt>
      <trkpt lat="47.47485" lon="6.74154">
        <ele>309</ele>
        <time>2016-02-28T08:51:56.000Z</time>
      </trkpt>
      <trkpt lat="47.4748" lon="6.74158">
        <ele>309</ele>
        <time>2016-02-28T08:51:57.000Z</time>
      </trkpt>
      <trkpt lat="47.47475" lon="6.74162">
        <ele>309</ele>
        <time>2016-02-28T08:51:58.000Z</time>
      </trkpt>
      <trkpt lat="47.4747" lon="6.74166">
        <ele>309</ele>
        <time>2016-02-28T08:51:59.000Z</time>
      </trkpt>
      <trkpt lat="47.47466" lon="6.74168">
        <ele>309</ele>
        <time>2016-02-28T08:52:00.000Z</time>
      </trkpt>
      <trkpt lat="47.47461" lon="6.74172">
        <ele>309</ele>
        <time>2016-02-28T08:52:01.000Z</time>
      </trkpt>
      <trkpt lat="47.47457" lon="6.74174">
        <ele>309</ele>
        <time>2016-02-28T08:52:02.000Z</time>
      </trkpt>
      <trkpt lat="47.47452" lon="6.74177">
        <ele>309</ele>
        <time>2016-02-28T08:52:03.000Z</time>
      </trkpt>
      <trkpt lat="47.47445" lon="6.74179">
        <ele>309</ele>
        <time>2016-02-28T08:52:04.000Z</time>
      </trkpt>
      <trkpt lat="47.47439" lon="6.7418">
        <ele>309</ele>
        <time>2016-02-28T08:52:05.000Z</time>
      </trkpt>
      <trkpt lat="47.47434" lon="6.74183">
        <ele>309</ele>
        <time>2016-02-28T08:52:06.000Z</time>
      </trkpt>
      <trkpt lat="47.47428" lon="6.74185">
        <ele>309</ele>
        <time>2016-02-28T08:52:07.000Z</time>
      </trkpt>
      <trkpt lat="47.47423" lon="6.74187">
        <ele>309</ele>
        <time>2016-02-28T08:52:08.000Z</time>
      </trkpt>
      <trkpt lat="47.47417" lon="6.74189">
        <ele>309</ele>
        <time>2016-02-28T08:52:09.000Z</time>
      </trkpt>
      <trkpt lat="47.47412" lon="6.7419">
        <ele>310</ele>
        <time>2016-02-28T08:52:10.000Z</time>
      </trkpt>
      <trkpt lat="47.47406" lon="6.74192">
        <ele>310</ele>
        <time>2016-02-28T08:52:11.000Z</time>
      </trkpt>
      <trkpt lat="47.47401" lon="6.74194">
        <ele>310</ele>
        <time>2016-02-28T08:52:12.000Z</time>
      </trkpt>
      <trkpt lat="47.47396" lon="6.74198">
        <ele>310</ele>
        <time>2016-02-28T08:52:13.000Z</time>
      </trkpt>
      <trkpt lat="47.47391" lon="6.742">
        <ele>310</ele>
        <time>2016-02-28T08:52:14.000Z</time>
      </trkpt>
      <trkpt lat="47.47386" lon="6.74202">
        <ele>310</ele>
        <time>2016-02-28T08:52:15.000Z</time>
      </trkpt>
      <trkpt lat="47.47381" lon="6.74206">
        <ele>310</ele>
        <time>2016-02-28T08:52:16.000Z</time>
      </trkpt>
      <trkpt lat="47.47376" lon="6.74209">
        <ele>310</ele>
        <time>2016-02-28T08:52:17.000Z</time>
      </trkpt>
      <trkpt lat="47.47372" lon="6.74211">
        <ele>310</ele>
        <time>2016-02-28T08:52:18.000Z</time>
      </trkpt>
      <trkpt lat="47.47367" lon="6.74214">
        <ele>310</ele>
        <time>2016-02-28T08:52:19.000Z</time>
      </trkpt>
      <trkpt lat="47.47362" lon="6.74216">
        <ele>310</ele>
        <time>2016-02-28T08:52:20.000Z</time>
      </trkpt>
      <trkpt lat="47.47358" lon="6.74218">
        <ele>310</ele>
        <time>2016-02-28T08:52:21.000Z</time>
      </trkpt>
      <trkpt lat="47.47353" lon="6.74221">
        <ele>310</ele>
        <time>2016-02-28T08:52:22.000Z</time>
      </trkpt>
      <trkpt lat="47.47348" lon="6.74224">
        <ele>310</ele>
        <time>2016-02-28T08:52:23.000Z</time>
      </trkpt>
      <trkpt lat="47.47343" lon="6.74226">
        <ele>310</ele>
        <time>2016-02-28T08:52:24.000Z</time>
      </trkpt>
      <trkpt lat="47.47339" lon="6.7423">
        <ele>310</ele>
        <time>2016-02-28T08:52:25.000Z</time>
      </trkpt>
      <trkpt lat="47.47334" lon="6.74233">
        <ele>310</ele>
        <time>2016-02-28T08:52:26.000Z</time>
      </trkpt>
      <trkpt lat="47.4733" lon="6.74236">
        <ele>311</ele>
        <time>2016-02-28T08:52:27.000Z</time>
      </trkpt>
      <trkpt lat="47.47325" lon="6.74238">
        <ele>311</ele>
        <time>2016-02-28T08:52:28.000Z</time>
      </trkpt>
      <trkpt lat="47.47321" lon="6.7424">
        <ele>311</ele>
        <time>2016-02-28T08:52:29.000Z</time>
      </trkpt>
      <trkpt lat="47.47317" lon="6.74243">
        <ele>311</ele>
        <time>2016-02-28T08:52:30.000Z</time>
      </trkpt>
      <trkpt lat="47.47311" lon="6.74246">
        <ele>312</ele>
        <time>2016-02-28T08:52:31.000Z</time>
      </trkpt>
      <trkpt lat="47.47306" lon="6.74248">
        <ele>312</ele>
        <time>2016-02-28T08:52:32.000Z</time>
      </trkpt>
      <trkpt lat="47.47301" lon="6.74249">
        <ele>312</ele>
        <time>2016-02-28T08:52:33.000Z</time>
      </trkpt>
      <trkpt lat="47.47296" lon="6.7425">
        <ele>312</ele>
        <time>2016-02-28T08:52:34.000Z</time>
      </trkpt>
      <trkpt lat="47.47291" lon="6.74251">
        <ele>312</ele>
        <time>2016-02-28T08:52:35.000Z</time>
      </trkpt>
      <trkpt lat="47.47285" lon="6.74253">
        <ele>312</ele>
        <time>2016-02-28T08:52:36.000Z</time>
      </trkpt>
      <trkpt lat="47.4728" lon="6.74254">
        <ele>313</ele>
        <time>2016-02-28T08:52:37.000Z</time>
      </trkpt>
      <trkpt lat="47.47275" lon="6.74256">
        <ele>313</ele>
        <time>2016-02-28T08:52:38.000Z</time>
      </trkpt>
      <trkpt lat="47.47268" lon="6.74259">
        <ele>313</ele>
        <time>2016-02-28T08:52:39.000Z</time>
      </trkpt>
      <trkpt lat="47.47263" lon="6.7426">
        <ele>313</ele>
        <time>2016-02-28T08:52:40.000Z</time>
      </trkpt>
      <trkpt lat="47.47259" lon="6.74261">
        <ele>313</ele>
        <time>2016-02-28T08:52:41.000Z</time>
      </trkpt>
      <trkpt lat="47.47255" lon="6.74264">
        <ele>313</ele>
        <time>2016-02-28T08:52:42.000Z</time>
      </trkpt>
      <trkpt lat="47.47253" lon="6.74269">
        <ele>313</ele>
        <time>2016-02-28T08:52:43.000Z</time>
      </trkpt>
      <trkpt lat="47.4725" lon="6.74275">
        <ele>313</ele>
        <time>2016-02-28T08:52:44.000Z</time>
      </trkpt>
      <trkpt lat="47.47249" lon="6.74282">
        <ele>315</ele>
        <time>2016-02-28T08:52:45.000Z</time>
      </trkpt>
      <trkpt lat="47.47248" lon="6.74288">
        <ele>315</ele>
        <time>2016-02-28T08:52:46.000Z</time>
      </trkpt>
      <trkpt lat="47.47248" lon="6.74295">
        <ele>315</ele>
        <time>2016-02-28T08:52:47.000Z</time>
      </trkpt>
      <trkpt lat="47.47247" lon="6.74302">
        <ele>315</ele>
        <time>2016-02-28T08:52:48.000Z</time>
      </trkpt>
      <trkpt lat="47.47246" lon="6.74309">
        <ele>315</ele>
        <time>2016-02-28T08:52:49.000Z</time>
      </trkpt>
      <trkpt lat="47.47245" lon="6.74316">
        <ele>315</ele>
        <time>2016-02-28T08:52:50.000Z</time>
      </trkpt>
      <trkpt lat="47.47243" lon="6.74322">
        <ele>315</ele>
        <time>2016-02-28T08:52:51.000Z</time>
      </trkpt>
      <trkpt lat="47.4724" lon="6.74325">
        <ele>315</ele>
        <time>2016-02-28T08:52:52.000Z</time>
      </trkpt>
      <trkpt lat="47.47238" lon="6.74327">
        <ele>315</ele>
        <time>2016-02-28T08:52:53.000Z</time>
      </trkpt>
      <trkpt lat="47.47235" lon="6.74333">
        <ele>315</ele>
        <time>2016-02-28T08:52:54.000Z</time>
      </trkpt>
      <trkpt lat="47.47232" lon="6.74337">
        <ele>316</ele>
        <time>2016-02-28T08:52:55.000Z</time>
      </trkpt>
      <trkpt lat="47.47229" lon="6.74342">
        <ele>317</ele>
        <time>2016-02-28T08:52:56.000Z</time>
      </trkpt>
      <trkpt lat="47.47226" lon="6.74345">
        <ele>317</ele>
        <time>2016-02-28T08:52:57.000Z</time>
      </trkpt>
      <trkpt lat="47.47223" lon="6.74349">
        <ele>317</ele>
        <time>2016-02-28T08:52:58.000Z</time>
      </trkpt>
      <trkpt lat="47.47219" lon="6.74349">
        <ele>318</ele>
        <time>2016-02-28T08:52:59.000Z</time>
      </trkpt>
      <trkpt lat="47.47215" lon="6.7435">
        <ele>318</ele>
        <time>2016-02-28T08:53:00.000Z</time>
      </trkpt>
      <trkpt lat="47.47212" lon="6.74352">
        <ele>318</ele>
        <time>2016-02-28T08:53:01.000Z</time>
      </trkpt>
      <trkpt lat="47.47209" lon="6.74353">
        <ele>318</ele>
        <time>2016-02-28T08:53:02.000Z</time>
      </trkpt>
      <trkpt lat="47.47206" lon="6.74354">
        <ele>318</ele>
        <time>2016-02-28T08:53:03.000Z</time>
      </trkpt>
      <trkpt lat="47.47204" lon="6.74355">
        <ele>318</ele>
        <time>2016-02-28T08:53:04.000Z</time>
      </trkpt>
      <trkpt lat="47.472" lon="6.74356">
        <ele>319</ele>
        <time>2016-02-28T08:53:06.000Z</time>
      </trkpt>
      <trkpt lat="47.47199" lon="6.74357">
        <ele>319</ele>
        <time>2016-02-28T08:53:07.000Z</time>
      </trkpt>
      <trkpt lat="47.47196" lon="6.74358">
        <ele>319</ele>
        <time>2016-02-28T08:53:08.000Z</time>
      </trkpt>
      <trkpt lat="47.47194" lon="6.74359">
        <ele>319</ele>
        <time>2016-02-28T08:53:09.000Z</time>
      </trkpt>
      <trkpt lat="47.47191" lon="6.7436">
        <ele>319</ele>
        <time>2016-02-28T08:53:10.000Z</time>
      </trkpt>
      <trkpt lat="47.47188" lon="6.74361">
        <ele>319</ele>
        <time>2016-02-28T08:53:11.000Z</time>
      </trkpt>
      <trkpt lat="47.47184" lon="6.74361">
        <ele>319</ele>
        <time>2016-02-28T08:53:12.000Z</time>
      </trkpt>
      <trkpt lat="47.47181" lon="6.74362">
        <ele>319</ele>
        <time>2016-02-28T08:53:13.000Z</time>
      </trkpt>
      <trkpt lat="47.47178" lon="6.74363">
        <ele>319</ele>
        <time>2016-02-28T08:53:14.000Z</time>
      </trkpt>
      <trkpt lat="47.47176" lon="6.74363">
        <ele>319</ele>
        <time>2016-02-28T08:53:15.000Z</time>
      </trkpt>
      <trkpt lat="47.47172" lon="6.74364">
        <ele>319</ele>
        <time>2016-02-28T08:53:17.000Z</time>
      </trkpt>
      <trkpt lat="47.47171" lon="6.74364">
        <ele>319</ele>
        <time>2016-02-28T08:53:18.000Z</time>
      </trkpt>
      <trkpt lat="47.47168" lon="6.74364">
        <ele>319</ele>
        <time>2016-02-28T08:53:19.000Z</time>
      </trkpt>
      <trkpt lat="47.47166" lon="6.74364">
        <ele>324</ele>
        <time>2016-02-28T08:53:20.000Z</time>
      </trkpt>
      <trkpt lat="47.47163" lon="6.74363">
        <ele>324</ele>
        <time>2016-02-28T08:53:21.000Z</time>
      </trkpt>
      <trkpt lat="47.47161" lon="6.74363">
        <ele>324</ele>
        <time>2016-02-28T08:53:22.000Z</time>
      </trkpt>
      <trkpt lat="47.47158" lon="6.74363">
        <ele>324</ele>
        <time>2016-02-28T08:53:23.000Z</time>
      </trkpt>
      <trkpt lat="47.47155" lon="6.74363">
        <ele>324</ele>
        <time>2016-02-28T08:53:24.000Z</time>
      </trkpt>
      <trkpt lat="47.47152" lon="6.74363">
        <ele>324</ele>
        <time>2016-02-28T08:53:25.000Z</time>
      </trkpt>
      <trkpt lat="47.47149" lon="6.74362">
        <ele>324</ele>
        <time>2016-02-28T08:53:26.000Z</time>
      </trkpt>
      <trkpt lat="47.47146" lon="6.74361">
        <ele>324</ele>
        <time>2016-02-28T08:53:27.000Z</time>
      </trkpt>
      <trkpt lat="47.47143" lon="6.74361">
        <ele>324</ele>
        <time>2016-02-28T08:53:28.000Z</time>
      </trkpt>
      <trkpt lat="47.4714" lon="6.74361">
        <ele>325</ele>
        <time>2016-02-28T08:53:29.000Z</time>
      </trkpt>
      <trkpt lat="47.47137" lon="6.74362">
        <ele>325</ele>
        <time>2016-02-28T08:53:30.000Z</time>
      </trkpt>
      <trkpt lat="47.47135" lon="6.74363">
        <ele>325</ele>
        <time>2016-02-28T08:53:31.000Z</time>
      </trkpt>
      <trkpt lat="47.47133" lon="6.74363">
        <ele>325</ele>
        <time>2016-02-28T08:53:32.000Z</time>
      </trkpt>
      <trkpt lat="47.47128" lon="6.74364">
        <ele>325</ele>
        <time>2016-02-28T08:53:34.000Z</time>
      </trkpt>
      <trkpt lat="47.47126" lon="6.74365">
        <ele>325</ele>
        <time>2016-02-28T08:53:35.000Z</time>
      </trkpt>
      <trkpt lat="47.47124" lon="6.74366">
        <ele>326</ele>
        <time>2016-02-28T08:53:36.000Z</time>
      </trkpt>
      <trkpt lat="47.47121" lon="6.74366">
        <ele>326</ele>
        <time>2016-02-28T08:53:37.000Z</time>
      </trkpt>
      <trkpt lat="47.47117" lon="6.74368">
        <ele>326</ele>
        <time>2016-02-28T08:53:39.000Z</time>
      </trkpt>
      <trkpt lat="47.47115" lon="6.74368">
        <ele>326</ele>
        <time>2016-02-28T08:53:40.000Z</time>
      </trkpt>
      <trkpt lat="47.47111" lon="6.7437">
        <ele>326</ele>
        <time>2016-02-28T08:53:42.000Z</time>
      </trkpt>
      <trkpt lat="47.47109" lon="6.74371">
        <ele>326</ele>
        <time>2016-02-28T08:53:43.000Z</time>
      </trkpt>
      <trkpt lat="47.47105" lon="6.74373">
        <ele>327</ele>
        <time>2016-02-28T08:53:45.000Z</time>
      </trkpt>
      <trkpt lat="47.47104" lon="6.74374">
        <ele>327</ele>
        <time>2016-02-28T08:53:46.000Z</time>
      </trkpt>
      <trkpt lat="47.471" lon="6.74375">
        <ele>327</ele>
        <time>2016-02-28T08:53:48.000Z</time>
      </trkpt>
      <trkpt lat="47.47099" lon="6.74376">
        <ele>327</ele>
        <time>2016-02-28T08:53:49.000Z</time>
      </trkpt>
      <trkpt lat="47.47096" lon="6.74376">
        <ele>327</ele>
        <time>2016-02-28T08:53:51.000Z</time>
      </trkpt>
      <trkpt lat="47.47094" lon="6.74377">
        <ele>327</ele>
        <time>2016-02-28T08:53:52.000Z</time>
      </trkpt>
      <trkpt lat="47.47091" lon="6.74378">
        <ele>327</ele>
        <time>2016-02-28T08:53:54.000Z</time>
      </trkpt>
      <trkpt lat="47.47089" lon="6.74379">
        <ele>327</ele>
        <time>2016-02-28T08:53:55.000Z</time>
      </trkpt>
      <trkpt lat="47.47086" lon="6.74381">
        <ele>327</ele>
        <time>2016-02-28T08:53:57.000Z</time>
      </trkpt>
      <trkpt lat="47.47084" lon="6.74382">
        <ele>328</ele>
        <time>2016-02-28T08:53:58.000Z</time>
      </trkpt>
      <trkpt lat="47.4708" lon="6.74383">
        <ele>334</ele>
        <time>2016-02-28T08:54:00.000Z</time>
      </trkpt>
      <trkpt lat="47.47079" lon="6.74383">
        <ele>334</ele>
        <time>2016-02-28T08:54:01.000Z</time>
      </trkpt>
      <trkpt lat="47.47074" lon="6.74382">
        <ele>335</ele>
        <time>2016-02-28T08:54:06.000Z</time>
      </trkpt>
      <trkpt lat="47.47073" lon="6.74381">
        <ele>335</ele>
        <time>2016-02-28T08:54:07.000Z</time>
      </trkpt>
      <trkpt lat="47.47069" lon="6.74383">
        <ele>335</ele>
        <time>2016-02-28T08:54:12.000Z</time>
      </trkpt>
      <trkpt lat="47.47068" lon="6.74384">
        <ele>335</ele>
        <time>2016-02-28T08:54:13.000Z</time>
      </trkpt>
      <trkpt lat="47.47065" lon="6.74387">
        <ele>335</ele>
        <time>2016-02-28T08:54:16.000Z</time>
      </trkpt>
      <trkpt lat="47.47064" lon="6.74388">
        <ele>335</ele>
        <time>2016-02-28T08:54:17.000Z</time>
      </trkpt>
      <trkpt lat="47.4706" lon="6.74389">
        <ele>336</ele>
        <time>2016-02-28T08:54:21.000Z</time>
      </trkpt>
      <trkpt lat="47.47058" lon="6.74389">
        <ele>336</ele>
        <time>2016-02-28T08:54:22.000Z</time>
      </trkpt>
      <trkpt lat="47.47055" lon="6.74389">
        <ele>336</ele>
        <time>2016-02-28T08:54:24.000Z</time>
      </trkpt>
      <trkpt lat="47.47053" lon="6.7439">
        <ele>336</ele>
        <time>2016-02-28T08:54:25.000Z</time>
      </trkpt>
      <trkpt lat="47.4705" lon="6.74391">
        <ele>336</ele>
        <time>2016-02-28T08:54:27.000Z</time>
      </trkpt>
      <trkpt lat="47.47049" lon="6.74392">
        <ele>337</ele>
        <time>2016-02-28T08:54:28.000Z</time>
      </trkpt>
      <trkpt lat="47.47045" lon="6.74394">
        <ele>337</ele>
        <time>2016-02-28T08:54:30.000Z</time>
      </trkpt>
      <trkpt lat="47.47044" lon="6.74395">
        <ele>337</ele>
        <time>2016-02-28T08:54:31.000Z</time>
      </trkpt>
      <trkpt lat="47.47041" lon="6.74399">
        <ele>338</ele>
        <time>2016-02-28T08:54:34.000Z</time>
      </trkpt>
      <trkpt lat="47.4704" lon="6.744">
        <ele>338</ele>
        <time>2016-02-28T08:54:35.000Z</time>
      </trkpt>
      <trkpt lat="47.47036" lon="6.74403">
        <ele>338</ele>
        <time>2016-02-28T08:54:38.000Z</time>
      </trkpt>
      <trkpt lat="47.47036" lon="6.74404">
        <ele>338</ele>
        <time>2016-02-28T08:54:39.000Z</time>
      </trkpt>
      <trkpt lat="47.47033" lon="6.74408">
        <ele>339</ele>
        <time>2016-02-28T08:54:42.000Z</time>
      </trkpt>
      <trkpt lat="47.47032" lon="6.74409">
        <ele>339</ele>
        <time>2016-02-28T08:54:43.000Z</time>
      </trkpt>
      <trkpt lat="47.47028" lon="6.74412">
        <ele>340</ele>
        <time>2016-02-28T08:54:46.000Z</time>
      </trkpt>
      <trkpt lat="47.47027" lon="6.74413">
        <ele>340</ele>
        <time>2016-02-28T08:54:47.000Z</time>
      </trkpt>
      <trkpt lat="47.47023" lon="6.74416">
        <ele>341</ele>
        <time>2016-02-28T08:54:50.000Z</time>
      </trkpt>
      <trkpt lat="47.47022" lon="6.74417">
        <ele>343</ele>
        <time>2016-02-28T08:54:51.000Z</time>
      </trkpt>
      <trkpt lat="47.47019" lon="6.74421">
        <ele>344</ele>
        <time>2016-02-28T08:54:54.000Z</time>
      </trkpt>
      <trkpt lat="47.47017" lon="6.74422">
        <ele>344</ele>
        <time>2016-02-28T08:54:55.000Z</time>
      </trkpt>
      <trkpt lat="47.47015" lon="6.74427">
        <ele>344</ele>
        <time>2016-02-28T08:55:01.000Z</time>
      </trkpt>
      <trkpt lat="47.47014" lon="6.74428">
        <ele>344</ele>
        <time>2016-02-28T08:55:02.000Z</time>
      </trkpt>
      <trkpt lat="47.47016" lon="6.74425">
        <ele>344</ele>
        <time>2016-02-28T08:55:09.000Z</time>
      </trkpt>
      <trkpt lat="47.47018" lon="6.74424">
        <ele>344</ele>
        <time>2016-02-28T08:55:10.000Z</time>
      </trkpt>
      <trkpt lat="47.4702" lon="6.74423">
        <ele>343</ele>
        <time>2016-02-28T08:55:11.000Z</time>
      </trkpt>
      <trkpt lat="47.47023" lon="6.74421">
        <ele>343</ele>
        <time>2016-02-28T08:55:12.000Z</time>
      </trkpt>
      <trkpt lat="47.47025" lon="6.74419">
        <ele>343</ele>
        <time>2016-02-28T08:55:13.000Z</time>
      </trkpt>
      <trkpt lat="47.47027" lon="6.74417">
        <ele>342</ele>
        <time>2016-02-28T08:55:14.000Z</time>
      </trkpt>
      <trkpt lat="47.4703" lon="6.74414">
        <ele>339</ele>
        <time>2016-02-28T08:55:16.000Z</time>
      </trkpt>
      <trkpt lat="47.47031" lon="6.74413">
        <ele>339</ele>
        <time>2016-02-28T08:55:17.000Z</time>
      </trkpt>
      <trkpt lat="47.47029" lon="6.74417">
        <ele>342</ele>
        <time>2016-02-28T08:55:32.000Z</time>
      </trkpt>
      <trkpt lat="47.47028" lon="6.74418">
        <ele>342</ele>
        <time>2016-02-28T08:55:33.000Z</time>
      </trkpt>
      <trkpt lat="47.47024" lon="6.74421">
        <ele>343</ele>
        <time>2016-02-28T08:55:35.000Z</time>
      </trkpt>
      <trkpt lat="47.47022" lon="6.74422">
        <ele>343</ele>
        <time>2016-02-28T08:55:36.000Z</time>
      </trkpt>
      <trkpt lat="47.47019" lon="6.74426">
        <ele>343</ele>
        <time>2016-02-28T08:55:39.000Z</time>
      </trkpt>
      <trkpt lat="47.47018" lon="6.74427">
        <ele>343</ele>
        <time>2016-02-28T08:55:40.000Z</time>
      </trkpt>
      <trkpt lat="47.47015" lon="6.7443">
        <ele>344</ele>
        <time>2016-02-28T08:55:42.000Z</time>
      </trkpt>
      <trkpt lat="47.47013" lon="6.74432">
        <ele>344</ele>
        <time>2016-02-28T08:55:43.000Z</time>
      </trkpt>
      <trkpt lat="47.4701" lon="6.74435">
        <ele>344</ele>
        <time>2016-02-28T08:55:45.000Z</time>
      </trkpt>
      <trkpt lat="47.47009" lon="6.74437">
        <ele>344</ele>
        <time>2016-02-28T08:55:46.000Z</time>
      </trkpt>
      <trkpt lat="47.47006" lon="6.74441">
        <ele>344</ele>
        <time>2016-02-28T08:55:48.000Z</time>
      </trkpt>
      <trkpt lat="47.47005" lon="6.74442">
        <ele>344</ele>
        <time>2016-02-28T08:55:49.000Z</time>
      </trkpt>
      <trkpt lat="47.47001" lon="6.74445">
        <ele>344</ele>
        <time>2016-02-28T08:55:51.000Z</time>
      </trkpt>
      <trkpt lat="47.47" lon="6.74447">
        <ele>349</ele>
        <time>2016-02-28T08:55:52.000Z</time>
      </trkpt>
      <trkpt lat="47.46997" lon="6.74449">
        <ele>349</ele>
        <time>2016-02-28T08:55:53.000Z</time>
      </trkpt>
      <trkpt lat="47.46996" lon="6.74451">
        <ele>349</ele>
        <time>2016-02-28T08:55:54.000Z</time>
      </trkpt>
      <trkpt lat="47.46992" lon="6.74454">
        <ele>349</ele>
        <time>2016-02-28T08:55:56.000Z</time>
      </trkpt>
      <trkpt lat="47.46991" lon="6.74456">
        <ele>350</ele>
        <time>2016-02-28T08:55:57.000Z</time>
      </trkpt>
      <trkpt lat="47.46988" lon="6.74458">
        <ele>350</ele>
        <time>2016-02-28T08:55:59.000Z</time>
      </trkpt>
      <trkpt lat="47.46987" lon="6.7446">
        <ele>350</ele>
        <time>2016-02-28T08:56:00.000Z</time>
      </trkpt>
      <trkpt lat="47.46984" lon="6.74462">
        <ele>350</ele>
        <time>2016-02-28T08:56:02.000Z</time>
      </trkpt>
      <trkpt lat="47.46983" lon="6.74464">
        <ele>350</ele>
        <time>2016-02-28T08:56:03.000Z</time>
      </trkpt>
      <trkpt lat="47.4698" lon="6.74467">
        <ele>350</ele>
        <time>2016-02-28T08:56:05.000Z</time>
      </trkpt>
      <trkpt lat="47.46979" lon="6.74469">
        <ele>350</ele>
        <time>2016-02-28T08:56:06.000Z</time>
      </trkpt>
      <trkpt lat="47.46977" lon="6.74473">
        <ele>350</ele>
        <time>2016-02-28T08:56:08.000Z</time>
      </trkpt>
      <trkpt lat="47.46976" lon="6.74475">
        <ele>350</ele>
        <time>2016-02-28T08:56:09.000Z</time>
      </trkpt>
      <trkpt lat="47.46974" lon="6.74479">
        <ele>350</ele>
        <time>2016-02-28T08:56:11.000Z</time>
      </trkpt>
      <trkpt lat="47.46972" lon="6.74481">
        <ele>350</ele>
        <time>2016-02-28T08:56:12.000Z</time>
      </trkpt>
      <trkpt lat="47.46969" lon="6.74485">
        <ele>350</ele>
        <time>2016-02-28T08:56:15.000Z</time>
      </trkpt>
      <trkpt lat="47.46968" lon="6.74486">
        <ele>350</ele>
        <time>2016-02-28T08:56:16.000Z</time>
      </trkpt>
      <trkpt lat="47.46965" lon="6.74489">
        <ele>350</ele>
        <time>2016-02-28T08:56:19.000Z</time>
      </trkpt>
      <trkpt lat="47.46964" lon="6.74489">
        <ele>350</ele>
        <time>2016-02-28T08:56:20.000Z</time>
      </trkpt>
      <trkpt lat="47.46961" lon="6.74491">
        <ele>350</ele>
        <time>2016-02-28T08:56:22.000Z</time>
      </trkpt>
      <trkpt lat="47.46959" lon="6.74492">
        <ele>350</ele>
        <time>2016-02-28T08:56:23.000Z</time>
      </trkpt>
      <trkpt lat="47.46955" lon="6.74493">
        <ele>350</ele>
        <time>2016-02-28T08:56:26.000Z</time>
      </trkpt>
      <trkpt lat="47.46953" lon="6.74493">
        <ele>351</ele>
        <time>2016-02-28T08:56:27.000Z</time>
      </trkpt>
      <trkpt lat="47.4695" lon="6.74494">
        <ele>351</ele>
        <time>2016-02-28T08:56:29.000Z</time>
      </trkpt>
      <trkpt lat="47.46948" lon="6.74495">
        <ele>351</ele>
        <time>2016-02-28T08:56:30.000Z</time>
      </trkpt>
      <trkpt lat="47.46946" lon="6.74496">
        <ele>351</ele>
        <time>2016-02-28T08:56:31.000Z</time>
      </trkpt>
      <trkpt lat="47.46943" lon="6.74498">
        <ele>351</ele>
        <time>2016-02-28T08:56:32.000Z</time>
      </trkpt>
      <trkpt lat="47.4694" lon="6.745">
        <ele>349</ele>
        <time>2016-02-28T08:56:33.000Z</time>
      </trkpt>
      <trkpt lat="47.46938" lon="6.74503">
        <ele>349</ele>
        <time>2016-02-28T08:56:34.000Z</time>
      </trkpt>
      <trkpt lat="47.46936" lon="6.74505">
        <ele>350</ele>
        <time>2016-02-28T08:56:35.000Z</time>
      </trkpt>
      <trkpt lat="47.46934" lon="6.74508">
        <ele>350</ele>
        <time>2016-02-28T08:56:36.000Z</time>
      </trkpt>
      <trkpt lat="47.46931" lon="6.7451">
        <ele>350</ele>
        <time>2016-02-28T08:56:37.000Z</time>
      </trkpt>
      <trkpt lat="47.46929" lon="6.74512">
        <ele>350</ele>
        <time>2016-02-28T08:56:38.000Z</time>
      </trkpt>
      <trkpt lat="47.46927" lon="6.74515">
        <ele>350</ele>
        <time>2016-02-28T08:56:39.000Z</time>
      </trkpt>
      <trkpt lat="47.46925" lon="6.74516">
        <ele>350</ele>
        <time>2016-02-28T08:56:40.000Z</time>
      </trkpt>
      <trkpt lat="47.46922" lon="6.7452">
        <ele>349</ele>
        <time>2016-02-28T08:56:42.000Z</time>
      </trkpt>
      <trkpt lat="47.46921" lon="6.74521">
        <ele>349</ele>
        <time>2016-02-28T08:56:43.000Z</time>
      </trkpt>
      <trkpt lat="47.46919" lon="6.74518">
        <ele>350</ele>
        <time>2016-02-28T08:56:46.000Z</time>
      </trkpt>
      <trkpt lat="47.46919" lon="6.74515">
        <ele>350</ele>
        <time>2016-02-28T08:56:47.000Z</time>
      </trkpt>
      <trkpt lat="47.46918" lon="6.74508">
        <ele>351</ele>
        <time>2016-02-28T08:56:49.000Z</time>
      </trkpt>
      <trkpt lat="47.46918" lon="6.74506">
        <ele>351</ele>
        <time>2016-02-28T08:56:50.000Z</time>
      </trkpt>
      <trkpt lat="47.46916" lon="6.74501">
        <ele>352</ele>
        <time>2016-02-28T08:56:52.000Z</time>
      </trkpt>
      <trkpt lat="47.46915" lon="6.74498">
        <ele>353</ele>
        <time>2016-02-28T08:56:53.000Z</time>
      </trkpt>
      <trkpt lat="47.46913" lon="6.74493">
        <ele>355</ele>
        <time>2016-02-28T08:56:55.000Z</time>
      </trkpt>
      <trkpt lat="47.46913" lon="6.74491">
        <ele>356</ele>
        <time>2016-02-28T08:56:56.000Z</time>
      </trkpt>
      <trkpt lat="47.46912" lon="6.74485">
        <ele>358</ele>
        <time>2016-02-28T08:56:58.000Z</time>
      </trkpt>
      <trkpt lat="47.46911" lon="6.74483">
        <ele>359</ele>
        <time>2016-02-28T08:56:59.000Z</time>
      </trkpt>
      <trkpt lat="47.4691" lon="6.74477">
        <ele>360</ele>
        <time>2016-02-28T08:57:02.000Z</time>
      </trkpt>
      <trkpt lat="47.4691" lon="6.74475">
        <ele>360</ele>
        <time>2016-02-28T08:57:03.000Z</time>
      </trkpt>
      <trkpt lat="47.46908" lon="6.74469">
        <ele>361</ele>
        <time>2016-02-28T08:57:05.000Z</time>
      </trkpt>
      <trkpt lat="47.46907" lon="6.74467">
        <ele>361</ele>
        <time>2016-02-28T08:57:06.000Z</time>
      </trkpt>
      <trkpt lat="47.46906" lon="6.74461">
        <ele>362</ele>
        <time>2016-02-28T08:57:08.000Z</time>
      </trkpt>
      <trkpt lat="47.46906" lon="6.74458">
        <ele>362</ele>
        <time>2016-02-28T08:57:09.000Z</time>
      </trkpt>
      <trkpt lat="47.46904" lon="6.74453">
        <ele>362</ele>
        <time>2016-02-28T08:57:11.000Z</time>
      </trkpt>
      <trkpt lat="47.46904" lon="6.74451">
        <ele>362</ele>
        <time>2016-02-28T08:57:12.000Z</time>
      </trkpt>
      <trkpt lat="47.46903" lon="6.74447">
        <ele>362</ele>
        <time>2016-02-28T08:57:14.000Z</time>
      </trkpt>
      <trkpt lat="47.46902" lon="6.74444">
        <ele>363</ele>
        <time>2016-02-28T08:57:15.000Z</time>
      </trkpt>
      <trkpt lat="47.46901" lon="6.74439">
        <ele>362</ele>
        <time>2016-02-28T08:57:17.000Z</time>
      </trkpt>
      <trkpt lat="47.469" lon="6.74437">
        <ele>362</ele>
        <time>2016-02-28T08:57:18.000Z</time>
      </trkpt>
      <trkpt lat="47.46899" lon="6.74432">
        <ele>362</ele>
        <time>2016-02-28T08:57:20.000Z</time>
      </trkpt>
      <trkpt lat="47.46899" lon="6.74429">
        <ele>362</ele>
        <time>2016-02-28T08:57:21.000Z</time>
      </trkpt>
      <trkpt lat="47.46898" lon="6.74424">
        <ele>362</ele>
        <time>2016-02-28T08:57:23.000Z</time>
      </trkpt>
      <trkpt lat="47.46898" lon="6.74421">
        <ele>362</ele>
        <time>2016-02-28T08:57:24.000Z</time>
      </trkpt>
      <trkpt lat="47.46896" lon="6.74416">
        <ele>367</ele>
        <time>2016-02-28T08:57:26.000Z</time>
      </trkpt>
      <trkpt lat="47.46894" lon="6.74413">
        <ele>368</ele>
        <time>2016-02-28T08:57:27.000Z</time>
      </trkpt>
      <trkpt lat="47.46892" lon="6.74409">
        <ele>369</ele>
        <time>2016-02-28T08:57:29.000Z</time>
      </trkpt>
      <trkpt lat="47.46892" lon="6.74406">
        <ele>369</ele>
        <time>2016-02-28T08:57:30.000Z</time>
      </trkpt>
      <trkpt lat="47.46891" lon="6.74401">
        <ele>370</ele>
        <time>2016-02-28T08:57:32.000Z</time>
      </trkpt>
      <trkpt lat="47.46891" lon="6.74398">
        <ele>370</ele>
        <time>2016-02-28T08:57:33.000Z</time>
      </trkpt>
      <trkpt lat="47.4689" lon="6.74393">
        <ele>371</ele>
        <time>2016-02-28T08:57:35.000Z</time>
      </trkpt>
      <trkpt lat="47.4689" lon="6.7439">
        <ele>372</ele>
        <time>2016-02-28T08:57:36.000Z</time>
      </trkpt>
      <trkpt lat="47.46888" lon="6.74385">
        <ele>372</ele>
        <time>2016-02-28T08:57:39.000Z</time>
      </trkpt>
      <trkpt lat="47.46888" lon="6.74382">
        <ele>373</ele>
        <time>2016-02-28T08:57:40.000Z</time>
      </trkpt>
      <trkpt lat="47.46887" lon="6.74378">
        <ele>373</ele>
        <time>2016-02-28T08:57:42.000Z</time>
      </trkpt>
      <trkpt lat="47.46886" lon="6.74375">
        <ele>373</ele>
        <time>2016-02-28T08:57:43.000Z</time>
      </trkpt>
      <trkpt lat="47.46887" lon="6.74371">
        <ele>374</ele>
        <time>2016-02-28T08:57:45.000Z</time>
      </trkpt>
      <trkpt lat="47.46888" lon="6.74369">
        <ele>374</ele>
        <time>2016-02-28T08:57:46.000Z</time>
      </trkpt>
      <trkpt lat="47.46889" lon="6.74363">
        <ele>374</ele>
        <time>2016-02-28T08:57:49.000Z</time>
      </trkpt>
      <trkpt lat="47.4689" lon="6.74362">
        <ele>374</ele>
        <time>2016-02-28T08:57:50.000Z</time>
      </trkpt>
      <trkpt lat="47.46891" lon="6.74356">
        <ele>373</ele>
        <time>2016-02-28T08:57:53.000Z</time>
      </trkpt>
      <trkpt lat="47.46891" lon="6.74355">
        <ele>373</ele>
        <time>2016-02-28T08:57:54.000Z</time>
      </trkpt>
      <trkpt lat="47.46893" lon="6.74349">
        <ele>373</ele>
        <time>2016-02-28T08:57:58.000Z</time>
      </trkpt>
      <trkpt lat="47.46893" lon="6.74347">
        <ele>373</ele>
        <time>2016-02-28T08:57:59.000Z</time>
      </trkpt>
      <trkpt lat="47.46894" lon="6.74342">
        <ele>373</ele>
        <time>2016-02-28T08:58:01.000Z</time>
      </trkpt>
      <trkpt lat="47.46894" lon="6.7434">
        <ele>373</ele>
        <time>2016-02-28T08:58:02.000Z</time>
      </trkpt>
      <trkpt lat="47.46895" lon="6.74333">
        <ele>377</ele>
        <time>2016-02-28T08:58:05.000Z</time>
      </trkpt>
      <trkpt lat="47.46895" lon="6.74332">
        <ele>377</ele>
        <time>2016-02-28T08:58:06.000Z</time>
      </trkpt>
      <trkpt lat="47.46896" lon="6.74327">
        <ele>377</ele>
        <time>2016-02-28T08:58:12.000Z</time>
      </trkpt>
      <trkpt lat="47.46896" lon="6.74325">
        <ele>377</ele>
        <time>2016-02-28T08:58:13.000Z</time>
      </trkpt>
      <trkpt lat="47.469" lon="6.74323">
        <ele>377</ele>
        <time>2016-02-28T08:58:19.000Z</time>
      </trkpt>
      <trkpt lat="47.469" lon="6.74322">
        <ele>377</ele>
        <time>2016-02-28T08:58:20.000Z</time>
      </trkpt>
      <trkpt lat="47.46901" lon="6.74316">
        <ele>378</ele>
        <time>2016-02-28T08:58:23.000Z</time>
      </trkpt>
      <trkpt lat="47.46901" lon="6.74313">
        <ele>378</ele>
        <time>2016-02-28T08:58:24.000Z</time>
      </trkpt>
      <trkpt lat="47.46902" lon="6.74308">
        <ele>379</ele>
        <time>2016-02-28T08:58:26.000Z</time>
      </trkpt>
      <trkpt lat="47.46902" lon="6.74306">
        <ele>379</ele>
        <time>2016-02-28T08:58:27.000Z</time>
      </trkpt>
      <trkpt lat="47.46902" lon="6.743">
        <ele>380</ele>
        <time>2016-02-28T08:58:30.000Z</time>
      </trkpt>
      <trkpt lat="47.46903" lon="6.74298">
        <ele>380</ele>
        <time>2016-02-28T08:58:31.000Z</time>
      </trkpt>
      <trkpt lat="47.46905" lon="6.74292">
        <ele>380</ele>
        <time>2016-02-28T08:58:34.000Z</time>
      </trkpt>
      <trkpt lat="47.46906" lon="6.7429">
        <ele>380</ele>
        <time>2016-02-28T08:58:35.000Z</time>
      </trkpt>
      <trkpt lat="47.46907" lon="6.74285">
        <ele>381</ele>
        <time>2016-02-28T08:58:37.000Z</time>
      </trkpt>
      <trkpt lat="47.46907" lon="6.74283">
        <ele>381</ele>
        <time>2016-02-28T08:58:38.000Z</time>
      </trkpt>
      <trkpt lat="47.46906" lon="6.7428">
        <ele>381</ele>
        <time>2016-02-28T08:58:39.000Z</time>
      </trkpt>
      <trkpt lat="47.46904" lon="6.74277">
        <ele>381</ele>
        <time>2016-02-28T08:58:40.000Z</time>
      </trkpt>
      <trkpt lat="47.46902" lon="6.74272">
        <ele>381</ele>
        <time>2016-02-28T08:58:42.000Z</time>
      </trkpt>
      <trkpt lat="47.46902" lon="6.7427">
        <ele>381</ele>
        <time>2016-02-28T08:58:43.000Z</time>
      </trkpt>
      <trkpt lat="47.46905" lon="6.74265">
        <ele>380</ele>
        <time>2016-02-28T08:58:46.000Z</time>
      </trkpt>
      <trkpt lat="47.46905" lon="6.74264">
        <ele>380</ele>
        <time>2016-02-28T08:58:47.000Z</time>
      </trkpt>
      <trkpt lat="47.46907" lon="6.74259">
        <ele>379</ele>
        <time>2016-02-28T08:58:50.000Z</time>
      </trkpt>
      <trkpt lat="47.46907" lon="6.74257">
        <ele>379</ele>
        <time>2016-02-28T08:58:51.000Z</time>
      </trkpt>
      <trkpt lat="47.46908" lon="6.74251">
        <ele>378</ele>
        <time>2016-02-28T08:58:55.000Z</time>
      </trkpt>
      <trkpt lat="47.46908" lon="6.7425">
        <ele>380</ele>
        <time>2016-02-28T08:58:56.000Z</time>
      </trkpt>
      <trkpt lat="47.46909" lon="6.74245">
        <ele>380</ele>
        <time>2016-02-28T08:58:58.000Z</time>
      </trkpt>
      <trkpt lat="47.4691" lon="6.74243">
        <ele>380</ele>
        <time>2016-02-28T08:58:59.000Z</time>
      </trkpt>
      <trkpt lat="47.46912" lon="6.74239">
        <ele>381</ele>
        <time>2016-02-28T08:59:01.000Z</time>
      </trkpt>
      <trkpt lat="47.46913" lon="6.74237">
        <ele>382</ele>
        <time>2016-02-28T08:59:02.000Z</time>
      </trkpt>
      <trkpt lat="47.46913" lon="6.74232">
        <ele>383</ele>
        <time>2016-02-28T08:59:04.000Z</time>
      </trkpt>
      <trkpt lat="47.46914" lon="6.7423">
        <ele>383</ele>
        <time>2016-02-28T08:59:05.000Z</time>
      </trkpt>
      <trkpt lat="47.46916" lon="6.74225">
        <ele>384</ele>
        <time>2016-02-28T08:59:08.000Z</time>
      </trkpt>
      <trkpt lat="47.46916" lon="6.74224">
        <ele>385</ele>
        <time>2016-02-28T08:59:09.000Z</time>
      </trkpt>
      <trkpt lat="47.46916" lon="6.74217">
        <ele>386</ele>
        <time>2016-02-28T08:59:13.000Z</time>
      </trkpt>
      <trkpt lat="47.46916" lon="6.74216">
        <ele>386</ele>
        <time>2016-02-28T08:59:14.000Z</time>
      </trkpt>
      <trkpt lat="47.46916" lon="6.7421">
        <ele>386</ele>
        <time>2016-02-28T08:59:17.000Z</time>
      </trkpt>
      <trkpt lat="47.46916" lon="6.74208">
        <ele>386</ele>
        <time>2016-02-28T08:59:18.000Z</time>
      </trkpt>
      <trkpt lat="47.46917" lon="6.74203">
        <ele>370</ele>
        <time>2016-02-28T08:59:21.000Z</time>
      </trkpt>
      <trkpt lat="47.46917" lon="6.74201">
        <ele>370</ele>
        <time>2016-02-28T08:59:22.000Z</time>
      </trkpt>
      <trkpt lat="47.46919" lon="6.74195">
        <ele>371</ele>
        <time>2016-02-28T08:59:26.000Z</time>
      </trkpt>
      <trkpt lat="47.46918" lon="6.74193">
        <ele>371</ele>
        <time>2016-02-28T08:59:27.000Z</time>
      </trkpt>
      <trkpt lat="47.46918" lon="6.74189">
        <ele>372</ele>
        <time>2016-02-28T08:59:29.000Z</time>
      </trkpt>
      <trkpt lat="47.46918" lon="6.74186">
        <ele>373</ele>
        <time>2016-02-28T08:59:30.000Z</time>
      </trkpt>
      <trkpt lat="47.46918" lon="6.74181">
        <ele>374</ele>
        <time>2016-02-28T08:59:32.000Z</time>
      </trkpt>
      <trkpt lat="47.46918" lon="6.74179">
        <ele>375</ele>
        <time>2016-02-28T08:59:33.000Z</time>
      </trkpt>
      <trkpt lat="47.46918" lon="6.74173">
        <ele>378</ele>
        <time>2016-02-28T08:59:35.000Z</time>
      </trkpt>
      <trkpt lat="47.46918" lon="6.7417">
        <ele>379</ele>
        <time>2016-02-28T08:59:36.000Z</time>
      </trkpt>
      <trkpt lat="47.46918" lon="6.74166">
        <ele>381</ele>
        <time>2016-02-28T08:59:38.000Z</time>
      </trkpt>
      <trkpt lat="47.46919" lon="6.74163">
        <ele>380</ele>
        <time>2016-02-28T08:59:39.000Z</time>
      </trkpt>
      <trkpt lat="47.46919" lon="6.74157">
        <ele>378</ele>
        <time>2016-02-28T08:59:41.000Z</time>
      </trkpt>
      <trkpt lat="47.46919" lon="6.74155">
        <ele>377</ele>
        <time>2016-02-28T08:59:42.000Z</time>
      </trkpt>
      <trkpt lat="47.46919" lon="6.7415">
        <ele>376</ele>
        <time>2016-02-28T08:59:44.000Z</time>
      </trkpt>
      <trkpt lat="47.4692" lon="6.74148">
        <ele>376</ele>
        <time>2016-02-28T08:59:45.000Z</time>
      </trkpt>
      <trkpt lat="47.46921" lon="6.74144">
        <ele>375</ele>
        <time>2016-02-28T08:59:47.000Z</time>
      </trkpt>
      <trkpt lat="47.46922" lon="6.74141">
        <ele>375</ele>
        <time>2016-02-28T08:59:48.000Z</time>
      </trkpt>
      <trkpt lat="47.46922" lon="6.74136">
        <ele>375</ele>
        <time>2016-02-28T08:59:50.000Z</time>
      </trkpt>
      <trkpt lat="47.46922" lon="6.74134">
        <ele>374</ele>
        <time>2016-02-28T08:59:51.000Z</time>
      </trkpt>
      <trkpt lat="47.46922" lon="6.74128">
        <ele>374</ele>
        <time>2016-02-28T08:59:54.000Z</time>
      </trkpt>
      <trkpt lat="47.46922" lon="6.74126">
        <ele>374</ele>
        <time>2016-02-28T08:59:55.000Z</time>
      </trkpt>
      <trkpt lat="47.46921" lon="6.74121">
        <ele>375</ele>
        <time>2016-02-28T08:59:57.000Z</time>
      </trkpt>
      <trkpt lat="47.4692" lon="6.74118">
        <ele>375</ele>
        <time>2016-02-28T08:59:58.000Z</time>
      </trkpt>
      <trkpt lat="47.46918" lon="6.74113">
        <ele>376</ele>
        <time>2016-02-28T09:00:01.000Z</time>
      </trkpt>
      <trkpt lat="47.46917" lon="6.74111">
        <ele>376</ele>
        <time>2016-02-28T09:00:02.000Z</time>
      </trkpt>
      <trkpt lat="47.46916" lon="6.74106">
        <ele>390</ele>
        <time>2016-02-28T09:00:04.000Z</time>
      </trkpt>
      <trkpt lat="47.46916" lon="6.74103">
        <ele>390</ele>
        <time>2016-02-28T09:00:05.000Z</time>
      </trkpt>
      <trkpt lat="47.46916" lon="6.74097">
        <ele>389</ele>
        <time>2016-02-28T09:00:07.000Z</time>
      </trkpt>
      <trkpt lat="47.46916" lon="6.74094">
        <ele>389</ele>
        <time>2016-02-28T09:00:08.000Z</time>
      </trkpt>
      <trkpt lat="47.46915" lon="6.74088">
        <ele>388</ele>
        <time>2016-02-28T09:00:10.000Z</time>
      </trkpt>
      <trkpt lat="47.46914" lon="6.74086">
        <ele>387</ele>
        <time>2016-02-28T09:00:11.000Z</time>
      </trkpt>
      <trkpt lat="47.46912" lon="6.74081">
        <ele>388</ele>
        <time>2016-02-28T09:00:13.000Z</time>
      </trkpt>
      <trkpt lat="47.46912" lon="6.74078">
        <ele>388</ele>
        <time>2016-02-28T09:00:14.000Z</time>
      </trkpt>
      <trkpt lat="47.46912" lon="6.74072">
        <ele>389</ele>
        <time>2016-02-28T09:00:16.000Z</time>
      </trkpt>
      <trkpt lat="47.46912" lon="6.74069">
        <ele>390</ele>
        <time>2016-02-28T09:00:17.000Z</time>
      </trkpt>
      <trkpt lat="47.46911" lon="6.74064">
        <ele>391</ele>
        <time>2016-02-28T09:00:19.000Z</time>
      </trkpt>
      <trkpt lat="47.46911" lon="6.74062">
        <ele>391</ele>
        <time>2016-02-28T09:00:20.000Z</time>
      </trkpt>
      <trkpt lat="47.4691" lon="6.74056">
        <ele>391</ele>
        <time>2016-02-28T09:00:23.000Z</time>
      </trkpt>
      <trkpt lat="47.4691" lon="6.74053">
        <ele>392</ele>
        <time>2016-02-28T09:00:24.000Z</time>
      </trkpt>
      <trkpt lat="47.46908" lon="6.74048">
        <ele>392</ele>
        <time>2016-02-28T09:00:26.000Z</time>
      </trkpt>
      <trkpt lat="47.46907" lon="6.74046">
        <ele>392</ele>
        <time>2016-02-28T09:00:27.000Z</time>
      </trkpt>
      <trkpt lat="47.46907" lon="6.74041">
        <ele>392</ele>
        <time>2016-02-28T09:00:29.000Z</time>
      </trkpt>
      <trkpt lat="47.46907" lon="6.74039">
        <ele>392</ele>
        <time>2016-02-28T09:00:30.000Z</time>
      </trkpt>
      <trkpt lat="47.46907" lon="6.74034">
        <ele>392</ele>
        <time>2016-02-28T09:00:32.000Z</time>
      </trkpt>
      <trkpt lat="47.46906" lon="6.74032">
        <ele>392</ele>
        <time>2016-02-28T09:00:33.000Z</time>
      </trkpt>
      <trkpt lat="47.46906" lon="6.74026">
        <ele>392</ele>
        <time>2016-02-28T09:00:36.000Z</time>
      </trkpt>
      <trkpt lat="47.46905" lon="6.74024">
        <ele>392</ele>
        <time>2016-02-28T09:00:37.000Z</time>
      </trkpt>
      <trkpt lat="47.46904" lon="6.74018">
        <ele>392</ele>
        <time>2016-02-28T09:00:41.000Z</time>
      </trkpt>
      <trkpt lat="47.46903" lon="6.74016">
        <ele>392</ele>
        <time>2016-02-28T09:00:42.000Z</time>
      </trkpt>
      <trkpt lat="47.46901" lon="6.74013">
        <ele>392</ele>
        <time>2016-02-28T09:00:44.000Z</time>
      </trkpt>
      <trkpt lat="47.469" lon="6.74011">
        <ele>392</ele>
        <time>2016-02-28T09:00:45.000Z</time>
      </trkpt>
      <trkpt lat="47.46898" lon="6.74008">
        <ele>392</ele>
        <time>2016-02-28T09:00:47.000Z</time>
      </trkpt>
      <trkpt lat="47.46896" lon="6.74006">
        <ele>392</ele>
        <time>2016-02-28T09:00:48.000Z</time>
      </trkpt>
      <trkpt lat="47.46895" lon="6.74001">
        <ele>392</ele>
        <time>2016-02-28T09:00:50.000Z</time>
      </trkpt>
      <trkpt lat="47.46894" lon="6.73998">
        <ele>393</ele>
        <time>2016-02-28T09:00:51.000Z</time>
      </trkpt>
      <trkpt lat="47.46892" lon="6.73993">
        <ele>393</ele>
        <time>2016-02-28T09:00:53.000Z</time>
      </trkpt>
      <trkpt lat="47.46891" lon="6.7399">
        <ele>393</ele>
        <time>2016-02-28T09:00:54.000Z</time>
      </trkpt>
      <trkpt lat="47.4689" lon="6.73985">
        <ele>394</ele>
        <time>2016-02-28T09:00:56.000Z</time>
      </trkpt>
      <trkpt lat="47.46889" lon="6.73983">
        <ele>394</ele>
        <time>2016-02-28T09:00:57.000Z</time>
      </trkpt>
      <trkpt lat="47.46888" lon="6.73978">
        <ele>394</ele>
        <time>2016-02-28T09:00:59.000Z</time>
      </trkpt>
      <trkpt lat="47.46888" lon="6.73975">
        <ele>394</ele>
        <time>2016-02-28T09:01:00.000Z</time>
      </trkpt>
      <trkpt lat="47.46887" lon="6.73969">
        <ele>394</ele>
        <time>2016-02-28T09:01:03.000Z</time>
      </trkpt>
      <trkpt lat="47.46887" lon="6.73966">
        <ele>395</ele>
        <time>2016-02-28T09:01:04.000Z</time>
      </trkpt>
      <trkpt lat="47.46887" lon="6.73961">
        <ele>395</ele>
        <time>2016-02-28T09:01:06.000Z</time>
      </trkpt>
      <trkpt lat="47.46887" lon="6.73958">
        <ele>395</ele>
        <time>2016-02-28T09:01:07.000Z</time>
      </trkpt>
      <trkpt lat="47.46886" lon="6.73954">
        <ele>395</ele>
        <time>2016-02-28T09:01:09.000Z</time>
      </trkpt>
      <trkpt lat="47.46885" lon="6.73952">
        <ele>395</ele>
        <time>2016-02-28T09:01:10.000Z</time>
      </trkpt>
      <trkpt lat="47.46883" lon="6.73948">
        <ele>395</ele>
        <time>2016-02-28T09:01:12.000Z</time>
      </trkpt>
      <trkpt lat="47.46882" lon="6.73946">
        <ele>395</ele>
        <time>2016-02-28T09:01:13.000Z</time>
      </trkpt>
      <trkpt lat="47.4688" lon="6.73942">
        <ele>396</ele>
        <time>2016-02-28T09:01:15.000Z</time>
      </trkpt>
      <trkpt lat="47.46878" lon="6.7394">
        <ele>396</ele>
        <time>2016-02-28T09:01:16.000Z</time>
      </trkpt>
      <trkpt lat="47.46875" lon="6.73937">
        <ele>396</ele>
        <time>2016-02-28T09:01:18.000Z</time>
      </trkpt>
      <trkpt lat="47.46874" lon="6.73935">
        <ele>396</ele>
        <time>2016-02-28T09:01:19.000Z</time>
      </trkpt>
      <trkpt lat="47.46872" lon="6.7393">
        <ele>396</ele>
        <time>2016-02-28T09:01:21.000Z</time>
      </trkpt>
      <trkpt lat="47.46872" lon="6.73928">
        <ele>396</ele>
        <time>2016-02-28T09:01:22.000Z</time>
      </trkpt>
      <trkpt lat="47.46871" lon="6.73923">
        <ele>396</ele>
        <time>2016-02-28T09:01:25.000Z</time>
      </trkpt>
      <trkpt lat="47.4687" lon="6.73921">
        <ele>396</ele>
        <time>2016-02-28T09:01:26.000Z</time>
      </trkpt>
      <trkpt lat="47.46868" lon="6.73918">
        <ele>397</ele>
        <time>2016-02-28T09:01:28.000Z</time>
      </trkpt>
      <trkpt lat="47.46867" lon="6.73916">
        <ele>398</ele>
        <time>2016-02-28T09:01:29.000Z</time>
      </trkpt>
      <trkpt lat="47.46867" lon="6.73911">
        <ele>399</ele>
        <time>2016-02-28T09:01:31.000Z</time>
      </trkpt>
      <trkpt lat="47.46867" lon="6.73908">
        <ele>399</ele>
        <time>2016-02-28T09:01:32.000Z</time>
      </trkpt>
      <trkpt lat="47.46867" lon="6.73902">
        <ele>399</ele>
        <time>2016-02-28T09:01:34.000Z</time>
      </trkpt>
      <trkpt lat="47.46866" lon="6.73899">
        <ele>399</ele>
        <time>2016-02-28T09:01:35.000Z</time>
      </trkpt>
      <trkpt lat="47.46866" lon="6.73894">
        <ele>399</ele>
        <time>2016-02-28T09:01:37.000Z</time>
      </trkpt>
      <trkpt lat="47.46865" lon="6.73891">
        <ele>399</ele>
        <time>2016-02-28T09:01:38.000Z</time>
      </trkpt>
      <trkpt lat="47.46864" lon="6.73886">
        <ele>399</ele>
        <time>2016-02-28T09:01:40.000Z</time>
      </trkpt>
      <trkpt lat="47.46864" lon="6.73884">
        <ele>399</ele>
        <time>2016-02-28T09:01:41.000Z</time>
      </trkpt>
      <trkpt lat="47.46863" lon="6.7388">
        <ele>399</ele>
        <time>2016-02-28T09:01:42.000Z</time>
      </trkpt>
      <trkpt lat="47.46861" lon="6.73876">
        <ele>399</ele>
        <time>2016-02-28T09:01:43.000Z</time>
      </trkpt>
      <trkpt lat="47.4686" lon="6.73871">
        <ele>399</ele>
        <time>2016-02-28T09:01:44.000Z</time>
      </trkpt>
      <trkpt lat="47.46859" lon="6.73867">
        <ele>400</ele>
        <time>2016-02-28T09:01:45.000Z</time>
      </trkpt>
      <trkpt lat="47.46858" lon="6.73862">
        <ele>400</ele>
        <time>2016-02-28T09:01:46.000Z</time>
      </trkpt>
      <trkpt lat="47.46857" lon="6.73858">
        <ele>400</ele>
        <time>2016-02-28T09:01:47.000Z</time>
      </trkpt>
      <trkpt lat="47.46855" lon="6.73853">
        <ele>400</ele>
        <time>2016-02-28T09:01:49.000Z</time>
      </trkpt>
      <trkpt lat="47.46855" lon="6.73849">
        <ele>401</ele>
        <time>2016-02-28T09:01:50.000Z</time>
      </trkpt>
      <trkpt lat="47.46854" lon="6.73845">
        <ele>401</ele>
        <time>2016-02-28T09:01:51.000Z</time>
      </trkpt>
      <trkpt lat="47.46853" lon="6.7384">
        <ele>401</ele>
        <time>2016-02-28T09:01:52.000Z</time>
      </trkpt>
      <trkpt lat="47.46852" lon="6.73835">
        <ele>402</ele>
        <time>2016-02-28T09:01:53.000Z</time>
      </trkpt>
      <trkpt lat="47.4685" lon="6.7383">
        <ele>402</ele>
        <time>2016-02-28T09:01:54.000Z</time>
      </trkpt>
      <trkpt lat="47.46849" lon="6.73824">
        <ele>402</ele>
        <time>2016-02-28T09:01:55.000Z</time>
      </trkpt>
      <trkpt lat="47.46848" lon="6.73819">
        <ele>402</ele>
        <time>2016-02-28T09:01:56.000Z</time>
      </trkpt>
      <trkpt lat="47.46847" lon="6.73813">
        <ele>401</ele>
        <time>2016-02-28T09:01:57.000Z</time>
      </trkpt>
      <trkpt lat="47.46846" lon="6.73808">
        <ele>401</ele>
        <time>2016-02-28T09:01:58.000Z</time>
      </trkpt>
      <trkpt lat="47.46844" lon="6.73803">
        <ele>401</ele>
        <time>2016-02-28T09:01:59.000Z</time>
      </trkpt>
      <trkpt lat="47.4684" lon="6.73798">
        <ele>401</ele>
        <time>2016-02-28T09:02:00.000Z</time>
      </trkpt>
      <trkpt lat="47.46836" lon="6.73794">
        <ele>401</ele>
        <time>2016-02-28T09:02:01.000Z</time>
      </trkpt>
      <trkpt lat="47.46831" lon="6.7379">
        <ele>402</ele>
        <time>2016-02-28T09:02:02.000Z</time>
      </trkpt>
      <trkpt lat="47.46827" lon="6.73788">
        <ele>401</ele>
        <time>2016-02-28T09:02:03.000Z</time>
      </trkpt>
      <trkpt lat="47.46822" lon="6.73786">
        <ele>401</ele>
        <time>2016-02-28T09:02:04.000Z</time>
      </trkpt>
      <trkpt lat="47.46818" lon="6.73785">
        <ele>401</ele>
        <time>2016-02-28T09:02:05.000Z</time>
      </trkpt>
      <trkpt lat="47.46813" lon="6.73785">
        <ele>401</ele>
        <time>2016-02-28T09:02:06.000Z</time>
      </trkpt>
      <trkpt lat="47.46807" lon="6.73786">
        <ele>401</ele>
        <time>2016-02-28T09:02:07.000Z</time>
      </trkpt>
      <trkpt lat="47.46802" lon="6.73787">
        <ele>401</ele>
        <time>2016-02-28T09:02:08.000Z</time>
      </trkpt>
      <trkpt lat="47.46796" lon="6.73789">
        <ele>401</ele>
        <time>2016-02-28T09:02:09.000Z</time>
      </trkpt>
      <trkpt lat="47.46791" lon="6.73791">
        <ele>401</ele>
        <time>2016-02-28T09:02:10.000Z</time>
      </trkpt>
      <trkpt lat="47.46779" lon="6.73791">
        <ele>400</ele>
        <time>2016-02-28T09:02:11.000Z</time>
      </trkpt>
      <trkpt lat="47.46773" lon="6.73792">
        <ele>400</ele>
        <time>2016-02-28T09:02:12.000Z</time>
      </trkpt>
      <trkpt lat="47.46766" lon="6.73794">
        <ele>400</ele>
        <time>2016-02-28T09:02:13.000Z</time>
      </trkpt>
      <trkpt lat="47.46764" lon="6.73802">
        <ele>401</ele>
        <time>2016-02-28T09:02:14.000Z</time>
      </trkpt>
      <trkpt lat="47.46758" lon="6.73804">
        <ele>401</ele>
        <time>2016-02-28T09:02:15.000Z</time>
      </trkpt>
      <trkpt lat="47.46754" lon="6.73805">
        <ele>401</ele>
        <time>2016-02-28T09:02:16.000Z</time>
      </trkpt>
      <trkpt lat="47.46749" lon="6.73807">
        <ele>399</ele>
        <time>2016-02-28T09:02:17.000Z</time>
      </trkpt>
      <trkpt lat="47.46745" lon="6.73807">
        <ele>399</ele>
        <time>2016-02-28T09:02:18.000Z</time>
      </trkpt>
      <trkpt lat="47.46741" lon="6.73807">
        <ele>399</ele>
        <time>2016-02-28T09:02:19.000Z</time>
      </trkpt>
      <trkpt lat="47.46737" lon="6.73812">
        <ele>400</ele>
        <time>2016-02-28T09:02:20.000Z</time>
      </trkpt>
      <trkpt lat="47.46733" lon="6.73813">
        <ele>400</ele>
        <time>2016-02-28T09:02:21.000Z</time>
      </trkpt>
      <trkpt lat="47.46729" lon="6.73814">
        <ele>400</ele>
        <time>2016-02-28T09:02:22.000Z</time>
      </trkpt>
      <trkpt lat="47.46725" lon="6.73817">
        <ele>400</ele>
        <time>2016-02-28T09:02:23.000Z</time>
      </trkpt>
      <trkpt lat="47.46722" lon="6.7382">
        <ele>400</ele>
        <time>2016-02-28T09:02:24.000Z</time>
      </trkpt>
      <trkpt lat="47.46719" lon="6.73824">
        <ele>400</ele>
        <time>2016-02-28T09:02:25.000Z</time>
      </trkpt>
      <trkpt lat="47.46716" lon="6.73828">
        <ele>400</ele>
        <time>2016-02-28T09:02:26.000Z</time>
      </trkpt>
      <trkpt lat="47.46713" lon="6.73832">
        <ele>400</ele>
        <time>2016-02-28T09:02:27.000Z</time>
      </trkpt>
      <trkpt lat="47.46711" lon="6.73836">
        <ele>402</ele>
        <time>2016-02-28T09:02:28.000Z</time>
      </trkpt>
      <trkpt lat="47.46708" lon="6.7384">
        <ele>401</ele>
        <time>2016-02-28T09:02:29.000Z</time>
      </trkpt>
      <trkpt lat="47.46705" lon="6.73845">
        <ele>401</ele>
        <time>2016-02-28T09:02:30.000Z</time>
      </trkpt>
      <trkpt lat="47.46701" lon="6.73849">
        <ele>401</ele>
        <time>2016-02-28T09:02:31.000Z</time>
      </trkpt>
      <trkpt lat="47.46697" lon="6.73852">
        <ele>401</ele>
        <time>2016-02-28T09:02:32.000Z</time>
      </trkpt>
      <trkpt lat="47.46692" lon="6.73854">
        <ele>401</ele>
        <time>2016-02-28T09:02:33.000Z</time>
      </trkpt>
      <trkpt lat="47.46687" lon="6.73854">
        <ele>401</ele>
        <time>2016-02-28T09:02:34.000Z</time>
      </trkpt>
      <trkpt lat="47.46677" lon="6.73845">
        <ele>401</ele>
        <time>2016-02-28T09:02:35.000Z</time>
      </trkpt>
      <trkpt lat="47.46674" lon="6.73841">
        <ele>401</ele>
        <time>2016-02-28T09:02:36.000Z</time>
      </trkpt>
      <trkpt lat="47.46675" lon="6.73835">
        <ele>401</ele>
        <time>2016-02-28T09:02:37.000Z</time>
      </trkpt>
      <trkpt lat="47.46675" lon="6.7383">
        <ele>400</ele>
        <time>2016-02-28T09:02:38.000Z</time>
      </trkpt>
      <trkpt lat="47.46675" lon="6.73825">
        <ele>400</ele>
        <time>2016-02-28T09:02:39.000Z</time>
      </trkpt>
      <trkpt lat="47.46674" lon="6.7382">
        <ele>400</ele>
        <time>2016-02-28T09:02:40.000Z</time>
      </trkpt>
      <trkpt lat="47.46674" lon="6.73813">
        <ele>399</ele>
        <time>2016-02-28T09:02:41.000Z</time>
      </trkpt>
      <trkpt lat="47.46672" lon="6.73807">
        <ele>399</ele>
        <time>2016-02-28T09:02:42.000Z</time>
      </trkpt>
      <trkpt lat="47.46671" lon="6.73804">
        <ele>399</ele>
        <time>2016-02-28T09:02:43.000Z</time>
      </trkpt>
      <trkpt lat="47.46669" lon="6.73799">
        <ele>399</ele>
        <time>2016-02-28T09:02:44.000Z</time>
      </trkpt>
      <trkpt lat="47.46668" lon="6.73795">
        <ele>399</ele>
        <time>2016-02-28T09:02:45.000Z</time>
      </trkpt>
      <trkpt lat="47.46667" lon="6.73791">
        <ele>401</ele>
        <time>2016-02-28T09:02:46.000Z</time>
      </trkpt>
      <trkpt lat="47.46666" lon="6.73788">
        <ele>401</ele>
        <time>2016-02-28T09:02:47.000Z</time>
      </trkpt>
      <trkpt lat="47.46664" lon="6.73785">
        <ele>400</ele>
        <time>2016-02-28T09:02:48.000Z</time>
      </trkpt>
      <trkpt lat="47.46663" lon="6.73783">
        <ele>400</ele>
        <time>2016-02-28T09:02:49.000Z</time>
      </trkpt>
      <trkpt lat="47.46661" lon="6.73781">
        <ele>400</ele>
        <time>2016-02-28T09:02:50.000Z</time>
      </trkpt>
      <trkpt lat="47.46659" lon="6.73778">
        <ele>400</ele>
        <time>2016-02-28T09:02:51.000Z</time>
      </trkpt>
      <trkpt lat="47.46657" lon="6.73775">
        <ele>400</ele>
        <time>2016-02-28T09:02:52.000Z</time>
      </trkpt>
      <trkpt lat="47.46655" lon="6.73772">
        <ele>400</ele>
        <time>2016-02-28T09:02:53.000Z</time>
      </trkpt>
      <trkpt lat="47.46653" lon="6.73768">
        <ele>400</ele>
        <time>2016-02-28T09:02:54.000Z</time>
      </trkpt>
      <trkpt lat="47.46651" lon="6.73765">
        <ele>399</ele>
        <time>2016-02-28T09:02:55.000Z</time>
      </trkpt>
      <trkpt lat="47.4665" lon="6.73762">
        <ele>399</ele>
        <time>2016-02-28T09:02:56.000Z</time>
      </trkpt>
      <trkpt lat="47.46648" lon="6.7376">
        <ele>399</ele>
        <time>2016-02-28T09:02:57.000Z</time>
      </trkpt>
      <trkpt lat="47.46646" lon="6.73758">
        <ele>400</ele>
        <time>2016-02-28T09:02:58.000Z</time>
      </trkpt>
      <trkpt lat="47.46644" lon="6.73756">
        <ele>400</ele>
        <time>2016-02-28T09:02:59.000Z</time>
      </trkpt>
      <trkpt lat="47.46642" lon="6.73754">
        <ele>400</ele>
        <time>2016-02-28T09:03:00.000Z</time>
      </trkpt>
      <trkpt lat="47.46639" lon="6.73752">
        <ele>400</ele>
        <time>2016-02-28T09:03:01.000Z</time>
      </trkpt>
      <trkpt lat="47.46637" lon="6.7375">
        <ele>400</ele>
        <time>2016-02-28T09:03:02.000Z</time>
      </trkpt>
      <trkpt lat="47.46634" lon="6.73749">
        <ele>395</ele>
        <time>2016-02-28T09:03:03.000Z</time>
      </trkpt>
      <trkpt lat="47.46632" lon="6.73747">
        <ele>395</ele>
        <time>2016-02-28T09:03:04.000Z</time>
      </trkpt>
      <trkpt lat="47.4663" lon="6.73746">
        <ele>395</ele>
        <time>2016-02-28T09:03:05.000Z</time>
      </trkpt>
      <trkpt lat="47.46626" lon="6.73744">
        <ele>395</ele>
        <time>2016-02-28T09:03:07.000Z</time>
      </trkpt>
      <trkpt lat="47.46624" lon="6.73743">
        <ele>395</ele>
        <time>2016-02-28T09:03:08.000Z</time>
      </trkpt>
      <trkpt lat="47.46621" lon="6.73742">
        <ele>395</ele>
        <time>2016-02-28T09:03:09.000Z</time>
      </trkpt>
      <trkpt lat="47.46619" lon="6.73741">
        <ele>395</ele>
        <time>2016-02-28T09:03:10.000Z</time>
      </trkpt>
      <trkpt lat="47.46616" lon="6.7374">
        <ele>396</ele>
        <time>2016-02-28T09:03:11.000Z</time>
      </trkpt>
      <trkpt lat="47.46613" lon="6.73739">
        <ele>396</ele>
        <time>2016-02-28T09:03:12.000Z</time>
      </trkpt>
      <trkpt lat="47.4661" lon="6.73738">
        <ele>396</ele>
        <time>2016-02-28T09:03:13.000Z</time>
      </trkpt>
      <trkpt lat="47.46607" lon="6.73737">
        <ele>396</ele>
        <time>2016-02-28T09:03:14.000Z</time>
      </trkpt>
      <trkpt lat="47.46603" lon="6.73736">
        <ele>397</ele>
        <time>2016-02-28T09:03:16.000Z</time>
      </trkpt>
      <trkpt lat="47.46601" lon="6.73735">
        <ele>397</ele>
        <time>2016-02-28T09:03:17.000Z</time>
      </trkpt>
      <trkpt lat="47.46598" lon="6.73734">
        <ele>397</ele>
        <time>2016-02-28T09:03:19.000Z</time>
      </trkpt>
      <trkpt lat="47.46595" lon="6.73733">
        <ele>397</ele>
        <time>2016-02-28T09:03:20.000Z</time>
      </trkpt>
      <trkpt lat="47.46593" lon="6.73732">
        <ele>397</ele>
        <time>2016-02-28T09:03:21.000Z</time>
      </trkpt>
      <trkpt lat="47.4659" lon="6.73731">
        <ele>397</ele>
        <time>2016-02-28T09:03:22.000Z</time>
      </trkpt>
      <trkpt lat="47.46588" lon="6.7373">
        <ele>397</ele>
        <time>2016-02-28T09:03:23.000Z</time>
      </trkpt>
      <trkpt lat="47.46586" lon="6.73729">
        <ele>397</ele>
        <time>2016-02-28T09:03:24.000Z</time>
      </trkpt>
      <trkpt lat="47.46583" lon="6.73726">
        <ele>401</ele>
        <time>2016-02-28T09:03:26.000Z</time>
      </trkpt>
      <trkpt lat="47.46582" lon="6.73724">
        <ele>401</ele>
        <time>2016-02-28T09:03:27.000Z</time>
      </trkpt>
      <trkpt lat="47.46579" lon="6.73721">
        <ele>401</ele>
        <time>2016-02-28T09:03:29.000Z</time>
      </trkpt>
      <trkpt lat="47.46576" lon="6.7372">
        <ele>401</ele>
        <time>2016-02-28T09:03:30.000Z</time>
      </trkpt>
      <trkpt lat="47.46573" lon="6.73719">
        <ele>401</ele>
        <time>2016-02-28T09:03:31.000Z</time>
      </trkpt>
      <trkpt lat="47.4657" lon="6.73717">
        <ele>401</ele>
        <time>2016-02-28T09:03:32.000Z</time>
      </trkpt>
      <trkpt lat="47.46567" lon="6.73715">
        <ele>401</ele>
        <time>2016-02-28T09:03:33.000Z</time>
      </trkpt>
      <trkpt lat="47.46564" lon="6.73713">
        <ele>401</ele>
        <time>2016-02-28T09:03:34.000Z</time>
      </trkpt>
      <trkpt lat="47.46561" lon="6.73711">
        <ele>400</ele>
        <time>2016-02-28T09:03:35.000Z</time>
      </trkpt>
      <trkpt lat="47.46559" lon="6.73709">
        <ele>400</ele>
        <time>2016-02-28T09:03:36.000Z</time>
      </trkpt>
      <trkpt lat="47.46555" lon="6.73708">
        <ele>401</ele>
        <time>2016-02-28T09:03:37.000Z</time>
      </trkpt>
      <trkpt lat="47.46552" lon="6.73708">
        <ele>401</ele>
        <time>2016-02-28T09:03:38.000Z</time>
      </trkpt>
      <trkpt lat="47.46548" lon="6.73707">
        <ele>401</ele>
        <time>2016-02-28T09:03:39.000Z</time>
      </trkpt>
      <trkpt lat="47.46544" lon="6.73707">
        <ele>401</ele>
        <time>2016-02-28T09:03:40.000Z</time>
      </trkpt>
      <trkpt lat="47.4654" lon="6.73706">
        <ele>401</ele>
        <time>2016-02-28T09:03:41.000Z</time>
      </trkpt>
      <trkpt lat="47.46536" lon="6.73705">
        <ele>401</ele>
        <time>2016-02-28T09:03:42.000Z</time>
      </trkpt>
      <trkpt lat="47.46533" lon="6.73704">
        <ele>401</ele>
        <time>2016-02-28T09:03:43.000Z</time>
      </trkpt>
      <trkpt lat="47.4653" lon="6.73703">
        <ele>402</ele>
        <time>2016-02-28T09:03:44.000Z</time>
      </trkpt>
      <trkpt lat="47.46528" lon="6.73702">
        <ele>402</ele>
        <time>2016-02-28T09:03:45.000Z</time>
      </trkpt>
      <trkpt lat="47.46525" lon="6.73701">
        <ele>402</ele>
        <time>2016-02-28T09:03:46.000Z</time>
      </trkpt>
      <trkpt lat="47.46522" lon="6.73701">
        <ele>402</ele>
        <time>2016-02-28T09:03:47.000Z</time>
      </trkpt>
      <trkpt lat="47.46519" lon="6.737">
        <ele>402</ele>
        <time>2016-02-28T09:03:48.000Z</time>
      </trkpt>
      <trkpt lat="47.46516" lon="6.73699">
        <ele>402</ele>
        <time>2016-02-28T09:03:49.000Z</time>
      </trkpt>
      <trkpt lat="47.46512" lon="6.73697">
        <ele>402</ele>
        <time>2016-02-28T09:03:50.000Z</time>
      </trkpt>
      <trkpt lat="47.46509" lon="6.73695">
        <ele>402</ele>
        <time>2016-02-28T09:03:51.000Z</time>
      </trkpt>
      <trkpt lat="47.46505" lon="6.73694">
        <ele>402</ele>
        <time>2016-02-28T09:03:52.000Z</time>
      </trkpt>
      <trkpt lat="47.46502" lon="6.73695">
        <ele>402</ele>
        <time>2016-02-28T09:03:53.000Z</time>
      </trkpt>
      <trkpt lat="47.46499" lon="6.73696">
        <ele>408</ele>
        <time>2016-02-28T09:03:54.000Z</time>
      </trkpt>
      <trkpt lat="47.46496" lon="6.73698">
        <ele>408</ele>
        <time>2016-02-28T09:03:55.000Z</time>
      </trkpt>
      <trkpt lat="47.46494" lon="6.73699">
        <ele>408</ele>
        <time>2016-02-28T09:03:56.000Z</time>
      </trkpt>
      <trkpt lat="47.46491" lon="6.737">
        <ele>408</ele>
        <time>2016-02-28T09:03:57.000Z</time>
      </trkpt>
      <trkpt lat="47.46489" lon="6.73702">
        <ele>409</ele>
        <time>2016-02-28T09:03:58.000Z</time>
      </trkpt>
      <trkpt lat="47.46485" lon="6.73705">
        <ele>409</ele>
        <time>2016-02-28T09:04:00.000Z</time>
      </trkpt>
      <trkpt lat="47.46484" lon="6.73707">
        <ele>409</ele>
        <time>2016-02-28T09:04:01.000Z</time>
      </trkpt>
      <trkpt lat="47.46481" lon="6.73709">
        <ele>409</ele>
        <time>2016-02-28T09:04:03.000Z</time>
      </trkpt>
      <trkpt lat="47.46478" lon="6.7371">
        <ele>409</ele>
        <time>2016-02-28T09:04:04.000Z</time>
      </trkpt>
      <trkpt lat="47.46474" lon="6.73711">
        <ele>410</ele>
        <time>2016-02-28T09:04:06.000Z</time>
      </trkpt>
      <trkpt lat="47.46472" lon="6.73711">
        <ele>410</ele>
        <time>2016-02-28T09:04:07.000Z</time>
      </trkpt>
      <trkpt lat="47.46468" lon="6.73713">
        <ele>410</ele>
        <time>2016-02-28T09:04:11.000Z</time>
      </trkpt>
      <trkpt lat="47.46467" lon="6.73714">
        <ele>410</ele>
        <time>2016-02-28T09:04:12.000Z</time>
      </trkpt>
      <trkpt lat="47.46464" lon="6.73718">
        <ele>410</ele>
        <time>2016-02-28T09:04:16.000Z</time>
      </trkpt>
      <trkpt lat="47.46463" lon="6.73719">
        <ele>410</ele>
        <time>2016-02-28T09:04:17.000Z</time>
      </trkpt>
      <trkpt lat="47.46462" lon="6.73723">
        <ele>411</ele>
        <time>2016-02-28T09:04:19.000Z</time>
      </trkpt>
      <trkpt lat="47.46461" lon="6.73725">
        <ele>411</ele>
        <time>2016-02-28T09:04:20.000Z</time>
      </trkpt>
      <trkpt lat="47.46457" lon="6.73727">
        <ele>411</ele>
        <time>2016-02-28T09:04:23.000Z</time>
      </trkpt>
      <trkpt lat="47.46456" lon="6.73728">
        <ele>411</ele>
        <time>2016-02-28T09:04:24.000Z</time>
      </trkpt>
      <trkpt lat="47.46452" lon="6.73729">
        <ele>411</ele>
        <time>2016-02-28T09:04:28.000Z</time>
      </trkpt>
      <trkpt lat="47.46451" lon="6.73729">
        <ele>411</ele>
        <time>2016-02-28T09:04:29.000Z</time>
      </trkpt>
      <trkpt lat="47.46448" lon="6.73729">
        <ele>412</ele>
        <time>2016-02-28T09:04:31.000Z</time>
      </trkpt>
      <trkpt lat="47.46446" lon="6.7373">
        <ele>412</ele>
        <time>2016-02-28T09:04:32.000Z</time>
      </trkpt>
      <trkpt lat="47.46442" lon="6.7373">
        <ele>412</ele>
        <time>2016-02-28T09:04:35.000Z</time>
      </trkpt>
      <trkpt lat="47.4644" lon="6.7373">
        <ele>412</ele>
        <time>2016-02-28T09:04:36.000Z</time>
      </trkpt>
      <trkpt lat="47.46437" lon="6.73729">
        <ele>412</ele>
        <time>2016-02-28T09:04:38.000Z</time>
      </trkpt>
      <trkpt lat="47.46435" lon="6.73729">
        <ele>412</ele>
        <time>2016-02-28T09:04:39.000Z</time>
      </trkpt>
      <trkpt lat="47.46433" lon="6.73729">
        <ele>413</ele>
        <time>2016-02-28T09:04:40.000Z</time>
      </trkpt>
      <trkpt lat="47.4643" lon="6.7373">
        <ele>413</ele>
        <time>2016-02-28T09:04:41.000Z</time>
      </trkpt>
      <trkpt lat="47.46426" lon="6.73731">
        <ele>413</ele>
        <time>2016-02-28T09:04:43.000Z</time>
      </trkpt>
      <trkpt lat="47.46425" lon="6.73731">
        <ele>413</ele>
        <time>2016-02-28T09:04:44.000Z</time>
      </trkpt>
      <trkpt lat="47.46421" lon="6.7373">
        <ele>413</ele>
        <time>2016-02-28T09:04:49.000Z</time>
      </trkpt>
      <trkpt lat="47.46419" lon="6.7373">
        <ele>413</ele>
        <time>2016-02-28T09:04:50.000Z</time>
      </trkpt>
      <trkpt lat="47.46416" lon="6.7373">
        <ele>417</ele>
        <time>2016-02-28T09:04:53.000Z</time>
      </trkpt>
      <trkpt lat="47.46414" lon="6.7373">
        <ele>417</ele>
        <time>2016-02-28T09:04:54.000Z</time>
      </trkpt>
      <trkpt lat="47.4641" lon="6.7373">
        <ele>417</ele>
        <time>2016-02-28T09:04:58.000Z</time>
      </trkpt>
      <trkpt lat="47.46408" lon="6.7373">
        <ele>417</ele>
        <time>2016-02-28T09:04:59.000Z</time>
      </trkpt>
      <trkpt lat="47.46405" lon="6.7373">
        <ele>417</ele>
        <time>2016-02-28T09:05:01.000Z</time>
      </trkpt>
      <trkpt lat="47.46403" lon="6.7373">
        <ele>417</ele>
        <time>2016-02-28T09:05:02.000Z</time>
      </trkpt>
      <trkpt lat="47.464" lon="6.73728">
        <ele>417</ele>
        <time>2016-02-28T09:05:04.000Z</time>
      </trkpt>
      <trkpt lat="47.46398" lon="6.73728">
        <ele>417</ele>
        <time>2016-02-28T09:05:05.000Z</time>
      </trkpt>
      <trkpt lat="47.46394" lon="6.73728">
        <ele>417</ele>
        <time>2016-02-28T09:05:07.000Z</time>
      </trkpt>
      <trkpt lat="47.46393" lon="6.73728">
        <ele>417</ele>
        <time>2016-02-28T09:05:08.000Z</time>
      </trkpt>
      <trkpt lat="47.46389" lon="6.73727">
        <ele>417</ele>
        <time>2016-02-28T09:05:10.000Z</time>
      </trkpt>
      <trkpt lat="47.46387" lon="6.73726">
        <ele>417</ele>
        <time>2016-02-28T09:05:11.000Z</time>
      </trkpt>
      <trkpt lat="47.46383" lon="6.73724">
        <ele>417</ele>
        <time>2016-02-28T09:05:13.000Z</time>
      </trkpt>
      <trkpt lat="47.46381" lon="6.73722">
        <ele>417</ele>
        <time>2016-02-28T09:05:14.000Z</time>
      </trkpt>
      <trkpt lat="47.46378" lon="6.7372">
        <ele>418</ele>
        <time>2016-02-28T09:05:16.000Z</time>
      </trkpt>
      <trkpt lat="47.46376" lon="6.7372">
        <ele>418</ele>
        <time>2016-02-28T09:05:17.000Z</time>
      </trkpt>
      <trkpt lat="47.46372" lon="6.73719">
        <ele>418</ele>
        <time>2016-02-28T09:05:19.000Z</time>
      </trkpt>
      <trkpt lat="47.46371" lon="6.73718">
        <ele>418</ele>
        <time>2016-02-28T09:05:20.000Z</time>
      </trkpt>
      <trkpt lat="47.46367" lon="6.73718">
        <ele>418</ele>
        <time>2016-02-28T09:05:22.000Z</time>
      </trkpt>
      <trkpt lat="47.46366" lon="6.73718">
        <ele>418</ele>
        <time>2016-02-28T09:05:23.000Z</time>
      </trkpt>
      <trkpt lat="47.46362" lon="6.73717">
        <ele>418</ele>
        <time>2016-02-28T09:05:25.000Z</time>
      </trkpt>
      <trkpt lat="47.46361" lon="6.73716">
        <ele>418</ele>
        <time>2016-02-28T09:05:26.000Z</time>
      </trkpt>
      <trkpt lat="47.46356" lon="6.73715">
        <ele>418</ele>
        <time>2016-02-28T09:05:28.000Z</time>
      </trkpt>
      <trkpt lat="47.46354" lon="6.73714">
        <ele>418</ele>
        <time>2016-02-28T09:05:29.000Z</time>
      </trkpt>
      <trkpt lat="47.4635" lon="6.73711">
        <ele>418</ele>
        <time>2016-02-28T09:05:31.000Z</time>
      </trkpt>
      <trkpt lat="47.46348" lon="6.7371">
        <ele>418</ele>
        <time>2016-02-28T09:05:32.000Z</time>
      </trkpt>
      <trkpt lat="47.46344" lon="6.73707">
        <ele>419</ele>
        <time>2016-02-28T09:05:34.000Z</time>
      </trkpt>
      <trkpt lat="47.46342" lon="6.73706">
        <ele>419</ele>
        <time>2016-02-28T09:05:35.000Z</time>
      </trkpt>
      <trkpt lat="47.46339" lon="6.73705">
        <ele>419</ele>
        <time>2016-02-28T09:05:36.000Z</time>
      </trkpt>
      <trkpt lat="47.46337" lon="6.73705">
        <ele>419</ele>
        <time>2016-02-28T09:05:37.000Z</time>
      </trkpt>
      <trkpt lat="47.46334" lon="6.73705">
        <ele>419</ele>
        <time>2016-02-28T09:05:38.000Z</time>
      </trkpt>
      <trkpt lat="47.46331" lon="6.73704">
        <ele>420</ele>
        <time>2016-02-28T09:05:39.000Z</time>
      </trkpt>
      <trkpt lat="47.46329" lon="6.73704">
        <ele>420</ele>
        <time>2016-02-28T09:05:40.000Z</time>
      </trkpt>
      <trkpt lat="47.46326" lon="6.73704">
        <ele>420</ele>
        <time>2016-02-28T09:05:41.000Z</time>
      </trkpt>
      <trkpt lat="47.46323" lon="6.73705">
        <ele>420</ele>
        <time>2016-02-28T09:05:42.000Z</time>
      </trkpt>
      <trkpt lat="47.4632" lon="6.73705">
        <ele>420</ele>
        <time>2016-02-28T09:05:43.000Z</time>
      </trkpt>
      <trkpt lat="47.46316" lon="6.73705">
        <ele>420</ele>
        <time>2016-02-28T09:05:44.000Z</time>
      </trkpt>
      <trkpt lat="47.46313" lon="6.73706">
        <ele>420</ele>
        <time>2016-02-28T09:05:45.000Z</time>
      </trkpt>
      <trkpt lat="47.4631" lon="6.73706">
        <ele>420</ele>
        <time>2016-02-28T09:05:46.000Z</time>
      </trkpt>
      <trkpt lat="47.46307" lon="6.73705">
        <ele>420</ele>
        <time>2016-02-28T09:05:47.000Z</time>
      </trkpt>
      <trkpt lat="47.46304" lon="6.73705">
        <ele>420</ele>
        <time>2016-02-28T09:05:48.000Z</time>
      </trkpt>
      <trkpt lat="47.46301" lon="6.73705">
        <ele>420</ele>
        <time>2016-02-28T09:05:49.000Z</time>
      </trkpt>
      <trkpt lat="47.46297" lon="6.73704">
        <ele>420</ele>
        <time>2016-02-28T09:05:50.000Z</time>
      </trkpt>
      <trkpt lat="47.46294" lon="6.73703">
        <ele>420</ele>
        <time>2016-02-28T09:05:51.000Z</time>
      </trkpt>
      <trkpt lat="47.4629" lon="6.73703">
        <ele>420</ele>
        <time>2016-02-28T09:05:52.000Z</time>
      </trkpt>
      <trkpt lat="47.46286" lon="6.73702">
        <ele>420</ele>
        <time>2016-02-28T09:05:53.000Z</time>
      </trkpt>
      <trkpt lat="47.46281" lon="6.73702">
        <ele>420</ele>
        <time>2016-02-28T09:05:54.000Z</time>
      </trkpt>
      <trkpt lat="47.46277" lon="6.73702">
        <ele>420</ele>
        <time>2016-02-28T09:05:55.000Z</time>
      </trkpt>
      <trkpt lat="47.46273" lon="6.73702">
        <ele>420</ele>
        <time>2016-02-28T09:05:56.000Z</time>
      </trkpt>
      <trkpt lat="47.46269" lon="6.73702">
        <ele>420</ele>
        <time>2016-02-28T09:05:57.000Z</time>
      </trkpt>
      <trkpt lat="47.46265" lon="6.73701">
        <ele>420</ele>
        <time>2016-02-28T09:05:58.000Z</time>
      </trkpt>
      <trkpt lat="47.46261" lon="6.73701">
        <ele>420</ele>
        <time>2016-02-28T09:05:59.000Z</time>
      </trkpt>
      <trkpt lat="47.46258" lon="6.737">
        <ele>420</ele>
        <time>2016-02-28T09:06:00.000Z</time>
      </trkpt>
      <trkpt lat="47.46254" lon="6.737">
        <ele>420</ele>
        <time>2016-02-28T09:06:01.000Z</time>
      </trkpt>
      <trkpt lat="47.4625" lon="6.73699">
        <ele>420</ele>
        <time>2016-02-28T09:06:02.000Z</time>
      </trkpt>
      <trkpt lat="47.46247" lon="6.73699">
        <ele>421</ele>
        <time>2016-02-28T09:06:03.000Z</time>
      </trkpt>
      <trkpt lat="47.46244" lon="6.73699">
        <ele>421</ele>
        <time>2016-02-28T09:06:04.000Z</time>
      </trkpt>
      <trkpt lat="47.4624" lon="6.73699">
        <ele>421</ele>
        <time>2016-02-28T09:06:05.000Z</time>
      </trkpt>
      <trkpt lat="47.46237" lon="6.73699">
        <ele>421</ele>
        <time>2016-02-28T09:06:06.000Z</time>
      </trkpt>
      <trkpt lat="47.46234" lon="6.73699">
        <ele>421</ele>
        <time>2016-02-28T09:06:07.000Z</time>
      </trkpt>
      <trkpt lat="47.4623" lon="6.73698">
        <ele>421</ele>
        <time>2016-02-28T09:06:08.000Z</time>
      </trkpt>
      <trkpt lat="47.46227" lon="6.73698">
        <ele>421</ele>
        <time>2016-02-28T09:06:09.000Z</time>
      </trkpt>
      <trkpt lat="47.46224" lon="6.73699">
        <ele>421</ele>
        <time>2016-02-28T09:06:10.000Z</time>
      </trkpt>
      <trkpt lat="47.4622" lon="6.73699">
        <ele>421</ele>
        <time>2016-02-28T09:06:11.000Z</time>
      </trkpt>
      <trkpt lat="47.46217" lon="6.73699">
        <ele>421</ele>
        <time>2016-02-28T09:06:12.000Z</time>
      </trkpt>
      <trkpt lat="47.46213" lon="6.73698">
        <ele>421</ele>
        <time>2016-02-28T09:06:13.000Z</time>
      </trkpt>
      <trkpt lat="47.4621" lon="6.73698">
        <ele>422</ele>
        <time>2016-02-28T09:06:14.000Z</time>
      </trkpt>
      <trkpt lat="47.46207" lon="6.73698">
        <ele>422</ele>
        <time>2016-02-28T09:06:15.000Z</time>
      </trkpt>
      <trkpt lat="47.46203" lon="6.73697">
        <ele>422</ele>
        <time>2016-02-28T09:06:16.000Z</time>
      </trkpt>
      <trkpt lat="47.46199" lon="6.73697">
        <ele>422</ele>
        <time>2016-02-28T09:06:17.000Z</time>
      </trkpt>
      <trkpt lat="47.46196" lon="6.73697">
        <ele>422</ele>
        <time>2016-02-28T09:06:18.000Z</time>
      </trkpt>
      <trkpt lat="47.46192" lon="6.73698">
        <ele>422</ele>
        <time>2016-02-28T09:06:19.000Z</time>
      </trkpt>
      <trkpt lat="47.46189" lon="6.73698">
        <ele>422</ele>
        <time>2016-02-28T09:06:20.000Z</time>
      </trkpt>
      <trkpt lat="47.46185" lon="6.73698">
        <ele>422</ele>
        <time>2016-02-28T09:06:21.000Z</time>
      </trkpt>
      <trkpt lat="47.46182" lon="6.73698">
        <ele>422</ele>
        <time>2016-02-28T09:06:22.000Z</time>
      </trkpt>
      <trkpt lat="47.46178" lon="6.73697">
        <ele>422</ele>
        <time>2016-02-28T09:06:23.000Z</time>
      </trkpt>
      <trkpt lat="47.46174" lon="6.73696">
        <ele>422</ele>
        <time>2016-02-28T09:06:24.000Z</time>
      </trkpt>
      <trkpt lat="47.46171" lon="6.73695">
        <ele>422</ele>
        <time>2016-02-28T09:06:25.000Z</time>
      </trkpt>
      <trkpt lat="47.46167" lon="6.73694">
        <ele>425</ele>
        <time>2016-02-28T09:06:26.000Z</time>
      </trkpt>
      <trkpt lat="47.46163" lon="6.73693">
        <ele>425</ele>
        <time>2016-02-28T09:06:27.000Z</time>
      </trkpt>
      <trkpt lat="47.4616" lon="6.73692">
        <ele>425</ele>
        <time>2016-02-28T09:06:28.000Z</time>
      </trkpt>
      <trkpt lat="47.46158" lon="6.7369">
        <ele>426</ele>
        <time>2016-02-28T09:06:29.000Z</time>
      </trkpt>
      <trkpt lat="47.46155" lon="6.73688">
        <ele>426</ele>
        <time>2016-02-28T09:06:30.000Z</time>
      </trkpt>
      <trkpt lat="47.46153" lon="6.73686">
        <ele>426</ele>
        <time>2016-02-28T09:06:31.000Z</time>
      </trkpt>
      <trkpt lat="47.4615" lon="6.73684">
        <ele>426</ele>
        <time>2016-02-28T09:06:32.000Z</time>
      </trkpt>
      <trkpt lat="47.46147" lon="6.73682">
        <ele>426</ele>
        <time>2016-02-28T09:06:33.000Z</time>
      </trkpt>
      <trkpt lat="47.46145" lon="6.7368">
        <ele>426</ele>
        <time>2016-02-28T09:06:34.000Z</time>
      </trkpt>
      <trkpt lat="47.46142" lon="6.73678">
        <ele>426</ele>
        <time>2016-02-28T09:06:35.000Z</time>
      </trkpt>
      <trkpt lat="47.46139" lon="6.73676">
        <ele>426</ele>
        <time>2016-02-28T09:06:36.000Z</time>
      </trkpt>
      <trkpt lat="47.46136" lon="6.73674">
        <ele>427</ele>
        <time>2016-02-28T09:06:37.000Z</time>
      </trkpt>
      <trkpt lat="47.46133" lon="6.73672">
        <ele>427</ele>
        <time>2016-02-28T09:06:38.000Z</time>
      </trkpt>
      <trkpt lat="47.46131" lon="6.73671">
        <ele>427</ele>
        <time>2016-02-28T09:06:39.000Z</time>
      </trkpt>
      <trkpt lat="47.46128" lon="6.73666">
        <ele>428</ele>
        <time>2016-02-28T09:06:46.000Z</time>
      </trkpt>
      <trkpt lat="47.46127" lon="6.73666">
        <ele>428</ele>
        <time>2016-02-28T09:06:47.000Z</time>
      </trkpt>
      <trkpt lat="47.46123" lon="6.73664">
        <ele>428</ele>
        <time>2016-02-28T09:06:52.000Z</time>
      </trkpt>
      <trkpt lat="47.46123" lon="6.73663">
        <ele>429</ele>
        <time>2016-02-28T09:06:53.000Z</time>
      </trkpt>
      <trkpt lat="47.46119" lon="6.73664">
        <ele>429</ele>
        <time>2016-02-28T09:06:57.000Z</time>
      </trkpt>
      <trkpt lat="47.46117" lon="6.73664">
        <ele>429</ele>
        <time>2016-02-28T09:06:58.000Z</time>
      </trkpt>
      <trkpt lat="47.46115" lon="6.73662">
        <ele>429</ele>
        <time>2016-02-28T09:07:00.000Z</time>
      </trkpt>
      <trkpt lat="47.46114" lon="6.73659">
        <ele>429</ele>
        <time>2016-02-28T09:07:01.000Z</time>
      </trkpt>
      <trkpt lat="47.46112" lon="6.73655">
        <ele>429</ele>
        <time>2016-02-28T09:07:03.000Z</time>
      </trkpt>
      <trkpt lat="47.4611" lon="6.73654">
        <ele>430</ele>
        <time>2016-02-28T09:07:04.000Z</time>
      </trkpt>
      <trkpt lat="47.46106" lon="6.73651">
        <ele>430</ele>
        <time>2016-02-28T09:07:07.000Z</time>
      </trkpt>
      <trkpt lat="47.46105" lon="6.7365">
        <ele>430</ele>
        <time>2016-02-28T09:07:08.000Z</time>
      </trkpt>
      <trkpt lat="47.46103" lon="6.73647">
        <ele>430</ele>
        <time>2016-02-28T09:07:10.000Z</time>
      </trkpt>
      <trkpt lat="47.46101" lon="6.73645">
        <ele>430</ele>
        <time>2016-02-28T09:07:11.000Z</time>
      </trkpt>
      <trkpt lat="47.46098" lon="6.73642">
        <ele>430</ele>
        <time>2016-02-28T09:07:13.000Z</time>
      </trkpt>
      <trkpt lat="47.46095" lon="6.73641">
        <ele>430</ele>
        <time>2016-02-28T09:07:14.000Z</time>
      </trkpt>
      <trkpt lat="47.46093" lon="6.73639">
        <ele>430</ele>
        <time>2016-02-28T09:07:15.000Z</time>
      </trkpt>
      <trkpt lat="47.4609" lon="6.73638">
        <ele>430</ele>
        <time>2016-02-28T09:07:16.000Z</time>
      </trkpt>
      <trkpt lat="47.46086" lon="6.73635">
        <ele>430</ele>
        <time>2016-02-28T09:07:18.000Z</time>
      </trkpt>
      <trkpt lat="47.46084" lon="6.73634">
        <ele>430</ele>
        <time>2016-02-28T09:07:19.000Z</time>
      </trkpt>
      <trkpt lat="47.4608" lon="6.73631">
        <ele>434</ele>
        <time>2016-02-28T09:07:21.000Z</time>
      </trkpt>
      <trkpt lat="47.46078" lon="6.73629">
        <ele>434</ele>
        <time>2016-02-28T09:07:22.000Z</time>
      </trkpt>
      <trkpt lat="47.46076" lon="6.73628">
        <ele>434</ele>
        <time>2016-02-28T09:07:23.000Z</time>
      </trkpt>
      <trkpt lat="47.46074" lon="6.73626">
        <ele>434</ele>
        <time>2016-02-28T09:07:24.000Z</time>
      </trkpt>
      <trkpt lat="47.46072" lon="6.73625">
        <ele>434</ele>
        <time>2016-02-28T09:07:25.000Z</time>
      </trkpt>
      <trkpt lat="47.4607" lon="6.73623">
        <ele>434</ele>
        <time>2016-02-28T09:07:26.000Z</time>
      </trkpt>
      <trkpt lat="47.46066" lon="6.7362">
        <ele>434</ele>
        <time>2016-02-28T09:07:28.000Z</time>
      </trkpt>
      <trkpt lat="47.46064" lon="6.73619">
        <ele>434</ele>
        <time>2016-02-28T09:07:29.000Z</time>
      </trkpt>
      <trkpt lat="47.4606" lon="6.73617">
        <ele>434</ele>
        <time>2016-02-28T09:07:31.000Z</time>
      </trkpt>
      <trkpt lat="47.46057" lon="6.73616">
        <ele>434</ele>
        <time>2016-02-28T09:07:32.000Z</time>
      </trkpt>
      <trkpt lat="47.46055" lon="6.73616">
        <ele>434</ele>
        <time>2016-02-28T09:07:33.000Z</time>
      </trkpt>
      <trkpt lat="47.46052" lon="6.73615">
        <ele>434</ele>
        <time>2016-02-28T09:07:34.000Z</time>
      </trkpt>
      <trkpt lat="47.4605" lon="6.73613">
        <ele>434</ele>
        <time>2016-02-28T09:07:35.000Z</time>
      </trkpt>
      <trkpt lat="47.46048" lon="6.73612">
        <ele>434</ele>
        <time>2016-02-28T09:07:36.000Z</time>
      </trkpt>
      <trkpt lat="47.46045" lon="6.73611">
        <ele>434</ele>
        <time>2016-02-28T09:07:37.000Z</time>
      </trkpt>
      <trkpt lat="47.46042" lon="6.7361">
        <ele>434</ele>
        <time>2016-02-28T09:07:38.000Z</time>
      </trkpt>
      <trkpt lat="47.4604" lon="6.73609">
        <ele>434</ele>
        <time>2016-02-28T09:07:39.000Z</time>
      </trkpt>
      <trkpt lat="47.46037" lon="6.73608">
        <ele>434</ele>
        <time>2016-02-28T09:07:40.000Z</time>
      </trkpt>
      <trkpt lat="47.46035" lon="6.73607">
        <ele>434</ele>
        <time>2016-02-28T09:07:41.000Z</time>
      </trkpt>
      <trkpt lat="47.46033" lon="6.73606">
        <ele>434</ele>
        <time>2016-02-28T09:07:42.000Z</time>
      </trkpt>
      <trkpt lat="47.4603" lon="6.73606">
        <ele>434</ele>
        <time>2016-02-28T09:07:43.000Z</time>
      </trkpt>
      <trkpt lat="47.46028" lon="6.73606">
        <ele>435</ele>
        <time>2016-02-28T09:07:44.000Z</time>
      </trkpt>
      <trkpt lat="47.46024" lon="6.73606">
        <ele>435</ele>
        <time>2016-02-28T09:07:46.000Z</time>
      </trkpt>
      <trkpt lat="47.46022" lon="6.73606">
        <ele>435</ele>
        <time>2016-02-28T09:07:47.000Z</time>
      </trkpt>
      <trkpt lat="47.46018" lon="6.73606">
        <ele>435</ele>
        <time>2016-02-28T09:07:49.000Z</time>
      </trkpt>
      <trkpt lat="47.46016" lon="6.73606">
        <ele>435</ele>
        <time>2016-02-28T09:07:50.000Z</time>
      </trkpt>
      <trkpt lat="47.46013" lon="6.73608">
        <ele>435</ele>
        <time>2016-02-28T09:07:52.000Z</time>
      </trkpt>
      <trkpt lat="47.46012" lon="6.73609">
        <ele>435</ele>
        <time>2016-02-28T09:07:53.000Z</time>
      </trkpt>
      <trkpt lat="47.46008" lon="6.7361">
        <ele>435</ele>
        <time>2016-02-28T09:07:55.000Z</time>
      </trkpt>
      <trkpt lat="47.46006" lon="6.7361">
        <ele>435</ele>
        <time>2016-02-28T09:07:56.000Z</time>
      </trkpt>
      <trkpt lat="47.46002" lon="6.7361">
        <ele>435</ele>
        <time>2016-02-28T09:07:58.000Z</time>
      </trkpt>
      <trkpt lat="47.46" lon="6.7361">
        <ele>437</ele>
        <time>2016-02-28T09:07:59.000Z</time>
      </trkpt>
      <trkpt lat="47.45997" lon="6.7361">
        <ele>437</ele>
        <time>2016-02-28T09:08:01.000Z</time>
      </trkpt>
      <trkpt lat="47.45995" lon="6.7361">
        <ele>437</ele>
        <time>2016-02-28T09:08:02.000Z</time>
      </trkpt>
      <trkpt lat="47.4599" lon="6.73611">
        <ele>438</ele>
        <time>2016-02-28T09:08:04.000Z</time>
      </trkpt>
      <trkpt lat="47.45988" lon="6.73611">
        <ele>438</ele>
        <time>2016-02-28T09:08:05.000Z</time>
      </trkpt>
      <trkpt lat="47.45985" lon="6.73612">
        <ele>438</ele>
        <time>2016-02-28T09:08:06.000Z</time>
      </trkpt>
      <trkpt lat="47.45983" lon="6.73612">
        <ele>438</ele>
        <time>2016-02-28T09:08:07.000Z</time>
      </trkpt>
      <trkpt lat="47.4598" lon="6.73612">
        <ele>438</ele>
        <time>2016-02-28T09:08:08.000Z</time>
      </trkpt>
      <trkpt lat="47.45977" lon="6.73612">
        <ele>438</ele>
        <time>2016-02-28T09:08:09.000Z</time>
      </trkpt>
      <trkpt lat="47.45974" lon="6.73612">
        <ele>438</ele>
        <time>2016-02-28T09:08:10.000Z</time>
      </trkpt>
      <trkpt lat="47.45971" lon="6.73613">
        <ele>438</ele>
        <time>2016-02-28T09:08:11.000Z</time>
      </trkpt>
      <trkpt lat="47.45967" lon="6.73613">
        <ele>438</ele>
        <time>2016-02-28T09:08:12.000Z</time>
      </trkpt>
      <trkpt lat="47.45964" lon="6.73614">
        <ele>438</ele>
        <time>2016-02-28T09:08:13.000Z</time>
      </trkpt>
      <trkpt lat="47.45962" lon="6.73614">
        <ele>438</ele>
        <time>2016-02-28T09:08:14.000Z</time>
      </trkpt>
      <trkpt lat="47.45959" lon="6.73615">
        <ele>439</ele>
        <time>2016-02-28T09:08:15.000Z</time>
      </trkpt>
      <trkpt lat="47.45957" lon="6.73616">
        <ele>439</ele>
        <time>2016-02-28T09:08:16.000Z</time>
      </trkpt>
      <trkpt lat="47.45954" lon="6.73617">
        <ele>439</ele>
        <time>2016-02-28T09:08:17.000Z</time>
      </trkpt>
      <trkpt lat="47.45952" lon="6.73618">
        <ele>439</ele>
        <time>2016-02-28T09:08:18.000Z</time>
      </trkpt>
      <trkpt lat="47.45949" lon="6.73619">
        <ele>439</ele>
        <time>2016-02-28T09:08:19.000Z</time>
      </trkpt>
      <trkpt lat="47.45947" lon="6.7362">
        <ele>439</ele>
        <time>2016-02-28T09:08:20.000Z</time>
      </trkpt>
      <trkpt lat="47.45944" lon="6.73622">
        <ele>439</ele>
        <time>2016-02-28T09:08:21.000Z</time>
      </trkpt>
      <trkpt lat="47.45941" lon="6.73623">
        <ele>439</ele>
        <time>2016-02-28T09:08:22.000Z</time>
      </trkpt>
      <trkpt lat="47.45939" lon="6.73625">
        <ele>439</ele>
        <time>2016-02-28T09:08:23.000Z</time>
      </trkpt>
      <trkpt lat="47.45937" lon="6.73628">
        <ele>439</ele>
        <time>2016-02-28T09:08:24.000Z</time>
      </trkpt>
      <trkpt lat="47.45934" lon="6.73631">
        <ele>439</ele>
        <time>2016-02-28T09:08:25.000Z</time>
      </trkpt>
      <trkpt lat="47.45932" lon="6.73634">
        <ele>439</ele>
        <time>2016-02-28T09:08:26.000Z</time>
      </trkpt>
      <trkpt lat="47.4593" lon="6.73637">
        <ele>439</ele>
        <time>2016-02-28T09:08:27.000Z</time>
      </trkpt>
      <trkpt lat="47.45928" lon="6.73639">
        <ele>439</ele>
        <time>2016-02-28T09:08:28.000Z</time>
      </trkpt>
      <trkpt lat="47.45926" lon="6.73642">
        <ele>439</ele>
        <time>2016-02-28T09:08:29.000Z</time>
      </trkpt>
      <trkpt lat="47.45924" lon="6.73644">
        <ele>439</ele>
        <time>2016-02-28T09:08:30.000Z</time>
      </trkpt>
      <trkpt lat="47.45921" lon="6.73646">
        <ele>439</ele>
        <time>2016-02-28T09:08:31.000Z</time>
      </trkpt>
      <trkpt lat="47.45919" lon="6.73647">
        <ele>439</ele>
        <time>2016-02-28T09:08:32.000Z</time>
      </trkpt>
      <trkpt lat="47.45917" lon="6.73647">
        <ele>442</ele>
        <time>2016-02-28T09:08:33.000Z</time>
      </trkpt>
      <trkpt lat="47.45914" lon="6.73647">
        <ele>442</ele>
        <time>2016-02-28T09:08:34.000Z</time>
      </trkpt>
      <trkpt lat="47.45912" lon="6.73647">
        <ele>442</ele>
        <time>2016-02-28T09:08:35.000Z</time>
      </trkpt>
      <trkpt lat="47.4591" lon="6.73647">
        <ele>442</ele>
        <time>2016-02-28T09:08:36.000Z</time>
      </trkpt>
      <trkpt lat="47.45907" lon="6.73647">
        <ele>442</ele>
        <time>2016-02-28T09:08:37.000Z</time>
      </trkpt>
      <trkpt lat="47.45905" lon="6.73647">
        <ele>442</ele>
        <time>2016-02-28T09:08:38.000Z</time>
      </trkpt>
      <trkpt lat="47.45902" lon="6.73647">
        <ele>442</ele>
        <time>2016-02-28T09:08:39.000Z</time>
      </trkpt>
      <trkpt lat="47.459" lon="6.73647">
        <ele>442</ele>
        <time>2016-02-28T09:08:40.000Z</time>
      </trkpt>
      <trkpt lat="47.45897" lon="6.73647">
        <ele>442</ele>
        <time>2016-02-28T09:08:41.000Z</time>
      </trkpt>
      <trkpt lat="47.45894" lon="6.73646">
        <ele>442</ele>
        <time>2016-02-28T09:08:42.000Z</time>
      </trkpt>
      <trkpt lat="47.45891" lon="6.73645">
        <ele>442</ele>
        <time>2016-02-28T09:08:43.000Z</time>
      </trkpt>
      <trkpt lat="47.45889" lon="6.73645">
        <ele>442</ele>
        <time>2016-02-28T09:08:44.000Z</time>
      </trkpt>
      <trkpt lat="47.45886" lon="6.73645">
        <ele>443</ele>
        <time>2016-02-28T09:08:45.000Z</time>
      </trkpt>
      <trkpt lat="47.45883" lon="6.73644">
        <ele>443</ele>
        <time>2016-02-28T09:08:47.000Z</time>
      </trkpt>
      <trkpt lat="47.45881" lon="6.73643">
        <ele>443</ele>
        <time>2016-02-28T09:08:48.000Z</time>
      </trkpt>
      <trkpt lat="47.45877" lon="6.73643">
        <ele>443</ele>
        <time>2016-02-28T09:08:50.000Z</time>
      </trkpt>
      <trkpt lat="47.45874" lon="6.73643">
        <ele>443</ele>
        <time>2016-02-28T09:08:51.000Z</time>
      </trkpt>
      <trkpt lat="47.45872" lon="6.73643">
        <ele>443</ele>
        <time>2016-02-28T09:08:52.000Z</time>
      </trkpt>
      <trkpt lat="47.45869" lon="6.73644">
        <ele>443</ele>
        <time>2016-02-28T09:08:53.000Z</time>
      </trkpt>
      <trkpt lat="47.45866" lon="6.73644">
        <ele>443</ele>
        <time>2016-02-28T09:08:54.000Z</time>
      </trkpt>
      <trkpt lat="47.45863" lon="6.73645">
        <ele>443</ele>
        <time>2016-02-28T09:08:55.000Z</time>
      </trkpt>
      <trkpt lat="47.45861" lon="6.73645">
        <ele>443</ele>
        <time>2016-02-28T09:08:56.000Z</time>
      </trkpt>
      <trkpt lat="47.45858" lon="6.73645">
        <ele>443</ele>
        <time>2016-02-28T09:08:57.000Z</time>
      </trkpt>
      <trkpt lat="47.45856" lon="6.73645">
        <ele>443</ele>
        <time>2016-02-28T09:08:58.000Z</time>
      </trkpt>
      <trkpt lat="47.45854" lon="6.73645">
        <ele>444</ele>
        <time>2016-02-28T09:08:59.000Z</time>
      </trkpt>
      <trkpt lat="47.45851" lon="6.73645">
        <ele>444</ele>
        <time>2016-02-28T09:09:00.000Z</time>
      </trkpt>
      <trkpt lat="47.45849" lon="6.73646">
        <ele>444</ele>
        <time>2016-02-28T09:09:01.000Z</time>
      </trkpt>
      <trkpt lat="47.45846" lon="6.73646">
        <ele>444</ele>
        <time>2016-02-28T09:09:02.000Z</time>
      </trkpt>
      <trkpt lat="47.45844" lon="6.73646">
        <ele>444</ele>
        <time>2016-02-28T09:09:03.000Z</time>
      </trkpt>
      <trkpt lat="47.45841" lon="6.73647">
        <ele>444</ele>
        <time>2016-02-28T09:09:04.000Z</time>
      </trkpt>
      <trkpt lat="47.45839" lon="6.73647">
        <ele>444</ele>
        <time>2016-02-28T09:09:05.000Z</time>
      </trkpt>
      <trkpt lat="47.45836" lon="6.73647">
        <ele>444</ele>
        <time>2016-02-28T09:09:06.000Z</time>
      </trkpt>
      <trkpt lat="47.45834" lon="6.73647">
        <ele>444</ele>
        <time>2016-02-28T09:09:07.000Z</time>
      </trkpt>
      <trkpt lat="47.45831" lon="6.73647">
        <ele>446</ele>
        <time>2016-02-28T09:09:08.000Z</time>
      </trkpt>
      <trkpt lat="47.45829" lon="6.73648">
        <ele>446</ele>
        <time>2016-02-28T09:09:09.000Z</time>
      </trkpt>
      <trkpt lat="47.45826" lon="6.73648">
        <ele>446</ele>
        <time>2016-02-28T09:09:10.000Z</time>
      </trkpt>
      <trkpt lat="47.45823" lon="6.73649">
        <ele>446</ele>
        <time>2016-02-28T09:09:11.000Z</time>
      </trkpt>
      <trkpt lat="47.45821" lon="6.73649">
        <ele>446</ele>
        <time>2016-02-28T09:09:12.000Z</time>
      </trkpt>
      <trkpt lat="47.45818" lon="6.73649">
        <ele>446</ele>
        <time>2016-02-28T09:09:13.000Z</time>
      </trkpt>
      <trkpt lat="47.45815" lon="6.7365">
        <ele>446</ele>
        <time>2016-02-28T09:09:14.000Z</time>
      </trkpt>
      <trkpt lat="47.45812" lon="6.7365">
        <ele>446</ele>
        <time>2016-02-28T09:09:15.000Z</time>
      </trkpt>
      <trkpt lat="47.4581" lon="6.73651">
        <ele>446</ele>
        <time>2016-02-28T09:09:16.000Z</time>
      </trkpt>
      <trkpt lat="47.45807" lon="6.73651">
        <ele>447</ele>
        <time>2016-02-28T09:09:17.000Z</time>
      </trkpt>
      <trkpt lat="47.45804" lon="6.73652">
        <ele>447</ele>
        <time>2016-02-28T09:09:18.000Z</time>
      </trkpt>
      <trkpt lat="47.45801" lon="6.73653">
        <ele>447</ele>
        <time>2016-02-28T09:09:19.000Z</time>
      </trkpt>
      <trkpt lat="47.45798" lon="6.73654">
        <ele>447</ele>
        <time>2016-02-28T09:09:20.000Z</time>
      </trkpt>
      <trkpt lat="47.45795" lon="6.73655">
        <ele>447</ele>
        <time>2016-02-28T09:09:21.000Z</time>
      </trkpt>
      <trkpt lat="47.45793" lon="6.73656">
        <ele>447</ele>
        <time>2016-02-28T09:09:22.000Z</time>
      </trkpt>
      <trkpt lat="47.4579" lon="6.73656">
        <ele>447</ele>
        <time>2016-02-28T09:09:23.000Z</time>
      </trkpt>
      <trkpt lat="47.45788" lon="6.73657">
        <ele>447</ele>
        <time>2016-02-28T09:09:24.000Z</time>
      </trkpt>
      <trkpt lat="47.45785" lon="6.73658">
        <ele>447</ele>
        <time>2016-02-28T09:09:25.000Z</time>
      </trkpt>
      <trkpt lat="47.45782" lon="6.73659">
        <ele>447</ele>
        <time>2016-02-28T09:09:26.000Z</time>
      </trkpt>
      <trkpt lat="47.4578" lon="6.7366">
        <ele>447</ele>
        <time>2016-02-28T09:09:27.000Z</time>
      </trkpt>
      <trkpt lat="47.45777" lon="6.73661">
        <ele>448</ele>
        <time>2016-02-28T09:09:28.000Z</time>
      </trkpt>
      <trkpt lat="47.45774" lon="6.73662">
        <ele>448</ele>
        <time>2016-02-28T09:09:29.000Z</time>
      </trkpt>
      <trkpt lat="47.45771" lon="6.73663">
        <ele>448</ele>
        <time>2016-02-28T09:09:30.000Z</time>
      </trkpt>
      <trkpt lat="47.45769" lon="6.73663">
        <ele>448</ele>
        <time>2016-02-28T09:09:31.000Z</time>
      </trkpt>
      <trkpt lat="47.45766" lon="6.73664">
        <ele>448</ele>
        <time>2016-02-28T09:09:32.000Z</time>
      </trkpt>
      <trkpt lat="47.45764" lon="6.73664">
        <ele>448</ele>
        <time>2016-02-28T09:09:33.000Z</time>
      </trkpt>
      <trkpt lat="47.45762" lon="6.73664">
        <ele>448</ele>
        <time>2016-02-28T09:09:34.000Z</time>
      </trkpt>
      <trkpt lat="47.45759" lon="6.73664">
        <ele>448</ele>
        <time>2016-02-28T09:09:35.000Z</time>
      </trkpt>
      <trkpt lat="47.45757" lon="6.73664">
        <ele>448</ele>
        <time>2016-02-28T09:09:36.000Z</time>
      </trkpt>
      <trkpt lat="47.45754" lon="6.73664">
        <ele>449</ele>
        <time>2016-02-28T09:09:37.000Z</time>
      </trkpt>
      <trkpt lat="47.45751" lon="6.73664">
        <ele>449</ele>
        <time>2016-02-28T09:09:38.000Z</time>
      </trkpt>
      <trkpt lat="47.45748" lon="6.73664">
        <ele>449</ele>
        <time>2016-02-28T09:09:39.000Z</time>
      </trkpt>
      <trkpt lat="47.45745" lon="6.73663">
        <ele>449</ele>
        <time>2016-02-28T09:09:40.000Z</time>
      </trkpt>
      <trkpt lat="47.45742" lon="6.73663">
        <ele>450</ele>
        <time>2016-02-28T09:09:41.000Z</time>
      </trkpt>
      <trkpt lat="47.45739" lon="6.73663">
        <ele>450</ele>
        <time>2016-02-28T09:09:42.000Z</time>
      </trkpt>
      <trkpt lat="47.45737" lon="6.73662">
        <ele>450</ele>
        <time>2016-02-28T09:09:43.000Z</time>
      </trkpt>
      <trkpt lat="47.45734" lon="6.73662">
        <ele>450</ele>
        <time>2016-02-28T09:09:44.000Z</time>
      </trkpt>
      <trkpt lat="47.45731" lon="6.73661">
        <ele>450</ele>
        <time>2016-02-28T09:09:45.000Z</time>
      </trkpt>
      <trkpt lat="47.45729" lon="6.73661">
        <ele>450</ele>
        <time>2016-02-28T09:09:46.000Z</time>
      </trkpt>
      <trkpt lat="47.45726" lon="6.73661">
        <ele>450</ele>
        <time>2016-02-28T09:09:47.000Z</time>
      </trkpt>
      <trkpt lat="47.45723" lon="6.73661">
        <ele>450</ele>
        <time>2016-02-28T09:09:48.000Z</time>
      </trkpt>
      <trkpt lat="47.45721" lon="6.73661">
        <ele>450</ele>
        <time>2016-02-28T09:09:49.000Z</time>
      </trkpt>
      <trkpt lat="47.45719" lon="6.73661">
        <ele>450</ele>
        <time>2016-02-28T09:09:50.000Z</time>
      </trkpt>
      <trkpt lat="47.45716" lon="6.73661">
        <ele>451</ele>
        <time>2016-02-28T09:09:51.000Z</time>
      </trkpt>
      <trkpt lat="47.45713" lon="6.73661">
        <ele>451</ele>
        <time>2016-02-28T09:09:52.000Z</time>
      </trkpt>
      <trkpt lat="47.4571" lon="6.73661">
        <ele>451</ele>
        <time>2016-02-28T09:09:53.000Z</time>
      </trkpt>
      <trkpt lat="47.45708" lon="6.73661">
        <ele>451</ele>
        <time>2016-02-28T09:09:54.000Z</time>
      </trkpt>
      <trkpt lat="47.45705" lon="6.73661">
        <ele>451</ele>
        <time>2016-02-28T09:09:55.000Z</time>
      </trkpt>
      <trkpt lat="47.45702" lon="6.73662">
        <ele>451</ele>
        <time>2016-02-28T09:09:56.000Z</time>
      </trkpt>
      <trkpt lat="47.45699" lon="6.73662">
        <ele>451</ele>
        <time>2016-02-28T09:09:57.000Z</time>
      </trkpt>
      <trkpt lat="47.45696" lon="6.73662">
        <ele>451</ele>
        <time>2016-02-28T09:09:58.000Z</time>
      </trkpt>
      <trkpt lat="47.45693" lon="6.73662">
        <ele>451</ele>
        <time>2016-02-28T09:09:59.000Z</time>
      </trkpt>
      <trkpt lat="47.45691" lon="6.73662">
        <ele>452</ele>
        <time>2016-02-28T09:10:00.000Z</time>
      </trkpt>
      <trkpt lat="47.45688" lon="6.73662">
        <ele>452</ele>
        <time>2016-02-28T09:10:01.000Z</time>
      </trkpt>
      <trkpt lat="47.45685" lon="6.73663">
        <ele>452</ele>
        <time>2016-02-28T09:10:02.000Z</time>
      </trkpt>
      <trkpt lat="47.45682" lon="6.73663">
        <ele>452</ele>
        <time>2016-02-28T09:10:03.000Z</time>
      </trkpt>
      <trkpt lat="47.45679" lon="6.73663">
        <ele>452</ele>
        <time>2016-02-28T09:10:04.000Z</time>
      </trkpt>
      <trkpt lat="47.45676" lon="6.73663">
        <ele>452</ele>
        <time>2016-02-28T09:10:05.000Z</time>
      </trkpt>
      <trkpt lat="47.45673" lon="6.73664">
        <ele>452</ele>
        <time>2016-02-28T09:10:06.000Z</time>
      </trkpt>
      <trkpt lat="47.45671" lon="6.73664">
        <ele>453</ele>
        <time>2016-02-28T09:10:07.000Z</time>
      </trkpt>
      <trkpt lat="47.45668" lon="6.73664">
        <ele>453</ele>
        <time>2016-02-28T09:10:08.000Z</time>
      </trkpt>
      <trkpt lat="47.45665" lon="6.73665">
        <ele>453</ele>
        <time>2016-02-28T09:10:09.000Z</time>
      </trkpt>
      <trkpt lat="47.45663" lon="6.73666">
        <ele>453</ele>
        <time>2016-02-28T09:10:10.000Z</time>
      </trkpt>
      <trkpt lat="47.45661" lon="6.73667">
        <ele>454</ele>
        <time>2016-02-28T09:10:11.000Z</time>
      </trkpt>
      <trkpt lat="47.45659" lon="6.73668">
        <ele>454</ele>
        <time>2016-02-28T09:10:12.000Z</time>
      </trkpt>
      <trkpt lat="47.45656" lon="6.73668">
        <ele>454</ele>
        <time>2016-02-28T09:10:13.000Z</time>
      </trkpt>
      <trkpt lat="47.45654" lon="6.73669">
        <ele>455</ele>
        <time>2016-02-28T09:10:14.000Z</time>
      </trkpt>
      <trkpt lat="47.45651" lon="6.7367">
        <ele>455</ele>
        <time>2016-02-28T09:10:15.000Z</time>
      </trkpt>
      <trkpt lat="47.45649" lon="6.7367">
        <ele>455</ele>
        <time>2016-02-28T09:10:16.000Z</time>
      </trkpt>
      <trkpt lat="47.45646" lon="6.73671">
        <ele>455</ele>
        <time>2016-02-28T09:10:17.000Z</time>
      </trkpt>
      <trkpt lat="47.45643" lon="6.73671">
        <ele>456</ele>
        <time>2016-02-28T09:10:18.000Z</time>
      </trkpt>
      <trkpt lat="47.4564" lon="6.73672">
        <ele>456</ele>
        <time>2016-02-28T09:10:19.000Z</time>
      </trkpt>
      <trkpt lat="47.45636" lon="6.7367">
        <ele>456</ele>
        <time>2016-02-28T09:10:21.000Z</time>
      </trkpt>
      <trkpt lat="47.45635" lon="6.73669">
        <ele>456</ele>
        <time>2016-02-28T09:10:22.000Z</time>
      </trkpt>
      <trkpt lat="47.45631" lon="6.73668">
        <ele>456</ele>
        <time>2016-02-28T09:10:24.000Z</time>
      </trkpt>
      <trkpt lat="47.45629" lon="6.73668">
        <ele>457</ele>
        <time>2016-02-28T09:10:25.000Z</time>
      </trkpt>
      <trkpt lat="47.45625" lon="6.73668">
        <ele>457</ele>
        <time>2016-02-28T09:10:27.000Z</time>
      </trkpt>
      <trkpt lat="47.45623" lon="6.73668">
        <ele>457</ele>
        <time>2016-02-28T09:10:28.000Z</time>
      </trkpt>
      <trkpt lat="47.45619" lon="6.73667">
        <ele>457</ele>
        <time>2016-02-28T09:10:30.000Z</time>
      </trkpt>
      <trkpt lat="47.45617" lon="6.73667">
        <ele>456</ele>
        <time>2016-02-28T09:10:31.000Z</time>
      </trkpt>
      <trkpt lat="47.45614" lon="6.73666">
        <ele>457</ele>
        <time>2016-02-28T09:10:32.000Z</time>
      </trkpt>
      <trkpt lat="47.45611" lon="6.73666">
        <ele>457</ele>
        <time>2016-02-28T09:10:33.000Z</time>
      </trkpt>
      <trkpt lat="47.45609" lon="6.73666">
        <ele>457</ele>
        <time>2016-02-28T09:10:34.000Z</time>
      </trkpt>
      <trkpt lat="47.45606" lon="6.73666">
        <ele>457</ele>
        <time>2016-02-28T09:10:35.000Z</time>
      </trkpt>
      <trkpt lat="47.45604" lon="6.73666">
        <ele>457</ele>
        <time>2016-02-28T09:10:36.000Z</time>
      </trkpt>
      <trkpt lat="47.45601" lon="6.73666">
        <ele>458</ele>
        <time>2016-02-28T09:10:37.000Z</time>
      </trkpt>
      <trkpt lat="47.45597" lon="6.73666">
        <ele>458</ele>
        <time>2016-02-28T09:10:39.000Z</time>
      </trkpt>
      <trkpt lat="47.45596" lon="6.73666">
        <ele>458</ele>
        <time>2016-02-28T09:10:40.000Z</time>
      </trkpt>
      <trkpt lat="47.45593" lon="6.73666">
        <ele>459</ele>
        <time>2016-02-28T09:10:42.000Z</time>
      </trkpt>
      <trkpt lat="47.45591" lon="6.73666">
        <ele>459</ele>
        <time>2016-02-28T09:10:43.000Z</time>
      </trkpt>
      <trkpt lat="47.45589" lon="6.73666">
        <ele>459</ele>
        <time>2016-02-28T09:10:44.000Z</time>
      </trkpt>
      <trkpt lat="47.45585" lon="6.73667">
        <ele>460</ele>
        <time>2016-02-28T09:10:45.000Z</time>
      </trkpt>
      <trkpt lat="47.45582" lon="6.73668">
        <ele>460</ele>
        <time>2016-02-28T09:10:46.000Z</time>
      </trkpt>
      <trkpt lat="47.45578" lon="6.73669">
        <ele>460</ele>
        <time>2016-02-28T09:10:47.000Z</time>
      </trkpt>
      <trkpt lat="47.45574" lon="6.7367">
        <ele>460</ele>
        <time>2016-02-28T09:10:48.000Z</time>
      </trkpt>
      <trkpt lat="47.45569" lon="6.73671">
        <ele>461</ele>
        <time>2016-02-28T09:10:49.000Z</time>
      </trkpt>
      <trkpt lat="47.45565" lon="6.73672">
        <ele>461</ele>
        <time>2016-02-28T09:10:50.000Z</time>
      </trkpt>
      <trkpt lat="47.4556" lon="6.73672">
        <ele>461</ele>
        <time>2016-02-28T09:10:51.000Z</time>
      </trkpt>
      <trkpt lat="47.45556" lon="6.73671">
        <ele>461</ele>
        <time>2016-02-28T09:10:52.000Z</time>
      </trkpt>
      <trkpt lat="47.45551" lon="6.7367">
        <ele>461</ele>
        <time>2016-02-28T09:10:53.000Z</time>
      </trkpt>
      <trkpt lat="47.45547" lon="6.73668">
        <ele>461</ele>
        <time>2016-02-28T09:10:54.000Z</time>
      </trkpt>
      <trkpt lat="47.45543" lon="6.73667">
        <ele>461</ele>
        <time>2016-02-28T09:10:55.000Z</time>
      </trkpt>
      <trkpt lat="47.45539" lon="6.73665">
        <ele>461</ele>
        <time>2016-02-28T09:10:56.000Z</time>
      </trkpt>
      <trkpt lat="47.45536" lon="6.73664">
        <ele>461</ele>
        <time>2016-02-28T09:10:57.000Z</time>
      </trkpt>
      <trkpt lat="47.45533" lon="6.73661">
        <ele>461</ele>
        <time>2016-02-28T09:10:58.000Z</time>
      </trkpt>
      <trkpt lat="47.4553" lon="6.73659">
        <ele>461</ele>
        <time>2016-02-28T09:10:59.000Z</time>
      </trkpt>
      <trkpt lat="47.45527" lon="6.73656">
        <ele>462</ele>
        <time>2016-02-28T09:11:00.000Z</time>
      </trkpt>
      <trkpt lat="47.45524" lon="6.73653">
        <ele>462</ele>
        <time>2016-02-28T09:11:01.000Z</time>
      </trkpt>
      <trkpt lat="47.45521" lon="6.73649">
        <ele>462</ele>
        <time>2016-02-28T09:11:02.000Z</time>
      </trkpt>
      <trkpt lat="47.45518" lon="6.73645">
        <ele>462</ele>
        <time>2016-02-28T09:11:03.000Z</time>
      </trkpt>
      <trkpt lat="47.45514" lon="6.73642">
        <ele>462</ele>
        <time>2016-02-28T09:11:04.000Z</time>
      </trkpt>
      <trkpt lat="47.45511" lon="6.73638">
        <ele>462</ele>
        <time>2016-02-28T09:11:05.000Z</time>
      </trkpt>
      <trkpt lat="47.45509" lon="6.73635">
        <ele>462</ele>
        <time>2016-02-28T09:11:06.000Z</time>
      </trkpt>
      <trkpt lat="47.45507" lon="6.73631">
        <ele>462</ele>
        <time>2016-02-28T09:11:07.000Z</time>
      </trkpt>
      <trkpt lat="47.45505" lon="6.73627">
        <ele>462</ele>
        <time>2016-02-28T09:11:08.000Z</time>
      </trkpt>
      <trkpt lat="47.45503" lon="6.73624">
        <ele>462</ele>
        <time>2016-02-28T09:11:09.000Z</time>
      </trkpt>
      <trkpt lat="47.45502" lon="6.7362">
        <ele>462</ele>
        <time>2016-02-28T09:11:10.000Z</time>
      </trkpt>
      <trkpt lat="47.455" lon="6.73616">
        <ele>463</ele>
        <time>2016-02-28T09:11:11.000Z</time>
      </trkpt>
      <trkpt lat="47.45499" lon="6.73611">
        <ele>463</ele>
        <time>2016-02-28T09:11:12.000Z</time>
      </trkpt>
      <trkpt lat="47.45499" lon="6.73606">
        <ele>464</ele>
        <time>2016-02-28T09:11:13.000Z</time>
      </trkpt>
      <trkpt lat="47.45498" lon="6.73601">
        <ele>464</ele>
        <time>2016-02-28T09:11:14.000Z</time>
      </trkpt>
      <trkpt lat="47.45498" lon="6.73597">
        <ele>464</ele>
        <time>2016-02-28T09:11:15.000Z</time>
      </trkpt>
      <trkpt lat="47.45497" lon="6.73592">
        <ele>465</ele>
        <time>2016-02-28T09:11:16.000Z</time>
      </trkpt>
      <trkpt lat="47.45496" lon="6.73588">
        <ele>465</ele>
        <time>2016-02-28T09:11:17.000Z</time>
      </trkpt>
      <trkpt lat="47.45495" lon="6.73583">
        <ele>465</ele>
        <time>2016-02-28T09:11:18.000Z</time>
      </trkpt>
      <trkpt lat="47.45494" lon="6.73579">
        <ele>465</ele>
        <time>2016-02-28T09:11:19.000Z</time>
      </trkpt>
      <trkpt lat="47.45493" lon="6.73574">
        <ele>465</ele>
        <time>2016-02-28T09:11:20.000Z</time>
      </trkpt>
      <trkpt lat="47.45493" lon="6.73568">
        <ele>465</ele>
        <time>2016-02-28T09:11:21.000Z</time>
      </trkpt>
      <trkpt lat="47.45491" lon="6.73563">
        <ele>465</ele>
        <time>2016-02-28T09:11:22.000Z</time>
      </trkpt>
      <trkpt lat="47.4549" lon="6.73557">
        <ele>465</ele>
        <time>2016-02-28T09:11:23.000Z</time>
      </trkpt>
      <trkpt lat="47.45489" lon="6.7355">
        <ele>465</ele>
        <time>2016-02-28T09:11:24.000Z</time>
      </trkpt>
      <trkpt lat="47.45487" lon="6.73545">
        <ele>465</ele>
        <time>2016-02-28T09:11:25.000Z</time>
      </trkpt>
      <trkpt lat="47.45487" lon="6.73539">
        <ele>465</ele>
        <time>2016-02-28T09:11:26.000Z</time>
      </trkpt>
      <trkpt lat="47.45486" lon="6.73534">
        <ele>465</ele>
        <time>2016-02-28T09:11:27.000Z</time>
      </trkpt>
      <trkpt lat="47.45485" lon="6.7353">
        <ele>465</ele>
        <time>2016-02-28T09:11:28.000Z</time>
      </trkpt>
      <trkpt lat="47.45484" lon="6.73526">
        <ele>465</ele>
        <time>2016-02-28T09:11:29.000Z</time>
      </trkpt>
      <trkpt lat="47.45483" lon="6.73522">
        <ele>465</ele>
        <time>2016-02-28T09:11:30.000Z</time>
      </trkpt>
      <trkpt lat="47.45482" lon="6.73517">
        <ele>465</ele>
        <time>2016-02-28T09:11:31.000Z</time>
      </trkpt>
      <trkpt lat="47.45482" lon="6.73513">
        <ele>465</ele>
        <time>2016-02-28T09:11:32.000Z</time>
      </trkpt>
      <trkpt lat="47.45482" lon="6.73509">
        <ele>465</ele>
        <time>2016-02-28T09:11:33.000Z</time>
      </trkpt>
      <trkpt lat="47.45482" lon="6.73504">
        <ele>465</ele>
        <time>2016-02-28T09:11:34.000Z</time>
      </trkpt>
      <trkpt lat="47.45482" lon="6.735">
        <ele>466</ele>
        <time>2016-02-28T09:11:35.000Z</time>
      </trkpt>
      <trkpt lat="47.45482" lon="6.73495">
        <ele>466</ele>
        <time>2016-02-28T09:11:36.000Z</time>
      </trkpt>
      <trkpt lat="47.45481" lon="6.7349">
        <ele>466</ele>
        <time>2016-02-28T09:11:37.000Z</time>
      </trkpt>
      <trkpt lat="47.45481" lon="6.73486">
        <ele>466</ele>
        <time>2016-02-28T09:11:38.000Z</time>
      </trkpt>
      <trkpt lat="47.45481" lon="6.73482">
        <ele>465</ele>
        <time>2016-02-28T09:11:39.000Z</time>
      </trkpt>
      <trkpt lat="47.45481" lon="6.73479">
        <ele>465</ele>
        <time>2016-02-28T09:11:40.000Z</time>
      </trkpt>
      <trkpt lat="47.4548" lon="6.73475">
        <ele>465</ele>
        <time>2016-02-28T09:11:41.000Z</time>
      </trkpt>
      <trkpt lat="47.4548" lon="6.73471">
        <ele>465</ele>
        <time>2016-02-28T09:11:42.000Z</time>
      </trkpt>
      <trkpt lat="47.45479" lon="6.73467">
        <ele>465</ele>
        <time>2016-02-28T09:11:43.000Z</time>
      </trkpt>
      <trkpt lat="47.45478" lon="6.73463">
        <ele>465</ele>
        <time>2016-02-28T09:11:44.000Z</time>
      </trkpt>
      <trkpt lat="47.45477" lon="6.7346">
        <ele>465</ele>
        <time>2016-02-28T09:11:45.000Z</time>
      </trkpt>
      <trkpt lat="47.45476" lon="6.73456">
        <ele>465</ele>
        <time>2016-02-28T09:11:46.000Z</time>
      </trkpt>
      <trkpt lat="47.45475" lon="6.73452">
        <ele>465</ele>
        <time>2016-02-28T09:11:47.000Z</time>
      </trkpt>
      <trkpt lat="47.45474" lon="6.73448">
        <ele>465</ele>
        <time>2016-02-28T09:11:48.000Z</time>
      </trkpt>
      <trkpt lat="47.45474" lon="6.73444">
        <ele>465</ele>
        <time>2016-02-28T09:11:49.000Z</time>
      </trkpt>
      <trkpt lat="47.45474" lon="6.73439">
        <ele>465</ele>
        <time>2016-02-28T09:11:50.000Z</time>
      </trkpt>
      <trkpt lat="47.45474" lon="6.73433">
        <ele>465</ele>
        <time>2016-02-28T09:11:51.000Z</time>
      </trkpt>
      <trkpt lat="47.45475" lon="6.73428">
        <ele>465</ele>
        <time>2016-02-28T09:11:52.000Z</time>
      </trkpt>
      <trkpt lat="47.45476" lon="6.73423">
        <ele>465</ele>
        <time>2016-02-28T09:11:53.000Z</time>
      </trkpt>
      <trkpt lat="47.45477" lon="6.73418">
        <ele>465</ele>
        <time>2016-02-28T09:11:54.000Z</time>
      </trkpt>
      <trkpt lat="47.45478" lon="6.73414">
        <ele>465</ele>
        <time>2016-02-28T09:11:55.000Z</time>
      </trkpt>
      <trkpt lat="47.45479" lon="6.7341">
        <ele>465</ele>
        <time>2016-02-28T09:11:56.000Z</time>
      </trkpt>
      <trkpt lat="47.4548" lon="6.73407">
        <ele>465</ele>
        <time>2016-02-28T09:11:57.000Z</time>
      </trkpt>
      <trkpt lat="47.45481" lon="6.73404">
        <ele>465</ele>
        <time>2016-02-28T09:11:58.000Z</time>
      </trkpt>
      <trkpt lat="47.45482" lon="6.734">
        <ele>465</ele>
        <time>2016-02-28T09:11:59.000Z</time>
      </trkpt>
      <trkpt lat="47.45482" lon="6.73397">
        <ele>465</ele>
        <time>2016-02-28T09:12:00.000Z</time>
      </trkpt>
      <trkpt lat="47.45482" lon="6.73394">
        <ele>465</ele>
        <time>2016-02-28T09:12:01.000Z</time>
      </trkpt>
      <trkpt lat="47.45482" lon="6.73389">
        <ele>464</ele>
        <time>2016-02-28T09:12:02.000Z</time>
      </trkpt>
      <trkpt lat="47.45481" lon="6.73385">
        <ele>464</ele>
        <time>2016-02-28T09:12:03.000Z</time>
      </trkpt>
      <trkpt lat="47.45481" lon="6.7338">
        <ele>464</ele>
        <time>2016-02-28T09:12:04.000Z</time>
      </trkpt>
      <trkpt lat="47.45481" lon="6.73374">
        <ele>464</ele>
        <time>2016-02-28T09:12:05.000Z</time>
      </trkpt>
      <trkpt lat="47.45481" lon="6.73369">
        <ele>464</ele>
        <time>2016-02-28T09:12:06.000Z</time>
      </trkpt>
      <trkpt lat="47.45482" lon="6.73364">
        <ele>464</ele>
        <time>2016-02-28T09:12:07.000Z</time>
      </trkpt>
      <trkpt lat="47.45482" lon="6.73359">
        <ele>464</ele>
        <time>2016-02-28T09:12:08.000Z</time>
      </trkpt>
      <trkpt lat="47.45485" lon="6.73356">
        <ele>464</ele>
        <time>2016-02-28T09:12:10.000Z</time>
      </trkpt>
      <trkpt lat="47.45488" lon="6.73357">
        <ele>464</ele>
        <time>2016-02-28T09:12:11.000Z</time>
      </trkpt>
      <trkpt lat="47.4549" lon="6.73356">
        <ele>464</ele>
        <time>2016-02-28T09:12:12.000Z</time>
      </trkpt>
      <trkpt lat="47.45493" lon="6.73354">
        <ele>464</ele>
        <time>2016-02-28T09:12:13.000Z</time>
      </trkpt>
      <trkpt lat="47.45496" lon="6.73352">
        <ele>464</ele>
        <time>2016-02-28T09:12:14.000Z</time>
      </trkpt>
      <trkpt lat="47.45498" lon="6.73348">
        <ele>464</ele>
        <time>2016-02-28T09:12:15.000Z</time>
      </trkpt>
      <trkpt lat="47.45501" lon="6.73346">
        <ele>463</ele>
        <time>2016-02-28T09:12:16.000Z</time>
      </trkpt>
      <trkpt lat="47.45502" lon="6.73343">
        <ele>463</ele>
        <time>2016-02-28T09:12:17.000Z</time>
      </trkpt>
      <trkpt lat="47.45504" lon="6.73341">
        <ele>463</ele>
        <time>2016-02-28T09:12:18.000Z</time>
      </trkpt>
      <trkpt lat="47.45506" lon="6.73338">
        <ele>463</ele>
        <time>2016-02-28T09:12:19.000Z</time>
      </trkpt>
      <trkpt lat="47.45508" lon="6.73334">
        <ele>463</ele>
        <time>2016-02-28T09:12:21.000Z</time>
      </trkpt>
      <trkpt lat="47.45509" lon="6.73332">
        <ele>463</ele>
        <time>2016-02-28T09:12:22.000Z</time>
      </trkpt>
      <trkpt lat="47.45512" lon="6.73331">
        <ele>463</ele>
        <time>2016-02-28T09:12:23.000Z</time>
      </trkpt>
      <trkpt lat="47.45514" lon="6.7333">
        <ele>463</ele>
        <time>2016-02-28T09:12:24.000Z</time>
      </trkpt>
      <trkpt lat="47.45518" lon="6.7333">
        <ele>463</ele>
        <time>2016-02-28T09:12:25.000Z</time>
      </trkpt>
      <trkpt lat="47.45521" lon="6.7333">
        <ele>463</ele>
        <time>2016-02-28T09:12:26.000Z</time>
      </trkpt>
      <trkpt lat="47.45524" lon="6.73329">
        <ele>463</ele>
        <time>2016-02-28T09:12:27.000Z</time>
      </trkpt>
      <trkpt lat="47.45527" lon="6.73328">
        <ele>463</ele>
        <time>2016-02-28T09:12:28.000Z</time>
      </trkpt>
      <trkpt lat="47.45529" lon="6.73327">
        <ele>463</ele>
        <time>2016-02-28T09:12:29.000Z</time>
      </trkpt>
      <trkpt lat="47.45532" lon="6.73326">
        <ele>463</ele>
        <time>2016-02-28T09:12:30.000Z</time>
      </trkpt>
      <trkpt lat="47.45535" lon="6.73325">
        <ele>463</ele>
        <time>2016-02-28T09:12:31.000Z</time>
      </trkpt>
      <trkpt lat="47.45538" lon="6.73323">
        <ele>463</ele>
        <time>2016-02-28T09:12:32.000Z</time>
      </trkpt>
      <trkpt lat="47.45541" lon="6.73321">
        <ele>463</ele>
        <time>2016-02-28T09:12:33.000Z</time>
      </trkpt>
      <trkpt lat="47.45544" lon="6.73318">
        <ele>463</ele>
        <time>2016-02-28T09:12:34.000Z</time>
      </trkpt>
      <trkpt lat="47.45547" lon="6.73316">
        <ele>463</ele>
        <time>2016-02-28T09:12:35.000Z</time>
      </trkpt>
      <trkpt lat="47.45549" lon="6.73314">
        <ele>463</ele>
        <time>2016-02-28T09:12:36.000Z</time>
      </trkpt>
      <trkpt lat="47.45552" lon="6.73311">
        <ele>463</ele>
        <time>2016-02-28T09:12:37.000Z</time>
      </trkpt>
      <trkpt lat="47.45554" lon="6.73307">
        <ele>463</ele>
        <time>2016-02-28T09:12:38.000Z</time>
      </trkpt>
      <trkpt lat="47.45556" lon="6.73304">
        <ele>463</ele>
        <time>2016-02-28T09:12:39.000Z</time>
      </trkpt>
      <trkpt lat="47.45558" lon="6.73301">
        <ele>463</ele>
        <time>2016-02-28T09:12:40.000Z</time>
      </trkpt>
      <trkpt lat="47.45559" lon="6.73298">
        <ele>463</ele>
        <time>2016-02-28T09:12:41.000Z</time>
      </trkpt>
      <trkpt lat="47.45561" lon="6.73295">
        <ele>463</ele>
        <time>2016-02-28T09:12:42.000Z</time>
      </trkpt>
      <trkpt lat="47.45562" lon="6.73291">
        <ele>463</ele>
        <time>2016-02-28T09:12:43.000Z</time>
      </trkpt>
      <trkpt lat="47.45563" lon="6.73288">
        <ele>463</ele>
        <time>2016-02-28T09:12:44.000Z</time>
      </trkpt>
      <trkpt lat="47.45564" lon="6.73285">
        <ele>464</ele>
        <time>2016-02-28T09:12:45.000Z</time>
      </trkpt>
      <trkpt lat="47.45566" lon="6.73282">
        <ele>464</ele>
        <time>2016-02-28T09:12:46.000Z</time>
      </trkpt>
      <trkpt lat="47.45568" lon="6.73279">
        <ele>464</ele>
        <time>2016-02-28T09:12:47.000Z</time>
      </trkpt>
      <trkpt lat="47.45571" lon="6.73276">
        <ele>464</ele>
        <time>2016-02-28T09:12:48.000Z</time>
      </trkpt>
      <trkpt lat="47.45573" lon="6.73274">
        <ele>464</ele>
        <time>2016-02-28T09:12:49.000Z</time>
      </trkpt>
      <trkpt lat="47.45575" lon="6.73271">
        <ele>464</ele>
        <time>2016-02-28T09:12:50.000Z</time>
      </trkpt>
      <trkpt lat="47.45577" lon="6.73268">
        <ele>465</ele>
        <time>2016-02-28T09:12:51.000Z</time>
      </trkpt>
      <trkpt lat="47.45579" lon="6.73264">
        <ele>465</ele>
        <time>2016-02-28T09:12:52.000Z</time>
      </trkpt>
      <trkpt lat="47.45581" lon="6.73262">
        <ele>465</ele>
        <time>2016-02-28T09:12:53.000Z</time>
      </trkpt>
      <trkpt lat="47.45582" lon="6.73255">
        <ele>466</ele>
        <time>2016-02-28T09:12:54.000Z</time>
      </trkpt>
      <trkpt lat="47.45583" lon="6.73251">
        <ele>467</ele>
        <time>2016-02-28T09:12:55.000Z</time>
      </trkpt>
      <trkpt lat="47.45584" lon="6.73247">
        <ele>467</ele>
        <time>2016-02-28T09:12:56.000Z</time>
      </trkpt>
      <trkpt lat="47.45585" lon="6.73242">
        <ele>467</ele>
        <time>2016-02-28T09:12:57.000Z</time>
      </trkpt>
      <trkpt lat="47.45587" lon="6.73237">
        <ele>468</ele>
        <time>2016-02-28T09:12:58.000Z</time>
      </trkpt>
      <trkpt lat="47.45588" lon="6.73233">
        <ele>468</ele>
        <time>2016-02-28T09:12:59.000Z</time>
      </trkpt>
      <trkpt lat="47.45589" lon="6.73228">
        <ele>468</ele>
        <time>2016-02-28T09:13:00.000Z</time>
      </trkpt>
      <trkpt lat="47.45591" lon="6.73223">
        <ele>468</ele>
        <time>2016-02-28T09:13:01.000Z</time>
      </trkpt>
      <trkpt lat="47.45592" lon="6.73218">
        <ele>468</ele>
        <time>2016-02-28T09:13:02.000Z</time>
      </trkpt>
      <trkpt lat="47.45593" lon="6.73212">
        <ele>468</ele>
        <time>2016-02-28T09:13:03.000Z</time>
      </trkpt>
      <trkpt lat="47.45594" lon="6.73207">
        <ele>469</ele>
        <time>2016-02-28T09:13:04.000Z</time>
      </trkpt>
      <trkpt lat="47.45595" lon="6.732">
        <ele>469</ele>
        <time>2016-02-28T09:13:05.000Z</time>
      </trkpt>
      <trkpt lat="47.45596" lon="6.73194">
        <ele>469</ele>
        <time>2016-02-28T09:13:06.000Z</time>
      </trkpt>
      <trkpt lat="47.45596" lon="6.73188">
        <ele>469</ele>
        <time>2016-02-28T09:13:07.000Z</time>
      </trkpt>
      <trkpt lat="47.45597" lon="6.73183">
        <ele>469</ele>
        <time>2016-02-28T09:13:08.000Z</time>
      </trkpt>
      <trkpt lat="47.45597" lon="6.73178">
        <ele>470</ele>
        <time>2016-02-28T09:13:09.000Z</time>
      </trkpt>
      <trkpt lat="47.45598" lon="6.73174">
        <ele>470</ele>
        <time>2016-02-28T09:13:10.000Z</time>
      </trkpt>
      <trkpt lat="47.45598" lon="6.7317">
        <ele>470</ele>
        <time>2016-02-28T09:13:11.000Z</time>
      </trkpt>
      <trkpt lat="47.45598" lon="6.73165">
        <ele>470</ele>
        <time>2016-02-28T09:13:12.000Z</time>
      </trkpt>
      <trkpt lat="47.45598" lon="6.73159">
        <ele>470</ele>
        <time>2016-02-28T09:13:13.000Z</time>
      </trkpt>
      <trkpt lat="47.45598" lon="6.73153">
        <ele>470</ele>
        <time>2016-02-28T09:13:14.000Z</time>
      </trkpt>
      <trkpt lat="47.45598" lon="6.73147">
        <ele>470</ele>
        <time>2016-02-28T09:13:15.000Z</time>
      </trkpt>
      <trkpt lat="47.45598" lon="6.73141">
        <ele>470</ele>
        <time>2016-02-28T09:13:16.000Z</time>
      </trkpt>
      <trkpt lat="47.45597" lon="6.73136">
        <ele>469</ele>
        <time>2016-02-28T09:13:17.000Z</time>
      </trkpt>
      <trkpt lat="47.45596" lon="6.73131">
        <ele>469</ele>
        <time>2016-02-28T09:13:18.000Z</time>
      </trkpt>
      <trkpt lat="47.45595" lon="6.73127">
        <ele>469</ele>
        <time>2016-02-28T09:13:19.000Z</time>
      </trkpt>
      <trkpt lat="47.45595" lon="6.73124">
        <ele>469</ele>
        <time>2016-02-28T09:13:20.000Z</time>
      </trkpt>
      <trkpt lat="47.45594" lon="6.73121">
        <ele>469</ele>
        <time>2016-02-28T09:13:21.000Z</time>
      </trkpt>
      <trkpt lat="47.45595" lon="6.73115">
        <ele>469</ele>
        <time>2016-02-28T09:13:23.000Z</time>
      </trkpt>
      <trkpt lat="47.45595" lon="6.73111">
        <ele>469</ele>
        <time>2016-02-28T09:13:24.000Z</time>
      </trkpt>
      <trkpt lat="47.45596" lon="6.73107">
        <ele>469</ele>
        <time>2016-02-28T09:13:25.000Z</time>
      </trkpt>
      <trkpt lat="47.45597" lon="6.73102">
        <ele>469</ele>
        <time>2016-02-28T09:13:26.000Z</time>
      </trkpt>
      <trkpt lat="47.45598" lon="6.73096">
        <ele>469</ele>
        <time>2016-02-28T09:13:27.000Z</time>
      </trkpt>
      <trkpt lat="47.45599" lon="6.7309">
        <ele>469</ele>
        <time>2016-02-28T09:13:28.000Z</time>
      </trkpt>
      <trkpt lat="47.45598" lon="6.73085">
        <ele>469</ele>
        <time>2016-02-28T09:13:29.000Z</time>
      </trkpt>
      <trkpt lat="47.45598" lon="6.7308">
        <ele>468</ele>
        <time>2016-02-28T09:13:30.000Z</time>
      </trkpt>
      <trkpt lat="47.45598" lon="6.73075">
        <ele>468</ele>
        <time>2016-02-28T09:13:31.000Z</time>
      </trkpt>
      <trkpt lat="47.45598" lon="6.7307">
        <ele>468</ele>
        <time>2016-02-28T09:13:32.000Z</time>
      </trkpt>
      <trkpt lat="47.45598" lon="6.73065">
        <ele>468</ele>
        <time>2016-02-28T09:13:33.000Z</time>
      </trkpt>
      <trkpt lat="47.45597" lon="6.7306">
        <ele>468</ele>
        <time>2016-02-28T09:13:34.000Z</time>
      </trkpt>
      <trkpt lat="47.45597" lon="6.73054">
        <ele>468</ele>
        <time>2016-02-28T09:13:35.000Z</time>
      </trkpt>
      <trkpt lat="47.45596" lon="6.7305">
        <ele>467</ele>
        <time>2016-02-28T09:13:36.000Z</time>
      </trkpt>
      <trkpt lat="47.45595" lon="6.73045">
        <ele>467</ele>
        <time>2016-02-28T09:13:37.000Z</time>
      </trkpt>
      <trkpt lat="47.45594" lon="6.73041">
        <ele>467</ele>
        <time>2016-02-28T09:13:38.000Z</time>
      </trkpt>
      <trkpt lat="47.45593" lon="6.73037">
        <ele>467</ele>
        <time>2016-02-28T09:13:39.000Z</time>
      </trkpt>
      <trkpt lat="47.45592" lon="6.73033">
        <ele>467</ele>
        <time>2016-02-28T09:13:40.000Z</time>
      </trkpt>
      <trkpt lat="47.4559" lon="6.7303">
        <ele>467</ele>
        <time>2016-02-28T09:13:41.000Z</time>
      </trkpt>
      <trkpt lat="47.45589" lon="6.73027">
        <ele>467</ele>
        <time>2016-02-28T09:13:42.000Z</time>
      </trkpt>
      <trkpt lat="47.45587" lon="6.73024">
        <ele>467</ele>
        <time>2016-02-28T09:13:43.000Z</time>
      </trkpt>
      <trkpt lat="47.45585" lon="6.73021">
        <ele>467</ele>
        <time>2016-02-28T09:13:44.000Z</time>
      </trkpt>
      <trkpt lat="47.45582" lon="6.73017">
        <ele>468</ele>
        <time>2016-02-28T09:13:46.000Z</time>
      </trkpt>
      <trkpt lat="47.4558" lon="6.73016">
        <ele>468</ele>
        <time>2016-02-28T09:13:47.000Z</time>
      </trkpt>
      <trkpt lat="47.45577" lon="6.73014">
        <ele>468</ele>
        <time>2016-02-28T09:13:48.000Z</time>
      </trkpt>
      <trkpt lat="47.45574" lon="6.73012">
        <ele>468</ele>
        <time>2016-02-28T09:13:49.000Z</time>
      </trkpt>
      <trkpt lat="47.45572" lon="6.73009">
        <ele>468</ele>
        <time>2016-02-28T09:13:50.000Z</time>
      </trkpt>
      <trkpt lat="47.4557" lon="6.73007">
        <ele>468</ele>
        <time>2016-02-28T09:13:51.000Z</time>
      </trkpt>
      <trkpt lat="47.45568" lon="6.73004">
        <ele>468</ele>
        <time>2016-02-28T09:13:52.000Z</time>
      </trkpt>
      <trkpt lat="47.45567" lon="6.73001">
        <ele>468</ele>
        <time>2016-02-28T09:13:53.000Z</time>
      </trkpt>
      <trkpt lat="47.45565" lon="6.72998">
        <ele>468</ele>
        <time>2016-02-28T09:13:54.000Z</time>
      </trkpt>
      <trkpt lat="47.45563" lon="6.72995">
        <ele>468</ele>
        <time>2016-02-28T09:13:55.000Z</time>
      </trkpt>
      <trkpt lat="47.4556" lon="6.72991">
        <ele>468</ele>
        <time>2016-02-28T09:13:56.000Z</time>
      </trkpt>
      <trkpt lat="47.45558" lon="6.72988">
        <ele>468</ele>
        <time>2016-02-28T09:13:57.000Z</time>
      </trkpt>
      <trkpt lat="47.45556" lon="6.72984">
        <ele>468</ele>
        <time>2016-02-28T09:13:58.000Z</time>
      </trkpt>
      <trkpt lat="47.45555" lon="6.72979">
        <ele>468</ele>
        <time>2016-02-28T09:13:59.000Z</time>
      </trkpt>
      <trkpt lat="47.45554" lon="6.72974">
        <ele>468</ele>
        <time>2016-02-28T09:14:00.000Z</time>
      </trkpt>
      <trkpt lat="47.45553" lon="6.72969">
        <ele>468</ele>
        <time>2016-02-28T09:14:01.000Z</time>
      </trkpt>
      <trkpt lat="47.45551" lon="6.72965">
        <ele>468</ele>
        <time>2016-02-28T09:14:02.000Z</time>
      </trkpt>
      <trkpt lat="47.45549" lon="6.72961">
        <ele>468</ele>
        <time>2016-02-28T09:14:03.000Z</time>
      </trkpt>
      <trkpt lat="47.45547" lon="6.72958">
        <ele>468</ele>
        <time>2016-02-28T09:14:04.000Z</time>
      </trkpt>
      <trkpt lat="47.45545" lon="6.72954">
        <ele>468</ele>
        <time>2016-02-28T09:14:05.000Z</time>
      </trkpt>
      <trkpt lat="47.45543" lon="6.72952">
        <ele>468</ele>
        <time>2016-02-28T09:14:06.000Z</time>
      </trkpt>
      <trkpt lat="47.4554" lon="6.72948">
        <ele>468</ele>
        <time>2016-02-28T09:14:07.000Z</time>
      </trkpt>
      <trkpt lat="47.45538" lon="6.72945">
        <ele>469</ele>
        <time>2016-02-28T09:14:08.000Z</time>
      </trkpt>
      <trkpt lat="47.45535" lon="6.72942">
        <ele>469</ele>
        <time>2016-02-28T09:14:09.000Z</time>
      </trkpt>
      <trkpt lat="47.45532" lon="6.72937">
        <ele>469</ele>
        <time>2016-02-28T09:14:10.000Z</time>
      </trkpt>
      <trkpt lat="47.45529" lon="6.72933">
        <ele>469</ele>
        <time>2016-02-28T09:14:11.000Z</time>
      </trkpt>
      <trkpt lat="47.45526" lon="6.72929">
        <ele>469</ele>
        <time>2016-02-28T09:14:12.000Z</time>
      </trkpt>
      <trkpt lat="47.45524" lon="6.72925">
        <ele>469</ele>
        <time>2016-02-28T09:14:13.000Z</time>
      </trkpt>
      <trkpt lat="47.45522" lon="6.72921">
        <ele>469</ele>
        <time>2016-02-28T09:14:14.000Z</time>
      </trkpt>
      <trkpt lat="47.4552" lon="6.72919">
        <ele>469</ele>
        <time>2016-02-28T09:14:15.000Z</time>
      </trkpt>
      <trkpt lat="47.45518" lon="6.72916">
        <ele>468</ele>
        <time>2016-02-28T09:14:16.000Z</time>
      </trkpt>
      <trkpt lat="47.45515" lon="6.72914">
        <ele>468</ele>
        <time>2016-02-28T09:14:17.000Z</time>
      </trkpt>
      <trkpt lat="47.45513" lon="6.72912">
        <ele>469</ele>
        <time>2016-02-28T09:14:18.000Z</time>
      </trkpt>
      <trkpt lat="47.45511" lon="6.7291">
        <ele>469</ele>
        <time>2016-02-28T09:14:19.000Z</time>
      </trkpt>
      <trkpt lat="47.45509" lon="6.72904">
        <ele>469</ele>
        <time>2016-02-28T09:14:21.000Z</time>
      </trkpt>
      <trkpt lat="47.45508" lon="6.72902">
        <ele>468</ele>
        <time>2016-02-28T09:14:22.000Z</time>
      </trkpt>
      <trkpt lat="47.45506" lon="6.72896">
        <ele>468</ele>
        <time>2016-02-28T09:14:24.000Z</time>
      </trkpt>
      <trkpt lat="47.45505" lon="6.72893">
        <ele>468</ele>
        <time>2016-02-28T09:14:25.000Z</time>
      </trkpt>
      <trkpt lat="47.45504" lon="6.72889">
        <ele>468</ele>
        <time>2016-02-28T09:14:26.000Z</time>
      </trkpt>
      <trkpt lat="47.45502" lon="6.72885">
        <ele>467</ele>
        <time>2016-02-28T09:14:27.000Z</time>
      </trkpt>
      <trkpt lat="47.45501" lon="6.72881">
        <ele>467</ele>
        <time>2016-02-28T09:14:28.000Z</time>
      </trkpt>
      <trkpt lat="47.455" lon="6.72877">
        <ele>467</ele>
        <time>2016-02-28T09:14:29.000Z</time>
      </trkpt>
      <trkpt lat="47.455" lon="6.72873">
        <ele>469</ele>
        <time>2016-02-28T09:14:30.000Z</time>
      </trkpt>
      <trkpt lat="47.45498" lon="6.72868">
        <ele>469</ele>
        <time>2016-02-28T09:14:31.000Z</time>
      </trkpt>
      <trkpt lat="47.45496" lon="6.72863">
        <ele>469</ele>
        <time>2016-02-28T09:14:32.000Z</time>
      </trkpt>
      <trkpt lat="47.45494" lon="6.72858">
        <ele>469</ele>
        <time>2016-02-28T09:14:33.000Z</time>
      </trkpt>
      <trkpt lat="47.45493" lon="6.72853">
        <ele>469</ele>
        <time>2016-02-28T09:14:34.000Z</time>
      </trkpt>
      <trkpt lat="47.45491" lon="6.72848">
        <ele>469</ele>
        <time>2016-02-28T09:14:35.000Z</time>
      </trkpt>
      <trkpt lat="47.4549" lon="6.72844">
        <ele>469</ele>
        <time>2016-02-28T09:14:36.000Z</time>
      </trkpt>
      <trkpt lat="47.4549" lon="6.7284">
        <ele>469</ele>
        <time>2016-02-28T09:14:37.000Z</time>
      </trkpt>
      <trkpt lat="47.45489" lon="6.72835">
        <ele>469</ele>
        <time>2016-02-28T09:14:38.000Z</time>
      </trkpt>
      <trkpt lat="47.45488" lon="6.72831">
        <ele>467</ele>
        <time>2016-02-28T09:14:39.000Z</time>
      </trkpt>
      <trkpt lat="47.45487" lon="6.72826">
        <ele>466</ele>
        <time>2016-02-28T09:14:40.000Z</time>
      </trkpt>
      <trkpt lat="47.45486" lon="6.72821">
        <ele>466</ele>
        <time>2016-02-28T09:14:41.000Z</time>
      </trkpt>
      <trkpt lat="47.45485" lon="6.72816">
        <ele>465</ele>
        <time>2016-02-28T09:14:42.000Z</time>
      </trkpt>
      <trkpt lat="47.45484" lon="6.72811">
        <ele>465</ele>
        <time>2016-02-28T09:14:43.000Z</time>
      </trkpt>
      <trkpt lat="47.45483" lon="6.72806">
        <ele>464</ele>
        <time>2016-02-28T09:14:44.000Z</time>
      </trkpt>
      <trkpt lat="47.45482" lon="6.72801">
        <ele>464</ele>
        <time>2016-02-28T09:14:45.000Z</time>
      </trkpt>
      <trkpt lat="47.4548" lon="6.72797">
        <ele>463</ele>
        <time>2016-02-28T09:14:46.000Z</time>
      </trkpt>
      <trkpt lat="47.45478" lon="6.72792">
        <ele>463</ele>
        <time>2016-02-28T09:14:47.000Z</time>
      </trkpt>
      <trkpt lat="47.45476" lon="6.72788">
        <ele>463</ele>
        <time>2016-02-28T09:14:48.000Z</time>
      </trkpt>
      <trkpt lat="47.45474" lon="6.72784">
        <ele>462</ele>
        <time>2016-02-28T09:14:49.000Z</time>
      </trkpt>
      <trkpt lat="47.45471" lon="6.7278">
        <ele>462</ele>
        <time>2016-02-28T09:14:50.000Z</time>
      </trkpt>
      <trkpt lat="47.45469" lon="6.72776">
        <ele>462</ele>
        <time>2016-02-28T09:14:51.000Z</time>
      </trkpt>
      <trkpt lat="47.45467" lon="6.72773">
        <ele>462</ele>
        <time>2016-02-28T09:14:52.000Z</time>
      </trkpt>
      <trkpt lat="47.45464" lon="6.72768">
        <ele>461</ele>
        <time>2016-02-28T09:14:53.000Z</time>
      </trkpt>
      <trkpt lat="47.45463" lon="6.72764">
        <ele>461</ele>
        <time>2016-02-28T09:14:54.000Z</time>
      </trkpt>
      <trkpt lat="47.45461" lon="6.72758">
        <ele>461</ele>
        <time>2016-02-28T09:14:55.000Z</time>
      </trkpt>
      <trkpt lat="47.45459" lon="6.72752">
        <ele>461</ele>
        <time>2016-02-28T09:14:56.000Z</time>
      </trkpt>
      <trkpt lat="47.45457" lon="6.72746">
        <ele>456</ele>
        <time>2016-02-28T09:14:57.000Z</time>
      </trkpt>
      <trkpt lat="47.45455" lon="6.7274">
        <ele>456</ele>
        <time>2016-02-28T09:14:58.000Z</time>
      </trkpt>
      <trkpt lat="47.45452" lon="6.72734">
        <ele>456</ele>
        <time>2016-02-28T09:14:59.000Z</time>
      </trkpt>
      <trkpt lat="47.45449" lon="6.72729">
        <ele>456</ele>
        <time>2016-02-28T09:15:00.000Z</time>
      </trkpt>
      <trkpt lat="47.45445" lon="6.72726">
        <ele>456</ele>
        <time>2016-02-28T09:15:01.000Z</time>
      </trkpt>
      <trkpt lat="47.45441" lon="6.72723">
        <ele>456</ele>
        <time>2016-02-28T09:15:02.000Z</time>
      </trkpt>
      <trkpt lat="47.45437" lon="6.72722">
        <ele>456</ele>
        <time>2016-02-28T09:15:03.000Z</time>
      </trkpt>
      <trkpt lat="47.45432" lon="6.72722">
        <ele>456</ele>
        <time>2016-02-28T09:15:04.000Z</time>
      </trkpt>
      <trkpt lat="47.45428" lon="6.72721">
        <ele>456</ele>
        <time>2016-02-28T09:15:05.000Z</time>
      </trkpt>
      <trkpt lat="47.45425" lon="6.7272">
        <ele>456</ele>
        <time>2016-02-28T09:15:06.000Z</time>
      </trkpt>
      <trkpt lat="47.45421" lon="6.72719">
        <ele>456</ele>
        <time>2016-02-28T09:15:07.000Z</time>
      </trkpt>
      <trkpt lat="47.45418" lon="6.72718">
        <ele>456</ele>
        <time>2016-02-28T09:15:08.000Z</time>
      </trkpt>
      <trkpt lat="47.45414" lon="6.72716">
        <ele>457</ele>
        <time>2016-02-28T09:15:09.000Z</time>
      </trkpt>
      <trkpt lat="47.4541" lon="6.72714">
        <ele>457</ele>
        <time>2016-02-28T09:15:10.000Z</time>
      </trkpt>
      <trkpt lat="47.45407" lon="6.72711">
        <ele>457</ele>
        <time>2016-02-28T09:15:11.000Z</time>
      </trkpt>
      <trkpt lat="47.45404" lon="6.72708">
        <ele>456</ele>
        <time>2016-02-28T09:15:12.000Z</time>
      </trkpt>
      <trkpt lat="47.45401" lon="6.72704">
        <ele>456</ele>
        <time>2016-02-28T09:15:13.000Z</time>
      </trkpt>
      <trkpt lat="47.45398" lon="6.72701">
        <ele>456</ele>
        <time>2016-02-28T09:15:14.000Z</time>
      </trkpt>
      <trkpt lat="47.45395" lon="6.72698">
        <ele>456</ele>
        <time>2016-02-28T09:15:15.000Z</time>
      </trkpt>
      <trkpt lat="47.45392" lon="6.72694">
        <ele>456</ele>
        <time>2016-02-28T09:15:16.000Z</time>
      </trkpt>
      <trkpt lat="47.45388" lon="6.7269">
        <ele>456</ele>
        <time>2016-02-28T09:15:17.000Z</time>
      </trkpt>
      <trkpt lat="47.45385" lon="6.72686">
        <ele>456</ele>
        <time>2016-02-28T09:15:18.000Z</time>
      </trkpt>
      <trkpt lat="47.45382" lon="6.72682">
        <ele>456</ele>
        <time>2016-02-28T09:15:19.000Z</time>
      </trkpt>
      <trkpt lat="47.45379" lon="6.72679">
        <ele>456</ele>
        <time>2016-02-28T09:15:19.986Z</time>
      </trkpt>
      <trkpt lat="47.45373" lon="6.72673">
        <ele>456</ele>
        <time>2016-02-28T09:15:21.000Z</time>
      </trkpt>
      <trkpt lat="47.45369" lon="6.72669">
        <ele>456</ele>
        <time>2016-02-28T09:15:22.000Z</time>
      </trkpt>
      <trkpt lat="47.45365" lon="6.72665">
        <ele>454</ele>
        <time>2016-02-28T09:15:23.000Z</time>
      </trkpt>
      <trkpt lat="47.45361" lon="6.7266">
        <ele>454</ele>
        <time>2016-02-28T09:15:24.000Z</time>
      </trkpt>
      <trkpt lat="47.45358" lon="6.72656">
        <ele>454</ele>
        <time>2016-02-28T09:15:25.000Z</time>
      </trkpt>
      <trkpt lat="47.45354" lon="6.72652">
        <ele>454</ele>
        <time>2016-02-28T09:15:26.000Z</time>
      </trkpt>
      <trkpt lat="47.45349" lon="6.72647">
        <ele>454</ele>
        <time>2016-02-28T09:15:27.000Z</time>
      </trkpt>
      <trkpt lat="47.45346" lon="6.72642">
        <ele>453</ele>
        <time>2016-02-28T09:15:28.000Z</time>
      </trkpt>
      <trkpt lat="47.45342" lon="6.72638">
        <ele>453</ele>
        <time>2016-02-28T09:15:29.000Z</time>
      </trkpt>
      <trkpt lat="47.45337" lon="6.72634">
        <ele>453</ele>
        <time>2016-02-28T09:15:30.000Z</time>
      </trkpt>
      <trkpt lat="47.45333" lon="6.72629">
        <ele>454</ele>
        <time>2016-02-28T09:15:31.000Z</time>
      </trkpt>
      <trkpt lat="47.4533" lon="6.72625">
        <ele>454</ele>
        <time>2016-02-28T09:15:32.000Z</time>
      </trkpt>
      <trkpt lat="47.45325" lon="6.72622">
        <ele>453</ele>
        <time>2016-02-28T09:15:33.000Z</time>
      </trkpt>
      <trkpt lat="47.45321" lon="6.72618">
        <ele>453</ele>
        <time>2016-02-28T09:15:34.000Z</time>
      </trkpt>
      <trkpt lat="47.45316" lon="6.72615">
        <ele>453</ele>
        <time>2016-02-28T09:15:35.000Z</time>
      </trkpt>
      <trkpt lat="47.45312" lon="6.72611">
        <ele>453</ele>
        <time>2016-02-28T09:15:36.000Z</time>
      </trkpt>
      <trkpt lat="47.45307" lon="6.72608">
        <ele>453</ele>
        <time>2016-02-28T09:15:37.000Z</time>
      </trkpt>
      <trkpt lat="47.45303" lon="6.72604">
        <ele>453</ele>
        <time>2016-02-28T09:15:38.000Z</time>
      </trkpt>
      <trkpt lat="47.45298" lon="6.726">
        <ele>453</ele>
        <time>2016-02-28T09:15:39.000Z</time>
      </trkpt>
      <trkpt lat="47.45294" lon="6.72597">
        <ele>453</ele>
        <time>2016-02-28T09:15:40.000Z</time>
      </trkpt>
      <trkpt lat="47.45289" lon="6.72594">
        <ele>453</ele>
        <time>2016-02-28T09:15:41.000Z</time>
      </trkpt>
      <trkpt lat="47.45285" lon="6.7259">
        <ele>453</ele>
        <time>2016-02-28T09:15:42.000Z</time>
      </trkpt>
      <trkpt lat="47.4528" lon="6.72587">
        <ele>453</ele>
        <time>2016-02-28T09:15:43.000Z</time>
      </trkpt>
      <trkpt lat="47.45276" lon="6.72584">
        <ele>453</ele>
        <time>2016-02-28T09:15:44.000Z</time>
      </trkpt>
      <trkpt lat="47.45272" lon="6.7258">
        <ele>452</ele>
        <time>2016-02-28T09:15:45.000Z</time>
      </trkpt>
      <trkpt lat="47.45267" lon="6.72576">
        <ele>452</ele>
        <time>2016-02-28T09:15:46.000Z</time>
      </trkpt>
      <trkpt lat="47.45263" lon="6.72573">
        <ele>452</ele>
        <time>2016-02-28T09:15:47.000Z</time>
      </trkpt>
      <trkpt lat="47.45258" lon="6.72569">
        <ele>452</ele>
        <time>2016-02-28T09:15:48.000Z</time>
      </trkpt>
      <trkpt lat="47.45253" lon="6.72566">
        <ele>452</ele>
        <time>2016-02-28T09:15:49.000Z</time>
      </trkpt>
      <trkpt lat="47.45249" lon="6.72563">
        <ele>452</ele>
        <time>2016-02-28T09:15:50.000Z</time>
      </trkpt>
      <trkpt lat="47.45244" lon="6.7256">
        <ele>452</ele>
        <time>2016-02-28T09:15:51.000Z</time>
      </trkpt>
      <trkpt lat="47.45239" lon="6.72558">
        <ele>452</ele>
        <time>2016-02-28T09:15:52.000Z</time>
      </trkpt>
      <trkpt lat="47.45233" lon="6.72555">
        <ele>452</ele>
        <time>2016-02-28T09:15:53.000Z</time>
      </trkpt>
      <trkpt lat="47.45228" lon="6.72552">
        <ele>451</ele>
        <time>2016-02-28T09:15:54.000Z</time>
      </trkpt>
      <trkpt lat="47.45224" lon="6.72548">
        <ele>451</ele>
        <time>2016-02-28T09:15:55.000Z</time>
      </trkpt>
      <trkpt lat="47.45219" lon="6.72545">
        <ele>451</ele>
        <time>2016-02-28T09:15:56.000Z</time>
      </trkpt>
      <trkpt lat="47.45214" lon="6.72542">
        <ele>451</ele>
        <time>2016-02-28T09:15:57.000Z</time>
      </trkpt>
      <trkpt lat="47.45209" lon="6.72539">
        <ele>451</ele>
        <time>2016-02-28T09:15:58.000Z</time>
      </trkpt>
      <trkpt lat="47.45204" lon="6.72535">
        <ele>451</ele>
        <time>2016-02-28T09:15:59.000Z</time>
      </trkpt>
      <trkpt lat="47.452" lon="6.72531">
        <ele>451</ele>
        <time>2016-02-28T09:16:00.000Z</time>
      </trkpt>
      <trkpt lat="47.45195" lon="6.72526">
        <ele>451</ele>
        <time>2016-02-28T09:16:01.000Z</time>
      </trkpt>
      <trkpt lat="47.4519" lon="6.72523">
        <ele>450</ele>
        <time>2016-02-28T09:16:02.000Z</time>
      </trkpt>
      <trkpt lat="47.45185" lon="6.72519">
        <ele>450</ele>
        <time>2016-02-28T09:16:03.000Z</time>
      </trkpt>
      <trkpt lat="47.45179" lon="6.72516">
        <ele>450</ele>
        <time>2016-02-28T09:16:04.000Z</time>
      </trkpt>
      <trkpt lat="47.45173" lon="6.72512">
        <ele>450</ele>
        <time>2016-02-28T09:16:05.000Z</time>
      </trkpt>
      <trkpt lat="47.45168" lon="6.72508">
        <ele>450</ele>
        <time>2016-02-28T09:16:06.000Z</time>
      </trkpt>
      <trkpt lat="47.45163" lon="6.72504">
        <ele>450</ele>
        <time>2016-02-28T09:16:07.000Z</time>
      </trkpt>
      <trkpt lat="47.45157" lon="6.725">
        <ele>450</ele>
        <time>2016-02-28T09:16:08.000Z</time>
      </trkpt>
      <trkpt lat="47.45152" lon="6.72496">
        <ele>449</ele>
        <time>2016-02-28T09:16:09.000Z</time>
      </trkpt>
      <trkpt lat="47.45147" lon="6.72492">
        <ele>450</ele>
        <time>2016-02-28T09:16:10.000Z</time>
      </trkpt>
      <trkpt lat="47.45143" lon="6.72489">
        <ele>450</ele>
        <time>2016-02-28T09:16:11.000Z</time>
      </trkpt>
      <trkpt lat="47.45138" lon="6.72485">
        <ele>450</ele>
        <time>2016-02-28T09:16:12.000Z</time>
      </trkpt>
      <trkpt lat="47.45133" lon="6.72482">
        <ele>450</ele>
        <time>2016-02-28T09:16:13.000Z</time>
      </trkpt>
      <trkpt lat="47.45128" lon="6.72479">
        <ele>450</ele>
        <time>2016-02-28T09:16:14.000Z</time>
      </trkpt>
      <trkpt lat="47.45122" lon="6.72476">
        <ele>450</ele>
        <time>2016-02-28T09:16:15.000Z</time>
      </trkpt>
      <trkpt lat="47.45118" lon="6.72473">
        <ele>450</ele>
        <time>2016-02-28T09:16:16.000Z</time>
      </trkpt>
      <trkpt lat="47.45113" lon="6.7247">
        <ele>450</ele>
        <time>2016-02-28T09:16:17.000Z</time>
      </trkpt>
      <trkpt lat="47.45109" lon="6.72467">
        <ele>450</ele>
        <time>2016-02-28T09:16:18.000Z</time>
      </trkpt>
      <trkpt lat="47.45104" lon="6.72463">
        <ele>450</ele>
        <time>2016-02-28T09:16:19.000Z</time>
      </trkpt>
      <trkpt lat="47.451" lon="6.7246">
        <ele>450</ele>
        <time>2016-02-28T09:16:20.000Z</time>
      </trkpt>
      <trkpt lat="47.45096" lon="6.72456">
        <ele>450</ele>
        <time>2016-02-28T09:16:21.000Z</time>
      </trkpt>
      <trkpt lat="47.45092" lon="6.72453">
        <ele>450</ele>
        <time>2016-02-28T09:16:22.000Z</time>
      </trkpt>
      <trkpt lat="47.45088" lon="6.72449">
        <ele>450</ele>
        <time>2016-02-28T09:16:23.000Z</time>
      </trkpt>
      <trkpt lat="47.45084" lon="6.72446">
        <ele>450</ele>
        <time>2016-02-28T09:16:24.000Z</time>
      </trkpt>
      <trkpt lat="47.45079" lon="6.72443">
        <ele>454</ele>
        <time>2016-02-28T09:16:25.000Z</time>
      </trkpt>
      <trkpt lat="47.45073" lon="6.7244">
        <ele>454</ele>
        <time>2016-02-28T09:16:26.000Z</time>
      </trkpt>
      <trkpt lat="47.45068" lon="6.72438">
        <ele>454</ele>
        <time>2016-02-28T09:16:27.000Z</time>
      </trkpt>
      <trkpt lat="47.45064" lon="6.72434">
        <ele>454</ele>
        <time>2016-02-28T09:16:28.000Z</time>
      </trkpt>
      <trkpt lat="47.4506" lon="6.72431">
        <ele>454</ele>
        <time>2016-02-28T09:16:29.000Z</time>
      </trkpt>
      <trkpt lat="47.45055" lon="6.72428">
        <ele>455</ele>
        <time>2016-02-28T09:16:30.000Z</time>
      </trkpt>
      <trkpt lat="47.45051" lon="6.72425">
        <ele>455</ele>
        <time>2016-02-28T09:16:31.000Z</time>
      </trkpt>
      <trkpt lat="47.45047" lon="6.72422">
        <ele>455</ele>
        <time>2016-02-28T09:16:32.000Z</time>
      </trkpt>
      <trkpt lat="47.45042" lon="6.72419">
        <ele>456</ele>
        <time>2016-02-28T09:16:33.000Z</time>
      </trkpt>
      <trkpt lat="47.45039" lon="6.72416">
        <ele>453</ele>
        <time>2016-02-28T09:16:34.000Z</time>
      </trkpt>
      <trkpt lat="47.45035" lon="6.72413">
        <ele>453</ele>
        <time>2016-02-28T09:16:35.000Z</time>
      </trkpt>
      <trkpt lat="47.45031" lon="6.7241">
        <ele>454</ele>
        <time>2016-02-28T09:16:36.000Z</time>
      </trkpt>
      <trkpt lat="47.45027" lon="6.72408">
        <ele>454</ele>
        <time>2016-02-28T09:16:37.000Z</time>
      </trkpt>
      <trkpt lat="47.45022" lon="6.72405">
        <ele>454</ele>
        <time>2016-02-28T09:16:38.000Z</time>
      </trkpt>
      <trkpt lat="47.45019" lon="6.72402">
        <ele>455</ele>
        <time>2016-02-28T09:16:39.000Z</time>
      </trkpt>
      <trkpt lat="47.45014" lon="6.72399">
        <ele>455</ele>
        <time>2016-02-28T09:16:40.000Z</time>
      </trkpt>
      <trkpt lat="47.4501" lon="6.72395">
        <ele>455</ele>
        <time>2016-02-28T09:16:41.000Z</time>
      </trkpt>
      <trkpt lat="47.45006" lon="6.72392">
        <ele>455</ele>
        <time>2016-02-28T09:16:42.000Z</time>
      </trkpt>
      <trkpt lat="47.45003" lon="6.72387">
        <ele>454</ele>
        <time>2016-02-28T09:16:43.000Z</time>
      </trkpt>
      <trkpt lat="47.44998" lon="6.72384">
        <ele>460</ele>
        <time>2016-02-28T09:16:44.000Z</time>
      </trkpt>
      <trkpt lat="47.44994" lon="6.72382">
        <ele>461</ele>
        <time>2016-02-28T09:16:45.000Z</time>
      </trkpt>
      <trkpt lat="47.44989" lon="6.72379">
        <ele>461</ele>
        <time>2016-02-28T09:16:46.000Z</time>
      </trkpt>
      <trkpt lat="47.44986" lon="6.72375">
        <ele>461</ele>
        <time>2016-02-28T09:16:47.000Z</time>
      </trkpt>
      <trkpt lat="47.44983" lon="6.72371">
        <ele>461</ele>
        <time>2016-02-28T09:16:48.000Z</time>
      </trkpt>
      <trkpt lat="47.44978" lon="6.72369">
        <ele>461</ele>
        <time>2016-02-28T09:16:49.000Z</time>
      </trkpt>
      <trkpt lat="47.44974" lon="6.72366">
        <ele>461</ele>
        <time>2016-02-28T09:16:50.000Z</time>
      </trkpt>
      <trkpt lat="47.4497" lon="6.72362">
        <ele>461</ele>
        <time>2016-02-28T09:16:51.000Z</time>
      </trkpt>
      <trkpt lat="47.44966" lon="6.72358">
        <ele>461</ele>
        <time>2016-02-28T09:16:52.000Z</time>
      </trkpt>
      <trkpt lat="47.44962" lon="6.72354">
        <ele>461</ele>
        <time>2016-02-28T09:16:53.000Z</time>
      </trkpt>
      <trkpt lat="47.44959" lon="6.72351">
        <ele>462</ele>
        <time>2016-02-28T09:16:54.000Z</time>
      </trkpt>
      <trkpt lat="47.44954" lon="6.72347">
        <ele>462</ele>
        <time>2016-02-28T09:16:55.000Z</time>
      </trkpt>
      <trkpt lat="47.4495" lon="6.72344">
        <ele>462</ele>
        <time>2016-02-28T09:16:56.000Z</time>
      </trkpt>
      <trkpt lat="47.44946" lon="6.72341">
        <ele>463</ele>
        <time>2016-02-28T09:16:57.000Z</time>
      </trkpt>
      <trkpt lat="47.44941" lon="6.72337">
        <ele>463</ele>
        <time>2016-02-28T09:16:58.000Z</time>
      </trkpt>
      <trkpt lat="47.44938" lon="6.72334">
        <ele>463</ele>
        <time>2016-02-28T09:16:59.000Z</time>
      </trkpt>
      <trkpt lat="47.44934" lon="6.72331">
        <ele>460</ele>
        <time>2016-02-28T09:17:00.000Z</time>
      </trkpt>
      <trkpt lat="47.4493" lon="6.72328">
        <ele>461</ele>
        <time>2016-02-28T09:17:01.000Z</time>
      </trkpt>
      <trkpt lat="47.44927" lon="6.72325">
        <ele>461</ele>
        <time>2016-02-28T09:17:02.000Z</time>
      </trkpt>
      <trkpt lat="47.44924" lon="6.72322">
        <ele>461</ele>
        <time>2016-02-28T09:17:03.000Z</time>
      </trkpt>
      <trkpt lat="47.44921" lon="6.7232">
        <ele>461</ele>
        <time>2016-02-28T09:17:04.000Z</time>
      </trkpt>
      <trkpt lat="47.44918" lon="6.72317">
        <ele>461</ele>
        <time>2016-02-28T09:17:05.000Z</time>
      </trkpt>
      <trkpt lat="47.44915" lon="6.72314">
        <ele>466</ele>
        <time>2016-02-28T09:17:06.000Z</time>
      </trkpt>
      <trkpt lat="47.44911" lon="6.72312">
        <ele>466</ele>
        <time>2016-02-28T09:17:07.000Z</time>
      </trkpt>
      <trkpt lat="47.44908" lon="6.72309">
        <ele>466</ele>
        <time>2016-02-28T09:17:08.000Z</time>
      </trkpt>
      <trkpt lat="47.44905" lon="6.72307">
        <ele>466</ele>
        <time>2016-02-28T09:17:09.000Z</time>
      </trkpt>
      <trkpt lat="47.44902" lon="6.72305">
        <ele>466</ele>
        <time>2016-02-28T09:17:10.000Z</time>
      </trkpt>
      <trkpt lat="47.449" lon="6.72303">
        <ele>466</ele>
        <time>2016-02-28T09:17:11.000Z</time>
      </trkpt>
      <trkpt lat="47.44897" lon="6.72302">
        <ele>466</ele>
        <time>2016-02-28T09:17:12.000Z</time>
      </trkpt>
      <trkpt lat="47.44894" lon="6.723">
        <ele>466</ele>
        <time>2016-02-28T09:17:13.000Z</time>
      </trkpt>
      <trkpt lat="47.44891" lon="6.72298">
        <ele>466</ele>
        <time>2016-02-28T09:17:14.000Z</time>
      </trkpt>
      <trkpt lat="47.44889" lon="6.72296">
        <ele>466</ele>
        <time>2016-02-28T09:17:15.000Z</time>
      </trkpt>
      <trkpt lat="47.44886" lon="6.72294">
        <ele>466</ele>
        <time>2016-02-28T09:17:16.000Z</time>
      </trkpt>
      <trkpt lat="47.44883" lon="6.72292">
        <ele>466</ele>
        <time>2016-02-28T09:17:17.000Z</time>
      </trkpt>
      <trkpt lat="47.4488" lon="6.7229">
        <ele>466</ele>
        <time>2016-02-28T09:17:18.000Z</time>
      </trkpt>
      <trkpt lat="47.44878" lon="6.72288">
        <ele>466</ele>
        <time>2016-02-28T09:17:19.000Z</time>
      </trkpt>
      <trkpt lat="47.44875" lon="6.72286">
        <ele>466</ele>
        <time>2016-02-28T09:17:20.000Z</time>
      </trkpt>
      <trkpt lat="47.44872" lon="6.72284">
        <ele>466</ele>
        <time>2016-02-28T09:17:21.000Z</time>
      </trkpt>
      <trkpt lat="47.4487" lon="6.72282">
        <ele>467</ele>
        <time>2016-02-28T09:17:22.000Z</time>
      </trkpt>
      <trkpt lat="47.44867" lon="6.7228">
        <ele>467</ele>
        <time>2016-02-28T09:17:23.000Z</time>
      </trkpt>
      <trkpt lat="47.44864" lon="6.72279">
        <ele>467</ele>
        <time>2016-02-28T09:17:24.000Z</time>
      </trkpt>
      <trkpt lat="47.44862" lon="6.72277">
        <ele>467</ele>
        <time>2016-02-28T09:17:25.000Z</time>
      </trkpt>
      <trkpt lat="47.44859" lon="6.72275">
        <ele>467</ele>
        <time>2016-02-28T09:17:26.000Z</time>
      </trkpt>
      <trkpt lat="47.44857" lon="6.72274">
        <ele>467</ele>
        <time>2016-02-28T09:17:27.000Z</time>
      </trkpt>
      <trkpt lat="47.44855" lon="6.72272">
        <ele>467</ele>
        <time>2016-02-28T09:17:28.000Z</time>
      </trkpt>
      <trkpt lat="47.44853" lon="6.72271">
        <ele>467</ele>
        <time>2016-02-28T09:17:29.000Z</time>
      </trkpt>
      <trkpt lat="47.4485" lon="6.72269">
        <ele>467</ele>
        <time>2016-02-28T09:17:30.000Z</time>
      </trkpt>
      <trkpt lat="47.44848" lon="6.72268">
        <ele>467</ele>
        <time>2016-02-28T09:17:31.000Z</time>
      </trkpt>
      <trkpt lat="47.44846" lon="6.72267">
        <ele>467</ele>
        <time>2016-02-28T09:17:32.000Z</time>
      </trkpt>
      <trkpt lat="47.44843" lon="6.72266">
        <ele>467</ele>
        <time>2016-02-28T09:17:33.000Z</time>
      </trkpt>
      <trkpt lat="47.44841" lon="6.72265">
        <ele>467</ele>
        <time>2016-02-28T09:17:34.000Z</time>
      </trkpt>
      <trkpt lat="47.44839" lon="6.72264">
        <ele>467</ele>
        <time>2016-02-28T09:17:35.000Z</time>
      </trkpt>
      <trkpt lat="47.44837" lon="6.72263">
        <ele>467</ele>
        <time>2016-02-28T09:17:36.000Z</time>
      </trkpt>
      <trkpt lat="47.44833" lon="6.72261">
        <ele>470</ele>
        <time>2016-02-28T09:17:38.000Z</time>
      </trkpt>
      <trkpt lat="47.44831" lon="6.7226">
        <ele>470</ele>
        <time>2016-02-28T09:17:39.000Z</time>
      </trkpt>
      <trkpt lat="47.44827" lon="6.72257">
        <ele>469</ele>
        <time>2016-02-28T09:17:43.000Z</time>
      </trkpt>
      <trkpt lat="47.44827" lon="6.72256">
        <ele>469</ele>
        <time>2016-02-28T09:17:44.000Z</time>
      </trkpt>
      <trkpt lat="47.44823" lon="6.72255">
        <ele>470</ele>
        <time>2016-02-28T09:17:48.000Z</time>
      </trkpt>
      <trkpt lat="47.44822" lon="6.72256">
        <ele>470</ele>
        <time>2016-02-28T09:17:49.000Z</time>
      </trkpt>
      <trkpt lat="47.4482" lon="6.72259">
        <ele>471</ele>
        <time>2016-02-28T09:17:51.000Z</time>
      </trkpt>
      <trkpt lat="47.44818" lon="6.7226">
        <ele>471</ele>
        <time>2016-02-28T09:17:52.000Z</time>
      </trkpt>
      <trkpt lat="47.44815" lon="6.72264">
        <ele>472</ele>
        <time>2016-02-28T09:17:55.000Z</time>
      </trkpt>
      <trkpt lat="47.44813" lon="6.72265">
        <ele>472</ele>
        <time>2016-02-28T09:17:56.000Z</time>
      </trkpt>
      <trkpt lat="47.44811" lon="6.72266">
        <ele>473</ele>
        <time>2016-02-28T09:17:58.000Z</time>
      </trkpt>
      <trkpt lat="47.44809" lon="6.72266">
        <ele>473</ele>
        <time>2016-02-28T09:17:59.000Z</time>
      </trkpt>
      <trkpt lat="47.44806" lon="6.72268">
        <ele>474</ele>
        <time>2016-02-28T09:18:01.000Z</time>
      </trkpt>
      <trkpt lat="47.44804" lon="6.72269">
        <ele>474</ele>
        <time>2016-02-28T09:18:02.000Z</time>
      </trkpt>
      <trkpt lat="47.44801" lon="6.7227">
        <ele>474</ele>
        <time>2016-02-28T09:18:04.000Z</time>
      </trkpt>
      <trkpt lat="47.44799" lon="6.7227">
        <ele>474</ele>
        <time>2016-02-28T09:18:05.000Z</time>
      </trkpt>
      <trkpt lat="47.44796" lon="6.72271">
        <ele>474</ele>
        <time>2016-02-28T09:18:07.000Z</time>
      </trkpt>
      <trkpt lat="47.44794" lon="6.72271">
        <ele>475</ele>
        <time>2016-02-28T09:18:08.000Z</time>
      </trkpt>
      <trkpt lat="47.4479" lon="6.72272">
        <ele>475</ele>
        <time>2016-02-28T09:18:10.000Z</time>
      </trkpt>
      <trkpt lat="47.44788" lon="6.72272">
        <ele>475</ele>
        <time>2016-02-28T09:18:11.000Z</time>
      </trkpt>
      <trkpt lat="47.44785" lon="6.72272">
        <ele>475</ele>
        <time>2016-02-28T09:18:13.000Z</time>
      </trkpt>
      <trkpt lat="47.44783" lon="6.72272">
        <ele>475</ele>
        <time>2016-02-28T09:18:14.000Z</time>
      </trkpt>
      <trkpt lat="47.44778" lon="6.72272">
        <ele>475</ele>
        <time>2016-02-28T09:18:16.000Z</time>
      </trkpt>
      <trkpt lat="47.44776" lon="6.72272">
        <ele>475</ele>
        <time>2016-02-28T09:18:17.000Z</time>
      </trkpt>
      <trkpt lat="47.44774" lon="6.72272">
        <ele>475</ele>
        <time>2016-02-28T09:18:18.000Z</time>
      </trkpt>
      <trkpt lat="47.44771" lon="6.72273">
        <ele>475</ele>
        <time>2016-02-28T09:18:19.000Z</time>
      </trkpt>
      <trkpt lat="47.44769" lon="6.72273">
        <ele>475</ele>
        <time>2016-02-28T09:18:20.000Z</time>
      </trkpt>
      <trkpt lat="47.44767" lon="6.72273">
        <ele>475</ele>
        <time>2016-02-28T09:18:21.000Z</time>
      </trkpt>
      <trkpt lat="47.44764" lon="6.72273">
        <ele>475</ele>
        <time>2016-02-28T09:18:22.000Z</time>
      </trkpt>
      <trkpt lat="47.44762" lon="6.72273">
        <ele>475</ele>
        <time>2016-02-28T09:18:23.000Z</time>
      </trkpt>
      <trkpt lat="47.44759" lon="6.72274">
        <ele>475</ele>
        <time>2016-02-28T09:18:24.000Z</time>
      </trkpt>
      <trkpt lat="47.44757" lon="6.72274">
        <ele>476</ele>
        <time>2016-02-28T09:18:25.000Z</time>
      </trkpt>
      <trkpt lat="47.44754" lon="6.72275">
        <ele>476</ele>
        <time>2016-02-28T09:18:26.000Z</time>
      </trkpt>
      <trkpt lat="47.44752" lon="6.72275">
        <ele>476</ele>
        <time>2016-02-28T09:18:27.000Z</time>
      </trkpt>
      <trkpt lat="47.44749" lon="6.72276">
        <ele>476</ele>
        <time>2016-02-28T09:18:28.000Z</time>
      </trkpt>
      <trkpt lat="47.44746" lon="6.72276">
        <ele>477</ele>
        <time>2016-02-28T09:18:29.000Z</time>
      </trkpt>
      <trkpt lat="47.44744" lon="6.72277">
        <ele>477</ele>
        <time>2016-02-28T09:18:30.000Z</time>
      </trkpt>
      <trkpt lat="47.44741" lon="6.72278">
        <ele>477</ele>
        <time>2016-02-28T09:18:31.000Z</time>
      </trkpt>
      <trkpt lat="47.44739" lon="6.72279">
        <ele>477</ele>
        <time>2016-02-28T09:18:32.000Z</time>
      </trkpt>
      <trkpt lat="47.44736" lon="6.7228">
        <ele>477</ele>
        <time>2016-02-28T09:18:33.000Z</time>
      </trkpt>
      <trkpt lat="47.44734" lon="6.72281">
        <ele>477</ele>
        <time>2016-02-28T09:18:34.000Z</time>
      </trkpt>
      <trkpt lat="47.44731" lon="6.72282">
        <ele>477</ele>
        <time>2016-02-28T09:18:35.000Z</time>
      </trkpt>
      <trkpt lat="47.44729" lon="6.72284">
        <ele>477</ele>
        <time>2016-02-28T09:18:36.000Z</time>
      </trkpt>
      <trkpt lat="47.44726" lon="6.72285">
        <ele>477</ele>
        <time>2016-02-28T09:18:37.000Z</time>
      </trkpt>
      <trkpt lat="47.44724" lon="6.72286">
        <ele>477</ele>
        <time>2016-02-28T09:18:38.000Z</time>
      </trkpt>
      <trkpt lat="47.44721" lon="6.72288">
        <ele>477</ele>
        <time>2016-02-28T09:18:39.000Z</time>
      </trkpt>
      <trkpt lat="47.44719" lon="6.72289">
        <ele>478</ele>
        <time>2016-02-28T09:18:40.000Z</time>
      </trkpt>
      <trkpt lat="47.44716" lon="6.7229">
        <ele>478</ele>
        <time>2016-02-28T09:18:41.000Z</time>
      </trkpt>
      <trkpt lat="47.44713" lon="6.72291">
        <ele>478</ele>
        <time>2016-02-28T09:18:42.000Z</time>
      </trkpt>
      <trkpt lat="47.4471" lon="6.72292">
        <ele>478</ele>
        <time>2016-02-28T09:18:43.000Z</time>
      </trkpt>
      <trkpt lat="47.44707" lon="6.72293">
        <ele>478</ele>
        <time>2016-02-28T09:18:44.000Z</time>
      </trkpt>
      <trkpt lat="47.44704" lon="6.72293">
        <ele>477</ele>
        <time>2016-02-28T09:18:45.000Z</time>
      </trkpt>
      <trkpt lat="47.44701" lon="6.72295">
        <ele>478</ele>
        <time>2016-02-28T09:18:46.000Z</time>
      </trkpt>
      <trkpt lat="47.44698" lon="6.72297">
        <ele>478</ele>
        <time>2016-02-28T09:18:47.000Z</time>
      </trkpt>
      <trkpt lat="47.44696" lon="6.723">
        <ele>478</ele>
        <time>2016-02-28T09:18:48.000Z</time>
      </trkpt>
      <trkpt lat="47.44694" lon="6.72302">
        <ele>478</ele>
        <time>2016-02-28T09:18:49.000Z</time>
      </trkpt>
      <trkpt lat="47.44692" lon="6.72305">
        <ele>478</ele>
        <time>2016-02-28T09:18:50.000Z</time>
      </trkpt>
      <trkpt lat="47.4469" lon="6.72307">
        <ele>478</ele>
        <time>2016-02-28T09:18:51.000Z</time>
      </trkpt>
      <trkpt lat="47.44687" lon="6.72308">
        <ele>478</ele>
        <time>2016-02-28T09:18:52.000Z</time>
      </trkpt>
      <trkpt lat="47.44684" lon="6.72308">
        <ele>478</ele>
        <time>2016-02-28T09:18:53.000Z</time>
      </trkpt>
      <trkpt lat="47.44681" lon="6.72309">
        <ele>478</ele>
        <time>2016-02-28T09:18:54.000Z</time>
      </trkpt>
      <trkpt lat="47.44677" lon="6.7231">
        <ele>478</ele>
        <time>2016-02-28T09:18:55.000Z</time>
      </trkpt>
      <trkpt lat="47.44674" lon="6.72311">
        <ele>478</ele>
        <time>2016-02-28T09:18:56.000Z</time>
      </trkpt>
      <trkpt lat="47.4467" lon="6.72312">
        <ele>478</ele>
        <time>2016-02-28T09:18:57.000Z</time>
      </trkpt>
      <trkpt lat="47.44667" lon="6.72313">
        <ele>478</ele>
        <time>2016-02-28T09:18:58.000Z</time>
      </trkpt>
      <trkpt lat="47.44664" lon="6.72315">
        <ele>477</ele>
        <time>2016-02-28T09:18:59.000Z</time>
      </trkpt>
      <trkpt lat="47.44661" lon="6.72316">
        <ele>477</ele>
        <time>2016-02-28T09:19:00.000Z</time>
      </trkpt>
      <trkpt lat="47.44657" lon="6.72316">
        <ele>477</ele>
        <time>2016-02-28T09:19:01.000Z</time>
      </trkpt>
      <trkpt lat="47.44653" lon="6.72317">
        <ele>477</ele>
        <time>2016-02-28T09:19:02.000Z</time>
      </trkpt>
      <trkpt lat="47.4465" lon="6.72318">
        <ele>477</ele>
        <time>2016-02-28T09:19:03.000Z</time>
      </trkpt>
      <trkpt lat="47.44645" lon="6.72319">
        <ele>476</ele>
        <time>2016-02-28T09:19:04.000Z</time>
      </trkpt>
      <trkpt lat="47.44641" lon="6.72319">
        <ele>476</ele>
        <time>2016-02-28T09:19:05.000Z</time>
      </trkpt>
      <trkpt lat="47.44637" lon="6.72319">
        <ele>476</ele>
        <time>2016-02-28T09:19:06.000Z</time>
      </trkpt>
      <trkpt lat="47.44632" lon="6.72319">
        <ele>476</ele>
        <time>2016-02-28T09:19:07.000Z</time>
      </trkpt>
      <trkpt lat="47.44628" lon="6.72319">
        <ele>476</ele>
        <time>2016-02-28T09:19:08.000Z</time>
      </trkpt>
      <trkpt lat="47.44624" lon="6.72318">
        <ele>476</ele>
        <time>2016-02-28T09:19:09.000Z</time>
      </trkpt>
      <trkpt lat="47.4462" lon="6.72317">
        <ele>475</ele>
        <time>2016-02-28T09:19:10.000Z</time>
      </trkpt>
      <trkpt lat="47.44616" lon="6.72316">
        <ele>475</ele>
        <time>2016-02-28T09:19:11.000Z</time>
      </trkpt>
      <trkpt lat="47.4461" lon="6.72316">
        <ele>475</ele>
        <time>2016-02-28T09:19:12.000Z</time>
      </trkpt>
      <trkpt lat="47.44605" lon="6.72316">
        <ele>476</ele>
        <time>2016-02-28T09:19:13.000Z</time>
      </trkpt>
      <trkpt lat="47.446" lon="6.72316">
        <ele>476</ele>
        <time>2016-02-28T09:19:14.000Z</time>
      </trkpt>
      <trkpt lat="47.44595" lon="6.72316">
        <ele>476</ele>
        <time>2016-02-28T09:19:15.000Z</time>
      </trkpt>
      <trkpt lat="47.4459" lon="6.72316">
        <ele>476</ele>
        <time>2016-02-28T09:19:16.000Z</time>
      </trkpt>
      <trkpt lat="47.44586" lon="6.72317">
        <ele>476</ele>
        <time>2016-02-28T09:19:17.000Z</time>
      </trkpt>
      <trkpt lat="47.4458" lon="6.72319">
        <ele>475</ele>
        <time>2016-02-28T09:19:18.000Z</time>
      </trkpt>
      <trkpt lat="47.44572" lon="6.72317">
        <ele>475</ele>
        <time>2016-02-28T09:19:19.000Z</time>
      </trkpt>
      <trkpt lat="47.44566" lon="6.72318">
        <ele>475</ele>
        <time>2016-02-28T09:19:20.000Z</time>
      </trkpt>
      <trkpt lat="47.4456" lon="6.72319">
        <ele>474</ele>
        <time>2016-02-28T09:19:21.000Z</time>
      </trkpt>
      <trkpt lat="47.44556" lon="6.72318">
        <ele>474</ele>
        <time>2016-02-28T09:19:22.000Z</time>
      </trkpt>
      <trkpt lat="47.44551" lon="6.72319">
        <ele>474</ele>
        <time>2016-02-28T09:19:23.000Z</time>
      </trkpt>
      <trkpt lat="47.44548" lon="6.72319">
        <ele>474</ele>
        <time>2016-02-28T09:19:24.000Z</time>
      </trkpt>
      <trkpt lat="47.44543" lon="6.72321">
        <ele>474</ele>
        <time>2016-02-28T09:19:25.000Z</time>
      </trkpt>
      <trkpt lat="47.44538" lon="6.72319">
        <ele>474</ele>
        <time>2016-02-28T09:19:26.000Z</time>
      </trkpt>
      <trkpt lat="47.44534" lon="6.7232">
        <ele>474</ele>
        <time>2016-02-28T09:19:27.000Z</time>
      </trkpt>
      <trkpt lat="47.4453" lon="6.72321">
        <ele>474</ele>
        <time>2016-02-28T09:19:28.000Z</time>
      </trkpt>
      <trkpt lat="47.44526" lon="6.72321">
        <ele>474</ele>
        <time>2016-02-28T09:19:29.000Z</time>
      </trkpt>
      <trkpt lat="47.44522" lon="6.72322">
        <ele>474</ele>
        <time>2016-02-28T09:19:30.000Z</time>
      </trkpt>
      <trkpt lat="47.44518" lon="6.72323">
        <ele>474</ele>
        <time>2016-02-28T09:19:31.000Z</time>
      </trkpt>
      <trkpt lat="47.44515" lon="6.72325">
        <ele>474</ele>
        <time>2016-02-28T09:19:32.000Z</time>
      </trkpt>
      <trkpt lat="47.4451" lon="6.72328">
        <ele>475</ele>
        <time>2016-02-28T09:19:33.000Z</time>
      </trkpt>
      <trkpt lat="47.44506" lon="6.7233">
        <ele>475</ele>
        <time>2016-02-28T09:19:34.000Z</time>
      </trkpt>
      <trkpt lat="47.44505" lon="6.72332">
        <ele>475</ele>
        <time>2016-02-28T09:19:35.000Z</time>
      </trkpt>
      <trkpt lat="47.44501" lon="6.72333">
        <ele>476</ele>
        <time>2016-02-28T09:19:36.000Z</time>
      </trkpt>
      <trkpt lat="47.44497" lon="6.72335">
        <ele>476</ele>
        <time>2016-02-28T09:19:37.000Z</time>
      </trkpt>
      <trkpt lat="47.44491" lon="6.72336">
        <ele>477</ele>
        <time>2016-02-28T09:19:38.000Z</time>
      </trkpt>
      <trkpt lat="47.44487" lon="6.72336">
        <ele>477</ele>
        <time>2016-02-28T09:19:39.000Z</time>
      </trkpt>
      <trkpt lat="47.44484" lon="6.72336">
        <ele>477</ele>
        <time>2016-02-28T09:19:40.000Z</time>
      </trkpt>
      <trkpt lat="47.44479" lon="6.72336">
        <ele>477</ele>
        <time>2016-02-28T09:19:41.000Z</time>
      </trkpt>
      <trkpt lat="47.44475" lon="6.72336">
        <ele>477</ele>
        <time>2016-02-28T09:19:42.000Z</time>
      </trkpt>
      <trkpt lat="47.44471" lon="6.72336">
        <ele>477</ele>
        <time>2016-02-28T09:19:43.000Z</time>
      </trkpt>
      <trkpt lat="47.44467" lon="6.72334">
        <ele>477</ele>
        <time>2016-02-28T09:19:44.000Z</time>
      </trkpt>
      <trkpt lat="47.44464" lon="6.72333">
        <ele>473</ele>
        <time>2016-02-28T09:19:45.000Z</time>
      </trkpt>
      <trkpt lat="47.4446" lon="6.72333">
        <ele>473</ele>
        <time>2016-02-28T09:19:46.000Z</time>
      </trkpt>
      <trkpt lat="47.44456" lon="6.72334">
        <ele>477</ele>
        <time>2016-02-28T09:19:47.000Z</time>
      </trkpt>
      <trkpt lat="47.44452" lon="6.72333">
        <ele>473</ele>
        <time>2016-02-28T09:19:48.000Z</time>
      </trkpt>
      <trkpt lat="47.44448" lon="6.72334">
        <ele>477</ele>
        <time>2016-02-28T09:19:49.000Z</time>
      </trkpt>
      <trkpt lat="47.44442" lon="6.72341">
        <ele>477</ele>
        <time>2016-02-28T09:19:50.000Z</time>
      </trkpt>
      <trkpt lat="47.44437" lon="6.72343">
        <ele>476</ele>
        <time>2016-02-28T09:19:51.000Z</time>
      </trkpt>
      <trkpt lat="47.44433" lon="6.72345">
        <ele>476</ele>
        <time>2016-02-28T09:19:52.000Z</time>
      </trkpt>
      <trkpt lat="47.44428" lon="6.72347">
        <ele>476</ele>
        <time>2016-02-28T09:19:53.000Z</time>
      </trkpt>
      <trkpt lat="47.44423" lon="6.72348">
        <ele>476</ele>
        <time>2016-02-28T09:19:54.000Z</time>
      </trkpt>
      <trkpt lat="47.44417" lon="6.72348">
        <ele>476</ele>
        <time>2016-02-28T09:19:55.000Z</time>
      </trkpt>
      <trkpt lat="47.44412" lon="6.72349">
        <ele>476</ele>
        <time>2016-02-28T09:19:56.000Z</time>
      </trkpt>
      <trkpt lat="47.44406" lon="6.72349">
        <ele>476</ele>
        <time>2016-02-28T09:19:57.000Z</time>
      </trkpt>
      <trkpt lat="47.44401" lon="6.7235">
        <ele>476</ele>
        <time>2016-02-28T09:19:58.000Z</time>
      </trkpt>
      <trkpt lat="47.44396" lon="6.72352">
        <ele>476</ele>
        <time>2016-02-28T09:19:59.000Z</time>
      </trkpt>
      <trkpt lat="47.44391" lon="6.72354">
        <ele>477</ele>
        <time>2016-02-28T09:20:00.000Z</time>
      </trkpt>
      <trkpt lat="47.44386" lon="6.72356">
        <ele>477</ele>
        <time>2016-02-28T09:20:01.000Z</time>
      </trkpt>
      <trkpt lat="47.4438" lon="6.72357">
        <ele>477</ele>
        <time>2016-02-28T09:20:02.000Z</time>
      </trkpt>
      <trkpt lat="47.44374" lon="6.7236">
        <ele>477</ele>
        <time>2016-02-28T09:20:03.000Z</time>
      </trkpt>
      <trkpt lat="47.44369" lon="6.72361">
        <ele>477</ele>
        <time>2016-02-28T09:20:04.000Z</time>
      </trkpt>
      <trkpt lat="47.44364" lon="6.72362">
        <ele>477</ele>
        <time>2016-02-28T09:20:05.000Z</time>
      </trkpt>
      <trkpt lat="47.44359" lon="6.72364">
        <ele>477</ele>
        <time>2016-02-28T09:20:06.000Z</time>
      </trkpt>
      <trkpt lat="47.44353" lon="6.72366">
        <ele>477</ele>
        <time>2016-02-28T09:20:07.000Z</time>
      </trkpt>
      <trkpt lat="47.44348" lon="6.72368">
        <ele>478</ele>
        <time>2016-02-28T09:20:08.000Z</time>
      </trkpt>
      <trkpt lat="47.44343" lon="6.7237">
        <ele>478</ele>
        <time>2016-02-28T09:20:09.000Z</time>
      </trkpt>
      <trkpt lat="47.44338" lon="6.72372">
        <ele>478</ele>
        <time>2016-02-28T09:20:10.000Z</time>
      </trkpt>
      <trkpt lat="47.44332" lon="6.72374">
        <ele>480</ele>
        <time>2016-02-28T09:20:11.000Z</time>
      </trkpt>
      <trkpt lat="47.44329" lon="6.72375">
        <ele>480</ele>
        <time>2016-02-28T09:20:12.000Z</time>
      </trkpt>
      <trkpt lat="47.44325" lon="6.72377">
        <ele>480</ele>
        <time>2016-02-28T09:20:13.000Z</time>
      </trkpt>
      <trkpt lat="47.44319" lon="6.72377">
        <ele>480</ele>
        <time>2016-02-28T09:20:14.000Z</time>
      </trkpt>
      <trkpt lat="47.44314" lon="6.72378">
        <ele>480</ele>
        <time>2016-02-28T09:20:15.000Z</time>
      </trkpt>
      <trkpt lat="47.44308" lon="6.7238">
        <ele>480</ele>
        <time>2016-02-28T09:20:16.000Z</time>
      </trkpt>
      <trkpt lat="47.44304" lon="6.7238">
        <ele>480</ele>
        <time>2016-02-28T09:20:17.000Z</time>
      </trkpt>
      <trkpt lat="47.443" lon="6.72381">
        <ele>480</ele>
        <time>2016-02-28T09:20:18.000Z</time>
      </trkpt>
      <trkpt lat="47.44295" lon="6.72383">
        <ele>481</ele>
        <time>2016-02-28T09:20:19.000Z</time>
      </trkpt>
      <trkpt lat="47.44291" lon="6.72384">
        <ele>481</ele>
        <time>2016-02-28T09:20:20.000Z</time>
      </trkpt>
      <trkpt lat="47.44287" lon="6.72384">
        <ele>481</ele>
        <time>2016-02-28T09:20:21.000Z</time>
      </trkpt>
      <trkpt lat="47.44282" lon="6.72385">
        <ele>481</ele>
        <time>2016-02-28T09:20:22.000Z</time>
      </trkpt>
      <trkpt lat="47.44278" lon="6.72385">
        <ele>481</ele>
        <time>2016-02-28T09:20:23.000Z</time>
      </trkpt>
      <trkpt lat="47.44274" lon="6.72386">
        <ele>481</ele>
        <time>2016-02-28T09:20:24.000Z</time>
      </trkpt>
      <trkpt lat="47.44269" lon="6.72388">
        <ele>481</ele>
        <time>2016-02-28T09:20:25.000Z</time>
      </trkpt>
      <trkpt lat="47.44264" lon="6.72388">
        <ele>481</ele>
        <time>2016-02-28T09:20:26.000Z</time>
      </trkpt>
      <trkpt lat="47.44259" lon="6.7239">
        <ele>481</ele>
        <time>2016-02-28T09:20:27.000Z</time>
      </trkpt>
      <trkpt lat="47.44254" lon="6.72391">
        <ele>482</ele>
        <time>2016-02-28T09:20:28.000Z</time>
      </trkpt>
      <trkpt lat="47.4425" lon="6.7239">
        <ele>482</ele>
        <time>2016-02-28T09:20:29.000Z</time>
      </trkpt>
      <trkpt lat="47.44246" lon="6.72391">
        <ele>482</ele>
        <time>2016-02-28T09:20:30.000Z</time>
      </trkpt>
      <trkpt lat="47.44241" lon="6.72391">
        <ele>482</ele>
        <time>2016-02-28T09:20:31.000Z</time>
      </trkpt>
      <trkpt lat="47.44237" lon="6.72389">
        <ele>482</ele>
        <time>2016-02-28T09:20:32.000Z</time>
      </trkpt>
      <trkpt lat="47.44232" lon="6.7239">
        <ele>482</ele>
        <time>2016-02-28T09:20:33.000Z</time>
      </trkpt>
      <trkpt lat="47.44227" lon="6.7239">
        <ele>482</ele>
        <time>2016-02-28T09:20:34.000Z</time>
      </trkpt>
      <trkpt lat="47.44222" lon="6.72391">
        <ele>482</ele>
        <time>2016-02-28T09:20:35.000Z</time>
      </trkpt>
      <trkpt lat="47.44218" lon="6.72391">
        <ele>482</ele>
        <time>2016-02-28T09:20:36.000Z</time>
      </trkpt>
      <trkpt lat="47.44213" lon="6.72392">
        <ele>482</ele>
        <time>2016-02-28T09:20:37.000Z</time>
      </trkpt>
      <trkpt lat="47.44209" lon="6.72393">
        <ele>482</ele>
        <time>2016-02-28T09:20:38.000Z</time>
      </trkpt>
      <trkpt lat="47.44205" lon="6.72393">
        <ele>482</ele>
        <time>2016-02-28T09:20:39.000Z</time>
      </trkpt>
      <trkpt lat="47.442" lon="6.72394">
        <ele>482</ele>
        <time>2016-02-28T09:20:40.000Z</time>
      </trkpt>
      <trkpt lat="47.44196" lon="6.72394">
        <ele>482</ele>
        <time>2016-02-28T09:20:41.000Z</time>
      </trkpt>
      <trkpt lat="47.44192" lon="6.72395">
        <ele>482</ele>
        <time>2016-02-28T09:20:42.000Z</time>
      </trkpt>
      <trkpt lat="47.44188" lon="6.72396">
        <ele>482</ele>
        <time>2016-02-28T09:20:43.000Z</time>
      </trkpt>
      <trkpt lat="47.44178" lon="6.72399">
        <ele>482</ele>
        <time>2016-02-28T09:20:44.000Z</time>
      </trkpt>
      <trkpt lat="47.44169" lon="6.724">
        <ele>482</ele>
        <time>2016-02-28T09:20:45.000Z</time>
      </trkpt>
      <trkpt lat="47.4416" lon="6.72401">
        <ele>480</ele>
        <time>2016-02-28T09:20:46.000Z</time>
      </trkpt>
      <trkpt lat="47.44153" lon="6.72403">
        <ele>479</ele>
        <time>2016-02-28T09:20:47.000Z</time>
      </trkpt>
      <trkpt lat="47.44147" lon="6.72404">
        <ele>479</ele>
        <time>2016-02-28T09:20:48.000Z</time>
      </trkpt>
      <trkpt lat="47.44141" lon="6.72404">
        <ele>479</ele>
        <time>2016-02-28T09:20:49.000Z</time>
      </trkpt>
      <trkpt lat="47.44135" lon="6.72406">
        <ele>478</ele>
        <time>2016-02-28T09:20:50.000Z</time>
      </trkpt>
      <trkpt lat="47.44131" lon="6.72409">
        <ele>478</ele>
        <time>2016-02-28T09:20:51.000Z</time>
      </trkpt>
      <trkpt lat="47.44125" lon="6.7241">
        <ele>478</ele>
        <time>2016-02-28T09:20:52.000Z</time>
      </trkpt>
      <trkpt lat="47.44118" lon="6.72411">
        <ele>477</ele>
        <time>2016-02-28T09:20:53.000Z</time>
      </trkpt>
      <trkpt lat="47.44112" lon="6.72413">
        <ele>476</ele>
        <time>2016-02-28T09:20:54.000Z</time>
      </trkpt>
      <trkpt lat="47.44105" lon="6.72417">
        <ele>474</ele>
        <time>2016-02-28T09:20:55.000Z</time>
      </trkpt>
      <trkpt lat="47.44098" lon="6.72419">
        <ele>473</ele>
        <time>2016-02-28T09:20:56.000Z</time>
      </trkpt>
      <trkpt lat="47.4409" lon="6.72421">
        <ele>473</ele>
        <time>2016-02-28T09:20:57.000Z</time>
      </trkpt>
      <trkpt lat="47.44083" lon="6.72424">
        <ele>471</ele>
        <time>2016-02-28T09:20:58.000Z</time>
      </trkpt>
      <trkpt lat="47.44075" lon="6.72427">
        <ele>470</ele>
        <time>2016-02-28T09:20:59.000Z</time>
      </trkpt>
      <trkpt lat="47.44067" lon="6.72429">
        <ele>469</ele>
        <time>2016-02-28T09:21:00.000Z</time>
      </trkpt>
      <trkpt lat="47.4406" lon="6.72432">
        <ele>469</ele>
        <time>2016-02-28T09:21:01.000Z</time>
      </trkpt>
      <trkpt lat="47.44053" lon="6.72434">
        <ele>468</ele>
        <time>2016-02-28T09:21:02.000Z</time>
      </trkpt>
      <trkpt lat="47.44045" lon="6.72438">
        <ele>468</ele>
        <time>2016-02-28T09:21:03.000Z</time>
      </trkpt>
      <trkpt lat="47.44037" lon="6.7244">
        <ele>467</ele>
        <time>2016-02-28T09:21:04.000Z</time>
      </trkpt>
      <trkpt lat="47.4403" lon="6.72443">
        <ele>467</ele>
        <time>2016-02-28T09:21:05.000Z</time>
      </trkpt>
      <trkpt lat="47.44024" lon="6.72452">
        <ele>467</ele>
        <time>2016-02-28T09:21:06.000Z</time>
      </trkpt>
      <trkpt lat="47.44017" lon="6.72455">
        <ele>467</ele>
        <time>2016-02-28T09:21:07.000Z</time>
      </trkpt>
      <trkpt lat="47.4401" lon="6.72457">
        <ele>467</ele>
        <time>2016-02-28T09:21:08.000Z</time>
      </trkpt>
      <trkpt lat="47.44004" lon="6.72459">
        <ele>466</ele>
        <time>2016-02-28T09:21:09.000Z</time>
      </trkpt>
      <trkpt lat="47.43998" lon="6.72461">
        <ele>464</ele>
        <time>2016-02-28T09:21:10.000Z</time>
      </trkpt>
      <trkpt lat="47.43993" lon="6.72461">
        <ele>464</ele>
        <time>2016-02-28T09:21:11.000Z</time>
      </trkpt>
      <trkpt lat="47.43987" lon="6.72463">
        <ele>464</ele>
        <time>2016-02-28T09:21:12.000Z</time>
      </trkpt>
      <trkpt lat="47.43982" lon="6.72466">
        <ele>464</ele>
        <time>2016-02-28T09:21:13.000Z</time>
      </trkpt>
      <trkpt lat="47.43977" lon="6.72468">
        <ele>464</ele>
        <time>2016-02-28T09:21:14.000Z</time>
      </trkpt>
      <trkpt lat="47.43973" lon="6.7247">
        <ele>464</ele>
        <time>2016-02-28T09:21:15.000Z</time>
      </trkpt>
      <trkpt lat="47.43968" lon="6.72474">
        <ele>464</ele>
        <time>2016-02-28T09:21:16.000Z</time>
      </trkpt>
      <trkpt lat="47.43964" lon="6.72478">
        <ele>464</ele>
        <time>2016-02-28T09:21:17.000Z</time>
      </trkpt>
      <trkpt lat="47.43959" lon="6.72481">
        <ele>464</ele>
        <time>2016-02-28T09:21:18.000Z</time>
      </trkpt>
      <trkpt lat="47.43955" lon="6.72486">
        <ele>464</ele>
        <time>2016-02-28T09:21:19.000Z</time>
      </trkpt>
      <trkpt lat="47.4395" lon="6.72491">
        <ele>464</ele>
        <time>2016-02-28T09:21:20.000Z</time>
      </trkpt>
      <trkpt lat="47.43944" lon="6.72492">
        <ele>464</ele>
        <time>2016-02-28T09:21:21.000Z</time>
      </trkpt>
      <trkpt lat="47.43938" lon="6.72494">
        <ele>464</ele>
        <time>2016-02-28T09:21:22.000Z</time>
      </trkpt>
      <trkpt lat="47.43932" lon="6.72493">
        <ele>464</ele>
        <time>2016-02-28T09:21:23.000Z</time>
      </trkpt>
      <trkpt lat="47.43927" lon="6.72491">
        <ele>464</ele>
        <time>2016-02-28T09:21:24.000Z</time>
      </trkpt>
      <trkpt lat="47.43922" lon="6.72489">
        <ele>463</ele>
        <time>2016-02-28T09:21:25.000Z</time>
      </trkpt>
      <trkpt lat="47.43917" lon="6.72486">
        <ele>464</ele>
        <time>2016-02-28T09:21:26.000Z</time>
      </trkpt>
      <trkpt lat="47.43912" lon="6.72483">
        <ele>463</ele>
        <time>2016-02-28T09:21:27.000Z</time>
      </trkpt>
      <trkpt lat="47.43907" lon="6.72479">
        <ele>463</ele>
        <time>2016-02-28T09:21:28.000Z</time>
      </trkpt>
      <trkpt lat="47.43901" lon="6.72475">
        <ele>463</ele>
        <time>2016-02-28T09:21:29.000Z</time>
      </trkpt>
      <trkpt lat="47.43896" lon="6.72471">
        <ele>463</ele>
        <time>2016-02-28T09:21:30.000Z</time>
      </trkpt>
      <trkpt lat="47.43891" lon="6.72466">
        <ele>463</ele>
        <time>2016-02-28T09:21:31.000Z</time>
      </trkpt>
      <trkpt lat="47.43885" lon="6.72461">
        <ele>463</ele>
        <time>2016-02-28T09:21:32.000Z</time>
      </trkpt>
      <trkpt lat="47.43879" lon="6.72457">
        <ele>463</ele>
        <time>2016-02-28T09:21:33.000Z</time>
      </trkpt>
      <trkpt lat="47.43873" lon="6.72452">
        <ele>463</ele>
        <time>2016-02-28T09:21:34.000Z</time>
      </trkpt>
      <trkpt lat="47.43868" lon="6.72447">
        <ele>463</ele>
        <time>2016-02-28T09:21:35.000Z</time>
      </trkpt>
      <trkpt lat="47.43863" lon="6.72442">
        <ele>463</ele>
        <time>2016-02-28T09:21:36.000Z</time>
      </trkpt>
      <trkpt lat="47.43858" lon="6.72437">
        <ele>463</ele>
        <time>2016-02-28T09:21:37.000Z</time>
      </trkpt>
      <trkpt lat="47.43855" lon="6.72432">
        <ele>463</ele>
        <time>2016-02-28T09:21:38.000Z</time>
      </trkpt>
      <trkpt lat="47.4385" lon="6.72426">
        <ele>462</ele>
        <time>2016-02-28T09:21:39.000Z</time>
      </trkpt>
      <trkpt lat="47.43844" lon="6.72421">
        <ele>462</ele>
        <time>2016-02-28T09:21:40.000Z</time>
      </trkpt>
      <trkpt lat="47.43838" lon="6.72417">
        <ele>462</ele>
        <time>2016-02-28T09:21:41.000Z</time>
      </trkpt>
      <trkpt lat="47.43833" lon="6.72412">
        <ele>462</ele>
        <time>2016-02-28T09:21:42.000Z</time>
      </trkpt>
      <trkpt lat="47.43829" lon="6.72406">
        <ele>462</ele>
        <time>2016-02-28T09:21:43.000Z</time>
      </trkpt>
      <trkpt lat="47.43825" lon="6.72401">
        <ele>462</ele>
        <time>2016-02-28T09:21:44.000Z</time>
      </trkpt>
      <trkpt lat="47.4382" lon="6.72396">
        <ele>462</ele>
        <time>2016-02-28T09:21:45.000Z</time>
      </trkpt>
      <trkpt lat="47.43815" lon="6.72391">
        <ele>462</ele>
        <time>2016-02-28T09:21:46.000Z</time>
      </trkpt>
      <trkpt lat="47.43811" lon="6.72385">
        <ele>462</ele>
        <time>2016-02-28T09:21:47.000Z</time>
      </trkpt>
      <trkpt lat="47.43806" lon="6.7238">
        <ele>462</ele>
        <time>2016-02-28T09:21:48.000Z</time>
      </trkpt>
      <trkpt lat="47.43801" lon="6.72374">
        <ele>462</ele>
        <time>2016-02-28T09:21:49.000Z</time>
      </trkpt>
      <trkpt lat="47.43796" lon="6.72367">
        <ele>462</ele>
        <time>2016-02-28T09:21:50.000Z</time>
      </trkpt>
      <trkpt lat="47.43791" lon="6.72362">
        <ele>461</ele>
        <time>2016-02-28T09:21:51.000Z</time>
      </trkpt>
      <trkpt lat="47.43786" lon="6.72356">
        <ele>461</ele>
        <time>2016-02-28T09:21:52.000Z</time>
      </trkpt>
      <trkpt lat="47.43782" lon="6.7235">
        <ele>461</ele>
        <time>2016-02-28T09:21:53.000Z</time>
      </trkpt>
      <trkpt lat="47.43777" lon="6.72344">
        <ele>461</ele>
        <time>2016-02-28T09:21:54.000Z</time>
      </trkpt>
      <trkpt lat="47.43773" lon="6.72338">
        <ele>461</ele>
        <time>2016-02-28T09:21:55.000Z</time>
      </trkpt>
      <trkpt lat="47.43768" lon="6.72332">
        <ele>461</ele>
        <time>2016-02-28T09:21:56.000Z</time>
      </trkpt>
      <trkpt lat="47.43764" lon="6.72326">
        <ele>460</ele>
        <time>2016-02-28T09:21:57.000Z</time>
      </trkpt>
      <trkpt lat="47.4376" lon="6.72319">
        <ele>460</ele>
        <time>2016-02-28T09:21:58.000Z</time>
      </trkpt>
      <trkpt lat="47.43755" lon="6.72313">
        <ele>460</ele>
        <time>2016-02-28T09:21:59.000Z</time>
      </trkpt>
      <trkpt lat="47.4375" lon="6.72307">
        <ele>460</ele>
        <time>2016-02-28T09:22:00.000Z</time>
      </trkpt>
      <trkpt lat="47.43745" lon="6.72302">
        <ele>460</ele>
        <time>2016-02-28T09:22:01.000Z</time>
      </trkpt>
      <trkpt lat="47.43739" lon="6.72298">
        <ele>460</ele>
        <time>2016-02-28T09:22:02.000Z</time>
      </trkpt>
      <trkpt lat="47.43733" lon="6.72295">
        <ele>460</ele>
        <time>2016-02-28T09:22:03.000Z</time>
      </trkpt>
      <trkpt lat="47.43727" lon="6.72295">
        <ele>460</ele>
        <time>2016-02-28T09:22:04.000Z</time>
      </trkpt>
      <trkpt lat="47.43723" lon="6.72298">
        <ele>460</ele>
        <time>2016-02-28T09:22:05.000Z</time>
      </trkpt>
      <trkpt lat="47.43717" lon="6.72302">
        <ele>460</ele>
        <time>2016-02-28T09:22:06.000Z</time>
      </trkpt>
      <trkpt lat="47.43712" lon="6.72306">
        <ele>460</ele>
        <time>2016-02-28T09:22:07.000Z</time>
      </trkpt>
      <trkpt lat="47.43708" lon="6.72309">
        <ele>460</ele>
        <time>2016-02-28T09:22:08.000Z</time>
      </trkpt>
      <trkpt lat="47.43703" lon="6.72313">
        <ele>460</ele>
        <time>2016-02-28T09:22:09.000Z</time>
      </trkpt>
      <trkpt lat="47.43698" lon="6.72317">
        <ele>460</ele>
        <time>2016-02-28T09:22:10.000Z</time>
      </trkpt>
      <trkpt lat="47.43693" lon="6.72321">
        <ele>460</ele>
        <time>2016-02-28T09:22:11.000Z</time>
      </trkpt>
      <trkpt lat="47.43688" lon="6.72325">
        <ele>460</ele>
        <time>2016-02-28T09:22:12.000Z</time>
      </trkpt>
      <trkpt lat="47.43685" lon="6.72328">
        <ele>460</ele>
        <time>2016-02-28T09:22:13.000Z</time>
      </trkpt>
      <trkpt lat="47.4368" lon="6.72331">
        <ele>460</ele>
        <time>2016-02-28T09:22:14.000Z</time>
      </trkpt>
      <trkpt lat="47.43676" lon="6.72334">
        <ele>461</ele>
        <time>2016-02-28T09:22:15.000Z</time>
      </trkpt>
      <trkpt lat="47.43671" lon="6.72336">
        <ele>461</ele>
        <time>2016-02-28T09:22:16.000Z</time>
      </trkpt>
      <trkpt lat="47.43666" lon="6.72338">
        <ele>462</ele>
        <time>2016-02-28T09:22:17.000Z</time>
      </trkpt>
      <trkpt lat="47.43662" lon="6.7234">
        <ele>462</ele>
        <time>2016-02-28T09:22:18.000Z</time>
      </trkpt>
      <trkpt lat="47.43658" lon="6.72343">
        <ele>462</ele>
        <time>2016-02-28T09:22:19.000Z</time>
      </trkpt>
      <trkpt lat="47.43655" lon="6.72346">
        <ele>462</ele>
        <time>2016-02-28T09:22:20.000Z</time>
      </trkpt>
      <trkpt lat="47.43651" lon="6.72349">
        <ele>463</ele>
        <time>2016-02-28T09:22:21.000Z</time>
      </trkpt>
      <trkpt lat="47.43646" lon="6.72352">
        <ele>463</ele>
        <time>2016-02-28T09:22:22.000Z</time>
      </trkpt>
      <trkpt lat="47.43643" lon="6.72354">
        <ele>463</ele>
        <time>2016-02-28T09:22:23.000Z</time>
      </trkpt>
      <trkpt lat="47.43639" lon="6.72355">
        <ele>463</ele>
        <time>2016-02-28T09:22:24.000Z</time>
      </trkpt>
      <trkpt lat="47.43635" lon="6.72357">
        <ele>463</ele>
        <time>2016-02-28T09:22:25.000Z</time>
      </trkpt>
      <trkpt lat="47.43632" lon="6.7236">
        <ele>463</ele>
        <time>2016-02-28T09:22:26.000Z</time>
      </trkpt>
      <trkpt lat="47.43628" lon="6.72361">
        <ele>464</ele>
        <time>2016-02-28T09:22:27.000Z</time>
      </trkpt>
      <trkpt lat="47.43625" lon="6.72362">
        <ele>464</ele>
        <time>2016-02-28T09:22:28.000Z</time>
      </trkpt>
      <trkpt lat="47.43621" lon="6.72364">
        <ele>464</ele>
        <time>2016-02-28T09:22:29.000Z</time>
      </trkpt>
      <trkpt lat="47.43618" lon="6.72366">
        <ele>464</ele>
        <time>2016-02-28T09:22:30.000Z</time>
      </trkpt>
      <trkpt lat="47.43614" lon="6.72368">
        <ele>464</ele>
        <time>2016-02-28T09:22:31.000Z</time>
      </trkpt>
      <trkpt lat="47.43611" lon="6.72369">
        <ele>464</ele>
        <time>2016-02-28T09:22:32.000Z</time>
      </trkpt>
      <trkpt lat="47.43607" lon="6.72371">
        <ele>464</ele>
        <time>2016-02-28T09:22:33.000Z</time>
      </trkpt>
      <trkpt lat="47.43604" lon="6.72373">
        <ele>464</ele>
        <time>2016-02-28T09:22:34.000Z</time>
      </trkpt>
      <trkpt lat="47.43601" lon="6.72375">
        <ele>464</ele>
        <time>2016-02-28T09:22:35.000Z</time>
      </trkpt>
      <trkpt lat="47.43598" lon="6.72376">
        <ele>464</ele>
        <time>2016-02-28T09:22:36.000Z</time>
      </trkpt>
      <trkpt lat="47.43595" lon="6.72378">
        <ele>464</ele>
        <time>2016-02-28T09:22:37.000Z</time>
      </trkpt>
      <trkpt lat="47.43592" lon="6.7238">
        <ele>464</ele>
        <time>2016-02-28T09:22:38.000Z</time>
      </trkpt>
      <trkpt lat="47.43589" lon="6.72381">
        <ele>464</ele>
        <time>2016-02-28T09:22:39.000Z</time>
      </trkpt>
      <trkpt lat="47.43586" lon="6.72383">
        <ele>465</ele>
        <time>2016-02-28T09:22:40.000Z</time>
      </trkpt>
      <trkpt lat="47.43582" lon="6.72385">
        <ele>467</ele>
        <time>2016-02-28T09:22:41.000Z</time>
      </trkpt>
      <trkpt lat="47.43579" lon="6.72386">
        <ele>467</ele>
        <time>2016-02-28T09:22:42.000Z</time>
      </trkpt>
      <trkpt lat="47.43576" lon="6.72388">
        <ele>467</ele>
        <time>2016-02-28T09:22:43.000Z</time>
      </trkpt>
      <trkpt lat="47.43573" lon="6.7239">
        <ele>467</ele>
        <time>2016-02-28T09:22:44.000Z</time>
      </trkpt>
      <trkpt lat="47.4357" lon="6.72391">
        <ele>467</ele>
        <time>2016-02-28T09:22:45.000Z</time>
      </trkpt>
      <trkpt lat="47.43567" lon="6.72393">
        <ele>467</ele>
        <time>2016-02-28T09:22:46.000Z</time>
      </trkpt>
      <trkpt lat="47.43563" lon="6.72394">
        <ele>467</ele>
        <time>2016-02-28T09:22:47.000Z</time>
      </trkpt>
      <trkpt lat="47.4356" lon="6.72395">
        <ele>467</ele>
        <time>2016-02-28T09:22:48.000Z</time>
      </trkpt>
      <trkpt lat="47.43557" lon="6.72397">
        <ele>467</ele>
        <time>2016-02-28T09:22:49.000Z</time>
      </trkpt>
      <trkpt lat="47.43553" lon="6.72398">
        <ele>467</ele>
        <time>2016-02-28T09:22:50.000Z</time>
      </trkpt>
      <trkpt lat="47.4355" lon="6.724">
        <ele>467</ele>
        <time>2016-02-28T09:22:51.000Z</time>
      </trkpt>
      <trkpt lat="47.43547" lon="6.72401">
        <ele>467</ele>
        <time>2016-02-28T09:22:52.000Z</time>
      </trkpt>
      <trkpt lat="47.43544" lon="6.72403">
        <ele>468</ele>
        <time>2016-02-28T09:22:53.000Z</time>
      </trkpt>
      <trkpt lat="47.43541" lon="6.72404">
        <ele>468</ele>
        <time>2016-02-28T09:22:54.000Z</time>
      </trkpt>
      <trkpt lat="47.43539" lon="6.72406">
        <ele>468</ele>
        <time>2016-02-28T09:22:55.000Z</time>
      </trkpt>
      <trkpt lat="47.43537" lon="6.72407">
        <ele>468</ele>
        <time>2016-02-28T09:22:56.000Z</time>
      </trkpt>
      <trkpt lat="47.43534" lon="6.72409">
        <ele>468</ele>
        <time>2016-02-28T09:22:57.000Z</time>
      </trkpt>
      <trkpt lat="47.43532" lon="6.7241">
        <ele>468</ele>
        <time>2016-02-28T09:22:58.000Z</time>
      </trkpt>
      <trkpt lat="47.43529" lon="6.72412">
        <ele>468</ele>
        <time>2016-02-28T09:22:59.000Z</time>
      </trkpt>
      <trkpt lat="47.43527" lon="6.72413">
        <ele>468</ele>
        <time>2016-02-28T09:23:00.000Z</time>
      </trkpt>
      <trkpt lat="47.43524" lon="6.72414">
        <ele>469</ele>
        <time>2016-02-28T09:23:01.000Z</time>
      </trkpt>
      <trkpt lat="47.43521" lon="6.72416">
        <ele>469</ele>
        <time>2016-02-28T09:23:02.000Z</time>
      </trkpt>
      <trkpt lat="47.43518" lon="6.72417">
        <ele>470</ele>
        <time>2016-02-28T09:23:03.000Z</time>
      </trkpt>
      <trkpt lat="47.43515" lon="6.72418">
        <ele>470</ele>
        <time>2016-02-28T09:23:04.000Z</time>
      </trkpt>
      <trkpt lat="47.43513" lon="6.72419">
        <ele>470</ele>
        <time>2016-02-28T09:23:05.000Z</time>
      </trkpt>
      <trkpt lat="47.4351" lon="6.72419">
        <ele>470</ele>
        <time>2016-02-28T09:23:06.000Z</time>
      </trkpt>
      <trkpt lat="47.43506" lon="6.72417">
        <ele>471</ele>
        <time>2016-02-28T09:23:08.000Z</time>
      </trkpt>
      <trkpt lat="47.43505" lon="6.72416">
        <ele>470</ele>
        <time>2016-02-28T09:23:09.000Z</time>
      </trkpt>
      <trkpt lat="47.43504" lon="6.72412">
        <ele>470</ele>
        <time>2016-02-28T09:23:10.000Z</time>
      </trkpt>
      <trkpt lat="47.43502" lon="6.72408">
        <ele>470</ele>
        <time>2016-02-28T09:23:11.000Z</time>
      </trkpt>
      <trkpt lat="47.43499" lon="6.72404">
        <ele>471</ele>
        <time>2016-02-28T09:23:12.000Z</time>
      </trkpt>
      <trkpt lat="47.43497" lon="6.72399">
        <ele>471</ele>
        <time>2016-02-28T09:23:13.000Z</time>
      </trkpt>
      <trkpt lat="47.43494" lon="6.72394">
        <ele>471</ele>
        <time>2016-02-28T09:23:14.000Z</time>
      </trkpt>
      <trkpt lat="47.43492" lon="6.72389">
        <ele>471</ele>
        <time>2016-02-28T09:23:15.000Z</time>
      </trkpt>
      <trkpt lat="47.43489" lon="6.72385">
        <ele>471</ele>
        <time>2016-02-28T09:23:16.000Z</time>
      </trkpt>
      <trkpt lat="47.43487" lon="6.72381">
        <ele>471</ele>
        <time>2016-02-28T09:23:17.000Z</time>
      </trkpt>
      <trkpt lat="47.43484" lon="6.72377">
        <ele>471</ele>
        <time>2016-02-28T09:23:17.999Z</time>
      </trkpt>
      <trkpt lat="47.43481" lon="6.72372">
        <ele>471</ele>
        <time>2016-02-28T09:23:19.000Z</time>
      </trkpt>
      <trkpt lat="47.43478" lon="6.72368">
        <ele>471</ele>
        <time>2016-02-28T09:23:20.000Z</time>
      </trkpt>
      <trkpt lat="47.43476" lon="6.72363">
        <ele>471</ele>
        <time>2016-02-28T09:23:21.000Z</time>
      </trkpt>
      <trkpt lat="47.43473" lon="6.72359">
        <ele>471</ele>
        <time>2016-02-28T09:23:22.000Z</time>
      </trkpt>
      <trkpt lat="47.43471" lon="6.72355">
        <ele>471</ele>
        <time>2016-02-28T09:23:23.000Z</time>
      </trkpt>
      <trkpt lat="47.43468" lon="6.7235">
        <ele>471</ele>
        <time>2016-02-28T09:23:24.000Z</time>
      </trkpt>
      <trkpt lat="47.43466" lon="6.72346">
        <ele>471</ele>
        <time>2016-02-28T09:23:25.000Z</time>
      </trkpt>
      <trkpt lat="47.43463" lon="6.72342">
        <ele>471</ele>
        <time>2016-02-28T09:23:26.000Z</time>
      </trkpt>
      <trkpt lat="47.4346" lon="6.72337">
        <ele>471</ele>
        <time>2016-02-28T09:23:27.000Z</time>
      </trkpt>
      <trkpt lat="47.43457" lon="6.72333">
        <ele>468</ele>
        <time>2016-02-28T09:23:28.000Z</time>
      </trkpt>
      <trkpt lat="47.43454" lon="6.72328">
        <ele>468</ele>
        <time>2016-02-28T09:23:29.000Z</time>
      </trkpt>
      <trkpt lat="47.43451" lon="6.72324">
        <ele>469</ele>
        <time>2016-02-28T09:23:30.000Z</time>
      </trkpt>
      <trkpt lat="47.43448" lon="6.72319">
        <ele>469</ele>
        <time>2016-02-28T09:23:31.000Z</time>
      </trkpt>
      <trkpt lat="47.43445" lon="6.72314">
        <ele>469</ele>
        <time>2016-02-28T09:23:32.000Z</time>
      </trkpt>
      <trkpt lat="47.43441" lon="6.72309">
        <ele>469</ele>
        <time>2016-02-28T09:23:33.000Z</time>
      </trkpt>
      <trkpt lat="47.43438" lon="6.72305">
        <ele>468</ele>
        <time>2016-02-28T09:23:34.000Z</time>
      </trkpt>
      <trkpt lat="47.43435" lon="6.723">
        <ele>468</ele>
        <time>2016-02-28T09:23:35.000Z</time>
      </trkpt>
      <trkpt lat="47.43432" lon="6.72295">
        <ele>468</ele>
        <time>2016-02-28T09:23:36.000Z</time>
      </trkpt>
      <trkpt lat="47.43429" lon="6.72289">
        <ele>468</ele>
        <time>2016-02-28T09:23:37.000Z</time>
      </trkpt>
      <trkpt lat="47.43426" lon="6.72285">
        <ele>468</ele>
        <time>2016-02-28T09:23:38.000Z</time>
      </trkpt>
      <trkpt lat="47.43423" lon="6.72281">
        <ele>468</ele>
        <time>2016-02-28T09:23:39.000Z</time>
      </trkpt>
      <trkpt lat="47.43422" lon="6.72276">
        <ele>468</ele>
        <time>2016-02-28T09:23:40.000Z</time>
      </trkpt>
      <trkpt lat="47.43418" lon="6.72271">
        <ele>467</ele>
        <time>2016-02-28T09:23:41.000Z</time>
      </trkpt>
      <trkpt lat="47.43415" lon="6.72266">
        <ele>470</ele>
        <time>2016-02-28T09:23:42.000Z</time>
      </trkpt>
      <trkpt lat="47.43412" lon="6.72261">
        <ele>470</ele>
        <time>2016-02-28T09:23:43.000Z</time>
      </trkpt>
      <trkpt lat="47.43407" lon="6.72258">
        <ele>470</ele>
        <time>2016-02-28T09:23:44.000Z</time>
      </trkpt>
      <trkpt lat="47.43405" lon="6.72253">
        <ele>470</ele>
        <time>2016-02-28T09:23:45.000Z</time>
      </trkpt>
      <trkpt lat="47.43402" lon="6.72248">
        <ele>468</ele>
        <time>2016-02-28T09:23:46.000Z</time>
      </trkpt>
      <trkpt lat="47.43399" lon="6.72244">
        <ele>468</ele>
        <time>2016-02-28T09:23:47.000Z</time>
      </trkpt>
      <trkpt lat="47.43395" lon="6.72239">
        <ele>468</ele>
        <time>2016-02-28T09:23:48.000Z</time>
      </trkpt>
      <trkpt lat="47.43392" lon="6.72235">
        <ele>468</ele>
        <time>2016-02-28T09:23:49.000Z</time>
      </trkpt>
      <trkpt lat="47.4339" lon="6.72231">
        <ele>468</ele>
        <time>2016-02-28T09:23:50.000Z</time>
      </trkpt>
      <trkpt lat="47.43387" lon="6.72226">
        <ele>468</ele>
        <time>2016-02-28T09:23:51.000Z</time>
      </trkpt>
      <trkpt lat="47.43384" lon="6.72221">
        <ele>468</ele>
        <time>2016-02-28T09:23:52.000Z</time>
      </trkpt>
      <trkpt lat="47.43381" lon="6.72215">
        <ele>468</ele>
        <time>2016-02-28T09:23:53.000Z</time>
      </trkpt>
      <trkpt lat="47.43378" lon="6.72211">
        <ele>468</ele>
        <time>2016-02-28T09:23:54.000Z</time>
      </trkpt>
      <trkpt lat="47.43375" lon="6.72205">
        <ele>468</ele>
        <time>2016-02-28T09:23:55.000Z</time>
      </trkpt>
      <trkpt lat="47.43371" lon="6.722">
        <ele>468</ele>
        <time>2016-02-28T09:23:56.000Z</time>
      </trkpt>
      <trkpt lat="47.43368" lon="6.72195">
        <ele>468</ele>
        <time>2016-02-28T09:23:57.000Z</time>
      </trkpt>
      <trkpt lat="47.43365" lon="6.7219">
        <ele>468</ele>
        <time>2016-02-28T09:23:58.000Z</time>
      </trkpt>
      <trkpt lat="47.43361" lon="6.72184">
        <ele>468</ele>
        <time>2016-02-28T09:23:59.000Z</time>
      </trkpt>
      <trkpt lat="47.43358" lon="6.72179">
        <ele>468</ele>
        <time>2016-02-28T09:24:00.000Z</time>
      </trkpt>
      <trkpt lat="47.43354" lon="6.72175">
        <ele>469</ele>
        <time>2016-02-28T09:24:01.000Z</time>
      </trkpt>
      <trkpt lat="47.43351" lon="6.7217">
        <ele>469</ele>
        <time>2016-02-28T09:24:02.000Z</time>
      </trkpt>
      <trkpt lat="47.43347" lon="6.72165">
        <ele>467</ele>
        <time>2016-02-28T09:24:03.000Z</time>
      </trkpt>
      <trkpt lat="47.43345" lon="6.7216">
        <ele>467</ele>
        <time>2016-02-28T09:24:04.000Z</time>
      </trkpt>
      <trkpt lat="47.43341" lon="6.72155">
        <ele>467</ele>
        <time>2016-02-28T09:24:05.000Z</time>
      </trkpt>
      <trkpt lat="47.43337" lon="6.72151">
        <ele>467</ele>
        <time>2016-02-28T09:24:06.000Z</time>
      </trkpt>
      <trkpt lat="47.43334" lon="6.72146">
        <ele>466</ele>
        <time>2016-02-28T09:24:07.000Z</time>
      </trkpt>
      <trkpt lat="47.43331" lon="6.72141">
        <ele>470</ele>
        <time>2016-02-28T09:24:08.000Z</time>
      </trkpt>
      <trkpt lat="47.43328" lon="6.72137">
        <ele>470</ele>
        <time>2016-02-28T09:24:09.000Z</time>
      </trkpt>
      <trkpt lat="47.43325" lon="6.72133">
        <ele>470</ele>
        <time>2016-02-28T09:24:10.000Z</time>
      </trkpt>
      <trkpt lat="47.43324" lon="6.72129">
        <ele>470</ele>
        <time>2016-02-28T09:24:11.000Z</time>
      </trkpt>
      <trkpt lat="47.43322" lon="6.72124">
        <ele>470</ele>
        <time>2016-02-28T09:24:12.000Z</time>
      </trkpt>
      <trkpt lat="47.43319" lon="6.7212">
        <ele>470</ele>
        <time>2016-02-28T09:24:13.000Z</time>
      </trkpt>
      <trkpt lat="47.43317" lon="6.72115">
        <ele>470</ele>
        <time>2016-02-28T09:24:14.000Z</time>
      </trkpt>
      <trkpt lat="47.43314" lon="6.72111">
        <ele>470</ele>
        <time>2016-02-28T09:24:15.000Z</time>
      </trkpt>
      <trkpt lat="47.43311" lon="6.72107">
        <ele>470</ele>
        <time>2016-02-28T09:24:16.000Z</time>
      </trkpt>
      <trkpt lat="47.43308" lon="6.72102">
        <ele>470</ele>
        <time>2016-02-28T09:24:17.000Z</time>
      </trkpt>
      <trkpt lat="47.43304" lon="6.72098">
        <ele>470</ele>
        <time>2016-02-28T09:24:18.000Z</time>
      </trkpt>
      <trkpt lat="47.43301" lon="6.72094">
        <ele>470</ele>
        <time>2016-02-28T09:24:19.000Z</time>
      </trkpt>
      <trkpt lat="47.43298" lon="6.7209">
        <ele>470</ele>
        <time>2016-02-28T09:24:20.000Z</time>
      </trkpt>
      <trkpt lat="47.43295" lon="6.72085">
        <ele>471</ele>
        <time>2016-02-28T09:24:21.000Z</time>
      </trkpt>
      <trkpt lat="47.43292" lon="6.72081">
        <ele>468</ele>
        <time>2016-02-28T09:24:22.000Z</time>
      </trkpt>
      <trkpt lat="47.43289" lon="6.72076">
        <ele>469</ele>
        <time>2016-02-28T09:24:23.000Z</time>
      </trkpt>
      <trkpt lat="47.43286" lon="6.72072">
        <ele>469</ele>
        <time>2016-02-28T09:24:24.000Z</time>
      </trkpt>
      <trkpt lat="47.43283" lon="6.72067">
        <ele>469</ele>
        <time>2016-02-28T09:24:25.000Z</time>
      </trkpt>
      <trkpt lat="47.4328" lon="6.72063">
        <ele>469</ele>
        <time>2016-02-28T09:24:26.000Z</time>
      </trkpt>
      <trkpt lat="47.43278" lon="6.72058">
        <ele>469</ele>
        <time>2016-02-28T09:24:27.000Z</time>
      </trkpt>
      <trkpt lat="47.43275" lon="6.72053">
        <ele>469</ele>
        <time>2016-02-28T09:24:28.000Z</time>
      </trkpt>
      <trkpt lat="47.43272" lon="6.72049">
        <ele>469</ele>
        <time>2016-02-28T09:24:29.000Z</time>
      </trkpt>
      <trkpt lat="47.4327" lon="6.72044">
        <ele>469</ele>
        <time>2016-02-28T09:24:30.000Z</time>
      </trkpt>
      <trkpt lat="47.43267" lon="6.72039">
        <ele>469</ele>
        <time>2016-02-28T09:24:31.000Z</time>
      </trkpt>
      <trkpt lat="47.43264" lon="6.72034">
        <ele>469</ele>
        <time>2016-02-28T09:24:32.000Z</time>
      </trkpt>
      <trkpt lat="47.43261" lon="6.7203">
        <ele>469</ele>
        <time>2016-02-28T09:24:33.000Z</time>
      </trkpt>
      <trkpt lat="47.43258" lon="6.72025">
        <ele>469</ele>
        <time>2016-02-28T09:24:34.000Z</time>
      </trkpt>
      <trkpt lat="47.43255" lon="6.72021">
        <ele>469</ele>
        <time>2016-02-28T09:24:35.000Z</time>
      </trkpt>
      <trkpt lat="47.43252" lon="6.72017">
        <ele>469</ele>
        <time>2016-02-28T09:24:36.000Z</time>
      </trkpt>
      <trkpt lat="47.4325" lon="6.72012">
        <ele>472</ele>
        <time>2016-02-28T09:24:37.000Z</time>
      </trkpt>
      <trkpt lat="47.43247" lon="6.72008">
        <ele>472</ele>
        <time>2016-02-28T09:24:38.000Z</time>
      </trkpt>
      <trkpt lat="47.43245" lon="6.72003">
        <ele>471</ele>
        <time>2016-02-28T09:24:39.000Z</time>
      </trkpt>
      <trkpt lat="47.43242" lon="6.71999">
        <ele>471</ele>
        <time>2016-02-28T09:24:40.000Z</time>
      </trkpt>
      <trkpt lat="47.43239" lon="6.71995">
        <ele>471</ele>
        <time>2016-02-28T09:24:41.000Z</time>
      </trkpt>
      <trkpt lat="47.43237" lon="6.7199">
        <ele>471</ele>
        <time>2016-02-28T09:24:42.000Z</time>
      </trkpt>
      <trkpt lat="47.43234" lon="6.71986">
        <ele>471</ele>
        <time>2016-02-28T09:24:43.000Z</time>
      </trkpt>
      <trkpt lat="47.43232" lon="6.71982">
        <ele>471</ele>
        <time>2016-02-28T09:24:44.000Z</time>
      </trkpt>
      <trkpt lat="47.43228" lon="6.71977">
        <ele>472</ele>
        <time>2016-02-28T09:24:45.000Z</time>
      </trkpt>
      <trkpt lat="47.43226" lon="6.71973">
        <ele>472</ele>
        <time>2016-02-28T09:24:46.000Z</time>
      </trkpt>
      <trkpt lat="47.43223" lon="6.71969">
        <ele>472</ele>
        <time>2016-02-28T09:24:47.000Z</time>
      </trkpt>
      <trkpt lat="47.43221" lon="6.71965">
        <ele>472</ele>
        <time>2016-02-28T09:24:48.000Z</time>
      </trkpt>
      <trkpt lat="47.43219" lon="6.71961">
        <ele>472</ele>
        <time>2016-02-28T09:24:49.000Z</time>
      </trkpt>
      <trkpt lat="47.43217" lon="6.71957">
        <ele>472</ele>
        <time>2016-02-28T09:24:50.000Z</time>
      </trkpt>
      <trkpt lat="47.43215" lon="6.71953">
        <ele>472</ele>
        <time>2016-02-28T09:24:51.000Z</time>
      </trkpt>
      <trkpt lat="47.43214" lon="6.71949">
        <ele>472</ele>
        <time>2016-02-28T09:24:52.000Z</time>
      </trkpt>
      <trkpt lat="47.43212" lon="6.71946">
        <ele>472</ele>
        <time>2016-02-28T09:24:53.000Z</time>
      </trkpt>
      <trkpt lat="47.4321" lon="6.71942">
        <ele>472</ele>
        <time>2016-02-28T09:24:54.000Z</time>
      </trkpt>
      <trkpt lat="47.43208" lon="6.71938">
        <ele>472</ele>
        <time>2016-02-28T09:24:55.000Z</time>
      </trkpt>
      <trkpt lat="47.43206" lon="6.71935">
        <ele>472</ele>
        <time>2016-02-28T09:24:56.000Z</time>
      </trkpt>
      <trkpt lat="47.43204" lon="6.71931">
        <ele>472</ele>
        <time>2016-02-28T09:24:57.000Z</time>
      </trkpt>
      <trkpt lat="47.43202" lon="6.71928">
        <ele>472</ele>
        <time>2016-02-28T09:24:58.000Z</time>
      </trkpt>
      <trkpt lat="47.432" lon="6.71924">
        <ele>472</ele>
        <time>2016-02-28T09:24:59.000Z</time>
      </trkpt>
      <trkpt lat="47.43198" lon="6.71921">
        <ele>472</ele>
        <time>2016-02-28T09:25:00.000Z</time>
      </trkpt>
      <trkpt lat="47.43196" lon="6.71917">
        <ele>473</ele>
        <time>2016-02-28T09:25:01.000Z</time>
      </trkpt>
      <trkpt lat="47.43194" lon="6.71914">
        <ele>471</ele>
        <time>2016-02-28T09:25:02.000Z</time>
      </trkpt>
      <trkpt lat="47.43192" lon="6.7191">
        <ele>471</ele>
        <time>2016-02-28T09:25:03.000Z</time>
      </trkpt>
      <trkpt lat="47.4319" lon="6.71907">
        <ele>471</ele>
        <time>2016-02-28T09:25:04.000Z</time>
      </trkpt>
      <trkpt lat="47.43188" lon="6.71904">
        <ele>471</ele>
        <time>2016-02-28T09:25:05.000Z</time>
      </trkpt>
      <trkpt lat="47.43186" lon="6.71901">
        <ele>471</ele>
        <time>2016-02-28T09:25:06.000Z</time>
      </trkpt>
      <trkpt lat="47.43184" lon="6.71899">
        <ele>471</ele>
        <time>2016-02-28T09:25:07.000Z</time>
      </trkpt>
      <trkpt lat="47.43179" lon="6.71898">
        <ele>471</ele>
        <time>2016-02-28T09:25:09.000Z</time>
      </trkpt>
      <trkpt lat="47.43177" lon="6.71898">
        <ele>472</ele>
        <time>2016-02-28T09:25:10.000Z</time>
      </trkpt>
      <trkpt lat="47.43175" lon="6.719">
        <ele>472</ele>
        <time>2016-02-28T09:25:11.000Z</time>
      </trkpt>
      <trkpt lat="47.43172" lon="6.71902">
        <ele>472</ele>
        <time>2016-02-28T09:25:12.000Z</time>
      </trkpt>
      <trkpt lat="47.4317" lon="6.71905">
        <ele>473</ele>
        <time>2016-02-28T09:25:13.000Z</time>
      </trkpt>
      <trkpt lat="47.43168" lon="6.71907">
        <ele>473</ele>
        <time>2016-02-28T09:25:14.000Z</time>
      </trkpt>
      <trkpt lat="47.43165" lon="6.7191">
        <ele>476</ele>
        <time>2016-02-28T09:25:15.000Z</time>
      </trkpt>
      <trkpt lat="47.43163" lon="6.71912">
        <ele>476</ele>
        <time>2016-02-28T09:25:16.000Z</time>
      </trkpt>
      <trkpt lat="47.43161" lon="6.71914">
        <ele>476</ele>
        <time>2016-02-28T09:25:17.000Z</time>
      </trkpt>
      <trkpt lat="47.4316" lon="6.71916">
        <ele>476</ele>
        <time>2016-02-28T09:25:18.000Z</time>
      </trkpt>
      <trkpt lat="47.43156" lon="6.7192">
        <ele>477</ele>
        <time>2016-02-28T09:25:20.000Z</time>
      </trkpt>
      <trkpt lat="47.43154" lon="6.71922">
        <ele>478</ele>
        <time>2016-02-28T09:25:21.000Z</time>
      </trkpt>
      <trkpt lat="47.43151" lon="6.71924">
        <ele>478</ele>
        <time>2016-02-28T09:25:23.000Z</time>
      </trkpt>
      <trkpt lat="47.4315" lon="6.71926">
        <ele>478</ele>
        <time>2016-02-28T09:25:24.000Z</time>
      </trkpt>
      <trkpt lat="47.43146" lon="6.71928">
        <ele>479</ele>
        <time>2016-02-28T09:25:26.000Z</time>
      </trkpt>
      <trkpt lat="47.43145" lon="6.7193">
        <ele>479</ele>
        <time>2016-02-28T09:25:27.000Z</time>
      </trkpt>
      <trkpt lat="47.43142" lon="6.71932">
        <ele>479</ele>
        <time>2016-02-28T09:25:29.000Z</time>
      </trkpt>
      <trkpt lat="47.43141" lon="6.71933">
        <ele>479</ele>
        <time>2016-02-28T09:25:30.000Z</time>
      </trkpt>
      <trkpt lat="47.43138" lon="6.71935">
        <ele>480</ele>
        <time>2016-02-28T09:25:32.000Z</time>
      </trkpt>
      <trkpt lat="47.43137" lon="6.71937">
        <ele>480</ele>
        <time>2016-02-28T09:25:33.000Z</time>
      </trkpt>
      <trkpt lat="47.43134" lon="6.7194">
        <ele>480</ele>
        <time>2016-02-28T09:25:35.000Z</time>
      </trkpt>
      <trkpt lat="47.43133" lon="6.71941">
        <ele>480</ele>
        <time>2016-02-28T09:25:35.999Z</time>
      </trkpt>
      <trkpt lat="47.4313" lon="6.71943">
        <ele>481</ele>
        <time>2016-02-28T09:25:38.000Z</time>
      </trkpt>
      <trkpt lat="47.43128" lon="6.71944">
        <ele>481</ele>
        <time>2016-02-28T09:25:39.000Z</time>
      </trkpt>
      <trkpt lat="47.43126" lon="6.71946">
        <ele>481</ele>
        <time>2016-02-28T09:25:41.000Z</time>
      </trkpt>
      <trkpt lat="47.43124" lon="6.71947">
        <ele>481</ele>
        <time>2016-02-28T09:25:42.000Z</time>
      </trkpt>
      <trkpt lat="47.4312" lon="6.7195">
        <ele>481</ele>
        <time>2016-02-28T09:25:45.000Z</time>
      </trkpt>
      <trkpt lat="47.43119" lon="6.71951">
        <ele>481</ele>
        <time>2016-02-28T09:25:46.000Z</time>
      </trkpt>
      <trkpt lat="47.43115" lon="6.71954">
        <ele>481</ele>
        <time>2016-02-28T09:25:49.000Z</time>
      </trkpt>
      <trkpt lat="47.43114" lon="6.71955">
        <ele>482</ele>
        <time>2016-02-28T09:25:50.000Z</time>
      </trkpt>
      <trkpt lat="47.4311" lon="6.71958">
        <ele>482</ele>
        <time>2016-02-28T09:25:52.000Z</time>
      </trkpt>
      <trkpt lat="47.43109" lon="6.71959">
        <ele>482</ele>
        <time>2016-02-28T09:25:53.000Z</time>
      </trkpt>
      <trkpt lat="47.43106" lon="6.71961">
        <ele>482</ele>
        <time>2016-02-28T09:25:55.000Z</time>
      </trkpt>
      <trkpt lat="47.43105" lon="6.71962">
        <ele>482</ele>
        <time>2016-02-28T09:25:56.000Z</time>
      </trkpt>
      <trkpt lat="47.43102" lon="6.71964">
        <ele>482</ele>
        <time>2016-02-28T09:25:58.000Z</time>
      </trkpt>
      <trkpt lat="47.43101" lon="6.71965">
        <ele>482</ele>
        <time>2016-02-28T09:25:59.000Z</time>
      </trkpt>
      <trkpt lat="47.43098" lon="6.71967">
        <ele>482</ele>
        <time>2016-02-28T09:26:01.000Z</time>
      </trkpt>
      <trkpt lat="47.43097" lon="6.71968">
        <ele>483</ele>
        <time>2016-02-28T09:26:02.000Z</time>
      </trkpt>
      <trkpt lat="47.43093" lon="6.71972">
        <ele>483</ele>
        <time>2016-02-28T09:26:05.000Z</time>
      </trkpt>
      <trkpt lat="47.43092" lon="6.71973">
        <ele>483</ele>
        <time>2016-02-28T09:26:06.000Z</time>
      </trkpt>
      <trkpt lat="47.43089" lon="6.71976">
        <ele>483</ele>
        <time>2016-02-28T09:26:08.000Z</time>
      </trkpt>
      <trkpt lat="47.43087" lon="6.71977">
        <ele>483</ele>
        <time>2016-02-28T09:26:09.000Z</time>
      </trkpt>
      <trkpt lat="47.43084" lon="6.7198">
        <ele>484</ele>
        <time>2016-02-28T09:26:11.000Z</time>
      </trkpt>
      <trkpt lat="47.43082" lon="6.71981">
        <ele>488</ele>
        <time>2016-02-28T09:26:12.000Z</time>
      </trkpt>
      <trkpt lat="47.4308" lon="6.71984">
        <ele>488</ele>
        <time>2016-02-28T09:26:14.000Z</time>
      </trkpt>
      <trkpt lat="47.43079" lon="6.71985">
        <ele>488</ele>
        <time>2016-02-28T09:26:15.000Z</time>
      </trkpt>
      <trkpt lat="47.43076" lon="6.71987">
        <ele>488</ele>
        <time>2016-02-28T09:26:17.000Z</time>
      </trkpt>
      <trkpt lat="47.43074" lon="6.71988">
        <ele>488</ele>
        <time>2016-02-28T09:26:18.000Z</time>
      </trkpt>
      <trkpt lat="47.43071" lon="6.71991">
        <ele>488</ele>
        <time>2016-02-28T09:26:20.000Z</time>
      </trkpt>
      <trkpt lat="47.43069" lon="6.71992">
        <ele>488</ele>
        <time>2016-02-28T09:26:21.000Z</time>
      </trkpt>
      <trkpt lat="47.43066" lon="6.71995">
        <ele>488</ele>
        <time>2016-02-28T09:26:23.000Z</time>
      </trkpt>
      <trkpt lat="47.43064" lon="6.71996">
        <ele>488</ele>
        <time>2016-02-28T09:26:24.000Z</time>
      </trkpt>
      <trkpt lat="47.43061" lon="6.71999">
        <ele>488</ele>
        <time>2016-02-28T09:26:26.000Z</time>
      </trkpt>
      <trkpt lat="47.43059" lon="6.72">
        <ele>488</ele>
        <time>2016-02-28T09:26:27.000Z</time>
      </trkpt>
      <trkpt lat="47.43056" lon="6.72002">
        <ele>490</ele>
        <time>2016-02-28T09:26:29.000Z</time>
      </trkpt>
      <trkpt lat="47.43054" lon="6.72003">
        <ele>490</ele>
        <time>2016-02-28T09:26:30.000Z</time>
      </trkpt>
      <trkpt lat="47.43052" lon="6.72005">
        <ele>491</ele>
        <time>2016-02-28T09:26:32.000Z</time>
      </trkpt>
      <trkpt lat="47.4305" lon="6.72006">
        <ele>491</ele>
        <time>2016-02-28T09:26:33.000Z</time>
      </trkpt>
      <trkpt lat="47.43046" lon="6.72008">
        <ele>491</ele>
        <time>2016-02-28T09:26:35.000Z</time>
      </trkpt>
      <trkpt lat="47.43044" lon="6.72009">
        <ele>491</ele>
        <time>2016-02-28T09:26:36.000Z</time>
      </trkpt>
      <trkpt lat="47.43041" lon="6.72012">
        <ele>492</ele>
        <time>2016-02-28T09:26:38.000Z</time>
      </trkpt>
      <trkpt lat="47.43039" lon="6.72014">
        <ele>492</ele>
        <time>2016-02-28T09:26:39.000Z</time>
      </trkpt>
      <trkpt lat="47.43036" lon="6.72017">
        <ele>492</ele>
        <time>2016-02-28T09:26:41.000Z</time>
      </trkpt>
      <trkpt lat="47.43034" lon="6.72018">
        <ele>492</ele>
        <time>2016-02-28T09:26:42.000Z</time>
      </trkpt>
      <trkpt lat="47.43031" lon="6.7202">
        <ele>493</ele>
        <time>2016-02-28T09:26:44.000Z</time>
      </trkpt>
      <trkpt lat="47.43029" lon="6.72022">
        <ele>493</ele>
        <time>2016-02-28T09:26:45.000Z</time>
      </trkpt>
      <trkpt lat="47.43026" lon="6.72024">
        <ele>493</ele>
        <time>2016-02-28T09:26:47.000Z</time>
      </trkpt>
      <trkpt lat="47.43024" lon="6.72026">
        <ele>493</ele>
        <time>2016-02-28T09:26:48.000Z</time>
      </trkpt>
      <trkpt lat="47.43021" lon="6.7203">
        <ele>493</ele>
        <time>2016-02-28T09:26:50.000Z</time>
      </trkpt>
      <trkpt lat="47.4302" lon="6.72031">
        <ele>493</ele>
        <time>2016-02-28T09:26:51.000Z</time>
      </trkpt>
      <trkpt lat="47.43016" lon="6.72035">
        <ele>493</ele>
        <time>2016-02-28T09:26:53.000Z</time>
      </trkpt>
      <trkpt lat="47.43014" lon="6.72036">
        <ele>493</ele>
        <time>2016-02-28T09:26:54.000Z</time>
      </trkpt>
      <trkpt lat="47.4301" lon="6.72039">
        <ele>494</ele>
        <time>2016-02-28T09:26:56.000Z</time>
      </trkpt>
      <trkpt lat="47.43008" lon="6.7204">
        <ele>494</ele>
        <time>2016-02-28T09:26:57.000Z</time>
      </trkpt>
      <trkpt lat="47.43005" lon="6.72042">
        <ele>494</ele>
        <time>2016-02-28T09:26:59.000Z</time>
      </trkpt>
      <trkpt lat="47.43003" lon="6.72044">
        <ele>494</ele>
        <time>2016-02-28T09:27:00.000Z</time>
      </trkpt>
      <trkpt lat="47.43" lon="6.72048">
        <ele>494</ele>
        <time>2016-02-28T09:27:02.000Z</time>
      </trkpt>
      <trkpt lat="47.42999" lon="6.72049">
        <ele>498</ele>
        <time>2016-02-28T09:27:03.000Z</time>
      </trkpt>
      <trkpt lat="47.42996" lon="6.7205">
        <ele>498</ele>
        <time>2016-02-28T09:27:05.000Z</time>
      </trkpt>
      <trkpt lat="47.42994" lon="6.72048">
        <ele>498</ele>
        <time>2016-02-28T09:27:06.000Z</time>
      </trkpt>
      <trkpt lat="47.42993" lon="6.72045">
        <ele>498</ele>
        <time>2016-02-28T09:27:07.000Z</time>
      </trkpt>
      <trkpt lat="47.42991" lon="6.72041">
        <ele>498</ele>
        <time>2016-02-28T09:27:08.000Z</time>
      </trkpt>
      <trkpt lat="47.42989" lon="6.72037">
        <ele>498</ele>
        <time>2016-02-28T09:27:09.000Z</time>
      </trkpt>
      <trkpt lat="47.42988" lon="6.72034">
        <ele>498</ele>
        <time>2016-02-28T09:27:10.000Z</time>
      </trkpt>
      <trkpt lat="47.42987" lon="6.7203">
        <ele>498</ele>
        <time>2016-02-28T09:27:11.000Z</time>
      </trkpt>
      <trkpt lat="47.42985" lon="6.72026">
        <ele>498</ele>
        <time>2016-02-28T09:27:12.000Z</time>
      </trkpt>
      <trkpt lat="47.42983" lon="6.72022">
        <ele>498</ele>
        <time>2016-02-28T09:27:13.000Z</time>
      </trkpt>
      <trkpt lat="47.42981" lon="6.72018">
        <ele>498</ele>
        <time>2016-02-28T09:27:14.000Z</time>
      </trkpt>
      <trkpt lat="47.4298" lon="6.72013">
        <ele>498</ele>
        <time>2016-02-28T09:27:15.000Z</time>
      </trkpt>
      <trkpt lat="47.42978" lon="6.72009">
        <ele>497</ele>
        <time>2016-02-28T09:27:16.000Z</time>
      </trkpt>
      <trkpt lat="47.42976" lon="6.72004">
        <ele>498</ele>
        <time>2016-02-28T09:27:17.000Z</time>
      </trkpt>
      <trkpt lat="47.42974" lon="6.72">
        <ele>496</ele>
        <time>2016-02-28T09:27:18.000Z</time>
      </trkpt>
      <trkpt lat="47.42972" lon="6.71996">
        <ele>496</ele>
        <time>2016-02-28T09:27:19.000Z</time>
      </trkpt>
      <trkpt lat="47.4297" lon="6.71991">
        <ele>496</ele>
        <time>2016-02-28T09:27:20.000Z</time>
      </trkpt>
      <trkpt lat="47.42968" lon="6.71986">
        <ele>496</ele>
        <time>2016-02-28T09:27:21.000Z</time>
      </trkpt>
      <trkpt lat="47.42966" lon="6.71981">
        <ele>496</ele>
        <time>2016-02-28T09:27:22.000Z</time>
      </trkpt>
      <trkpt lat="47.42964" lon="6.71977">
        <ele>496</ele>
        <time>2016-02-28T09:27:23.000Z</time>
      </trkpt>
      <trkpt lat="47.42962" lon="6.71972">
        <ele>497</ele>
        <time>2016-02-28T09:27:24.000Z</time>
      </trkpt>
      <trkpt lat="47.4296" lon="6.71967">
        <ele>497</ele>
        <time>2016-02-28T09:27:25.000Z</time>
      </trkpt>
      <trkpt lat="47.42957" lon="6.71962">
        <ele>497</ele>
        <time>2016-02-28T09:27:26.000Z</time>
      </trkpt>
      <trkpt lat="47.42955" lon="6.71958">
        <ele>497</ele>
        <time>2016-02-28T09:27:27.000Z</time>
      </trkpt>
      <trkpt lat="47.42952" lon="6.71953">
        <ele>497</ele>
        <time>2016-02-28T09:27:28.000Z</time>
      </trkpt>
      <trkpt lat="47.4295" lon="6.71947">
        <ele>497</ele>
        <time>2016-02-28T09:27:29.000Z</time>
      </trkpt>
      <trkpt lat="47.42948" lon="6.71942">
        <ele>497</ele>
        <time>2016-02-28T09:27:30.000Z</time>
      </trkpt>
      <trkpt lat="47.42946" lon="6.71936">
        <ele>497</ele>
        <time>2016-02-28T09:27:31.000Z</time>
      </trkpt>
      <trkpt lat="47.42944" lon="6.71931">
        <ele>497</ele>
        <time>2016-02-28T09:27:32.000Z</time>
      </trkpt>
      <trkpt lat="47.42941" lon="6.71924">
        <ele>497</ele>
        <time>2016-02-28T09:27:33.000Z</time>
      </trkpt>
      <trkpt lat="47.42938" lon="6.71919">
        <ele>497</ele>
        <time>2016-02-28T09:27:34.000Z</time>
      </trkpt>
      <trkpt lat="47.42935" lon="6.71913">
        <ele>496</ele>
        <time>2016-02-28T09:27:35.000Z</time>
      </trkpt>
      <trkpt lat="47.42932" lon="6.71908">
        <ele>496</ele>
        <time>2016-02-28T09:27:36.000Z</time>
      </trkpt>
      <trkpt lat="47.42929" lon="6.71902">
        <ele>496</ele>
        <time>2016-02-28T09:27:37.000Z</time>
      </trkpt>
      <trkpt lat="47.42926" lon="6.71896">
        <ele>496</ele>
        <time>2016-02-28T09:27:38.000Z</time>
      </trkpt>
      <trkpt lat="47.42923" lon="6.7189">
        <ele>495</ele>
        <time>2016-02-28T09:27:39.000Z</time>
      </trkpt>
      <trkpt lat="47.4292" lon="6.71885">
        <ele>495</ele>
        <time>2016-02-28T09:27:40.000Z</time>
      </trkpt>
      <trkpt lat="47.42918" lon="6.71878">
        <ele>495</ele>
        <time>2016-02-28T09:27:41.000Z</time>
      </trkpt>
      <trkpt lat="47.42917" lon="6.71873">
        <ele>495</ele>
        <time>2016-02-28T09:27:42.000Z</time>
      </trkpt>
      <trkpt lat="47.42915" lon="6.71867">
        <ele>498</ele>
        <time>2016-02-28T09:27:43.000Z</time>
      </trkpt>
      <trkpt lat="47.42913" lon="6.7186">
        <ele>497</ele>
        <time>2016-02-28T09:27:44.000Z</time>
      </trkpt>
      <trkpt lat="47.42912" lon="6.71853">
        <ele>497</ele>
        <time>2016-02-28T09:27:45.000Z</time>
      </trkpt>
      <trkpt lat="47.42911" lon="6.71846">
        <ele>496</ele>
        <time>2016-02-28T09:27:46.000Z</time>
      </trkpt>
      <trkpt lat="47.4291" lon="6.71839">
        <ele>496</ele>
        <time>2016-02-28T09:27:47.000Z</time>
      </trkpt>
      <trkpt lat="47.42908" lon="6.71832">
        <ele>494</ele>
        <time>2016-02-28T09:27:48.000Z</time>
      </trkpt>
      <trkpt lat="47.42907" lon="6.71825">
        <ele>494</ele>
        <time>2016-02-28T09:27:49.000Z</time>
      </trkpt>
      <trkpt lat="47.42905" lon="6.71819">
        <ele>494</ele>
        <time>2016-02-28T09:27:50.000Z</time>
      </trkpt>
      <trkpt lat="47.42903" lon="6.71813">
        <ele>494</ele>
        <time>2016-02-28T09:27:51.000Z</time>
      </trkpt>
      <trkpt lat="47.42902" lon="6.71807">
        <ele>494</ele>
        <time>2016-02-28T09:27:52.000Z</time>
      </trkpt>
      <trkpt lat="47.429" lon="6.71801">
        <ele>494</ele>
        <time>2016-02-28T09:27:53.000Z</time>
      </trkpt>
      <trkpt lat="47.42898" lon="6.71794">
        <ele>493</ele>
        <time>2016-02-28T09:27:54.000Z</time>
      </trkpt>
      <trkpt lat="47.42896" lon="6.71787">
        <ele>493</ele>
        <time>2016-02-28T09:27:55.000Z</time>
      </trkpt>
      <trkpt lat="47.42894" lon="6.7178">
        <ele>493</ele>
        <time>2016-02-28T09:27:56.000Z</time>
      </trkpt>
      <trkpt lat="47.42891" lon="6.71774">
        <ele>493</ele>
        <time>2016-02-28T09:27:57.000Z</time>
      </trkpt>
      <trkpt lat="47.42888" lon="6.71767">
        <ele>492</ele>
        <time>2016-02-28T09:27:58.000Z</time>
      </trkpt>
      <trkpt lat="47.42886" lon="6.71761">
        <ele>492</ele>
        <time>2016-02-28T09:27:59.000Z</time>
      </trkpt>
      <trkpt lat="47.42883" lon="6.71754">
        <ele>492</ele>
        <time>2016-02-28T09:28:00.000Z</time>
      </trkpt>
      <trkpt lat="47.4288" lon="6.71748">
        <ele>489</ele>
        <time>2016-02-28T09:28:01.000Z</time>
      </trkpt>
      <trkpt lat="47.42878" lon="6.71742">
        <ele>489</ele>
        <time>2016-02-28T09:28:02.000Z</time>
      </trkpt>
      <trkpt lat="47.42875" lon="6.71735">
        <ele>489</ele>
        <time>2016-02-28T09:28:03.000Z</time>
      </trkpt>
      <trkpt lat="47.42873" lon="6.71729">
        <ele>489</ele>
        <time>2016-02-28T09:28:04.000Z</time>
      </trkpt>
      <trkpt lat="47.4287" lon="6.71723">
        <ele>489</ele>
        <time>2016-02-28T09:28:05.000Z</time>
      </trkpt>
      <trkpt lat="47.42869" lon="6.71717">
        <ele>489</ele>
        <time>2016-02-28T09:28:06.000Z</time>
      </trkpt>
      <trkpt lat="47.42866" lon="6.71712">
        <ele>489</ele>
        <time>2016-02-28T09:28:07.000Z</time>
      </trkpt>
      <trkpt lat="47.42864" lon="6.71705">
        <ele>489</ele>
        <time>2016-02-28T09:28:08.000Z</time>
      </trkpt>
      <trkpt lat="47.42861" lon="6.71699">
        <ele>489</ele>
        <time>2016-02-28T09:28:09.000Z</time>
      </trkpt>
      <trkpt lat="47.42858" lon="6.71693">
        <ele>489</ele>
        <time>2016-02-28T09:28:10.000Z</time>
      </trkpt>
      <trkpt lat="47.42856" lon="6.71687">
        <ele>489</ele>
        <time>2016-02-28T09:28:11.000Z</time>
      </trkpt>
      <trkpt lat="47.42853" lon="6.71681">
        <ele>489</ele>
        <time>2016-02-28T09:28:12.000Z</time>
      </trkpt>
      <trkpt lat="47.4285" lon="6.71676">
        <ele>489</ele>
        <time>2016-02-28T09:28:13.000Z</time>
      </trkpt>
      <trkpt lat="47.42846" lon="6.7167">
        <ele>489</ele>
        <time>2016-02-28T09:28:14.000Z</time>
      </trkpt>
      <trkpt lat="47.42843" lon="6.71664">
        <ele>487</ele>
        <time>2016-02-28T09:28:15.000Z</time>
      </trkpt>
      <trkpt lat="47.42839" lon="6.71659">
        <ele>487</ele>
        <time>2016-02-28T09:28:16.000Z</time>
      </trkpt>
      <trkpt lat="47.42836" lon="6.71653">
        <ele>487</ele>
        <time>2016-02-28T09:28:17.000Z</time>
      </trkpt>
      <trkpt lat="47.42833" lon="6.71647">
        <ele>488</ele>
        <time>2016-02-28T09:28:18.000Z</time>
      </trkpt>
      <trkpt lat="47.4283" lon="6.71642">
        <ele>488</ele>
        <time>2016-02-28T09:28:19.000Z</time>
      </trkpt>
      <trkpt lat="47.42826" lon="6.71637">
        <ele>488</ele>
        <time>2016-02-28T09:28:20.000Z</time>
      </trkpt>
      <trkpt lat="47.42824" lon="6.71632">
        <ele>488</ele>
        <time>2016-02-28T09:28:21.000Z</time>
      </trkpt>
      <trkpt lat="47.42821" lon="6.71628">
        <ele>488</ele>
        <time>2016-02-28T09:28:22.000Z</time>
      </trkpt>
      <trkpt lat="47.42818" lon="6.71624">
        <ele>488</ele>
        <time>2016-02-28T09:28:23.000Z</time>
      </trkpt>
      <trkpt lat="47.42815" lon="6.71621">
        <ele>488</ele>
        <time>2016-02-28T09:28:24.000Z</time>
      </trkpt>
      <trkpt lat="47.42811" lon="6.71617">
        <ele>488</ele>
        <time>2016-02-28T09:28:25.000Z</time>
      </trkpt>
      <trkpt lat="47.42809" lon="6.71614">
        <ele>488</ele>
        <time>2016-02-28T09:28:26.000Z</time>
      </trkpt>
      <trkpt lat="47.42806" lon="6.7161">
        <ele>488</ele>
        <time>2016-02-28T09:28:26.999Z</time>
      </trkpt>
      <trkpt lat="47.42804" lon="6.71608">
        <ele>487</ele>
        <time>2016-02-28T09:28:28.000Z</time>
      </trkpt>
      <trkpt lat="47.42801" lon="6.71604">
        <ele>487</ele>
        <time>2016-02-28T09:28:30.000Z</time>
      </trkpt>
      <trkpt lat="47.428" lon="6.71602">
        <ele>487</ele>
        <time>2016-02-28T09:28:31.000Z</time>
      </trkpt>
      <trkpt lat="47.42798" lon="6.71599">
        <ele>488</ele>
        <time>2016-02-28T09:28:32.000Z</time>
      </trkpt>
      <trkpt lat="47.42796" lon="6.71596">
        <ele>488</ele>
        <time>2016-02-28T09:28:33.000Z</time>
      </trkpt>
      <trkpt lat="47.42791" lon="6.7159">
        <ele>488</ele>
        <time>2016-02-28T09:28:34.000Z</time>
      </trkpt>
      <trkpt lat="47.42787" lon="6.71587">
        <ele>488</ele>
        <time>2016-02-28T09:28:35.000Z</time>
      </trkpt>
      <trkpt lat="47.42783" lon="6.71583">
        <ele>485</ele>
        <time>2016-02-28T09:28:36.000Z</time>
      </trkpt>
      <trkpt lat="47.42779" lon="6.71579">
        <ele>485</ele>
        <time>2016-02-28T09:28:37.000Z</time>
      </trkpt>
      <trkpt lat="47.42776" lon="6.71575">
        <ele>485</ele>
        <time>2016-02-28T09:28:38.000Z</time>
      </trkpt>
      <trkpt lat="47.42773" lon="6.71571">
        <ele>486</ele>
        <time>2016-02-28T09:28:39.000Z</time>
      </trkpt>
      <trkpt lat="47.42769" lon="6.71566">
        <ele>486</ele>
        <time>2016-02-28T09:28:40.000Z</time>
      </trkpt>
      <trkpt lat="47.42766" lon="6.71562">
        <ele>485</ele>
        <time>2016-02-28T09:28:41.000Z</time>
      </trkpt>
      <trkpt lat="47.42763" lon="6.71557">
        <ele>485</ele>
        <time>2016-02-28T09:28:42.000Z</time>
      </trkpt>
      <trkpt lat="47.4276" lon="6.71552">
        <ele>485</ele>
        <time>2016-02-28T09:28:43.000Z</time>
      </trkpt>
      <trkpt lat="47.42758" lon="6.71547">
        <ele>485</ele>
        <time>2016-02-28T09:28:44.000Z</time>
      </trkpt>
      <trkpt lat="47.42755" lon="6.71541">
        <ele>485</ele>
        <time>2016-02-28T09:28:45.000Z</time>
      </trkpt>
      <trkpt lat="47.42753" lon="6.71535">
        <ele>484</ele>
        <time>2016-02-28T09:28:46.001Z</time>
      </trkpt>
      <trkpt lat="47.4275" lon="6.7153">
        <ele>484</ele>
        <time>2016-02-28T09:28:47.000Z</time>
      </trkpt>
      <trkpt lat="47.42748" lon="6.71522">
        <ele>486</ele>
        <time>2016-02-28T09:28:48.000Z</time>
      </trkpt>
      <trkpt lat="47.42745" lon="6.71515">
        <ele>485</ele>
        <time>2016-02-28T09:28:49.000Z</time>
      </trkpt>
      <trkpt lat="47.42742" lon="6.71508">
        <ele>485</ele>
        <time>2016-02-28T09:28:50.000Z</time>
      </trkpt>
      <trkpt lat="47.42739" lon="6.71501">
        <ele>485</ele>
        <time>2016-02-28T09:28:51.000Z</time>
      </trkpt>
      <trkpt lat="47.42736" lon="6.71494">
        <ele>483</ele>
        <time>2016-02-28T09:28:52.000Z</time>
      </trkpt>
      <trkpt lat="47.42733" lon="6.71486">
        <ele>483</ele>
        <time>2016-02-28T09:28:53.000Z</time>
      </trkpt>
      <trkpt lat="47.4273" lon="6.71479">
        <ele>483</ele>
        <time>2016-02-28T09:28:54.000Z</time>
      </trkpt>
      <trkpt lat="47.42727" lon="6.71471">
        <ele>483</ele>
        <time>2016-02-28T09:28:55.000Z</time>
      </trkpt>
      <trkpt lat="47.42724" lon="6.71463">
        <ele>483</ele>
        <time>2016-02-28T09:28:56.000Z</time>
      </trkpt>
      <trkpt lat="47.42721" lon="6.71456">
        <ele>483</ele>
        <time>2016-02-28T09:28:57.000Z</time>
      </trkpt>
      <trkpt lat="47.42718" lon="6.71448">
        <ele>482</ele>
        <time>2016-02-28T09:28:58.000Z</time>
      </trkpt>
      <trkpt lat="47.42714" lon="6.7144">
        <ele>482</ele>
        <time>2016-02-28T09:28:59.000Z</time>
      </trkpt>
      <trkpt lat="47.42711" lon="6.71432">
        <ele>482</ele>
        <time>2016-02-28T09:29:00.000Z</time>
      </trkpt>
      <trkpt lat="47.42708" lon="6.71423">
        <ele>482</ele>
        <time>2016-02-28T09:29:01.000Z</time>
      </trkpt>
      <trkpt lat="47.42706" lon="6.71415">
        <ele>479</ele>
        <time>2016-02-28T09:29:02.000Z</time>
      </trkpt>
      <trkpt lat="47.42702" lon="6.71407">
        <ele>479</ele>
        <time>2016-02-28T09:29:03.000Z</time>
      </trkpt>
      <trkpt lat="47.427" lon="6.71398">
        <ele>479</ele>
        <time>2016-02-28T09:29:04.000Z</time>
      </trkpt>
      <trkpt lat="47.42697" lon="6.7139">
        <ele>479</ele>
        <time>2016-02-28T09:29:05.000Z</time>
      </trkpt>
      <trkpt lat="47.42694" lon="6.71381">
        <ele>479</ele>
        <time>2016-02-28T09:29:06.000Z</time>
      </trkpt>
      <trkpt lat="47.4269" lon="6.71372">
        <ele>479</ele>
        <time>2016-02-28T09:29:07.000Z</time>
      </trkpt>
      <trkpt lat="47.42687" lon="6.71363">
        <ele>479</ele>
        <time>2016-02-28T09:29:08.000Z</time>
      </trkpt>
      <trkpt lat="47.42684" lon="6.71354">
        <ele>479</ele>
        <time>2016-02-28T09:29:09.000Z</time>
      </trkpt>
      <trkpt lat="47.4268" lon="6.71346">
        <ele>479</ele>
        <time>2016-02-28T09:29:10.000Z</time>
      </trkpt>
      <trkpt lat="47.42677" lon="6.71338">
        <ele>479</ele>
        <time>2016-02-28T09:29:11.000Z</time>
      </trkpt>
      <trkpt lat="47.42674" lon="6.71329">
        <ele>477</ele>
        <time>2016-02-28T09:29:12.000Z</time>
      </trkpt>
      <trkpt lat="47.42671" lon="6.7132">
        <ele>477</ele>
        <time>2016-02-28T09:29:13.000Z</time>
      </trkpt>
      <trkpt lat="47.4267" lon="6.71312">
        <ele>476</ele>
        <time>2016-02-28T09:29:14.000Z</time>
      </trkpt>
      <trkpt lat="47.42668" lon="6.71305">
        <ele>476</ele>
        <time>2016-02-28T09:29:15.000Z</time>
      </trkpt>
      <trkpt lat="47.42666" lon="6.71297">
        <ele>478</ele>
        <time>2016-02-28T09:29:16.000Z</time>
      </trkpt>
      <trkpt lat="47.42663" lon="6.71291">
        <ele>477</ele>
        <time>2016-02-28T09:29:17.000Z</time>
      </trkpt>
      <trkpt lat="47.42662" lon="6.71286">
        <ele>477</ele>
        <time>2016-02-28T09:29:18.000Z</time>
      </trkpt>
      <trkpt lat="47.4266" lon="6.71281">
        <ele>477</ele>
        <time>2016-02-28T09:29:19.000Z</time>
      </trkpt>
      <trkpt lat="47.42658" lon="6.71277">
        <ele>477</ele>
        <time>2016-02-28T09:29:20.000Z</time>
      </trkpt>
      <trkpt lat="47.42657" lon="6.71272">
        <ele>477</ele>
        <time>2016-02-28T09:29:21.000Z</time>
      </trkpt>
      <trkpt lat="47.42656" lon="6.71269">
        <ele>476</ele>
        <time>2016-02-28T09:29:22.000Z</time>
      </trkpt>
      <trkpt lat="47.42654" lon="6.71266">
        <ele>476</ele>
        <time>2016-02-28T09:29:23.000Z</time>
      </trkpt>
      <trkpt lat="47.42651" lon="6.71264">
        <ele>476</ele>
        <time>2016-02-28T09:29:24.000Z</time>
      </trkpt>
      <trkpt lat="47.42647" lon="6.71264">
        <ele>477</ele>
        <time>2016-02-28T09:29:25.000Z</time>
      </trkpt>
      <trkpt lat="47.42645" lon="6.71265">
        <ele>477</ele>
        <time>2016-02-28T09:29:26.000Z</time>
      </trkpt>
      <trkpt lat="47.42642" lon="6.71265">
        <ele>477</ele>
        <time>2016-02-28T09:29:27.000Z</time>
      </trkpt>
      <trkpt lat="47.4264" lon="6.71266">
        <ele>477</ele>
        <time>2016-02-28T09:29:28.000Z</time>
      </trkpt>
      <trkpt lat="47.42638" lon="6.71269">
        <ele>477</ele>
        <time>2016-02-28T09:29:29.000Z</time>
      </trkpt>
      <trkpt lat="47.42635" lon="6.71272">
        <ele>477</ele>
        <time>2016-02-28T09:29:30.000Z</time>
      </trkpt>
      <trkpt lat="47.42633" lon="6.71276">
        <ele>477</ele>
        <time>2016-02-28T09:29:31.000Z</time>
      </trkpt>
      <trkpt lat="47.4263" lon="6.71279">
        <ele>478</ele>
        <time>2016-02-28T09:29:32.000Z</time>
      </trkpt>
      <trkpt lat="47.42628" lon="6.71282">
        <ele>478</ele>
        <time>2016-02-28T09:29:33.000Z</time>
      </trkpt>
      <trkpt lat="47.42625" lon="6.71284">
        <ele>478</ele>
        <time>2016-02-28T09:29:34.000Z</time>
      </trkpt>
      <trkpt lat="47.42624" lon="6.71287">
        <ele>478</ele>
        <time>2016-02-28T09:29:35.000Z</time>
      </trkpt>
      <trkpt lat="47.42621" lon="6.71291">
        <ele>478</ele>
        <time>2016-02-28T09:29:37.000Z</time>
      </trkpt>
      <trkpt lat="47.42619" lon="6.71294">
        <ele>478</ele>
        <time>2016-02-28T09:29:38.000Z</time>
      </trkpt>
      <trkpt lat="47.42617" lon="6.71296">
        <ele>478</ele>
        <time>2016-02-28T09:29:39.000Z</time>
      </trkpt>
      <trkpt lat="47.42615" lon="6.71298">
        <ele>478</ele>
        <time>2016-02-28T09:29:40.000Z</time>
      </trkpt>
      <trkpt lat="47.42613" lon="6.71301">
        <ele>478</ele>
        <time>2016-02-28T09:29:41.000Z</time>
      </trkpt>
      <trkpt lat="47.42611" lon="6.71303">
        <ele>479</ele>
        <time>2016-02-28T09:29:42.000Z</time>
      </trkpt>
      <trkpt lat="47.42609" lon="6.71304">
        <ele>479</ele>
        <time>2016-02-28T09:29:43.000Z</time>
      </trkpt>
      <trkpt lat="47.42607" lon="6.71306">
        <ele>479</ele>
        <time>2016-02-28T09:29:44.000Z</time>
      </trkpt>
      <trkpt lat="47.42604" lon="6.71307">
        <ele>479</ele>
        <time>2016-02-28T09:29:45.000Z</time>
      </trkpt>
      <trkpt lat="47.42601" lon="6.71309">
        <ele>479</ele>
        <time>2016-02-28T09:29:46.000Z</time>
      </trkpt>
      <trkpt lat="47.42599" lon="6.7131">
        <ele>479</ele>
        <time>2016-02-28T09:29:47.000Z</time>
      </trkpt>
      <trkpt lat="47.42596" lon="6.71311">
        <ele>479</ele>
        <time>2016-02-28T09:29:48.000Z</time>
      </trkpt>
      <trkpt lat="47.42593" lon="6.71312">
        <ele>479</ele>
        <time>2016-02-28T09:29:49.000Z</time>
      </trkpt>
      <trkpt lat="47.42591" lon="6.71313">
        <ele>479</ele>
        <time>2016-02-28T09:29:50.000Z</time>
      </trkpt>
      <trkpt lat="47.42588" lon="6.71314">
        <ele>479</ele>
        <time>2016-02-28T09:29:51.000Z</time>
      </trkpt>
      <trkpt lat="47.42585" lon="6.71315">
        <ele>479</ele>
        <time>2016-02-28T09:29:52.000Z</time>
      </trkpt>
      <trkpt lat="47.42582" lon="6.71317">
        <ele>480</ele>
        <time>2016-02-28T09:29:53.000Z</time>
      </trkpt>
      <trkpt lat="47.42578" lon="6.71318">
        <ele>480</ele>
        <time>2016-02-28T09:29:54.000Z</time>
      </trkpt>
      <trkpt lat="47.42575" lon="6.7132">
        <ele>480</ele>
        <time>2016-02-28T09:29:55.000Z</time>
      </trkpt>
      <trkpt lat="47.42572" lon="6.71321">
        <ele>480</ele>
        <time>2016-02-28T09:29:56.000Z</time>
      </trkpt>
      <trkpt lat="47.42569" lon="6.71323">
        <ele>480</ele>
        <time>2016-02-28T09:29:57.000Z</time>
      </trkpt>
      <trkpt lat="47.42566" lon="6.71325">
        <ele>480</ele>
        <time>2016-02-28T09:29:58.000Z</time>
      </trkpt>
      <trkpt lat="47.42563" lon="6.71326">
        <ele>480</ele>
        <time>2016-02-28T09:29:59.000Z</time>
      </trkpt>
      <trkpt lat="47.4256" lon="6.71328">
        <ele>480</ele>
        <time>2016-02-28T09:30:00.000Z</time>
      </trkpt>
      <trkpt lat="47.42557" lon="6.71329">
        <ele>480</ele>
        <time>2016-02-28T09:30:01.000Z</time>
      </trkpt>
      <trkpt lat="47.42554" lon="6.71331">
        <ele>480</ele>
        <time>2016-02-28T09:30:02.000Z</time>
      </trkpt>
      <trkpt lat="47.42552" lon="6.71332">
        <ele>480</ele>
        <time>2016-02-28T09:30:03.000Z</time>
      </trkpt>
      <trkpt lat="47.42549" lon="6.71333">
        <ele>480</ele>
        <time>2016-02-28T09:30:04.000Z</time>
      </trkpt>
      <trkpt lat="47.42546" lon="6.71334">
        <ele>483</ele>
        <time>2016-02-28T09:30:05.000Z</time>
      </trkpt>
      <trkpt lat="47.42543" lon="6.71335">
        <ele>483</ele>
        <time>2016-02-28T09:30:06.000Z</time>
      </trkpt>
      <trkpt lat="47.4254" lon="6.71337">
        <ele>483</ele>
        <time>2016-02-28T09:30:07.000Z</time>
      </trkpt>
      <trkpt lat="47.42537" lon="6.71338">
        <ele>483</ele>
        <time>2016-02-28T09:30:08.000Z</time>
      </trkpt>
      <trkpt lat="47.42534" lon="6.71339">
        <ele>483</ele>
        <time>2016-02-28T09:30:09.000Z</time>
      </trkpt>
      <trkpt lat="47.42531" lon="6.71341">
        <ele>483</ele>
        <time>2016-02-28T09:30:10.000Z</time>
      </trkpt>
      <trkpt lat="47.42528" lon="6.71342">
        <ele>483</ele>
        <time>2016-02-28T09:30:11.000Z</time>
      </trkpt>
      <trkpt lat="47.42525" lon="6.71344">
        <ele>483</ele>
        <time>2016-02-28T09:30:12.000Z</time>
      </trkpt>
      <trkpt lat="47.42522" lon="6.71345">
        <ele>483</ele>
        <time>2016-02-28T09:30:13.000Z</time>
      </trkpt>
      <trkpt lat="47.42519" lon="6.71347">
        <ele>483</ele>
        <time>2016-02-28T09:30:14.000Z</time>
      </trkpt>
      <trkpt lat="47.42516" lon="6.71348">
        <ele>483</ele>
        <time>2016-02-28T09:30:15.000Z</time>
      </trkpt>
      <trkpt lat="47.42514" lon="6.71349">
        <ele>483</ele>
        <time>2016-02-28T09:30:16.000Z</time>
      </trkpt>
      <trkpt lat="47.42511" lon="6.71351">
        <ele>483</ele>
        <time>2016-02-28T09:30:17.000Z</time>
      </trkpt>
      <trkpt lat="47.42509" lon="6.71352">
        <ele>483</ele>
        <time>2016-02-28T09:30:18.000Z</time>
      </trkpt>
      <trkpt lat="47.42506" lon="6.71353">
        <ele>483</ele>
        <time>2016-02-28T09:30:19.000Z</time>
      </trkpt>
      <trkpt lat="47.42504" lon="6.71354">
        <ele>483</ele>
        <time>2016-02-28T09:30:20.000Z</time>
      </trkpt>
      <trkpt lat="47.42501" lon="6.71355">
        <ele>483</ele>
        <time>2016-02-28T09:30:21.000Z</time>
      </trkpt>
      <trkpt lat="47.42499" lon="6.71356">
        <ele>482</ele>
        <time>2016-02-28T09:30:22.000Z</time>
      </trkpt>
      <trkpt lat="47.42495" lon="6.71357">
        <ele>482</ele>
        <time>2016-02-28T09:30:24.000Z</time>
      </trkpt>
      <trkpt lat="47.42493" lon="6.71358">
        <ele>482</ele>
        <time>2016-02-28T09:30:25.000Z</time>
      </trkpt>
      <trkpt lat="47.42489" lon="6.71358">
        <ele>482</ele>
        <time>2016-02-28T09:30:29.000Z</time>
      </trkpt>
      <trkpt lat="47.42488" lon="6.71358">
        <ele>482</ele>
        <time>2016-02-28T09:30:30.000Z</time>
      </trkpt>
      <trkpt lat="47.42492" lon="6.71361">
        <ele>482</ele>
        <time>2016-02-28T09:33:04.000Z</time>
      </trkpt>
      <trkpt lat="47.42492" lon="6.71361">
        <ele>482</ele>
        <time>2016-02-28T09:33:05.000Z</time>
      </trkpt>
      <trkpt lat="47.42497" lon="6.71361">
        <ele>482</ele>
        <time>2016-02-28T09:35:00.000Z</time>
      </trkpt>
      <trkpt lat="47.42497" lon="6.71361">
        <ele>482</ele>
        <time>2016-02-28T09:35:01.000Z</time>
      </trkpt>
      <trkpt lat="47.42492" lon="6.71362">
        <ele>482</ele>
        <time>2016-02-28T09:36:40.000Z</time>
      </trkpt>
      <trkpt lat="47.42492" lon="6.7136">
        <ele>482</ele>
        <time>2016-02-28T09:36:41.000Z</time>
      </trkpt>
      <trkpt lat="47.42491" lon="6.71354">
        <ele>482</ele>
        <time>2016-02-28T09:36:43.000Z</time>
      </trkpt>
      <trkpt lat="47.42491" lon="6.71349">
        <ele>482</ele>
        <time>2016-02-28T09:36:44.000Z</time>
      </trkpt>
      <trkpt lat="47.4249" lon="6.71336">
        <ele>482</ele>
        <time>2016-02-28T09:36:45.000Z</time>
      </trkpt>
      <trkpt lat="47.42489" lon="6.71328">
        <ele>480</ele>
        <time>2016-02-28T09:36:46.000Z</time>
      </trkpt>
      <trkpt lat="47.42489" lon="6.71321">
        <ele>480</ele>
        <time>2016-02-28T09:36:47.000Z</time>
      </trkpt>
      <trkpt lat="47.42488" lon="6.71311">
        <ele>479</ele>
        <time>2016-02-28T09:36:48.000Z</time>
      </trkpt>
      <trkpt lat="47.42487" lon="6.713">
        <ele>478</ele>
        <time>2016-02-28T09:36:49.000Z</time>
      </trkpt>
      <trkpt lat="47.42487" lon="6.71289">
        <ele>477</ele>
        <time>2016-02-28T09:36:50.000Z</time>
      </trkpt>
      <trkpt lat="47.42487" lon="6.71277">
        <ele>477</ele>
        <time>2016-02-28T09:36:51.000Z</time>
      </trkpt>
      <trkpt lat="47.42486" lon="6.71265">
        <ele>477</ele>
        <time>2016-02-28T09:36:52.000Z</time>
      </trkpt>
      <trkpt lat="47.42486" lon="6.71253">
        <ele>477</ele>
        <time>2016-02-28T09:36:53.001Z</time>
      </trkpt>
      <trkpt lat="47.42487" lon="6.71239">
        <ele>473</ele>
        <time>2016-02-28T09:36:54.000Z</time>
      </trkpt>
      <trkpt lat="47.42486" lon="6.71225">
        <ele>471</ele>
        <time>2016-02-28T09:36:55.000Z</time>
      </trkpt>
      <trkpt lat="47.42485" lon="6.7121">
        <ele>470</ele>
        <time>2016-02-28T09:36:56.000Z</time>
      </trkpt>
      <trkpt lat="47.42484" lon="6.71196">
        <ele>469</ele>
        <time>2016-02-28T09:36:57.000Z</time>
      </trkpt>
      <trkpt lat="47.42483" lon="6.71168">
        <ele>469</ele>
        <time>2016-02-28T09:36:59.001Z</time>
      </trkpt>
      <trkpt lat="47.42481" lon="6.71157">
        <ele>464</ele>
        <time>2016-02-28T09:37:00.000Z</time>
      </trkpt>
      <trkpt lat="47.42481" lon="6.71151">
        <ele>463</ele>
        <time>2016-02-28T09:37:01.000Z</time>
      </trkpt>
      <trkpt lat="47.42482" lon="6.71143">
        <ele>463</ele>
        <time>2016-02-28T09:37:02.000Z</time>
      </trkpt>
      <trkpt lat="47.42482" lon="6.71138">
        <ele>462</ele>
        <time>2016-02-28T09:37:03.000Z</time>
      </trkpt>
      <trkpt lat="47.42477" lon="6.71135">
        <ele>462</ele>
        <time>2016-02-28T09:37:04.000Z</time>
      </trkpt>
      <trkpt lat="47.42476" lon="6.71131">
        <ele>461</ele>
        <time>2016-02-28T09:37:05.000Z</time>
      </trkpt>
      <trkpt lat="47.42476" lon="6.71122">
        <ele>461</ele>
        <time>2016-02-28T09:37:06.000Z</time>
      </trkpt>
      <trkpt lat="47.42476" lon="6.71116">
        <ele>461</ele>
        <time>2016-02-28T09:37:07.000Z</time>
      </trkpt>
      <trkpt lat="47.42475" lon="6.71111">
        <ele>460</ele>
        <time>2016-02-28T09:37:08.000Z</time>
      </trkpt>
      <trkpt lat="47.42473" lon="6.71104">
        <ele>460</ele>
        <time>2016-02-28T09:37:09.000Z</time>
      </trkpt>
      <trkpt lat="47.42471" lon="6.71097">
        <ele>460</ele>
        <time>2016-02-28T09:37:10.000Z</time>
      </trkpt>
      <trkpt lat="47.42469" lon="6.7109">
        <ele>460</ele>
        <time>2016-02-28T09:37:11.000Z</time>
      </trkpt>
      <trkpt lat="47.42467" lon="6.7108">
        <ele>456</ele>
        <time>2016-02-28T09:37:12.000Z</time>
      </trkpt>
      <trkpt lat="47.42464" lon="6.71071">
        <ele>455</ele>
        <time>2016-02-28T09:37:13.000Z</time>
      </trkpt>
      <trkpt lat="47.42461" lon="6.7106">
        <ele>455</ele>
        <time>2016-02-28T09:37:14.000Z</time>
      </trkpt>
      <trkpt lat="47.42458" lon="6.71049">
        <ele>454</ele>
        <time>2016-02-28T09:37:15.000Z</time>
      </trkpt>
      <trkpt lat="47.42454" lon="6.71039">
        <ele>454</ele>
        <time>2016-02-28T09:37:16.000Z</time>
      </trkpt>
      <trkpt lat="47.4245" lon="6.71028">
        <ele>453</ele>
        <time>2016-02-28T09:37:17.000Z</time>
      </trkpt>
      <trkpt lat="47.42446" lon="6.71019">
        <ele>452</ele>
        <time>2016-02-28T09:37:18.000Z</time>
      </trkpt>
      <trkpt lat="47.4244" lon="6.71011">
        <ele>451</ele>
        <time>2016-02-28T09:37:19.000Z</time>
      </trkpt>
      <trkpt lat="47.42434" lon="6.71">
        <ele>450</ele>
        <time>2016-02-28T09:37:20.000Z</time>
      </trkpt>
      <trkpt lat="47.42427" lon="6.70992">
        <ele>449</ele>
        <time>2016-02-28T09:37:21.000Z</time>
      </trkpt>
      <trkpt lat="47.42421" lon="6.70986">
        <ele>449</ele>
        <time>2016-02-28T09:37:22.000Z</time>
      </trkpt>
      <trkpt lat="47.42414" lon="6.70979">
        <ele>440</ele>
        <time>2016-02-28T09:37:23.000Z</time>
      </trkpt>
      <trkpt lat="47.42406" lon="6.70971">
        <ele>439</ele>
        <time>2016-02-28T09:37:24.000Z</time>
      </trkpt>
      <trkpt lat="47.424" lon="6.70962">
        <ele>438</ele>
        <time>2016-02-28T09:37:25.000Z</time>
      </trkpt>
      <trkpt lat="47.42394" lon="6.70946">
        <ele>437</ele>
        <time>2016-02-28T09:37:26.000Z</time>
      </trkpt>
      <trkpt lat="47.42388" lon="6.70935">
        <ele>437</ele>
        <time>2016-02-28T09:37:27.000Z</time>
      </trkpt>
      <trkpt lat="47.42385" lon="6.70921">
        <ele>437</ele>
        <time>2016-02-28T09:37:28.000Z</time>
      </trkpt>
      <trkpt lat="47.4238" lon="6.70909">
        <ele>436</ele>
        <time>2016-02-28T09:37:29.000Z</time>
      </trkpt>
      <trkpt lat="47.42376" lon="6.70898">
        <ele>435</ele>
        <time>2016-02-28T09:37:30.000Z</time>
      </trkpt>
      <trkpt lat="47.42373" lon="6.70886">
        <ele>435</ele>
        <time>2016-02-28T09:37:31.000Z</time>
      </trkpt>
      <trkpt lat="47.42371" lon="6.70873">
        <ele>435</ele>
        <time>2016-02-28T09:37:32.000Z</time>
      </trkpt>
      <trkpt lat="47.42366" lon="6.70862">
        <ele>434</ele>
        <time>2016-02-28T09:37:33.000Z</time>
      </trkpt>
      <trkpt lat="47.42363" lon="6.70851">
        <ele>433</ele>
        <time>2016-02-28T09:37:34.000Z</time>
      </trkpt>
      <trkpt lat="47.42358" lon="6.7084">
        <ele>431</ele>
        <time>2016-02-28T09:37:35.000Z</time>
      </trkpt>
      <trkpt lat="47.42353" lon="6.70829">
        <ele>432</ele>
        <time>2016-02-28T09:37:36.000Z</time>
      </trkpt>
      <trkpt lat="47.42347" lon="6.70819">
        <ele>432</ele>
        <time>2016-02-28T09:37:37.000Z</time>
      </trkpt>
      <trkpt lat="47.42342" lon="6.70808">
        <ele>433</ele>
        <time>2016-02-28T09:37:38.000Z</time>
      </trkpt>
      <trkpt lat="47.42337" lon="6.70797">
        <ele>434</ele>
        <time>2016-02-28T09:37:39.000Z</time>
      </trkpt>
      <trkpt lat="47.42332" lon="6.70787">
        <ele>421</ele>
        <time>2016-02-28T09:37:40.000Z</time>
      </trkpt>
      <trkpt lat="47.42325" lon="6.70776">
        <ele>422</ele>
        <time>2016-02-28T09:37:41.000Z</time>
      </trkpt>
      <trkpt lat="47.4232" lon="6.70766">
        <ele>423</ele>
        <time>2016-02-28T09:37:42.000Z</time>
      </trkpt>
      <trkpt lat="47.42313" lon="6.70756">
        <ele>423</ele>
        <time>2016-02-28T09:37:43.000Z</time>
      </trkpt>
      <trkpt lat="47.42307" lon="6.70745">
        <ele>424</ele>
        <time>2016-02-28T09:37:44.000Z</time>
      </trkpt>
      <trkpt lat="47.423" lon="6.70733">
        <ele>423</ele>
        <time>2016-02-28T09:37:45.000Z</time>
      </trkpt>
      <trkpt lat="47.42296" lon="6.70722">
        <ele>422</ele>
        <time>2016-02-28T09:37:46.000Z</time>
      </trkpt>
      <trkpt lat="47.42292" lon="6.70714">
        <ele>422</ele>
        <time>2016-02-28T09:37:47.000Z</time>
      </trkpt>
      <trkpt lat="47.42288" lon="6.70708">
        <ele>421</ele>
        <time>2016-02-28T09:37:48.000Z</time>
      </trkpt>
      <trkpt lat="47.42286" lon="6.70702">
        <ele>421</ele>
        <time>2016-02-28T09:37:49.000Z</time>
      </trkpt>
      <trkpt lat="47.42282" lon="6.70696">
        <ele>420</ele>
        <time>2016-02-28T09:37:50.000Z</time>
      </trkpt>
      <trkpt lat="47.42279" lon="6.7069">
        <ele>420</ele>
        <time>2016-02-28T09:37:51.000Z</time>
      </trkpt>
      <trkpt lat="47.42277" lon="6.70684">
        <ele>419</ele>
        <time>2016-02-28T09:37:52.000Z</time>
      </trkpt>
      <trkpt lat="47.42275" lon="6.70679">
        <ele>419</ele>
        <time>2016-02-28T09:37:53.000Z</time>
      </trkpt>
      <trkpt lat="47.42273" lon="6.70673">
        <ele>418</ele>
        <time>2016-02-28T09:37:54.000Z</time>
      </trkpt>
      <trkpt lat="47.42271" lon="6.70669">
        <ele>417</ele>
        <time>2016-02-28T09:37:55.000Z</time>
      </trkpt>
      <trkpt lat="47.42269" lon="6.70664">
        <ele>419</ele>
        <time>2016-02-28T09:37:56.000Z</time>
      </trkpt>
      <trkpt lat="47.42266" lon="6.70659">
        <ele>419</ele>
        <time>2016-02-28T09:37:57.000Z</time>
      </trkpt>
      <trkpt lat="47.42264" lon="6.70654">
        <ele>419</ele>
        <time>2016-02-28T09:37:58.000Z</time>
      </trkpt>
      <trkpt lat="47.42262" lon="6.70648">
        <ele>420</ele>
        <time>2016-02-28T09:37:59.000Z</time>
      </trkpt>
      <trkpt lat="47.42259" lon="6.70642">
        <ele>420</ele>
        <time>2016-02-28T09:38:00.000Z</time>
      </trkpt>
      <trkpt lat="47.42256" lon="6.70637">
        <ele>421</ele>
        <time>2016-02-28T09:38:01.000Z</time>
      </trkpt>
      <trkpt lat="47.42256" lon="6.70629">
        <ele>422</ele>
        <time>2016-02-28T09:38:02.000Z</time>
      </trkpt>
      <trkpt lat="47.42253" lon="6.70621">
        <ele>422</ele>
        <time>2016-02-28T09:38:03.000Z</time>
      </trkpt>
      <trkpt lat="47.4225" lon="6.70612">
        <ele>408</ele>
        <time>2016-02-28T09:38:04.000Z</time>
      </trkpt>
      <trkpt lat="47.42247" lon="6.70603">
        <ele>409</ele>
        <time>2016-02-28T09:38:05.000Z</time>
      </trkpt>
      <trkpt lat="47.42244" lon="6.70594">
        <ele>411</ele>
        <time>2016-02-28T09:38:06.000Z</time>
      </trkpt>
      <trkpt lat="47.42242" lon="6.70584">
        <ele>412</ele>
        <time>2016-02-28T09:38:07.000Z</time>
      </trkpt>
      <trkpt lat="47.4224" lon="6.70574">
        <ele>411</ele>
        <time>2016-02-28T09:38:08.000Z</time>
      </trkpt>
      <trkpt lat="47.42238" lon="6.70563">
        <ele>409</ele>
        <time>2016-02-28T09:38:09.000Z</time>
      </trkpt>
      <trkpt lat="47.42236" lon="6.70552">
        <ele>408</ele>
        <time>2016-02-28T09:38:10.000Z</time>
      </trkpt>
      <trkpt lat="47.42234" lon="6.70541">
        <ele>408</ele>
        <time>2016-02-28T09:38:11.000Z</time>
      </trkpt>
      <trkpt lat="47.42233" lon="6.70529">
        <ele>408</ele>
        <time>2016-02-28T09:38:12.000Z</time>
      </trkpt>
      <trkpt lat="47.42233" lon="6.70519">
        <ele>409</ele>
        <time>2016-02-28T09:38:13.000Z</time>
      </trkpt>
      <trkpt lat="47.42232" lon="6.70508">
        <ele>410</ele>
        <time>2016-02-28T09:38:14.000Z</time>
      </trkpt>
      <trkpt lat="47.42233" lon="6.70497">
        <ele>410</ele>
        <time>2016-02-28T09:38:15.000Z</time>
      </trkpt>
      <trkpt lat="47.42232" lon="6.70486">
        <ele>409</ele>
        <time>2016-02-28T09:38:16.000Z</time>
      </trkpt>
      <trkpt lat="47.42232" lon="6.70476">
        <ele>408</ele>
        <time>2016-02-28T09:38:17.000Z</time>
      </trkpt>
      <trkpt lat="47.42231" lon="6.70466">
        <ele>407</ele>
        <time>2016-02-28T09:38:18.000Z</time>
      </trkpt>
      <trkpt lat="47.4223" lon="6.70456">
        <ele>406</ele>
        <time>2016-02-28T09:38:19.000Z</time>
      </trkpt>
      <trkpt lat="47.42229" lon="6.70446">
        <ele>406</ele>
        <time>2016-02-28T09:38:20.000Z</time>
      </trkpt>
      <trkpt lat="47.42228" lon="6.70436">
        <ele>407</ele>
        <time>2016-02-28T09:38:21.000Z</time>
      </trkpt>
      <trkpt lat="47.42227" lon="6.70425">
        <ele>407</ele>
        <time>2016-02-28T09:38:22.000Z</time>
      </trkpt>
      <trkpt lat="47.42224" lon="6.70414">
        <ele>405</ele>
        <time>2016-02-28T09:38:23.000Z</time>
      </trkpt>
      <trkpt lat="47.42224" lon="6.70404">
        <ele>404</ele>
        <time>2016-02-28T09:38:24.000Z</time>
      </trkpt>
      <trkpt lat="47.42223" lon="6.70393">
        <ele>403</ele>
        <time>2016-02-28T09:38:25.000Z</time>
      </trkpt>
      <trkpt lat="47.42222" lon="6.70382">
        <ele>402</ele>
        <time>2016-02-28T09:38:26.000Z</time>
      </trkpt>
      <trkpt lat="47.42221" lon="6.70371">
        <ele>402</ele>
        <time>2016-02-28T09:38:27.000Z</time>
      </trkpt>
      <trkpt lat="47.4222" lon="6.7036">
        <ele>401</ele>
        <time>2016-02-28T09:38:28.000Z</time>
      </trkpt>
      <trkpt lat="47.42219" lon="6.70349">
        <ele>401</ele>
        <time>2016-02-28T09:38:29.000Z</time>
      </trkpt>
      <trkpt lat="47.42219" lon="6.70338">
        <ele>401</ele>
        <time>2016-02-28T09:38:30.000Z</time>
      </trkpt>
      <trkpt lat="47.4222" lon="6.70326">
        <ele>399</ele>
        <time>2016-02-28T09:38:31.000Z</time>
      </trkpt>
      <trkpt lat="47.42221" lon="6.70315">
        <ele>399</ele>
        <time>2016-02-28T09:38:32.000Z</time>
      </trkpt>
      <trkpt lat="47.42222" lon="6.70304">
        <ele>398</ele>
        <time>2016-02-28T09:38:33.000Z</time>
      </trkpt>
      <trkpt lat="47.42223" lon="6.70293">
        <ele>398</ele>
        <time>2016-02-28T09:38:34.000Z</time>
      </trkpt>
      <trkpt lat="47.42224" lon="6.70281">
        <ele>398</ele>
        <time>2016-02-28T09:38:35.000Z</time>
      </trkpt>
      <trkpt lat="47.42225" lon="6.7027">
        <ele>398</ele>
        <time>2016-02-28T09:38:36.000Z</time>
      </trkpt>
      <trkpt lat="47.42225" lon="6.70258">
        <ele>399</ele>
        <time>2016-02-28T09:38:37.000Z</time>
      </trkpt>
      <trkpt lat="47.42225" lon="6.70244">
        <ele>396</ele>
        <time>2016-02-28T09:38:38.000Z</time>
      </trkpt>
      <trkpt lat="47.42226" lon="6.70231">
        <ele>395</ele>
        <time>2016-02-28T09:38:39.000Z</time>
      </trkpt>
      <trkpt lat="47.42227" lon="6.70218">
        <ele>394</ele>
        <time>2016-02-28T09:38:40.000Z</time>
      </trkpt>
      <trkpt lat="47.42228" lon="6.70204">
        <ele>393</ele>
        <time>2016-02-28T09:38:41.000Z</time>
      </trkpt>
      <trkpt lat="47.42229" lon="6.70192">
        <ele>393</ele>
        <time>2016-02-28T09:38:42.000Z</time>
      </trkpt>
      <trkpt lat="47.4223" lon="6.7018">
        <ele>393</ele>
        <time>2016-02-28T09:38:43.000Z</time>
      </trkpt>
      <trkpt lat="47.42232" lon="6.70167">
        <ele>393</ele>
        <time>2016-02-28T09:38:44.000Z</time>
      </trkpt>
      <trkpt lat="47.42234" lon="6.70154">
        <ele>388</ele>
        <time>2016-02-28T09:38:45.000Z</time>
      </trkpt>
      <trkpt lat="47.42236" lon="6.70143">
        <ele>387</ele>
        <time>2016-02-28T09:38:46.000Z</time>
      </trkpt>
      <trkpt lat="47.42238" lon="6.70133">
        <ele>386</ele>
        <time>2016-02-28T09:38:47.000Z</time>
      </trkpt>
      <trkpt lat="47.42241" lon="6.70121">
        <ele>384</ele>
        <time>2016-02-28T09:38:48.000Z</time>
      </trkpt>
      <trkpt lat="47.42242" lon="6.70109">
        <ele>383</ele>
        <time>2016-02-28T09:38:49.000Z</time>
      </trkpt>
      <trkpt lat="47.42244" lon="6.70098">
        <ele>383</ele>
        <time>2016-02-28T09:38:50.000Z</time>
      </trkpt>
      <trkpt lat="47.42247" lon="6.70087">
        <ele>382</ele>
        <time>2016-02-28T09:38:51.000Z</time>
      </trkpt>
      <trkpt lat="47.42249" lon="6.70077">
        <ele>380</ele>
        <time>2016-02-28T09:38:52.000Z</time>
      </trkpt>
      <trkpt lat="47.42251" lon="6.70067">
        <ele>381</ele>
        <time>2016-02-28T09:38:53.000Z</time>
      </trkpt>
      <trkpt lat="47.42254" lon="6.70058">
        <ele>380</ele>
        <time>2016-02-28T09:38:54.000Z</time>
      </trkpt>
      <trkpt lat="47.42258" lon="6.70049">
        <ele>379</ele>
        <time>2016-02-28T09:38:55.000Z</time>
      </trkpt>
      <trkpt lat="47.42259" lon="6.7004">
        <ele>379</ele>
        <time>2016-02-28T09:38:56.000Z</time>
      </trkpt>
      <trkpt lat="47.4226" lon="6.7003">
        <ele>378</ele>
        <time>2016-02-28T09:38:57.000Z</time>
      </trkpt>
      <trkpt lat="47.4226" lon="6.70019">
        <ele>376</ele>
        <time>2016-02-28T09:38:58.000Z</time>
      </trkpt>
      <trkpt lat="47.4226" lon="6.70008">
        <ele>375</ele>
        <time>2016-02-28T09:38:59.000Z</time>
      </trkpt>
      <trkpt lat="47.4226" lon="6.69997">
        <ele>372</ele>
        <time>2016-02-28T09:39:00.000Z</time>
      </trkpt>
      <trkpt lat="47.4226" lon="6.69985">
        <ele>372</ele>
        <time>2016-02-28T09:39:01.000Z</time>
      </trkpt>
      <trkpt lat="47.42259" lon="6.69974">
        <ele>372</ele>
        <time>2016-02-28T09:39:02.000Z</time>
      </trkpt>
      <trkpt lat="47.42259" lon="6.6996">
        <ele>371</ele>
        <time>2016-02-28T09:39:03.000Z</time>
      </trkpt>
      <trkpt lat="47.42258" lon="6.69947">
        <ele>371</ele>
        <time>2016-02-28T09:39:04.000Z</time>
      </trkpt>
      <trkpt lat="47.42257" lon="6.69935">
        <ele>370</ele>
        <time>2016-02-28T09:39:05.000Z</time>
      </trkpt>
      <trkpt lat="47.42256" lon="6.69922">
        <ele>369</ele>
        <time>2016-02-28T09:39:06.000Z</time>
      </trkpt>
      <trkpt lat="47.42255" lon="6.6991">
        <ele>369</ele>
        <time>2016-02-28T09:39:07.000Z</time>
      </trkpt>
      <trkpt lat="47.42253" lon="6.69898">
        <ele>369</ele>
        <time>2016-02-28T09:39:08.000Z</time>
      </trkpt>
      <trkpt lat="47.42251" lon="6.69885">
        <ele>369</ele>
        <time>2016-02-28T09:39:09.000Z</time>
      </trkpt>
      <trkpt lat="47.42249" lon="6.69874">
        <ele>366</ele>
        <time>2016-02-28T09:39:10.000Z</time>
      </trkpt>
      <trkpt lat="47.42246" lon="6.69863">
        <ele>365</ele>
        <time>2016-02-28T09:39:11.000Z</time>
      </trkpt>
      <trkpt lat="47.42244" lon="6.69853">
        <ele>365</ele>
        <time>2016-02-28T09:39:12.000Z</time>
      </trkpt>
      <trkpt lat="47.42239" lon="6.69845">
        <ele>365</ele>
        <time>2016-02-28T09:39:13.000Z</time>
      </trkpt>
      <trkpt lat="47.42235" lon="6.69838">
        <ele>365</ele>
        <time>2016-02-28T09:39:14.000Z</time>
      </trkpt>
      <trkpt lat="47.42232" lon="6.69832">
        <ele>364</ele>
        <time>2016-02-28T09:39:15.000Z</time>
      </trkpt>
      <trkpt lat="47.42228" lon="6.69828">
        <ele>363</ele>
        <time>2016-02-28T09:39:16.000Z</time>
      </trkpt>
      <trkpt lat="47.42224" lon="6.69825">
        <ele>363</ele>
        <time>2016-02-28T09:39:17.000Z</time>
      </trkpt>
      <trkpt lat="47.4222" lon="6.69829">
        <ele>363</ele>
        <time>2016-02-28T09:39:18.000Z</time>
      </trkpt>
      <trkpt lat="47.42215" lon="6.6983">
        <ele>362</ele>
        <time>2016-02-28T09:39:19.000Z</time>
      </trkpt>
      <trkpt lat="47.4221" lon="6.69834">
        <ele>364</ele>
        <time>2016-02-28T09:39:20.000Z</time>
      </trkpt>
      <trkpt lat="47.42203" lon="6.69836">
        <ele>364</ele>
        <time>2016-02-28T09:39:21.000Z</time>
      </trkpt>
      <trkpt lat="47.42197" lon="6.69839">
        <ele>364</ele>
        <time>2016-02-28T09:39:22.000Z</time>
      </trkpt>
      <trkpt lat="47.4219" lon="6.69842">
        <ele>363</ele>
        <time>2016-02-28T09:39:23.000Z</time>
      </trkpt>
      <trkpt lat="47.42184" lon="6.69846">
        <ele>363</ele>
        <time>2016-02-28T09:39:24.000Z</time>
      </trkpt>
      <trkpt lat="47.42176" lon="6.69851">
        <ele>363</ele>
        <time>2016-02-28T09:39:25.000Z</time>
      </trkpt>
      <trkpt lat="47.42169" lon="6.69856">
        <ele>363</ele>
        <time>2016-02-28T09:39:26.000Z</time>
      </trkpt>
      <trkpt lat="47.42163" lon="6.6986">
        <ele>363</ele>
        <time>2016-02-28T09:39:27.000Z</time>
      </trkpt>
      <trkpt lat="47.42158" lon="6.69864">
        <ele>363</ele>
        <time>2016-02-28T09:39:28.000Z</time>
      </trkpt>
      <trkpt lat="47.42152" lon="6.6987">
        <ele>363</ele>
        <time>2016-02-28T09:39:29.000Z</time>
      </trkpt>
      <trkpt lat="47.42147" lon="6.69874">
        <ele>364</ele>
        <time>2016-02-28T09:39:30.000Z</time>
      </trkpt>
      <trkpt lat="47.42141" lon="6.69878">
        <ele>364</ele>
        <time>2016-02-28T09:39:31.000Z</time>
      </trkpt>
      <trkpt lat="47.42137" lon="6.6988">
        <ele>364</ele>
        <time>2016-02-28T09:39:32.000Z</time>
      </trkpt>
      <trkpt lat="47.42132" lon="6.69884">
        <ele>364</ele>
        <time>2016-02-28T09:39:33.000Z</time>
      </trkpt>
      <trkpt lat="47.42127" lon="6.69886">
        <ele>364</ele>
        <time>2016-02-28T09:39:34.000Z</time>
      </trkpt>
      <trkpt lat="47.42123" lon="6.69889">
        <ele>365</ele>
        <time>2016-02-28T09:39:35.000Z</time>
      </trkpt>
      <trkpt lat="47.42118" lon="6.69891">
        <ele>365</ele>
        <time>2016-02-28T09:39:36.000Z</time>
      </trkpt>
      <trkpt lat="47.42115" lon="6.69893">
        <ele>365</ele>
        <time>2016-02-28T09:39:37.000Z</time>
      </trkpt>
      <trkpt lat="47.42112" lon="6.69895">
        <ele>365</ele>
        <time>2016-02-28T09:39:38.000Z</time>
      </trkpt>
      <trkpt lat="47.42108" lon="6.69896">
        <ele>365</ele>
        <time>2016-02-28T09:39:39.000Z</time>
      </trkpt>
      <trkpt lat="47.42105" lon="6.69898">
        <ele>366</ele>
        <time>2016-02-28T09:39:40.000Z</time>
      </trkpt>
      <trkpt lat="47.42101" lon="6.69902">
        <ele>366</ele>
        <time>2016-02-28T09:39:41.000Z</time>
      </trkpt>
      <trkpt lat="47.42097" lon="6.69904">
        <ele>367</ele>
        <time>2016-02-28T09:39:42.000Z</time>
      </trkpt>
      <trkpt lat="47.42093" lon="6.69904">
        <ele>367</ele>
        <time>2016-02-28T09:39:43.000Z</time>
      </trkpt>
      <trkpt lat="47.4209" lon="6.69905">
        <ele>367</ele>
        <time>2016-02-28T09:39:44.000Z</time>
      </trkpt>
      <trkpt lat="47.42088" lon="6.69907">
        <ele>368</ele>
        <time>2016-02-28T09:39:45.000Z</time>
      </trkpt>
      <trkpt lat="47.42085" lon="6.69908">
        <ele>368</ele>
        <time>2016-02-28T09:39:46.000Z</time>
      </trkpt>
      <trkpt lat="47.42081" lon="6.69909">
        <ele>369</ele>
        <time>2016-02-28T09:39:47.000Z</time>
      </trkpt>
      <trkpt lat="47.42077" lon="6.69911">
        <ele>369</ele>
        <time>2016-02-28T09:39:48.000Z</time>
      </trkpt>
      <trkpt lat="47.42074" lon="6.69911">
        <ele>368</ele>
        <time>2016-02-28T09:39:49.000Z</time>
      </trkpt>
      <trkpt lat="47.42071" lon="6.69912">
        <ele>368</ele>
        <time>2016-02-28T09:39:50.001Z</time>
      </trkpt>
      <trkpt lat="47.42068" lon="6.69913">
        <ele>368</ele>
        <time>2016-02-28T09:39:51.000Z</time>
      </trkpt>
      <trkpt lat="47.42066" lon="6.69916">
        <ele>368</ele>
        <time>2016-02-28T09:39:52.000Z</time>
      </trkpt>
      <trkpt lat="47.42063" lon="6.69917">
        <ele>374</ele>
        <time>2016-02-28T09:39:53.001Z</time>
      </trkpt>
      <trkpt lat="47.4206" lon="6.69914">
        <ele>367</ele>
        <time>2016-02-28T09:39:54.000Z</time>
      </trkpt>
      <trkpt lat="47.42056" lon="6.69916">
        <ele>367</ele>
        <time>2016-02-28T09:39:55.000Z</time>
      </trkpt>
      <trkpt lat="47.42054" lon="6.69916">
        <ele>367</ele>
        <time>2016-02-28T09:39:56.000Z</time>
      </trkpt>
      <trkpt lat="47.42051" lon="6.69917">
        <ele>375</ele>
        <time>2016-02-28T09:39:57.000Z</time>
      </trkpt>
      <trkpt lat="47.42048" lon="6.69915">
        <ele>367</ele>
        <time>2016-02-28T09:39:58.999Z</time>
      </trkpt>
      <trkpt lat="47.42043" lon="6.69917">
        <ele>376</ele>
        <time>2016-02-28T09:40:00.000Z</time>
      </trkpt>
      <trkpt lat="47.4204" lon="6.69917">
        <ele>376</ele>
        <time>2016-02-28T09:40:01.000Z</time>
      </trkpt>
      <trkpt lat="47.42037" lon="6.69918">
        <ele>376</ele>
        <time>2016-02-28T09:40:02.000Z</time>
      </trkpt>
      <trkpt lat="47.42033" lon="6.69918">
        <ele>376</ele>
        <time>2016-02-28T09:40:03.000Z</time>
      </trkpt>
      <trkpt lat="47.42029" lon="6.69918">
        <ele>375</ele>
        <time>2016-02-28T09:40:04.000Z</time>
      </trkpt>
      <trkpt lat="47.42026" lon="6.69918">
        <ele>375</ele>
        <time>2016-02-28T09:40:05.000Z</time>
      </trkpt>
      <trkpt lat="47.42021" lon="6.69919">
        <ele>375</ele>
        <time>2016-02-28T09:40:06.000Z</time>
      </trkpt>
      <trkpt lat="47.42017" lon="6.69919">
        <ele>375</ele>
        <time>2016-02-28T09:40:07.000Z</time>
      </trkpt>
      <trkpt lat="47.42014" lon="6.6992">
        <ele>374</ele>
        <time>2016-02-28T09:40:08.000Z</time>
      </trkpt>
      <trkpt lat="47.42009" lon="6.69921">
        <ele>374</ele>
        <time>2016-02-28T09:40:09.000Z</time>
      </trkpt>
      <trkpt lat="47.42005" lon="6.69921">
        <ele>373</ele>
        <time>2016-02-28T09:40:10.000Z</time>
      </trkpt>
      <trkpt lat="47.42001" lon="6.69921">
        <ele>372</ele>
        <time>2016-02-28T09:40:11.000Z</time>
      </trkpt>
      <trkpt lat="47.41997" lon="6.69921">
        <ele>372</ele>
        <time>2016-02-28T09:40:12.000Z</time>
      </trkpt>
      <trkpt lat="47.41991" lon="6.69921">
        <ele>373</ele>
        <time>2016-02-28T09:40:13.000Z</time>
      </trkpt>
      <trkpt lat="47.41987" lon="6.69921">
        <ele>373</ele>
        <time>2016-02-28T09:40:14.000Z</time>
      </trkpt>
      <trkpt lat="47.4198" lon="6.69923">
        <ele>374</ele>
        <time>2016-02-28T09:40:15.000Z</time>
      </trkpt>
      <trkpt lat="47.41976" lon="6.69923">
        <ele>374</ele>
        <time>2016-02-28T09:40:16.000Z</time>
      </trkpt>
      <trkpt lat="47.41972" lon="6.69924">
        <ele>374</ele>
        <time>2016-02-28T09:40:16.999Z</time>
      </trkpt>
      <trkpt lat="47.41965" lon="6.69926">
        <ele>374</ele>
        <time>2016-02-28T09:40:18.000Z</time>
      </trkpt>
      <trkpt lat="47.4196" lon="6.69929">
        <ele>374</ele>
        <time>2016-02-28T09:40:19.000Z</time>
      </trkpt>
      <trkpt lat="47.41956" lon="6.69929">
        <ele>374</ele>
        <time>2016-02-28T09:40:20.000Z</time>
      </trkpt>
      <trkpt lat="47.4195" lon="6.69933">
        <ele>374</ele>
        <time>2016-02-28T09:40:21.000Z</time>
      </trkpt>
      <trkpt lat="47.41946" lon="6.69934">
        <ele>374</ele>
        <time>2016-02-28T09:40:22.000Z</time>
      </trkpt>
      <trkpt lat="47.41941" lon="6.69935">
        <ele>373</ele>
        <time>2016-02-28T09:40:22.998Z</time>
      </trkpt>
      <trkpt lat="47.41938" lon="6.69938">
        <ele>373</ele>
        <time>2016-02-28T09:40:24.000Z</time>
      </trkpt>
      <trkpt lat="47.41933" lon="6.69939">
        <ele>373</ele>
        <time>2016-02-28T09:40:25.000Z</time>
      </trkpt>
      <trkpt lat="47.41929" lon="6.6994">
        <ele>373</ele>
        <time>2016-02-28T09:40:26.000Z</time>
      </trkpt>
      <trkpt lat="47.41923" lon="6.6994">
        <ele>373</ele>
        <time>2016-02-28T09:40:27.000Z</time>
      </trkpt>
      <trkpt lat="47.41918" lon="6.69941">
        <ele>372</ele>
        <time>2016-02-28T09:40:28.000Z</time>
      </trkpt>
      <trkpt lat="47.41913" lon="6.69943">
        <ele>369</ele>
        <time>2016-02-28T09:40:29.000Z</time>
      </trkpt>
      <trkpt lat="47.41908" lon="6.69945">
        <ele>369</ele>
        <time>2016-02-28T09:40:30.000Z</time>
      </trkpt>
      <trkpt lat="47.41902" lon="6.69946">
        <ele>369</ele>
        <time>2016-02-28T09:40:31.000Z</time>
      </trkpt>
      <trkpt lat="47.41897" lon="6.69948">
        <ele>369</ele>
        <time>2016-02-28T09:40:32.000Z</time>
      </trkpt>
      <trkpt lat="47.41895" lon="6.69951">
        <ele>370</ele>
        <time>2016-02-28T09:40:33.001Z</time>
      </trkpt>
      <trkpt lat="47.41889" lon="6.69952">
        <ele>369</ele>
        <time>2016-02-28T09:40:34.000Z</time>
      </trkpt>
      <trkpt lat="47.41883" lon="6.69954">
        <ele>369</ele>
        <time>2016-02-28T09:40:35.000Z</time>
      </trkpt>
      <trkpt lat="47.41876" lon="6.69954">
        <ele>369</ele>
        <time>2016-02-28T09:40:36.000Z</time>
      </trkpt>
      <trkpt lat="47.4187" lon="6.69956">
        <ele>369</ele>
        <time>2016-02-28T09:40:37.000Z</time>
      </trkpt>
      <trkpt lat="47.41865" lon="6.6996">
        <ele>369</ele>
        <time>2016-02-28T09:40:38.000Z</time>
      </trkpt>
      <trkpt lat="47.41861" lon="6.69964">
        <ele>369</ele>
        <time>2016-02-28T09:40:39.000Z</time>
      </trkpt>
      <trkpt lat="47.41857" lon="6.69966">
        <ele>369</ele>
        <time>2016-02-28T09:40:40.000Z</time>
      </trkpt>
      <trkpt lat="47.4185" lon="6.69967">
        <ele>369</ele>
        <time>2016-02-28T09:40:41.000Z</time>
      </trkpt>
      <trkpt lat="47.41844" lon="6.6997">
        <ele>369</ele>
        <time>2016-02-28T09:40:42.000Z</time>
      </trkpt>
      <trkpt lat="47.41839" lon="6.69973">
        <ele>369</ele>
        <time>2016-02-28T09:40:43.000Z</time>
      </trkpt>
      <trkpt lat="47.41834" lon="6.69975">
        <ele>369</ele>
        <time>2016-02-28T09:40:43.998Z</time>
      </trkpt>
      <trkpt lat="47.41829" lon="6.69975">
        <ele>368</ele>
        <time>2016-02-28T09:40:45.000Z</time>
      </trkpt>
      <trkpt lat="47.41823" lon="6.69975">
        <ele>368</ele>
        <time>2016-02-28T09:40:46.000Z</time>
      </trkpt>
      <trkpt lat="47.41817" lon="6.69975">
        <ele>368</ele>
        <time>2016-02-28T09:40:47.000Z</time>
      </trkpt>
      <trkpt lat="47.41816" lon="6.6998">
        <ele>368</ele>
        <time>2016-02-28T09:40:48.000Z</time>
      </trkpt>
      <trkpt lat="47.41809" lon="6.69982">
        <ele>368</ele>
        <time>2016-02-28T09:40:49.000Z</time>
      </trkpt>
      <trkpt lat="47.41804" lon="6.69984">
        <ele>368</ele>
        <time>2016-02-28T09:40:50.000Z</time>
      </trkpt>
      <trkpt lat="47.41797" lon="6.69985">
        <ele>368</ele>
        <time>2016-02-28T09:40:51.000Z</time>
      </trkpt>
      <trkpt lat="47.41791" lon="6.69986">
        <ele>368</ele>
        <time>2016-02-28T09:40:52.000Z</time>
      </trkpt>
      <trkpt lat="47.41787" lon="6.69988">
        <ele>369</ele>
        <time>2016-02-28T09:40:53.000Z</time>
      </trkpt>
      <trkpt lat="47.41781" lon="6.69989">
        <ele>369</ele>
        <time>2016-02-28T09:40:54.000Z</time>
      </trkpt>
      <trkpt lat="47.41776" lon="6.69989">
        <ele>369</ele>
        <time>2016-02-28T09:40:55.000Z</time>
      </trkpt>
      <trkpt lat="47.4177" lon="6.69989">
        <ele>369</ele>
        <time>2016-02-28T09:40:56.000Z</time>
      </trkpt>
      <trkpt lat="47.41765" lon="6.69987">
        <ele>369</ele>
        <time>2016-02-28T09:40:57.000Z</time>
      </trkpt>
      <trkpt lat="47.4176" lon="6.69986">
        <ele>370</ele>
        <time>2016-02-28T09:40:58.000Z</time>
      </trkpt>
      <trkpt lat="47.41756" lon="6.69985">
        <ele>370</ele>
        <time>2016-02-28T09:40:59.000Z</time>
      </trkpt>
      <trkpt lat="47.4175" lon="6.69985">
        <ele>370</ele>
        <time>2016-02-28T09:41:00.000Z</time>
      </trkpt>
      <trkpt lat="47.41745" lon="6.69986">
        <ele>370</ele>
        <time>2016-02-28T09:41:01.000Z</time>
      </trkpt>
      <trkpt lat="47.4174" lon="6.69986">
        <ele>370</ele>
        <time>2016-02-28T09:41:02.000Z</time>
      </trkpt>
      <trkpt lat="47.41735" lon="6.69987">
        <ele>370</ele>
        <time>2016-02-28T09:41:03.000Z</time>
      </trkpt>
      <trkpt lat="47.41729" lon="6.69987">
        <ele>369</ele>
        <time>2016-02-28T09:41:04.000Z</time>
      </trkpt>
      <trkpt lat="47.41725" lon="6.69987">
        <ele>369</ele>
        <time>2016-02-28T09:41:05.000Z</time>
      </trkpt>
      <trkpt lat="47.4172" lon="6.6999">
        <ele>369</ele>
        <time>2016-02-28T09:41:06.000Z</time>
      </trkpt>
      <trkpt lat="47.41715" lon="6.69991">
        <ele>369</ele>
        <time>2016-02-28T09:41:07.000Z</time>
      </trkpt>
      <trkpt lat="47.4171" lon="6.6999">
        <ele>369</ele>
        <time>2016-02-28T09:41:08.000Z</time>
      </trkpt>
      <trkpt lat="47.41706" lon="6.6999">
        <ele>369</ele>
        <time>2016-02-28T09:41:09.000Z</time>
      </trkpt>
      <trkpt lat="47.41701" lon="6.69991">
        <ele>369</ele>
        <time>2016-02-28T09:41:10.000Z</time>
      </trkpt>
      <trkpt lat="47.41698" lon="6.69998">
        <ele>369</ele>
        <time>2016-02-28T09:41:11.000Z</time>
      </trkpt>
      <trkpt lat="47.41694" lon="6.70001">
        <ele>378</ele>
        <time>2016-02-28T09:41:12.000Z</time>
      </trkpt>
      <trkpt lat="47.4169" lon="6.70005">
        <ele>378</ele>
        <time>2016-02-28T09:41:13.000Z</time>
      </trkpt>
      <trkpt lat="47.41687" lon="6.70008">
        <ele>377</ele>
        <time>2016-02-28T09:41:14.000Z</time>
      </trkpt>
      <trkpt lat="47.41683" lon="6.70011">
        <ele>377</ele>
        <time>2016-02-28T09:41:15.000Z</time>
      </trkpt>
      <trkpt lat="47.41679" lon="6.70016">
        <ele>378</ele>
        <time>2016-02-28T09:41:16.001Z</time>
      </trkpt>
      <trkpt lat="47.41675" lon="6.70019">
        <ele>378</ele>
        <time>2016-02-28T09:41:17.000Z</time>
      </trkpt>
      <trkpt lat="47.41671" lon="6.70023">
        <ele>379</ele>
        <time>2016-02-28T09:41:18.000Z</time>
      </trkpt>
      <trkpt lat="47.41669" lon="6.70028">
        <ele>380</ele>
        <time>2016-02-28T09:41:19.000Z</time>
      </trkpt>
      <trkpt lat="47.41666" lon="6.70032">
        <ele>378</ele>
        <time>2016-02-28T09:41:20.001Z</time>
      </trkpt>
      <trkpt lat="47.41661" lon="6.7003">
        <ele>377</ele>
        <time>2016-02-28T09:41:21.000Z</time>
      </trkpt>
      <trkpt lat="47.41657" lon="6.70033">
        <ele>378</ele>
        <time>2016-02-28T09:41:22.000Z</time>
      </trkpt>
      <trkpt lat="47.41653" lon="6.70035">
        <ele>378</ele>
        <time>2016-02-28T09:41:23.000Z</time>
      </trkpt>
      <trkpt lat="47.41649" lon="6.70037">
        <ele>378</ele>
        <time>2016-02-28T09:41:24.000Z</time>
      </trkpt>
      <trkpt lat="47.41646" lon="6.70039">
        <ele>379</ele>
        <time>2016-02-28T09:41:25.000Z</time>
      </trkpt>
      <trkpt lat="47.41643" lon="6.70041">
        <ele>379</ele>
        <time>2016-02-28T09:41:25.999Z</time>
      </trkpt>
      <trkpt lat="47.4164" lon="6.70043">
        <ele>379</ele>
        <time>2016-02-28T09:41:27.000Z</time>
      </trkpt>
      <trkpt lat="47.41637" lon="6.70045">
        <ele>379</ele>
        <time>2016-02-28T09:41:28.000Z</time>
      </trkpt>
      <trkpt lat="47.41634" lon="6.70048">
        <ele>379</ele>
        <time>2016-02-28T09:41:29.000Z</time>
      </trkpt>
      <trkpt lat="47.41631" lon="6.70051">
        <ele>379</ele>
        <time>2016-02-28T09:41:29.999Z</time>
      </trkpt>
      <trkpt lat="47.41628" lon="6.70053">
        <ele>380</ele>
        <time>2016-02-28T09:41:31.000Z</time>
      </trkpt>
      <trkpt lat="47.41625" lon="6.70056">
        <ele>380</ele>
        <time>2016-02-28T09:41:32.000Z</time>
      </trkpt>
      <trkpt lat="47.41622" lon="6.70058">
        <ele>380</ele>
        <time>2016-02-28T09:41:33.000Z</time>
      </trkpt>
      <trkpt lat="47.41619" lon="6.7006">
        <ele>380</ele>
        <time>2016-02-28T09:41:34.000Z</time>
      </trkpt>
      <trkpt lat="47.41616" lon="6.70061">
        <ele>380</ele>
        <time>2016-02-28T09:41:35.000Z</time>
      </trkpt>
      <trkpt lat="47.41614" lon="6.70063">
        <ele>380</ele>
        <time>2016-02-28T09:41:36.000Z</time>
      </trkpt>
      <trkpt lat="47.41611" lon="6.70064">
        <ele>380</ele>
        <time>2016-02-28T09:41:37.000Z</time>
      </trkpt>
      <trkpt lat="47.41608" lon="6.70065">
        <ele>380</ele>
        <time>2016-02-28T09:41:38.000Z</time>
      </trkpt>
      <trkpt lat="47.41605" lon="6.70066">
        <ele>380</ele>
        <time>2016-02-28T09:41:39.000Z</time>
      </trkpt>
      <trkpt lat="47.41602" lon="6.70067">
        <ele>380</ele>
        <time>2016-02-28T09:41:40.000Z</time>
      </trkpt>
      <trkpt lat="47.41598" lon="6.70069">
        <ele>380</ele>
        <time>2016-02-28T09:41:41.001Z</time>
      </trkpt>
      <trkpt lat="47.41595" lon="6.70069">
        <ele>380</ele>
        <time>2016-02-28T09:41:42.000Z</time>
      </trkpt>
      <trkpt lat="47.41592" lon="6.7007">
        <ele>380</ele>
        <time>2016-02-28T09:41:43.000Z</time>
      </trkpt>
      <trkpt lat="47.41588" lon="6.70071">
        <ele>380</ele>
        <time>2016-02-28T09:41:44.000Z</time>
      </trkpt>
      <trkpt lat="47.41585" lon="6.70072">
        <ele>380</ele>
        <time>2016-02-28T09:41:45.000Z</time>
      </trkpt>
      <trkpt lat="47.41582" lon="6.70073">
        <ele>378</ele>
        <time>2016-02-28T09:41:46.000Z</time>
      </trkpt>
      <trkpt lat="47.4158" lon="6.70076">
        <ele>379</ele>
        <time>2016-02-28T09:41:47.000Z</time>
      </trkpt>
      <trkpt lat="47.41577" lon="6.70078">
        <ele>378</ele>
        <time>2016-02-28T09:41:48.000Z</time>
      </trkpt>
      <trkpt lat="47.41575" lon="6.70082">
        <ele>378</ele>
        <time>2016-02-28T09:41:49.000Z</time>
      </trkpt>
      <trkpt lat="47.41572" lon="6.70085">
        <ele>382</ele>
        <time>2016-02-28T09:41:50.000Z</time>
      </trkpt>
      <trkpt lat="47.4157" lon="6.70088">
        <ele>382</ele>
        <time>2016-02-28T09:41:51.000Z</time>
      </trkpt>
      <trkpt lat="47.41567" lon="6.70091">
        <ele>382</ele>
        <time>2016-02-28T09:41:52.002Z</time>
      </trkpt>
      <trkpt lat="47.41565" lon="6.70095">
        <ele>382</ele>
        <time>2016-02-28T09:41:53.000Z</time>
      </trkpt>
      <trkpt lat="47.41562" lon="6.70098">
        <ele>382</ele>
        <time>2016-02-28T09:41:54.000Z</time>
      </trkpt>
      <trkpt lat="47.41559" lon="6.70101">
        <ele>382</ele>
        <time>2016-02-28T09:41:55.000Z</time>
      </trkpt>
      <trkpt lat="47.41557" lon="6.70104">
        <ele>382</ele>
        <time>2016-02-28T09:41:56.000Z</time>
      </trkpt>
      <trkpt lat="47.41554" lon="6.70108">
        <ele>382</ele>
        <time>2016-02-28T09:41:57.000Z</time>
      </trkpt>
      <trkpt lat="47.41551" lon="6.70111">
        <ele>382</ele>
        <time>2016-02-28T09:41:58.000Z</time>
      </trkpt>
      <trkpt lat="47.41548" lon="6.70114">
        <ele>382</ele>
        <time>2016-02-28T09:41:59.000Z</time>
      </trkpt>
      <trkpt lat="47.41545" lon="6.70118">
        <ele>382</ele>
        <time>2016-02-28T09:42:00.000Z</time>
      </trkpt>
      <trkpt lat="47.41543" lon="6.70122">
        <ele>382</ele>
        <time>2016-02-28T09:42:01.000Z</time>
      </trkpt>
      <trkpt lat="47.41539" lon="6.7013">
        <ele>382</ele>
        <time>2016-02-28T09:42:02.000Z</time>
      </trkpt>
      <trkpt lat="47.41536" lon="6.70133">
        <ele>382</ele>
        <time>2016-02-28T09:42:03.000Z</time>
      </trkpt>
      <trkpt lat="47.41532" lon="6.70136">
        <ele>382</ele>
        <time>2016-02-28T09:42:04.000Z</time>
      </trkpt>
      <trkpt lat="47.41528" lon="6.70138">
        <ele>382</ele>
        <time>2016-02-28T09:42:05.000Z</time>
      </trkpt>
      <trkpt lat="47.41523" lon="6.70138">
        <ele>381</ele>
        <time>2016-02-28T09:42:06.000Z</time>
      </trkpt>
      <trkpt lat="47.4152" lon="6.70141">
        <ele>381</ele>
        <time>2016-02-28T09:42:07.000Z</time>
      </trkpt>
      <trkpt lat="47.41516" lon="6.70144">
        <ele>381</ele>
        <time>2016-02-28T09:42:08.000Z</time>
      </trkpt>
      <trkpt lat="47.41513" lon="6.70146">
        <ele>381</ele>
        <time>2016-02-28T09:42:09.000Z</time>
      </trkpt>
      <trkpt lat="47.4151" lon="6.7015">
        <ele>381</ele>
        <time>2016-02-28T09:42:10.000Z</time>
      </trkpt>
      <trkpt lat="47.41506" lon="6.7015">
        <ele>381</ele>
        <time>2016-02-28T09:42:11.000Z</time>
      </trkpt>
      <trkpt lat="47.41502" lon="6.70151">
        <ele>381</ele>
        <time>2016-02-28T09:42:12.000Z</time>
      </trkpt>
      <trkpt lat="47.41498" lon="6.70153">
        <ele>376</ele>
        <time>2016-02-28T09:42:13.000Z</time>
      </trkpt>
      <trkpt lat="47.41494" lon="6.70153">
        <ele>376</ele>
        <time>2016-02-28T09:42:14.000Z</time>
      </trkpt>
      <trkpt lat="47.4149" lon="6.70154">
        <ele>375</ele>
        <time>2016-02-28T09:42:15.000Z</time>
      </trkpt>
      <trkpt lat="47.41486" lon="6.70157">
        <ele>375</ele>
        <time>2016-02-28T09:42:16.000Z</time>
      </trkpt>
      <trkpt lat="47.41483" lon="6.7016">
        <ele>375</ele>
        <time>2016-02-28T09:42:17.000Z</time>
      </trkpt>
      <trkpt lat="47.41479" lon="6.70164">
        <ele>375</ele>
        <time>2016-02-28T09:42:18.000Z</time>
      </trkpt>
      <trkpt lat="47.41474" lon="6.70166">
        <ele>374</ele>
        <time>2016-02-28T09:42:19.000Z</time>
      </trkpt>
      <trkpt lat="47.4147" lon="6.70168">
        <ele>379</ele>
        <time>2016-02-28T09:42:20.000Z</time>
      </trkpt>
      <trkpt lat="47.41466" lon="6.70171">
        <ele>379</ele>
        <time>2016-02-28T09:42:21.000Z</time>
      </trkpt>
      <trkpt lat="47.41461" lon="6.70174">
        <ele>378</ele>
        <time>2016-02-28T09:42:22.000Z</time>
      </trkpt>
      <trkpt lat="47.41456" lon="6.70177">
        <ele>378</ele>
        <time>2016-02-28T09:42:23.000Z</time>
      </trkpt>
      <trkpt lat="47.41451" lon="6.70181">
        <ele>378</ele>
        <time>2016-02-28T09:42:24.000Z</time>
      </trkpt>
      <trkpt lat="47.41446" lon="6.70184">
        <ele>377</ele>
        <time>2016-02-28T09:42:25.000Z</time>
      </trkpt>
      <trkpt lat="47.41441" lon="6.70188">
        <ele>377</ele>
        <time>2016-02-28T09:42:26.000Z</time>
      </trkpt>
      <trkpt lat="47.41436" lon="6.70191">
        <ele>377</ele>
        <time>2016-02-28T09:42:27.000Z</time>
      </trkpt>
      <trkpt lat="47.4143" lon="6.70195">
        <ele>377</ele>
        <time>2016-02-28T09:42:28.000Z</time>
      </trkpt>
      <trkpt lat="47.41423" lon="6.70199">
        <ele>377</ele>
        <time>2016-02-28T09:42:29.000Z</time>
      </trkpt>
      <trkpt lat="47.41418" lon="6.70203">
        <ele>377</ele>
        <time>2016-02-28T09:42:30.000Z</time>
      </trkpt>
      <trkpt lat="47.41415" lon="6.70216">
        <ele>372</ele>
        <time>2016-02-28T09:42:31.000Z</time>
      </trkpt>
      <trkpt lat="47.41411" lon="6.70222">
        <ele>372</ele>
        <time>2016-02-28T09:42:32.000Z</time>
      </trkpt>
      <trkpt lat="47.41406" lon="6.70229">
        <ele>373</ele>
        <time>2016-02-28T09:42:33.000Z</time>
      </trkpt>
      <trkpt lat="47.41402" lon="6.70238">
        <ele>373</ele>
        <time>2016-02-28T09:42:34.000Z</time>
      </trkpt>
      <trkpt lat="47.41399" lon="6.70249">
        <ele>373</ele>
        <time>2016-02-28T09:42:35.000Z</time>
      </trkpt>
      <trkpt lat="47.41396" lon="6.70256">
        <ele>376</ele>
        <time>2016-02-28T09:42:36.000Z</time>
      </trkpt>
      <trkpt lat="47.41393" lon="6.70261">
        <ele>376</ele>
        <time>2016-02-28T09:42:37.000Z</time>
      </trkpt>
      <trkpt lat="47.41391" lon="6.70262">
        <ele>376</ele>
        <time>2016-02-28T09:42:38.000Z</time>
      </trkpt>
      <trkpt lat="47.41388" lon="6.70267">
        <ele>377</ele>
        <time>2016-02-28T09:42:42.000Z</time>
      </trkpt>
      <trkpt lat="47.41388" lon="6.70267">
        <ele>377</ele>
        <time>2016-02-28T09:42:43.000Z</time>
      </trkpt>
      <trkpt lat="47.41384" lon="6.70265">
        <ele>376</ele>
        <time>2016-02-28T09:42:47.000Z</time>
      </trkpt>
      <trkpt lat="47.41382" lon="6.70264">
        <ele>376</ele>
        <time>2016-02-28T09:42:48.000Z</time>
      </trkpt>
      <trkpt lat="47.41379" lon="6.70262">
        <ele>376</ele>
        <time>2016-02-28T09:42:50.000Z</time>
      </trkpt>
      <trkpt lat="47.41377" lon="6.70261">
        <ele>376</ele>
        <time>2016-02-28T09:42:51.000Z</time>
      </trkpt>
      <trkpt lat="47.41374" lon="6.7026">
        <ele>376</ele>
        <time>2016-02-28T09:42:53.000Z</time>
      </trkpt>
      <trkpt lat="47.41372" lon="6.70259">
        <ele>375</ele>
        <time>2016-02-28T09:42:54.000Z</time>
      </trkpt>
      <trkpt lat="47.41368" lon="6.70257">
        <ele>375</ele>
        <time>2016-02-28T09:42:56.000Z</time>
      </trkpt>
      <trkpt lat="47.41366" lon="6.70255">
        <ele>375</ele>
        <time>2016-02-28T09:42:57.000Z</time>
      </trkpt>
      <trkpt lat="47.41364" lon="6.70254">
        <ele>375</ele>
        <time>2016-02-28T09:42:58.000Z</time>
      </trkpt>
      <trkpt lat="47.41362" lon="6.70253">
        <ele>374</ele>
        <time>2016-02-28T09:42:59.000Z</time>
      </trkpt>
      <trkpt lat="47.41359" lon="6.70252">
        <ele>374</ele>
        <time>2016-02-28T09:43:00.000Z</time>
      </trkpt>
      <trkpt lat="47.41357" lon="6.7025">
        <ele>374</ele>
        <time>2016-02-28T09:43:01.000Z</time>
      </trkpt>
      <trkpt lat="47.41355" lon="6.70249">
        <ele>370</ele>
        <time>2016-02-28T09:43:02.000Z</time>
      </trkpt>
      <trkpt lat="47.41353" lon="6.70247">
        <ele>370</ele>
        <time>2016-02-28T09:43:03.000Z</time>
      </trkpt>
      <trkpt lat="47.4135" lon="6.70245">
        <ele>370</ele>
        <time>2016-02-28T09:43:04.000Z</time>
      </trkpt>
      <trkpt lat="47.41348" lon="6.70244">
        <ele>370</ele>
        <time>2016-02-28T09:43:05.000Z</time>
      </trkpt>
      <trkpt lat="47.41345" lon="6.70243">
        <ele>370</ele>
        <time>2016-02-28T09:43:06.000Z</time>
      </trkpt>
      <trkpt lat="47.41342" lon="6.70241">
        <ele>370</ele>
        <time>2016-02-28T09:43:07.000Z</time>
      </trkpt>
      <trkpt lat="47.4134" lon="6.7024">
        <ele>370</ele>
        <time>2016-02-28T09:43:08.000Z</time>
      </trkpt>
      <trkpt lat="47.41337" lon="6.70239">
        <ele>370</ele>
        <time>2016-02-28T09:43:09.000Z</time>
      </trkpt>
      <trkpt lat="47.41334" lon="6.70238">
        <ele>370</ele>
        <time>2016-02-28T09:43:10.000Z</time>
      </trkpt>
      <trkpt lat="47.41331" lon="6.70236">
        <ele>371</ele>
        <time>2016-02-28T09:43:11.000Z</time>
      </trkpt>
      <trkpt lat="47.41328" lon="6.70235">
        <ele>371</ele>
        <time>2016-02-28T09:43:12.000Z</time>
      </trkpt>
      <trkpt lat="47.41325" lon="6.70233">
        <ele>371</ele>
        <time>2016-02-28T09:43:13.000Z</time>
      </trkpt>
      <trkpt lat="47.41322" lon="6.70233">
        <ele>371</ele>
        <time>2016-02-28T09:43:14.000Z</time>
      </trkpt>
      <trkpt lat="47.41319" lon="6.70232">
        <ele>371</ele>
        <time>2016-02-28T09:43:15.000Z</time>
      </trkpt>
      <trkpt lat="47.41316" lon="6.70232">
        <ele>372</ele>
        <time>2016-02-28T09:43:16.000Z</time>
      </trkpt>
      <trkpt lat="47.41313" lon="6.70232">
        <ele>372</ele>
        <time>2016-02-28T09:43:17.000Z</time>
      </trkpt>
      <trkpt lat="47.4131" lon="6.70232">
        <ele>372</ele>
        <time>2016-02-28T09:43:18.000Z</time>
      </trkpt>
      <trkpt lat="47.41307" lon="6.70232">
        <ele>372</ele>
        <time>2016-02-28T09:43:19.000Z</time>
      </trkpt>
      <trkpt lat="47.41304" lon="6.70232">
        <ele>372</ele>
        <time>2016-02-28T09:43:20.000Z</time>
      </trkpt>
      <trkpt lat="47.41301" lon="6.70232">
        <ele>373</ele>
        <time>2016-02-28T09:43:21.000Z</time>
      </trkpt>
      <trkpt lat="47.41298" lon="6.70232">
        <ele>373</ele>
        <time>2016-02-28T09:43:22.000Z</time>
      </trkpt>
      <trkpt lat="47.41295" lon="6.70233">
        <ele>373</ele>
        <time>2016-02-28T09:43:23.000Z</time>
      </trkpt>
      <trkpt lat="47.41292" lon="6.70234">
        <ele>373</ele>
        <time>2016-02-28T09:43:24.000Z</time>
      </trkpt>
      <trkpt lat="47.41289" lon="6.70234">
        <ele>373</ele>
        <time>2016-02-28T09:43:25.000Z</time>
      </trkpt>
      <trkpt lat="47.41287" lon="6.70234">
        <ele>373</ele>
        <time>2016-02-28T09:43:26.000Z</time>
      </trkpt>
      <trkpt lat="47.41284" lon="6.70234">
        <ele>373</ele>
        <time>2016-02-28T09:43:27.000Z</time>
      </trkpt>
      <trkpt lat="47.41281" lon="6.70234">
        <ele>374</ele>
        <time>2016-02-28T09:43:28.000Z</time>
      </trkpt>
      <trkpt lat="47.41278" lon="6.70234">
        <ele>374</ele>
        <time>2016-02-28T09:43:29.000Z</time>
      </trkpt>
      <trkpt lat="47.41276" lon="6.70234">
        <ele>374</ele>
        <time>2016-02-28T09:43:30.000Z</time>
      </trkpt>
      <trkpt lat="47.41273" lon="6.70234">
        <ele>374</ele>
        <time>2016-02-28T09:43:31.000Z</time>
      </trkpt>
      <trkpt lat="47.4127" lon="6.70233">
        <ele>374</ele>
        <time>2016-02-28T09:43:32.000Z</time>
      </trkpt>
      <trkpt lat="47.41267" lon="6.70233">
        <ele>374</ele>
        <time>2016-02-28T09:43:33.000Z</time>
      </trkpt>
      <trkpt lat="47.41263" lon="6.70233">
        <ele>375</ele>
        <time>2016-02-28T09:43:34.000Z</time>
      </trkpt>
      <trkpt lat="47.4126" lon="6.70234">
        <ele>375</ele>
        <time>2016-02-28T09:43:35.000Z</time>
      </trkpt>
      <trkpt lat="47.41258" lon="6.70234">
        <ele>375</ele>
        <time>2016-02-28T09:43:36.000Z</time>
      </trkpt>
      <trkpt lat="47.41256" lon="6.70235">
        <ele>375</ele>
        <time>2016-02-28T09:43:37.000Z</time>
      </trkpt>
      <trkpt lat="47.41253" lon="6.70235">
        <ele>375</ele>
        <time>2016-02-28T09:43:39.000Z</time>
      </trkpt>
      <trkpt lat="47.41251" lon="6.70235">
        <ele>375</ele>
        <time>2016-02-28T09:43:40.000Z</time>
      </trkpt>
      <trkpt lat="47.41248" lon="6.70236">
        <ele>379</ele>
        <time>2016-02-28T09:43:42.000Z</time>
      </trkpt>
      <trkpt lat="47.41246" lon="6.70237">
        <ele>379</ele>
        <time>2016-02-28T09:43:43.000Z</time>
      </trkpt>
      <trkpt lat="47.41242" lon="6.70237">
        <ele>379</ele>
        <time>2016-02-28T09:43:45.000Z</time>
      </trkpt>
      <trkpt lat="47.4124" lon="6.70237">
        <ele>379</ele>
        <time>2016-02-28T09:43:46.000Z</time>
      </trkpt>
      <trkpt lat="47.41235" lon="6.70237">
        <ele>380</ele>
        <time>2016-02-28T09:43:48.000Z</time>
      </trkpt>
      <trkpt lat="47.41233" lon="6.70236">
        <ele>380</ele>
        <time>2016-02-28T09:43:49.000Z</time>
      </trkpt>
      <trkpt lat="47.41229" lon="6.70236">
        <ele>380</ele>
        <time>2016-02-28T09:43:51.000Z</time>
      </trkpt>
      <trkpt lat="47.41227" lon="6.70236">
        <ele>381</ele>
        <time>2016-02-28T09:43:52.000Z</time>
      </trkpt>
      <trkpt lat="47.41223" lon="6.70236">
        <ele>381</ele>
        <time>2016-02-28T09:43:54.000Z</time>
      </trkpt>
      <trkpt lat="47.41221" lon="6.70235">
        <ele>381</ele>
        <time>2016-02-28T09:43:55.000Z</time>
      </trkpt>
      <trkpt lat="47.41218" lon="6.70234">
        <ele>382</ele>
        <time>2016-02-28T09:43:56.000Z</time>
      </trkpt>
      <trkpt lat="47.41216" lon="6.70233">
        <ele>382</ele>
        <time>2016-02-28T09:43:57.000Z</time>
      </trkpt>
      <trkpt lat="47.41212" lon="6.70231">
        <ele>382</ele>
        <time>2016-02-28T09:43:59.000Z</time>
      </trkpt>
      <trkpt lat="47.4121" lon="6.7023">
        <ele>382</ele>
        <time>2016-02-28T09:44:00.000Z</time>
      </trkpt>
      <trkpt lat="47.41206" lon="6.70228">
        <ele>383</ele>
        <time>2016-02-28T09:44:02.000Z</time>
      </trkpt>
      <trkpt lat="47.41204" lon="6.70228">
        <ele>383</ele>
        <time>2016-02-28T09:44:03.000Z</time>
      </trkpt>
      <trkpt lat="47.412" lon="6.70226">
        <ele>383</ele>
        <time>2016-02-28T09:44:06.000Z</time>
      </trkpt>
      <trkpt lat="47.41198" lon="6.70226">
        <ele>383</ele>
        <time>2016-02-28T09:44:07.000Z</time>
      </trkpt>
      <trkpt lat="47.41194" lon="6.70225">
        <ele>384</ele>
        <time>2016-02-28T09:44:09.000Z</time>
      </trkpt>
      <trkpt lat="47.41191" lon="6.70225">
        <ele>384</ele>
        <time>2016-02-28T09:44:10.000Z</time>
      </trkpt>
      <trkpt lat="47.41189" lon="6.70225">
        <ele>384</ele>
        <time>2016-02-28T09:44:11.000Z</time>
      </trkpt>
      <trkpt lat="47.41186" lon="6.70225">
        <ele>384</ele>
        <time>2016-02-28T09:44:12.000Z</time>
      </trkpt>
      <trkpt lat="47.41184" lon="6.70224">
        <ele>384</ele>
        <time>2016-02-28T09:44:13.000Z</time>
      </trkpt>
      <trkpt lat="47.41181" lon="6.70224">
        <ele>384</ele>
        <time>2016-02-28T09:44:14.000Z</time>
      </trkpt>
      <trkpt lat="47.41179" lon="6.70224">
        <ele>384</ele>
        <time>2016-02-28T09:44:15.000Z</time>
      </trkpt>
      <trkpt lat="47.41177" lon="6.70224">
        <ele>384</ele>
        <time>2016-02-28T09:44:16.000Z</time>
      </trkpt>
      <trkpt lat="47.41172" lon="6.70224">
        <ele>385</ele>
        <time>2016-02-28T09:44:18.000Z</time>
      </trkpt>
      <trkpt lat="47.4117" lon="6.70225">
        <ele>385</ele>
        <time>2016-02-28T09:44:19.000Z</time>
      </trkpt>
      <trkpt lat="47.41168" lon="6.70225">
        <ele>385</ele>
        <time>2016-02-28T09:44:20.000Z</time>
      </trkpt>
      <trkpt lat="47.41165" lon="6.70225">
        <ele>389</ele>
        <time>2016-02-28T09:44:21.000Z</time>
      </trkpt>
      <trkpt lat="47.41161" lon="6.70227">
        <ele>389</ele>
        <time>2016-02-28T09:44:23.000Z</time>
      </trkpt>
      <trkpt lat="47.4116" lon="6.70227">
        <ele>389</ele>
        <time>2016-02-28T09:44:24.000Z</time>
      </trkpt>
      <trkpt lat="47.41156" lon="6.70227">
        <ele>389</ele>
        <time>2016-02-28T09:44:26.000Z</time>
      </trkpt>
      <trkpt lat="47.41155" lon="6.70227">
        <ele>389</ele>
        <time>2016-02-28T09:44:27.000Z</time>
      </trkpt>
      <trkpt lat="47.41151" lon="6.70226">
        <ele>390</ele>
        <time>2016-02-28T09:44:29.000Z</time>
      </trkpt>
      <trkpt lat="47.41149" lon="6.70226">
        <ele>390</ele>
        <time>2016-02-28T09:44:30.000Z</time>
      </trkpt>
      <trkpt lat="47.41146" lon="6.70227">
        <ele>390</ele>
        <time>2016-02-28T09:44:32.000Z</time>
      </trkpt>
      <trkpt lat="47.41144" lon="6.70227">
        <ele>390</ele>
        <time>2016-02-28T09:44:33.000Z</time>
      </trkpt>
      <trkpt lat="47.41139" lon="6.70228">
        <ele>390</ele>
        <time>2016-02-28T09:44:35.000Z</time>
      </trkpt>
      <trkpt lat="47.41137" lon="6.70229">
        <ele>390</ele>
        <time>2016-02-28T09:44:36.000Z</time>
      </trkpt>
      <trkpt lat="47.41134" lon="6.70231">
        <ele>390</ele>
        <time>2016-02-28T09:44:38.000Z</time>
      </trkpt>
      <trkpt lat="47.41132" lon="6.70233">
        <ele>391</ele>
        <time>2016-02-28T09:44:39.000Z</time>
      </trkpt>
      <trkpt lat="47.41129" lon="6.70237">
        <ele>391</ele>
        <time>2016-02-28T09:44:41.000Z</time>
      </trkpt>
      <trkpt lat="47.41128" lon="6.7024">
        <ele>391</ele>
        <time>2016-02-28T09:44:42.000Z</time>
      </trkpt>
      <trkpt lat="47.41126" lon="6.70244">
        <ele>391</ele>
        <time>2016-02-28T09:44:44.000Z</time>
      </trkpt>
      <trkpt lat="47.41125" lon="6.70246">
        <ele>391</ele>
        <time>2016-02-28T09:44:45.000Z</time>
      </trkpt>
      <trkpt lat="47.41125" lon="6.70252">
        <ele>394</ele>
        <time>2016-02-28T09:44:48.000Z</time>
      </trkpt>
      <trkpt lat="47.41125" lon="6.70255">
        <ele>394</ele>
        <time>2016-02-28T09:44:49.000Z</time>
      </trkpt>
      <trkpt lat="47.41127" lon="6.7026">
        <ele>394</ele>
        <time>2016-02-28T09:44:51.000Z</time>
      </trkpt>
      <trkpt lat="47.41127" lon="6.70262">
        <ele>394</ele>
        <time>2016-02-28T09:44:52.000Z</time>
      </trkpt>
      <trkpt lat="47.41127" lon="6.70268">
        <ele>394</ele>
        <time>2016-02-28T09:44:54.000Z</time>
      </trkpt>
      <trkpt lat="47.41127" lon="6.7027">
        <ele>394</ele>
        <time>2016-02-28T09:44:55.000Z</time>
      </trkpt>
      <trkpt lat="47.41126" lon="6.70276">
        <ele>394</ele>
        <time>2016-02-28T09:44:57.000Z</time>
      </trkpt>
      <trkpt lat="47.41125" lon="6.70278">
        <ele>394</ele>
        <time>2016-02-28T09:44:58.000Z</time>
      </trkpt>
      <trkpt lat="47.41124" lon="6.70283">
        <ele>394</ele>
        <time>2016-02-28T09:45:00.000Z</time>
      </trkpt>
      <trkpt lat="47.41123" lon="6.70285">
        <ele>395</ele>
        <time>2016-02-28T09:45:01.000Z</time>
      </trkpt>
      <trkpt lat="47.41121" lon="6.70289">
        <ele>395</ele>
        <time>2016-02-28T09:45:03.000Z</time>
      </trkpt>
      <trkpt lat="47.4112" lon="6.70291">
        <ele>395</ele>
        <time>2016-02-28T09:45:04.000Z</time>
      </trkpt>
      <trkpt lat="47.41118" lon="6.70294">
        <ele>395</ele>
        <time>2016-02-28T09:45:06.000Z</time>
      </trkpt>
      <trkpt lat="47.41117" lon="6.70296">
        <ele>395</ele>
        <time>2016-02-28T09:45:07.000Z</time>
      </trkpt>
      <trkpt lat="47.41115" lon="6.70301">
        <ele>396</ele>
        <time>2016-02-28T09:45:09.000Z</time>
      </trkpt>
      <trkpt lat="47.41114" lon="6.70303">
        <ele>396</ele>
        <time>2016-02-28T09:45:10.000Z</time>
      </trkpt>
      <trkpt lat="47.41111" lon="6.70309">
        <ele>397</ele>
        <time>2016-02-28T09:45:12.000Z</time>
      </trkpt>
      <trkpt lat="47.4111" lon="6.70311">
        <ele>397</ele>
        <time>2016-02-28T09:45:13.000Z</time>
      </trkpt>
      <trkpt lat="47.41108" lon="6.70316">
        <ele>397</ele>
        <time>2016-02-28T09:45:16.000Z</time>
      </trkpt>
      <trkpt lat="47.41107" lon="6.70318">
        <ele>398</ele>
        <time>2016-02-28T09:45:17.000Z</time>
      </trkpt>
      <trkpt lat="47.41104" lon="6.70321">
        <ele>398</ele>
        <time>2016-02-28T09:45:19.000Z</time>
      </trkpt>
      <trkpt lat="47.41103" lon="6.70323">
        <ele>398</ele>
        <time>2016-02-28T09:45:20.000Z</time>
      </trkpt>
      <trkpt lat="47.41101" lon="6.70328">
        <ele>399</ele>
        <time>2016-02-28T09:45:22.000Z</time>
      </trkpt>
      <trkpt lat="47.41101" lon="6.7033">
        <ele>399</ele>
        <time>2016-02-28T09:45:23.000Z</time>
      </trkpt>
      <trkpt lat="47.41099" lon="6.70335">
        <ele>401</ele>
        <time>2016-02-28T09:45:25.000Z</time>
      </trkpt>
      <trkpt lat="47.41098" lon="6.70337">
        <ele>401</ele>
        <time>2016-02-28T09:45:26.000Z</time>
      </trkpt>
      <trkpt lat="47.41096" lon="6.70341">
        <ele>402</ele>
        <time>2016-02-28T09:45:28.000Z</time>
      </trkpt>
      <trkpt lat="47.41095" lon="6.70343">
        <ele>402</ele>
        <time>2016-02-28T09:45:29.000Z</time>
      </trkpt>
      <trkpt lat="47.41093" lon="6.70348">
        <ele>401</ele>
        <time>2016-02-28T09:45:31.000Z</time>
      </trkpt>
      <trkpt lat="47.41092" lon="6.70351">
        <ele>401</ele>
        <time>2016-02-28T09:45:32.000Z</time>
      </trkpt>
      <trkpt lat="47.4109" lon="6.70356">
        <ele>401</ele>
        <time>2016-02-28T09:45:34.000Z</time>
      </trkpt>
      <trkpt lat="47.41089" lon="6.70358">
        <ele>401</ele>
        <time>2016-02-28T09:45:35.000Z</time>
      </trkpt>
      <trkpt lat="47.41088" lon="6.70363">
        <ele>401</ele>
        <time>2016-02-28T09:45:37.000Z</time>
      </trkpt>
      <trkpt lat="47.41087" lon="6.70365">
        <ele>401</ele>
        <time>2016-02-28T09:45:38.000Z</time>
      </trkpt>
      <trkpt lat="47.41086" lon="6.70371">
        <ele>401</ele>
        <time>2016-02-28T09:45:40.000Z</time>
      </trkpt>
      <trkpt lat="47.41086" lon="6.70374">
        <ele>401</ele>
        <time>2016-02-28T09:45:41.000Z</time>
      </trkpt>
      <trkpt lat="47.41085" lon="6.70377">
        <ele>401</ele>
        <time>2016-02-28T09:45:42.000Z</time>
      </trkpt>
      <trkpt lat="47.41084" lon="6.7038">
        <ele>401</ele>
        <time>2016-02-28T09:45:43.000Z</time>
      </trkpt>
      <trkpt lat="47.41084" lon="6.70387">
        <ele>401</ele>
        <time>2016-02-28T09:45:45.000Z</time>
      </trkpt>
      <trkpt lat="47.41084" lon="6.7039">
        <ele>401</ele>
        <time>2016-02-28T09:45:46.000Z</time>
      </trkpt>
      <trkpt lat="47.41084" lon="6.70396">
        <ele>402</ele>
        <time>2016-02-28T09:45:48.000Z</time>
      </trkpt>
      <trkpt lat="47.41084" lon="6.704">
        <ele>402</ele>
        <time>2016-02-28T09:45:49.000Z</time>
      </trkpt>
      <trkpt lat="47.41084" lon="6.70403">
        <ele>402</ele>
        <time>2016-02-28T09:45:50.000Z</time>
      </trkpt>
      <trkpt lat="47.41085" lon="6.70407">
        <ele>403</ele>
        <time>2016-02-28T09:45:51.000Z</time>
      </trkpt>
      <trkpt lat="47.41085" lon="6.70413">
        <ele>404</ele>
        <time>2016-02-28T09:45:53.000Z</time>
      </trkpt>
      <trkpt lat="47.41085" lon="6.70416">
        <ele>405</ele>
        <time>2016-02-28T09:45:54.000Z</time>
      </trkpt>
      <trkpt lat="47.41085" lon="6.70421">
        <ele>404</ele>
        <time>2016-02-28T09:45:56.000Z</time>
      </trkpt>
      <trkpt lat="47.41085" lon="6.70424">
        <ele>404</ele>
        <time>2016-02-28T09:45:57.000Z</time>
      </trkpt>
      <trkpt lat="47.41085" lon="6.7043">
        <ele>403</ele>
        <time>2016-02-28T09:45:59.000Z</time>
      </trkpt>
      <trkpt lat="47.41086" lon="6.70432">
        <ele>403</ele>
        <time>2016-02-28T09:46:00.000Z</time>
      </trkpt>
      <trkpt lat="47.41087" lon="6.70438">
        <ele>402</ele>
        <time>2016-02-28T09:46:02.000Z</time>
      </trkpt>
      <trkpt lat="47.41088" lon="6.7044">
        <ele>402</ele>
        <time>2016-02-28T09:46:03.000Z</time>
      </trkpt>
      <trkpt lat="47.41087" lon="6.70445">
        <ele>402</ele>
        <time>2016-02-28T09:46:05.000Z</time>
      </trkpt>
      <trkpt lat="47.41085" lon="6.70447">
        <ele>402</ele>
        <time>2016-02-28T09:46:06.000Z</time>
      </trkpt>
      <trkpt lat="47.41084" lon="6.70451">
        <ele>402</ele>
        <time>2016-02-28T09:46:08.000Z</time>
      </trkpt>
      <trkpt lat="47.41083" lon="6.70453">
        <ele>408</ele>
        <time>2016-02-28T09:46:09.000Z</time>
      </trkpt>
      <trkpt lat="47.41082" lon="6.70457">
        <ele>408</ele>
        <time>2016-02-28T09:46:11.000Z</time>
      </trkpt>
      <trkpt lat="47.41081" lon="6.7046">
        <ele>409</ele>
        <time>2016-02-28T09:46:12.000Z</time>
      </trkpt>
      <trkpt lat="47.41079" lon="6.70465">
        <ele>409</ele>
        <time>2016-02-28T09:46:14.000Z</time>
      </trkpt>
      <trkpt lat="47.41079" lon="6.70468">
        <ele>409</ele>
        <time>2016-02-28T09:46:15.000Z</time>
      </trkpt>
      <trkpt lat="47.41075" lon="6.70472">
        <ele>409</ele>
        <time>2016-02-28T09:46:18.000Z</time>
      </trkpt>
      <trkpt lat="47.41074" lon="6.70472">
        <ele>409</ele>
        <time>2016-02-28T09:46:19.000Z</time>
      </trkpt>
      <trkpt lat="47.41071" lon="6.70469">
        <ele>409</ele>
        <time>2016-02-28T09:46:21.000Z</time>
      </trkpt>
      <trkpt lat="47.4107" lon="6.70467">
        <ele>409</ele>
        <time>2016-02-28T09:46:22.000Z</time>
      </trkpt>
      <trkpt lat="47.41068" lon="6.70462">
        <ele>409</ele>
        <time>2016-02-28T09:46:24.000Z</time>
      </trkpt>
      <trkpt lat="47.41067" lon="6.7046">
        <ele>409</ele>
        <time>2016-02-28T09:46:25.000Z</time>
      </trkpt>
      <trkpt lat="47.41069" lon="6.70454">
        <ele>409</ele>
        <time>2016-02-28T09:46:28.000Z</time>
      </trkpt>
      <trkpt lat="47.41069" lon="6.70452">
        <ele>409</ele>
        <time>2016-02-28T09:46:29.000Z</time>
      </trkpt>
      <trkpt lat="47.41069" lon="6.70446">
        <ele>409</ele>
        <time>2016-02-28T09:46:32.000Z</time>
      </trkpt>
      <trkpt lat="47.41068" lon="6.70444">
        <ele>409</ele>
        <time>2016-02-28T09:46:33.000Z</time>
      </trkpt>
      <trkpt lat="47.41067" lon="6.7044">
        <ele>408</ele>
        <time>2016-02-28T09:46:35.000Z</time>
      </trkpt>
      <trkpt lat="47.41066" lon="6.70438">
        <ele>408</ele>
        <time>2016-02-28T09:46:36.000Z</time>
      </trkpt>
      <trkpt lat="47.41064" lon="6.70433">
        <ele>408</ele>
        <time>2016-02-28T09:46:39.000Z</time>
      </trkpt>
      <trkpt lat="47.41063" lon="6.70431">
        <ele>408</ele>
        <time>2016-02-28T09:46:40.000Z</time>
      </trkpt>
      <trkpt lat="47.41061" lon="6.70426">
        <ele>408</ele>
        <time>2016-02-28T09:46:43.000Z</time>
      </trkpt>
      <trkpt lat="47.4106" lon="6.70425">
        <ele>408</ele>
        <time>2016-02-28T09:46:44.000Z</time>
      </trkpt>
      <trkpt lat="47.41058" lon="6.70422">
        <ele>409</ele>
        <time>2016-02-28T09:46:46.000Z</time>
      </trkpt>
      <trkpt lat="47.41057" lon="6.70421">
        <ele>409</ele>
        <time>2016-02-28T09:46:47.000Z</time>
      </trkpt>
      <trkpt lat="47.41054" lon="6.70418">
        <ele>409</ele>
        <time>2016-02-28T09:46:49.000Z</time>
      </trkpt>
      <trkpt lat="47.41053" lon="6.70416">
        <ele>408</ele>
        <time>2016-02-28T09:46:50.000Z</time>
      </trkpt>
      <trkpt lat="47.41049" lon="6.70414">
        <ele>408</ele>
        <time>2016-02-28T09:46:52.000Z</time>
      </trkpt>
      <trkpt lat="47.41048" lon="6.70413">
        <ele>408</ele>
        <time>2016-02-28T09:46:53.000Z</time>
      </trkpt>
      <trkpt lat="47.41045" lon="6.7041">
        <ele>409</ele>
        <time>2016-02-28T09:46:55.000Z</time>
      </trkpt>
      <trkpt lat="47.41043" lon="6.70409">
        <ele>409</ele>
        <time>2016-02-28T09:46:56.000Z</time>
      </trkpt>
      <trkpt lat="47.4104" lon="6.70407">
        <ele>409</ele>
        <time>2016-02-28T09:46:58.000Z</time>
      </trkpt>
      <trkpt lat="47.41039" lon="6.70406">
        <ele>409</ele>
        <time>2016-02-28T09:46:59.000Z</time>
      </trkpt>
      <trkpt lat="47.41035" lon="6.70404">
        <ele>409</ele>
        <time>2016-02-28T09:47:01.000Z</time>
      </trkpt>
      <trkpt lat="47.41033" lon="6.70403">
        <ele>409</ele>
        <time>2016-02-28T09:47:02.000Z</time>
      </trkpt>
      <trkpt lat="47.4103" lon="6.70401">
        <ele>410</ele>
        <time>2016-02-28T09:47:04.000Z</time>
      </trkpt>
      <trkpt lat="47.41028" lon="6.704">
        <ele>410</ele>
        <time>2016-02-28T09:47:05.000Z</time>
      </trkpt>
      <trkpt lat="47.41024" lon="6.70399">
        <ele>410</ele>
        <time>2016-02-28T09:47:07.000Z</time>
      </trkpt>
      <trkpt lat="47.41023" lon="6.70398">
        <ele>410</ele>
        <time>2016-02-28T09:47:08.000Z</time>
      </trkpt>
      <trkpt lat="47.41019" lon="6.70397">
        <ele>410</ele>
        <time>2016-02-28T09:47:10.000Z</time>
      </trkpt>
      <trkpt lat="47.41017" lon="6.70396">
        <ele>410</ele>
        <time>2016-02-28T09:47:11.000Z</time>
      </trkpt>
      <trkpt lat="47.41013" lon="6.70395">
        <ele>411</ele>
        <time>2016-02-28T09:47:13.000Z</time>
      </trkpt>
      <trkpt lat="47.41011" lon="6.70394">
        <ele>411</ele>
        <time>2016-02-28T09:47:14.000Z</time>
      </trkpt>
      <trkpt lat="47.41007" lon="6.70393">
        <ele>411</ele>
        <time>2016-02-28T09:47:16.000Z</time>
      </trkpt>
      <trkpt lat="47.41005" lon="6.70393">
        <ele>411</ele>
        <time>2016-02-28T09:47:17.000Z</time>
      </trkpt>
      <trkpt lat="47.41002" lon="6.70392">
        <ele>411</ele>
        <time>2016-02-28T09:47:18.000Z</time>
      </trkpt>
      <trkpt lat="47.41" lon="6.70391">
        <ele>415</ele>
        <time>2016-02-28T09:47:19.000Z</time>
      </trkpt>
      <trkpt lat="47.40996" lon="6.7039">
        <ele>415</ele>
        <time>2016-02-28T09:47:20.000Z</time>
      </trkpt>
      <trkpt lat="47.40993" lon="6.7039">
        <ele>415</ele>
        <time>2016-02-28T09:47:21.000Z</time>
      </trkpt>
      <trkpt lat="47.40991" lon="6.7039">
        <ele>415</ele>
        <time>2016-02-28T09:47:22.000Z</time>
      </trkpt>
      <trkpt lat="47.40988" lon="6.70389">
        <ele>415</ele>
        <time>2016-02-28T09:47:23.000Z</time>
      </trkpt>
      <trkpt lat="47.40986" lon="6.70388">
        <ele>415</ele>
        <time>2016-02-28T09:47:24.000Z</time>
      </trkpt>
      <trkpt lat="47.40984" lon="6.70387">
        <ele>415</ele>
        <time>2016-02-28T09:47:25.000Z</time>
      </trkpt>
      <trkpt lat="47.40979" lon="6.70385">
        <ele>415</ele>
        <time>2016-02-28T09:47:27.000Z</time>
      </trkpt>
      <trkpt lat="47.40977" lon="6.70384">
        <ele>415</ele>
        <time>2016-02-28T09:47:28.000Z</time>
      </trkpt>
      <trkpt lat="47.40974" lon="6.70383">
        <ele>415</ele>
        <time>2016-02-28T09:47:29.000Z</time>
      </trkpt>
      <trkpt lat="47.40972" lon="6.70382">
        <ele>415</ele>
        <time>2016-02-28T09:47:30.000Z</time>
      </trkpt>
      <trkpt lat="47.40969" lon="6.70381">
        <ele>415</ele>
        <time>2016-02-28T09:47:31.000Z</time>
      </trkpt>
      <trkpt lat="47.40967" lon="6.7038">
        <ele>415</ele>
        <time>2016-02-28T09:47:32.000Z</time>
      </trkpt>
      <trkpt lat="47.40963" lon="6.70378">
        <ele>415</ele>
        <time>2016-02-28T09:47:34.000Z</time>
      </trkpt>
      <trkpt lat="47.40961" lon="6.70377">
        <ele>415</ele>
        <time>2016-02-28T09:47:35.000Z</time>
      </trkpt>
      <trkpt lat="47.40957" lon="6.70376">
        <ele>415</ele>
        <time>2016-02-28T09:47:37.000Z</time>
      </trkpt>
      <trkpt lat="47.40955" lon="6.70375">
        <ele>415</ele>
        <time>2016-02-28T09:47:38.000Z</time>
      </trkpt>
      <trkpt lat="47.40952" lon="6.70375">
        <ele>416</ele>
        <time>2016-02-28T09:47:40.000Z</time>
      </trkpt>
      <trkpt lat="47.4095" lon="6.70376">
        <ele>416</ele>
        <time>2016-02-28T09:47:41.000Z</time>
      </trkpt>
      <trkpt lat="47.40946" lon="6.70378">
        <ele>416</ele>
        <time>2016-02-28T09:47:43.000Z</time>
      </trkpt>
      <trkpt lat="47.40944" lon="6.7038">
        <ele>416</ele>
        <time>2016-02-28T09:47:44.000Z</time>
      </trkpt>
      <trkpt lat="47.40943" lon="6.70383">
        <ele>416</ele>
        <time>2016-02-28T09:47:45.000Z</time>
      </trkpt>
      <trkpt lat="47.40941" lon="6.70385">
        <ele>417</ele>
        <time>2016-02-28T09:47:46.000Z</time>
      </trkpt>
      <trkpt lat="47.40939" lon="6.70389">
        <ele>417</ele>
        <time>2016-02-28T09:47:48.000Z</time>
      </trkpt>
      <trkpt lat="47.40938" lon="6.70391">
        <ele>417</ele>
        <time>2016-02-28T09:47:49.000Z</time>
      </trkpt>
      <trkpt lat="47.40936" lon="6.70396">
        <ele>418</ele>
        <time>2016-02-28T09:47:53.000Z</time>
      </trkpt>
      <trkpt lat="47.40936" lon="6.70398">
        <ele>418</ele>
        <time>2016-02-28T09:47:54.000Z</time>
      </trkpt>
      <trkpt lat="47.40936" lon="6.70403">
        <ele>419</ele>
        <time>2016-02-28T09:47:56.000Z</time>
      </trkpt>
      <trkpt lat="47.40937" lon="6.70405">
        <ele>419</ele>
        <time>2016-02-28T09:47:57.000Z</time>
      </trkpt>
      <trkpt lat="47.40938" lon="6.7041">
        <ele>419</ele>
        <time>2016-02-28T09:47:59.000Z</time>
      </trkpt>
      <trkpt lat="47.4094" lon="6.70411">
        <ele>419</ele>
        <time>2016-02-28T09:48:00.000Z</time>
      </trkpt>
      <trkpt lat="47.40942" lon="6.70412">
        <ele>419</ele>
        <time>2016-02-28T09:48:01.000Z</time>
      </trkpt>
      <trkpt lat="47.40945" lon="6.70412">
        <ele>418</ele>
        <time>2016-02-28T09:48:02.000Z</time>
      </trkpt>
      <trkpt lat="47.40947" lon="6.70413">
        <ele>418</ele>
        <time>2016-02-28T09:48:03.000Z</time>
      </trkpt>
      <trkpt lat="47.4095" lon="6.70415">
        <ele>418</ele>
        <time>2016-02-28T09:48:04.000Z</time>
      </trkpt>
      <trkpt lat="47.40951" lon="6.70417">
        <ele>421</ele>
        <time>2016-02-28T09:48:05.000Z</time>
      </trkpt>
      <trkpt lat="47.40953" lon="6.70419">
        <ele>421</ele>
        <time>2016-02-28T09:48:06.000Z</time>
      </trkpt>
      <trkpt lat="47.40954" lon="6.70422">
        <ele>421</ele>
        <time>2016-02-28T09:48:07.000Z</time>
      </trkpt>
      <trkpt lat="47.40956" lon="6.70425">
        <ele>421</ele>
        <time>2016-02-28T09:48:08.000Z</time>
      </trkpt>
      <trkpt lat="47.40957" lon="6.70428">
        <ele>421</ele>
        <time>2016-02-28T09:48:09.000Z</time>
      </trkpt>
      <trkpt lat="47.40958" lon="6.70432">
        <ele>421</ele>
        <time>2016-02-28T09:48:10.000Z</time>
      </trkpt>
      <trkpt lat="47.40958" lon="6.70436">
        <ele>421</ele>
        <time>2016-02-28T09:48:11.000Z</time>
      </trkpt>
      <trkpt lat="47.40959" lon="6.7044">
        <ele>421</ele>
        <time>2016-02-28T09:48:12.000Z</time>
      </trkpt>
      <trkpt lat="47.40959" lon="6.70444">
        <ele>421</ele>
        <time>2016-02-28T09:48:13.000Z</time>
      </trkpt>
      <trkpt lat="47.40959" lon="6.70447">
        <ele>421</ele>
        <time>2016-02-28T09:48:14.000Z</time>
      </trkpt>
      <trkpt lat="47.4096" lon="6.70453">
        <ele>421</ele>
        <time>2016-02-28T09:48:16.000Z</time>
      </trkpt>
      <trkpt lat="47.4096" lon="6.70456">
        <ele>421</ele>
        <time>2016-02-28T09:48:17.000Z</time>
      </trkpt>
      <trkpt lat="47.40959" lon="6.70462">
        <ele>421</ele>
        <time>2016-02-28T09:48:19.000Z</time>
      </trkpt>
      <trkpt lat="47.40958" lon="6.70465">
        <ele>421</ele>
        <time>2016-02-28T09:48:20.000Z</time>
      </trkpt>
      <trkpt lat="47.40957" lon="6.70471">
        <ele>421</ele>
        <time>2016-02-28T09:48:22.000Z</time>
      </trkpt>
      <trkpt lat="47.40957" lon="6.70474">
        <ele>421</ele>
        <time>2016-02-28T09:48:23.000Z</time>
      </trkpt>
      <trkpt lat="47.40956" lon="6.70478">
        <ele>422</ele>
        <time>2016-02-28T09:48:24.000Z</time>
      </trkpt>
      <trkpt lat="47.40955" lon="6.70482">
        <ele>422</ele>
        <time>2016-02-28T09:48:25.000Z</time>
      </trkpt>
      <trkpt lat="47.40953" lon="6.70485">
        <ele>422</ele>
        <time>2016-02-28T09:48:26.000Z</time>
      </trkpt>
      <trkpt lat="47.40952" lon="6.70488">
        <ele>422</ele>
        <time>2016-02-28T09:48:27.000Z</time>
      </trkpt>
      <trkpt lat="47.40949" lon="6.70492">
        <ele>423</ele>
        <time>2016-02-28T09:48:29.000Z</time>
      </trkpt>
      <trkpt lat="47.40948" lon="6.70494">
        <ele>423</ele>
        <time>2016-02-28T09:48:30.000Z</time>
      </trkpt>
      <trkpt lat="47.40946" lon="6.70499">
        <ele>423</ele>
        <time>2016-02-28T09:48:32.000Z</time>
      </trkpt>
      <trkpt lat="47.40946" lon="6.70501">
        <ele>426</ele>
        <time>2016-02-28T09:48:33.000Z</time>
      </trkpt>
      <trkpt lat="47.40945" lon="6.70508">
        <ele>426</ele>
        <time>2016-02-28T09:48:35.000Z</time>
      </trkpt>
      <trkpt lat="47.40945" lon="6.70511">
        <ele>426</ele>
        <time>2016-02-28T09:48:36.000Z</time>
      </trkpt>
      <trkpt lat="47.40945" lon="6.70515">
        <ele>426</ele>
        <time>2016-02-28T09:48:37.000Z</time>
      </trkpt>
      <trkpt lat="47.40945" lon="6.70518">
        <ele>426</ele>
        <time>2016-02-28T09:48:38.000Z</time>
      </trkpt>
      <trkpt lat="47.40945" lon="6.70522">
        <ele>426</ele>
        <time>2016-02-28T09:48:39.000Z</time>
      </trkpt>
      <trkpt lat="47.40944" lon="6.70525">
        <ele>427</ele>
        <time>2016-02-28T09:48:40.000Z</time>
      </trkpt>
      <trkpt lat="47.40944" lon="6.70529">
        <ele>427</ele>
        <time>2016-02-28T09:48:41.000Z</time>
      </trkpt>
      <trkpt lat="47.40944" lon="6.70532">
        <ele>427</ele>
        <time>2016-02-28T09:48:42.000Z</time>
      </trkpt>
      <trkpt lat="47.40944" lon="6.70539">
        <ele>427</ele>
        <time>2016-02-28T09:48:44.000Z</time>
      </trkpt>
      <trkpt lat="47.40945" lon="6.70542">
        <ele>427</ele>
        <time>2016-02-28T09:48:45.000Z</time>
      </trkpt>
      <trkpt lat="47.40945" lon="6.70546">
        <ele>427</ele>
        <time>2016-02-28T09:48:46.000Z</time>
      </trkpt>
      <trkpt lat="47.40946" lon="6.7055">
        <ele>427</ele>
        <time>2016-02-28T09:48:47.000Z</time>
      </trkpt>
      <trkpt lat="47.40946" lon="6.70553">
        <ele>428</ele>
        <time>2016-02-28T09:48:48.000Z</time>
      </trkpt>
      <trkpt lat="47.40947" lon="6.70557">
        <ele>428</ele>
        <time>2016-02-28T09:48:49.000Z</time>
      </trkpt>
      <trkpt lat="47.40948" lon="6.70561">
        <ele>428</ele>
        <time>2016-02-28T09:48:50.000Z</time>
      </trkpt>
      <trkpt lat="47.40948" lon="6.70564">
        <ele>428</ele>
        <time>2016-02-28T09:48:51.000Z</time>
      </trkpt>
      <trkpt lat="47.40949" lon="6.70568">
        <ele>428</ele>
        <time>2016-02-28T09:48:52.000Z</time>
      </trkpt>
      <trkpt lat="47.40949" lon="6.70571">
        <ele>428</ele>
        <time>2016-02-28T09:48:53.000Z</time>
      </trkpt>
      <trkpt lat="47.4095" lon="6.70577">
        <ele>428</ele>
        <time>2016-02-28T09:48:55.000Z</time>
      </trkpt>
      <trkpt lat="47.40951" lon="6.7058">
        <ele>428</ele>
        <time>2016-02-28T09:48:56.000Z</time>
      </trkpt>
      <trkpt lat="47.40952" lon="6.70586">
        <ele>431</ele>
        <time>2016-02-28T09:48:58.000Z</time>
      </trkpt>
      <trkpt lat="47.40952" lon="6.7059">
        <ele>431</ele>
        <time>2016-02-28T09:48:59.000Z</time>
      </trkpt>
      <trkpt lat="47.40951" lon="6.70593">
        <ele>431</ele>
        <time>2016-02-28T09:49:00.000Z</time>
      </trkpt>
      <trkpt lat="47.40951" lon="6.70597">
        <ele>431</ele>
        <time>2016-02-28T09:49:01.000Z</time>
      </trkpt>
      <trkpt lat="47.40951" lon="6.70601">
        <ele>431</ele>
        <time>2016-02-28T09:49:02.000Z</time>
      </trkpt>
      <trkpt lat="47.40951" lon="6.70605">
        <ele>431</ele>
        <time>2016-02-28T09:49:03.000Z</time>
      </trkpt>
      <trkpt lat="47.40951" lon="6.70609">
        <ele>431</ele>
        <time>2016-02-28T09:49:04.000Z</time>
      </trkpt>
      <trkpt lat="47.40951" lon="6.70613">
        <ele>431</ele>
        <time>2016-02-28T09:49:05.000Z</time>
      </trkpt>
      <trkpt lat="47.40951" lon="6.70617">
        <ele>431</ele>
        <time>2016-02-28T09:49:06.000Z</time>
      </trkpt>
      <trkpt lat="47.40951" lon="6.70621">
        <ele>431</ele>
        <time>2016-02-28T09:49:07.000Z</time>
      </trkpt>
      <trkpt lat="47.40952" lon="6.70625">
        <ele>431</ele>
        <time>2016-02-28T09:49:08.000Z</time>
      </trkpt>
      <trkpt lat="47.40952" lon="6.70629">
        <ele>431</ele>
        <time>2016-02-28T09:49:09.000Z</time>
      </trkpt>
      <trkpt lat="47.40951" lon="6.70635">
        <ele>431</ele>
        <time>2016-02-28T09:49:11.000Z</time>
      </trkpt>
      <trkpt lat="47.40951" lon="6.70638">
        <ele>431</ele>
        <time>2016-02-28T09:49:12.000Z</time>
      </trkpt>
      <trkpt lat="47.40951" lon="6.70644">
        <ele>431</ele>
        <time>2016-02-28T09:49:14.000Z</time>
      </trkpt>
      <trkpt lat="47.4095" lon="6.70648">
        <ele>432</ele>
        <time>2016-02-28T09:49:15.000Z</time>
      </trkpt>
      <trkpt lat="47.4095" lon="6.70651">
        <ele>432</ele>
        <time>2016-02-28T09:49:16.000Z</time>
      </trkpt>
      <trkpt lat="47.4095" lon="6.70655">
        <ele>432</ele>
        <time>2016-02-28T09:49:17.000Z</time>
      </trkpt>
      <trkpt lat="47.40949" lon="6.70661">
        <ele>432</ele>
        <time>2016-02-28T09:49:19.000Z</time>
      </trkpt>
      <trkpt lat="47.40949" lon="6.70664">
        <ele>432</ele>
        <time>2016-02-28T09:49:20.000Z</time>
      </trkpt>
      <trkpt lat="47.40949" lon="6.70667">
        <ele>432</ele>
        <time>2016-02-28T09:49:21.000Z</time>
      </trkpt>
      <trkpt lat="47.40949" lon="6.70671">
        <ele>432</ele>
        <time>2016-02-28T09:49:22.000Z</time>
      </trkpt>
      <trkpt lat="47.40948" lon="6.70674">
        <ele>432</ele>
        <time>2016-02-28T09:49:23.000Z</time>
      </trkpt>
      <trkpt lat="47.40948" lon="6.70678">
        <ele>432</ele>
        <time>2016-02-28T09:49:24.000Z</time>
      </trkpt>
      <trkpt lat="47.40947" lon="6.70681">
        <ele>432</ele>
        <time>2016-02-28T09:49:25.000Z</time>
      </trkpt>
      <trkpt lat="47.40947" lon="6.70684">
        <ele>432</ele>
        <time>2016-02-28T09:49:26.000Z</time>
      </trkpt>
      <trkpt lat="47.40946" lon="6.70691">
        <ele>432</ele>
        <time>2016-02-28T09:49:28.000Z</time>
      </trkpt>
      <trkpt lat="47.40945" lon="6.70694">
        <ele>432</ele>
        <time>2016-02-28T09:49:29.000Z</time>
      </trkpt>
      <trkpt lat="47.40945" lon="6.70697">
        <ele>432</ele>
        <time>2016-02-28T09:49:30.000Z</time>
      </trkpt>
      <trkpt lat="47.40945" lon="6.70701">
        <ele>432</ele>
        <time>2016-02-28T09:49:31.000Z</time>
      </trkpt>
      <trkpt lat="47.40945" lon="6.70705">
        <ele>432</ele>
        <time>2016-02-28T09:49:32.000Z</time>
      </trkpt>
      <trkpt lat="47.40945" lon="6.70709">
        <ele>432</ele>
        <time>2016-02-28T09:49:33.000Z</time>
      </trkpt>
      <trkpt lat="47.40945" lon="6.70713">
        <ele>432</ele>
        <time>2016-02-28T09:49:34.000Z</time>
      </trkpt>
      <trkpt lat="47.40945" lon="6.70717">
        <ele>432</ele>
        <time>2016-02-28T09:49:35.000Z</time>
      </trkpt>
      <trkpt lat="47.40945" lon="6.7072">
        <ele>432</ele>
        <time>2016-02-28T09:49:36.000Z</time>
      </trkpt>
      <trkpt lat="47.40945" lon="6.70724">
        <ele>432</ele>
        <time>2016-02-28T09:49:37.000Z</time>
      </trkpt>
      <trkpt lat="47.40945" lon="6.70727">
        <ele>432</ele>
        <time>2016-02-28T09:49:38.000Z</time>
      </trkpt>
      <trkpt lat="47.40945" lon="6.70731">
        <ele>432</ele>
        <time>2016-02-28T09:49:39.000Z</time>
      </trkpt>
      <trkpt lat="47.40944" lon="6.70735">
        <ele>432</ele>
        <time>2016-02-28T09:49:39.999Z</time>
      </trkpt>
      <trkpt lat="47.40944" lon="6.70738">
        <ele>432</ele>
        <time>2016-02-28T09:49:41.000Z</time>
      </trkpt>
      <trkpt lat="47.40944" lon="6.70742">
        <ele>432</ele>
        <time>2016-02-28T09:49:41.999Z</time>
      </trkpt>
      <trkpt lat="47.40944" lon="6.70745">
        <ele>432</ele>
        <time>2016-02-28T09:49:43.000Z</time>
      </trkpt>
      <trkpt lat="47.40944" lon="6.70749">
        <ele>432</ele>
        <time>2016-02-28T09:49:44.000Z</time>
      </trkpt>
      <trkpt lat="47.40943" lon="6.70753">
        <ele>431</ele>
        <time>2016-02-28T09:49:45.001Z</time>
      </trkpt>
      <trkpt lat="47.40943" lon="6.70756">
        <ele>431</ele>
        <time>2016-02-28T09:49:46.000Z</time>
      </trkpt>
      <trkpt lat="47.40942" lon="6.70759">
        <ele>431</ele>
        <time>2016-02-28T09:49:47.000Z</time>
      </trkpt>
      <trkpt lat="47.40941" lon="6.70765">
        <ele>431</ele>
        <time>2016-02-28T09:49:49.000Z</time>
      </trkpt>
      <trkpt lat="47.40941" lon="6.70769">
        <ele>431</ele>
        <time>2016-02-28T09:49:50.000Z</time>
      </trkpt>
      <trkpt lat="47.4094" lon="6.70772">
        <ele>431</ele>
        <time>2016-02-28T09:49:51.000Z</time>
      </trkpt>
      <trkpt lat="47.4094" lon="6.70775">
        <ele>431</ele>
        <time>2016-02-28T09:49:52.000Z</time>
      </trkpt>
      <trkpt lat="47.40938" lon="6.7078">
        <ele>431</ele>
        <time>2016-02-28T09:49:54.000Z</time>
      </trkpt>
      <trkpt lat="47.40937" lon="6.70782">
        <ele>431</ele>
        <time>2016-02-28T09:49:55.000Z</time>
      </trkpt>
      <trkpt lat="47.40936" lon="6.70785">
        <ele>431</ele>
        <time>2016-02-28T09:49:56.000Z</time>
      </trkpt>
      <trkpt lat="47.40934" lon="6.70788">
        <ele>431</ele>
        <time>2016-02-28T09:49:57.000Z</time>
      </trkpt>
      <trkpt lat="47.40932" lon="6.70792">
        <ele>431</ele>
        <time>2016-02-28T09:49:58.001Z</time>
      </trkpt>
      <trkpt lat="47.40931" lon="6.70795">
        <ele>431</ele>
        <time>2016-02-28T09:49:59.000Z</time>
      </trkpt>
      <trkpt lat="47.40929" lon="6.70798">
        <ele>432</ele>
        <time>2016-02-28T09:50:00.000Z</time>
      </trkpt>
      <trkpt lat="47.40928" lon="6.708">
        <ele>432</ele>
        <time>2016-02-28T09:50:01.000Z</time>
      </trkpt>
      <trkpt lat="47.40926" lon="6.70802">
        <ele>432</ele>
        <time>2016-02-28T09:50:02.000Z</time>
      </trkpt>
      <trkpt lat="47.40924" lon="6.70804">
        <ele>433</ele>
        <time>2016-02-28T09:50:03.000Z</time>
      </trkpt>
      <trkpt lat="47.40922" lon="6.70807">
        <ele>433</ele>
        <time>2016-02-28T09:50:04.000Z</time>
      </trkpt>
      <trkpt lat="47.4092" lon="6.70809">
        <ele>433</ele>
        <time>2016-02-28T09:50:05.000Z</time>
      </trkpt>
      <trkpt lat="47.40919" lon="6.70812">
        <ele>434</ele>
        <time>2016-02-28T09:50:06.000Z</time>
      </trkpt>
      <trkpt lat="47.40917" lon="6.70815">
        <ele>442</ele>
        <time>2016-02-28T09:50:07.000Z</time>
      </trkpt>
      <trkpt lat="47.40915" lon="6.70818">
        <ele>442</ele>
        <time>2016-02-28T09:50:08.000Z</time>
      </trkpt>
      <trkpt lat="47.40913" lon="6.70821">
        <ele>442</ele>
        <time>2016-02-28T09:50:08.999Z</time>
      </trkpt>
      <trkpt lat="47.4091" lon="6.70824">
        <ele>442</ele>
        <time>2016-02-28T09:50:11.000Z</time>
      </trkpt>
      <trkpt lat="47.40909" lon="6.70825">
        <ele>442</ele>
        <time>2016-02-28T09:50:12.000Z</time>
      </trkpt>
      <trkpt lat="47.40906" lon="6.70827">
        <ele>442</ele>
        <time>2016-02-28T09:50:13.000Z</time>
      </trkpt>
      <trkpt lat="47.40904" lon="6.70828">
        <ele>442</ele>
        <time>2016-02-28T09:50:14.000Z</time>
      </trkpt>
      <trkpt lat="47.40902" lon="6.7083">
        <ele>442</ele>
        <time>2016-02-28T09:50:15.000Z</time>
      </trkpt>
      <trkpt lat="47.40899" lon="6.70832">
        <ele>442</ele>
        <time>2016-02-28T09:50:16.000Z</time>
      </trkpt>
      <trkpt lat="47.40897" lon="6.70833">
        <ele>442</ele>
        <time>2016-02-28T09:50:17.000Z</time>
      </trkpt>
      <trkpt lat="47.40894" lon="6.70834">
        <ele>443</ele>
        <time>2016-02-28T09:50:18.000Z</time>
      </trkpt>
      <trkpt lat="47.40891" lon="6.70834">
        <ele>443</ele>
        <time>2016-02-28T09:50:19.000Z</time>
      </trkpt>
      <trkpt lat="47.40889" lon="6.70835">
        <ele>443</ele>
        <time>2016-02-28T09:50:20.000Z</time>
      </trkpt>
      <trkpt lat="47.40887" lon="6.70836">
        <ele>444</ele>
        <time>2016-02-28T09:50:21.000Z</time>
      </trkpt>
      <trkpt lat="47.40885" lon="6.70838">
        <ele>444</ele>
        <time>2016-02-28T09:50:22.000Z</time>
      </trkpt>
      <trkpt lat="47.40883" lon="6.7084">
        <ele>444</ele>
        <time>2016-02-28T09:50:23.000Z</time>
      </trkpt>
      <trkpt lat="47.40881" lon="6.70843">
        <ele>444</ele>
        <time>2016-02-28T09:50:24.000Z</time>
      </trkpt>
      <trkpt lat="47.40879" lon="6.70845">
        <ele>444</ele>
        <time>2016-02-28T09:50:25.000Z</time>
      </trkpt>
      <trkpt lat="47.40877" lon="6.70847">
        <ele>444</ele>
        <time>2016-02-28T09:50:26.000Z</time>
      </trkpt>
      <trkpt lat="47.40875" lon="6.70849">
        <ele>444</ele>
        <time>2016-02-28T09:50:27.000Z</time>
      </trkpt>
      <trkpt lat="47.40873" lon="6.70851">
        <ele>444</ele>
        <time>2016-02-28T09:50:28.000Z</time>
      </trkpt>
      <trkpt lat="47.40871" lon="6.70853">
        <ele>445</ele>
        <time>2016-02-28T09:50:29.000Z</time>
      </trkpt>
      <trkpt lat="47.40869" lon="6.70855">
        <ele>445</ele>
        <time>2016-02-28T09:50:30.000Z</time>
      </trkpt>
      <trkpt lat="47.40866" lon="6.70857">
        <ele>445</ele>
        <time>2016-02-28T09:50:31.000Z</time>
      </trkpt>
      <trkpt lat="47.40864" lon="6.70859">
        <ele>445</ele>
        <time>2016-02-28T09:50:32.000Z</time>
      </trkpt>
      <trkpt lat="47.40862" lon="6.70862">
        <ele>445</ele>
        <time>2016-02-28T09:50:33.000Z</time>
      </trkpt>
      <trkpt lat="47.4086" lon="6.70864">
        <ele>445</ele>
        <time>2016-02-28T09:50:34.000Z</time>
      </trkpt>
      <trkpt lat="47.40858" lon="6.70867">
        <ele>445</ele>
        <time>2016-02-28T09:50:35.000Z</time>
      </trkpt>
      <trkpt lat="47.40857" lon="6.70869">
        <ele>445</ele>
        <time>2016-02-28T09:50:36.000Z</time>
      </trkpt>
      <trkpt lat="47.40855" lon="6.70872">
        <ele>445</ele>
        <time>2016-02-28T09:50:37.000Z</time>
      </trkpt>
      <trkpt lat="47.40854" lon="6.70875">
        <ele>445</ele>
        <time>2016-02-28T09:50:38.000Z</time>
      </trkpt>
      <trkpt lat="47.40851" lon="6.70879">
        <ele>445</ele>
        <time>2016-02-28T09:50:40.000Z</time>
      </trkpt>
      <trkpt lat="47.4085" lon="6.70882">
        <ele>445</ele>
        <time>2016-02-28T09:50:41.000Z</time>
      </trkpt>
      <trkpt lat="47.40848" lon="6.70888">
        <ele>445</ele>
        <time>2016-02-28T09:50:43.000Z</time>
      </trkpt>
      <trkpt lat="47.40847" lon="6.70891">
        <ele>446</ele>
        <time>2016-02-28T09:50:44.000Z</time>
      </trkpt>
      <trkpt lat="47.40846" lon="6.70898">
        <ele>446</ele>
        <time>2016-02-28T09:50:46.000Z</time>
      </trkpt>
      <trkpt lat="47.40845" lon="6.70901">
        <ele>446</ele>
        <time>2016-02-28T09:50:47.000Z</time>
      </trkpt>
      <trkpt lat="47.40844" lon="6.70907">
        <ele>446</ele>
        <time>2016-02-28T09:50:49.000Z</time>
      </trkpt>
      <trkpt lat="47.40843" lon="6.7091">
        <ele>447</ele>
        <time>2016-02-28T09:50:50.000Z</time>
      </trkpt>
      <trkpt lat="47.40842" lon="6.70915">
        <ele>447</ele>
        <time>2016-02-28T09:50:52.000Z</time>
      </trkpt>
      <trkpt lat="47.40842" lon="6.70918">
        <ele>446</ele>
        <time>2016-02-28T09:50:53.000Z</time>
      </trkpt>
      <trkpt lat="47.40841" lon="6.70924">
        <ele>445</ele>
        <time>2016-02-28T09:50:55.000Z</time>
      </trkpt>
      <trkpt lat="47.40841" lon="6.70927">
        <ele>445</ele>
        <time>2016-02-28T09:50:56.000Z</time>
      </trkpt>
      <trkpt lat="47.4084" lon="6.70933">
        <ele>444</ele>
        <time>2016-02-28T09:50:58.000Z</time>
      </trkpt>
      <trkpt lat="47.4084" lon="6.70935">
        <ele>444</ele>
        <time>2016-02-28T09:50:59.000Z</time>
      </trkpt>
      <trkpt lat="47.40839" lon="6.7094">
        <ele>443</ele>
        <time>2016-02-28T09:51:01.000Z</time>
      </trkpt>
      <trkpt lat="47.40839" lon="6.70943">
        <ele>443</ele>
        <time>2016-02-28T09:51:02.000Z</time>
      </trkpt>
      <trkpt lat="47.40838" lon="6.70949">
        <ele>443</ele>
        <time>2016-02-28T09:51:04.000Z</time>
      </trkpt>
      <trkpt lat="47.40837" lon="6.70952">
        <ele>442</ele>
        <time>2016-02-28T09:51:05.000Z</time>
      </trkpt>
      <trkpt lat="47.40836" lon="6.70958">
        <ele>442</ele>
        <time>2016-02-28T09:51:07.000Z</time>
      </trkpt>
      <trkpt lat="47.40835" lon="6.7096">
        <ele>442</ele>
        <time>2016-02-28T09:51:08.000Z</time>
      </trkpt>
      <trkpt lat="47.40833" lon="6.70966">
        <ele>447</ele>
        <time>2016-02-28T09:51:10.000Z</time>
      </trkpt>
      <trkpt lat="47.40832" lon="6.70968">
        <ele>446</ele>
        <time>2016-02-28T09:51:11.000Z</time>
      </trkpt>
      <trkpt lat="47.40829" lon="6.70973">
        <ele>446</ele>
        <time>2016-02-28T09:51:13.000Z</time>
      </trkpt>
      <trkpt lat="47.40827" lon="6.70975">
        <ele>446</ele>
        <time>2016-02-28T09:51:14.000Z</time>
      </trkpt>
      <trkpt lat="47.40824" lon="6.70977">
        <ele>446</ele>
        <time>2016-02-28T09:51:16.000Z</time>
      </trkpt>
      <trkpt lat="47.40821" lon="6.70978">
        <ele>446</ele>
        <time>2016-02-28T09:51:17.000Z</time>
      </trkpt>
      <trkpt lat="47.40817" lon="6.70979">
        <ele>446</ele>
        <time>2016-02-28T09:51:19.000Z</time>
      </trkpt>
      <trkpt lat="47.40815" lon="6.7098">
        <ele>446</ele>
        <time>2016-02-28T09:51:20.000Z</time>
      </trkpt>
      <trkpt lat="47.40812" lon="6.7098">
        <ele>446</ele>
        <time>2016-02-28T09:51:21.000Z</time>
      </trkpt>
      <trkpt lat="47.40809" lon="6.7098">
        <ele>447</ele>
        <time>2016-02-28T09:51:22.000Z</time>
      </trkpt>
      <trkpt lat="47.40807" lon="6.70979">
        <ele>447</ele>
        <time>2016-02-28T09:51:23.000Z</time>
      </trkpt>
      <trkpt lat="47.40804" lon="6.70979">
        <ele>447</ele>
        <time>2016-02-28T09:51:24.000Z</time>
      </trkpt>
      <trkpt lat="47.408" lon="6.7098">
        <ele>447</ele>
        <time>2016-02-28T09:51:26.000Z</time>
      </trkpt>
      <trkpt lat="47.40798" lon="6.70981">
        <ele>447</ele>
        <time>2016-02-28T09:51:27.000Z</time>
      </trkpt>
      <trkpt lat="47.40795" lon="6.70982">
        <ele>447</ele>
        <time>2016-02-28T09:51:29.000Z</time>
      </trkpt>
      <trkpt lat="47.40793" lon="6.70982">
        <ele>447</ele>
        <time>2016-02-28T09:51:30.000Z</time>
      </trkpt>
      <trkpt lat="47.40788" lon="6.70982">
        <ele>448</ele>
        <time>2016-02-28T09:51:32.000Z</time>
      </trkpt>
      <trkpt lat="47.40786" lon="6.70982">
        <ele>448</ele>
        <time>2016-02-28T09:51:33.000Z</time>
      </trkpt>
      <trkpt lat="47.40784" lon="6.70981">
        <ele>448</ele>
        <time>2016-02-28T09:51:34.000Z</time>
      </trkpt>
      <trkpt lat="47.40781" lon="6.7098">
        <ele>448</ele>
        <time>2016-02-28T09:51:35.000Z</time>
      </trkpt>
      <trkpt lat="47.40777" lon="6.70979">
        <ele>448</ele>
        <time>2016-02-28T09:51:37.000Z</time>
      </trkpt>
      <trkpt lat="47.40775" lon="6.70978">
        <ele>448</ele>
        <time>2016-02-28T09:51:38.000Z</time>
      </trkpt>
      <trkpt lat="47.40771" lon="6.70975">
        <ele>448</ele>
        <time>2016-02-28T09:51:40.000Z</time>
      </trkpt>
      <trkpt lat="47.40769" lon="6.70974">
        <ele>448</ele>
        <time>2016-02-28T09:51:41.000Z</time>
      </trkpt>
      <trkpt lat="47.40765" lon="6.70972">
        <ele>449</ele>
        <time>2016-02-28T09:51:43.000Z</time>
      </trkpt>
      <trkpt lat="47.40763" lon="6.70971">
        <ele>449</ele>
        <time>2016-02-28T09:51:44.000Z</time>
      </trkpt>
      <trkpt lat="47.40759" lon="6.70969">
        <ele>449</ele>
        <time>2016-02-28T09:51:46.000Z</time>
      </trkpt>
      <trkpt lat="47.40757" lon="6.70968">
        <ele>449</ele>
        <time>2016-02-28T09:51:47.000Z</time>
      </trkpt>
      <trkpt lat="47.40753" lon="6.70966">
        <ele>449</ele>
        <time>2016-02-28T09:51:49.000Z</time>
      </trkpt>
      <trkpt lat="47.40751" lon="6.70965">
        <ele>449</ele>
        <time>2016-02-28T09:51:50.000Z</time>
      </trkpt>
      <trkpt lat="47.40748" lon="6.70962">
        <ele>453</ele>
        <time>2016-02-28T09:51:52.000Z</time>
      </trkpt>
      <trkpt lat="47.40746" lon="6.70961">
        <ele>453</ele>
        <time>2016-02-28T09:51:53.000Z</time>
      </trkpt>
      <trkpt lat="47.40744" lon="6.7096">
        <ele>453</ele>
        <time>2016-02-28T09:51:54.000Z</time>
      </trkpt>
      <trkpt lat="47.40742" lon="6.70958">
        <ele>453</ele>
        <time>2016-02-28T09:51:55.000Z</time>
      </trkpt>
      <trkpt lat="47.40738" lon="6.70956">
        <ele>454</ele>
        <time>2016-02-28T09:51:57.000Z</time>
      </trkpt>
      <trkpt lat="47.40736" lon="6.70955">
        <ele>454</ele>
        <time>2016-02-28T09:51:58.000Z</time>
      </trkpt>
      <trkpt lat="47.40732" lon="6.70952">
        <ele>454</ele>
        <time>2016-02-28T09:52:00.000Z</time>
      </trkpt>
      <trkpt lat="47.40731" lon="6.70951">
        <ele>454</ele>
        <time>2016-02-28T09:52:01.000Z</time>
      </trkpt>
      <trkpt lat="47.40727" lon="6.70949">
        <ele>454</ele>
        <time>2016-02-28T09:52:03.000Z</time>
      </trkpt>
      <trkpt lat="47.40725" lon="6.70949">
        <ele>454</ele>
        <time>2016-02-28T09:52:04.000Z</time>
      </trkpt>
      <trkpt lat="47.40723" lon="6.70948">
        <ele>454</ele>
        <time>2016-02-28T09:52:05.000Z</time>
      </trkpt>
      <trkpt lat="47.4072" lon="6.70947">
        <ele>454</ele>
        <time>2016-02-28T09:52:06.000Z</time>
      </trkpt>
      <trkpt lat="47.40718" lon="6.70946">
        <ele>454</ele>
        <time>2016-02-28T09:52:07.000Z</time>
      </trkpt>
      <trkpt lat="47.40715" lon="6.70944">
        <ele>455</ele>
        <time>2016-02-28T09:52:08.000Z</time>
      </trkpt>
      <trkpt lat="47.40713" lon="6.70943">
        <ele>455</ele>
        <time>2016-02-28T09:52:09.000Z</time>
      </trkpt>
      <trkpt lat="47.40711" lon="6.70942">
        <ele>455</ele>
        <time>2016-02-28T09:52:10.000Z</time>
      </trkpt>
      <trkpt lat="47.40707" lon="6.70939">
        <ele>455</ele>
        <time>2016-02-28T09:52:12.000Z</time>
      </trkpt>
      <trkpt lat="47.40705" lon="6.70938">
        <ele>455</ele>
        <time>2016-02-28T09:52:13.000Z</time>
      </trkpt>
      <trkpt lat="47.40702" lon="6.70935">
        <ele>456</ele>
        <time>2016-02-28T09:52:15.000Z</time>
      </trkpt>
      <trkpt lat="47.407" lon="6.70933">
        <ele>456</ele>
        <time>2016-02-28T09:52:16.000Z</time>
      </trkpt>
      <trkpt lat="47.40696" lon="6.7093">
        <ele>456</ele>
        <time>2016-02-28T09:52:18.000Z</time>
      </trkpt>
      <trkpt lat="47.40694" lon="6.70928">
        <ele>456</ele>
        <time>2016-02-28T09:52:19.000Z</time>
      </trkpt>
      <trkpt lat="47.40692" lon="6.70927">
        <ele>457</ele>
        <time>2016-02-28T09:52:20.000Z</time>
      </trkpt>
      <trkpt lat="47.40689" lon="6.70926">
        <ele>457</ele>
        <time>2016-02-28T09:52:21.000Z</time>
      </trkpt>
      <trkpt lat="47.40685" lon="6.70924">
        <ele>457</ele>
        <time>2016-02-28T09:52:23.000Z</time>
      </trkpt>
      <trkpt lat="47.40683" lon="6.70922">
        <ele>458</ele>
        <time>2016-02-28T09:52:24.000Z</time>
      </trkpt>
      <trkpt lat="47.4068" lon="6.70917">
        <ele>458</ele>
        <time>2016-02-28T09:52:26.000Z</time>
      </trkpt>
      <trkpt lat="47.40679" lon="6.70915">
        <ele>460</ele>
        <time>2016-02-28T09:52:27.000Z</time>
      </trkpt>
      <trkpt lat="47.40676" lon="6.70911">
        <ele>460</ele>
        <time>2016-02-28T09:52:29.000Z</time>
      </trkpt>
      <trkpt lat="47.40674" lon="6.70909">
        <ele>460</ele>
        <time>2016-02-28T09:52:30.000Z</time>
      </trkpt>
      <trkpt lat="47.40671" lon="6.70905">
        <ele>460</ele>
        <time>2016-02-28T09:52:32.000Z</time>
      </trkpt>
      <trkpt lat="47.40668" lon="6.70904">
        <ele>460</ele>
        <time>2016-02-28T09:52:33.000Z</time>
      </trkpt>
      <trkpt lat="47.40665" lon="6.70903">
        <ele>461</ele>
        <time>2016-02-28T09:52:34.000Z</time>
      </trkpt>
      <trkpt lat="47.40663" lon="6.70902">
        <ele>461</ele>
        <time>2016-02-28T09:52:35.000Z</time>
      </trkpt>
      <trkpt lat="47.40659" lon="6.70899">
        <ele>461</ele>
        <time>2016-02-28T09:52:37.000Z</time>
      </trkpt>
      <trkpt lat="47.40657" lon="6.70897">
        <ele>461</ele>
        <time>2016-02-28T09:52:38.000Z</time>
      </trkpt>
      <trkpt lat="47.40654" lon="6.70896">
        <ele>461</ele>
        <time>2016-02-28T09:52:39.000Z</time>
      </trkpt>
      <trkpt lat="47.40652" lon="6.70895">
        <ele>461</ele>
        <time>2016-02-28T09:52:40.000Z</time>
      </trkpt>
      <trkpt lat="47.40649" lon="6.70893">
        <ele>461</ele>
        <time>2016-02-28T09:52:41.000Z</time>
      </trkpt>
      <trkpt lat="47.40646" lon="6.70891">
        <ele>461</ele>
        <time>2016-02-28T09:52:42.000Z</time>
      </trkpt>
      <trkpt lat="47.40644" lon="6.7089">
        <ele>461</ele>
        <time>2016-02-28T09:52:43.000Z</time>
      </trkpt>
      <trkpt lat="47.40642" lon="6.70887">
        <ele>461</ele>
        <time>2016-02-28T09:52:44.000Z</time>
      </trkpt>
      <trkpt lat="47.40639" lon="6.70884">
        <ele>461</ele>
        <time>2016-02-28T09:52:46.000Z</time>
      </trkpt>
      <trkpt lat="47.40637" lon="6.70882">
        <ele>461</ele>
        <time>2016-02-28T09:52:47.000Z</time>
      </trkpt>
      <trkpt lat="47.40635" lon="6.7088">
        <ele>461</ele>
        <time>2016-02-28T09:52:48.000Z</time>
      </trkpt>
      <trkpt lat="47.40632" lon="6.70878">
        <ele>461</ele>
        <time>2016-02-28T09:52:49.000Z</time>
      </trkpt>
      <trkpt lat="47.4063" lon="6.70876">
        <ele>461</ele>
        <time>2016-02-28T09:52:50.000Z</time>
      </trkpt>
      <trkpt lat="47.40627" lon="6.70875">
        <ele>461</ele>
        <time>2016-02-28T09:52:51.000Z</time>
      </trkpt>
      <trkpt lat="47.40625" lon="6.70873">
        <ele>461</ele>
        <time>2016-02-28T09:52:52.000Z</time>
      </trkpt>
      <trkpt lat="47.40623" lon="6.70871">
        <ele>461</ele>
        <time>2016-02-28T09:52:53.000Z</time>
      </trkpt>
      <trkpt lat="47.4062" lon="6.70869">
        <ele>461</ele>
        <time>2016-02-28T09:52:54.000Z</time>
      </trkpt>
      <trkpt lat="47.40619" lon="6.70867">
        <ele>461</ele>
        <time>2016-02-28T09:52:55.000Z</time>
      </trkpt>
      <trkpt lat="47.40615" lon="6.70862">
        <ele>461</ele>
        <time>2016-02-28T09:52:57.000Z</time>
      </trkpt>
      <trkpt lat="47.40614" lon="6.7086">
        <ele>461</ele>
        <time>2016-02-28T09:52:58.000Z</time>
      </trkpt>
      <trkpt lat="47.40612" lon="6.70858">
        <ele>461</ele>
        <time>2016-02-28T09:52:59.000Z</time>
      </trkpt>
      <trkpt lat="47.4061" lon="6.70856">
        <ele>461</ele>
        <time>2016-02-28T09:53:00.000Z</time>
      </trkpt>
      <trkpt lat="47.40608" lon="6.70853">
        <ele>461</ele>
        <time>2016-02-28T09:53:01.000Z</time>
      </trkpt>
      <trkpt lat="47.40605" lon="6.70851">
        <ele>461</ele>
        <time>2016-02-28T09:53:02.000Z</time>
      </trkpt>
      <trkpt lat="47.40603" lon="6.70849">
        <ele>461</ele>
        <time>2016-02-28T09:53:03.000Z</time>
      </trkpt>
      <trkpt lat="47.40601" lon="6.70847">
        <ele>461</ele>
        <time>2016-02-28T09:53:04.000Z</time>
      </trkpt>
      <trkpt lat="47.40599" lon="6.70845">
        <ele>461</ele>
        <time>2016-02-28T09:53:05.000Z</time>
      </trkpt>
      <trkpt lat="47.40597" lon="6.70843">
        <ele>461</ele>
        <time>2016-02-28T09:53:06.000Z</time>
      </trkpt>
      <trkpt lat="47.40594" lon="6.70841">
        <ele>461</ele>
        <time>2016-02-28T09:53:07.000Z</time>
      </trkpt>
      <trkpt lat="47.40592" lon="6.70839">
        <ele>461</ele>
        <time>2016-02-28T09:53:08.000Z</time>
      </trkpt>
      <trkpt lat="47.4059" lon="6.70838">
        <ele>461</ele>
        <time>2016-02-28T09:53:09.000Z</time>
      </trkpt>
      <trkpt lat="47.40587" lon="6.70836">
        <ele>461</ele>
        <time>2016-02-28T09:53:10.000Z</time>
      </trkpt>
      <trkpt lat="47.40585" lon="6.70835">
        <ele>461</ele>
        <time>2016-02-28T09:53:11.000Z</time>
      </trkpt>
      <trkpt lat="47.40582" lon="6.70834">
        <ele>461</ele>
        <time>2016-02-28T09:53:12.000Z</time>
      </trkpt>
      <trkpt lat="47.4058" lon="6.70832">
        <ele>462</ele>
        <time>2016-02-28T09:53:13.000Z</time>
      </trkpt>
      <trkpt lat="47.40578" lon="6.70831">
        <ele>462</ele>
        <time>2016-02-28T09:53:14.000Z</time>
      </trkpt>
      <trkpt lat="47.40574" lon="6.70828">
        <ele>462</ele>
        <time>2016-02-28T09:53:16.000Z</time>
      </trkpt>
      <trkpt lat="47.40571" lon="6.70827">
        <ele>463</ele>
        <time>2016-02-28T09:53:17.000Z</time>
      </trkpt>
      <trkpt lat="47.40569" lon="6.70827">
        <ele>463</ele>
        <time>2016-02-28T09:53:18.000Z</time>
      </trkpt>
      <trkpt lat="47.40567" lon="6.70826">
        <ele>463</ele>
        <time>2016-02-28T09:53:19.000Z</time>
      </trkpt>
      <trkpt lat="47.40564" lon="6.70826">
        <ele>463</ele>
        <time>2016-02-28T09:53:20.000Z</time>
      </trkpt>
      <trkpt lat="47.40562" lon="6.70825">
        <ele>463</ele>
        <time>2016-02-28T09:53:21.000Z</time>
      </trkpt>
      <trkpt lat="47.4056" lon="6.70824">
        <ele>464</ele>
        <time>2016-02-28T09:53:22.000Z</time>
      </trkpt>
      <trkpt lat="47.40557" lon="6.70824">
        <ele>464</ele>
        <time>2016-02-28T09:53:23.000Z</time>
      </trkpt>
      <trkpt lat="47.40553" lon="6.70823">
        <ele>464</ele>
        <time>2016-02-28T09:53:25.000Z</time>
      </trkpt>
      <trkpt lat="47.40551" lon="6.70824">
        <ele>464</ele>
        <time>2016-02-28T09:53:26.000Z</time>
      </trkpt>
      <trkpt lat="47.40548" lon="6.70824">
        <ele>464</ele>
        <time>2016-02-28T09:53:27.000Z</time>
      </trkpt>
      <trkpt lat="47.40546" lon="6.70824">
        <ele>465</ele>
        <time>2016-02-28T09:53:28.000Z</time>
      </trkpt>
      <trkpt lat="47.40543" lon="6.70825">
        <ele>465</ele>
        <time>2016-02-28T09:53:29.000Z</time>
      </trkpt>
      <trkpt lat="47.4054" lon="6.70825">
        <ele>465</ele>
        <time>2016-02-28T09:53:30.000Z</time>
      </trkpt>
      <trkpt lat="47.40537" lon="6.70826">
        <ele>465</ele>
        <time>2016-02-28T09:53:31.000Z</time>
      </trkpt>
      <trkpt lat="47.40535" lon="6.70827">
        <ele>465</ele>
        <time>2016-02-28T09:53:32.000Z</time>
      </trkpt>
      <trkpt lat="47.40532" lon="6.70828">
        <ele>466</ele>
        <time>2016-02-28T09:53:33.000Z</time>
      </trkpt>
      <trkpt lat="47.4053" lon="6.7083">
        <ele>466</ele>
        <time>2016-02-28T09:53:34.000Z</time>
      </trkpt>
      <trkpt lat="47.40527" lon="6.70831">
        <ele>466</ele>
        <time>2016-02-28T09:53:35.000Z</time>
      </trkpt>
      <trkpt lat="47.40524" lon="6.70832">
        <ele>466</ele>
        <time>2016-02-28T09:53:36.000Z</time>
      </trkpt>
      <trkpt lat="47.40522" lon="6.70833">
        <ele>466</ele>
        <time>2016-02-28T09:53:37.000Z</time>
      </trkpt>
      <trkpt lat="47.40519" lon="6.70834">
        <ele>467</ele>
        <time>2016-02-28T09:53:38.000Z</time>
      </trkpt>
      <trkpt lat="47.40516" lon="6.70836">
        <ele>467</ele>
        <time>2016-02-28T09:53:39.000Z</time>
      </trkpt>
      <trkpt lat="47.40514" lon="6.70838">
        <ele>467</ele>
        <time>2016-02-28T09:53:40.000Z</time>
      </trkpt>
      <trkpt lat="47.40512" lon="6.7084">
        <ele>467</ele>
        <time>2016-02-28T09:53:41.000Z</time>
      </trkpt>
      <trkpt lat="47.40509" lon="6.70843">
        <ele>467</ele>
        <time>2016-02-28T09:53:42.000Z</time>
      </trkpt>
      <trkpt lat="47.40507" lon="6.70845">
        <ele>467</ele>
        <time>2016-02-28T09:53:43.000Z</time>
      </trkpt>
      <trkpt lat="47.40505" lon="6.70847">
        <ele>467</ele>
        <time>2016-02-28T09:53:44.000Z</time>
      </trkpt>
      <trkpt lat="47.40503" lon="6.7085">
        <ele>467</ele>
        <time>2016-02-28T09:53:45.000Z</time>
      </trkpt>
      <trkpt lat="47.40501" lon="6.70852">
        <ele>467</ele>
        <time>2016-02-28T09:53:46.000Z</time>
      </trkpt>
      <trkpt lat="47.40499" lon="6.70854">
        <ele>470</ele>
        <time>2016-02-28T09:53:47.000Z</time>
      </trkpt>
      <trkpt lat="47.40497" lon="6.70856">
        <ele>471</ele>
        <time>2016-02-28T09:53:48.000Z</time>
      </trkpt>
      <trkpt lat="47.40495" lon="6.70858">
        <ele>471</ele>
        <time>2016-02-28T09:53:49.000Z</time>
      </trkpt>
      <trkpt lat="47.40493" lon="6.70861">
        <ele>471</ele>
        <time>2016-02-28T09:53:50.000Z</time>
      </trkpt>
      <trkpt lat="47.40491" lon="6.70863">
        <ele>471</ele>
        <time>2016-02-28T09:53:51.000Z</time>
      </trkpt>
      <trkpt lat="47.40489" lon="6.70866">
        <ele>471</ele>
        <time>2016-02-28T09:53:52.000Z</time>
      </trkpt>
      <trkpt lat="47.40488" lon="6.70869">
        <ele>471</ele>
        <time>2016-02-28T09:53:53.000Z</time>
      </trkpt>
      <trkpt lat="47.40486" lon="6.70872">
        <ele>471</ele>
        <time>2016-02-28T09:53:54.000Z</time>
      </trkpt>
      <trkpt lat="47.40485" lon="6.70876">
        <ele>471</ele>
        <time>2016-02-28T09:53:55.000Z</time>
      </trkpt>
      <trkpt lat="47.40484" lon="6.70878">
        <ele>471</ele>
        <time>2016-02-28T09:53:56.000Z</time>
      </trkpt>
      <trkpt lat="47.40483" lon="6.70881">
        <ele>471</ele>
        <time>2016-02-28T09:53:57.000Z</time>
      </trkpt>
      <trkpt lat="47.40481" lon="6.70884">
        <ele>471</ele>
        <time>2016-02-28T09:53:58.000Z</time>
      </trkpt>
      <trkpt lat="47.4048" lon="6.70887">
        <ele>471</ele>
        <time>2016-02-28T09:53:59.000Z</time>
      </trkpt>
      <trkpt lat="47.40479" lon="6.7089">
        <ele>471</ele>
        <time>2016-02-28T09:54:00.000Z</time>
      </trkpt>
      <trkpt lat="47.40477" lon="6.70893">
        <ele>471</ele>
        <time>2016-02-28T09:54:01.000Z</time>
      </trkpt>
      <trkpt lat="47.40476" lon="6.70897">
        <ele>471</ele>
        <time>2016-02-28T09:54:02.000Z</time>
      </trkpt>
      <trkpt lat="47.40475" lon="6.709">
        <ele>471</ele>
        <time>2016-02-28T09:54:03.000Z</time>
      </trkpt>
      <trkpt lat="47.40474" lon="6.70903">
        <ele>471</ele>
        <time>2016-02-28T09:54:04.000Z</time>
      </trkpt>
      <trkpt lat="47.40473" lon="6.70906">
        <ele>471</ele>
        <time>2016-02-28T09:54:05.000Z</time>
      </trkpt>
      <trkpt lat="47.40472" lon="6.70909">
        <ele>471</ele>
        <time>2016-02-28T09:54:06.000Z</time>
      </trkpt>
      <trkpt lat="47.40471" lon="6.70912">
        <ele>471</ele>
        <time>2016-02-28T09:54:07.000Z</time>
      </trkpt>
      <trkpt lat="47.4047" lon="6.70916">
        <ele>471</ele>
        <time>2016-02-28T09:54:08.000Z</time>
      </trkpt>
      <trkpt lat="47.4047" lon="6.7092">
        <ele>472</ele>
        <time>2016-02-28T09:54:09.000Z</time>
      </trkpt>
      <trkpt lat="47.40469" lon="6.70923">
        <ele>473</ele>
        <time>2016-02-28T09:54:10.000Z</time>
      </trkpt>
      <trkpt lat="47.40468" lon="6.70926">
        <ele>473</ele>
        <time>2016-02-28T09:54:11.000Z</time>
      </trkpt>
      <trkpt lat="47.40468" lon="6.7093">
        <ele>473</ele>
        <time>2016-02-28T09:54:12.000Z</time>
      </trkpt>
      <trkpt lat="47.40467" lon="6.70933">
        <ele>473</ele>
        <time>2016-02-28T09:54:13.000Z</time>
      </trkpt>
      <trkpt lat="47.40467" lon="6.70937">
        <ele>473</ele>
        <time>2016-02-28T09:54:14.000Z</time>
      </trkpt>
      <trkpt lat="47.40466" lon="6.7094">
        <ele>473</ele>
        <time>2016-02-28T09:54:15.000Z</time>
      </trkpt>
      <trkpt lat="47.40465" lon="6.70944">
        <ele>473</ele>
        <time>2016-02-28T09:54:16.000Z</time>
      </trkpt>
      <trkpt lat="47.40465" lon="6.70948">
        <ele>474</ele>
        <time>2016-02-28T09:54:17.000Z</time>
      </trkpt>
      <trkpt lat="47.40465" lon="6.70952">
        <ele>474</ele>
        <time>2016-02-28T09:54:18.000Z</time>
      </trkpt>
      <trkpt lat="47.40464" lon="6.70956">
        <ele>474</ele>
        <time>2016-02-28T09:54:19.000Z</time>
      </trkpt>
      <trkpt lat="47.40464" lon="6.70959">
        <ele>474</ele>
        <time>2016-02-28T09:54:20.000Z</time>
      </trkpt>
      <trkpt lat="47.40464" lon="6.70963">
        <ele>474</ele>
        <time>2016-02-28T09:54:21.000Z</time>
      </trkpt>
      <trkpt lat="47.40463" lon="6.70966">
        <ele>474</ele>
        <time>2016-02-28T09:54:22.000Z</time>
      </trkpt>
      <trkpt lat="47.40462" lon="6.7097">
        <ele>474</ele>
        <time>2016-02-28T09:54:23.000Z</time>
      </trkpt>
      <trkpt lat="47.40462" lon="6.70973">
        <ele>474</ele>
        <time>2016-02-28T09:54:24.000Z</time>
      </trkpt>
      <trkpt lat="47.40461" lon="6.70976">
        <ele>474</ele>
        <time>2016-02-28T09:54:25.000Z</time>
      </trkpt>
      <trkpt lat="47.4046" lon="6.7098">
        <ele>475</ele>
        <time>2016-02-28T09:54:26.000Z</time>
      </trkpt>
      <trkpt lat="47.40459" lon="6.70983">
        <ele>475</ele>
        <time>2016-02-28T09:54:27.000Z</time>
      </trkpt>
      <trkpt lat="47.40458" lon="6.70986">
        <ele>475</ele>
        <time>2016-02-28T09:54:28.000Z</time>
      </trkpt>
      <trkpt lat="47.40457" lon="6.7099">
        <ele>475</ele>
        <time>2016-02-28T09:54:29.000Z</time>
      </trkpt>
      <trkpt lat="47.40456" lon="6.70993">
        <ele>475</ele>
        <time>2016-02-28T09:54:30.000Z</time>
      </trkpt>
      <trkpt lat="47.40455" lon="6.70996">
        <ele>475</ele>
        <time>2016-02-28T09:54:31.000Z</time>
      </trkpt>
      <trkpt lat="47.40454" lon="6.70999">
        <ele>475</ele>
        <time>2016-02-28T09:54:32.000Z</time>
      </trkpt>
      <trkpt lat="47.40452" lon="6.71002">
        <ele>478</ele>
        <time>2016-02-28T09:54:33.000Z</time>
      </trkpt>
      <trkpt lat="47.40451" lon="6.71005">
        <ele>478</ele>
        <time>2016-02-28T09:54:34.000Z</time>
      </trkpt>
      <trkpt lat="47.40449" lon="6.71008">
        <ele>478</ele>
        <time>2016-02-28T09:54:35.000Z</time>
      </trkpt>
      <trkpt lat="47.40448" lon="6.71011">
        <ele>478</ele>
        <time>2016-02-28T09:54:36.000Z</time>
      </trkpt>
      <trkpt lat="47.40447" lon="6.71014">
        <ele>478</ele>
        <time>2016-02-28T09:54:37.000Z</time>
      </trkpt>
      <trkpt lat="47.40445" lon="6.71017">
        <ele>478</ele>
        <time>2016-02-28T09:54:38.000Z</time>
      </trkpt>
      <trkpt lat="47.40444" lon="6.71019">
        <ele>478</ele>
        <time>2016-02-28T09:54:39.000Z</time>
      </trkpt>
      <trkpt lat="47.40442" lon="6.71022">
        <ele>478</ele>
        <time>2016-02-28T09:54:40.000Z</time>
      </trkpt>
      <trkpt lat="47.40441" lon="6.71025">
        <ele>479</ele>
        <time>2016-02-28T09:54:41.000Z</time>
      </trkpt>
      <trkpt lat="47.40439" lon="6.71028">
        <ele>479</ele>
        <time>2016-02-28T09:54:42.000Z</time>
      </trkpt>
      <trkpt lat="47.40438" lon="6.71031">
        <ele>479</ele>
        <time>2016-02-28T09:54:43.000Z</time>
      </trkpt>
      <trkpt lat="47.40438" lon="6.71035">
        <ele>479</ele>
        <time>2016-02-28T09:54:44.000Z</time>
      </trkpt>
      <trkpt lat="47.40437" lon="6.71039">
        <ele>479</ele>
        <time>2016-02-28T09:54:45.000Z</time>
      </trkpt>
      <trkpt lat="47.40437" lon="6.71042">
        <ele>479</ele>
        <time>2016-02-28T09:54:46.000Z</time>
      </trkpt>
      <trkpt lat="47.40436" lon="6.71046">
        <ele>479</ele>
        <time>2016-02-28T09:54:47.000Z</time>
      </trkpt>
      <trkpt lat="47.40436" lon="6.7105">
        <ele>479</ele>
        <time>2016-02-28T09:54:48.000Z</time>
      </trkpt>
      <trkpt lat="47.40436" lon="6.71054">
        <ele>479</ele>
        <time>2016-02-28T09:54:49.000Z</time>
      </trkpt>
      <trkpt lat="47.40436" lon="6.71057">
        <ele>480</ele>
        <time>2016-02-28T09:54:50.000Z</time>
      </trkpt>
      <trkpt lat="47.40437" lon="6.71061">
        <ele>480</ele>
        <time>2016-02-28T09:54:51.000Z</time>
      </trkpt>
      <trkpt lat="47.40438" lon="6.71064">
        <ele>480</ele>
        <time>2016-02-28T09:54:52.000Z</time>
      </trkpt>
      <trkpt lat="47.40438" lon="6.71067">
        <ele>480</ele>
        <time>2016-02-28T09:54:53.000Z</time>
      </trkpt>
      <trkpt lat="47.40439" lon="6.71071">
        <ele>480</ele>
        <time>2016-02-28T09:54:54.000Z</time>
      </trkpt>
      <trkpt lat="47.4044" lon="6.71074">
        <ele>480</ele>
        <time>2016-02-28T09:54:55.000Z</time>
      </trkpt>
      <trkpt lat="47.4044" lon="6.71077">
        <ele>480</ele>
        <time>2016-02-28T09:54:56.000Z</time>
      </trkpt>
      <trkpt lat="47.40441" lon="6.71081">
        <ele>480</ele>
        <time>2016-02-28T09:54:57.000Z</time>
      </trkpt>
      <trkpt lat="47.40441" lon="6.71084">
        <ele>482</ele>
        <time>2016-02-28T09:54:58.000Z</time>
      </trkpt>
      <trkpt lat="47.40442" lon="6.71088">
        <ele>482</ele>
        <time>2016-02-28T09:54:59.000Z</time>
      </trkpt>
      <trkpt lat="47.40443" lon="6.71092">
        <ele>482</ele>
        <time>2016-02-28T09:55:00.000Z</time>
      </trkpt>
      <trkpt lat="47.40444" lon="6.71095">
        <ele>482</ele>
        <time>2016-02-28T09:55:01.000Z</time>
      </trkpt>
      <trkpt lat="47.40445" lon="6.71099">
        <ele>481</ele>
        <time>2016-02-28T09:55:02.000Z</time>
      </trkpt>
      <trkpt lat="47.40445" lon="6.71102">
        <ele>481</ele>
        <time>2016-02-28T09:55:03.000Z</time>
      </trkpt>
      <trkpt lat="47.40446" lon="6.71106">
        <ele>481</ele>
        <time>2016-02-28T09:55:04.000Z</time>
      </trkpt>
      <trkpt lat="47.40446" lon="6.71109">
        <ele>481</ele>
        <time>2016-02-28T09:55:05.000Z</time>
      </trkpt>
      <trkpt lat="47.40446" lon="6.71113">
        <ele>481</ele>
        <time>2016-02-28T09:55:06.000Z</time>
      </trkpt>
      <trkpt lat="47.40446" lon="6.71116">
        <ele>481</ele>
        <time>2016-02-28T09:55:07.000Z</time>
      </trkpt>
      <trkpt lat="47.40446" lon="6.7112">
        <ele>481</ele>
        <time>2016-02-28T09:55:08.000Z</time>
      </trkpt>
      <trkpt lat="47.40447" lon="6.71123">
        <ele>482</ele>
        <time>2016-02-28T09:55:09.000Z</time>
      </trkpt>
      <trkpt lat="47.40447" lon="6.71127">
        <ele>482</ele>
        <time>2016-02-28T09:55:10.000Z</time>
      </trkpt>
      <trkpt lat="47.40446" lon="6.71131">
        <ele>482</ele>
        <time>2016-02-28T09:55:11.000Z</time>
      </trkpt>
      <trkpt lat="47.40446" lon="6.71135">
        <ele>482</ele>
        <time>2016-02-28T09:55:11.999Z</time>
      </trkpt>
      <trkpt lat="47.40446" lon="6.71139">
        <ele>482</ele>
        <time>2016-02-28T09:55:13.000Z</time>
      </trkpt>
      <trkpt lat="47.40446" lon="6.71142">
        <ele>482</ele>
        <time>2016-02-28T09:55:14.000Z</time>
      </trkpt>
      <trkpt lat="47.40446" lon="6.71146">
        <ele>482</ele>
        <time>2016-02-28T09:55:15.001Z</time>
      </trkpt>
      <trkpt lat="47.40446" lon="6.71149">
        <ele>482</ele>
        <time>2016-02-28T09:55:16.000Z</time>
      </trkpt>
      <trkpt lat="47.40446" lon="6.71152">
        <ele>482</ele>
        <time>2016-02-28T09:55:17.000Z</time>
      </trkpt>
      <trkpt lat="47.40446" lon="6.71156">
        <ele>483</ele>
        <time>2016-02-28T09:55:18.000Z</time>
      </trkpt>
      <trkpt lat="47.40446" lon="6.71159">
        <ele>483</ele>
        <time>2016-02-28T09:55:19.000Z</time>
      </trkpt>
      <trkpt lat="47.40447" lon="6.71163">
        <ele>483</ele>
        <time>2016-02-28T09:55:20.000Z</time>
      </trkpt>
      <trkpt lat="47.40448" lon="6.71169">
        <ele>484</ele>
        <time>2016-02-28T09:55:22.001Z</time>
      </trkpt>
      <trkpt lat="47.40448" lon="6.71172">
        <ele>484</ele>
        <time>2016-02-28T09:55:23.001Z</time>
      </trkpt>
      <trkpt lat="47.40449" lon="6.71177">
        <ele>484</ele>
        <time>2016-02-28T09:55:25.000Z</time>
      </trkpt>
      <trkpt lat="47.4045" lon="6.71179">
        <ele>484</ele>
        <time>2016-02-28T09:55:26.000Z</time>
      </trkpt>
      <trkpt lat="47.40451" lon="6.71182">
        <ele>484</ele>
        <time>2016-02-28T09:55:27.000Z</time>
      </trkpt>
      <trkpt lat="47.40452" lon="6.71185">
        <ele>483</ele>
        <time>2016-02-28T09:55:28.000Z</time>
      </trkpt>
      <trkpt lat="47.40453" lon="6.71188">
        <ele>483</ele>
        <time>2016-02-28T09:55:29.000Z</time>
      </trkpt>
      <trkpt lat="47.40454" lon="6.71192">
        <ele>483</ele>
        <time>2016-02-28T09:55:30.000Z</time>
      </trkpt>
      <trkpt lat="47.40455" lon="6.71195">
        <ele>483</ele>
        <time>2016-02-28T09:55:31.000Z</time>
      </trkpt>
      <trkpt lat="47.40455" lon="6.71199">
        <ele>483</ele>
        <time>2016-02-28T09:55:32.000Z</time>
      </trkpt>
      <trkpt lat="47.40456" lon="6.71202">
        <ele>483</ele>
        <time>2016-02-28T09:55:33.000Z</time>
      </trkpt>
      <trkpt lat="47.40457" lon="6.71206">
        <ele>483</ele>
        <time>2016-02-28T09:55:34.000Z</time>
      </trkpt>
      <trkpt lat="47.40458" lon="6.71209">
        <ele>483</ele>
        <time>2016-02-28T09:55:34.999Z</time>
      </trkpt>
      <trkpt lat="47.40459" lon="6.71212">
        <ele>483</ele>
        <time>2016-02-28T09:55:36.000Z</time>
      </trkpt>
      <trkpt lat="47.4046" lon="6.71215">
        <ele>483</ele>
        <time>2016-02-28T09:55:37.000Z</time>
      </trkpt>
      <trkpt lat="47.4046" lon="6.71219">
        <ele>483</ele>
        <time>2016-02-28T09:55:38.000Z</time>
      </trkpt>
      <trkpt lat="47.4046" lon="6.71222">
        <ele>483</ele>
        <time>2016-02-28T09:55:39.000Z</time>
      </trkpt>
      <trkpt lat="47.40461" lon="6.71226">
        <ele>483</ele>
        <time>2016-02-28T09:55:40.000Z</time>
      </trkpt>
      <trkpt lat="47.40461" lon="6.7123">
        <ele>483</ele>
        <time>2016-02-28T09:55:41.000Z</time>
      </trkpt>
      <trkpt lat="47.40461" lon="6.71233">
        <ele>483</ele>
        <time>2016-02-28T09:55:42.000Z</time>
      </trkpt>
      <trkpt lat="47.40462" lon="6.71237">
        <ele>483</ele>
        <time>2016-02-28T09:55:43.000Z</time>
      </trkpt>
      <trkpt lat="47.40462" lon="6.7124">
        <ele>483</ele>
        <time>2016-02-28T09:55:44.000Z</time>
      </trkpt>
      <trkpt lat="47.40462" lon="6.71244">
        <ele>483</ele>
        <time>2016-02-28T09:55:45.000Z</time>
      </trkpt>
      <trkpt lat="47.40462" lon="6.71248">
        <ele>483</ele>
        <time>2016-02-28T09:55:46.000Z</time>
      </trkpt>
      <trkpt lat="47.40462" lon="6.71253">
        <ele>484</ele>
        <time>2016-02-28T09:55:47.000Z</time>
      </trkpt>
      <trkpt lat="47.40462" lon="6.71257">
        <ele>484</ele>
        <time>2016-02-28T09:55:48.000Z</time>
      </trkpt>
      <trkpt lat="47.40462" lon="6.7126">
        <ele>484</ele>
        <time>2016-02-28T09:55:49.000Z</time>
      </trkpt>
      <trkpt lat="47.40462" lon="6.71265">
        <ele>484</ele>
        <time>2016-02-28T09:55:50.000Z</time>
      </trkpt>
      <trkpt lat="47.40461" lon="6.71268">
        <ele>484</ele>
        <time>2016-02-28T09:55:51.000Z</time>
      </trkpt>
      <trkpt lat="47.40461" lon="6.71271">
        <ele>484</ele>
        <time>2016-02-28T09:55:52.000Z</time>
      </trkpt>
      <trkpt lat="47.40462" lon="6.71275">
        <ele>484</ele>
        <time>2016-02-28T09:55:53.000Z</time>
      </trkpt>
      <trkpt lat="47.40461" lon="6.71278">
        <ele>484</ele>
        <time>2016-02-28T09:55:54.000Z</time>
      </trkpt>
      <trkpt lat="47.4046" lon="6.71282">
        <ele>484</ele>
        <time>2016-02-28T09:55:55.000Z</time>
      </trkpt>
      <trkpt lat="47.40459" lon="6.71285">
        <ele>484</ele>
        <time>2016-02-28T09:55:56.000Z</time>
      </trkpt>
      <trkpt lat="47.40459" lon="6.71289">
        <ele>484</ele>
        <time>2016-02-28T09:55:57.000Z</time>
      </trkpt>
      <trkpt lat="47.40458" lon="6.71293">
        <ele>484</ele>
        <time>2016-02-28T09:55:58.000Z</time>
      </trkpt>
      <trkpt lat="47.40457" lon="6.71296">
        <ele>484</ele>
        <time>2016-02-28T09:55:59.000Z</time>
      </trkpt>
      <trkpt lat="47.40457" lon="6.713">
        <ele>484</ele>
        <time>2016-02-28T09:56:00.000Z</time>
      </trkpt>
      <trkpt lat="47.40456" lon="6.71305">
        <ele>485</ele>
        <time>2016-02-28T09:56:02.000Z</time>
      </trkpt>
      <trkpt lat="47.40455" lon="6.71309">
        <ele>485</ele>
        <time>2016-02-28T09:56:03.000Z</time>
      </trkpt>
      <trkpt lat="47.40453" lon="6.71312">
        <ele>485</ele>
        <time>2016-02-28T09:56:04.000Z</time>
      </trkpt>
      <trkpt lat="47.40452" lon="6.71315">
        <ele>485</ele>
        <time>2016-02-28T09:56:05.000Z</time>
      </trkpt>
      <trkpt lat="47.40451" lon="6.71319">
        <ele>485</ele>
        <time>2016-02-28T09:56:06.000Z</time>
      </trkpt>
      <trkpt lat="47.4045" lon="6.71322">
        <ele>485</ele>
        <time>2016-02-28T09:56:07.000Z</time>
      </trkpt>
      <trkpt lat="47.40449" lon="6.71325">
        <ele>485</ele>
        <time>2016-02-28T09:56:08.000Z</time>
      </trkpt>
      <trkpt lat="47.40447" lon="6.71328">
        <ele>486</ele>
        <time>2016-02-28T09:56:09.000Z</time>
      </trkpt>
      <trkpt lat="47.40446" lon="6.71331">
        <ele>486</ele>
        <time>2016-02-28T09:56:10.000Z</time>
      </trkpt>
      <trkpt lat="47.40445" lon="6.71334">
        <ele>487</ele>
        <time>2016-02-28T09:56:11.000Z</time>
      </trkpt>
      <trkpt lat="47.40443" lon="6.71338">
        <ele>487</ele>
        <time>2016-02-28T09:56:12.000Z</time>
      </trkpt>
      <trkpt lat="47.40442" lon="6.71341">
        <ele>487</ele>
        <time>2016-02-28T09:56:13.000Z</time>
      </trkpt>
      <trkpt lat="47.40441" lon="6.71344">
        <ele>487</ele>
        <time>2016-02-28T09:56:14.000Z</time>
      </trkpt>
      <trkpt lat="47.40439" lon="6.71347">
        <ele>487</ele>
        <time>2016-02-28T09:56:15.000Z</time>
      </trkpt>
      <trkpt lat="47.40438" lon="6.7135">
        <ele>487</ele>
        <time>2016-02-28T09:56:16.000Z</time>
      </trkpt>
      <trkpt lat="47.40436" lon="6.71352">
        <ele>487</ele>
        <time>2016-02-28T09:56:17.000Z</time>
      </trkpt>
      <trkpt lat="47.40434" lon="6.71355">
        <ele>488</ele>
        <time>2016-02-28T09:56:18.000Z</time>
      </trkpt>
      <trkpt lat="47.40432" lon="6.71358">
        <ele>488</ele>
        <time>2016-02-28T09:56:19.000Z</time>
      </trkpt>
      <trkpt lat="47.4043" lon="6.7136">
        <ele>488</ele>
        <time>2016-02-28T09:56:20.000Z</time>
      </trkpt>
      <trkpt lat="47.40428" lon="6.71362">
        <ele>488</ele>
        <time>2016-02-28T09:56:21.000Z</time>
      </trkpt>
      <trkpt lat="47.40425" lon="6.71365">
        <ele>488</ele>
        <time>2016-02-28T09:56:23.000Z</time>
      </trkpt>
      <trkpt lat="47.40423" lon="6.71368">
        <ele>488</ele>
        <time>2016-02-28T09:56:24.000Z</time>
      </trkpt>
      <trkpt lat="47.40421" lon="6.7137">
        <ele>488</ele>
        <time>2016-02-28T09:56:25.000Z</time>
      </trkpt>
      <trkpt lat="47.40419" lon="6.71371">
        <ele>488</ele>
        <time>2016-02-28T09:56:26.000Z</time>
      </trkpt>
      <trkpt lat="47.40416" lon="6.71373">
        <ele>493</ele>
        <time>2016-02-28T09:56:27.000Z</time>
      </trkpt>
      <trkpt lat="47.40414" lon="6.71375">
        <ele>493</ele>
        <time>2016-02-28T09:56:28.000Z</time>
      </trkpt>
      <trkpt lat="47.40412" lon="6.71377">
        <ele>493</ele>
        <time>2016-02-28T09:56:29.000Z</time>
      </trkpt>
      <trkpt lat="47.4041" lon="6.71379">
        <ele>493</ele>
        <time>2016-02-28T09:56:30.000Z</time>
      </trkpt>
      <trkpt lat="47.40408" lon="6.7138">
        <ele>493</ele>
        <time>2016-02-28T09:56:31.000Z</time>
      </trkpt>
      <trkpt lat="47.40405" lon="6.71382">
        <ele>493</ele>
        <time>2016-02-28T09:56:32.000Z</time>
      </trkpt>
      <trkpt lat="47.40403" lon="6.71383">
        <ele>493</ele>
        <time>2016-02-28T09:56:33.000Z</time>
      </trkpt>
      <trkpt lat="47.40401" lon="6.71385">
        <ele>493</ele>
        <time>2016-02-28T09:56:34.000Z</time>
      </trkpt>
      <trkpt lat="47.40399" lon="6.71387">
        <ele>493</ele>
        <time>2016-02-28T09:56:35.000Z</time>
      </trkpt>
      <trkpt lat="47.40397" lon="6.71389">
        <ele>493</ele>
        <time>2016-02-28T09:56:36.000Z</time>
      </trkpt>
      <trkpt lat="47.40395" lon="6.7139">
        <ele>493</ele>
        <time>2016-02-28T09:56:36.999Z</time>
      </trkpt>
      <trkpt lat="47.40392" lon="6.71391">
        <ele>493</ele>
        <time>2016-02-28T09:56:38.000Z</time>
      </trkpt>
      <trkpt lat="47.4039" lon="6.71392">
        <ele>493</ele>
        <time>2016-02-28T09:56:39.000Z</time>
      </trkpt>
      <trkpt lat="47.40387" lon="6.71393">
        <ele>493</ele>
        <time>2016-02-28T09:56:40.000Z</time>
      </trkpt>
      <trkpt lat="47.40384" lon="6.71393">
        <ele>493</ele>
        <time>2016-02-28T09:56:41.000Z</time>
      </trkpt>
      <trkpt lat="47.40382" lon="6.71394">
        <ele>493</ele>
        <time>2016-02-28T09:56:42.000Z</time>
      </trkpt>
      <trkpt lat="47.4038" lon="6.71394">
        <ele>493</ele>
        <time>2016-02-28T09:56:43.000Z</time>
      </trkpt>
      <trkpt lat="47.40377" lon="6.71395">
        <ele>493</ele>
        <time>2016-02-28T09:56:44.000Z</time>
      </trkpt>
      <trkpt lat="47.40374" lon="6.71394">
        <ele>494</ele>
        <time>2016-02-28T09:56:45.000Z</time>
      </trkpt>
      <trkpt lat="47.40371" lon="6.71392">
        <ele>494</ele>
        <time>2016-02-28T09:56:46.000Z</time>
      </trkpt>
      <trkpt lat="47.40368" lon="6.71391">
        <ele>494</ele>
        <time>2016-02-28T09:56:47.000Z</time>
      </trkpt>
      <trkpt lat="47.40366" lon="6.71389">
        <ele>494</ele>
        <time>2016-02-28T09:56:48.000Z</time>
      </trkpt>
      <trkpt lat="47.40363" lon="6.71388">
        <ele>494</ele>
        <time>2016-02-28T09:56:49.000Z</time>
      </trkpt>
      <trkpt lat="47.40361" lon="6.71387">
        <ele>494</ele>
        <time>2016-02-28T09:56:50.000Z</time>
      </trkpt>
      <trkpt lat="47.40358" lon="6.71386">
        <ele>494</ele>
        <time>2016-02-28T09:56:50.999Z</time>
      </trkpt>
      <trkpt lat="47.40356" lon="6.71384">
        <ele>494</ele>
        <time>2016-02-28T09:56:52.000Z</time>
      </trkpt>
      <trkpt lat="47.40353" lon="6.71383">
        <ele>494</ele>
        <time>2016-02-28T09:56:53.001Z</time>
      </trkpt>
      <trkpt lat="47.40351" lon="6.71381">
        <ele>494</ele>
        <time>2016-02-28T09:56:54.000Z</time>
      </trkpt>
      <trkpt lat="47.40349" lon="6.7138">
        <ele>494</ele>
        <time>2016-02-28T09:56:55.000Z</time>
      </trkpt>
      <trkpt lat="47.40346" lon="6.71379">
        <ele>494</ele>
        <time>2016-02-28T09:56:56.000Z</time>
      </trkpt>
      <trkpt lat="47.40344" lon="6.71377">
        <ele>494</ele>
        <time>2016-02-28T09:56:57.000Z</time>
      </trkpt>
      <trkpt lat="47.40342" lon="6.71375">
        <ele>494</ele>
        <time>2016-02-28T09:56:58.000Z</time>
      </trkpt>
      <trkpt lat="47.40339" lon="6.71373">
        <ele>494</ele>
        <time>2016-02-28T09:56:59.000Z</time>
      </trkpt>
      <trkpt lat="47.40337" lon="6.71371">
        <ele>494</ele>
        <time>2016-02-28T09:57:00.000Z</time>
      </trkpt>
      <trkpt lat="47.40334" lon="6.71369">
        <ele>495</ele>
        <time>2016-02-28T09:57:01.000Z</time>
      </trkpt>
      <trkpt lat="47.40332" lon="6.71367">
        <ele>496</ele>
        <time>2016-02-28T09:57:02.000Z</time>
      </trkpt>
      <trkpt lat="47.4033" lon="6.71364">
        <ele>496</ele>
        <time>2016-02-28T09:57:03.000Z</time>
      </trkpt>
      <trkpt lat="47.40328" lon="6.71362">
        <ele>496</ele>
        <time>2016-02-28T09:57:04.000Z</time>
      </trkpt>
      <trkpt lat="47.40326" lon="6.7136">
        <ele>496</ele>
        <time>2016-02-28T09:57:05.000Z</time>
      </trkpt>
      <trkpt lat="47.40323" lon="6.71358">
        <ele>496</ele>
        <time>2016-02-28T09:57:06.000Z</time>
      </trkpt>
      <trkpt lat="47.40321" lon="6.71355">
        <ele>496</ele>
        <time>2016-02-28T09:57:07.000Z</time>
      </trkpt>
      <trkpt lat="47.40319" lon="6.71353">
        <ele>496</ele>
        <time>2016-02-28T09:57:08.000Z</time>
      </trkpt>
      <trkpt lat="47.40316" lon="6.71351">
        <ele>496</ele>
        <time>2016-02-28T09:57:09.000Z</time>
      </trkpt>
      <trkpt lat="47.40313" lon="6.71349">
        <ele>496</ele>
        <time>2016-02-28T09:57:10.000Z</time>
      </trkpt>
      <trkpt lat="47.4031" lon="6.71346">
        <ele>496</ele>
        <time>2016-02-28T09:57:11.000Z</time>
      </trkpt>
      <trkpt lat="47.40308" lon="6.71343">
        <ele>496</ele>
        <time>2016-02-28T09:57:11.999Z</time>
      </trkpt>
      <trkpt lat="47.40306" lon="6.71341">
        <ele>496</ele>
        <time>2016-02-28T09:57:13.000Z</time>
      </trkpt>
      <trkpt lat="47.40303" lon="6.71338">
        <ele>496</ele>
        <time>2016-02-28T09:57:14.000Z</time>
      </trkpt>
      <trkpt lat="47.40302" lon="6.71335">
        <ele>496</ele>
        <time>2016-02-28T09:57:15.000Z</time>
      </trkpt>
      <trkpt lat="47.40299" lon="6.71333">
        <ele>499</ele>
        <time>2016-02-28T09:57:16.000Z</time>
      </trkpt>
      <trkpt lat="47.40297" lon="6.7133">
        <ele>499</ele>
        <time>2016-02-28T09:57:17.001Z</time>
      </trkpt>
      <trkpt lat="47.40295" lon="6.71328">
        <ele>499</ele>
        <time>2016-02-28T09:57:18.000Z</time>
      </trkpt>
      <trkpt lat="47.40293" lon="6.71326">
        <ele>499</ele>
        <time>2016-02-28T09:57:19.000Z</time>
      </trkpt>
      <trkpt lat="47.40291" lon="6.71323">
        <ele>499</ele>
        <time>2016-02-28T09:57:20.000Z</time>
      </trkpt>
      <trkpt lat="47.40289" lon="6.7132">
        <ele>499</ele>
        <time>2016-02-28T09:57:21.000Z</time>
      </trkpt>
      <trkpt lat="47.40287" lon="6.71318">
        <ele>499</ele>
        <time>2016-02-28T09:57:22.000Z</time>
      </trkpt>
      <trkpt lat="47.40285" lon="6.71315">
        <ele>499</ele>
        <time>2016-02-28T09:57:23.000Z</time>
      </trkpt>
      <trkpt lat="47.40282" lon="6.71313">
        <ele>499</ele>
        <time>2016-02-28T09:57:24.000Z</time>
      </trkpt>
      <trkpt lat="47.4028" lon="6.71311">
        <ele>500</ele>
        <time>2016-02-28T09:57:25.000Z</time>
      </trkpt>
      <trkpt lat="47.40278" lon="6.71309">
        <ele>500</ele>
        <time>2016-02-28T09:57:25.999Z</time>
      </trkpt>
      <trkpt lat="47.40276" lon="6.71306">
        <ele>500</ele>
        <time>2016-02-28T09:57:27.000Z</time>
      </trkpt>
      <trkpt lat="47.40274" lon="6.71304">
        <ele>500</ele>
        <time>2016-02-28T09:57:28.000Z</time>
      </trkpt>
      <trkpt lat="47.40271" lon="6.71302">
        <ele>500</ele>
        <time>2016-02-28T09:57:29.000Z</time>
      </trkpt>
      <trkpt lat="47.40269" lon="6.71299">
        <ele>500</ele>
        <time>2016-02-28T09:57:30.000Z</time>
      </trkpt>
      <trkpt lat="47.40266" lon="6.71298">
        <ele>500</ele>
        <time>2016-02-28T09:57:31.000Z</time>
      </trkpt>
      <trkpt lat="47.40264" lon="6.71297">
        <ele>500</ele>
        <time>2016-02-28T09:57:32.000Z</time>
      </trkpt>
      <trkpt lat="47.40261" lon="6.71296">
        <ele>500</ele>
        <time>2016-02-28T09:57:33.000Z</time>
      </trkpt>
      <trkpt lat="47.40259" lon="6.71295">
        <ele>500</ele>
        <time>2016-02-28T09:57:34.000Z</time>
      </trkpt>
      <trkpt lat="47.40256" lon="6.71294">
        <ele>500</ele>
        <time>2016-02-28T09:57:35.000Z</time>
      </trkpt>
      <trkpt lat="47.40253" lon="6.71292">
        <ele>500</ele>
        <time>2016-02-28T09:57:36.000Z</time>
      </trkpt>
      <trkpt lat="47.4025" lon="6.71291">
        <ele>502</ele>
        <time>2016-02-28T09:57:37.000Z</time>
      </trkpt>
      <trkpt lat="47.40247" lon="6.7129">
        <ele>502</ele>
        <time>2016-02-28T09:57:38.001Z</time>
      </trkpt>
      <trkpt lat="47.40244" lon="6.71289">
        <ele>502</ele>
        <time>2016-02-28T09:57:39.000Z</time>
      </trkpt>
      <trkpt lat="47.40242" lon="6.71287">
        <ele>502</ele>
        <time>2016-02-28T09:57:40.000Z</time>
      </trkpt>
      <trkpt lat="47.40239" lon="6.71285">
        <ele>502</ele>
        <time>2016-02-28T09:57:41.000Z</time>
      </trkpt>
      <trkpt lat="47.40237" lon="6.71283">
        <ele>502</ele>
        <time>2016-02-28T09:57:42.000Z</time>
      </trkpt>
      <trkpt lat="47.40235" lon="6.71281">
        <ele>502</ele>
        <time>2016-02-28T09:57:43.000Z</time>
      </trkpt>
      <trkpt lat="47.40232" lon="6.71278">
        <ele>502</ele>
        <time>2016-02-28T09:57:44.000Z</time>
      </trkpt>
      <trkpt lat="47.4023" lon="6.71276">
        <ele>502</ele>
        <time>2016-02-28T09:57:45.000Z</time>
      </trkpt>
      <trkpt lat="47.40228" lon="6.71274">
        <ele>502</ele>
        <time>2016-02-28T09:57:46.000Z</time>
      </trkpt>
      <trkpt lat="47.40225" lon="6.71272">
        <ele>502</ele>
        <time>2016-02-28T09:57:47.001Z</time>
      </trkpt>
      <trkpt lat="47.40223" lon="6.7127">
        <ele>502</ele>
        <time>2016-02-28T09:57:48.000Z</time>
      </trkpt>
      <trkpt lat="47.4022" lon="6.71268">
        <ele>502</ele>
        <time>2016-02-28T09:57:49.000Z</time>
      </trkpt>
      <trkpt lat="47.40217" lon="6.71267">
        <ele>502</ele>
        <time>2016-02-28T09:57:50.000Z</time>
      </trkpt>
      <trkpt lat="47.40214" lon="6.71265">
        <ele>502</ele>
        <time>2016-02-28T09:57:51.000Z</time>
      </trkpt>
      <trkpt lat="47.40212" lon="6.71264">
        <ele>502</ele>
        <time>2016-02-28T09:57:51.999Z</time>
      </trkpt>
      <trkpt lat="47.40209" lon="6.71263">
        <ele>502</ele>
        <time>2016-02-28T09:57:53.000Z</time>
      </trkpt>
      <trkpt lat="47.40206" lon="6.71262">
        <ele>502</ele>
        <time>2016-02-28T09:57:54.000Z</time>
      </trkpt>
      <trkpt lat="47.40203" lon="6.71261">
        <ele>502</ele>
        <time>2016-02-28T09:57:55.000Z</time>
      </trkpt>
      <trkpt lat="47.402" lon="6.7126">
        <ele>502</ele>
        <time>2016-02-28T09:57:56.000Z</time>
      </trkpt>
      <trkpt lat="47.40197" lon="6.7126">
        <ele>502</ele>
        <time>2016-02-28T09:57:57.000Z</time>
      </trkpt>
      <trkpt lat="47.40194" lon="6.7126">
        <ele>503</ele>
        <time>2016-02-28T09:57:58.000Z</time>
      </trkpt>
      <trkpt lat="47.40191" lon="6.71261">
        <ele>503</ele>
        <time>2016-02-28T09:57:59.000Z</time>
      </trkpt>
      <trkpt lat="47.40188" lon="6.71263">
        <ele>503</ele>
        <time>2016-02-28T09:58:00.000Z</time>
      </trkpt>
      <trkpt lat="47.40185" lon="6.71265">
        <ele>503</ele>
        <time>2016-02-28T09:58:01.000Z</time>
      </trkpt>
      <trkpt lat="47.40183" lon="6.71267">
        <ele>503</ele>
        <time>2016-02-28T09:58:02.000Z</time>
      </trkpt>
      <trkpt lat="47.40181" lon="6.71269">
        <ele>503</ele>
        <time>2016-02-28T09:58:03.000Z</time>
      </trkpt>
      <trkpt lat="47.40178" lon="6.71271">
        <ele>503</ele>
        <time>2016-02-28T09:58:04.000Z</time>
      </trkpt>
      <trkpt lat="47.40176" lon="6.71272">
        <ele>503</ele>
        <time>2016-02-28T09:58:05.000Z</time>
      </trkpt>
      <trkpt lat="47.40173" lon="6.71272">
        <ele>503</ele>
        <time>2016-02-28T09:58:06.000Z</time>
      </trkpt>
      <trkpt lat="47.40171" lon="6.71273">
        <ele>503</ele>
        <time>2016-02-28T09:58:07.000Z</time>
      </trkpt>
      <trkpt lat="47.40168" lon="6.71273">
        <ele>503</ele>
        <time>2016-02-28T09:58:08.000Z</time>
      </trkpt>
      <trkpt lat="47.40165" lon="6.71272">
        <ele>504</ele>
        <time>2016-02-28T09:58:09.000Z</time>
      </trkpt>
      <trkpt lat="47.40163" lon="6.71272">
        <ele>504</ele>
        <time>2016-02-28T09:58:10.000Z</time>
      </trkpt>
      <trkpt lat="47.4016" lon="6.71272">
        <ele>505</ele>
        <time>2016-02-28T09:58:11.000Z</time>
      </trkpt>
      <trkpt lat="47.40157" lon="6.71271">
        <ele>505</ele>
        <time>2016-02-28T09:58:12.000Z</time>
      </trkpt>
      <trkpt lat="47.40154" lon="6.71271">
        <ele>505</ele>
        <time>2016-02-28T09:58:12.999Z</time>
      </trkpt>
      <trkpt lat="47.40151" lon="6.7127">
        <ele>505</ele>
        <time>2016-02-28T09:58:13.999Z</time>
      </trkpt>
      <trkpt lat="47.40148" lon="6.71269">
        <ele>505</ele>
        <time>2016-02-28T09:58:15.000Z</time>
      </trkpt>
      <trkpt lat="47.40145" lon="6.71268">
        <ele>505</ele>
        <time>2016-02-28T09:58:16.000Z</time>
      </trkpt>
      <trkpt lat="47.40143" lon="6.71267">
        <ele>505</ele>
        <time>2016-02-28T09:58:17.001Z</time>
      </trkpt>
      <trkpt lat="47.4014" lon="6.71266">
        <ele>505</ele>
        <time>2016-02-28T09:58:18.000Z</time>
      </trkpt>
      <trkpt lat="47.40137" lon="6.71264">
        <ele>505</ele>
        <time>2016-02-28T09:58:19.000Z</time>
      </trkpt>
      <trkpt lat="47.40134" lon="6.71263">
        <ele>505</ele>
        <time>2016-02-28T09:58:20.000Z</time>
      </trkpt>
      <trkpt lat="47.40132" lon="6.71262">
        <ele>505</ele>
        <time>2016-02-28T09:58:21.000Z</time>
      </trkpt>
      <trkpt lat="47.40129" lon="6.71261">
        <ele>506</ele>
        <time>2016-02-28T09:58:22.000Z</time>
      </trkpt>
      <trkpt lat="47.40126" lon="6.7126">
        <ele>506</ele>
        <time>2016-02-28T09:58:23.000Z</time>
      </trkpt>
      <trkpt lat="47.40124" lon="6.7126">
        <ele>506</ele>
        <time>2016-02-28T09:58:24.000Z</time>
      </trkpt>
      <trkpt lat="47.40121" lon="6.71259">
        <ele>506</ele>
        <time>2016-02-28T09:58:25.000Z</time>
      </trkpt>
      <trkpt lat="47.40119" lon="6.71258">
        <ele>506</ele>
        <time>2016-02-28T09:58:26.000Z</time>
      </trkpt>
      <trkpt lat="47.40116" lon="6.71257">
        <ele>506</ele>
        <time>2016-02-28T09:58:27.000Z</time>
      </trkpt>
      <trkpt lat="47.40113" lon="6.71255">
        <ele>507</ele>
        <time>2016-02-28T09:58:28.000Z</time>
      </trkpt>
      <trkpt lat="47.40111" lon="6.71254">
        <ele>507</ele>
        <time>2016-02-28T09:58:29.000Z</time>
      </trkpt>
      <trkpt lat="47.40108" lon="6.71252">
        <ele>507</ele>
        <time>2016-02-28T09:58:30.000Z</time>
      </trkpt>
      <trkpt lat="47.40105" lon="6.7125">
        <ele>507</ele>
        <time>2016-02-28T09:58:31.000Z</time>
      </trkpt>
      <trkpt lat="47.40102" lon="6.71249">
        <ele>509</ele>
        <time>2016-02-28T09:58:32.000Z</time>
      </trkpt>
      <trkpt lat="47.40099" lon="6.71247">
        <ele>509</ele>
        <time>2016-02-28T09:58:33.000Z</time>
      </trkpt>
      <trkpt lat="47.40096" lon="6.71245">
        <ele>509</ele>
        <time>2016-02-28T09:58:34.000Z</time>
      </trkpt>
      <trkpt lat="47.40094" lon="6.71243">
        <ele>509</ele>
        <time>2016-02-28T09:58:35.000Z</time>
      </trkpt>
      <trkpt lat="47.40091" lon="6.71243">
        <ele>509</ele>
        <time>2016-02-28T09:58:36.000Z</time>
      </trkpt>
      <trkpt lat="47.40088" lon="6.71242">
        <ele>509</ele>
        <time>2016-02-28T09:58:37.000Z</time>
      </trkpt>
      <trkpt lat="47.40085" lon="6.71242">
        <ele>510</ele>
        <time>2016-02-28T09:58:38.000Z</time>
      </trkpt>
      <trkpt lat="47.40082" lon="6.71242">
        <ele>511</ele>
        <time>2016-02-28T09:58:39.000Z</time>
      </trkpt>
      <trkpt lat="47.40079" lon="6.71242">
        <ele>511</ele>
        <time>2016-02-28T09:58:40.000Z</time>
      </trkpt>
      <trkpt lat="47.40076" lon="6.71243">
        <ele>512</ele>
        <time>2016-02-28T09:58:41.000Z</time>
      </trkpt>
      <trkpt lat="47.40073" lon="6.71243">
        <ele>512</ele>
        <time>2016-02-28T09:58:42.000Z</time>
      </trkpt>
      <trkpt lat="47.40071" lon="6.71243">
        <ele>512</ele>
        <time>2016-02-28T09:58:43.000Z</time>
      </trkpt>
      <trkpt lat="47.40068" lon="6.71242">
        <ele>512</ele>
        <time>2016-02-28T09:58:44.000Z</time>
      </trkpt>
      <trkpt lat="47.40065" lon="6.71241">
        <ele>513</ele>
        <time>2016-02-28T09:58:45.000Z</time>
      </trkpt>
      <trkpt lat="47.40063" lon="6.7124">
        <ele>513</ele>
        <time>2016-02-28T09:58:46.000Z</time>
      </trkpt>
      <trkpt lat="47.4006" lon="6.71239">
        <ele>513</ele>
        <time>2016-02-28T09:58:47.000Z</time>
      </trkpt>
      <trkpt lat="47.40057" lon="6.71238">
        <ele>513</ele>
        <time>2016-02-28T09:58:48.000Z</time>
      </trkpt>
      <trkpt lat="47.40055" lon="6.71237">
        <ele>513</ele>
        <time>2016-02-28T09:58:49.000Z</time>
      </trkpt>
      <trkpt lat="47.40053" lon="6.71236">
        <ele>514</ele>
        <time>2016-02-28T09:58:50.000Z</time>
      </trkpt>
      <trkpt lat="47.40049" lon="6.71234">
        <ele>514</ele>
        <time>2016-02-28T09:58:52.000Z</time>
      </trkpt>
      <trkpt lat="47.40047" lon="6.71233">
        <ele>514</ele>
        <time>2016-02-28T09:58:53.000Z</time>
      </trkpt>
      <trkpt lat="47.40045" lon="6.71232">
        <ele>514</ele>
        <time>2016-02-28T09:58:54.000Z</time>
      </trkpt>
      <trkpt lat="47.40043" lon="6.71231">
        <ele>514</ele>
        <time>2016-02-28T09:58:55.000Z</time>
      </trkpt>
      <trkpt lat="47.4004" lon="6.7123">
        <ele>514</ele>
        <time>2016-02-28T09:58:56.000Z</time>
      </trkpt>
      <trkpt lat="47.40038" lon="6.71229">
        <ele>514</ele>
        <time>2016-02-28T09:58:57.000Z</time>
      </trkpt>
      <trkpt lat="47.40036" lon="6.71228">
        <ele>515</ele>
        <time>2016-02-28T09:58:58.000Z</time>
      </trkpt>
      <trkpt lat="47.40033" lon="6.71226">
        <ele>515</ele>
        <time>2016-02-28T09:58:59.000Z</time>
      </trkpt>
      <trkpt lat="47.40031" lon="6.71224">
        <ele>515</ele>
        <time>2016-02-28T09:59:00.000Z</time>
      </trkpt>
      <trkpt lat="47.40028" lon="6.71222">
        <ele>515</ele>
        <time>2016-02-28T09:59:01.000Z</time>
      </trkpt>
      <trkpt lat="47.40026" lon="6.7122">
        <ele>515</ele>
        <time>2016-02-28T09:59:02.000Z</time>
      </trkpt>
      <trkpt lat="47.40023" lon="6.71218">
        <ele>515</ele>
        <time>2016-02-28T09:59:03.000Z</time>
      </trkpt>
      <trkpt lat="47.40021" lon="6.71216">
        <ele>515</ele>
        <time>2016-02-28T09:59:04.000Z</time>
      </trkpt>
      <trkpt lat="47.40019" lon="6.71215">
        <ele>515</ele>
        <time>2016-02-28T09:59:05.000Z</time>
      </trkpt>
      <trkpt lat="47.40016" lon="6.71213">
        <ele>515</ele>
        <time>2016-02-28T09:59:06.000Z</time>
      </trkpt>
      <trkpt lat="47.40013" lon="6.71212">
        <ele>515</ele>
        <time>2016-02-28T09:59:07.000Z</time>
      </trkpt>
      <trkpt lat="47.40011" lon="6.71212">
        <ele>515</ele>
        <time>2016-02-28T09:59:08.000Z</time>
      </trkpt>
      <trkpt lat="47.40009" lon="6.71212">
        <ele>515</ele>
        <time>2016-02-28T09:59:09.000Z</time>
      </trkpt>
      <trkpt lat="47.40004" lon="6.71212">
        <ele>516</ele>
        <time>2016-02-28T09:59:11.000Z</time>
      </trkpt>
      <trkpt lat="47.40002" lon="6.71212">
        <ele>516</ele>
        <time>2016-02-28T09:59:12.000Z</time>
      </trkpt>
      <trkpt lat="47.39999" lon="6.71212">
        <ele>517</ele>
        <time>2016-02-28T09:59:14.000Z</time>
      </trkpt>
      <trkpt lat="47.39997" lon="6.71212">
        <ele>517</ele>
        <time>2016-02-28T09:59:15.000Z</time>
      </trkpt>
      <trkpt lat="47.40001" lon="6.7121">
        <ele>516</ele>
        <time>2016-02-28T10:03:37.000Z</time>
      </trkpt>
      <trkpt lat="47.40002" lon="6.71208">
        <ele>516</ele>
        <time>2016-02-28T10:03:38.000Z</time>
      </trkpt>
      <trkpt lat="47.40003" lon="6.71202">
        <ele>516</ele>
        <time>2016-02-28T10:03:41.000Z</time>
      </trkpt>
      <trkpt lat="47.40003" lon="6.712">
        <ele>516</ele>
        <time>2016-02-28T10:03:42.000Z</time>
      </trkpt>
      <trkpt lat="47.40002" lon="6.71196">
        <ele>516</ele>
        <time>2016-02-28T10:03:44.000Z</time>
      </trkpt>
      <trkpt lat="47.40001" lon="6.71193">
        <ele>516</ele>
        <time>2016-02-28T10:03:45.000Z</time>
      </trkpt>
      <trkpt lat="47.4" lon="6.71189">
        <ele>517</ele>
        <time>2016-02-28T10:03:47.000Z</time>
      </trkpt>
      <trkpt lat="47.4" lon="6.71186">
        <ele>517</ele>
        <time>2016-02-28T10:03:48.000Z</time>
      </trkpt>
      <trkpt lat="47.39999" lon="6.71183">
        <ele>517</ele>
        <time>2016-02-28T10:03:49.000Z</time>
      </trkpt>
      <trkpt lat="47.39998" lon="6.71179">
        <ele>517</ele>
        <time>2016-02-28T10:03:50.000Z</time>
      </trkpt>
      <trkpt lat="47.39997" lon="6.71176">
        <ele>518</ele>
        <time>2016-02-28T10:03:51.000Z</time>
      </trkpt>
      <trkpt lat="47.39996" lon="6.71172">
        <ele>518</ele>
        <time>2016-02-28T10:03:52.000Z</time>
      </trkpt>
      <trkpt lat="47.39996" lon="6.71168">
        <ele>518</ele>
        <time>2016-02-28T10:03:53.000Z</time>
      </trkpt>
      <trkpt lat="47.39996" lon="6.71164">
        <ele>518</ele>
        <time>2016-02-28T10:03:54.000Z</time>
      </trkpt>
      <trkpt lat="47.39996" lon="6.71161">
        <ele>518</ele>
        <time>2016-02-28T10:03:55.000Z</time>
      </trkpt>
      <trkpt lat="47.39996" lon="6.71157">
        <ele>518</ele>
        <time>2016-02-28T10:03:56.000Z</time>
      </trkpt>
      <trkpt lat="47.39995" lon="6.71153">
        <ele>518</ele>
        <time>2016-02-28T10:03:57.000Z</time>
      </trkpt>
      <trkpt lat="47.39995" lon="6.71149">
        <ele>518</ele>
        <time>2016-02-28T10:03:58.000Z</time>
      </trkpt>
      <trkpt lat="47.39995" lon="6.71144">
        <ele>518</ele>
        <time>2016-02-28T10:03:59.000Z</time>
      </trkpt>
      <trkpt lat="47.39995" lon="6.7114">
        <ele>518</ele>
        <time>2016-02-28T10:04:00.000Z</time>
      </trkpt>
      <trkpt lat="47.39995" lon="6.71137">
        <ele>518</ele>
        <time>2016-02-28T10:04:01.000Z</time>
      </trkpt>
      <trkpt lat="47.39995" lon="6.71133">
        <ele>518</ele>
        <time>2016-02-28T10:04:02.000Z</time>
      </trkpt>
      <trkpt lat="47.39994" lon="6.7113">
        <ele>518</ele>
        <time>2016-02-28T10:04:03.000Z</time>
      </trkpt>
      <trkpt lat="47.39994" lon="6.71126">
        <ele>518</ele>
        <time>2016-02-28T10:04:04.000Z</time>
      </trkpt>
      <trkpt lat="47.39994" lon="6.71122">
        <ele>518</ele>
        <time>2016-02-28T10:04:05.000Z</time>
      </trkpt>
      <trkpt lat="47.39993" lon="6.71118">
        <ele>518</ele>
        <time>2016-02-28T10:04:06.000Z</time>
      </trkpt>
      <trkpt lat="47.39992" lon="6.71114">
        <ele>518</ele>
        <time>2016-02-28T10:04:07.000Z</time>
      </trkpt>
      <trkpt lat="47.39991" lon="6.7111">
        <ele>518</ele>
        <time>2016-02-28T10:04:08.000Z</time>
      </trkpt>
      <trkpt lat="47.39991" lon="6.71105">
        <ele>518</ele>
        <time>2016-02-28T10:04:09.000Z</time>
      </trkpt>
      <trkpt lat="47.3999" lon="6.711">
        <ele>518</ele>
        <time>2016-02-28T10:04:10.000Z</time>
      </trkpt>
      <trkpt lat="47.3999" lon="6.71095">
        <ele>518</ele>
        <time>2016-02-28T10:04:11.000Z</time>
      </trkpt>
      <trkpt lat="47.39989" lon="6.71089">
        <ele>518</ele>
        <time>2016-02-28T10:04:12.000Z</time>
      </trkpt>
      <trkpt lat="47.39989" lon="6.71083">
        <ele>518</ele>
        <time>2016-02-28T10:04:13.000Z</time>
      </trkpt>
      <trkpt lat="47.39988" lon="6.71078">
        <ele>518</ele>
        <time>2016-02-28T10:04:14.000Z</time>
      </trkpt>
      <trkpt lat="47.39988" lon="6.71073">
        <ele>518</ele>
        <time>2016-02-28T10:04:15.000Z</time>
      </trkpt>
      <trkpt lat="47.39987" lon="6.71068">
        <ele>518</ele>
        <time>2016-02-28T10:04:16.000Z</time>
      </trkpt>
      <trkpt lat="47.39987" lon="6.71062">
        <ele>518</ele>
        <time>2016-02-28T10:04:17.000Z</time>
      </trkpt>
      <trkpt lat="47.39986" lon="6.71057">
        <ele>518</ele>
        <time>2016-02-28T10:04:18.000Z</time>
      </trkpt>
      <trkpt lat="47.39985" lon="6.71051">
        <ele>518</ele>
        <time>2016-02-28T10:04:19.000Z</time>
      </trkpt>
      <trkpt lat="47.39984" lon="6.71045">
        <ele>518</ele>
        <time>2016-02-28T10:04:20.000Z</time>
      </trkpt>
      <trkpt lat="47.39983" lon="6.71038">
        <ele>518</ele>
        <time>2016-02-28T10:04:21.000Z</time>
      </trkpt>
      <trkpt lat="47.39982" lon="6.71031">
        <ele>518</ele>
        <time>2016-02-28T10:04:22.000Z</time>
      </trkpt>
      <trkpt lat="47.3998" lon="6.71016">
        <ele>519</ele>
        <time>2016-02-28T10:04:23.000Z</time>
      </trkpt>
      <trkpt lat="47.3998" lon="6.71008">
        <ele>519</ele>
        <time>2016-02-28T10:04:24.000Z</time>
      </trkpt>
      <trkpt lat="47.39979" lon="6.71">
        <ele>518</ele>
        <time>2016-02-28T10:04:25.000Z</time>
      </trkpt>
      <trkpt lat="47.39978" lon="6.70991">
        <ele>518</ele>
        <time>2016-02-28T10:04:26.000Z</time>
      </trkpt>
      <trkpt lat="47.39975" lon="6.70981">
        <ele>517</ele>
        <time>2016-02-28T10:04:27.000Z</time>
      </trkpt>
      <trkpt lat="47.39973" lon="6.70971">
        <ele>517</ele>
        <time>2016-02-28T10:04:28.000Z</time>
      </trkpt>
      <trkpt lat="47.39972" lon="6.70961">
        <ele>517</ele>
        <time>2016-02-28T10:04:29.000Z</time>
      </trkpt>
      <trkpt lat="47.3997" lon="6.70955">
        <ele>516</ele>
        <time>2016-02-28T10:04:30.000Z</time>
      </trkpt>
      <trkpt lat="47.39968" lon="6.7095">
        <ele>516</ele>
        <time>2016-02-28T10:04:31.000Z</time>
      </trkpt>
      <trkpt lat="47.39966" lon="6.70945">
        <ele>516</ele>
        <time>2016-02-28T10:04:32.000Z</time>
      </trkpt>
      <trkpt lat="47.39966" lon="6.70941">
        <ele>516</ele>
        <time>2016-02-28T10:04:33.000Z</time>
      </trkpt>
      <trkpt lat="47.39967" lon="6.70937">
        <ele>516</ele>
        <time>2016-02-28T10:04:34.000Z</time>
      </trkpt>
      <trkpt lat="47.39969" lon="6.70934">
        <ele>516</ele>
        <time>2016-02-28T10:04:35.000Z</time>
      </trkpt>
      <trkpt lat="47.39971" lon="6.70931">
        <ele>516</ele>
        <time>2016-02-28T10:04:36.000Z</time>
      </trkpt>
      <trkpt lat="47.39972" lon="6.70928">
        <ele>516</ele>
        <time>2016-02-28T10:04:37.000Z</time>
      </trkpt>
      <trkpt lat="47.39973" lon="6.70925">
        <ele>516</ele>
        <time>2016-02-28T10:04:38.000Z</time>
      </trkpt>
      <trkpt lat="47.39974" lon="6.70921">
        <ele>516</ele>
        <time>2016-02-28T10:04:39.000Z</time>
      </trkpt>
      <trkpt lat="47.39976" lon="6.70917">
        <ele>516</ele>
        <time>2016-02-28T10:04:40.000Z</time>
      </trkpt>
      <trkpt lat="47.39979" lon="6.70911">
        <ele>512</ele>
        <time>2016-02-28T10:04:41.000Z</time>
      </trkpt>
      <trkpt lat="47.39981" lon="6.70907">
        <ele>512</ele>
        <time>2016-02-28T10:04:42.000Z</time>
      </trkpt>
      <trkpt lat="47.39983" lon="6.70902">
        <ele>512</ele>
        <time>2016-02-28T10:04:43.000Z</time>
      </trkpt>
      <trkpt lat="47.39986" lon="6.70897">
        <ele>512</ele>
        <time>2016-02-28T10:04:44.000Z</time>
      </trkpt>
      <trkpt lat="47.39988" lon="6.70893">
        <ele>511</ele>
        <time>2016-02-28T10:04:45.000Z</time>
      </trkpt>
      <trkpt lat="47.39989" lon="6.70889">
        <ele>511</ele>
        <time>2016-02-28T10:04:46.000Z</time>
      </trkpt>
      <trkpt lat="47.39991" lon="6.70886">
        <ele>511</ele>
        <time>2016-02-28T10:04:47.000Z</time>
      </trkpt>
      <trkpt lat="47.39992" lon="6.70883">
        <ele>511</ele>
        <time>2016-02-28T10:04:48.000Z</time>
      </trkpt>
      <trkpt lat="47.39993" lon="6.7088">
        <ele>511</ele>
        <time>2016-02-28T10:04:49.000Z</time>
      </trkpt>
      <trkpt lat="47.39994" lon="6.70877">
        <ele>510</ele>
        <time>2016-02-28T10:04:50.000Z</time>
      </trkpt>
      <trkpt lat="47.39995" lon="6.70873">
        <ele>510</ele>
        <time>2016-02-28T10:04:51.000Z</time>
      </trkpt>
      <trkpt lat="47.39996" lon="6.70869">
        <ele>510</ele>
        <time>2016-02-28T10:04:52.000Z</time>
      </trkpt>
      <trkpt lat="47.39997" lon="6.70865">
        <ele>510</ele>
        <time>2016-02-28T10:04:53.000Z</time>
      </trkpt>
      <trkpt lat="47.39997" lon="6.70861">
        <ele>510</ele>
        <time>2016-02-28T10:04:54.000Z</time>
      </trkpt>
      <trkpt lat="47.39998" lon="6.70857">
        <ele>510</ele>
        <time>2016-02-28T10:04:55.000Z</time>
      </trkpt>
      <trkpt lat="47.39999" lon="6.70854">
        <ele>510</ele>
        <time>2016-02-28T10:04:56.000Z</time>
      </trkpt>
      <trkpt lat="47.4" lon="6.7085">
        <ele>510</ele>
        <time>2016-02-28T10:04:57.000Z</time>
      </trkpt>
      <trkpt lat="47.4" lon="6.70847">
        <ele>511</ele>
        <time>2016-02-28T10:04:58.000Z</time>
      </trkpt>
      <trkpt lat="47.40001" lon="6.70842">
        <ele>511</ele>
        <time>2016-02-28T10:04:59.000Z</time>
      </trkpt>
      <trkpt lat="47.40002" lon="6.70838">
        <ele>510</ele>
        <time>2016-02-28T10:05:00.000Z</time>
      </trkpt>
      <trkpt lat="47.40002" lon="6.70832">
        <ele>510</ele>
        <time>2016-02-28T10:05:02.000Z</time>
      </trkpt>
      <trkpt lat="47.40002" lon="6.70829">
        <ele>510</ele>
        <time>2016-02-28T10:05:03.000Z</time>
      </trkpt>
      <trkpt lat="47.40001" lon="6.70825">
        <ele>510</ele>
        <time>2016-02-28T10:05:04.000Z</time>
      </trkpt>
      <trkpt lat="47.4" lon="6.7082">
        <ele>510</ele>
        <time>2016-02-28T10:05:05.000Z</time>
      </trkpt>
      <trkpt lat="47.4" lon="6.70815">
        <ele>506</ele>
        <time>2016-02-28T10:05:06.000Z</time>
      </trkpt>
      <trkpt lat="47.39999" lon="6.70809">
        <ele>505</ele>
        <time>2016-02-28T10:05:07.000Z</time>
      </trkpt>
      <trkpt lat="47.4" lon="6.70804">
        <ele>504</ele>
        <time>2016-02-28T10:05:08.000Z</time>
      </trkpt>
      <trkpt lat="47.40001" lon="6.70799">
        <ele>509</ele>
        <time>2016-02-28T10:05:09.000Z</time>
      </trkpt>
      <trkpt lat="47.40002" lon="6.70794">
        <ele>509</ele>
        <time>2016-02-28T10:05:10.000Z</time>
      </trkpt>
      <trkpt lat="47.40004" lon="6.70789">
        <ele>509</ele>
        <time>2016-02-28T10:05:11.000Z</time>
      </trkpt>
      <trkpt lat="47.40007" lon="6.70783">
        <ele>509</ele>
        <time>2016-02-28T10:05:12.000Z</time>
      </trkpt>
      <trkpt lat="47.40011" lon="6.70778">
        <ele>509</ele>
        <time>2016-02-28T10:05:13.000Z</time>
      </trkpt>
      <trkpt lat="47.40015" lon="6.70773">
        <ele>509</ele>
        <time>2016-02-28T10:05:14.000Z</time>
      </trkpt>
      <trkpt lat="47.40018" lon="6.70767">
        <ele>509</ele>
        <time>2016-02-28T10:05:15.000Z</time>
      </trkpt>
      <trkpt lat="47.40021" lon="6.70762">
        <ele>509</ele>
        <time>2016-02-28T10:05:16.000Z</time>
      </trkpt>
      <trkpt lat="47.40023" lon="6.70756">
        <ele>509</ele>
        <time>2016-02-28T10:05:17.000Z</time>
      </trkpt>
      <trkpt lat="47.40026" lon="6.70749">
        <ele>507</ele>
        <time>2016-02-28T10:05:18.000Z</time>
      </trkpt>
      <trkpt lat="47.40028" lon="6.70742">
        <ele>507</ele>
        <time>2016-02-28T10:05:19.000Z</time>
      </trkpt>
      <trkpt lat="47.4003" lon="6.70733">
        <ele>508</ele>
        <time>2016-02-28T10:05:20.000Z</time>
      </trkpt>
      <trkpt lat="47.40028" lon="6.70712">
        <ele>508</ele>
        <time>2016-02-28T10:05:21.000Z</time>
      </trkpt>
      <trkpt lat="47.4003" lon="6.70701">
        <ele>507</ele>
        <time>2016-02-28T10:05:22.000Z</time>
      </trkpt>
      <trkpt lat="47.4003" lon="6.70693">
        <ele>507</ele>
        <time>2016-02-28T10:05:23.000Z</time>
      </trkpt>
      <trkpt lat="47.40029" lon="6.70681">
        <ele>507</ele>
        <time>2016-02-28T10:05:24.000Z</time>
      </trkpt>
      <trkpt lat="47.40028" lon="6.70671">
        <ele>508</ele>
        <time>2016-02-28T10:05:25.000Z</time>
      </trkpt>
      <trkpt lat="47.40028" lon="6.70663">
        <ele>506</ele>
        <time>2016-02-28T10:05:26.000Z</time>
      </trkpt>
      <trkpt lat="47.40029" lon="6.70653">
        <ele>506</ele>
        <time>2016-02-28T10:05:27.000Z</time>
      </trkpt>
      <trkpt lat="47.40028" lon="6.70644">
        <ele>506</ele>
        <time>2016-02-28T10:05:28.000Z</time>
      </trkpt>
      <trkpt lat="47.40025" lon="6.70635">
        <ele>506</ele>
        <time>2016-02-28T10:05:29.000Z</time>
      </trkpt>
      <trkpt lat="47.40025" lon="6.70626">
        <ele>506</ele>
        <time>2016-02-28T10:05:30.000Z</time>
      </trkpt>
      <trkpt lat="47.40025" lon="6.70618">
        <ele>506</ele>
        <time>2016-02-28T10:05:31.000Z</time>
      </trkpt>
      <trkpt lat="47.40025" lon="6.70609">
        <ele>506</ele>
        <time>2016-02-28T10:05:32.000Z</time>
      </trkpt>
      <trkpt lat="47.40025" lon="6.70601">
        <ele>506</ele>
        <time>2016-02-28T10:05:33.000Z</time>
      </trkpt>
      <trkpt lat="47.40023" lon="6.7059">
        <ele>505</ele>
        <time>2016-02-28T10:05:34.000Z</time>
      </trkpt>
      <trkpt lat="47.40021" lon="6.70581">
        <ele>503</ele>
        <time>2016-02-28T10:05:35.000Z</time>
      </trkpt>
      <trkpt lat="47.40021" lon="6.70572">
        <ele>503</ele>
        <time>2016-02-28T10:05:36.000Z</time>
      </trkpt>
      <trkpt lat="47.40022" lon="6.70563">
        <ele>502</ele>
        <time>2016-02-28T10:05:37.000Z</time>
      </trkpt>
      <trkpt lat="47.40019" lon="6.70554">
        <ele>502</ele>
        <time>2016-02-28T10:05:38.000Z</time>
      </trkpt>
      <trkpt lat="47.40018" lon="6.70545">
        <ele>502</ele>
        <time>2016-02-28T10:05:39.000Z</time>
      </trkpt>
      <trkpt lat="47.40019" lon="6.70537">
        <ele>501</ele>
        <time>2016-02-28T10:05:40.000Z</time>
      </trkpt>
      <trkpt lat="47.40019" lon="6.70526">
        <ele>501</ele>
        <time>2016-02-28T10:05:41.000Z</time>
      </trkpt>
      <trkpt lat="47.40017" lon="6.70516">
        <ele>501</ele>
        <time>2016-02-28T10:05:42.000Z</time>
      </trkpt>
      <trkpt lat="47.40015" lon="6.70509">
        <ele>500</ele>
        <time>2016-02-28T10:05:43.000Z</time>
      </trkpt>
      <trkpt lat="47.40014" lon="6.70498">
        <ele>498</ele>
        <time>2016-02-28T10:05:44.000Z</time>
      </trkpt>
      <trkpt lat="47.40013" lon="6.70489">
        <ele>497</ele>
        <time>2016-02-28T10:05:45.000Z</time>
      </trkpt>
      <trkpt lat="47.40012" lon="6.70478">
        <ele>497</ele>
        <time>2016-02-28T10:05:46.000Z</time>
      </trkpt>
      <trkpt lat="47.4001" lon="6.70467">
        <ele>496</ele>
        <time>2016-02-28T10:05:47.000Z</time>
      </trkpt>
      <trkpt lat="47.4001" lon="6.70456">
        <ele>495</ele>
        <time>2016-02-28T10:05:48.000Z</time>
      </trkpt>
      <trkpt lat="47.40008" lon="6.70443">
        <ele>495</ele>
        <time>2016-02-28T10:05:49.000Z</time>
      </trkpt>
      <trkpt lat="47.40006" lon="6.70432">
        <ele>494</ele>
        <time>2016-02-28T10:05:50.000Z</time>
      </trkpt>
      <trkpt lat="47.40005" lon="6.70421">
        <ele>494</ele>
        <time>2016-02-28T10:05:51.000Z</time>
      </trkpt>
      <trkpt lat="47.40004" lon="6.70409">
        <ele>492</ele>
        <time>2016-02-28T10:05:52.000Z</time>
      </trkpt>
      <trkpt lat="47.40002" lon="6.70398">
        <ele>491</ele>
        <time>2016-02-28T10:05:53.000Z</time>
      </trkpt>
      <trkpt lat="47.40001" lon="6.70388">
        <ele>490</ele>
        <time>2016-02-28T10:05:54.000Z</time>
      </trkpt>
      <trkpt lat="47.39999" lon="6.70378">
        <ele>487</ele>
        <time>2016-02-28T10:05:55.000Z</time>
      </trkpt>
      <trkpt lat="47.39997" lon="6.70369">
        <ele>487</ele>
        <time>2016-02-28T10:05:56.000Z</time>
      </trkpt>
      <trkpt lat="47.39997" lon="6.70363">
        <ele>487</ele>
        <time>2016-02-28T10:05:57.000Z</time>
      </trkpt>
      <trkpt lat="47.39996" lon="6.70358">
        <ele>487</ele>
        <time>2016-02-28T10:05:58.000Z</time>
      </trkpt>
      <trkpt lat="47.39999" lon="6.70355">
        <ele>487</ele>
        <time>2016-02-28T10:06:03.000Z</time>
      </trkpt>
      <trkpt lat="47.40001" lon="6.70355">
        <ele>489</ele>
        <time>2016-02-28T10:06:04.000Z</time>
      </trkpt>
      <trkpt lat="47.40002" lon="6.70356">
        <ele>489</ele>
        <time>2016-02-28T10:06:05.000Z</time>
      </trkpt>
      <trkpt lat="47.40005" lon="6.70356">
        <ele>489</ele>
        <time>2016-02-28T10:06:06.000Z</time>
      </trkpt>
      <trkpt lat="47.40008" lon="6.70357">
        <ele>488</ele>
        <time>2016-02-28T10:06:07.000Z</time>
      </trkpt>
      <trkpt lat="47.40011" lon="6.70357">
        <ele>488</ele>
        <time>2016-02-28T10:06:08.000Z</time>
      </trkpt>
      <trkpt lat="47.40014" lon="6.70358">
        <ele>488</ele>
        <time>2016-02-28T10:06:09.000Z</time>
      </trkpt>
      <trkpt lat="47.40017" lon="6.70358">
        <ele>488</ele>
        <time>2016-02-28T10:06:10.000Z</time>
      </trkpt>
      <trkpt lat="47.4002" lon="6.70359">
        <ele>488</ele>
        <time>2016-02-28T10:06:11.000Z</time>
      </trkpt>
      <trkpt lat="47.40023" lon="6.7036">
        <ele>488</ele>
        <time>2016-02-28T10:06:12.000Z</time>
      </trkpt>
      <trkpt lat="47.40026" lon="6.70362">
        <ele>488</ele>
        <time>2016-02-28T10:06:13.000Z</time>
      </trkpt>
      <trkpt lat="47.4003" lon="6.70363">
        <ele>488</ele>
        <time>2016-02-28T10:06:14.000Z</time>
      </trkpt>
      <trkpt lat="47.40034" lon="6.70363">
        <ele>488</ele>
        <time>2016-02-28T10:06:15.000Z</time>
      </trkpt>
      <trkpt lat="47.40038" lon="6.70364">
        <ele>487</ele>
        <time>2016-02-28T10:06:16.000Z</time>
      </trkpt>
      <trkpt lat="47.40043" lon="6.70365">
        <ele>487</ele>
        <time>2016-02-28T10:06:17.000Z</time>
      </trkpt>
      <trkpt lat="47.40048" lon="6.70367">
        <ele>487</ele>
        <time>2016-02-28T10:06:18.000Z</time>
      </trkpt>
      <trkpt lat="47.40054" lon="6.70368">
        <ele>487</ele>
        <time>2016-02-28T10:06:19.000Z</time>
      </trkpt>
      <trkpt lat="47.40059" lon="6.7037">
        <ele>487</ele>
        <time>2016-02-28T10:06:20.000Z</time>
      </trkpt>
      <trkpt lat="47.40064" lon="6.70372">
        <ele>487</ele>
        <time>2016-02-28T10:06:21.000Z</time>
      </trkpt>
      <trkpt lat="47.40069" lon="6.70374">
        <ele>487</ele>
        <time>2016-02-28T10:06:22.000Z</time>
      </trkpt>
      <trkpt lat="47.40074" lon="6.70377">
        <ele>487</ele>
        <time>2016-02-28T10:06:23.000Z</time>
      </trkpt>
      <trkpt lat="47.40078" lon="6.70381">
        <ele>487</ele>
        <time>2016-02-28T10:06:24.000Z</time>
      </trkpt>
      <trkpt lat="47.40082" lon="6.70385">
        <ele>487</ele>
        <time>2016-02-28T10:06:25.000Z</time>
      </trkpt>
      <trkpt lat="47.40086" lon="6.7039">
        <ele>484</ele>
        <time>2016-02-28T10:06:26.000Z</time>
      </trkpt>
      <trkpt lat="47.4009" lon="6.70394">
        <ele>484</ele>
        <time>2016-02-28T10:06:27.000Z</time>
      </trkpt>
      <trkpt lat="47.40093" lon="6.70398">
        <ele>485</ele>
        <time>2016-02-28T10:06:28.000Z</time>
      </trkpt>
      <trkpt lat="47.40096" lon="6.70402">
        <ele>485</ele>
        <time>2016-02-28T10:06:29.000Z</time>
      </trkpt>
      <trkpt lat="47.40099" lon="6.70403">
        <ele>485</ele>
        <time>2016-02-28T10:06:30.000Z</time>
      </trkpt>
      <trkpt lat="47.40102" lon="6.70401">
        <ele>484</ele>
        <time>2016-02-28T10:06:31.000Z</time>
      </trkpt>
      <trkpt lat="47.40105" lon="6.70397">
        <ele>484</ele>
        <time>2016-02-28T10:06:32.000Z</time>
      </trkpt>
      <trkpt lat="47.40108" lon="6.70392">
        <ele>483</ele>
        <time>2016-02-28T10:06:33.000Z</time>
      </trkpt>
      <trkpt lat="47.4011" lon="6.70388">
        <ele>483</ele>
        <time>2016-02-28T10:06:34.000Z</time>
      </trkpt>
      <trkpt lat="47.40112" lon="6.70385">
        <ele>483</ele>
        <time>2016-02-28T10:06:35.000Z</time>
      </trkpt>
      <trkpt lat="47.40114" lon="6.70382">
        <ele>483</ele>
        <time>2016-02-28T10:06:36.000Z</time>
      </trkpt>
      <trkpt lat="47.40116" lon="6.70381">
        <ele>482</ele>
        <time>2016-02-28T10:06:37.000Z</time>
      </trkpt>
      <trkpt lat="47.40118" lon="6.7038">
        <ele>482</ele>
        <time>2016-02-28T10:06:38.000Z</time>
      </trkpt>
      <trkpt lat="47.40121" lon="6.7038">
        <ele>482</ele>
        <time>2016-02-28T10:06:39.000Z</time>
      </trkpt>
      <trkpt lat="47.40122" lon="6.70385">
        <ele>482</ele>
        <time>2016-02-28T10:06:48.000Z</time>
      </trkpt>
      <trkpt lat="47.40123" lon="6.70386">
        <ele>482</ele>
        <time>2016-02-28T10:06:49.000Z</time>
      </trkpt>
      <trkpt lat="47.40126" lon="6.7039">
        <ele>483</ele>
        <time>2016-02-28T10:06:57.000Z</time>
      </trkpt>
      <trkpt lat="47.40128" lon="6.7039">
        <ele>482</ele>
        <time>2016-02-28T10:06:58.000Z</time>
      </trkpt>
      <trkpt lat="47.40131" lon="6.70388">
        <ele>482</ele>
        <time>2016-02-28T10:07:00.000Z</time>
      </trkpt>
      <trkpt lat="47.40133" lon="6.70386">
        <ele>482</ele>
        <time>2016-02-28T10:07:01.000Z</time>
      </trkpt>
      <trkpt lat="47.40135" lon="6.70385">
        <ele>482</ele>
        <time>2016-02-28T10:07:02.000Z</time>
      </trkpt>
      <trkpt lat="47.40138" lon="6.70385">
        <ele>482</ele>
        <time>2016-02-28T10:07:03.000Z</time>
      </trkpt>
      <trkpt lat="47.40141" lon="6.70385">
        <ele>482</ele>
        <time>2016-02-28T10:07:04.000Z</time>
      </trkpt>
      <trkpt lat="47.40144" lon="6.70386">
        <ele>482</ele>
        <time>2016-02-28T10:07:05.000Z</time>
      </trkpt>
      <trkpt lat="47.40147" lon="6.70387">
        <ele>482</ele>
        <time>2016-02-28T10:07:06.000Z</time>
      </trkpt>
      <trkpt lat="47.40151" lon="6.70388">
        <ele>482</ele>
        <time>2016-02-28T10:07:07.000Z</time>
      </trkpt>
      <trkpt lat="47.40155" lon="6.7039">
        <ele>482</ele>
        <time>2016-02-28T10:07:08.000Z</time>
      </trkpt>
      <trkpt lat="47.40159" lon="6.70391">
        <ele>482</ele>
        <time>2016-02-28T10:07:09.000Z</time>
      </trkpt>
      <trkpt lat="47.40163" lon="6.70393">
        <ele>482</ele>
        <time>2016-02-28T10:07:10.000Z</time>
      </trkpt>
      <trkpt lat="47.40166" lon="6.70394">
        <ele>482</ele>
        <time>2016-02-28T10:07:11.000Z</time>
      </trkpt>
      <trkpt lat="47.40168" lon="6.70395">
        <ele>479</ele>
        <time>2016-02-28T10:07:12.000Z</time>
      </trkpt>
      <trkpt lat="47.4017" lon="6.70397">
        <ele>479</ele>
        <time>2016-02-28T10:07:13.000Z</time>
      </trkpt>
      <trkpt lat="47.40173" lon="6.70399">
        <ele>479</ele>
        <time>2016-02-28T10:07:15.000Z</time>
      </trkpt>
      <trkpt lat="47.40175" lon="6.704">
        <ele>479</ele>
        <time>2016-02-28T10:07:16.000Z</time>
      </trkpt>
      <trkpt lat="47.40179" lon="6.70401">
        <ele>479</ele>
        <time>2016-02-28T10:07:18.000Z</time>
      </trkpt>
      <trkpt lat="47.40182" lon="6.70402">
        <ele>479</ele>
        <time>2016-02-28T10:07:19.000Z</time>
      </trkpt>
      <trkpt lat="47.40184" lon="6.70403">
        <ele>478</ele>
        <time>2016-02-28T10:07:20.000Z</time>
      </trkpt>
      <trkpt lat="47.40188" lon="6.70404">
        <ele>478</ele>
        <time>2016-02-28T10:07:21.000Z</time>
      </trkpt>
      <trkpt lat="47.40191" lon="6.70406">
        <ele>478</ele>
        <time>2016-02-28T10:07:22.000Z</time>
      </trkpt>
      <trkpt lat="47.40195" lon="6.70408">
        <ele>477</ele>
        <time>2016-02-28T10:07:23.000Z</time>
      </trkpt>
      <trkpt lat="47.402" lon="6.70411">
        <ele>477</ele>
        <time>2016-02-28T10:07:24.000Z</time>
      </trkpt>
      <trkpt lat="47.40205" lon="6.70413">
        <ele>477</ele>
        <time>2016-02-28T10:07:25.000Z</time>
      </trkpt>
      <trkpt lat="47.4021" lon="6.70416">
        <ele>476</ele>
        <time>2016-02-28T10:07:26.000Z</time>
      </trkpt>
      <trkpt lat="47.40214" lon="6.70419">
        <ele>481</ele>
        <time>2016-02-28T10:07:27.000Z</time>
      </trkpt>
      <trkpt lat="47.40219" lon="6.70423">
        <ele>481</ele>
        <time>2016-02-28T10:07:28.000Z</time>
      </trkpt>
      <trkpt lat="47.40223" lon="6.70428">
        <ele>481</ele>
        <time>2016-02-28T10:07:29.000Z</time>
      </trkpt>
      <trkpt lat="47.40227" lon="6.70432">
        <ele>481</ele>
        <time>2016-02-28T10:07:30.000Z</time>
      </trkpt>
      <trkpt lat="47.40232" lon="6.70437">
        <ele>481</ele>
        <time>2016-02-28T10:07:31.000Z</time>
      </trkpt>
      <trkpt lat="47.40236" lon="6.70441">
        <ele>481</ele>
        <time>2016-02-28T10:07:32.000Z</time>
      </trkpt>
      <trkpt lat="47.4024" lon="6.70445">
        <ele>481</ele>
        <time>2016-02-28T10:07:33.000Z</time>
      </trkpt>
      <trkpt lat="47.40244" lon="6.70449">
        <ele>481</ele>
        <time>2016-02-28T10:07:34.000Z</time>
      </trkpt>
      <trkpt lat="47.40248" lon="6.70453">
        <ele>481</ele>
        <time>2016-02-28T10:07:35.000Z</time>
      </trkpt>
      <trkpt lat="47.40253" lon="6.70457">
        <ele>475</ele>
        <time>2016-02-28T10:07:36.000Z</time>
      </trkpt>
      <trkpt lat="47.40257" lon="6.70459">
        <ele>475</ele>
        <time>2016-02-28T10:07:37.000Z</time>
      </trkpt>
      <trkpt lat="47.40261" lon="6.70462">
        <ele>475</ele>
        <time>2016-02-28T10:07:38.000Z</time>
      </trkpt>
      <trkpt lat="47.40264" lon="6.70465">
        <ele>475</ele>
        <time>2016-02-28T10:07:39.000Z</time>
      </trkpt>
      <trkpt lat="47.40267" lon="6.70467">
        <ele>475</ele>
        <time>2016-02-28T10:07:40.000Z</time>
      </trkpt>
      <trkpt lat="47.40271" lon="6.7047">
        <ele>475</ele>
        <time>2016-02-28T10:07:42.000Z</time>
      </trkpt>
      <trkpt lat="47.40272" lon="6.70472">
        <ele>475</ele>
        <time>2016-02-28T10:07:43.000Z</time>
      </trkpt>
      <trkpt lat="47.40275" lon="6.70476">
        <ele>475</ele>
        <time>2016-02-28T10:07:46.000Z</time>
      </trkpt>
      <trkpt lat="47.40276" lon="6.70477">
        <ele>475</ele>
        <time>2016-02-28T10:07:47.000Z</time>
      </trkpt>
      <trkpt lat="47.40279" lon="6.7048">
        <ele>475</ele>
        <time>2016-02-28T10:07:49.000Z</time>
      </trkpt>
      <trkpt lat="47.4028" lon="6.70482">
        <ele>475</ele>
        <time>2016-02-28T10:07:50.000Z</time>
      </trkpt>
      <trkpt lat="47.40282" lon="6.70485">
        <ele>475</ele>
        <time>2016-02-28T10:07:51.000Z</time>
      </trkpt>
      <trkpt lat="47.40285" lon="6.70488">
        <ele>475</ele>
        <time>2016-02-28T10:07:52.000Z</time>
      </trkpt>
      <trkpt lat="47.40287" lon="6.70491">
        <ele>475</ele>
        <time>2016-02-28T10:07:53.000Z</time>
      </trkpt>
      <trkpt lat="47.40291" lon="6.70495">
        <ele>475</ele>
        <time>2016-02-28T10:07:54.000Z</time>
      </trkpt>
      <trkpt lat="47.40294" lon="6.70499">
        <ele>475</ele>
        <time>2016-02-28T10:07:55.000Z</time>
      </trkpt>
      <trkpt lat="47.40298" lon="6.70503">
        <ele>479</ele>
        <time>2016-02-28T10:07:56.000Z</time>
      </trkpt>
      <trkpt lat="47.40303" lon="6.70508">
        <ele>479</ele>
        <time>2016-02-28T10:07:57.000Z</time>
      </trkpt>
      <trkpt lat="47.40313" lon="6.70519">
        <ele>478</ele>
        <time>2016-02-28T10:07:58.000Z</time>
      </trkpt>
      <trkpt lat="47.40318" lon="6.70523">
        <ele>478</ele>
        <time>2016-02-28T10:07:59.000Z</time>
      </trkpt>
      <trkpt lat="47.40322" lon="6.70528">
        <ele>478</ele>
        <time>2016-02-28T10:08:00.000Z</time>
      </trkpt>
      <trkpt lat="47.40325" lon="6.7053">
        <ele>478</ele>
        <time>2016-02-28T10:08:01.000Z</time>
      </trkpt>
      <trkpt lat="47.40328" lon="6.70531">
        <ele>478</ele>
        <time>2016-02-28T10:08:02.000Z</time>
      </trkpt>
      <trkpt lat="47.40329" lon="6.70534">
        <ele>479</ele>
        <time>2016-02-28T10:08:03.000Z</time>
      </trkpt>
      <trkpt lat="47.4033" lon="6.70537">
        <ele>479</ele>
        <time>2016-02-28T10:08:04.000Z</time>
      </trkpt>
      <trkpt lat="47.40334" lon="6.7054">
        <ele>472</ele>
        <time>2016-02-28T10:08:07.000Z</time>
      </trkpt>
      <trkpt lat="47.40335" lon="6.7054">
        <ele>472</ele>
        <time>2016-02-28T10:08:08.000Z</time>
      </trkpt>
      <trkpt lat="47.40339" lon="6.7054">
        <ele>472</ele>
        <time>2016-02-28T10:08:21.000Z</time>
      </trkpt>
      <trkpt lat="47.40339" lon="6.70539">
        <ele>472</ele>
        <time>2016-02-28T10:08:22.000Z</time>
      </trkpt>
      <trkpt lat="47.40341" lon="6.70534">
        <ele>471</ele>
        <time>2016-02-28T10:08:37.000Z</time>
      </trkpt>
      <trkpt lat="47.40341" lon="6.70533">
        <ele>471</ele>
        <time>2016-02-28T10:08:38.000Z</time>
      </trkpt>
      <trkpt lat="47.4034" lon="6.70528">
        <ele>471</ele>
        <time>2016-02-28T10:08:50.000Z</time>
      </trkpt>
      <trkpt lat="47.4034" lon="6.70527">
        <ele>471</ele>
        <time>2016-02-28T10:08:51.000Z</time>
      </trkpt>
      <trkpt lat="47.40337" lon="6.70523">
        <ele>471</ele>
        <time>2016-02-28T10:08:56.000Z</time>
      </trkpt>
      <trkpt lat="47.40336" lon="6.70523">
        <ele>471</ele>
        <time>2016-02-28T10:08:57.000Z</time>
      </trkpt>
      <trkpt lat="47.40332" lon="6.7052">
        <ele>477</ele>
        <time>2016-02-28T10:09:04.000Z</time>
      </trkpt>
      <trkpt lat="47.40332" lon="6.70519">
        <ele>477</ele>
        <time>2016-02-28T10:09:05.000Z</time>
      </trkpt>
      <trkpt lat="47.40328" lon="6.70516">
        <ele>477</ele>
        <time>2016-02-28T10:09:14.000Z</time>
      </trkpt>
      <trkpt lat="47.40327" lon="6.70517">
        <ele>477</ele>
        <time>2016-02-28T10:09:15.000Z</time>
      </trkpt>
      <trkpt lat="47.40326" lon="6.70523">
        <ele>478</ele>
        <time>2016-02-28T10:09:21.000Z</time>
      </trkpt>
      <trkpt lat="47.40325" lon="6.70523">
        <ele>478</ele>
        <time>2016-02-28T10:09:22.000Z</time>
      </trkpt>
      <trkpt lat="47.40324" lon="6.70528">
        <ele>478</ele>
        <time>2016-02-28T10:09:32.000Z</time>
      </trkpt>
      <trkpt lat="47.40326" lon="6.7053">
        <ele>478</ele>
        <time>2016-02-28T10:09:33.000Z</time>
      </trkpt>
      <trkpt lat="47.40328" lon="6.70535">
        <ele>479</ele>
        <time>2016-02-28T10:09:35.000Z</time>
      </trkpt>
      <trkpt lat="47.40329" lon="6.70536">
        <ele>479</ele>
        <time>2016-02-28T10:09:36.000Z</time>
      </trkpt>
      <trkpt lat="47.40331" lon="6.70542">
        <ele>479</ele>
        <time>2016-02-28T10:09:39.000Z</time>
      </trkpt>
      <trkpt lat="47.40331" lon="6.70544">
        <ele>479</ele>
        <time>2016-02-28T10:09:40.000Z</time>
      </trkpt>
      <trkpt lat="47.40333" lon="6.70548">
        <ele>479</ele>
        <time>2016-02-28T10:09:42.000Z</time>
      </trkpt>
      <trkpt lat="47.40334" lon="6.7055">
        <ele>472</ele>
        <time>2016-02-28T10:09:43.000Z</time>
      </trkpt>
      <trkpt lat="47.40336" lon="6.70554">
        <ele>473</ele>
        <time>2016-02-28T10:09:45.000Z</time>
      </trkpt>
      <trkpt lat="47.40337" lon="6.70555">
        <ele>473</ele>
        <time>2016-02-28T10:09:46.000Z</time>
      </trkpt>
      <trkpt lat="47.40339" lon="6.70559">
        <ele>473</ele>
        <time>2016-02-28T10:09:48.000Z</time>
      </trkpt>
      <trkpt lat="47.4034" lon="6.70561">
        <ele>473</ele>
        <time>2016-02-28T10:09:49.000Z</time>
      </trkpt>
      <trkpt lat="47.40342" lon="6.70564">
        <ele>474</ele>
        <time>2016-02-28T10:09:51.000Z</time>
      </trkpt>
      <trkpt lat="47.40343" lon="6.70565">
        <ele>474</ele>
        <time>2016-02-28T10:09:52.000Z</time>
      </trkpt>
      <trkpt lat="47.40346" lon="6.7057">
        <ele>474</ele>
        <time>2016-02-28T10:09:56.000Z</time>
      </trkpt>
      <trkpt lat="47.40346" lon="6.70572">
        <ele>475</ele>
        <time>2016-02-28T10:09:57.000Z</time>
      </trkpt>
      <trkpt lat="47.40347" lon="6.70579">
        <ele>475</ele>
        <time>2016-02-28T10:10:14.000Z</time>
      </trkpt>
      <trkpt lat="47.40345" lon="6.70579">
        <ele>476</ele>
        <time>2016-02-28T10:10:15.000Z</time>
      </trkpt>
      <trkpt lat="47.40347" lon="6.70585">
        <ele>478</ele>
        <time>2016-02-28T10:10:23.000Z</time>
      </trkpt>
      <trkpt lat="47.40348" lon="6.70586">
        <ele>478</ele>
        <time>2016-02-28T10:10:24.000Z</time>
      </trkpt>
      <trkpt lat="47.40351" lon="6.70589">
        <ele>478</ele>
        <time>2016-02-28T10:10:29.000Z</time>
      </trkpt>
      <trkpt lat="47.40352" lon="6.70589">
        <ele>478</ele>
        <time>2016-02-28T10:10:30.000Z</time>
      </trkpt>
      <trkpt lat="47.40355" lon="6.70594">
        <ele>477</ele>
        <time>2016-02-28T10:10:35.000Z</time>
      </trkpt>
      <trkpt lat="47.40356" lon="6.70595">
        <ele>477</ele>
        <time>2016-02-28T10:10:36.000Z</time>
      </trkpt>
      <trkpt lat="47.40359" lon="6.70599">
        <ele>477</ele>
        <time>2016-02-28T10:10:43.000Z</time>
      </trkpt>
      <trkpt lat="47.4036" lon="6.706">
        <ele>477</ele>
        <time>2016-02-28T10:10:44.000Z</time>
      </trkpt>
      <trkpt lat="47.40364" lon="6.70603">
        <ele>477</ele>
        <time>2016-02-28T10:10:47.000Z</time>
      </trkpt>
      <trkpt lat="47.40365" lon="6.70603">
        <ele>476</ele>
        <time>2016-02-28T10:10:48.000Z</time>
      </trkpt>
      <trkpt lat="47.40369" lon="6.70604">
        <ele>476</ele>
        <time>2016-02-28T10:10:52.000Z</time>
      </trkpt>
      <trkpt lat="47.4037" lon="6.70605">
        <ele>476</ele>
        <time>2016-02-28T10:10:53.000Z</time>
      </trkpt>
      <trkpt lat="47.40373" lon="6.70608">
        <ele>476</ele>
        <time>2016-02-28T10:10:55.000Z</time>
      </trkpt>
      <trkpt lat="47.40373" lon="6.7061">
        <ele>476</ele>
        <time>2016-02-28T10:10:56.000Z</time>
      </trkpt>
      <trkpt lat="47.40376" lon="6.70613">
        <ele>476</ele>
        <time>2016-02-28T10:10:58.000Z</time>
      </trkpt>
      <trkpt lat="47.40377" lon="6.70614">
        <ele>476</ele>
        <time>2016-02-28T10:10:59.000Z</time>
      </trkpt>
      <trkpt lat="47.40381" lon="6.70615">
        <ele>475</ele>
        <time>2016-02-28T10:11:09.000Z</time>
      </trkpt>
      <trkpt lat="47.40382" lon="6.70615">
        <ele>475</ele>
        <time>2016-02-28T10:11:10.000Z</time>
      </trkpt>
      <trkpt lat="47.40385" lon="6.70617">
        <ele>475</ele>
        <time>2016-02-28T10:11:20.000Z</time>
      </trkpt>
      <trkpt lat="47.40387" lon="6.70617">
        <ele>475</ele>
        <time>2016-02-28T10:11:21.000Z</time>
      </trkpt>
      <trkpt lat="47.4039" lon="6.70617">
        <ele>475</ele>
        <time>2016-02-28T10:11:23.000Z</time>
      </trkpt>
      <trkpt lat="47.40392" lon="6.70618">
        <ele>475</ele>
        <time>2016-02-28T10:11:24.000Z</time>
      </trkpt>
      <trkpt lat="47.40395" lon="6.70622">
        <ele>475</ele>
        <time>2016-02-28T10:11:27.000Z</time>
      </trkpt>
      <trkpt lat="47.40396" lon="6.70624">
        <ele>475</ele>
        <time>2016-02-28T10:11:28.000Z</time>
      </trkpt>
      <trkpt lat="47.40399" lon="6.7062">
        <ele>475</ele>
        <time>2016-02-28T10:11:33.000Z</time>
      </trkpt>
      <trkpt lat="47.40399" lon="6.70619">
        <ele>474</ele>
        <time>2016-02-28T10:11:34.000Z</time>
      </trkpt>
      <trkpt lat="47.40403" lon="6.70618">
        <ele>474</ele>
        <time>2016-02-28T10:11:43.000Z</time>
      </trkpt>
      <trkpt lat="47.40405" lon="6.70619">
        <ele>474</ele>
        <time>2016-02-28T10:11:44.000Z</time>
      </trkpt>
      <trkpt lat="47.40407" lon="6.70621">
        <ele>474</ele>
        <time>2016-02-28T10:11:46.000Z</time>
      </trkpt>
      <trkpt lat="47.40409" lon="6.70622">
        <ele>474</ele>
        <time>2016-02-28T10:11:47.000Z</time>
      </trkpt>
      <trkpt lat="47.40412" lon="6.70623">
        <ele>474</ele>
        <time>2016-02-28T10:11:48.000Z</time>
      </trkpt>
      <trkpt lat="47.40414" lon="6.70624">
        <ele>474</ele>
        <time>2016-02-28T10:11:49.000Z</time>
      </trkpt>
      <trkpt lat="47.40417" lon="6.70626">
        <ele>468</ele>
        <time>2016-02-28T10:11:50.000Z</time>
      </trkpt>
      <trkpt lat="47.40419" lon="6.70629">
        <ele>468</ele>
        <time>2016-02-28T10:11:51.000Z</time>
      </trkpt>
      <trkpt lat="47.40422" lon="6.70631">
        <ele>468</ele>
        <time>2016-02-28T10:11:52.000Z</time>
      </trkpt>
      <trkpt lat="47.40424" lon="6.70634">
        <ele>468</ele>
        <time>2016-02-28T10:11:53.000Z</time>
      </trkpt>
      <trkpt lat="47.40426" lon="6.70636">
        <ele>468</ele>
        <time>2016-02-28T10:11:54.000Z</time>
      </trkpt>
      <trkpt lat="47.40429" lon="6.70639">
        <ele>469</ele>
        <time>2016-02-28T10:11:55.000Z</time>
      </trkpt>
      <trkpt lat="47.40433" lon="6.70642">
        <ele>469</ele>
        <time>2016-02-28T10:11:56.000Z</time>
      </trkpt>
      <trkpt lat="47.40437" lon="6.70645">
        <ele>469</ele>
        <time>2016-02-28T10:11:57.000Z</time>
      </trkpt>
      <trkpt lat="47.40441" lon="6.70648">
        <ele>468</ele>
        <time>2016-02-28T10:11:58.000Z</time>
      </trkpt>
      <trkpt lat="47.40446" lon="6.70651">
        <ele>468</ele>
        <time>2016-02-28T10:11:59.000Z</time>
      </trkpt>
      <trkpt lat="47.40451" lon="6.70654">
        <ele>468</ele>
        <time>2016-02-28T10:12:00.000Z</time>
      </trkpt>
      <trkpt lat="47.40456" lon="6.70656">
        <ele>468</ele>
        <time>2016-02-28T10:12:01.000Z</time>
      </trkpt>
      <trkpt lat="47.4046" lon="6.70658">
        <ele>467</ele>
        <time>2016-02-28T10:12:02.000Z</time>
      </trkpt>
      <trkpt lat="47.40465" lon="6.70659">
        <ele>467</ele>
        <time>2016-02-28T10:12:03.000Z</time>
      </trkpt>
      <trkpt lat="47.40468" lon="6.7066">
        <ele>467</ele>
        <time>2016-02-28T10:12:04.000Z</time>
      </trkpt>
      <trkpt lat="47.40472" lon="6.70659">
        <ele>467</ele>
        <time>2016-02-28T10:12:05.000Z</time>
      </trkpt>
      <trkpt lat="47.40474" lon="6.7066">
        <ele>466</ele>
        <time>2016-02-28T10:12:06.000Z</time>
      </trkpt>
      <trkpt lat="47.40478" lon="6.7066">
        <ele>466</ele>
        <time>2016-02-28T10:12:12.000Z</time>
      </trkpt>
      <trkpt lat="47.40479" lon="6.70659">
        <ele>466</ele>
        <time>2016-02-28T10:12:13.000Z</time>
      </trkpt>
      <trkpt lat="47.40482" lon="6.70656">
        <ele>466</ele>
        <time>2016-02-28T10:12:17.000Z</time>
      </trkpt>
      <trkpt lat="47.40483" lon="6.70655">
        <ele>466</ele>
        <time>2016-02-28T10:12:18.000Z</time>
      </trkpt>
      <trkpt lat="47.40485" lon="6.7065">
        <ele>466</ele>
        <time>2016-02-28T10:12:22.000Z</time>
      </trkpt>
      <trkpt lat="47.40486" lon="6.70649">
        <ele>466</ele>
        <time>2016-02-28T10:12:23.000Z</time>
      </trkpt>
      <trkpt lat="47.4049" lon="6.70649">
        <ele>466</ele>
        <time>2016-02-28T10:12:33.000Z</time>
      </trkpt>
      <trkpt lat="47.40491" lon="6.70649">
        <ele>466</ele>
        <time>2016-02-28T10:12:34.000Z</time>
      </trkpt>
      <trkpt lat="47.40494" lon="6.70649">
        <ele>466</ele>
        <time>2016-02-28T10:12:37.000Z</time>
      </trkpt>
      <trkpt lat="47.40495" lon="6.70649">
        <ele>465</ele>
        <time>2016-02-28T10:12:38.000Z</time>
      </trkpt>
      <trkpt lat="47.40499" lon="6.70648">
        <ele>465</ele>
        <time>2016-02-28T10:12:41.000Z</time>
      </trkpt>
      <trkpt lat="47.405" lon="6.70648">
        <ele>465</ele>
        <time>2016-02-28T10:12:42.000Z</time>
      </trkpt>
      <trkpt lat="47.40503" lon="6.70651">
        <ele>463</ele>
        <time>2016-02-28T10:13:05.000Z</time>
      </trkpt>
      <trkpt lat="47.40504" lon="6.70652">
        <ele>463</ele>
        <time>2016-02-28T10:13:06.000Z</time>
      </trkpt>
      <trkpt lat="47.40507" lon="6.70656">
        <ele>463</ele>
        <time>2016-02-28T10:13:11.000Z</time>
      </trkpt>
      <trkpt lat="47.40508" lon="6.70656">
        <ele>463</ele>
        <time>2016-02-28T10:13:12.000Z</time>
      </trkpt>
      <trkpt lat="47.40511" lon="6.70658">
        <ele>463</ele>
        <time>2016-02-28T10:13:17.000Z</time>
      </trkpt>
      <trkpt lat="47.40512" lon="6.70659">
        <ele>463</ele>
        <time>2016-02-28T10:13:18.000Z</time>
      </trkpt>
      <trkpt lat="47.40516" lon="6.70657">
        <ele>462</ele>
        <time>2016-02-28T10:13:27.000Z</time>
      </trkpt>
      <trkpt lat="47.40518" lon="6.70657">
        <ele>462</ele>
        <time>2016-02-28T10:13:28.000Z</time>
      </trkpt>
      <trkpt lat="47.40521" lon="6.70655">
        <ele>461</ele>
        <time>2016-02-28T10:13:30.000Z</time>
      </trkpt>
      <trkpt lat="47.40523" lon="6.70653">
        <ele>461</ele>
        <time>2016-02-28T10:13:31.000Z</time>
      </trkpt>
      <trkpt lat="47.40525" lon="6.70649">
        <ele>461</ele>
        <time>2016-02-28T10:13:32.000Z</time>
      </trkpt>
      <trkpt lat="47.40527" lon="6.70647">
        <ele>460</ele>
        <time>2016-02-28T10:13:33.000Z</time>
      </trkpt>
      <trkpt lat="47.40529" lon="6.70643">
        <ele>460</ele>
        <time>2016-02-28T10:13:34.000Z</time>
      </trkpt>
      <trkpt lat="47.40532" lon="6.7064">
        <ele>460</ele>
        <time>2016-02-28T10:13:35.000Z</time>
      </trkpt>
      <trkpt lat="47.40535" lon="6.70638">
        <ele>460</ele>
        <time>2016-02-28T10:13:36.000Z</time>
      </trkpt>
      <trkpt lat="47.40538" lon="6.70635">
        <ele>459</ele>
        <time>2016-02-28T10:13:37.000Z</time>
      </trkpt>
      <trkpt lat="47.4054" lon="6.70634">
        <ele>459</ele>
        <time>2016-02-28T10:13:38.000Z</time>
      </trkpt>
      <trkpt lat="47.40542" lon="6.70632">
        <ele>459</ele>
        <time>2016-02-28T10:13:39.000Z</time>
      </trkpt>
      <trkpt lat="47.40546" lon="6.70629">
        <ele>459</ele>
        <time>2016-02-28T10:13:41.000Z</time>
      </trkpt>
      <trkpt lat="47.40548" lon="6.70627">
        <ele>459</ele>
        <time>2016-02-28T10:13:42.000Z</time>
      </trkpt>
      <trkpt lat="47.4055" lon="6.70626">
        <ele>459</ele>
        <time>2016-02-28T10:13:43.000Z</time>
      </trkpt>
      <trkpt lat="47.40552" lon="6.70626">
        <ele>459</ele>
        <time>2016-02-28T10:13:44.000Z</time>
      </trkpt>
      <trkpt lat="47.40557" lon="6.70627">
        <ele>459</ele>
        <time>2016-02-28T10:13:46.000Z</time>
      </trkpt>
      <trkpt lat="47.40558" lon="6.70627">
        <ele>459</ele>
        <time>2016-02-28T10:13:47.000Z</time>
      </trkpt>
      <trkpt lat="47.40562" lon="6.70629">
        <ele>459</ele>
        <time>2016-02-28T10:13:49.000Z</time>
      </trkpt>
      <trkpt lat="47.40564" lon="6.7063">
        <ele>459</ele>
        <time>2016-02-28T10:13:50.000Z</time>
      </trkpt>
      <trkpt lat="47.40567" lon="6.7063">
        <ele>459</ele>
        <time>2016-02-28T10:13:51.000Z</time>
      </trkpt>
      <trkpt lat="47.40569" lon="6.70628">
        <ele>458</ele>
        <time>2016-02-28T10:13:52.000Z</time>
      </trkpt>
      <trkpt lat="47.40572" lon="6.70625">
        <ele>458</ele>
        <time>2016-02-28T10:13:53.000Z</time>
      </trkpt>
      <trkpt lat="47.40575" lon="6.70622">
        <ele>458</ele>
        <time>2016-02-28T10:13:54.000Z</time>
      </trkpt>
      <trkpt lat="47.40578" lon="6.70619">
        <ele>458</ele>
        <time>2016-02-28T10:13:55.000Z</time>
      </trkpt>
      <trkpt lat="47.40582" lon="6.70616">
        <ele>458</ele>
        <time>2016-02-28T10:13:56.000Z</time>
      </trkpt>
      <trkpt lat="47.40586" lon="6.70612">
        <ele>456</ele>
        <time>2016-02-28T10:13:57.000Z</time>
      </trkpt>
      <trkpt lat="47.40591" lon="6.70609">
        <ele>456</ele>
        <time>2016-02-28T10:13:58.000Z</time>
      </trkpt>
      <trkpt lat="47.40595" lon="6.70606">
        <ele>455</ele>
        <time>2016-02-28T10:13:59.000Z</time>
      </trkpt>
      <trkpt lat="47.406" lon="6.70603">
        <ele>455</ele>
        <time>2016-02-28T10:14:00.000Z</time>
      </trkpt>
      <trkpt lat="47.40605" lon="6.706">
        <ele>455</ele>
        <time>2016-02-28T10:14:01.000Z</time>
      </trkpt>
      <trkpt lat="47.40609" lon="6.70597">
        <ele>455</ele>
        <time>2016-02-28T10:14:02.000Z</time>
      </trkpt>
      <trkpt lat="47.40611" lon="6.70594">
        <ele>455</ele>
        <time>2016-02-28T10:14:03.000Z</time>
      </trkpt>
      <trkpt lat="47.40613" lon="6.70589">
        <ele>455</ele>
        <time>2016-02-28T10:14:05.000Z</time>
      </trkpt>
      <trkpt lat="47.40614" lon="6.70587">
        <ele>455</ele>
        <time>2016-02-28T10:14:06.000Z</time>
      </trkpt>
      <trkpt lat="47.40615" lon="6.70584">
        <ele>455</ele>
        <time>2016-02-28T10:14:07.000Z</time>
      </trkpt>
      <trkpt lat="47.40617" lon="6.70581">
        <ele>450</ele>
        <time>2016-02-28T10:14:08.000Z</time>
      </trkpt>
      <trkpt lat="47.40618" lon="6.70575">
        <ele>450</ele>
        <time>2016-02-28T10:14:10.000Z</time>
      </trkpt>
      <trkpt lat="47.40619" lon="6.70573">
        <ele>450</ele>
        <time>2016-02-28T10:14:11.000Z</time>
      </trkpt>
      <trkpt lat="47.4062" lon="6.70566">
        <ele>450</ele>
        <time>2016-02-28T10:14:13.000Z</time>
      </trkpt>
      <trkpt lat="47.40621" lon="6.70563">
        <ele>449</ele>
        <time>2016-02-28T10:14:14.000Z</time>
      </trkpt>
      <trkpt lat="47.40622" lon="6.7056">
        <ele>449</ele>
        <time>2016-02-28T10:14:15.000Z</time>
      </trkpt>
      <trkpt lat="47.40623" lon="6.70557">
        <ele>449</ele>
        <time>2016-02-28T10:14:16.000Z</time>
      </trkpt>
      <trkpt lat="47.40626" lon="6.70554">
        <ele>449</ele>
        <time>2016-02-28T10:14:18.000Z</time>
      </trkpt>
      <trkpt lat="47.40627" lon="6.70553">
        <ele>449</ele>
        <time>2016-02-28T10:14:19.000Z</time>
      </trkpt>
      <trkpt lat="47.4063" lon="6.70551">
        <ele>449</ele>
        <time>2016-02-28T10:14:21.000Z</time>
      </trkpt>
      <trkpt lat="47.40631" lon="6.70549">
        <ele>449</ele>
        <time>2016-02-28T10:14:22.000Z</time>
      </trkpt>
      <trkpt lat="47.40633" lon="6.70544">
        <ele>449</ele>
        <time>2016-02-28T10:14:24.000Z</time>
      </trkpt>
      <trkpt lat="47.40633" lon="6.70542">
        <ele>448</ele>
        <time>2016-02-28T10:14:25.000Z</time>
      </trkpt>
      <trkpt lat="47.40636" lon="6.7054">
        <ele>448</ele>
        <time>2016-02-28T10:14:28.000Z</time>
      </trkpt>
      <trkpt lat="47.40638" lon="6.7054">
        <ele>448</ele>
        <time>2016-02-28T10:14:29.000Z</time>
      </trkpt>
      <trkpt lat="47.40642" lon="6.7054">
        <ele>448</ele>
        <time>2016-02-28T10:14:32.000Z</time>
      </trkpt>
      <trkpt lat="47.40643" lon="6.7054">
        <ele>448</ele>
        <time>2016-02-28T10:14:33.000Z</time>
      </trkpt>
      <trkpt lat="47.40647" lon="6.70541">
        <ele>449</ele>
        <time>2016-02-28T10:14:50.000Z</time>
      </trkpt>
      <trkpt lat="47.40648" lon="6.70541">
        <ele>448</ele>
        <time>2016-02-28T10:14:51.000Z</time>
      </trkpt>
      <trkpt lat="47.40652" lon="6.70539">
        <ele>448</ele>
        <time>2016-02-28T10:15:10.000Z</time>
      </trkpt>
      <trkpt lat="47.40652" lon="6.70538">
        <ele>448</ele>
        <time>2016-02-28T10:15:11.000Z</time>
      </trkpt>
      <trkpt lat="47.40655" lon="6.70534">
        <ele>448</ele>
        <time>2016-02-28T10:15:14.000Z</time>
      </trkpt>
      <trkpt lat="47.40656" lon="6.70532">
        <ele>448</ele>
        <time>2016-02-28T10:15:15.000Z</time>
      </trkpt>
      <trkpt lat="47.40659" lon="6.70527">
        <ele>448</ele>
        <time>2016-02-28T10:15:18.000Z</time>
      </trkpt>
      <trkpt lat="47.4066" lon="6.70526">
        <ele>448</ele>
        <time>2016-02-28T10:15:19.000Z</time>
      </trkpt>
      <trkpt lat="47.40663" lon="6.70523">
        <ele>448</ele>
        <time>2016-02-28T10:15:21.000Z</time>
      </trkpt>
      <trkpt lat="47.40664" lon="6.70522">
        <ele>447</ele>
        <time>2016-02-28T10:15:22.000Z</time>
      </trkpt>
      <trkpt lat="47.40667" lon="6.70519">
        <ele>447</ele>
        <time>2016-02-28T10:15:25.000Z</time>
      </trkpt>
      <trkpt lat="47.40668" lon="6.70516">
        <ele>447</ele>
        <time>2016-02-28T10:15:26.000Z</time>
      </trkpt>
      <trkpt lat="47.40668" lon="6.70513">
        <ele>447</ele>
        <time>2016-02-28T10:15:27.000Z</time>
      </trkpt>
      <trkpt lat="47.40669" lon="6.70509">
        <ele>447</ele>
        <time>2016-02-28T10:15:28.000Z</time>
      </trkpt>
      <trkpt lat="47.40671" lon="6.70503">
        <ele>446</ele>
        <time>2016-02-28T10:15:29.000Z</time>
      </trkpt>
      <trkpt lat="47.40673" lon="6.70496">
        <ele>445</ele>
        <time>2016-02-28T10:15:30.000Z</time>
      </trkpt>
      <trkpt lat="47.40675" lon="6.70489">
        <ele>444</ele>
        <time>2016-02-28T10:15:31.000Z</time>
      </trkpt>
      <trkpt lat="47.40676" lon="6.70482">
        <ele>443</ele>
        <time>2016-02-28T10:15:32.000Z</time>
      </trkpt>
      <trkpt lat="47.40677" lon="6.70475">
        <ele>442</ele>
        <time>2016-02-28T10:15:33.000Z</time>
      </trkpt>
      <trkpt lat="47.40677" lon="6.70467">
        <ele>441</ele>
        <time>2016-02-28T10:15:34.000Z</time>
      </trkpt>
      <trkpt lat="47.40676" lon="6.7046">
        <ele>441</ele>
        <time>2016-02-28T10:15:35.000Z</time>
      </trkpt>
      <trkpt lat="47.40677" lon="6.70452">
        <ele>440</ele>
        <time>2016-02-28T10:15:36.000Z</time>
      </trkpt>
      <trkpt lat="47.40677" lon="6.70445">
        <ele>439</ele>
        <time>2016-02-28T10:15:37.000Z</time>
      </trkpt>
      <trkpt lat="47.40678" lon="6.70437">
        <ele>439</ele>
        <time>2016-02-28T10:15:38.000Z</time>
      </trkpt>
      <trkpt lat="47.40679" lon="6.7043">
        <ele>438</ele>
        <time>2016-02-28T10:15:39.000Z</time>
      </trkpt>
      <trkpt lat="47.40681" lon="6.70424">
        <ele>438</ele>
        <time>2016-02-28T10:15:40.000Z</time>
      </trkpt>
      <trkpt lat="47.40683" lon="6.7042">
        <ele>438</ele>
        <time>2016-02-28T10:15:41.000Z</time>
      </trkpt>
      <trkpt lat="47.40685" lon="6.70417">
        <ele>438</ele>
        <time>2016-02-28T10:15:42.000Z</time>
      </trkpt>
      <trkpt lat="47.40687" lon="6.70416">
        <ele>431</ele>
        <time>2016-02-28T10:15:43.000Z</time>
      </trkpt>
      <trkpt lat="47.4069" lon="6.70416">
        <ele>430</ele>
        <time>2016-02-28T10:15:44.000Z</time>
      </trkpt>
      <trkpt lat="47.40693" lon="6.70417">
        <ele>438</ele>
        <time>2016-02-28T10:15:45.000Z</time>
      </trkpt>
      <trkpt lat="47.40697" lon="6.70419">
        <ele>438</ele>
        <time>2016-02-28T10:15:46.000Z</time>
      </trkpt>
      <trkpt lat="47.407" lon="6.7042">
        <ele>438</ele>
        <time>2016-02-28T10:15:47.000Z</time>
      </trkpt>
      <trkpt lat="47.40705" lon="6.7042">
        <ele>439</ele>
        <time>2016-02-28T10:15:49.000Z</time>
      </trkpt>
      <trkpt lat="47.40708" lon="6.70419">
        <ele>438</ele>
        <time>2016-02-28T10:15:50.000Z</time>
      </trkpt>
      <trkpt lat="47.4071" lon="6.70417">
        <ele>438</ele>
        <time>2016-02-28T10:15:51.000Z</time>
      </trkpt>
      <trkpt lat="47.40712" lon="6.70415">
        <ele>429</ele>
        <time>2016-02-28T10:15:52.000Z</time>
      </trkpt>
      <trkpt lat="47.40714" lon="6.70412">
        <ele>429</ele>
        <time>2016-02-28T10:15:53.000Z</time>
      </trkpt>
      <trkpt lat="47.40719" lon="6.70412">
        <ele>429</ele>
        <time>2016-02-28T10:15:55.000Z</time>
      </trkpt>
      <trkpt lat="47.40721" lon="6.70413">
        <ele>430</ele>
        <time>2016-02-28T10:15:56.000Z</time>
      </trkpt>
      <trkpt lat="47.40724" lon="6.70414">
        <ele>430</ele>
        <time>2016-02-28T10:15:57.000Z</time>
      </trkpt>
      <trkpt lat="47.40726" lon="6.70416">
        <ele>430</ele>
        <time>2016-02-28T10:15:58.000Z</time>
      </trkpt>
      <trkpt lat="47.4073" lon="6.70418">
        <ele>438</ele>
        <time>2016-02-28T10:16:00.000Z</time>
      </trkpt>
      <trkpt lat="47.40733" lon="6.70419">
        <ele>437</ele>
        <time>2016-02-28T10:16:01.000Z</time>
      </trkpt>
      <trkpt lat="47.40735" lon="6.7042">
        <ele>437</ele>
        <time>2016-02-28T10:16:02.000Z</time>
      </trkpt>
      <trkpt lat="47.40738" lon="6.70422">
        <ele>437</ele>
        <time>2016-02-28T10:16:03.000Z</time>
      </trkpt>
      <trkpt lat="47.40741" lon="6.70426">
        <ele>437</ele>
        <time>2016-02-28T10:16:04.000Z</time>
      </trkpt>
      <trkpt lat="47.40744" lon="6.70429">
        <ele>437</ele>
        <time>2016-02-28T10:16:05.000Z</time>
      </trkpt>
      <trkpt lat="47.40747" lon="6.70432">
        <ele>438</ele>
        <time>2016-02-28T10:16:06.000Z</time>
      </trkpt>
      <trkpt lat="47.4075" lon="6.70435">
        <ele>438</ele>
        <time>2016-02-28T10:16:07.000Z</time>
      </trkpt>
      <trkpt lat="47.40752" lon="6.70436">
        <ele>437</ele>
        <time>2016-02-28T10:16:08.000Z</time>
      </trkpt>
      <trkpt lat="47.40755" lon="6.70437">
        <ele>437</ele>
        <time>2016-02-28T10:16:09.000Z</time>
      </trkpt>
      <trkpt lat="47.40759" lon="6.70438">
        <ele>437</ele>
        <time>2016-02-28T10:16:10.000Z</time>
      </trkpt>
      <trkpt lat="47.40762" lon="6.70438">
        <ele>437</ele>
        <time>2016-02-28T10:16:11.000Z</time>
      </trkpt>
      <trkpt lat="47.40766" lon="6.70439">
        <ele>438</ele>
        <time>2016-02-28T10:16:12.000Z</time>
      </trkpt>
      <trkpt lat="47.4077" lon="6.70439">
        <ele>438</ele>
        <time>2016-02-28T10:16:13.000Z</time>
      </trkpt>
      <trkpt lat="47.40774" lon="6.70439">
        <ele>438</ele>
        <time>2016-02-28T10:16:14.000Z</time>
      </trkpt>
      <trkpt lat="47.40778" lon="6.7044">
        <ele>438</ele>
        <time>2016-02-28T10:16:15.000Z</time>
      </trkpt>
      <trkpt lat="47.40783" lon="6.7044">
        <ele>438</ele>
        <time>2016-02-28T10:16:16.000Z</time>
      </trkpt>
      <trkpt lat="47.40789" lon="6.7044">
        <ele>438</ele>
        <time>2016-02-28T10:16:17.000Z</time>
      </trkpt>
      <trkpt lat="47.40794" lon="6.7044">
        <ele>438</ele>
        <time>2016-02-28T10:16:18.000Z</time>
      </trkpt>
      <trkpt lat="47.408" lon="6.7044">
        <ele>437</ele>
        <time>2016-02-28T10:16:19.000Z</time>
      </trkpt>
      <trkpt lat="47.40806" lon="6.7044">
        <ele>437</ele>
        <time>2016-02-28T10:16:20.000Z</time>
      </trkpt>
      <trkpt lat="47.40811" lon="6.70441">
        <ele>437</ele>
        <time>2016-02-28T10:16:21.000Z</time>
      </trkpt>
      <trkpt lat="47.40823" lon="6.70441">
        <ele>437</ele>
        <time>2016-02-28T10:16:22.000Z</time>
      </trkpt>
      <trkpt lat="47.40829" lon="6.70445">
        <ele>437</ele>
        <time>2016-02-28T10:16:23.000Z</time>
      </trkpt>
      <trkpt lat="47.40836" lon="6.70446">
        <ele>434</ele>
        <time>2016-02-28T10:16:24.000Z</time>
      </trkpt>
      <trkpt lat="47.40842" lon="6.70448">
        <ele>434</ele>
        <time>2016-02-28T10:16:25.000Z</time>
      </trkpt>
      <trkpt lat="47.40849" lon="6.7045">
        <ele>434</ele>
        <time>2016-02-28T10:16:26.000Z</time>
      </trkpt>
      <trkpt lat="47.40854" lon="6.70454">
        <ele>434</ele>
        <time>2016-02-28T10:16:27.000Z</time>
      </trkpt>
      <trkpt lat="47.40858" lon="6.70456">
        <ele>434</ele>
        <time>2016-02-28T10:16:28.000Z</time>
      </trkpt>
      <trkpt lat="47.40866" lon="6.70453">
        <ele>433</ele>
        <time>2016-02-28T10:16:29.000Z</time>
      </trkpt>
      <trkpt lat="47.40873" lon="6.7045">
        <ele>433</ele>
        <time>2016-02-28T10:16:30.000Z</time>
      </trkpt>
      <trkpt lat="47.4088" lon="6.70448">
        <ele>432</ele>
        <time>2016-02-28T10:16:31.000Z</time>
      </trkpt>
      <trkpt lat="47.40884" lon="6.70446">
        <ele>432</ele>
        <time>2016-02-28T10:16:32.000Z</time>
      </trkpt>
      <trkpt lat="47.40888" lon="6.70442">
        <ele>431</ele>
        <time>2016-02-28T10:16:33.000Z</time>
      </trkpt>
      <trkpt lat="47.40889" lon="6.70441">
        <ele>431</ele>
        <time>2016-02-28T10:16:34.000Z</time>
      </trkpt>
      <trkpt lat="47.40892" lon="6.7044">
        <ele>431</ele>
        <time>2016-02-28T10:16:37.000Z</time>
      </trkpt>
      <trkpt lat="47.40893" lon="6.70438">
        <ele>431</ele>
        <time>2016-02-28T10:16:38.000Z</time>
      </trkpt>
      <trkpt lat="47.40896" lon="6.70435">
        <ele>430</ele>
        <time>2016-02-28T10:16:47.000Z</time>
      </trkpt>
      <trkpt lat="47.40897" lon="6.70434">
        <ele>430</ele>
        <time>2016-02-28T10:16:48.000Z</time>
      </trkpt>
      <trkpt lat="47.409" lon="6.70431">
        <ele>429</ele>
        <time>2016-02-28T10:16:58.000Z</time>
      </trkpt>
      <trkpt lat="47.40901" lon="6.7043">
        <ele>429</ele>
        <time>2016-02-28T10:16:59.000Z</time>
      </trkpt>
      <trkpt lat="47.40905" lon="6.70428">
        <ele>429</ele>
        <time>2016-02-28T10:17:02.000Z</time>
      </trkpt>
      <trkpt lat="47.40906" lon="6.70427">
        <ele>429</ele>
        <time>2016-02-28T10:17:03.000Z</time>
      </trkpt>
      <trkpt lat="47.40909" lon="6.70428">
        <ele>428</ele>
        <time>2016-02-28T10:17:06.000Z</time>
      </trkpt>
      <trkpt lat="47.40911" lon="6.70428">
        <ele>428</ele>
        <time>2016-02-28T10:17:07.000Z</time>
      </trkpt>
      <trkpt lat="47.40914" lon="6.70426">
        <ele>427</ele>
        <time>2016-02-28T10:17:11.000Z</time>
      </trkpt>
      <trkpt lat="47.40915" lon="6.70424">
        <ele>427</ele>
        <time>2016-02-28T10:17:12.000Z</time>
      </trkpt>
      <trkpt lat="47.40918" lon="6.70419">
        <ele>425</ele>
        <time>2016-02-28T10:17:14.000Z</time>
      </trkpt>
      <trkpt lat="47.40919" lon="6.70416">
        <ele>424</ele>
        <time>2016-02-28T10:17:15.000Z</time>
      </trkpt>
      <trkpt lat="47.40921" lon="6.7041">
        <ele>422</ele>
        <time>2016-02-28T10:17:19.000Z</time>
      </trkpt>
      <trkpt lat="47.40921" lon="6.7041">
        <ele>422</ele>
        <time>2016-02-28T10:17:20.000Z</time>
      </trkpt>
      <trkpt lat="47.40924" lon="6.70406">
        <ele>421</ele>
        <time>2016-02-28T10:17:52.000Z</time>
      </trkpt>
      <trkpt lat="47.40925" lon="6.70405">
        <ele>421</ele>
        <time>2016-02-28T10:17:53.000Z</time>
      </trkpt>
      <trkpt lat="47.40926" lon="6.70402">
        <ele>420</ele>
        <time>2016-02-28T10:18:23.000Z</time>
      </trkpt>
      <trkpt lat="47.40927" lon="6.70399">
        <ele>419</ele>
        <time>2016-02-28T10:18:24.000Z</time>
      </trkpt>
      <trkpt lat="47.40928" lon="6.70395">
        <ele>419</ele>
        <time>2016-02-28T10:18:26.000Z</time>
      </trkpt>
      <trkpt lat="47.40929" lon="6.70393">
        <ele>418</ele>
        <time>2016-02-28T10:18:27.000Z</time>
      </trkpt>
      <trkpt lat="47.40933" lon="6.70393">
        <ele>418</ele>
        <time>2016-02-28T10:18:29.000Z</time>
      </trkpt>
      <trkpt lat="47.40934" lon="6.70394">
        <ele>418</ele>
        <time>2016-02-28T10:18:30.000Z</time>
      </trkpt>
      <trkpt lat="47.40938" lon="6.70396">
        <ele>418</ele>
        <time>2016-02-28T10:18:32.000Z</time>
      </trkpt>
      <trkpt lat="47.40941" lon="6.70397">
        <ele>418</ele>
        <time>2016-02-28T10:18:33.000Z</time>
      </trkpt>
      <trkpt lat="47.40944" lon="6.70397">
        <ele>418</ele>
        <time>2016-02-28T10:18:34.000Z</time>
      </trkpt>
      <trkpt lat="47.40947" lon="6.70398">
        <ele>417</ele>
        <time>2016-02-28T10:18:35.000Z</time>
      </trkpt>
      <trkpt lat="47.40951" lon="6.70399">
        <ele>417</ele>
        <time>2016-02-28T10:18:36.000Z</time>
      </trkpt>
      <trkpt lat="47.40954" lon="6.704">
        <ele>417</ele>
        <time>2016-02-28T10:18:37.000Z</time>
      </trkpt>
      <trkpt lat="47.40957" lon="6.70401">
        <ele>417</ele>
        <time>2016-02-28T10:18:38.000Z</time>
      </trkpt>
      <trkpt lat="47.40961" lon="6.70401">
        <ele>416</ele>
        <time>2016-02-28T10:18:39.000Z</time>
      </trkpt>
      <trkpt lat="47.40965" lon="6.70402">
        <ele>416</ele>
        <time>2016-02-28T10:18:40.000Z</time>
      </trkpt>
      <trkpt lat="47.40969" lon="6.70402">
        <ele>416</ele>
        <time>2016-02-28T10:18:41.000Z</time>
      </trkpt>
      <trkpt lat="47.40973" lon="6.70403">
        <ele>416</ele>
        <time>2016-02-28T10:18:42.000Z</time>
      </trkpt>
      <trkpt lat="47.40978" lon="6.70405">
        <ele>416</ele>
        <time>2016-02-28T10:18:43.000Z</time>
      </trkpt>
      <trkpt lat="47.40982" lon="6.70406">
        <ele>415</ele>
        <time>2016-02-28T10:18:44.000Z</time>
      </trkpt>
      <trkpt lat="47.40985" lon="6.70408">
        <ele>415</ele>
        <time>2016-02-28T10:18:45.000Z</time>
      </trkpt>
      <trkpt lat="47.4099" lon="6.70409">
        <ele>415</ele>
        <time>2016-02-28T10:18:46.000Z</time>
      </trkpt>
      <trkpt lat="47.40994" lon="6.7041">
        <ele>415</ele>
        <time>2016-02-28T10:18:47.000Z</time>
      </trkpt>
      <trkpt lat="47.40998" lon="6.70411">
        <ele>415</ele>
        <time>2016-02-28T10:18:48.000Z</time>
      </trkpt>
      <trkpt lat="47.41003" lon="6.70412">
        <ele>414</ele>
        <time>2016-02-28T10:18:49.000Z</time>
      </trkpt>
      <trkpt lat="47.41007" lon="6.70413">
        <ele>413</ele>
        <time>2016-02-28T10:18:50.000Z</time>
      </trkpt>
      <trkpt lat="47.41012" lon="6.70414">
        <ele>412</ele>
        <time>2016-02-28T10:18:51.000Z</time>
      </trkpt>
      <trkpt lat="47.41018" lon="6.70414">
        <ele>411</ele>
        <time>2016-02-28T10:18:52.000Z</time>
      </trkpt>
      <trkpt lat="47.41023" lon="6.70416">
        <ele>411</ele>
        <time>2016-02-28T10:18:53.000Z</time>
      </trkpt>
      <trkpt lat="47.41028" lon="6.70418">
        <ele>411</ele>
        <time>2016-02-28T10:18:54.000Z</time>
      </trkpt>
      <trkpt lat="47.41032" lon="6.70421">
        <ele>411</ele>
        <time>2016-02-28T10:18:55.000Z</time>
      </trkpt>
      <trkpt lat="47.41037" lon="6.70422">
        <ele>410</ele>
        <time>2016-02-28T10:18:56.000Z</time>
      </trkpt>
      <trkpt lat="47.41041" lon="6.70426">
        <ele>410</ele>
        <time>2016-02-28T10:18:57.000Z</time>
      </trkpt>
      <trkpt lat="47.41045" lon="6.70428">
        <ele>410</ele>
        <time>2016-02-28T10:18:58.000Z</time>
      </trkpt>
      <trkpt lat="47.41047" lon="6.70429">
        <ele>410</ele>
        <time>2016-02-28T10:18:59.000Z</time>
      </trkpt>
      <trkpt lat="47.4105" lon="6.7043">
        <ele>409</ele>
        <time>2016-02-28T10:19:00.000Z</time>
      </trkpt>
      <trkpt lat="47.41053" lon="6.70431">
        <ele>409</ele>
        <time>2016-02-28T10:19:01.000Z</time>
      </trkpt>
      <trkpt lat="47.41056" lon="6.70431">
        <ele>409</ele>
        <time>2016-02-28T10:19:02.000Z</time>
      </trkpt>
      <trkpt lat="47.41061" lon="6.70429">
        <ele>408</ele>
        <time>2016-02-28T10:19:03.000Z</time>
      </trkpt>
      <trkpt lat="47.41065" lon="6.70428">
        <ele>408</ele>
        <time>2016-02-28T10:19:04.000Z</time>
      </trkpt>
      <trkpt lat="47.41069" lon="6.70428">
        <ele>408</ele>
        <time>2016-02-28T10:19:05.000Z</time>
      </trkpt>
      <trkpt lat="47.41073" lon="6.70428">
        <ele>407</ele>
        <time>2016-02-28T10:19:06.000Z</time>
      </trkpt>
      <trkpt lat="47.41076" lon="6.70428">
        <ele>407</ele>
        <time>2016-02-28T10:19:07.000Z</time>
      </trkpt>
      <trkpt lat="47.41079" lon="6.70428">
        <ele>407</ele>
        <time>2016-02-28T10:19:08.000Z</time>
      </trkpt>
      <trkpt lat="47.41083" lon="6.70426">
        <ele>407</ele>
        <time>2016-02-28T10:19:10.000Z</time>
      </trkpt>
      <trkpt lat="47.41085" lon="6.70423">
        <ele>404</ele>
        <time>2016-02-28T10:19:11.000Z</time>
      </trkpt>
      <trkpt lat="47.41087" lon="6.70419">
        <ele>404</ele>
        <time>2016-02-28T10:19:12.000Z</time>
      </trkpt>
      <trkpt lat="47.41088" lon="6.70414">
        <ele>404</ele>
        <time>2016-02-28T10:19:13.000Z</time>
      </trkpt>
      <trkpt lat="47.4109" lon="6.70408">
        <ele>403</ele>
        <time>2016-02-28T10:19:14.000Z</time>
      </trkpt>
      <trkpt lat="47.41091" lon="6.704">
        <ele>402</ele>
        <time>2016-02-28T10:19:15.000Z</time>
      </trkpt>
      <trkpt lat="47.41093" lon="6.70393">
        <ele>401</ele>
        <time>2016-02-28T10:19:16.000Z</time>
      </trkpt>
      <trkpt lat="47.41094" lon="6.70386">
        <ele>401</ele>
        <time>2016-02-28T10:19:17.000Z</time>
      </trkpt>
      <trkpt lat="47.41096" lon="6.70379">
        <ele>400</ele>
        <time>2016-02-28T10:19:18.000Z</time>
      </trkpt>
      <trkpt lat="47.41098" lon="6.70372">
        <ele>400</ele>
        <time>2016-02-28T10:19:19.000Z</time>
      </trkpt>
      <trkpt lat="47.411" lon="6.70365">
        <ele>400</ele>
        <time>2016-02-28T10:19:20.000Z</time>
      </trkpt>
      <trkpt lat="47.41103" lon="6.70355">
        <ele>400</ele>
        <time>2016-02-28T10:19:21.000Z</time>
      </trkpt>
      <trkpt lat="47.41105" lon="6.70349">
        <ele>400</ele>
        <time>2016-02-28T10:19:22.000Z</time>
      </trkpt>
      <trkpt lat="47.41108" lon="6.70343">
        <ele>400</ele>
        <time>2016-02-28T10:19:23.000Z</time>
      </trkpt>
      <trkpt lat="47.41112" lon="6.70338">
        <ele>400</ele>
        <time>2016-02-28T10:19:24.000Z</time>
      </trkpt>
      <trkpt lat="47.41115" lon="6.70332">
        <ele>397</ele>
        <time>2016-02-28T10:19:25.000Z</time>
      </trkpt>
      <trkpt lat="47.41118" lon="6.70326">
        <ele>397</ele>
        <time>2016-02-28T10:19:26.000Z</time>
      </trkpt>
      <trkpt lat="47.4112" lon="6.7032">
        <ele>396</ele>
        <time>2016-02-28T10:19:27.000Z</time>
      </trkpt>
      <trkpt lat="47.41123" lon="6.70314">
        <ele>396</ele>
        <time>2016-02-28T10:19:28.000Z</time>
      </trkpt>
      <trkpt lat="47.41126" lon="6.70309">
        <ele>395</ele>
        <time>2016-02-28T10:19:29.000Z</time>
      </trkpt>
      <trkpt lat="47.41128" lon="6.70302">
        <ele>395</ele>
        <time>2016-02-28T10:19:30.000Z</time>
      </trkpt>
      <trkpt lat="47.41131" lon="6.70294">
        <ele>394</ele>
        <time>2016-02-28T10:19:31.000Z</time>
      </trkpt>
      <trkpt lat="47.41133" lon="6.70287">
        <ele>394</ele>
        <time>2016-02-28T10:19:32.000Z</time>
      </trkpt>
      <trkpt lat="47.41133" lon="6.7028">
        <ele>394</ele>
        <time>2016-02-28T10:19:33.000Z</time>
      </trkpt>
      <trkpt lat="47.41132" lon="6.70272">
        <ele>394</ele>
        <time>2016-02-28T10:19:34.000Z</time>
      </trkpt>
      <trkpt lat="47.41132" lon="6.70265">
        <ele>393</ele>
        <time>2016-02-28T10:19:35.000Z</time>
      </trkpt>
      <trkpt lat="47.41132" lon="6.70258">
        <ele>393</ele>
        <time>2016-02-28T10:19:36.000Z</time>
      </trkpt>
      <trkpt lat="47.41133" lon="6.7025">
        <ele>390</ele>
        <time>2016-02-28T10:19:37.000Z</time>
      </trkpt>
      <trkpt lat="47.41136" lon="6.70244">
        <ele>390</ele>
        <time>2016-02-28T10:19:38.000Z</time>
      </trkpt>
      <trkpt lat="47.4114" lon="6.70239">
        <ele>390</ele>
        <time>2016-02-28T10:19:39.000Z</time>
      </trkpt>
      <trkpt lat="47.41143" lon="6.70237">
        <ele>390</ele>
        <time>2016-02-28T10:19:40.000Z</time>
      </trkpt>
      <trkpt lat="47.41146" lon="6.70235">
        <ele>390</ele>
        <time>2016-02-28T10:19:41.000Z</time>
      </trkpt>
      <trkpt lat="47.41149" lon="6.70233">
        <ele>390</ele>
        <time>2016-02-28T10:19:42.000Z</time>
      </trkpt>
      <trkpt lat="47.4115" lon="6.70232">
        <ele>390</ele>
        <time>2016-02-28T10:19:46.000Z</time>
      </trkpt>
      <trkpt lat="47.4115" lon="6.70226">
        <ele>390</ele>
        <time>2016-02-28T10:19:47.000Z</time>
      </trkpt>
      <trkpt lat="47.41151" lon="6.70221">
        <ele>390</ele>
        <time>2016-02-28T10:19:48.000Z</time>
      </trkpt>
      <trkpt lat="47.41151" lon="6.70218">
        <ele>390</ele>
        <time>2016-02-28T10:19:49.000Z</time>
      </trkpt>
      <trkpt lat="47.41152" lon="6.70213">
        <ele>390</ele>
        <time>2016-02-28T10:19:50.000Z</time>
      </trkpt>
      <trkpt lat="47.41154" lon="6.70208">
        <ele>390</ele>
        <time>2016-02-28T10:19:51.000Z</time>
      </trkpt>
      <trkpt lat="47.41156" lon="6.70204">
        <ele>390</ele>
        <time>2016-02-28T10:19:52.000Z</time>
      </trkpt>
      <trkpt lat="47.41157" lon="6.70199">
        <ele>390</ele>
        <time>2016-02-28T10:19:53.000Z</time>
      </trkpt>
      <trkpt lat="47.41157" lon="6.70194">
        <ele>390</ele>
        <time>2016-02-28T10:19:54.000Z</time>
      </trkpt>
      <trkpt lat="47.41156" lon="6.7019">
        <ele>390</ele>
        <time>2016-02-28T10:19:55.000Z</time>
      </trkpt>
      <trkpt lat="47.41156" lon="6.70186">
        <ele>390</ele>
        <time>2016-02-28T10:19:56.000Z</time>
      </trkpt>
      <trkpt lat="47.41156" lon="6.70183">
        <ele>390</ele>
        <time>2016-02-28T10:19:57.000Z</time>
      </trkpt>
      <trkpt lat="47.41152" lon="6.70186">
        <ele>390</ele>
        <time>2016-02-28T10:20:05.000Z</time>
      </trkpt>
      <trkpt lat="47.41152" lon="6.70186">
        <ele>390</ele>
        <time>2016-02-28T10:20:06.000Z</time>
      </trkpt>
      <trkpt lat="47.41156" lon="6.70184">
        <ele>390</ele>
        <time>2016-02-28T10:20:20.000Z</time>
      </trkpt>
      <trkpt lat="47.41157" lon="6.70182">
        <ele>390</ele>
        <time>2016-02-28T10:20:21.000Z</time>
      </trkpt>
      <trkpt lat="47.41159" lon="6.70181">
        <ele>390</ele>
        <time>2016-02-28T10:20:22.000Z</time>
      </trkpt>
      <trkpt lat="47.41162" lon="6.70179">
        <ele>390</ele>
        <time>2016-02-28T10:20:23.000Z</time>
      </trkpt>
      <trkpt lat="47.41164" lon="6.70178">
        <ele>390</ele>
        <time>2016-02-28T10:20:24.000Z</time>
      </trkpt>
      <trkpt lat="47.41166" lon="6.70178">
        <ele>389</ele>
        <time>2016-02-28T10:20:25.000Z</time>
      </trkpt>
      <trkpt lat="47.41169" lon="6.7018">
        <ele>386</ele>
        <time>2016-02-28T10:20:29.000Z</time>
      </trkpt>
      <trkpt lat="47.4117" lon="6.70181">
        <ele>386</ele>
        <time>2016-02-28T10:20:30.000Z</time>
      </trkpt>
      <trkpt lat="47.41173" lon="6.70182">
        <ele>386</ele>
        <time>2016-02-28T10:20:33.000Z</time>
      </trkpt>
      <trkpt lat="47.41175" lon="6.70182">
        <ele>386</ele>
        <time>2016-02-28T10:20:34.000Z</time>
      </trkpt>
      <trkpt lat="47.41177" lon="6.70181">
        <ele>386</ele>
        <time>2016-02-28T10:20:35.000Z</time>
      </trkpt>
      <trkpt lat="47.41179" lon="6.70181">
        <ele>386</ele>
        <time>2016-02-28T10:20:36.000Z</time>
      </trkpt>
      <trkpt lat="47.41183" lon="6.70179">
        <ele>385</ele>
        <time>2016-02-28T10:20:38.000Z</time>
      </trkpt>
      <trkpt lat="47.41185" lon="6.70178">
        <ele>385</ele>
        <time>2016-02-28T10:20:39.000Z</time>
      </trkpt>
      <trkpt lat="47.41189" lon="6.70176">
        <ele>385</ele>
        <time>2016-02-28T10:20:41.000Z</time>
      </trkpt>
      <trkpt lat="47.41191" lon="6.70175">
        <ele>385</ele>
        <time>2016-02-28T10:20:42.000Z</time>
      </trkpt>
      <trkpt lat="47.41193" lon="6.70174">
        <ele>385</ele>
        <time>2016-02-28T10:20:43.000Z</time>
      </trkpt>
      <trkpt lat="47.41196" lon="6.70173">
        <ele>384</ele>
        <time>2016-02-28T10:20:44.000Z</time>
      </trkpt>
      <trkpt lat="47.41199" lon="6.70172">
        <ele>384</ele>
        <time>2016-02-28T10:20:45.000Z</time>
      </trkpt>
      <trkpt lat="47.41202" lon="6.7017">
        <ele>384</ele>
        <time>2016-02-28T10:20:46.000Z</time>
      </trkpt>
      <trkpt lat="47.41205" lon="6.70169">
        <ele>384</ele>
        <time>2016-02-28T10:20:47.000Z</time>
      </trkpt>
      <trkpt lat="47.41208" lon="6.70169">
        <ele>383</ele>
        <time>2016-02-28T10:20:48.000Z</time>
      </trkpt>
      <trkpt lat="47.41212" lon="6.70169">
        <ele>383</ele>
        <time>2016-02-28T10:20:49.000Z</time>
      </trkpt>
      <trkpt lat="47.41215" lon="6.70169">
        <ele>383</ele>
        <time>2016-02-28T10:20:50.000Z</time>
      </trkpt>
      <trkpt lat="47.41218" lon="6.7017">
        <ele>382</ele>
        <time>2016-02-28T10:20:51.000Z</time>
      </trkpt>
      <trkpt lat="47.41221" lon="6.70172">
        <ele>382</ele>
        <time>2016-02-28T10:20:52.000Z</time>
      </trkpt>
      <trkpt lat="47.41224" lon="6.70173">
        <ele>382</ele>
        <time>2016-02-28T10:20:53.000Z</time>
      </trkpt>
      <trkpt lat="47.41227" lon="6.70174">
        <ele>382</ele>
        <time>2016-02-28T10:20:54.000Z</time>
      </trkpt>
      <trkpt lat="47.4123" lon="6.70175">
        <ele>381</ele>
        <time>2016-02-28T10:20:55.000Z</time>
      </trkpt>
      <trkpt lat="47.41233" lon="6.70176">
        <ele>381</ele>
        <time>2016-02-28T10:20:56.000Z</time>
      </trkpt>
      <trkpt lat="47.41237" lon="6.70177">
        <ele>381</ele>
        <time>2016-02-28T10:20:57.000Z</time>
      </trkpt>
      <trkpt lat="47.41241" lon="6.70178">
        <ele>381</ele>
        <time>2016-02-28T10:20:58.000Z</time>
      </trkpt>
      <trkpt lat="47.41245" lon="6.70179">
        <ele>380</ele>
        <time>2016-02-28T10:20:59.000Z</time>
      </trkpt>
      <trkpt lat="47.41249" lon="6.7018">
        <ele>380</ele>
        <time>2016-02-28T10:21:00.000Z</time>
      </trkpt>
      <trkpt lat="47.41254" lon="6.7018">
        <ele>377</ele>
        <time>2016-02-28T10:21:01.000Z</time>
      </trkpt>
      <trkpt lat="47.41257" lon="6.70179">
        <ele>376</ele>
        <time>2016-02-28T10:21:02.000Z</time>
      </trkpt>
      <trkpt lat="47.41261" lon="6.70179">
        <ele>376</ele>
        <time>2016-02-28T10:21:03.000Z</time>
      </trkpt>
      <trkpt lat="47.41265" lon="6.70179">
        <ele>376</ele>
        <time>2016-02-28T10:21:04.000Z</time>
      </trkpt>
      <trkpt lat="47.41268" lon="6.70179">
        <ele>376</ele>
        <time>2016-02-28T10:21:05.000Z</time>
      </trkpt>
      <trkpt lat="47.41271" lon="6.70178">
        <ele>375</ele>
        <time>2016-02-28T10:21:06.000Z</time>
      </trkpt>
      <trkpt lat="47.41274" lon="6.70178">
        <ele>375</ele>
        <time>2016-02-28T10:21:07.000Z</time>
      </trkpt>
      <trkpt lat="47.41277" lon="6.70177">
        <ele>375</ele>
        <time>2016-02-28T10:21:08.000Z</time>
      </trkpt>
      <trkpt lat="47.4128" lon="6.70176">
        <ele>375</ele>
        <time>2016-02-28T10:21:09.000Z</time>
      </trkpt>
      <trkpt lat="47.41283" lon="6.70175">
        <ele>374</ele>
        <time>2016-02-28T10:21:10.000Z</time>
      </trkpt>
      <trkpt lat="47.41287" lon="6.70174">
        <ele>374</ele>
        <time>2016-02-28T10:21:11.000Z</time>
      </trkpt>
      <trkpt lat="47.41291" lon="6.70173">
        <ele>374</ele>
        <time>2016-02-28T10:21:12.000Z</time>
      </trkpt>
      <trkpt lat="47.41296" lon="6.70171">
        <ele>373</ele>
        <time>2016-02-28T10:21:13.000Z</time>
      </trkpt>
      <trkpt lat="47.413" lon="6.70168">
        <ele>373</ele>
        <time>2016-02-28T10:21:14.000Z</time>
      </trkpt>
      <trkpt lat="47.41305" lon="6.70165">
        <ele>377</ele>
        <time>2016-02-28T10:21:15.000Z</time>
      </trkpt>
      <trkpt lat="47.4131" lon="6.70161">
        <ele>377</ele>
        <time>2016-02-28T10:21:16.000Z</time>
      </trkpt>
      <trkpt lat="47.41314" lon="6.70156">
        <ele>376</ele>
        <time>2016-02-28T10:21:17.000Z</time>
      </trkpt>
      <trkpt lat="47.41319" lon="6.7015">
        <ele>376</ele>
        <time>2016-02-28T10:21:18.000Z</time>
      </trkpt>
      <trkpt lat="47.41323" lon="6.70145">
        <ele>377</ele>
        <time>2016-02-28T10:21:19.000Z</time>
      </trkpt>
      <trkpt lat="47.41327" lon="6.7014">
        <ele>377</ele>
        <time>2016-02-28T10:21:20.000Z</time>
      </trkpt>
      <trkpt lat="47.41331" lon="6.70135">
        <ele>378</ele>
        <time>2016-02-28T10:21:21.000Z</time>
      </trkpt>
      <trkpt lat="47.41334" lon="6.70132">
        <ele>371</ele>
        <time>2016-02-28T10:21:22.000Z</time>
      </trkpt>
      <trkpt lat="47.41338" lon="6.70129">
        <ele>372</ele>
        <time>2016-02-28T10:21:23.000Z</time>
      </trkpt>
      <trkpt lat="47.41341" lon="6.70126">
        <ele>372</ele>
        <time>2016-02-28T10:21:24.000Z</time>
      </trkpt>
      <trkpt lat="47.41345" lon="6.70123">
        <ele>372</ele>
        <time>2016-02-28T10:21:25.000Z</time>
      </trkpt>
      <trkpt lat="47.41349" lon="6.7012">
        <ele>372</ele>
        <time>2016-02-28T10:21:26.000Z</time>
      </trkpt>
      <trkpt lat="47.41353" lon="6.70116">
        <ele>372</ele>
        <time>2016-02-28T10:21:27.000Z</time>
      </trkpt>
      <trkpt lat="47.41356" lon="6.70113">
        <ele>372</ele>
        <time>2016-02-28T10:21:28.000Z</time>
      </trkpt>
      <trkpt lat="47.4136" lon="6.70108">
        <ele>372</ele>
        <time>2016-02-28T10:21:29.000Z</time>
      </trkpt>
      <trkpt lat="47.41365" lon="6.70099">
        <ele>372</ele>
        <time>2016-02-28T10:21:30.000Z</time>
      </trkpt>
      <trkpt lat="47.41368" lon="6.70094">
        <ele>372</ele>
        <time>2016-02-28T10:21:31.000Z</time>
      </trkpt>
      <trkpt lat="47.41372" lon="6.70088">
        <ele>372</ele>
        <time>2016-02-28T10:21:32.000Z</time>
      </trkpt>
      <trkpt lat="47.41375" lon="6.70081">
        <ele>376</ele>
        <time>2016-02-28T10:21:33.000Z</time>
      </trkpt>
      <trkpt lat="47.41378" lon="6.70077">
        <ele>376</ele>
        <time>2016-02-28T10:21:34.000Z</time>
      </trkpt>
      <trkpt lat="47.41381" lon="6.70072">
        <ele>376</ele>
        <time>2016-02-28T10:21:35.000Z</time>
      </trkpt>
      <trkpt lat="47.41382" lon="6.70058">
        <ele>377</ele>
        <time>2016-02-28T10:21:36.000Z</time>
      </trkpt>
      <trkpt lat="47.41386" lon="6.70054">
        <ele>377</ele>
        <time>2016-02-28T10:21:37.000Z</time>
      </trkpt>
      <trkpt lat="47.4139" lon="6.70052">
        <ele>377</ele>
        <time>2016-02-28T10:21:38.000Z</time>
      </trkpt>
      <trkpt lat="47.41393" lon="6.70052">
        <ele>377</ele>
        <time>2016-02-28T10:21:39.000Z</time>
      </trkpt>
      <trkpt lat="47.41398" lon="6.70051">
        <ele>376</ele>
        <time>2016-02-28T10:21:40.000Z</time>
      </trkpt>
      <trkpt lat="47.41402" lon="6.7005">
        <ele>376</ele>
        <time>2016-02-28T10:21:41.000Z</time>
      </trkpt>
      <trkpt lat="47.41406" lon="6.7005">
        <ele>376</ele>
        <time>2016-02-28T10:21:42.000Z</time>
      </trkpt>
      <trkpt lat="47.41411" lon="6.70049">
        <ele>376</ele>
        <time>2016-02-28T10:21:43.000Z</time>
      </trkpt>
      <trkpt lat="47.41415" lon="6.70049">
        <ele>376</ele>
        <time>2016-02-28T10:21:44.000Z</time>
      </trkpt>
      <trkpt lat="47.41419" lon="6.70047">
        <ele>371</ele>
        <time>2016-02-28T10:21:45.000Z</time>
      </trkpt>
      <trkpt lat="47.41423" lon="6.70046">
        <ele>371</ele>
        <time>2016-02-28T10:21:46.000Z</time>
      </trkpt>
      <trkpt lat="47.41428" lon="6.70044">
        <ele>371</ele>
        <time>2016-02-28T10:21:47.000Z</time>
      </trkpt>
      <trkpt lat="47.41432" lon="6.70046">
        <ele>371</ele>
        <time>2016-02-28T10:21:48.000Z</time>
      </trkpt>
      <trkpt lat="47.41437" lon="6.70043">
        <ele>371</ele>
        <time>2016-02-28T10:21:49.000Z</time>
      </trkpt>
      <trkpt lat="47.4144" lon="6.70042">
        <ele>371</ele>
        <time>2016-02-28T10:21:50.000Z</time>
      </trkpt>
      <trkpt lat="47.41445" lon="6.70043">
        <ele>371</ele>
        <time>2016-02-28T10:21:51.000Z</time>
      </trkpt>
      <trkpt lat="47.41448" lon="6.70045">
        <ele>371</ele>
        <time>2016-02-28T10:21:52.000Z</time>
      </trkpt>
      <trkpt lat="47.41451" lon="6.70043">
        <ele>371</ele>
        <time>2016-02-28T10:21:53.000Z</time>
      </trkpt>
      <trkpt lat="47.41454" lon="6.70044">
        <ele>371</ele>
        <time>2016-02-28T10:21:54.000Z</time>
      </trkpt>
      <trkpt lat="47.41458" lon="6.70045">
        <ele>370</ele>
        <time>2016-02-28T10:21:55.000Z</time>
      </trkpt>
      <trkpt lat="47.41462" lon="6.70046">
        <ele>370</ele>
        <time>2016-02-28T10:21:56.000Z</time>
      </trkpt>
      <trkpt lat="47.41464" lon="6.70049">
        <ele>370</ele>
        <time>2016-02-28T10:21:57.000Z</time>
      </trkpt>
      <trkpt lat="47.41467" lon="6.7005">
        <ele>370</ele>
        <time>2016-02-28T10:21:58.000Z</time>
      </trkpt>
      <trkpt lat="47.41472" lon="6.70051">
        <ele>370</ele>
        <time>2016-02-28T10:21:59.000Z</time>
      </trkpt>
      <trkpt lat="47.41475" lon="6.70051">
        <ele>370</ele>
        <time>2016-02-28T10:22:00.000Z</time>
      </trkpt>
      <trkpt lat="47.41479" lon="6.70051">
        <ele>370</ele>
        <time>2016-02-28T10:22:01.000Z</time>
      </trkpt>
      <trkpt lat="47.41483" lon="6.70051">
        <ele>369</ele>
        <time>2016-02-28T10:22:02.000Z</time>
      </trkpt>
      <trkpt lat="47.41487" lon="6.7005">
        <ele>369</ele>
        <time>2016-02-28T10:22:03.000Z</time>
      </trkpt>
      <trkpt lat="47.4149" lon="6.70049">
        <ele>369</ele>
        <time>2016-02-28T10:22:04.000Z</time>
      </trkpt>
      <trkpt lat="47.41493" lon="6.70047">
        <ele>369</ele>
        <time>2016-02-28T10:22:05.000Z</time>
      </trkpt>
      <trkpt lat="47.41496" lon="6.70046">
        <ele>369</ele>
        <time>2016-02-28T10:22:06.000Z</time>
      </trkpt>
      <trkpt lat="47.41499" lon="6.70044">
        <ele>369</ele>
        <time>2016-02-28T10:22:07.000Z</time>
      </trkpt>
      <trkpt lat="47.41502" lon="6.70042">
        <ele>369</ele>
        <time>2016-02-28T10:22:08.000Z</time>
      </trkpt>
      <trkpt lat="47.41505" lon="6.7004">
        <ele>369</ele>
        <time>2016-02-28T10:22:09.000Z</time>
      </trkpt>
      <trkpt lat="47.41508" lon="6.70039">
        <ele>369</ele>
        <time>2016-02-28T10:22:10.000Z</time>
      </trkpt>
      <trkpt lat="47.41512" lon="6.70037">
        <ele>369</ele>
        <time>2016-02-28T10:22:11.000Z</time>
      </trkpt>
      <trkpt lat="47.41518" lon="6.70033">
        <ele>370</ele>
        <time>2016-02-28T10:22:12.000Z</time>
      </trkpt>
      <trkpt lat="47.41523" lon="6.70031">
        <ele>370</ele>
        <time>2016-02-28T10:22:13.000Z</time>
      </trkpt>
      <trkpt lat="47.41527" lon="6.70029">
        <ele>370</ele>
        <time>2016-02-28T10:22:14.000Z</time>
      </trkpt>
      <trkpt lat="47.41532" lon="6.70028">
        <ele>370</ele>
        <time>2016-02-28T10:22:15.000Z</time>
      </trkpt>
      <trkpt lat="47.41536" lon="6.70026">
        <ele>370</ele>
        <time>2016-02-28T10:22:16.000Z</time>
      </trkpt>
      <trkpt lat="47.41541" lon="6.70024">
        <ele>370</ele>
        <time>2016-02-28T10:22:17.000Z</time>
      </trkpt>
      <trkpt lat="47.41546" lon="6.70022">
        <ele>370</ele>
        <time>2016-02-28T10:22:18.000Z</time>
      </trkpt>
      <trkpt lat="47.41551" lon="6.70021">
        <ele>370</ele>
        <time>2016-02-28T10:22:19.000Z</time>
      </trkpt>
      <trkpt lat="47.41556" lon="6.70019">
        <ele>369</ele>
        <time>2016-02-28T10:22:20.000Z</time>
      </trkpt>
      <trkpt lat="47.4156" lon="6.70017">
        <ele>369</ele>
        <time>2016-02-28T10:22:21.000Z</time>
      </trkpt>
      <trkpt lat="47.41564" lon="6.70016">
        <ele>369</ele>
        <time>2016-02-28T10:22:22.000Z</time>
      </trkpt>
      <trkpt lat="47.41569" lon="6.70014">
        <ele>368</ele>
        <time>2016-02-28T10:22:23.000Z</time>
      </trkpt>
      <trkpt lat="47.41574" lon="6.70012">
        <ele>368</ele>
        <time>2016-02-28T10:22:24.000Z</time>
      </trkpt>
      <trkpt lat="47.41579" lon="6.70011">
        <ele>367</ele>
        <time>2016-02-28T10:22:25.000Z</time>
      </trkpt>
      <trkpt lat="47.41584" lon="6.70009">
        <ele>369</ele>
        <time>2016-02-28T10:22:26.000Z</time>
      </trkpt>
      <trkpt lat="47.41589" lon="6.70008">
        <ele>369</ele>
        <time>2016-02-28T10:22:27.000Z</time>
      </trkpt>
      <trkpt lat="47.41595" lon="6.70006">
        <ele>370</ele>
        <time>2016-02-28T10:22:28.000Z</time>
      </trkpt>
      <trkpt lat="47.416" lon="6.70005">
        <ele>371</ele>
        <time>2016-02-28T10:22:29.000Z</time>
      </trkpt>
      <trkpt lat="47.41605" lon="6.70003">
        <ele>372</ele>
        <time>2016-02-28T10:22:30.000Z</time>
      </trkpt>
      <trkpt lat="47.41611" lon="6.70002">
        <ele>373</ele>
        <time>2016-02-28T10:22:31.000Z</time>
      </trkpt>
      <trkpt lat="47.41616" lon="6.70001">
        <ele>373</ele>
        <time>2016-02-28T10:22:32.000Z</time>
      </trkpt>
      <trkpt lat="47.41621" lon="6.7">
        <ele>374</ele>
        <time>2016-02-28T10:22:33.000Z</time>
      </trkpt>
      <trkpt lat="47.41626" lon="6.69999">
        <ele>366</ele>
        <time>2016-02-28T10:22:34.000Z</time>
      </trkpt>
      <trkpt lat="47.41631" lon="6.69999">
        <ele>366</ele>
        <time>2016-02-28T10:22:35.000Z</time>
      </trkpt>
      <trkpt lat="47.41634" lon="6.70001">
        <ele>375</ele>
        <time>2016-02-28T10:22:36.000Z</time>
      </trkpt>
      <trkpt lat="47.41638" lon="6.70002">
        <ele>375</ele>
        <time>2016-02-28T10:22:37.000Z</time>
      </trkpt>
      <trkpt lat="47.41645" lon="6.69998">
        <ele>367</ele>
        <time>2016-02-28T10:22:38.000Z</time>
      </trkpt>
      <trkpt lat="47.4165" lon="6.69996">
        <ele>368</ele>
        <time>2016-02-28T10:22:39.000Z</time>
      </trkpt>
      <trkpt lat="47.41654" lon="6.69997">
        <ele>369</ele>
        <time>2016-02-28T10:22:40.000Z</time>
      </trkpt>
      <trkpt lat="47.41659" lon="6.69998">
        <ele>369</ele>
        <time>2016-02-28T10:22:41.000Z</time>
      </trkpt>
      <trkpt lat="47.41663" lon="6.7">
        <ele>372</ele>
        <time>2016-02-28T10:22:42.000Z</time>
      </trkpt>
      <trkpt lat="47.41667" lon="6.70003">
        <ele>372</ele>
        <time>2016-02-28T10:22:43.000Z</time>
      </trkpt>
      <trkpt lat="47.41671" lon="6.70004">
        <ele>374</ele>
        <time>2016-02-28T10:22:44.000Z</time>
      </trkpt>
      <trkpt lat="47.41673" lon="6.70006">
        <ele>375</ele>
        <time>2016-02-28T10:22:45.000Z</time>
      </trkpt>
      <trkpt lat="47.41677" lon="6.70006">
        <ele>375</ele>
        <time>2016-02-28T10:22:46.000Z</time>
      </trkpt>
      <trkpt lat="47.4168" lon="6.70007">
        <ele>376</ele>
        <time>2016-02-28T10:22:47.000Z</time>
      </trkpt>
      <trkpt lat="47.41684" lon="6.70007">
        <ele>377</ele>
        <time>2016-02-28T10:22:48.000Z</time>
      </trkpt>
      <trkpt lat="47.41687" lon="6.70009">
        <ele>377</ele>
        <time>2016-02-28T10:22:49.000Z</time>
      </trkpt>
      <trkpt lat="47.41688" lon="6.70009">
        <ele>378</ele>
        <time>2016-02-28T10:22:50.000Z</time>
      </trkpt>
      <trkpt lat="47.41692" lon="6.70009">
        <ele>378</ele>
        <time>2016-02-28T10:22:51.000Z</time>
      </trkpt>
      <trkpt lat="47.41695" lon="6.7001">
        <ele>378</ele>
        <time>2016-02-28T10:22:52.000Z</time>
      </trkpt>
      <trkpt lat="47.41697" lon="6.70011">
        <ele>379</ele>
        <time>2016-02-28T10:22:53.000Z</time>
      </trkpt>
      <trkpt lat="47.417" lon="6.70012">
        <ele>379</ele>
        <time>2016-02-28T10:22:54.000Z</time>
      </trkpt>
      <trkpt lat="47.41703" lon="6.70013">
        <ele>379</ele>
        <time>2016-02-28T10:22:55.000Z</time>
      </trkpt>
      <trkpt lat="47.41706" lon="6.70013">
        <ele>379</ele>
        <time>2016-02-28T10:22:56.000Z</time>
      </trkpt>
      <trkpt lat="47.41709" lon="6.70013">
        <ele>379</ele>
        <time>2016-02-28T10:22:57.000Z</time>
      </trkpt>
      <trkpt lat="47.41713" lon="6.70012">
        <ele>379</ele>
        <time>2016-02-28T10:22:58.000Z</time>
      </trkpt>
      <trkpt lat="47.41717" lon="6.70011">
        <ele>379</ele>
        <time>2016-02-28T10:22:59.000Z</time>
      </trkpt>
      <trkpt lat="47.41721" lon="6.7001">
        <ele>379</ele>
        <time>2016-02-28T10:23:00.000Z</time>
      </trkpt>
      <trkpt lat="47.41725" lon="6.70009">
        <ele>378</ele>
        <time>2016-02-28T10:23:01.000Z</time>
      </trkpt>
      <trkpt lat="47.41729" lon="6.70008">
        <ele>378</ele>
        <time>2016-02-28T10:23:02.000Z</time>
      </trkpt>
      <trkpt lat="47.41734" lon="6.70007">
        <ele>377</ele>
        <time>2016-02-28T10:23:03.000Z</time>
      </trkpt>
      <trkpt lat="47.41739" lon="6.70006">
        <ele>376</ele>
        <time>2016-02-28T10:23:04.000Z</time>
      </trkpt>
      <trkpt lat="47.41743" lon="6.70006">
        <ele>375</ele>
        <time>2016-02-28T10:23:05.000Z</time>
      </trkpt>
      <trkpt lat="47.41747" lon="6.70006">
        <ele>374</ele>
        <time>2016-02-28T10:23:06.000Z</time>
      </trkpt>
      <trkpt lat="47.41754" lon="6.70003">
        <ele>373</ele>
        <time>2016-02-28T10:23:07.000Z</time>
      </trkpt>
      <trkpt lat="47.41758" lon="6.70005">
        <ele>374</ele>
        <time>2016-02-28T10:23:08.000Z</time>
      </trkpt>
      <trkpt lat="47.41763" lon="6.70005">
        <ele>375</ele>
        <time>2016-02-28T10:23:09.000Z</time>
      </trkpt>
      <trkpt lat="47.41766" lon="6.70007">
        <ele>375</ele>
        <time>2016-02-28T10:23:10.000Z</time>
      </trkpt>
      <trkpt lat="47.41772" lon="6.70005">
        <ele>376</ele>
        <time>2016-02-28T10:23:11.000Z</time>
      </trkpt>
      <trkpt lat="47.41777" lon="6.70005">
        <ele>376</ele>
        <time>2016-02-28T10:23:12.000Z</time>
      </trkpt>
      <trkpt lat="47.41783" lon="6.70002">
        <ele>376</ele>
        <time>2016-02-28T10:23:13.000Z</time>
      </trkpt>
      <trkpt lat="47.41786" lon="6.70002">
        <ele>376</ele>
        <time>2016-02-28T10:23:14.000Z</time>
      </trkpt>
      <trkpt lat="47.41791" lon="6.70001">
        <ele>376</ele>
        <time>2016-02-28T10:23:15.000Z</time>
      </trkpt>
      <trkpt lat="47.41795" lon="6.70001">
        <ele>376</ele>
        <time>2016-02-28T10:23:16.000Z</time>
      </trkpt>
      <trkpt lat="47.418" lon="6.70001">
        <ele>376</ele>
        <time>2016-02-28T10:23:17.000Z</time>
      </trkpt>
      <trkpt lat="47.41805" lon="6.7">
        <ele>369</ele>
        <time>2016-02-28T10:23:18.000Z</time>
      </trkpt>
      <trkpt lat="47.41809" lon="6.7">
        <ele>375</ele>
        <time>2016-02-28T10:23:19.000Z</time>
      </trkpt>
      <trkpt lat="47.41814" lon="6.7">
        <ele>374</ele>
        <time>2016-02-28T10:23:20.000Z</time>
      </trkpt>
      <trkpt lat="47.4182" lon="6.69999">
        <ele>369</ele>
        <time>2016-02-28T10:23:21.000Z</time>
      </trkpt>
      <trkpt lat="47.41824" lon="6.69999">
        <ele>369</ele>
        <time>2016-02-28T10:23:22.000Z</time>
      </trkpt>
      <trkpt lat="47.41829" lon="6.69998">
        <ele>370</ele>
        <time>2016-02-28T10:23:23.000Z</time>
      </trkpt>
      <trkpt lat="47.41834" lon="6.69997">
        <ele>370</ele>
        <time>2016-02-28T10:23:24.000Z</time>
      </trkpt>
      <trkpt lat="47.41839" lon="6.69994">
        <ele>370</ele>
        <time>2016-02-28T10:23:25.000Z</time>
      </trkpt>
      <trkpt lat="47.41844" lon="6.69991">
        <ele>370</ele>
        <time>2016-02-28T10:23:26.000Z</time>
      </trkpt>
      <trkpt lat="47.4185" lon="6.69987">
        <ele>370</ele>
        <time>2016-02-28T10:23:27.000Z</time>
      </trkpt>
      <trkpt lat="47.41853" lon="6.69987">
        <ele>370</ele>
        <time>2016-02-28T10:23:28.000Z</time>
      </trkpt>
      <trkpt lat="47.41856" lon="6.69986">
        <ele>370</ele>
        <time>2016-02-28T10:23:29.000Z</time>
      </trkpt>
      <trkpt lat="47.41862" lon="6.69982">
        <ele>370</ele>
        <time>2016-02-28T10:23:30.000Z</time>
      </trkpt>
      <trkpt lat="47.41866" lon="6.69979">
        <ele>370</ele>
        <time>2016-02-28T10:23:31.000Z</time>
      </trkpt>
      <trkpt lat="47.41871" lon="6.69976">
        <ele>370</ele>
        <time>2016-02-28T10:23:32.000Z</time>
      </trkpt>
      <trkpt lat="47.41875" lon="6.69973">
        <ele>371</ele>
        <time>2016-02-28T10:23:33.000Z</time>
      </trkpt>
      <trkpt lat="47.41879" lon="6.69972">
        <ele>371</ele>
        <time>2016-02-28T10:23:34.000Z</time>
      </trkpt>
      <trkpt lat="47.41884" lon="6.69969">
        <ele>371</ele>
        <time>2016-02-28T10:23:35.000Z</time>
      </trkpt>
      <trkpt lat="47.41889" lon="6.69967">
        <ele>371</ele>
        <time>2016-02-28T10:23:36.000Z</time>
      </trkpt>
      <trkpt lat="47.41894" lon="6.69964">
        <ele>371</ele>
        <time>2016-02-28T10:23:37.000Z</time>
      </trkpt>
      <trkpt lat="47.41898" lon="6.69962">
        <ele>371</ele>
        <time>2016-02-28T10:23:38.000Z</time>
      </trkpt>
      <trkpt lat="47.41903" lon="6.69961">
        <ele>371</ele>
        <time>2016-02-28T10:23:39.000Z</time>
      </trkpt>
      <trkpt lat="47.41907" lon="6.69959">
        <ele>371</ele>
        <time>2016-02-28T10:23:40.000Z</time>
      </trkpt>
      <trkpt lat="47.41911" lon="6.69958">
        <ele>371</ele>
        <time>2016-02-28T10:23:41.000Z</time>
      </trkpt>
      <trkpt lat="47.41916" lon="6.69956">
        <ele>371</ele>
        <time>2016-02-28T10:23:42.000Z</time>
      </trkpt>
      <trkpt lat="47.4192" lon="6.69955">
        <ele>375</ele>
        <time>2016-02-28T10:23:43.000Z</time>
      </trkpt>
      <trkpt lat="47.41924" lon="6.69954">
        <ele>375</ele>
        <time>2016-02-28T10:23:44.000Z</time>
      </trkpt>
      <trkpt lat="47.41928" lon="6.69953">
        <ele>375</ele>
        <time>2016-02-28T10:23:45.000Z</time>
      </trkpt>
      <trkpt lat="47.41932" lon="6.69953">
        <ele>375</ele>
        <time>2016-02-28T10:23:46.000Z</time>
      </trkpt>
      <trkpt lat="47.41937" lon="6.69952">
        <ele>375</ele>
        <time>2016-02-28T10:23:47.000Z</time>
      </trkpt>
      <trkpt lat="47.41942" lon="6.6995">
        <ele>375</ele>
        <time>2016-02-28T10:23:48.000Z</time>
      </trkpt>
      <trkpt lat="47.41946" lon="6.69948">
        <ele>375</ele>
        <time>2016-02-28T10:23:49.000Z</time>
      </trkpt>
      <trkpt lat="47.41951" lon="6.69946">
        <ele>375</ele>
        <time>2016-02-28T10:23:50.000Z</time>
      </trkpt>
      <trkpt lat="47.41953" lon="6.69947">
        <ele>375</ele>
        <time>2016-02-28T10:23:51.000Z</time>
      </trkpt>
      <trkpt lat="47.41956" lon="6.69947">
        <ele>376</ele>
        <time>2016-02-28T10:23:52.000Z</time>
      </trkpt>
      <trkpt lat="47.41959" lon="6.69947">
        <ele>376</ele>
        <time>2016-02-28T10:23:53.000Z</time>
      </trkpt>
      <trkpt lat="47.41964" lon="6.69946">
        <ele>376</ele>
        <time>2016-02-28T10:23:54.000Z</time>
      </trkpt>
      <trkpt lat="47.41969" lon="6.69945">
        <ele>376</ele>
        <time>2016-02-28T10:23:55.000Z</time>
      </trkpt>
      <trkpt lat="47.41974" lon="6.69944">
        <ele>376</ele>
        <time>2016-02-28T10:23:56.000Z</time>
      </trkpt>
      <trkpt lat="47.41978" lon="6.69943">
        <ele>376</ele>
        <time>2016-02-28T10:23:57.000Z</time>
      </trkpt>
      <trkpt lat="47.41982" lon="6.69941">
        <ele>376</ele>
        <time>2016-02-28T10:23:58.000Z</time>
      </trkpt>
      <trkpt lat="47.41986" lon="6.6994">
        <ele>376</ele>
        <time>2016-02-28T10:23:59.000Z</time>
      </trkpt>
      <trkpt lat="47.4199" lon="6.6994">
        <ele>375</ele>
        <time>2016-02-28T10:24:00.000Z</time>
      </trkpt>
      <trkpt lat="47.41994" lon="6.6994">
        <ele>375</ele>
        <time>2016-02-28T10:24:01.000Z</time>
      </trkpt>
      <trkpt lat="47.41998" lon="6.6994">
        <ele>375</ele>
        <time>2016-02-28T10:24:02.000Z</time>
      </trkpt>
      <trkpt lat="47.42002" lon="6.6994">
        <ele>376</ele>
        <time>2016-02-28T10:24:03.000Z</time>
      </trkpt>
      <trkpt lat="47.42006" lon="6.69939">
        <ele>376</ele>
        <time>2016-02-28T10:24:04.000Z</time>
      </trkpt>
      <trkpt lat="47.4201" lon="6.69939">
        <ele>376</ele>
        <time>2016-02-28T10:24:05.000Z</time>
      </trkpt>
      <trkpt lat="47.42014" lon="6.69938">
        <ele>376</ele>
        <time>2016-02-28T10:24:06.000Z</time>
      </trkpt>
      <trkpt lat="47.42018" lon="6.69938">
        <ele>376</ele>
        <time>2016-02-28T10:24:07.000Z</time>
      </trkpt>
      <trkpt lat="47.42022" lon="6.69938">
        <ele>377</ele>
        <time>2016-02-28T10:24:08.000Z</time>
      </trkpt>
      <trkpt lat="47.42026" lon="6.69938">
        <ele>377</ele>
        <time>2016-02-28T10:24:09.000Z</time>
      </trkpt>
      <trkpt lat="47.42033" lon="6.69936">
        <ele>377</ele>
        <time>2016-02-28T10:24:10.000Z</time>
      </trkpt>
      <trkpt lat="47.42036" lon="6.69937">
        <ele>377</ele>
        <time>2016-02-28T10:24:11.000Z</time>
      </trkpt>
      <trkpt lat="47.4204" lon="6.69937">
        <ele>377</ele>
        <time>2016-02-28T10:24:12.000Z</time>
      </trkpt>
      <trkpt lat="47.42044" lon="6.69937">
        <ele>377</ele>
        <time>2016-02-28T10:24:13.000Z</time>
      </trkpt>
      <trkpt lat="47.42048" lon="6.69935">
        <ele>376</ele>
        <time>2016-02-28T10:24:14.000Z</time>
      </trkpt>
      <trkpt lat="47.42052" lon="6.69935">
        <ele>376</ele>
        <time>2016-02-28T10:24:15.000Z</time>
      </trkpt>
      <trkpt lat="47.42055" lon="6.69934">
        <ele>376</ele>
        <time>2016-02-28T10:24:16.000Z</time>
      </trkpt>
      <trkpt lat="47.42061" lon="6.69933">
        <ele>376</ele>
        <time>2016-02-28T10:24:17.000Z</time>
      </trkpt>
      <trkpt lat="47.42065" lon="6.69933">
        <ele>375</ele>
        <time>2016-02-28T10:24:18.000Z</time>
      </trkpt>
      <trkpt lat="47.4207" lon="6.69931">
        <ele>375</ele>
        <time>2016-02-28T10:24:19.000Z</time>
      </trkpt>
      <trkpt lat="47.42075" lon="6.6993">
        <ele>374</ele>
        <time>2016-02-28T10:24:20.000Z</time>
      </trkpt>
      <trkpt lat="47.4208" lon="6.6993">
        <ele>374</ele>
        <time>2016-02-28T10:24:21.000Z</time>
      </trkpt>
      <trkpt lat="47.42085" lon="6.6993">
        <ele>371</ele>
        <time>2016-02-28T10:24:22.000Z</time>
      </trkpt>
      <trkpt lat="47.42089" lon="6.69931">
        <ele>371</ele>
        <time>2016-02-28T10:24:23.000Z</time>
      </trkpt>
      <trkpt lat="47.42097" lon="6.69923">
        <ele>370</ele>
        <time>2016-02-28T10:24:24.000Z</time>
      </trkpt>
      <trkpt lat="47.42103" lon="6.69918">
        <ele>370</ele>
        <time>2016-02-28T10:24:25.000Z</time>
      </trkpt>
      <trkpt lat="47.42111" lon="6.6991">
        <ele>366</ele>
        <time>2016-02-28T10:24:26.000Z</time>
      </trkpt>
      <trkpt lat="47.42119" lon="6.69905">
        <ele>365</ele>
        <time>2016-02-28T10:24:27.000Z</time>
      </trkpt>
      <trkpt lat="47.42126" lon="6.699">
        <ele>365</ele>
        <time>2016-02-28T10:24:28.000Z</time>
      </trkpt>
      <trkpt lat="47.42134" lon="6.69894">
        <ele>364</ele>
        <time>2016-02-28T10:24:29.000Z</time>
      </trkpt>
      <trkpt lat="47.42142" lon="6.69888">
        <ele>364</ele>
        <time>2016-02-28T10:24:30.000Z</time>
      </trkpt>
      <trkpt lat="47.42151" lon="6.6988">
        <ele>364</ele>
        <time>2016-02-28T10:24:31.000Z</time>
      </trkpt>
      <trkpt lat="47.42159" lon="6.69873">
        <ele>363</ele>
        <time>2016-02-28T10:24:32.000Z</time>
      </trkpt>
      <trkpt lat="47.42166" lon="6.69867">
        <ele>363</ele>
        <time>2016-02-28T10:24:33.000Z</time>
      </trkpt>
      <trkpt lat="47.42174" lon="6.69861">
        <ele>363</ele>
        <time>2016-02-28T10:24:34.000Z</time>
      </trkpt>
      <trkpt lat="47.42181" lon="6.69855">
        <ele>363</ele>
        <time>2016-02-28T10:24:35.000Z</time>
      </trkpt>
      <trkpt lat="47.42187" lon="6.69852">
        <ele>364</ele>
        <time>2016-02-28T10:24:36.000Z</time>
      </trkpt>
      <trkpt lat="47.42193" lon="6.6985">
        <ele>364</ele>
        <time>2016-02-28T10:24:37.000Z</time>
      </trkpt>
      <trkpt lat="47.42197" lon="6.69847">
        <ele>364</ele>
        <time>2016-02-28T10:24:38.000Z</time>
      </trkpt>
      <trkpt lat="47.42201" lon="6.69845">
        <ele>364</ele>
        <time>2016-02-28T10:24:39.000Z</time>
      </trkpt>
      <trkpt lat="47.42206" lon="6.69842">
        <ele>364</ele>
        <time>2016-02-28T10:24:40.000Z</time>
      </trkpt>
      <trkpt lat="47.42209" lon="6.69841">
        <ele>364</ele>
        <time>2016-02-28T10:24:41.000Z</time>
      </trkpt>
      <trkpt lat="47.42213" lon="6.69839">
        <ele>364</ele>
        <time>2016-02-28T10:24:42.000Z</time>
      </trkpt>
      <trkpt lat="47.42217" lon="6.69838">
        <ele>365</ele>
        <time>2016-02-28T10:24:43.000Z</time>
      </trkpt>
      <trkpt lat="47.4222" lon="6.69837">
        <ele>365</ele>
        <time>2016-02-28T10:24:44.000Z</time>
      </trkpt>
      <trkpt lat="47.42222" lon="6.69836">
        <ele>365</ele>
        <time>2016-02-28T10:24:45.000Z</time>
      </trkpt>
      <trkpt lat="47.42225" lon="6.69837">
        <ele>365</ele>
        <time>2016-02-28T10:24:46.000Z</time>
      </trkpt>
      <trkpt lat="47.42227" lon="6.69843">
        <ele>365</ele>
        <time>2016-02-28T10:24:47.000Z</time>
      </trkpt>
      <trkpt lat="47.42229" lon="6.69847">
        <ele>365</ele>
        <time>2016-02-28T10:24:48.000Z</time>
      </trkpt>
      <trkpt lat="47.42231" lon="6.6985">
        <ele>365</ele>
        <time>2016-02-28T10:24:49.000Z</time>
      </trkpt>
      <trkpt lat="47.42234" lon="6.69853">
        <ele>365</ele>
        <time>2016-02-28T10:24:50.000Z</time>
      </trkpt>
      <trkpt lat="47.42236" lon="6.69857">
        <ele>365</ele>
        <time>2016-02-28T10:24:51.000Z</time>
      </trkpt>
      <trkpt lat="47.42237" lon="6.6986">
        <ele>365</ele>
        <time>2016-02-28T10:24:52.000Z</time>
      </trkpt>
      <trkpt lat="47.42239" lon="6.69864">
        <ele>365</ele>
        <time>2016-02-28T10:24:53.000Z</time>
      </trkpt>
      <trkpt lat="47.42241" lon="6.69867">
        <ele>365</ele>
        <time>2016-02-28T10:24:54.000Z</time>
      </trkpt>
      <trkpt lat="47.42242" lon="6.69869">
        <ele>365</ele>
        <time>2016-02-28T10:24:55.000Z</time>
      </trkpt>
      <trkpt lat="47.42244" lon="6.69871">
        <ele>365</ele>
        <time>2016-02-28T10:24:56.000Z</time>
      </trkpt>
      <trkpt lat="47.42247" lon="6.69872">
        <ele>366</ele>
        <time>2016-02-28T10:24:57.000Z</time>
      </trkpt>
      <trkpt lat="47.4225" lon="6.69872">
        <ele>369</ele>
        <time>2016-02-28T10:24:58.000Z</time>
      </trkpt>
      <trkpt lat="47.42254" lon="6.69871">
        <ele>369</ele>
        <time>2016-02-28T10:24:59.000Z</time>
      </trkpt>
      <trkpt lat="47.42257" lon="6.6987">
        <ele>369</ele>
        <time>2016-02-28T10:25:00.000Z</time>
      </trkpt>
      <trkpt lat="47.4226" lon="6.69869">
        <ele>369</ele>
        <time>2016-02-28T10:25:01.000Z</time>
      </trkpt>
      <trkpt lat="47.42263" lon="6.69869">
        <ele>369</ele>
        <time>2016-02-28T10:25:02.000Z</time>
      </trkpt>
      <trkpt lat="47.42266" lon="6.69868">
        <ele>369</ele>
        <time>2016-02-28T10:25:03.000Z</time>
      </trkpt>
      <trkpt lat="47.42269" lon="6.69868">
        <ele>369</ele>
        <time>2016-02-28T10:25:04.000Z</time>
      </trkpt>
      <trkpt lat="47.42273" lon="6.69868">
        <ele>369</ele>
        <time>2016-02-28T10:25:05.000Z</time>
      </trkpt>
      <trkpt lat="47.42276" lon="6.69869">
        <ele>370</ele>
        <time>2016-02-28T10:25:06.000Z</time>
      </trkpt>
      <trkpt lat="47.4228" lon="6.6987">
        <ele>370</ele>
        <time>2016-02-28T10:25:07.000Z</time>
      </trkpt>
      <trkpt lat="47.42283" lon="6.69872">
        <ele>370</ele>
        <time>2016-02-28T10:25:08.000Z</time>
      </trkpt>
      <trkpt lat="47.42286" lon="6.69874">
        <ele>370</ele>
        <time>2016-02-28T10:25:09.000Z</time>
      </trkpt>
      <trkpt lat="47.42289" lon="6.69876">
        <ele>370</ele>
        <time>2016-02-28T10:25:10.000Z</time>
      </trkpt>
      <trkpt lat="47.42292" lon="6.69878">
        <ele>370</ele>
        <time>2016-02-28T10:25:11.000Z</time>
      </trkpt>
      <trkpt lat="47.42295" lon="6.69879">
        <ele>370</ele>
        <time>2016-02-28T10:25:12.000Z</time>
      </trkpt>
      <trkpt lat="47.42297" lon="6.69881">
        <ele>370</ele>
        <time>2016-02-28T10:25:13.000Z</time>
      </trkpt>
      <trkpt lat="47.42299" lon="6.69883">
        <ele>371</ele>
        <time>2016-02-28T10:25:14.000Z</time>
      </trkpt>
      <trkpt lat="47.42302" lon="6.69886">
        <ele>371</ele>
        <time>2016-02-28T10:25:15.000Z</time>
      </trkpt>
      <trkpt lat="47.42305" lon="6.69888">
        <ele>371</ele>
        <time>2016-02-28T10:25:16.000Z</time>
      </trkpt>
      <trkpt lat="47.42309" lon="6.69888">
        <ele>371</ele>
        <time>2016-02-28T10:25:17.000Z</time>
      </trkpt>
      <trkpt lat="47.42314" lon="6.69888">
        <ele>371</ele>
        <time>2016-02-28T10:25:18.000Z</time>
      </trkpt>
      <trkpt lat="47.42318" lon="6.69887">
        <ele>371</ele>
        <time>2016-02-28T10:25:19.000Z</time>
      </trkpt>
      <trkpt lat="47.42322" lon="6.69886">
        <ele>371</ele>
        <time>2016-02-28T10:25:20.000Z</time>
      </trkpt>
      <trkpt lat="47.42325" lon="6.69884">
        <ele>371</ele>
        <time>2016-02-28T10:25:21.000Z</time>
      </trkpt>
      <trkpt lat="47.42328" lon="6.69882">
        <ele>371</ele>
        <time>2016-02-28T10:25:22.000Z</time>
      </trkpt>
      <trkpt lat="47.42331" lon="6.69879">
        <ele>371</ele>
        <time>2016-02-28T10:25:23.000Z</time>
      </trkpt>
      <trkpt lat="47.42334" lon="6.69876">
        <ele>381</ele>
        <time>2016-02-28T10:25:24.000Z</time>
      </trkpt>
      <trkpt lat="47.42335" lon="6.69872">
        <ele>381</ele>
        <time>2016-02-28T10:25:25.000Z</time>
      </trkpt>
      <trkpt lat="47.42337" lon="6.69867">
        <ele>381</ele>
        <time>2016-02-28T10:25:26.000Z</time>
      </trkpt>
      <trkpt lat="47.42338" lon="6.69863">
        <ele>381</ele>
        <time>2016-02-28T10:25:27.000Z</time>
      </trkpt>
      <trkpt lat="47.42338" lon="6.69858">
        <ele>380</ele>
        <time>2016-02-28T10:25:28.000Z</time>
      </trkpt>
      <trkpt lat="47.42338" lon="6.69853">
        <ele>380</ele>
        <time>2016-02-28T10:25:29.000Z</time>
      </trkpt>
      <trkpt lat="47.42338" lon="6.69848">
        <ele>379</ele>
        <time>2016-02-28T10:25:30.000Z</time>
      </trkpt>
      <trkpt lat="47.42338" lon="6.69843">
        <ele>378</ele>
        <time>2016-02-28T10:25:31.000Z</time>
      </trkpt>
      <trkpt lat="47.42337" lon="6.69838">
        <ele>376</ele>
        <time>2016-02-28T10:25:32.000Z</time>
      </trkpt>
      <trkpt lat="47.42337" lon="6.69833">
        <ele>375</ele>
        <time>2016-02-28T10:25:33.000Z</time>
      </trkpt>
      <trkpt lat="47.42337" lon="6.69828">
        <ele>376</ele>
        <time>2016-02-28T10:25:34.000Z</time>
      </trkpt>
      <trkpt lat="47.42336" lon="6.69823">
        <ele>377</ele>
        <time>2016-02-28T10:25:35.000Z</time>
      </trkpt>
      <trkpt lat="47.42336" lon="6.69819">
        <ele>378</ele>
        <time>2016-02-28T10:25:36.000Z</time>
      </trkpt>
      <trkpt lat="47.42336" lon="6.69814">
        <ele>379</ele>
        <time>2016-02-28T10:25:37.000Z</time>
      </trkpt>
      <trkpt lat="47.42336" lon="6.69809">
        <ele>379</ele>
        <time>2016-02-28T10:25:38.000Z</time>
      </trkpt>
      <trkpt lat="47.42335" lon="6.69805">
        <ele>380</ele>
        <time>2016-02-28T10:25:39.000Z</time>
      </trkpt>
      <trkpt lat="47.42335" lon="6.69801">
        <ele>380</ele>
        <time>2016-02-28T10:25:40.000Z</time>
      </trkpt>
      <trkpt lat="47.42335" lon="6.69796">
        <ele>380</ele>
        <time>2016-02-28T10:25:41.000Z</time>
      </trkpt>
      <trkpt lat="47.42336" lon="6.69792">
        <ele>380</ele>
        <time>2016-02-28T10:25:42.000Z</time>
      </trkpt>
      <trkpt lat="47.42336" lon="6.69787">
        <ele>380</ele>
        <time>2016-02-28T10:25:43.000Z</time>
      </trkpt>
      <trkpt lat="47.42335" lon="6.69782">
        <ele>380</ele>
        <time>2016-02-28T10:25:44.000Z</time>
      </trkpt>
      <trkpt lat="47.42335" lon="6.69778">
        <ele>379</ele>
        <time>2016-02-28T10:25:45.000Z</time>
      </trkpt>
      <trkpt lat="47.42335" lon="6.69773">
        <ele>379</ele>
        <time>2016-02-28T10:25:46.000Z</time>
      </trkpt>
      <trkpt lat="47.42335" lon="6.69768">
        <ele>378</ele>
        <time>2016-02-28T10:25:47.000Z</time>
      </trkpt>
      <trkpt lat="47.42335" lon="6.69763">
        <ele>377</ele>
        <time>2016-02-28T10:25:48.000Z</time>
      </trkpt>
      <trkpt lat="47.42336" lon="6.69758">
        <ele>376</ele>
        <time>2016-02-28T10:25:49.000Z</time>
      </trkpt>
      <trkpt lat="47.42337" lon="6.69754">
        <ele>375</ele>
        <time>2016-02-28T10:25:50.000Z</time>
      </trkpt>
      <trkpt lat="47.42338" lon="6.69749">
        <ele>374</ele>
        <time>2016-02-28T10:25:51.000Z</time>
      </trkpt>
      <trkpt lat="47.42339" lon="6.69744">
        <ele>375</ele>
        <time>2016-02-28T10:25:52.000Z</time>
      </trkpt>
      <trkpt lat="47.42339" lon="6.69739">
        <ele>375</ele>
        <time>2016-02-28T10:25:53.000Z</time>
      </trkpt>
      <trkpt lat="47.42339" lon="6.69734">
        <ele>376</ele>
        <time>2016-02-28T10:25:54.000Z</time>
      </trkpt>
      <trkpt lat="47.4234" lon="6.69729">
        <ele>376</ele>
        <time>2016-02-28T10:25:55.000Z</time>
      </trkpt>
      <trkpt lat="47.42341" lon="6.69724">
        <ele>376</ele>
        <time>2016-02-28T10:25:56.000Z</time>
      </trkpt>
      <trkpt lat="47.42342" lon="6.69719">
        <ele>376</ele>
        <time>2016-02-28T10:25:57.000Z</time>
      </trkpt>
      <trkpt lat="47.42342" lon="6.69714">
        <ele>376</ele>
        <time>2016-02-28T10:25:58.000Z</time>
      </trkpt>
      <trkpt lat="47.42343" lon="6.6971">
        <ele>376</ele>
        <time>2016-02-28T10:25:59.000Z</time>
      </trkpt>
      <trkpt lat="47.42344" lon="6.69705">
        <ele>376</ele>
        <time>2016-02-28T10:26:00.000Z</time>
      </trkpt>
      <trkpt lat="47.42345" lon="6.69701">
        <ele>376</ele>
        <time>2016-02-28T10:26:01.000Z</time>
      </trkpt>
      <trkpt lat="47.42346" lon="6.69697">
        <ele>376</ele>
        <time>2016-02-28T10:26:02.000Z</time>
      </trkpt>
      <trkpt lat="47.42348" lon="6.69693">
        <ele>375</ele>
        <time>2016-02-28T10:26:03.000Z</time>
      </trkpt>
      <trkpt lat="47.42349" lon="6.69689">
        <ele>375</ele>
        <time>2016-02-28T10:26:04.000Z</time>
      </trkpt>
      <trkpt lat="47.4235" lon="6.69685">
        <ele>375</ele>
        <time>2016-02-28T10:26:05.000Z</time>
      </trkpt>
      <trkpt lat="47.42352" lon="6.69682">
        <ele>375</ele>
        <time>2016-02-28T10:26:06.000Z</time>
      </trkpt>
      <trkpt lat="47.42354" lon="6.69678">
        <ele>375</ele>
        <time>2016-02-28T10:26:07.000Z</time>
      </trkpt>
      <trkpt lat="47.42355" lon="6.69675">
        <ele>375</ele>
        <time>2016-02-28T10:26:08.000Z</time>
      </trkpt>
      <trkpt lat="47.42357" lon="6.69672">
        <ele>375</ele>
        <time>2016-02-28T10:26:09.000Z</time>
      </trkpt>
      <trkpt lat="47.42358" lon="6.69669">
        <ele>375</ele>
        <time>2016-02-28T10:26:10.000Z</time>
      </trkpt>
      <trkpt lat="47.4236" lon="6.69666">
        <ele>371</ele>
        <time>2016-02-28T10:26:11.000Z</time>
      </trkpt>
      <trkpt lat="47.42362" lon="6.69663">
        <ele>372</ele>
        <time>2016-02-28T10:26:12.000Z</time>
      </trkpt>
      <trkpt lat="47.42363" lon="6.6966">
        <ele>372</ele>
        <time>2016-02-28T10:26:13.000Z</time>
      </trkpt>
      <trkpt lat="47.42365" lon="6.69658">
        <ele>372</ele>
        <time>2016-02-28T10:26:14.000Z</time>
      </trkpt>
      <trkpt lat="47.42369" lon="6.69656">
        <ele>373</ele>
        <time>2016-02-28T10:26:16.000Z</time>
      </trkpt>
      <trkpt lat="47.42371" lon="6.69654">
        <ele>373</ele>
        <time>2016-02-28T10:26:17.000Z</time>
      </trkpt>
      <trkpt lat="47.42373" lon="6.69652">
        <ele>373</ele>
        <time>2016-02-28T10:26:18.000Z</time>
      </trkpt>
      <trkpt lat="47.42375" lon="6.69649">
        <ele>373</ele>
        <time>2016-02-28T10:26:19.000Z</time>
      </trkpt>
      <trkpt lat="47.42377" lon="6.69646">
        <ele>374</ele>
        <time>2016-02-28T10:26:20.000Z</time>
      </trkpt>
      <trkpt lat="47.4238" lon="6.69644">
        <ele>374</ele>
        <time>2016-02-28T10:26:21.000Z</time>
      </trkpt>
      <trkpt lat="47.42382" lon="6.69642">
        <ele>374</ele>
        <time>2016-02-28T10:26:22.000Z</time>
      </trkpt>
      <trkpt lat="47.42384" lon="6.6964">
        <ele>374</ele>
        <time>2016-02-28T10:26:23.000Z</time>
      </trkpt>
      <trkpt lat="47.42387" lon="6.69639">
        <ele>374</ele>
        <time>2016-02-28T10:26:24.000Z</time>
      </trkpt>
      <trkpt lat="47.42389" lon="6.69638">
        <ele>375</ele>
        <time>2016-02-28T10:26:25.000Z</time>
      </trkpt>
      <trkpt lat="47.42392" lon="6.69636">
        <ele>375</ele>
        <time>2016-02-28T10:26:26.000Z</time>
      </trkpt>
      <trkpt lat="47.42394" lon="6.69635">
        <ele>375</ele>
        <time>2016-02-28T10:26:27.000Z</time>
      </trkpt>
      <trkpt lat="47.42397" lon="6.69633">
        <ele>375</ele>
        <time>2016-02-28T10:26:28.000Z</time>
      </trkpt>
      <trkpt lat="47.424" lon="6.6963">
        <ele>375</ele>
        <time>2016-02-28T10:26:29.000Z</time>
      </trkpt>
      <trkpt lat="47.42403" lon="6.69628">
        <ele>375</ele>
        <time>2016-02-28T10:26:30.000Z</time>
      </trkpt>
      <trkpt lat="47.42405" lon="6.69625">
        <ele>375</ele>
        <time>2016-02-28T10:26:31.000Z</time>
      </trkpt>
      <trkpt lat="47.42407" lon="6.69622">
        <ele>375</ele>
        <time>2016-02-28T10:26:32.000Z</time>
      </trkpt>
      <trkpt lat="47.4241" lon="6.69619">
        <ele>376</ele>
        <time>2016-02-28T10:26:33.000Z</time>
      </trkpt>
      <trkpt lat="47.42412" lon="6.69617">
        <ele>376</ele>
        <time>2016-02-28T10:26:34.000Z</time>
      </trkpt>
      <trkpt lat="47.42414" lon="6.69614">
        <ele>376</ele>
        <time>2016-02-28T10:26:35.000Z</time>
      </trkpt>
      <trkpt lat="47.42416" lon="6.69611">
        <ele>376</ele>
        <time>2016-02-28T10:26:36.000Z</time>
      </trkpt>
      <trkpt lat="47.42418" lon="6.69608">
        <ele>385</ele>
        <time>2016-02-28T10:26:37.000Z</time>
      </trkpt>
      <trkpt lat="47.4242" lon="6.69605">
        <ele>385</ele>
        <time>2016-02-28T10:26:38.000Z</time>
      </trkpt>
      <trkpt lat="47.42422" lon="6.69603">
        <ele>384</ele>
        <time>2016-02-28T10:26:39.000Z</time>
      </trkpt>
      <trkpt lat="47.42424" lon="6.696">
        <ele>384</ele>
        <time>2016-02-28T10:26:40.000Z</time>
      </trkpt>
      <trkpt lat="47.42426" lon="6.69598">
        <ele>384</ele>
        <time>2016-02-28T10:26:41.000Z</time>
      </trkpt>
      <trkpt lat="47.42427" lon="6.69595">
        <ele>384</ele>
        <time>2016-02-28T10:26:42.000Z</time>
      </trkpt>
      <trkpt lat="47.42429" lon="6.69592">
        <ele>384</ele>
        <time>2016-02-28T10:26:43.000Z</time>
      </trkpt>
      <trkpt lat="47.42431" lon="6.69589">
        <ele>384</ele>
        <time>2016-02-28T10:26:44.000Z</time>
      </trkpt>
      <trkpt lat="47.42433" lon="6.69587">
        <ele>384</ele>
        <time>2016-02-28T10:26:45.000Z</time>
      </trkpt>
      <trkpt lat="47.42435" lon="6.69584">
        <ele>384</ele>
        <time>2016-02-28T10:26:46.000Z</time>
      </trkpt>
      <trkpt lat="47.42437" lon="6.69583">
        <ele>381</ele>
        <time>2016-02-28T10:26:47.000Z</time>
      </trkpt>
      <trkpt lat="47.4244" lon="6.69581">
        <ele>381</ele>
        <time>2016-02-28T10:26:49.000Z</time>
      </trkpt>
      <trkpt lat="47.42442" lon="6.6958">
        <ele>382</ele>
        <time>2016-02-28T10:26:50.000Z</time>
      </trkpt>
      <trkpt lat="47.42445" lon="6.6958">
        <ele>382</ele>
        <time>2016-02-28T10:26:52.000Z</time>
      </trkpt>
      <trkpt lat="47.42447" lon="6.69579">
        <ele>382</ele>
        <time>2016-02-28T10:26:53.000Z</time>
      </trkpt>
      <trkpt lat="47.42449" lon="6.69577">
        <ele>382</ele>
        <time>2016-02-28T10:26:55.000Z</time>
      </trkpt>
      <trkpt lat="47.42451" lon="6.69576">
        <ele>382</ele>
        <time>2016-02-28T10:26:56.000Z</time>
      </trkpt>
      <trkpt lat="47.42454" lon="6.69576">
        <ele>383</ele>
        <time>2016-02-28T10:26:58.000Z</time>
      </trkpt>
      <trkpt lat="47.42456" lon="6.69576">
        <ele>383</ele>
        <time>2016-02-28T10:26:59.000Z</time>
      </trkpt>
      <trkpt lat="47.42459" lon="6.6958">
        <ele>384</ele>
        <time>2016-02-28T10:27:02.000Z</time>
      </trkpt>
      <trkpt lat="47.4246" lon="6.69582">
        <ele>384</ele>
        <time>2016-02-28T10:27:03.000Z</time>
      </trkpt>
      <trkpt lat="47.42461" lon="6.69588">
        <ele>388</ele>
        <time>2016-02-28T10:27:05.000Z</time>
      </trkpt>
      <trkpt lat="47.42461" lon="6.69591">
        <ele>388</ele>
        <time>2016-02-28T10:27:06.000Z</time>
      </trkpt>
      <trkpt lat="47.4246" lon="6.69596">
        <ele>388</ele>
        <time>2016-02-28T10:27:08.000Z</time>
      </trkpt>
      <trkpt lat="47.42459" lon="6.69597">
        <ele>388</ele>
        <time>2016-02-28T10:27:09.000Z</time>
      </trkpt>
      <trkpt lat="47.42457" lon="6.696">
        <ele>388</ele>
        <time>2016-02-28T10:27:11.000Z</time>
      </trkpt>
      <trkpt lat="47.42455" lon="6.69602">
        <ele>388</ele>
        <time>2016-02-28T10:27:12.000Z</time>
      </trkpt>
      <trkpt lat="47.42453" lon="6.69604">
        <ele>388</ele>
        <time>2016-02-28T10:27:13.000Z</time>
      </trkpt>
      <trkpt lat="47.4245" lon="6.69606">
        <ele>388</ele>
        <time>2016-02-28T10:27:14.000Z</time>
      </trkpt>
      <trkpt lat="47.42448" lon="6.69608">
        <ele>387</ele>
        <time>2016-02-28T10:27:15.000Z</time>
      </trkpt>
      <trkpt lat="47.42446" lon="6.6961">
        <ele>387</ele>
        <time>2016-02-28T10:27:16.000Z</time>
      </trkpt>
      <trkpt lat="47.42444" lon="6.69612">
        <ele>387</ele>
        <time>2016-02-28T10:27:17.000Z</time>
      </trkpt>
      <trkpt lat="47.42442" lon="6.69615">
        <ele>387</ele>
        <time>2016-02-28T10:27:18.000Z</time>
      </trkpt>
      <trkpt lat="47.42441" lon="6.69618">
        <ele>387</ele>
        <time>2016-02-28T10:27:19.000Z</time>
      </trkpt>
      <trkpt lat="47.42439" lon="6.69622">
        <ele>387</ele>
        <time>2016-02-28T10:27:20.000Z</time>
      </trkpt>
      <trkpt lat="47.42438" lon="6.69626">
        <ele>388</ele>
        <time>2016-02-28T10:27:21.000Z</time>
      </trkpt>
      <trkpt lat="47.42436" lon="6.6963">
        <ele>388</ele>
        <time>2016-02-28T10:27:22.000Z</time>
      </trkpt>
      <trkpt lat="47.42435" lon="6.69633">
        <ele>388</ele>
        <time>2016-02-28T10:27:23.000Z</time>
      </trkpt>
      <trkpt lat="47.42433" lon="6.69637">
        <ele>388</ele>
        <time>2016-02-28T10:27:24.000Z</time>
      </trkpt>
      <trkpt lat="47.42432" lon="6.6964">
        <ele>388</ele>
        <time>2016-02-28T10:27:25.000Z</time>
      </trkpt>
      <trkpt lat="47.4243" lon="6.69644">
        <ele>388</ele>
        <time>2016-02-28T10:27:26.000Z</time>
      </trkpt>
      <trkpt lat="47.42429" lon="6.69647">
        <ele>388</ele>
        <time>2016-02-28T10:27:27.000Z</time>
      </trkpt>
      <trkpt lat="47.42428" lon="6.6965">
        <ele>387</ele>
        <time>2016-02-28T10:27:28.000Z</time>
      </trkpt>
      <trkpt lat="47.42427" lon="6.69654">
        <ele>387</ele>
        <time>2016-02-28T10:27:29.000Z</time>
      </trkpt>
      <trkpt lat="47.42426" lon="6.69657">
        <ele>387</ele>
        <time>2016-02-28T10:27:30.000Z</time>
      </trkpt>
      <trkpt lat="47.42425" lon="6.69661">
        <ele>387</ele>
        <time>2016-02-28T10:27:31.000Z</time>
      </trkpt>
      <trkpt lat="47.42424" lon="6.69664">
        <ele>387</ele>
        <time>2016-02-28T10:27:32.000Z</time>
      </trkpt>
      <trkpt lat="47.42423" lon="6.69668">
        <ele>388</ele>
        <time>2016-02-28T10:27:33.000Z</time>
      </trkpt>
      <trkpt lat="47.42423" lon="6.69672">
        <ele>388</ele>
        <time>2016-02-28T10:27:34.000Z</time>
      </trkpt>
      <trkpt lat="47.42422" lon="6.69675">
        <ele>389</ele>
        <time>2016-02-28T10:27:35.000Z</time>
      </trkpt>
      <trkpt lat="47.42421" lon="6.69679">
        <ele>390</ele>
        <time>2016-02-28T10:27:36.000Z</time>
      </trkpt>
      <trkpt lat="47.42421" lon="6.69682">
        <ele>390</ele>
        <time>2016-02-28T10:27:37.000Z</time>
      </trkpt>
      <trkpt lat="47.4242" lon="6.69686">
        <ele>391</ele>
        <time>2016-02-28T10:27:38.000Z</time>
      </trkpt>
      <trkpt lat="47.4242" lon="6.6969">
        <ele>391</ele>
        <time>2016-02-28T10:27:39.000Z</time>
      </trkpt>
      <trkpt lat="47.4242" lon="6.69693">
        <ele>392</ele>
        <time>2016-02-28T10:27:40.000Z</time>
      </trkpt>
      <trkpt lat="47.4242" lon="6.69697">
        <ele>392</ele>
        <time>2016-02-28T10:27:41.000Z</time>
      </trkpt>
      <trkpt lat="47.42419" lon="6.697">
        <ele>392</ele>
        <time>2016-02-28T10:27:42.000Z</time>
      </trkpt>
      <trkpt lat="47.42419" lon="6.69704">
        <ele>392</ele>
        <time>2016-02-28T10:27:43.000Z</time>
      </trkpt>
      <trkpt lat="47.42418" lon="6.69707">
        <ele>393</ele>
        <time>2016-02-28T10:27:44.000Z</time>
      </trkpt>
      <trkpt lat="47.42418" lon="6.69711">
        <ele>393</ele>
        <time>2016-02-28T10:27:45.000Z</time>
      </trkpt>
      <trkpt lat="47.42418" lon="6.69715">
        <ele>393</ele>
        <time>2016-02-28T10:27:46.000Z</time>
      </trkpt>
      <trkpt lat="47.42417" lon="6.69718">
        <ele>393</ele>
        <time>2016-02-28T10:27:47.000Z</time>
      </trkpt>
      <trkpt lat="47.42417" lon="6.69722">
        <ele>393</ele>
        <time>2016-02-28T10:27:48.000Z</time>
      </trkpt>
      <trkpt lat="47.42416" lon="6.69726">
        <ele>384</ele>
        <time>2016-02-28T10:27:49.000Z</time>
      </trkpt>
      <trkpt lat="47.42416" lon="6.6973">
        <ele>385</ele>
        <time>2016-02-28T10:27:50.000Z</time>
      </trkpt>
      <trkpt lat="47.42415" lon="6.69733">
        <ele>386</ele>
        <time>2016-02-28T10:27:51.000Z</time>
      </trkpt>
      <trkpt lat="47.42414" lon="6.69737">
        <ele>386</ele>
        <time>2016-02-28T10:27:52.000Z</time>
      </trkpt>
      <trkpt lat="47.42414" lon="6.69741">
        <ele>387</ele>
        <time>2016-02-28T10:27:53.000Z</time>
      </trkpt>
      <trkpt lat="47.42413" lon="6.69745">
        <ele>388</ele>
        <time>2016-02-28T10:27:54.000Z</time>
      </trkpt>
      <trkpt lat="47.42413" lon="6.69748">
        <ele>389</ele>
        <time>2016-02-28T10:27:55.000Z</time>
      </trkpt>
      <trkpt lat="47.42412" lon="6.69752">
        <ele>390</ele>
        <time>2016-02-28T10:27:56.000Z</time>
      </trkpt>
      <trkpt lat="47.42411" lon="6.69756">
        <ele>389</ele>
        <time>2016-02-28T10:27:57.000Z</time>
      </trkpt>
      <trkpt lat="47.42411" lon="6.69759">
        <ele>389</ele>
        <time>2016-02-28T10:27:58.000Z</time>
      </trkpt>
      <trkpt lat="47.4241" lon="6.69763">
        <ele>388</ele>
        <time>2016-02-28T10:27:59.000Z</time>
      </trkpt>
      <trkpt lat="47.42409" lon="6.69766">
        <ele>388</ele>
        <time>2016-02-28T10:28:00.000Z</time>
      </trkpt>
      <trkpt lat="47.42409" lon="6.69769">
        <ele>388</ele>
        <time>2016-02-28T10:28:01.000Z</time>
      </trkpt>
      <trkpt lat="47.42408" lon="6.69773">
        <ele>387</ele>
        <time>2016-02-28T10:28:02.000Z</time>
      </trkpt>
      <trkpt lat="47.42407" lon="6.69776">
        <ele>387</ele>
        <time>2016-02-28T10:28:03.000Z</time>
      </trkpt>
      <trkpt lat="47.42407" lon="6.6978">
        <ele>387</ele>
        <time>2016-02-28T10:28:04.000Z</time>
      </trkpt>
      <trkpt lat="47.42406" lon="6.69784">
        <ele>387</ele>
        <time>2016-02-28T10:28:05.000Z</time>
      </trkpt>
      <trkpt lat="47.42406" lon="6.69787">
        <ele>387</ele>
        <time>2016-02-28T10:28:06.000Z</time>
      </trkpt>
      <trkpt lat="47.42405" lon="6.69793">
        <ele>387</ele>
        <time>2016-02-28T10:28:08.000Z</time>
      </trkpt>
      <trkpt lat="47.42405" lon="6.69796">
        <ele>388</ele>
        <time>2016-02-28T10:28:09.000Z</time>
      </trkpt>
      <trkpt lat="47.42405" lon="6.69799">
        <ele>388</ele>
        <time>2016-02-28T10:28:10.000Z</time>
      </trkpt>
      <trkpt lat="47.42405" lon="6.69803">
        <ele>388</ele>
        <time>2016-02-28T10:28:11.000Z</time>
      </trkpt>
      <trkpt lat="47.42406" lon="6.69807">
        <ele>389</ele>
        <time>2016-02-28T10:28:12.000Z</time>
      </trkpt>
      <trkpt lat="47.42406" lon="6.69811">
        <ele>389</ele>
        <time>2016-02-28T10:28:13.000Z</time>
      </trkpt>
      <trkpt lat="47.42407" lon="6.69815">
        <ele>390</ele>
        <time>2016-02-28T10:28:14.000Z</time>
      </trkpt>
      <trkpt lat="47.42407" lon="6.69819">
        <ele>391</ele>
        <time>2016-02-28T10:28:15.000Z</time>
      </trkpt>
      <trkpt lat="47.42407" lon="6.69823">
        <ele>392</ele>
        <time>2016-02-28T10:28:16.000Z</time>
      </trkpt>
      <trkpt lat="47.42407" lon="6.69826">
        <ele>392</ele>
        <time>2016-02-28T10:28:17.000Z</time>
      </trkpt>
      <trkpt lat="47.42407" lon="6.69829">
        <ele>393</ele>
        <time>2016-02-28T10:28:18.000Z</time>
      </trkpt>
      <trkpt lat="47.42407" lon="6.69833">
        <ele>394</ele>
        <time>2016-02-28T10:28:19.000Z</time>
      </trkpt>
      <trkpt lat="47.42408" lon="6.69836">
        <ele>394</ele>
        <time>2016-02-28T10:28:20.000Z</time>
      </trkpt>
      <trkpt lat="47.42409" lon="6.6984">
        <ele>394</ele>
        <time>2016-02-28T10:28:21.000Z</time>
      </trkpt>
      <trkpt lat="47.4241" lon="6.69843">
        <ele>393</ele>
        <time>2016-02-28T10:28:22.000Z</time>
      </trkpt>
      <trkpt lat="47.4241" lon="6.69847">
        <ele>393</ele>
        <time>2016-02-28T10:28:23.000Z</time>
      </trkpt>
      <trkpt lat="47.42411" lon="6.6985">
        <ele>392</ele>
        <time>2016-02-28T10:28:24.000Z</time>
      </trkpt>
      <trkpt lat="47.42411" lon="6.69854">
        <ele>391</ele>
        <time>2016-02-28T10:28:25.000Z</time>
      </trkpt>
      <trkpt lat="47.42411" lon="6.69857">
        <ele>391</ele>
        <time>2016-02-28T10:28:26.000Z</time>
      </trkpt>
      <trkpt lat="47.42412" lon="6.6986">
        <ele>391</ele>
        <time>2016-02-28T10:28:27.000Z</time>
      </trkpt>
      <trkpt lat="47.42412" lon="6.69864">
        <ele>390</ele>
        <time>2016-02-28T10:28:28.000Z</time>
      </trkpt>
      <trkpt lat="47.42413" lon="6.69868">
        <ele>390</ele>
        <time>2016-02-28T10:28:29.000Z</time>
      </trkpt>
      <trkpt lat="47.42414" lon="6.69872">
        <ele>390</ele>
        <time>2016-02-28T10:28:30.000Z</time>
      </trkpt>
      <trkpt lat="47.42415" lon="6.69875">
        <ele>390</ele>
        <time>2016-02-28T10:28:31.000Z</time>
      </trkpt>
      <trkpt lat="47.42416" lon="6.69879">
        <ele>390</ele>
        <time>2016-02-28T10:28:32.000Z</time>
      </trkpt>
      <trkpt lat="47.42416" lon="6.69883">
        <ele>390</ele>
        <time>2016-02-28T10:28:33.000Z</time>
      </trkpt>
      <trkpt lat="47.42417" lon="6.69886">
        <ele>390</ele>
        <time>2016-02-28T10:28:34.000Z</time>
      </trkpt>
      <trkpt lat="47.42417" lon="6.69889">
        <ele>402</ele>
        <time>2016-02-28T10:28:35.000Z</time>
      </trkpt>
      <trkpt lat="47.42419" lon="6.69891">
        <ele>402</ele>
        <time>2016-02-28T10:28:36.000Z</time>
      </trkpt>
      <trkpt lat="47.42422" lon="6.69894">
        <ele>402</ele>
        <time>2016-02-28T10:28:37.000Z</time>
      </trkpt>
      <trkpt lat="47.42424" lon="6.69896">
        <ele>402</ele>
        <time>2016-02-28T10:28:38.000Z</time>
      </trkpt>
      <trkpt lat="47.42427" lon="6.69899">
        <ele>402</ele>
        <time>2016-02-28T10:28:39.000Z</time>
      </trkpt>
      <trkpt lat="47.4243" lon="6.69902">
        <ele>401</ele>
        <time>2016-02-28T10:28:40.000Z</time>
      </trkpt>
      <trkpt lat="47.4243" lon="6.69906">
        <ele>401</ele>
        <time>2016-02-28T10:28:41.000Z</time>
      </trkpt>
      <trkpt lat="47.42431" lon="6.69909">
        <ele>401</ele>
        <time>2016-02-28T10:28:42.000Z</time>
      </trkpt>
      <trkpt lat="47.42431" lon="6.69913">
        <ele>401</ele>
        <time>2016-02-28T10:28:43.000Z</time>
      </trkpt>
      <trkpt lat="47.42431" lon="6.69916">
        <ele>401</ele>
        <time>2016-02-28T10:28:44.000Z</time>
      </trkpt>
      <trkpt lat="47.42431" lon="6.69919">
        <ele>400</ele>
        <time>2016-02-28T10:28:45.000Z</time>
      </trkpt>
      <trkpt lat="47.42432" lon="6.69923">
        <ele>400</ele>
        <time>2016-02-28T10:28:46.000Z</time>
      </trkpt>
      <trkpt lat="47.42433" lon="6.69927">
        <ele>400</ele>
        <time>2016-02-28T10:28:47.000Z</time>
      </trkpt>
      <trkpt lat="47.42435" lon="6.6993">
        <ele>401</ele>
        <time>2016-02-28T10:28:48.000Z</time>
      </trkpt>
      <trkpt lat="47.42436" lon="6.69933">
        <ele>401</ele>
        <time>2016-02-28T10:28:49.000Z</time>
      </trkpt>
      <trkpt lat="47.42437" lon="6.69936">
        <ele>401</ele>
        <time>2016-02-28T10:28:50.000Z</time>
      </trkpt>
      <trkpt lat="47.42438" lon="6.69939">
        <ele>401</ele>
        <time>2016-02-28T10:28:51.000Z</time>
      </trkpt>
      <trkpt lat="47.4244" lon="6.69942">
        <ele>401</ele>
        <time>2016-02-28T10:28:52.000Z</time>
      </trkpt>
      <trkpt lat="47.42441" lon="6.69945">
        <ele>401</ele>
        <time>2016-02-28T10:28:53.000Z</time>
      </trkpt>
      <trkpt lat="47.42442" lon="6.69948">
        <ele>402</ele>
        <time>2016-02-28T10:28:54.000Z</time>
      </trkpt>
      <trkpt lat="47.42444" lon="6.69951">
        <ele>402</ele>
        <time>2016-02-28T10:28:55.000Z</time>
      </trkpt>
      <trkpt lat="47.42445" lon="6.69954">
        <ele>402</ele>
        <time>2016-02-28T10:28:56.000Z</time>
      </trkpt>
      <trkpt lat="47.42446" lon="6.69957">
        <ele>402</ele>
        <time>2016-02-28T10:28:57.000Z</time>
      </trkpt>
      <trkpt lat="47.42448" lon="6.69962">
        <ele>402</ele>
        <time>2016-02-28T10:28:59.000Z</time>
      </trkpt>
      <trkpt lat="47.42449" lon="6.69964">
        <ele>402</ele>
        <time>2016-02-28T10:29:00.000Z</time>
      </trkpt>
      <trkpt lat="47.42451" lon="6.6997">
        <ele>402</ele>
        <time>2016-02-28T10:29:02.000Z</time>
      </trkpt>
      <trkpt lat="47.42451" lon="6.69973">
        <ele>402</ele>
        <time>2016-02-28T10:29:03.000Z</time>
      </trkpt>
      <trkpt lat="47.42452" lon="6.69977">
        <ele>402</ele>
        <time>2016-02-28T10:29:04.000Z</time>
      </trkpt>
      <trkpt lat="47.42453" lon="6.69981">
        <ele>402</ele>
        <time>2016-02-28T10:29:05.000Z</time>
      </trkpt>
      <trkpt lat="47.42455" lon="6.69984">
        <ele>402</ele>
        <time>2016-02-28T10:29:06.000Z</time>
      </trkpt>
      <trkpt lat="47.42457" lon="6.69986">
        <ele>402</ele>
        <time>2016-02-28T10:29:07.000Z</time>
      </trkpt>
      <trkpt lat="47.4246" lon="6.69989">
        <ele>402</ele>
        <time>2016-02-28T10:29:08.000Z</time>
      </trkpt>
      <trkpt lat="47.42462" lon="6.69991">
        <ele>403</ele>
        <time>2016-02-28T10:29:09.000Z</time>
      </trkpt>
      <trkpt lat="47.42464" lon="6.69994">
        <ele>403</ele>
        <time>2016-02-28T10:29:10.000Z</time>
      </trkpt>
      <trkpt lat="47.42467" lon="6.69996">
        <ele>404</ele>
        <time>2016-02-28T10:29:11.000Z</time>
      </trkpt>
      <trkpt lat="47.42469" lon="6.69998">
        <ele>404</ele>
        <time>2016-02-28T10:29:12.000Z</time>
      </trkpt>
      <trkpt lat="47.42471" lon="6.70001">
        <ele>401</ele>
        <time>2016-02-28T10:29:13.000Z</time>
      </trkpt>
      <trkpt lat="47.42473" lon="6.70003">
        <ele>401</ele>
        <time>2016-02-28T10:29:14.000Z</time>
      </trkpt>
      <trkpt lat="47.42475" lon="6.70006">
        <ele>402</ele>
        <time>2016-02-28T10:29:15.000Z</time>
      </trkpt>
      <trkpt lat="47.42477" lon="6.70009">
        <ele>402</ele>
        <time>2016-02-28T10:29:16.000Z</time>
      </trkpt>
      <trkpt lat="47.42479" lon="6.70012">
        <ele>402</ele>
        <time>2016-02-28T10:29:17.000Z</time>
      </trkpt>
      <trkpt lat="47.42481" lon="6.70014">
        <ele>402</ele>
        <time>2016-02-28T10:29:18.000Z</time>
      </trkpt>
      <trkpt lat="47.42483" lon="6.70017">
        <ele>402</ele>
        <time>2016-02-28T10:29:19.000Z</time>
      </trkpt>
      <trkpt lat="47.42485" lon="6.70019">
        <ele>402</ele>
        <time>2016-02-28T10:29:20.000Z</time>
      </trkpt>
      <trkpt lat="47.42487" lon="6.7002">
        <ele>402</ele>
        <time>2016-02-28T10:29:21.000Z</time>
      </trkpt>
      <trkpt lat="47.42489" lon="6.70022">
        <ele>402</ele>
        <time>2016-02-28T10:29:22.000Z</time>
      </trkpt>
      <trkpt lat="47.42491" lon="6.70023">
        <ele>402</ele>
        <time>2016-02-28T10:29:23.000Z</time>
      </trkpt>
      <trkpt lat="47.42493" lon="6.70025">
        <ele>402</ele>
        <time>2016-02-28T10:29:24.000Z</time>
      </trkpt>
      <trkpt lat="47.42495" lon="6.70027">
        <ele>402</ele>
        <time>2016-02-28T10:29:25.000Z</time>
      </trkpt>
      <trkpt lat="47.42497" lon="6.7003">
        <ele>402</ele>
        <time>2016-02-28T10:29:26.000Z</time>
      </trkpt>
      <trkpt lat="47.42501" lon="6.70035">
        <ele>411</ele>
        <time>2016-02-28T10:29:28.000Z</time>
      </trkpt>
      <trkpt lat="47.42504" lon="6.70036">
        <ele>411</ele>
        <time>2016-02-28T10:29:29.000Z</time>
      </trkpt>
      <trkpt lat="47.42507" lon="6.70038">
        <ele>411</ele>
        <time>2016-02-28T10:29:30.000Z</time>
      </trkpt>
      <trkpt lat="47.4251" lon="6.70039">
        <ele>411</ele>
        <time>2016-02-28T10:29:31.000Z</time>
      </trkpt>
      <trkpt lat="47.42513" lon="6.7004">
        <ele>411</ele>
        <time>2016-02-28T10:29:32.000Z</time>
      </trkpt>
      <trkpt lat="47.42516" lon="6.70042">
        <ele>411</ele>
        <time>2016-02-28T10:29:33.000Z</time>
      </trkpt>
      <trkpt lat="47.4252" lon="6.70043">
        <ele>411</ele>
        <time>2016-02-28T10:29:34.000Z</time>
      </trkpt>
      <trkpt lat="47.42523" lon="6.70045">
        <ele>411</ele>
        <time>2016-02-28T10:29:35.000Z</time>
      </trkpt>
      <trkpt lat="47.42525" lon="6.70047">
        <ele>411</ele>
        <time>2016-02-28T10:29:36.000Z</time>
      </trkpt>
      <trkpt lat="47.42528" lon="6.70048">
        <ele>411</ele>
        <time>2016-02-28T10:29:37.000Z</time>
      </trkpt>
      <trkpt lat="47.42531" lon="6.7005">
        <ele>411</ele>
        <time>2016-02-28T10:29:38.000Z</time>
      </trkpt>
      <trkpt lat="47.42533" lon="6.70051">
        <ele>412</ele>
        <time>2016-02-28T10:29:39.000Z</time>
      </trkpt>
      <trkpt lat="47.42536" lon="6.70052">
        <ele>412</ele>
        <time>2016-02-28T10:29:40.000Z</time>
      </trkpt>
      <trkpt lat="47.42538" lon="6.70053">
        <ele>412</ele>
        <time>2016-02-28T10:29:41.000Z</time>
      </trkpt>
      <trkpt lat="47.42541" lon="6.70053">
        <ele>412</ele>
        <time>2016-02-28T10:29:42.000Z</time>
      </trkpt>
      <trkpt lat="47.42544" lon="6.70054">
        <ele>412</ele>
        <time>2016-02-28T10:29:43.000Z</time>
      </trkpt>
      <trkpt lat="47.42546" lon="6.70056">
        <ele>413</ele>
        <time>2016-02-28T10:29:44.000Z</time>
      </trkpt>
      <trkpt lat="47.42548" lon="6.70058">
        <ele>413</ele>
        <time>2016-02-28T10:29:45.000Z</time>
      </trkpt>
      <trkpt lat="47.42551" lon="6.70061">
        <ele>413</ele>
        <time>2016-02-28T10:29:46.000Z</time>
      </trkpt>
      <trkpt lat="47.42553" lon="6.70063">
        <ele>413</ele>
        <time>2016-02-28T10:29:47.000Z</time>
      </trkpt>
      <trkpt lat="47.42555" lon="6.70065">
        <ele>413</ele>
        <time>2016-02-28T10:29:48.000Z</time>
      </trkpt>
      <trkpt lat="47.42557" lon="6.70067">
        <ele>413</ele>
        <time>2016-02-28T10:29:49.000Z</time>
      </trkpt>
      <trkpt lat="47.42559" lon="6.70069">
        <ele>413</ele>
        <time>2016-02-28T10:29:50.000Z</time>
      </trkpt>
      <trkpt lat="47.42561" lon="6.70071">
        <ele>414</ele>
        <time>2016-02-28T10:29:51.000Z</time>
      </trkpt>
      <trkpt lat="47.42563" lon="6.70072">
        <ele>414</ele>
        <time>2016-02-28T10:29:52.000Z</time>
      </trkpt>
      <trkpt lat="47.42567" lon="6.70076">
        <ele>414</ele>
        <time>2016-02-28T10:29:54.000Z</time>
      </trkpt>
      <trkpt lat="47.42569" lon="6.70077">
        <ele>414</ele>
        <time>2016-02-28T10:29:55.000Z</time>
      </trkpt>
      <trkpt lat="47.42572" lon="6.70081">
        <ele>415</ele>
        <time>2016-02-28T10:29:57.000Z</time>
      </trkpt>
      <trkpt lat="47.42574" lon="6.70083">
        <ele>415</ele>
        <time>2016-02-28T10:29:58.000Z</time>
      </trkpt>
      <trkpt lat="47.42577" lon="6.70088">
        <ele>412</ele>
        <time>2016-02-28T10:30:00.000Z</time>
      </trkpt>
      <trkpt lat="47.42578" lon="6.70091">
        <ele>412</ele>
        <time>2016-02-28T10:30:01.000Z</time>
      </trkpt>
      <trkpt lat="47.4258" lon="6.70094">
        <ele>411</ele>
        <time>2016-02-28T10:30:03.000Z</time>
      </trkpt>
      <trkpt lat="47.42582" lon="6.70096">
        <ele>411</ele>
        <time>2016-02-28T10:30:04.000Z</time>
      </trkpt>
      <trkpt lat="47.42586" lon="6.70098">
        <ele>417</ele>
        <time>2016-02-28T10:30:06.000Z</time>
      </trkpt>
      <trkpt lat="47.42588" lon="6.701">
        <ele>417</ele>
        <time>2016-02-28T10:30:07.000Z</time>
      </trkpt>
      <trkpt lat="47.4259" lon="6.70102">
        <ele>417</ele>
        <time>2016-02-28T10:30:08.000Z</time>
      </trkpt>
      <trkpt lat="47.42592" lon="6.70105">
        <ele>417</ele>
        <time>2016-02-28T10:30:09.000Z</time>
      </trkpt>
      <trkpt lat="47.42595" lon="6.70107">
        <ele>417</ele>
        <time>2016-02-28T10:30:10.000Z</time>
      </trkpt>
      <trkpt lat="47.42598" lon="6.70109">
        <ele>417</ele>
        <time>2016-02-28T10:30:11.000Z</time>
      </trkpt>
      <trkpt lat="47.42601" lon="6.70111">
        <ele>417</ele>
        <time>2016-02-28T10:30:12.000Z</time>
      </trkpt>
      <trkpt lat="47.42604" lon="6.70113">
        <ele>417</ele>
        <time>2016-02-28T10:30:13.000Z</time>
      </trkpt>
      <trkpt lat="47.42607" lon="6.70115">
        <ele>417</ele>
        <time>2016-02-28T10:30:14.000Z</time>
      </trkpt>
      <trkpt lat="47.42609" lon="6.70117">
        <ele>417</ele>
        <time>2016-02-28T10:30:15.000Z</time>
      </trkpt>
      <trkpt lat="47.42612" lon="6.70119">
        <ele>417</ele>
        <time>2016-02-28T10:30:16.000Z</time>
      </trkpt>
      <trkpt lat="47.42614" lon="6.70121">
        <ele>418</ele>
        <time>2016-02-28T10:30:17.000Z</time>
      </trkpt>
      <trkpt lat="47.42616" lon="6.70123">
        <ele>418</ele>
        <time>2016-02-28T10:30:18.000Z</time>
      </trkpt>
      <trkpt lat="47.42617" lon="6.70126">
        <ele>418</ele>
        <time>2016-02-28T10:30:19.000Z</time>
      </trkpt>
      <trkpt lat="47.42619" lon="6.70128">
        <ele>418</ele>
        <time>2016-02-28T10:30:20.000Z</time>
      </trkpt>
      <trkpt lat="47.42622" lon="6.70129">
        <ele>418</ele>
        <time>2016-02-28T10:30:21.000Z</time>
      </trkpt>
      <trkpt lat="47.42625" lon="6.7013">
        <ele>418</ele>
        <time>2016-02-28T10:30:22.000Z</time>
      </trkpt>
      <trkpt lat="47.42627" lon="6.70132">
        <ele>418</ele>
        <time>2016-02-28T10:30:23.000Z</time>
      </trkpt>
      <trkpt lat="47.42629" lon="6.70133">
        <ele>418</ele>
        <time>2016-02-28T10:30:24.000Z</time>
      </trkpt>
      <trkpt lat="47.42631" lon="6.70135">
        <ele>418</ele>
        <time>2016-02-28T10:30:25.000Z</time>
      </trkpt>
      <trkpt lat="47.42633" lon="6.70137">
        <ele>418</ele>
        <time>2016-02-28T10:30:26.000Z</time>
      </trkpt>
      <trkpt lat="47.42635" lon="6.70139">
        <ele>419</ele>
        <time>2016-02-28T10:30:27.000Z</time>
      </trkpt>
      <trkpt lat="47.42637" lon="6.70141">
        <ele>419</ele>
        <time>2016-02-28T10:30:28.000Z</time>
      </trkpt>
      <trkpt lat="47.42639" lon="6.70143">
        <ele>419</ele>
        <time>2016-02-28T10:30:29.000Z</time>
      </trkpt>
      <trkpt lat="47.42641" lon="6.70145">
        <ele>419</ele>
        <time>2016-02-28T10:30:30.000Z</time>
      </trkpt>
      <trkpt lat="47.42643" lon="6.70147">
        <ele>419</ele>
        <time>2016-02-28T10:30:31.000Z</time>
      </trkpt>
      <trkpt lat="47.42645" lon="6.70149">
        <ele>419</ele>
        <time>2016-02-28T10:30:32.000Z</time>
      </trkpt>
      <trkpt lat="47.42648" lon="6.7015">
        <ele>419</ele>
        <time>2016-02-28T10:30:33.000Z</time>
      </trkpt>
      <trkpt lat="47.42651" lon="6.7015">
        <ele>420</ele>
        <time>2016-02-28T10:30:34.000Z</time>
      </trkpt>
      <trkpt lat="47.42653" lon="6.70152">
        <ele>420</ele>
        <time>2016-02-28T10:30:35.000Z</time>
      </trkpt>
      <trkpt lat="47.42657" lon="6.70156">
        <ele>420</ele>
        <time>2016-02-28T10:30:37.000Z</time>
      </trkpt>
      <trkpt lat="47.42658" lon="6.70158">
        <ele>420</ele>
        <time>2016-02-28T10:30:38.000Z</time>
      </trkpt>
      <trkpt lat="47.42662" lon="6.70161">
        <ele>420</ele>
        <time>2016-02-28T10:30:40.000Z</time>
      </trkpt>
      <trkpt lat="47.42664" lon="6.70163">
        <ele>421</ele>
        <time>2016-02-28T10:30:41.000Z</time>
      </trkpt>
      <trkpt lat="47.42666" lon="6.70164">
        <ele>421</ele>
        <time>2016-02-28T10:30:42.000Z</time>
      </trkpt>
      <trkpt lat="47.42669" lon="6.70166">
        <ele>422</ele>
        <time>2016-02-28T10:30:43.000Z</time>
      </trkpt>
      <trkpt lat="47.42671" lon="6.70167">
        <ele>421</ele>
        <time>2016-02-28T10:30:44.000Z</time>
      </trkpt>
      <trkpt lat="47.42673" lon="6.70169">
        <ele>422</ele>
        <time>2016-02-28T10:30:45.000Z</time>
      </trkpt>
      <trkpt lat="47.42675" lon="6.70171">
        <ele>422</ele>
        <time>2016-02-28T10:30:46.000Z</time>
      </trkpt>
      <trkpt lat="47.42676" lon="6.70174">
        <ele>422</ele>
        <time>2016-02-28T10:30:47.000Z</time>
      </trkpt>
      <trkpt lat="47.42677" lon="6.70177">
        <ele>422</ele>
        <time>2016-02-28T10:30:48.000Z</time>
      </trkpt>
      <trkpt lat="47.42678" lon="6.70181">
        <ele>422</ele>
        <time>2016-02-28T10:30:49.000Z</time>
      </trkpt>
      <trkpt lat="47.42679" lon="6.70184">
        <ele>423</ele>
        <time>2016-02-28T10:30:50.000Z</time>
      </trkpt>
      <trkpt lat="47.4268" lon="6.70188">
        <ele>423</ele>
        <time>2016-02-28T10:30:51.000Z</time>
      </trkpt>
      <trkpt lat="47.42682" lon="6.70191">
        <ele>423</ele>
        <time>2016-02-28T10:30:52.000Z</time>
      </trkpt>
      <trkpt lat="47.42684" lon="6.70193">
        <ele>423</ele>
        <time>2016-02-28T10:30:53.000Z</time>
      </trkpt>
      <trkpt lat="47.42685" lon="6.70196">
        <ele>423</ele>
        <time>2016-02-28T10:30:54.000Z</time>
      </trkpt>
      <trkpt lat="47.42686" lon="6.70198">
        <ele>422</ele>
        <time>2016-02-28T10:30:55.000Z</time>
      </trkpt>
      <trkpt lat="47.42688" lon="6.70201">
        <ele>422</ele>
        <time>2016-02-28T10:30:56.000Z</time>
      </trkpt>
      <trkpt lat="47.4269" lon="6.70204">
        <ele>422</ele>
        <time>2016-02-28T10:30:57.000Z</time>
      </trkpt>
      <trkpt lat="47.42692" lon="6.70205">
        <ele>422</ele>
        <time>2016-02-28T10:30:58.000Z</time>
      </trkpt>
      <trkpt lat="47.42695" lon="6.70207">
        <ele>423</ele>
        <time>2016-02-28T10:30:59.000Z</time>
      </trkpt>
      <trkpt lat="47.42697" lon="6.70209">
        <ele>423</ele>
        <time>2016-02-28T10:31:00.000Z</time>
      </trkpt>
      <trkpt lat="47.42699" lon="6.70211">
        <ele>423</ele>
        <time>2016-02-28T10:31:01.000Z</time>
      </trkpt>
      <trkpt lat="47.42701" lon="6.70214">
        <ele>423</ele>
        <time>2016-02-28T10:31:02.000Z</time>
      </trkpt>
      <trkpt lat="47.42702" lon="6.70217">
        <ele>423</ele>
        <time>2016-02-28T10:31:03.000Z</time>
      </trkpt>
      <trkpt lat="47.42704" lon="6.7022">
        <ele>423</ele>
        <time>2016-02-28T10:31:04.000Z</time>
      </trkpt>
      <trkpt lat="47.42706" lon="6.70222">
        <ele>423</ele>
        <time>2016-02-28T10:31:05.000Z</time>
      </trkpt>
      <trkpt lat="47.42709" lon="6.70224">
        <ele>423</ele>
        <time>2016-02-28T10:31:06.000Z</time>
      </trkpt>
      <trkpt lat="47.42711" lon="6.70225">
        <ele>423</ele>
        <time>2016-02-28T10:31:07.000Z</time>
      </trkpt>
      <trkpt lat="47.42714" lon="6.70229">
        <ele>423</ele>
        <time>2016-02-28T10:31:09.000Z</time>
      </trkpt>
      <trkpt lat="47.42715" lon="6.70232">
        <ele>423</ele>
        <time>2016-02-28T10:31:10.000Z</time>
      </trkpt>
      <trkpt lat="47.42717" lon="6.70236">
        <ele>423</ele>
        <time>2016-02-28T10:31:12.000Z</time>
      </trkpt>
      <trkpt lat="47.42719" lon="6.70238">
        <ele>423</ele>
        <time>2016-02-28T10:31:13.000Z</time>
      </trkpt>
      <trkpt lat="47.4272" lon="6.7024">
        <ele>424</ele>
        <time>2016-02-28T10:31:14.000Z</time>
      </trkpt>
      <trkpt lat="47.42722" lon="6.70242">
        <ele>424</ele>
        <time>2016-02-28T10:31:15.000Z</time>
      </trkpt>
      <trkpt lat="47.42725" lon="6.70244">
        <ele>424</ele>
        <time>2016-02-28T10:31:16.000Z</time>
      </trkpt>
      <trkpt lat="47.42727" lon="6.70246">
        <ele>424</ele>
        <time>2016-02-28T10:31:17.000Z</time>
      </trkpt>
      <trkpt lat="47.42729" lon="6.70247">
        <ele>425</ele>
        <time>2016-02-28T10:31:18.000Z</time>
      </trkpt>
      <trkpt lat="47.42731" lon="6.70249">
        <ele>425</ele>
        <time>2016-02-28T10:31:19.000Z</time>
      </trkpt>
      <trkpt lat="47.42734" lon="6.70251">
        <ele>422</ele>
        <time>2016-02-28T10:31:20.000Z</time>
      </trkpt>
      <trkpt lat="47.42736" lon="6.70253">
        <ele>422</ele>
        <time>2016-02-28T10:31:21.000Z</time>
      </trkpt>
      <trkpt lat="47.42738" lon="6.70255">
        <ele>422</ele>
        <time>2016-02-28T10:31:22.000Z</time>
      </trkpt>
      <trkpt lat="47.4274" lon="6.70257">
        <ele>423</ele>
        <time>2016-02-28T10:31:23.000Z</time>
      </trkpt>
      <trkpt lat="47.42742" lon="6.70259">
        <ele>423</ele>
        <time>2016-02-28T10:31:24.000Z</time>
      </trkpt>
      <trkpt lat="47.42744" lon="6.70261">
        <ele>423</ele>
        <time>2016-02-28T10:31:25.000Z</time>
      </trkpt>
      <trkpt lat="47.42746" lon="6.70263">
        <ele>423</ele>
        <time>2016-02-28T10:31:26.000Z</time>
      </trkpt>
      <trkpt lat="47.42748" lon="6.70265">
        <ele>422</ele>
        <time>2016-02-28T10:31:27.000Z</time>
      </trkpt>
      <trkpt lat="47.4275" lon="6.70267">
        <ele>422</ele>
        <time>2016-02-28T10:31:28.000Z</time>
      </trkpt>
      <trkpt lat="47.42752" lon="6.70269">
        <ele>429</ele>
        <time>2016-02-28T10:31:29.000Z</time>
      </trkpt>
      <trkpt lat="47.42754" lon="6.70271">
        <ele>429</ele>
        <time>2016-02-28T10:31:30.000Z</time>
      </trkpt>
      <trkpt lat="47.42756" lon="6.70273">
        <ele>429</ele>
        <time>2016-02-28T10:31:31.000Z</time>
      </trkpt>
      <trkpt lat="47.42759" lon="6.70276">
        <ele>429</ele>
        <time>2016-02-28T10:31:33.000Z</time>
      </trkpt>
      <trkpt lat="47.42762" lon="6.70277">
        <ele>429</ele>
        <time>2016-02-28T10:31:34.000Z</time>
      </trkpt>
      <trkpt lat="47.42764" lon="6.70278">
        <ele>429</ele>
        <time>2016-02-28T10:31:35.000Z</time>
      </trkpt>
      <trkpt lat="47.42766" lon="6.70279">
        <ele>429</ele>
        <time>2016-02-28T10:31:36.000Z</time>
      </trkpt>
      <trkpt lat="47.42769" lon="6.7028">
        <ele>429</ele>
        <time>2016-02-28T10:31:37.000Z</time>
      </trkpt>
      <trkpt lat="47.42771" lon="6.70281">
        <ele>430</ele>
        <time>2016-02-28T10:31:38.000Z</time>
      </trkpt>
      <trkpt lat="47.42774" lon="6.70283">
        <ele>430</ele>
        <time>2016-02-28T10:31:40.000Z</time>
      </trkpt>
      <trkpt lat="47.42776" lon="6.70285">
        <ele>430</ele>
        <time>2016-02-28T10:31:41.000Z</time>
      </trkpt>
      <trkpt lat="47.4278" lon="6.70288">
        <ele>430</ele>
        <time>2016-02-28T10:31:43.000Z</time>
      </trkpt>
      <trkpt lat="47.42781" lon="6.70289">
        <ele>430</ele>
        <time>2016-02-28T10:31:44.000Z</time>
      </trkpt>
      <trkpt lat="47.42785" lon="6.70292">
        <ele>430</ele>
        <time>2016-02-28T10:31:46.000Z</time>
      </trkpt>
      <trkpt lat="47.42788" lon="6.70294">
        <ele>430</ele>
        <time>2016-02-28T10:31:47.000Z</time>
      </trkpt>
      <trkpt lat="47.4279" lon="6.70296">
        <ele>431</ele>
        <time>2016-02-28T10:31:48.000Z</time>
      </trkpt>
      <trkpt lat="47.42792" lon="6.70298">
        <ele>431</ele>
        <time>2016-02-28T10:31:49.000Z</time>
      </trkpt>
      <trkpt lat="47.42795" lon="6.70301">
        <ele>431</ele>
        <time>2016-02-28T10:31:51.000Z</time>
      </trkpt>
      <trkpt lat="47.42797" lon="6.70303">
        <ele>431</ele>
        <time>2016-02-28T10:31:52.000Z</time>
      </trkpt>
      <trkpt lat="47.428" lon="6.70306">
        <ele>431</ele>
        <time>2016-02-28T10:31:55.000Z</time>
      </trkpt>
      <trkpt lat="47.42802" lon="6.70308">
        <ele>431</ele>
        <time>2016-02-28T10:31:56.000Z</time>
      </trkpt>
      <trkpt lat="47.42805" lon="6.70312">
        <ele>431</ele>
        <time>2016-02-28T10:31:58.000Z</time>
      </trkpt>
      <trkpt lat="47.42806" lon="6.70314">
        <ele>431</ele>
        <time>2016-02-28T10:31:59.000Z</time>
      </trkpt>
      <trkpt lat="47.42808" lon="6.70317">
        <ele>431</ele>
        <time>2016-02-28T10:32:00.000Z</time>
      </trkpt>
      <trkpt lat="47.4281" lon="6.7032">
        <ele>432</ele>
        <time>2016-02-28T10:32:01.000Z</time>
      </trkpt>
      <trkpt lat="47.42812" lon="6.70322">
        <ele>432</ele>
        <time>2016-02-28T10:32:02.000Z</time>
      </trkpt>
      <trkpt lat="47.42813" lon="6.70325">
        <ele>432</ele>
        <time>2016-02-28T10:32:03.000Z</time>
      </trkpt>
      <trkpt lat="47.42815" lon="6.70326">
        <ele>432</ele>
        <time>2016-02-28T10:32:04.000Z</time>
      </trkpt>
      <trkpt lat="47.42817" lon="6.70329">
        <ele>432</ele>
        <time>2016-02-28T10:32:05.000Z</time>
      </trkpt>
      <trkpt lat="47.42819" lon="6.70331">
        <ele>432</ele>
        <time>2016-02-28T10:32:06.000Z</time>
      </trkpt>
      <trkpt lat="47.4282" lon="6.70333">
        <ele>431</ele>
        <time>2016-02-28T10:32:07.000Z</time>
      </trkpt>
      <trkpt lat="47.42822" lon="6.70336">
        <ele>431</ele>
        <time>2016-02-28T10:32:08.000Z</time>
      </trkpt>
      <trkpt lat="47.42824" lon="6.70339">
        <ele>431</ele>
        <time>2016-02-28T10:32:09.000Z</time>
      </trkpt>
      <trkpt lat="47.42825" lon="6.70342">
        <ele>431</ele>
        <time>2016-02-28T10:32:10.000Z</time>
      </trkpt>
      <trkpt lat="47.42827" lon="6.70345">
        <ele>431</ele>
        <time>2016-02-28T10:32:11.000Z</time>
      </trkpt>
      <trkpt lat="47.42829" lon="6.70348">
        <ele>431</ele>
        <time>2016-02-28T10:32:12.000Z</time>
      </trkpt>
      <trkpt lat="47.4283" lon="6.70351">
        <ele>430</ele>
        <time>2016-02-28T10:32:13.000Z</time>
      </trkpt>
      <trkpt lat="47.42832" lon="6.70354">
        <ele>430</ele>
        <time>2016-02-28T10:32:14.000Z</time>
      </trkpt>
      <trkpt lat="47.42833" lon="6.70357">
        <ele>437</ele>
        <time>2016-02-28T10:32:15.000Z</time>
      </trkpt>
      <trkpt lat="47.42835" lon="6.7036">
        <ele>437</ele>
        <time>2016-02-28T10:32:16.000Z</time>
      </trkpt>
      <trkpt lat="47.42837" lon="6.70364">
        <ele>437</ele>
        <time>2016-02-28T10:32:17.000Z</time>
      </trkpt>
      <trkpt lat="47.4284" lon="6.70366">
        <ele>437</ele>
        <time>2016-02-28T10:32:18.000Z</time>
      </trkpt>
      <trkpt lat="47.42842" lon="6.70369">
        <ele>437</ele>
        <time>2016-02-28T10:32:19.000Z</time>
      </trkpt>
      <trkpt lat="47.42843" lon="6.70372">
        <ele>437</ele>
        <time>2016-02-28T10:32:20.000Z</time>
      </trkpt>
      <trkpt lat="47.42843" lon="6.70376">
        <ele>437</ele>
        <time>2016-02-28T10:32:21.000Z</time>
      </trkpt>
      <trkpt lat="47.42843" lon="6.7038">
        <ele>437</ele>
        <time>2016-02-28T10:32:22.000Z</time>
      </trkpt>
      <trkpt lat="47.42843" lon="6.70384">
        <ele>437</ele>
        <time>2016-02-28T10:32:23.000Z</time>
      </trkpt>
      <trkpt lat="47.42842" lon="6.70388">
        <ele>436</ele>
        <time>2016-02-28T10:32:24.000Z</time>
      </trkpt>
      <trkpt lat="47.42842" lon="6.70393">
        <ele>436</ele>
        <time>2016-02-28T10:32:25.000Z</time>
      </trkpt>
      <trkpt lat="47.42841" lon="6.70397">
        <ele>435</ele>
        <time>2016-02-28T10:32:26.000Z</time>
      </trkpt>
      <trkpt lat="47.42842" lon="6.704">
        <ele>435</ele>
        <time>2016-02-28T10:32:27.000Z</time>
      </trkpt>
      <trkpt lat="47.42843" lon="6.70404">
        <ele>434</ele>
        <time>2016-02-28T10:32:28.000Z</time>
      </trkpt>
      <trkpt lat="47.42844" lon="6.70407">
        <ele>434</ele>
        <time>2016-02-28T10:32:29.000Z</time>
      </trkpt>
      <trkpt lat="47.42845" lon="6.7041">
        <ele>434</ele>
        <time>2016-02-28T10:32:30.000Z</time>
      </trkpt>
      <trkpt lat="47.42845" lon="6.70413">
        <ele>434</ele>
        <time>2016-02-28T10:32:31.000Z</time>
      </trkpt>
      <trkpt lat="47.42846" lon="6.70416">
        <ele>434</ele>
        <time>2016-02-28T10:32:32.000Z</time>
      </trkpt>
      <trkpt lat="47.42846" lon="6.7042">
        <ele>433</ele>
        <time>2016-02-28T10:32:33.000Z</time>
      </trkpt>
      <trkpt lat="47.42847" lon="6.70423">
        <ele>433</ele>
        <time>2016-02-28T10:32:34.000Z</time>
      </trkpt>
      <trkpt lat="47.42847" lon="6.70427">
        <ele>434</ele>
        <time>2016-02-28T10:32:35.000Z</time>
      </trkpt>
      <trkpt lat="47.42848" lon="6.7043">
        <ele>434</ele>
        <time>2016-02-28T10:32:36.000Z</time>
      </trkpt>
      <trkpt lat="47.4285" lon="6.70432">
        <ele>434</ele>
        <time>2016-02-28T10:32:37.000Z</time>
      </trkpt>
      <trkpt lat="47.42853" lon="6.70437">
        <ele>435</ele>
        <time>2016-02-28T10:32:39.000Z</time>
      </trkpt>
      <trkpt lat="47.42854" lon="6.70439">
        <ele>435</ele>
        <time>2016-02-28T10:32:40.000Z</time>
      </trkpt>
      <trkpt lat="47.42855" lon="6.70444">
        <ele>435</ele>
        <time>2016-02-28T10:32:42.000Z</time>
      </trkpt>
      <trkpt lat="47.42856" lon="6.70447">
        <ele>435</ele>
        <time>2016-02-28T10:32:43.000Z</time>
      </trkpt>
      <trkpt lat="47.42856" lon="6.70452">
        <ele>436</ele>
        <time>2016-02-28T10:32:45.000Z</time>
      </trkpt>
      <trkpt lat="47.42856" lon="6.70455">
        <ele>436</ele>
        <time>2016-02-28T10:32:46.000Z</time>
      </trkpt>
      <trkpt lat="47.42855" lon="6.7046">
        <ele>436</ele>
        <time>2016-02-28T10:32:48.000Z</time>
      </trkpt>
      <trkpt lat="47.42855" lon="6.70462">
        <ele>436</ele>
        <time>2016-02-28T10:32:49.000Z</time>
      </trkpt>
      <trkpt lat="47.42854" lon="6.70467">
        <ele>436</ele>
        <time>2016-02-28T10:32:51.000Z</time>
      </trkpt>
      <trkpt lat="47.42853" lon="6.70469">
        <ele>436</ele>
        <time>2016-02-28T10:32:52.000Z</time>
      </trkpt>
      <trkpt lat="47.42849" lon="6.70471">
        <ele>436</ele>
        <time>2016-02-28T10:32:54.000Z</time>
      </trkpt>
      <trkpt lat="47.42848" lon="6.70472">
        <ele>435</ele>
        <time>2016-02-28T10:32:55.000Z</time>
      </trkpt>
      <trkpt lat="47.42845" lon="6.70476">
        <ele>435</ele>
        <time>2016-02-28T10:32:57.000Z</time>
      </trkpt>
      <trkpt lat="47.42843" lon="6.70479">
        <ele>435</ele>
        <time>2016-02-28T10:32:58.000Z</time>
      </trkpt>
      <trkpt lat="47.4284" lon="6.70483">
        <ele>435</ele>
        <time>2016-02-28T10:33:00.000Z</time>
      </trkpt>
      <trkpt lat="47.42839" lon="6.70485">
        <ele>435</ele>
        <time>2016-02-28T10:33:01.000Z</time>
      </trkpt>
      <trkpt lat="47.42836" lon="6.7049">
        <ele>435</ele>
        <time>2016-02-28T10:33:03.000Z</time>
      </trkpt>
      <trkpt lat="47.42835" lon="6.70492">
        <ele>435</ele>
        <time>2016-02-28T10:33:04.000Z</time>
      </trkpt>
      <trkpt lat="47.42832" lon="6.70496">
        <ele>433</ele>
        <time>2016-02-28T10:33:06.000Z</time>
      </trkpt>
      <trkpt lat="47.4283" lon="6.70499">
        <ele>433</ele>
        <time>2016-02-28T10:33:07.000Z</time>
      </trkpt>
      <trkpt lat="47.42828" lon="6.70504">
        <ele>435</ele>
        <time>2016-02-28T10:33:09.000Z</time>
      </trkpt>
      <trkpt lat="47.42827" lon="6.70506">
        <ele>435</ele>
        <time>2016-02-28T10:33:10.000Z</time>
      </trkpt>
      <trkpt lat="47.42825" lon="6.70509">
        <ele>435</ele>
        <time>2016-02-28T10:33:11.000Z</time>
      </trkpt>
      <trkpt lat="47.42824" lon="6.70512">
        <ele>435</ele>
        <time>2016-02-28T10:33:12.000Z</time>
      </trkpt>
      <trkpt lat="47.42822" lon="6.70517">
        <ele>435</ele>
        <time>2016-02-28T10:33:14.000Z</time>
      </trkpt>
      <trkpt lat="47.42821" lon="6.7052">
        <ele>436</ele>
        <time>2016-02-28T10:33:15.000Z</time>
      </trkpt>
      <trkpt lat="47.42819" lon="6.70525">
        <ele>436</ele>
        <time>2016-02-28T10:33:17.000Z</time>
      </trkpt>
      <trkpt lat="47.42818" lon="6.70527">
        <ele>436</ele>
        <time>2016-02-28T10:33:18.000Z</time>
      </trkpt>
      <trkpt lat="47.42819" lon="6.70532">
        <ele>436</ele>
        <time>2016-02-28T10:33:22.000Z</time>
      </trkpt>
      <trkpt lat="47.4282" lon="6.70534">
        <ele>436</ele>
        <time>2016-02-28T10:33:23.000Z</time>
      </trkpt>
      <trkpt lat="47.42822" lon="6.70538">
        <ele>436</ele>
        <time>2016-02-28T10:33:26.000Z</time>
      </trkpt>
      <trkpt lat="47.42823" lon="6.7054">
        <ele>436</ele>
        <time>2016-02-28T10:33:27.000Z</time>
      </trkpt>
      <trkpt lat="47.42824" lon="6.70544">
        <ele>437</ele>
        <time>2016-02-28T10:33:30.000Z</time>
      </trkpt>
      <trkpt lat="47.42825" lon="6.70546">
        <ele>437</ele>
        <time>2016-02-28T10:33:31.000Z</time>
      </trkpt>
      <trkpt lat="47.42826" lon="6.70551">
        <ele>437</ele>
        <time>2016-02-28T10:33:33.000Z</time>
      </trkpt>
      <trkpt lat="47.42826" lon="6.70554">
        <ele>437</ele>
        <time>2016-02-28T10:33:34.000Z</time>
      </trkpt>
      <trkpt lat="47.42828" lon="6.7056">
        <ele>437</ele>
        <time>2016-02-28T10:33:36.000Z</time>
      </trkpt>
      <trkpt lat="47.42829" lon="6.70562">
        <ele>437</ele>
        <time>2016-02-28T10:33:37.000Z</time>
      </trkpt>
      <trkpt lat="47.42831" lon="6.70567">
        <ele>437</ele>
        <time>2016-02-28T10:33:39.000Z</time>
      </trkpt>
      <trkpt lat="47.42832" lon="6.7057">
        <ele>438</ele>
        <time>2016-02-28T10:33:40.000Z</time>
      </trkpt>
      <trkpt lat="47.42834" lon="6.70573">
        <ele>438</ele>
        <time>2016-02-28T10:33:41.000Z</time>
      </trkpt>
      <trkpt lat="47.42835" lon="6.70576">
        <ele>438</ele>
        <time>2016-02-28T10:33:42.000Z</time>
      </trkpt>
      <trkpt lat="47.42836" lon="6.70579">
        <ele>438</ele>
        <time>2016-02-28T10:33:43.000Z</time>
      </trkpt>
      <trkpt lat="47.42838" lon="6.70582">
        <ele>438</ele>
        <time>2016-02-28T10:33:44.000Z</time>
      </trkpt>
      <trkpt lat="47.42839" lon="6.70585">
        <ele>438</ele>
        <time>2016-02-28T10:33:45.000Z</time>
      </trkpt>
      <trkpt lat="47.42841" lon="6.70588">
        <ele>438</ele>
        <time>2016-02-28T10:33:46.000Z</time>
      </trkpt>
      <trkpt lat="47.42842" lon="6.70591">
        <ele>438</ele>
        <time>2016-02-28T10:33:47.000Z</time>
      </trkpt>
      <trkpt lat="47.42844" lon="6.70594">
        <ele>439</ele>
        <time>2016-02-28T10:33:48.000Z</time>
      </trkpt>
      <trkpt lat="47.42845" lon="6.70597">
        <ele>439</ele>
        <time>2016-02-28T10:33:49.000Z</time>
      </trkpt>
      <trkpt lat="47.42847" lon="6.706">
        <ele>439</ele>
        <time>2016-02-28T10:33:50.000Z</time>
      </trkpt>
      <trkpt lat="47.42849" lon="6.70603">
        <ele>439</ele>
        <time>2016-02-28T10:33:51.000Z</time>
      </trkpt>
      <trkpt lat="47.4285" lon="6.70605">
        <ele>439</ele>
        <time>2016-02-28T10:33:52.000Z</time>
      </trkpt>
      <trkpt lat="47.42852" lon="6.70608">
        <ele>439</ele>
        <time>2016-02-28T10:33:53.000Z</time>
      </trkpt>
      <trkpt lat="47.42853" lon="6.70611">
        <ele>439</ele>
        <time>2016-02-28T10:33:54.000Z</time>
      </trkpt>
      <trkpt lat="47.42855" lon="6.70614">
        <ele>439</ele>
        <time>2016-02-28T10:33:55.000Z</time>
      </trkpt>
      <trkpt lat="47.42856" lon="6.70617">
        <ele>439</ele>
        <time>2016-02-28T10:33:56.000Z</time>
      </trkpt>
      <trkpt lat="47.42857" lon="6.7062">
        <ele>439</ele>
        <time>2016-02-28T10:33:57.000Z</time>
      </trkpt>
      <trkpt lat="47.42859" lon="6.70623">
        <ele>439</ele>
        <time>2016-02-28T10:33:58.000Z</time>
      </trkpt>
      <trkpt lat="47.4286" lon="6.70626">
        <ele>439</ele>
        <time>2016-02-28T10:33:59.000Z</time>
      </trkpt>
      <trkpt lat="47.42861" lon="6.70629">
        <ele>439</ele>
        <time>2016-02-28T10:34:00.000Z</time>
      </trkpt>
      <trkpt lat="47.42862" lon="6.70632">
        <ele>439</ele>
        <time>2016-02-28T10:34:01.000Z</time>
      </trkpt>
      <trkpt lat="47.42864" lon="6.70634">
        <ele>439</ele>
        <time>2016-02-28T10:34:02.000Z</time>
      </trkpt>
      <trkpt lat="47.42865" lon="6.70637">
        <ele>439</ele>
        <time>2016-02-28T10:34:03.000Z</time>
      </trkpt>
      <trkpt lat="47.42866" lon="6.7064">
        <ele>440</ele>
        <time>2016-02-28T10:34:04.000Z</time>
      </trkpt>
      <trkpt lat="47.42867" lon="6.70643">
        <ele>440</ele>
        <time>2016-02-28T10:34:05.000Z</time>
      </trkpt>
      <trkpt lat="47.42869" lon="6.70646">
        <ele>440</ele>
        <time>2016-02-28T10:34:06.000Z</time>
      </trkpt>
      <trkpt lat="47.4287" lon="6.70648">
        <ele>440</ele>
        <time>2016-02-28T10:34:07.000Z</time>
      </trkpt>
      <trkpt lat="47.42871" lon="6.70651">
        <ele>440</ele>
        <time>2016-02-28T10:34:08.000Z</time>
      </trkpt>
      <trkpt lat="47.42873" lon="6.70656">
        <ele>440</ele>
        <time>2016-02-28T10:34:10.000Z</time>
      </trkpt>
      <trkpt lat="47.42874" lon="6.7066">
        <ele>440</ele>
        <time>2016-02-28T10:34:11.000Z</time>
      </trkpt>
      <trkpt lat="47.42875" lon="6.70663">
        <ele>440</ele>
        <time>2016-02-28T10:34:12.000Z</time>
      </trkpt>
      <trkpt lat="47.42876" lon="6.70666">
        <ele>440</ele>
        <time>2016-02-28T10:34:13.000Z</time>
      </trkpt>
      <trkpt lat="47.42877" lon="6.70669">
        <ele>442</ele>
        <time>2016-02-28T10:34:14.000Z</time>
      </trkpt>
      <trkpt lat="47.42878" lon="6.70672">
        <ele>442</ele>
        <time>2016-02-28T10:34:15.000Z</time>
      </trkpt>
      <trkpt lat="47.42879" lon="6.70676">
        <ele>442</ele>
        <time>2016-02-28T10:34:16.000Z</time>
      </trkpt>
      <trkpt lat="47.4288" lon="6.70679">
        <ele>442</ele>
        <time>2016-02-28T10:34:17.000Z</time>
      </trkpt>
      <trkpt lat="47.42882" lon="6.70684">
        <ele>442</ele>
        <time>2016-02-28T10:34:19.000Z</time>
      </trkpt>
      <trkpt lat="47.42883" lon="6.70687">
        <ele>442</ele>
        <time>2016-02-28T10:34:20.000Z</time>
      </trkpt>
      <trkpt lat="47.42885" lon="6.70693">
        <ele>442</ele>
        <time>2016-02-28T10:34:22.000Z</time>
      </trkpt>
      <trkpt lat="47.42885" lon="6.70696">
        <ele>442</ele>
        <time>2016-02-28T10:34:23.000Z</time>
      </trkpt>
      <trkpt lat="47.42887" lon="6.70702">
        <ele>442</ele>
        <time>2016-02-28T10:34:25.000Z</time>
      </trkpt>
      <trkpt lat="47.42888" lon="6.70705">
        <ele>443</ele>
        <time>2016-02-28T10:34:26.000Z</time>
      </trkpt>
      <trkpt lat="47.42891" lon="6.7071">
        <ele>443</ele>
        <time>2016-02-28T10:34:28.000Z</time>
      </trkpt>
      <trkpt lat="47.42892" lon="6.70713">
        <ele>443</ele>
        <time>2016-02-28T10:34:29.000Z</time>
      </trkpt>
      <trkpt lat="47.42895" lon="6.70718">
        <ele>443</ele>
        <time>2016-02-28T10:34:31.000Z</time>
      </trkpt>
      <trkpt lat="47.42896" lon="6.7072">
        <ele>443</ele>
        <time>2016-02-28T10:34:32.000Z</time>
      </trkpt>
      <trkpt lat="47.42898" lon="6.70722">
        <ele>443</ele>
        <time>2016-02-28T10:34:33.000Z</time>
      </trkpt>
      <trkpt lat="47.42899" lon="6.70724">
        <ele>443</ele>
        <time>2016-02-28T10:34:34.000Z</time>
      </trkpt>
      <trkpt lat="47.42902" lon="6.70729">
        <ele>443</ele>
        <time>2016-02-28T10:34:36.000Z</time>
      </trkpt>
      <trkpt lat="47.42903" lon="6.70731">
        <ele>443</ele>
        <time>2016-02-28T10:34:37.000Z</time>
      </trkpt>
      <trkpt lat="47.42905" lon="6.70737">
        <ele>443</ele>
        <time>2016-02-28T10:34:39.000Z</time>
      </trkpt>
      <trkpt lat="47.42907" lon="6.70739">
        <ele>443</ele>
        <time>2016-02-28T10:34:40.000Z</time>
      </trkpt>
      <trkpt lat="47.42908" lon="6.70742">
        <ele>444</ele>
        <time>2016-02-28T10:34:41.000Z</time>
      </trkpt>
      <trkpt lat="47.4291" lon="6.70744">
        <ele>444</ele>
        <time>2016-02-28T10:34:42.000Z</time>
      </trkpt>
      <trkpt lat="47.42912" lon="6.70747">
        <ele>444</ele>
        <time>2016-02-28T10:34:43.000Z</time>
      </trkpt>
      <trkpt lat="47.42914" lon="6.70749">
        <ele>444</ele>
        <time>2016-02-28T10:34:44.000Z</time>
      </trkpt>
      <trkpt lat="47.42916" lon="6.70751">
        <ele>444</ele>
        <time>2016-02-28T10:34:45.000Z</time>
      </trkpt>
      <trkpt lat="47.42917" lon="6.70754">
        <ele>444</ele>
        <time>2016-02-28T10:34:46.000Z</time>
      </trkpt>
      <trkpt lat="47.42919" lon="6.70756">
        <ele>444</ele>
        <time>2016-02-28T10:34:47.000Z</time>
      </trkpt>
      <trkpt lat="47.42921" lon="6.70758">
        <ele>444</ele>
        <time>2016-02-28T10:34:48.000Z</time>
      </trkpt>
      <trkpt lat="47.42923" lon="6.70761">
        <ele>444</ele>
        <time>2016-02-28T10:34:49.000Z</time>
      </trkpt>
      <trkpt lat="47.42924" lon="6.70764">
        <ele>444</ele>
        <time>2016-02-28T10:34:50.000Z</time>
      </trkpt>
      <trkpt lat="47.42925" lon="6.7077">
        <ele>445</ele>
        <time>2016-02-28T10:34:52.000Z</time>
      </trkpt>
      <trkpt lat="47.42925" lon="6.70772">
        <ele>445</ele>
        <time>2016-02-28T10:34:53.000Z</time>
      </trkpt>
      <trkpt lat="47.42927" lon="6.70775">
        <ele>445</ele>
        <time>2016-02-28T10:36:32.000Z</time>
      </trkpt>
      <trkpt lat="47.42928" lon="6.70777">
        <ele>445</ele>
        <time>2016-02-28T10:36:33.000Z</time>
      </trkpt>
      <trkpt lat="47.42931" lon="6.70782">
        <ele>445</ele>
        <time>2016-02-28T10:36:35.000Z</time>
      </trkpt>
      <trkpt lat="47.42932" lon="6.70784">
        <ele>445</ele>
        <time>2016-02-28T10:36:36.000Z</time>
      </trkpt>
      <trkpt lat="47.42934" lon="6.70788">
        <ele>445</ele>
        <time>2016-02-28T10:36:37.000Z</time>
      </trkpt>
      <trkpt lat="47.42935" lon="6.70791">
        <ele>445</ele>
        <time>2016-02-28T10:36:38.000Z</time>
      </trkpt>
      <trkpt lat="47.42937" lon="6.70795">
        <ele>445</ele>
        <time>2016-02-28T10:36:39.000Z</time>
      </trkpt>
      <trkpt lat="47.42938" lon="6.70799">
        <ele>445</ele>
        <time>2016-02-28T10:36:40.000Z</time>
      </trkpt>
      <trkpt lat="47.4294" lon="6.70803">
        <ele>445</ele>
        <time>2016-02-28T10:36:41.000Z</time>
      </trkpt>
      <trkpt lat="47.42941" lon="6.70807">
        <ele>445</ele>
        <time>2016-02-28T10:36:42.000Z</time>
      </trkpt>
      <trkpt lat="47.42942" lon="6.70811">
        <ele>445</ele>
        <time>2016-02-28T10:36:43.000Z</time>
      </trkpt>
      <trkpt lat="47.42943" lon="6.70815">
        <ele>445</ele>
        <time>2016-02-28T10:36:44.000Z</time>
      </trkpt>
      <trkpt lat="47.42945" lon="6.7082">
        <ele>445</ele>
        <time>2016-02-28T10:36:45.000Z</time>
      </trkpt>
      <trkpt lat="47.42946" lon="6.70824">
        <ele>445</ele>
        <time>2016-02-28T10:36:46.000Z</time>
      </trkpt>
      <trkpt lat="47.42947" lon="6.70829">
        <ele>445</ele>
        <time>2016-02-28T10:36:47.000Z</time>
      </trkpt>
      <trkpt lat="47.42948" lon="6.70833">
        <ele>445</ele>
        <time>2016-02-28T10:36:48.000Z</time>
      </trkpt>
      <trkpt lat="47.42949" lon="6.70838">
        <ele>446</ele>
        <time>2016-02-28T10:36:49.000Z</time>
      </trkpt>
      <trkpt lat="47.42949" lon="6.70842">
        <ele>446</ele>
        <time>2016-02-28T10:36:50.000Z</time>
      </trkpt>
      <trkpt lat="47.4295" lon="6.70846">
        <ele>446</ele>
        <time>2016-02-28T10:36:51.000Z</time>
      </trkpt>
      <trkpt lat="47.4295" lon="6.70851">
        <ele>446</ele>
        <time>2016-02-28T10:36:52.000Z</time>
      </trkpt>
      <trkpt lat="47.42951" lon="6.70855">
        <ele>446</ele>
        <time>2016-02-28T10:36:53.000Z</time>
      </trkpt>
      <trkpt lat="47.42952" lon="6.7086">
        <ele>446</ele>
        <time>2016-02-28T10:36:54.000Z</time>
      </trkpt>
      <trkpt lat="47.42953" lon="6.70865">
        <ele>446</ele>
        <time>2016-02-28T10:36:55.000Z</time>
      </trkpt>
      <trkpt lat="47.42954" lon="6.7087">
        <ele>446</ele>
        <time>2016-02-28T10:36:56.000Z</time>
      </trkpt>
      <trkpt lat="47.42955" lon="6.70875">
        <ele>446</ele>
        <time>2016-02-28T10:36:57.000Z</time>
      </trkpt>
      <trkpt lat="47.42956" lon="6.7088">
        <ele>446</ele>
        <time>2016-02-28T10:36:58.000Z</time>
      </trkpt>
      <trkpt lat="47.42958" lon="6.70886">
        <ele>446</ele>
        <time>2016-02-28T10:36:59.000Z</time>
      </trkpt>
      <trkpt lat="47.42959" lon="6.70891">
        <ele>446</ele>
        <time>2016-02-28T10:37:00.000Z</time>
      </trkpt>
      <trkpt lat="47.4296" lon="6.70897">
        <ele>446</ele>
        <time>2016-02-28T10:37:01.000Z</time>
      </trkpt>
      <trkpt lat="47.42962" lon="6.70903">
        <ele>446</ele>
        <time>2016-02-28T10:37:02.000Z</time>
      </trkpt>
      <trkpt lat="47.42963" lon="6.70908">
        <ele>446</ele>
        <time>2016-02-28T10:37:03.000Z</time>
      </trkpt>
      <trkpt lat="47.42966" lon="6.70915">
        <ele>446</ele>
        <time>2016-02-28T10:37:04.000Z</time>
      </trkpt>
      <trkpt lat="47.42968" lon="6.70921">
        <ele>446</ele>
        <time>2016-02-28T10:37:05.000Z</time>
      </trkpt>
      <trkpt lat="47.42969" lon="6.70927">
        <ele>446</ele>
        <time>2016-02-28T10:37:06.000Z</time>
      </trkpt>
      <trkpt lat="47.42971" lon="6.70932">
        <ele>446</ele>
        <time>2016-02-28T10:37:07.000Z</time>
      </trkpt>
      <trkpt lat="47.42974" lon="6.70938">
        <ele>446</ele>
        <time>2016-02-28T10:37:08.000Z</time>
      </trkpt>
      <trkpt lat="47.42976" lon="6.70945">
        <ele>446</ele>
        <time>2016-02-28T10:37:09.000Z</time>
      </trkpt>
      <trkpt lat="47.42978" lon="6.70952">
        <ele>446</ele>
        <time>2016-02-28T10:37:10.000Z</time>
      </trkpt>
      <trkpt lat="47.42981" lon="6.70959">
        <ele>446</ele>
        <time>2016-02-28T10:37:11.000Z</time>
      </trkpt>
      <trkpt lat="47.42984" lon="6.70966">
        <ele>446</ele>
        <time>2016-02-28T10:37:12.000Z</time>
      </trkpt>
      <trkpt lat="47.42986" lon="6.70973">
        <ele>445</ele>
        <time>2016-02-28T10:37:13.000Z</time>
      </trkpt>
      <trkpt lat="47.42988" lon="6.7098">
        <ele>445</ele>
        <time>2016-02-28T10:37:14.000Z</time>
      </trkpt>
      <trkpt lat="47.4299" lon="6.70986">
        <ele>445</ele>
        <time>2016-02-28T10:37:15.000Z</time>
      </trkpt>
      <trkpt lat="47.42993" lon="6.70992">
        <ele>444</ele>
        <time>2016-02-28T10:37:16.000Z</time>
      </trkpt>
      <trkpt lat="47.42994" lon="6.70999">
        <ele>444</ele>
        <time>2016-02-28T10:37:17.000Z</time>
      </trkpt>
      <trkpt lat="47.42997" lon="6.71007">
        <ele>444</ele>
        <time>2016-02-28T10:37:18.000Z</time>
      </trkpt>
      <trkpt lat="47.43" lon="6.71012">
        <ele>444</ele>
        <time>2016-02-28T10:37:19.000Z</time>
      </trkpt>
      <trkpt lat="47.43002" lon="6.71018">
        <ele>443</ele>
        <time>2016-02-28T10:37:20.000Z</time>
      </trkpt>
      <trkpt lat="47.43005" lon="6.71025">
        <ele>443</ele>
        <time>2016-02-28T10:37:21.000Z</time>
      </trkpt>
      <trkpt lat="47.43007" lon="6.71031">
        <ele>443</ele>
        <time>2016-02-28T10:37:22.000Z</time>
      </trkpt>
      <trkpt lat="47.43009" lon="6.71038">
        <ele>443</ele>
        <time>2016-02-28T10:37:23.000Z</time>
      </trkpt>
      <trkpt lat="47.43012" lon="6.71046">
        <ele>442</ele>
        <time>2016-02-28T10:37:23.999Z</time>
      </trkpt>
      <trkpt lat="47.43015" lon="6.71052">
        <ele>442</ele>
        <time>2016-02-28T10:37:24.998Z</time>
      </trkpt>
      <trkpt lat="47.43019" lon="6.71057">
        <ele>442</ele>
        <time>2016-02-28T10:37:26.001Z</time>
      </trkpt>
      <trkpt lat="47.43021" lon="6.71064">
        <ele>442</ele>
        <time>2016-02-28T10:37:27.000Z</time>
      </trkpt>
      <trkpt lat="47.43023" lon="6.71069">
        <ele>442</ele>
        <time>2016-02-28T10:37:28.000Z</time>
      </trkpt>
      <trkpt lat="47.43027" lon="6.71075">
        <ele>442</ele>
        <time>2016-02-28T10:37:29.000Z</time>
      </trkpt>
      <trkpt lat="47.43028" lon="6.71082">
        <ele>442</ele>
        <time>2016-02-28T10:37:30.000Z</time>
      </trkpt>
      <trkpt lat="47.43031" lon="6.71088">
        <ele>443</ele>
        <time>2016-02-28T10:37:31.000Z</time>
      </trkpt>
      <trkpt lat="47.43034" lon="6.71092">
        <ele>443</ele>
        <time>2016-02-28T10:37:32.000Z</time>
      </trkpt>
      <trkpt lat="47.43036" lon="6.71098">
        <ele>444</ele>
        <time>2016-02-28T10:37:33.000Z</time>
      </trkpt>
      <trkpt lat="47.4304" lon="6.71105">
        <ele>444</ele>
        <time>2016-02-28T10:37:34.000Z</time>
      </trkpt>
      <trkpt lat="47.43042" lon="6.7111">
        <ele>444</ele>
        <time>2016-02-28T10:37:35.000Z</time>
      </trkpt>
      <trkpt lat="47.43045" lon="6.71116">
        <ele>444</ele>
        <time>2016-02-28T10:37:36.000Z</time>
      </trkpt>
      <trkpt lat="47.43048" lon="6.71122">
        <ele>444</ele>
        <time>2016-02-28T10:37:37.000Z</time>
      </trkpt>
      <trkpt lat="47.43051" lon="6.71126">
        <ele>444</ele>
        <time>2016-02-28T10:37:38.000Z</time>
      </trkpt>
      <trkpt lat="47.43054" lon="6.7113">
        <ele>444</ele>
        <time>2016-02-28T10:37:39.000Z</time>
      </trkpt>
      <trkpt lat="47.43056" lon="6.71134">
        <ele>445</ele>
        <time>2016-02-28T10:37:40.000Z</time>
      </trkpt>
      <trkpt lat="47.43059" lon="6.71138">
        <ele>445</ele>
        <time>2016-02-28T10:37:41.000Z</time>
      </trkpt>
      <trkpt lat="47.43064" lon="6.71142">
        <ele>445</ele>
        <time>2016-02-28T10:37:42.000Z</time>
      </trkpt>
      <trkpt lat="47.43066" lon="6.71147">
        <ele>445</ele>
        <time>2016-02-28T10:37:43.000Z</time>
      </trkpt>
      <trkpt lat="47.43069" lon="6.71152">
        <ele>445</ele>
        <time>2016-02-28T10:37:44.000Z</time>
      </trkpt>
      <trkpt lat="47.43074" lon="6.71157">
        <ele>446</ele>
        <time>2016-02-28T10:37:45.000Z</time>
      </trkpt>
      <trkpt lat="47.43075" lon="6.71161">
        <ele>446</ele>
        <time>2016-02-28T10:37:46.000Z</time>
      </trkpt>
      <trkpt lat="47.43078" lon="6.71164">
        <ele>446</ele>
        <time>2016-02-28T10:37:47.000Z</time>
      </trkpt>
      <trkpt lat="47.43081" lon="6.71169">
        <ele>447</ele>
        <time>2016-02-28T10:37:48.000Z</time>
      </trkpt>
      <trkpt lat="47.43084" lon="6.71173">
        <ele>447</ele>
        <time>2016-02-28T10:37:49.000Z</time>
      </trkpt>
      <trkpt lat="47.43086" lon="6.71177">
        <ele>447</ele>
        <time>2016-02-28T10:37:50.000Z</time>
      </trkpt>
      <trkpt lat="47.4309" lon="6.71183">
        <ele>448</ele>
        <time>2016-02-28T10:37:51.000Z</time>
      </trkpt>
      <trkpt lat="47.43093" lon="6.71186">
        <ele>448</ele>
        <time>2016-02-28T10:37:52.000Z</time>
      </trkpt>
      <trkpt lat="47.43095" lon="6.71192">
        <ele>448</ele>
        <time>2016-02-28T10:37:53.000Z</time>
      </trkpt>
      <trkpt lat="47.43098" lon="6.71196">
        <ele>448</ele>
        <time>2016-02-28T10:37:54.000Z</time>
      </trkpt>
      <trkpt lat="47.43101" lon="6.71201">
        <ele>448</ele>
        <time>2016-02-28T10:37:55.000Z</time>
      </trkpt>
      <trkpt lat="47.43102" lon="6.71204">
        <ele>448</ele>
        <time>2016-02-28T10:37:56.000Z</time>
      </trkpt>
      <trkpt lat="47.43104" lon="6.71206">
        <ele>448</ele>
        <time>2016-02-28T10:37:57.000Z</time>
      </trkpt>
      <trkpt lat="47.43105" lon="6.71209">
        <ele>448</ele>
        <time>2016-02-28T10:37:58.000Z</time>
      </trkpt>
      <trkpt lat="47.43107" lon="6.71213">
        <ele>448</ele>
        <time>2016-02-28T10:37:59.000Z</time>
      </trkpt>
      <trkpt lat="47.43109" lon="6.71215">
        <ele>448</ele>
        <time>2016-02-28T10:38:00.000Z</time>
      </trkpt>
      <trkpt lat="47.43111" lon="6.71218">
        <ele>448</ele>
        <time>2016-02-28T10:38:01.000Z</time>
      </trkpt>
      <trkpt lat="47.43114" lon="6.7122">
        <ele>448</ele>
        <time>2016-02-28T10:38:02.000Z</time>
      </trkpt>
      <trkpt lat="47.43116" lon="6.71223">
        <ele>448</ele>
        <time>2016-02-28T10:38:03.000Z</time>
      </trkpt>
      <trkpt lat="47.43118" lon="6.71225">
        <ele>448</ele>
        <time>2016-02-28T10:38:04.000Z</time>
      </trkpt>
      <trkpt lat="47.43121" lon="6.71228">
        <ele>449</ele>
        <time>2016-02-28T10:38:05.000Z</time>
      </trkpt>
      <trkpt lat="47.43123" lon="6.7123">
        <ele>449</ele>
        <time>2016-02-28T10:38:06.000Z</time>
      </trkpt>
      <trkpt lat="47.43126" lon="6.71233">
        <ele>449</ele>
        <time>2016-02-28T10:38:06.999Z</time>
      </trkpt>
      <trkpt lat="47.43128" lon="6.71236">
        <ele>449</ele>
        <time>2016-02-28T10:38:08.000Z</time>
      </trkpt>
      <trkpt lat="47.43131" lon="6.71239">
        <ele>449</ele>
        <time>2016-02-28T10:38:09.000Z</time>
      </trkpt>
      <trkpt lat="47.43133" lon="6.71242">
        <ele>449</ele>
        <time>2016-02-28T10:38:10.000Z</time>
      </trkpt>
      <trkpt lat="47.43136" lon="6.71245">
        <ele>449</ele>
        <time>2016-02-28T10:38:11.000Z</time>
      </trkpt>
      <trkpt lat="47.43139" lon="6.71247">
        <ele>449</ele>
        <time>2016-02-28T10:38:12.000Z</time>
      </trkpt>
      <trkpt lat="47.43141" lon="6.7125">
        <ele>451</ele>
        <time>2016-02-28T10:38:13.000Z</time>
      </trkpt>
      <trkpt lat="47.43144" lon="6.71253">
        <ele>451</ele>
        <time>2016-02-28T10:38:14.000Z</time>
      </trkpt>
      <trkpt lat="47.43147" lon="6.71256">
        <ele>451</ele>
        <time>2016-02-28T10:38:15.000Z</time>
      </trkpt>
      <trkpt lat="47.43149" lon="6.71259">
        <ele>451</ele>
        <time>2016-02-28T10:38:16.000Z</time>
      </trkpt>
      <trkpt lat="47.43151" lon="6.71263">
        <ele>451</ele>
        <time>2016-02-28T10:38:17.000Z</time>
      </trkpt>
      <trkpt lat="47.43154" lon="6.71266">
        <ele>451</ele>
        <time>2016-02-28T10:38:18.000Z</time>
      </trkpt>
      <trkpt lat="47.43156" lon="6.7127">
        <ele>451</ele>
        <time>2016-02-28T10:38:19.000Z</time>
      </trkpt>
      <trkpt lat="47.43158" lon="6.71273">
        <ele>451</ele>
        <time>2016-02-28T10:38:20.000Z</time>
      </trkpt>
      <trkpt lat="47.4316" lon="6.71277">
        <ele>451</ele>
        <time>2016-02-28T10:38:21.000Z</time>
      </trkpt>
      <trkpt lat="47.43163" lon="6.7128">
        <ele>451</ele>
        <time>2016-02-28T10:38:22.000Z</time>
      </trkpt>
      <trkpt lat="47.43165" lon="6.71284">
        <ele>452</ele>
        <time>2016-02-28T10:38:23.000Z</time>
      </trkpt>
      <trkpt lat="47.43167" lon="6.71288">
        <ele>451</ele>
        <time>2016-02-28T10:38:23.999Z</time>
      </trkpt>
      <trkpt lat="47.43169" lon="6.71292">
        <ele>451</ele>
        <time>2016-02-28T10:38:25.000Z</time>
      </trkpt>
      <trkpt lat="47.43171" lon="6.71297">
        <ele>451</ele>
        <time>2016-02-28T10:38:26.000Z</time>
      </trkpt>
      <trkpt lat="47.43173" lon="6.71301">
        <ele>451</ele>
        <time>2016-02-28T10:38:27.001Z</time>
      </trkpt>
      <trkpt lat="47.43175" lon="6.71304">
        <ele>451</ele>
        <time>2016-02-28T10:38:28.000Z</time>
      </trkpt>
      <trkpt lat="47.43177" lon="6.71308">
        <ele>451</ele>
        <time>2016-02-28T10:38:29.000Z</time>
      </trkpt>
      <trkpt lat="47.43179" lon="6.71311">
        <ele>452</ele>
        <time>2016-02-28T10:38:30.000Z</time>
      </trkpt>
      <trkpt lat="47.43181" lon="6.71315">
        <ele>452</ele>
        <time>2016-02-28T10:38:31.000Z</time>
      </trkpt>
      <trkpt lat="47.43183" lon="6.71319">
        <ele>452</ele>
        <time>2016-02-28T10:38:32.000Z</time>
      </trkpt>
      <trkpt lat="47.43185" lon="6.71323">
        <ele>452</ele>
        <time>2016-02-28T10:38:32.999Z</time>
      </trkpt>
      <trkpt lat="47.43186" lon="6.71327">
        <ele>452</ele>
        <time>2016-02-28T10:38:34.000Z</time>
      </trkpt>
      <trkpt lat="47.43188" lon="6.71331">
        <ele>452</ele>
        <time>2016-02-28T10:38:34.999Z</time>
      </trkpt>
      <trkpt lat="47.43189" lon="6.71336">
        <ele>454</ele>
        <time>2016-02-28T10:38:36.000Z</time>
      </trkpt>
      <trkpt lat="47.43191" lon="6.7134">
        <ele>454</ele>
        <time>2016-02-28T10:38:37.000Z</time>
      </trkpt>
      <trkpt lat="47.43193" lon="6.71344">
        <ele>454</ele>
        <time>2016-02-28T10:38:38.000Z</time>
      </trkpt>
      <trkpt lat="47.43195" lon="6.71347">
        <ele>454</ele>
        <time>2016-02-28T10:38:39.000Z</time>
      </trkpt>
      <trkpt lat="47.43196" lon="6.7135">
        <ele>454</ele>
        <time>2016-02-28T10:38:40.000Z</time>
      </trkpt>
      <trkpt lat="47.43198" lon="6.71352">
        <ele>454</ele>
        <time>2016-02-28T10:38:41.000Z</time>
      </trkpt>
      <trkpt lat="47.43199" lon="6.71356">
        <ele>454</ele>
        <time>2016-02-28T10:38:42.000Z</time>
      </trkpt>
      <trkpt lat="47.43201" lon="6.7136">
        <ele>454</ele>
        <time>2016-02-28T10:38:43.000Z</time>
      </trkpt>
      <trkpt lat="47.43202" lon="6.71363">
        <ele>454</ele>
        <time>2016-02-28T10:38:44.000Z</time>
      </trkpt>
      <trkpt lat="47.43205" lon="6.71369">
        <ele>454</ele>
        <time>2016-02-28T10:38:45.000Z</time>
      </trkpt>
      <trkpt lat="47.43206" lon="6.71374">
        <ele>454</ele>
        <time>2016-02-28T10:38:46.000Z</time>
      </trkpt>
      <trkpt lat="47.43208" lon="6.71379">
        <ele>454</ele>
        <time>2016-02-28T10:38:47.000Z</time>
      </trkpt>
      <trkpt lat="47.4321" lon="6.71384">
        <ele>454</ele>
        <time>2016-02-28T10:38:48.000Z</time>
      </trkpt>
      <trkpt lat="47.43211" lon="6.71389">
        <ele>454</ele>
        <time>2016-02-28T10:38:49.000Z</time>
      </trkpt>
      <trkpt lat="47.43213" lon="6.71394">
        <ele>454</ele>
        <time>2016-02-28T10:38:50.000Z</time>
      </trkpt>
      <trkpt lat="47.43215" lon="6.71399">
        <ele>454</ele>
        <time>2016-02-28T10:38:51.000Z</time>
      </trkpt>
      <trkpt lat="47.43217" lon="6.71404">
        <ele>454</ele>
        <time>2016-02-28T10:38:52.000Z</time>
      </trkpt>
      <trkpt lat="47.43219" lon="6.71408">
        <ele>454</ele>
        <time>2016-02-28T10:38:53.000Z</time>
      </trkpt>
      <trkpt lat="47.4322" lon="6.71413">
        <ele>454</ele>
        <time>2016-02-28T10:38:54.000Z</time>
      </trkpt>
      <trkpt lat="47.43221" lon="6.71417">
        <ele>455</ele>
        <time>2016-02-28T10:38:55.000Z</time>
      </trkpt>
      <trkpt lat="47.43223" lon="6.71421">
        <ele>455</ele>
        <time>2016-02-28T10:38:56.000Z</time>
      </trkpt>
      <trkpt lat="47.43224" lon="6.71425">
        <ele>455</ele>
        <time>2016-02-28T10:38:57.000Z</time>
      </trkpt>
      <trkpt lat="47.43226" lon="6.71429">
        <ele>455</ele>
        <time>2016-02-28T10:38:58.000Z</time>
      </trkpt>
      <trkpt lat="47.43228" lon="6.71434">
        <ele>455</ele>
        <time>2016-02-28T10:38:59.000Z</time>
      </trkpt>
      <trkpt lat="47.4323" lon="6.71438">
        <ele>455</ele>
        <time>2016-02-28T10:39:00.001Z</time>
      </trkpt>
      <trkpt lat="47.43232" lon="6.71441">
        <ele>455</ele>
        <time>2016-02-28T10:39:01.000Z</time>
      </trkpt>
      <trkpt lat="47.43234" lon="6.71444">
        <ele>455</ele>
        <time>2016-02-28T10:39:02.000Z</time>
      </trkpt>
      <trkpt lat="47.43237" lon="6.71447">
        <ele>455</ele>
        <time>2016-02-28T10:39:03.000Z</time>
      </trkpt>
      <trkpt lat="47.43239" lon="6.71451">
        <ele>455</ele>
        <time>2016-02-28T10:39:04.000Z</time>
      </trkpt>
      <trkpt lat="47.43241" lon="6.71454">
        <ele>455</ele>
        <time>2016-02-28T10:39:05.000Z</time>
      </trkpt>
      <trkpt lat="47.43244" lon="6.71459">
        <ele>455</ele>
        <time>2016-02-28T10:39:06.000Z</time>
      </trkpt>
      <trkpt lat="47.43247" lon="6.71464">
        <ele>455</ele>
        <time>2016-02-28T10:39:07.000Z</time>
      </trkpt>
      <trkpt lat="47.4325" lon="6.71468">
        <ele>454</ele>
        <time>2016-02-28T10:39:08.000Z</time>
      </trkpt>
      <trkpt lat="47.43253" lon="6.71472">
        <ele>453</ele>
        <time>2016-02-28T10:39:09.000Z</time>
      </trkpt>
      <trkpt lat="47.43256" lon="6.71476">
        <ele>453</ele>
        <time>2016-02-28T10:39:10.000Z</time>
      </trkpt>
      <trkpt lat="47.4326" lon="6.71482">
        <ele>453</ele>
        <time>2016-02-28T10:39:11.000Z</time>
      </trkpt>
      <trkpt lat="47.43263" lon="6.71487">
        <ele>453</ele>
        <time>2016-02-28T10:39:12.000Z</time>
      </trkpt>
      <trkpt lat="47.43267" lon="6.71492">
        <ele>453</ele>
        <time>2016-02-28T10:39:13.000Z</time>
      </trkpt>
      <trkpt lat="47.43271" lon="6.71497">
        <ele>453</ele>
        <time>2016-02-28T10:39:14.000Z</time>
      </trkpt>
      <trkpt lat="47.43275" lon="6.71503">
        <ele>453</ele>
        <time>2016-02-28T10:39:15.000Z</time>
      </trkpt>
      <trkpt lat="47.4328" lon="6.71509">
        <ele>453</ele>
        <time>2016-02-28T10:39:15.999Z</time>
      </trkpt>
      <trkpt lat="47.43288" lon="6.71511">
        <ele>453</ele>
        <time>2016-02-28T10:39:17.001Z</time>
      </trkpt>
      <trkpt lat="47.43293" lon="6.71517">
        <ele>452</ele>
        <time>2016-02-28T10:39:18.000Z</time>
      </trkpt>
      <trkpt lat="47.43298" lon="6.71524">
        <ele>452</ele>
        <time>2016-02-28T10:39:19.000Z</time>
      </trkpt>
      <trkpt lat="47.43303" lon="6.71533">
        <ele>452</ele>
        <time>2016-02-28T10:39:20.000Z</time>
      </trkpt>
      <trkpt lat="47.43309" lon="6.71539">
        <ele>452</ele>
        <time>2016-02-28T10:39:21.000Z</time>
      </trkpt>
      <trkpt lat="47.43315" lon="6.71545">
        <ele>452</ele>
        <time>2016-02-28T10:39:22.000Z</time>
      </trkpt>
      <trkpt lat="47.43321" lon="6.71552">
        <ele>451</ele>
        <time>2016-02-28T10:39:23.000Z</time>
      </trkpt>
      <trkpt lat="47.43326" lon="6.7156">
        <ele>451</ele>
        <time>2016-02-28T10:39:24.000Z</time>
      </trkpt>
      <trkpt lat="47.43331" lon="6.71567">
        <ele>450</ele>
        <time>2016-02-28T10:39:25.000Z</time>
      </trkpt>
      <trkpt lat="47.43337" lon="6.71575">
        <ele>448</ele>
        <time>2016-02-28T10:39:26.000Z</time>
      </trkpt>
      <trkpt lat="47.43342" lon="6.71581">
        <ele>448</ele>
        <time>2016-02-28T10:39:27.000Z</time>
      </trkpt>
      <trkpt lat="47.43346" lon="6.71589">
        <ele>447</ele>
        <time>2016-02-28T10:39:28.000Z</time>
      </trkpt>
      <trkpt lat="47.43351" lon="6.71597">
        <ele>447</ele>
        <time>2016-02-28T10:39:29.000Z</time>
      </trkpt>
      <trkpt lat="47.43356" lon="6.71604">
        <ele>447</ele>
        <time>2016-02-28T10:39:30.000Z</time>
      </trkpt>
      <trkpt lat="47.43361" lon="6.7161">
        <ele>447</ele>
        <time>2016-02-28T10:39:31.000Z</time>
      </trkpt>
      <trkpt lat="47.43365" lon="6.71617">
        <ele>447</ele>
        <time>2016-02-28T10:39:32.000Z</time>
      </trkpt>
      <trkpt lat="47.43369" lon="6.71625">
        <ele>447</ele>
        <time>2016-02-28T10:39:33.000Z</time>
      </trkpt>
      <trkpt lat="47.43375" lon="6.71633">
        <ele>447</ele>
        <time>2016-02-28T10:39:34.000Z</time>
      </trkpt>
      <trkpt lat="47.4338" lon="6.7164">
        <ele>446</ele>
        <time>2016-02-28T10:39:35.001Z</time>
      </trkpt>
      <trkpt lat="47.43384" lon="6.71647">
        <ele>446</ele>
        <time>2016-02-28T10:39:36.000Z</time>
      </trkpt>
      <trkpt lat="47.43388" lon="6.71655">
        <ele>446</ele>
        <time>2016-02-28T10:39:37.000Z</time>
      </trkpt>
      <trkpt lat="47.43392" lon="6.71663">
        <ele>445</ele>
        <time>2016-02-28T10:39:38.000Z</time>
      </trkpt>
      <trkpt lat="47.43397" lon="6.7167">
        <ele>446</ele>
        <time>2016-02-28T10:39:39.000Z</time>
      </trkpt>
      <trkpt lat="47.43401" lon="6.71677">
        <ele>446</ele>
        <time>2016-02-28T10:39:40.000Z</time>
      </trkpt>
      <trkpt lat="47.43405" lon="6.71684">
        <ele>446</ele>
        <time>2016-02-28T10:39:41.000Z</time>
      </trkpt>
      <trkpt lat="47.43409" lon="6.71692">
        <ele>446</ele>
        <time>2016-02-28T10:39:42.000Z</time>
      </trkpt>
      <trkpt lat="47.43414" lon="6.71699">
        <ele>446</ele>
        <time>2016-02-28T10:39:43.000Z</time>
      </trkpt>
      <trkpt lat="47.43417" lon="6.71706">
        <ele>443</ele>
        <time>2016-02-28T10:39:44.000Z</time>
      </trkpt>
      <trkpt lat="47.43422" lon="6.71713">
        <ele>443</ele>
        <time>2016-02-28T10:39:45.000Z</time>
      </trkpt>
      <trkpt lat="47.43426" lon="6.7172">
        <ele>443</ele>
        <time>2016-02-28T10:39:46.000Z</time>
      </trkpt>
      <trkpt lat="47.43429" lon="6.71728">
        <ele>443</ele>
        <time>2016-02-28T10:39:47.000Z</time>
      </trkpt>
      <trkpt lat="47.43432" lon="6.71736">
        <ele>444</ele>
        <time>2016-02-28T10:39:48.000Z</time>
      </trkpt>
      <trkpt lat="47.43436" lon="6.71744">
        <ele>444</ele>
        <time>2016-02-28T10:39:49.000Z</time>
      </trkpt>
      <trkpt lat="47.43439" lon="6.71751">
        <ele>444</ele>
        <time>2016-02-28T10:39:50.000Z</time>
      </trkpt>
      <trkpt lat="47.43442" lon="6.71758">
        <ele>444</ele>
        <time>2016-02-28T10:39:51.000Z</time>
      </trkpt>
      <trkpt lat="47.43444" lon="6.71765">
        <ele>444</ele>
        <time>2016-02-28T10:39:52.000Z</time>
      </trkpt>
      <trkpt lat="47.43447" lon="6.71772">
        <ele>444</ele>
        <time>2016-02-28T10:39:53.000Z</time>
      </trkpt>
      <trkpt lat="47.43449" lon="6.71779">
        <ele>444</ele>
        <time>2016-02-28T10:39:54.000Z</time>
      </trkpt>
      <trkpt lat="47.43451" lon="6.71786">
        <ele>444</ele>
        <time>2016-02-28T10:39:55.000Z</time>
      </trkpt>
      <trkpt lat="47.43453" lon="6.71792">
        <ele>444</ele>
        <time>2016-02-28T10:39:55.999Z</time>
      </trkpt>
      <trkpt lat="47.43455" lon="6.718">
        <ele>444</ele>
        <time>2016-02-28T10:39:57.000Z</time>
      </trkpt>
      <trkpt lat="47.43456" lon="6.71807">
        <ele>444</ele>
        <time>2016-02-28T10:39:58.000Z</time>
      </trkpt>
      <trkpt lat="47.43458" lon="6.71813">
        <ele>444</ele>
        <time>2016-02-28T10:39:59.000Z</time>
      </trkpt>
      <trkpt lat="47.43459" lon="6.7182">
        <ele>444</ele>
        <time>2016-02-28T10:40:00.000Z</time>
      </trkpt>
      <trkpt lat="47.43458" lon="6.71827">
        <ele>444</ele>
        <time>2016-02-28T10:40:01.000Z</time>
      </trkpt>
      <trkpt lat="47.4346" lon="6.71833">
        <ele>444</ele>
        <time>2016-02-28T10:40:02.000Z</time>
      </trkpt>
      <trkpt lat="47.43461" lon="6.71839">
        <ele>446</ele>
        <time>2016-02-28T10:40:03.000Z</time>
      </trkpt>
      <trkpt lat="47.43463" lon="6.71846">
        <ele>446</ele>
        <time>2016-02-28T10:40:04.000Z</time>
      </trkpt>
      <trkpt lat="47.43466" lon="6.71851">
        <ele>446</ele>
        <time>2016-02-28T10:40:05.000Z</time>
      </trkpt>
      <trkpt lat="47.43466" lon="6.71858">
        <ele>446</ele>
        <time>2016-02-28T10:40:06.000Z</time>
      </trkpt>
      <trkpt lat="47.43466" lon="6.71864">
        <ele>447</ele>
        <time>2016-02-28T10:40:07.000Z</time>
      </trkpt>
      <trkpt lat="47.43467" lon="6.7187">
        <ele>447</ele>
        <time>2016-02-28T10:40:07.998Z</time>
      </trkpt>
      <trkpt lat="47.43468" lon="6.71876">
        <ele>447</ele>
        <time>2016-02-28T10:40:09.000Z</time>
      </trkpt>
      <trkpt lat="47.4347" lon="6.71881">
        <ele>447</ele>
        <time>2016-02-28T10:40:10.000Z</time>
      </trkpt>
      <trkpt lat="47.43471" lon="6.71887">
        <ele>447</ele>
        <time>2016-02-28T10:40:11.000Z</time>
      </trkpt>
      <trkpt lat="47.43473" lon="6.71893">
        <ele>447</ele>
        <time>2016-02-28T10:40:12.000Z</time>
      </trkpt>
      <trkpt lat="47.43475" lon="6.71899">
        <ele>447</ele>
        <time>2016-02-28T10:40:13.001Z</time>
      </trkpt>
      <trkpt lat="47.43477" lon="6.71904">
        <ele>447</ele>
        <time>2016-02-28T10:40:14.000Z</time>
      </trkpt>
      <trkpt lat="47.43479" lon="6.7191">
        <ele>447</ele>
        <time>2016-02-28T10:40:15.000Z</time>
      </trkpt>
      <trkpt lat="47.43481" lon="6.71916">
        <ele>447</ele>
        <time>2016-02-28T10:40:16.000Z</time>
      </trkpt>
      <trkpt lat="47.43482" lon="6.71921">
        <ele>449</ele>
        <time>2016-02-28T10:40:17.000Z</time>
      </trkpt>
      <trkpt lat="47.43483" lon="6.71927">
        <ele>449</ele>
        <time>2016-02-28T10:40:18.000Z</time>
      </trkpt>
      <trkpt lat="47.43484" lon="6.71933">
        <ele>449</ele>
        <time>2016-02-28T10:40:18.999Z</time>
      </trkpt>
      <trkpt lat="47.43486" lon="6.71938">
        <ele>450</ele>
        <time>2016-02-28T10:40:20.000Z</time>
      </trkpt>
      <trkpt lat="47.43488" lon="6.71943">
        <ele>450</ele>
        <time>2016-02-28T10:40:21.000Z</time>
      </trkpt>
      <trkpt lat="47.43489" lon="6.71948">
        <ele>450</ele>
        <time>2016-02-28T10:40:22.000Z</time>
      </trkpt>
      <trkpt lat="47.43491" lon="6.71953">
        <ele>450</ele>
        <time>2016-02-28T10:40:23.001Z</time>
      </trkpt>
      <trkpt lat="47.43492" lon="6.71957">
        <ele>450</ele>
        <time>2016-02-28T10:40:24.000Z</time>
      </trkpt>
      <trkpt lat="47.43492" lon="6.71964">
        <ele>451</ele>
        <time>2016-02-28T10:40:25.000Z</time>
      </trkpt>
      <trkpt lat="47.43494" lon="6.71969">
        <ele>451</ele>
        <time>2016-02-28T10:40:26.000Z</time>
      </trkpt>
      <trkpt lat="47.43494" lon="6.71974">
        <ele>451</ele>
        <time>2016-02-28T10:40:27.000Z</time>
      </trkpt>
      <trkpt lat="47.43495" lon="6.71979">
        <ele>451</ele>
        <time>2016-02-28T10:40:28.000Z</time>
      </trkpt>
      <trkpt lat="47.43495" lon="6.71983">
        <ele>451</ele>
        <time>2016-02-28T10:40:29.000Z</time>
      </trkpt>
      <trkpt lat="47.43496" lon="6.71989">
        <ele>451</ele>
        <time>2016-02-28T10:40:30.000Z</time>
      </trkpt>
      <trkpt lat="47.43498" lon="6.71992">
        <ele>451</ele>
        <time>2016-02-28T10:40:31.000Z</time>
      </trkpt>
      <trkpt lat="47.43499" lon="6.71995">
        <ele>451</ele>
        <time>2016-02-28T10:40:32.000Z</time>
      </trkpt>
      <trkpt lat="47.435" lon="6.71998">
        <ele>451</ele>
        <time>2016-02-28T10:40:33.000Z</time>
      </trkpt>
      <trkpt lat="47.43501" lon="6.72002">
        <ele>451</ele>
        <time>2016-02-28T10:40:34.000Z</time>
      </trkpt>
      <trkpt lat="47.43502" lon="6.72007">
        <ele>451</ele>
        <time>2016-02-28T10:40:35.000Z</time>
      </trkpt>
      <trkpt lat="47.43503" lon="6.7201">
        <ele>451</ele>
        <time>2016-02-28T10:40:36.000Z</time>
      </trkpt>
      <trkpt lat="47.43504" lon="6.72014">
        <ele>451</ele>
        <time>2016-02-28T10:40:37.000Z</time>
      </trkpt>
      <trkpt lat="47.43505" lon="6.72017">
        <ele>451</ele>
        <time>2016-02-28T10:40:38.000Z</time>
      </trkpt>
      <trkpt lat="47.43505" lon="6.7202">
        <ele>451</ele>
        <time>2016-02-28T10:40:39.000Z</time>
      </trkpt>
      <trkpt lat="47.43507" lon="6.72023">
        <ele>451</ele>
        <time>2016-02-28T10:40:40.000Z</time>
      </trkpt>
      <trkpt lat="47.43508" lon="6.72027">
        <ele>451</ele>
        <time>2016-02-28T10:40:41.000Z</time>
      </trkpt>
      <trkpt lat="47.43509" lon="6.72031">
        <ele>451</ele>
        <time>2016-02-28T10:40:42.000Z</time>
      </trkpt>
      <trkpt lat="47.43511" lon="6.72034">
        <ele>451</ele>
        <time>2016-02-28T10:40:43.000Z</time>
      </trkpt>
      <trkpt lat="47.43512" lon="6.72037">
        <ele>451</ele>
        <time>2016-02-28T10:40:44.000Z</time>
      </trkpt>
      <trkpt lat="47.43513" lon="6.7204">
        <ele>451</ele>
        <time>2016-02-28T10:40:44.999Z</time>
      </trkpt>
      <trkpt lat="47.43514" lon="6.72044">
        <ele>451</ele>
        <time>2016-02-28T10:40:46.000Z</time>
      </trkpt>
      <trkpt lat="47.43516" lon="6.72048">
        <ele>452</ele>
        <time>2016-02-28T10:40:47.000Z</time>
      </trkpt>
      <trkpt lat="47.43517" lon="6.72051">
        <ele>452</ele>
        <time>2016-02-28T10:40:48.000Z</time>
      </trkpt>
      <trkpt lat="47.43518" lon="6.72056">
        <ele>452</ele>
        <time>2016-02-28T10:40:49.000Z</time>
      </trkpt>
      <trkpt lat="47.4352" lon="6.7206">
        <ele>452</ele>
        <time>2016-02-28T10:40:50.000Z</time>
      </trkpt>
      <trkpt lat="47.43521" lon="6.72063">
        <ele>452</ele>
        <time>2016-02-28T10:40:51.000Z</time>
      </trkpt>
      <trkpt lat="47.43523" lon="6.72067">
        <ele>452</ele>
        <time>2016-02-28T10:40:52.000Z</time>
      </trkpt>
      <trkpt lat="47.43524" lon="6.72071">
        <ele>452</ele>
        <time>2016-02-28T10:40:53.000Z</time>
      </trkpt>
      <trkpt lat="47.43526" lon="6.72075">
        <ele>452</ele>
        <time>2016-02-28T10:40:54.000Z</time>
      </trkpt>
      <trkpt lat="47.43528" lon="6.72079">
        <ele>452</ele>
        <time>2016-02-28T10:40:55.000Z</time>
      </trkpt>
      <trkpt lat="47.4353" lon="6.72083">
        <ele>452</ele>
        <time>2016-02-28T10:40:56.000Z</time>
      </trkpt>
      <trkpt lat="47.43532" lon="6.72087">
        <ele>454</ele>
        <time>2016-02-28T10:40:57.000Z</time>
      </trkpt>
      <trkpt lat="47.43534" lon="6.72091">
        <ele>454</ele>
        <time>2016-02-28T10:40:58.000Z</time>
      </trkpt>
      <trkpt lat="47.43535" lon="6.72096">
        <ele>454</ele>
        <time>2016-02-28T10:40:59.000Z</time>
      </trkpt>
      <trkpt lat="47.43537" lon="6.721">
        <ele>454</ele>
        <time>2016-02-28T10:41:00.000Z</time>
      </trkpt>
      <trkpt lat="47.43539" lon="6.72104">
        <ele>454</ele>
        <time>2016-02-28T10:41:01.000Z</time>
      </trkpt>
      <trkpt lat="47.4354" lon="6.72108">
        <ele>454</ele>
        <time>2016-02-28T10:41:02.000Z</time>
      </trkpt>
      <trkpt lat="47.43542" lon="6.72113">
        <ele>454</ele>
        <time>2016-02-28T10:41:03.000Z</time>
      </trkpt>
      <trkpt lat="47.43544" lon="6.72117">
        <ele>454</ele>
        <time>2016-02-28T10:41:04.000Z</time>
      </trkpt>
      <trkpt lat="47.43545" lon="6.72121">
        <ele>454</ele>
        <time>2016-02-28T10:41:05.000Z</time>
      </trkpt>
      <trkpt lat="47.43546" lon="6.72124">
        <ele>454</ele>
        <time>2016-02-28T10:41:06.000Z</time>
      </trkpt>
      <trkpt lat="47.43548" lon="6.72126">
        <ele>454</ele>
        <time>2016-02-28T10:41:07.000Z</time>
      </trkpt>
      <trkpt lat="47.43549" lon="6.72129">
        <ele>454</ele>
        <time>2016-02-28T10:41:08.000Z</time>
      </trkpt>
      <trkpt lat="47.43551" lon="6.72132">
        <ele>454</ele>
        <time>2016-02-28T10:41:09.000Z</time>
      </trkpt>
      <trkpt lat="47.43552" lon="6.72135">
        <ele>454</ele>
        <time>2016-02-28T10:41:10.000Z</time>
      </trkpt>
      <trkpt lat="47.43554" lon="6.72138">
        <ele>454</ele>
        <time>2016-02-28T10:41:11.000Z</time>
      </trkpt>
      <trkpt lat="47.43555" lon="6.72141">
        <ele>454</ele>
        <time>2016-02-28T10:41:12.000Z</time>
      </trkpt>
      <trkpt lat="47.43556" lon="6.72145">
        <ele>454</ele>
        <time>2016-02-28T10:41:13.000Z</time>
      </trkpt>
      <trkpt lat="47.43558" lon="6.72149">
        <ele>455</ele>
        <time>2016-02-28T10:41:14.000Z</time>
      </trkpt>
      <trkpt lat="47.43559" lon="6.72152">
        <ele>455</ele>
        <time>2016-02-28T10:41:15.000Z</time>
      </trkpt>
      <trkpt lat="47.43561" lon="6.72156">
        <ele>455</ele>
        <time>2016-02-28T10:41:16.000Z</time>
      </trkpt>
      <trkpt lat="47.43562" lon="6.72159">
        <ele>455</ele>
        <time>2016-02-28T10:41:17.000Z</time>
      </trkpt>
      <trkpt lat="47.43563" lon="6.72162">
        <ele>455</ele>
        <time>2016-02-28T10:41:18.000Z</time>
      </trkpt>
      <trkpt lat="47.43564" lon="6.72166">
        <ele>455</ele>
        <time>2016-02-28T10:41:19.000Z</time>
      </trkpt>
      <trkpt lat="47.43565" lon="6.7217">
        <ele>457</ele>
        <time>2016-02-28T10:41:20.000Z</time>
      </trkpt>
      <trkpt lat="47.43566" lon="6.72174">
        <ele>457</ele>
        <time>2016-02-28T10:41:21.000Z</time>
      </trkpt>
      <trkpt lat="47.43568" lon="6.72178">
        <ele>457</ele>
        <time>2016-02-28T10:41:22.000Z</time>
      </trkpt>
      <trkpt lat="47.43569" lon="6.72182">
        <ele>457</ele>
        <time>2016-02-28T10:41:23.000Z</time>
      </trkpt>
      <trkpt lat="47.43571" lon="6.72186">
        <ele>457</ele>
        <time>2016-02-28T10:41:24.000Z</time>
      </trkpt>
      <trkpt lat="47.43573" lon="6.7219">
        <ele>457</ele>
        <time>2016-02-28T10:41:25.000Z</time>
      </trkpt>
      <trkpt lat="47.43574" lon="6.72194">
        <ele>457</ele>
        <time>2016-02-28T10:41:26.000Z</time>
      </trkpt>
      <trkpt lat="47.43576" lon="6.72197">
        <ele>458</ele>
        <time>2016-02-28T10:41:27.000Z</time>
      </trkpt>
      <trkpt lat="47.43578" lon="6.722">
        <ele>458</ele>
        <time>2016-02-28T10:41:28.000Z</time>
      </trkpt>
      <trkpt lat="47.43579" lon="6.72204">
        <ele>458</ele>
        <time>2016-02-28T10:41:29.000Z</time>
      </trkpt>
      <trkpt lat="47.43581" lon="6.72208">
        <ele>458</ele>
        <time>2016-02-28T10:41:30.000Z</time>
      </trkpt>
      <trkpt lat="47.43583" lon="6.72212">
        <ele>458</ele>
        <time>2016-02-28T10:41:31.000Z</time>
      </trkpt>
      <trkpt lat="47.43585" lon="6.72216">
        <ele>458</ele>
        <time>2016-02-28T10:41:32.000Z</time>
      </trkpt>
      <trkpt lat="47.43587" lon="6.7222">
        <ele>458</ele>
        <time>2016-02-28T10:41:33.000Z</time>
      </trkpt>
      <trkpt lat="47.43589" lon="6.72224">
        <ele>458</ele>
        <time>2016-02-28T10:41:34.000Z</time>
      </trkpt>
      <trkpt lat="47.43591" lon="6.72227">
        <ele>458</ele>
        <time>2016-02-28T10:41:35.000Z</time>
      </trkpt>
      <trkpt lat="47.43593" lon="6.72231">
        <ele>458</ele>
        <time>2016-02-28T10:41:36.000Z</time>
      </trkpt>
      <trkpt lat="47.43595" lon="6.72234">
        <ele>458</ele>
        <time>2016-02-28T10:41:37.000Z</time>
      </trkpt>
      <trkpt lat="47.43597" lon="6.72238">
        <ele>459</ele>
        <time>2016-02-28T10:41:38.000Z</time>
      </trkpt>
      <trkpt lat="47.43599" lon="6.72242">
        <ele>459</ele>
        <time>2016-02-28T10:41:39.000Z</time>
      </trkpt>
      <trkpt lat="47.43602" lon="6.72245">
        <ele>459</ele>
        <time>2016-02-28T10:41:40.000Z</time>
      </trkpt>
      <trkpt lat="47.43604" lon="6.72248">
        <ele>458</ele>
        <time>2016-02-28T10:41:41.000Z</time>
      </trkpt>
      <trkpt lat="47.43606" lon="6.72252">
        <ele>460</ele>
        <time>2016-02-28T10:41:42.000Z</time>
      </trkpt>
      <trkpt lat="47.43609" lon="6.72255">
        <ele>460</ele>
        <time>2016-02-28T10:41:43.000Z</time>
      </trkpt>
      <trkpt lat="47.43611" lon="6.72258">
        <ele>460</ele>
        <time>2016-02-28T10:41:44.000Z</time>
      </trkpt>
      <trkpt lat="47.43613" lon="6.72261">
        <ele>461</ele>
        <time>2016-02-28T10:41:45.000Z</time>
      </trkpt>
      <trkpt lat="47.43616" lon="6.72265">
        <ele>461</ele>
        <time>2016-02-28T10:41:46.000Z</time>
      </trkpt>
      <trkpt lat="47.43618" lon="6.72268">
        <ele>461</ele>
        <time>2016-02-28T10:41:47.000Z</time>
      </trkpt>
      <trkpt lat="47.43621" lon="6.72272">
        <ele>461</ele>
        <time>2016-02-28T10:41:48.000Z</time>
      </trkpt>
      <trkpt lat="47.43623" lon="6.72275">
        <ele>461</ele>
        <time>2016-02-28T10:41:49.000Z</time>
      </trkpt>
      <trkpt lat="47.43626" lon="6.72279">
        <ele>461</ele>
        <time>2016-02-28T10:41:49.999Z</time>
      </trkpt>
      <trkpt lat="47.43628" lon="6.72283">
        <ele>461</ele>
        <time>2016-02-28T10:41:51.000Z</time>
      </trkpt>
      <trkpt lat="47.43631" lon="6.72287">
        <ele>461</ele>
        <time>2016-02-28T10:41:52.000Z</time>
      </trkpt>
      <trkpt lat="47.43633" lon="6.7229">
        <ele>461</ele>
        <time>2016-02-28T10:41:53.000Z</time>
      </trkpt>
      <trkpt lat="47.43636" lon="6.72294">
        <ele>461</ele>
        <time>2016-02-28T10:41:54.000Z</time>
      </trkpt>
      <trkpt lat="47.43638" lon="6.72298">
        <ele>461</ele>
        <time>2016-02-28T10:41:55.000Z</time>
      </trkpt>
      <trkpt lat="47.43641" lon="6.72302">
        <ele>461</ele>
        <time>2016-02-28T10:41:56.000Z</time>
      </trkpt>
      <trkpt lat="47.43643" lon="6.72307">
        <ele>461</ele>
        <time>2016-02-28T10:41:57.000Z</time>
      </trkpt>
      <trkpt lat="47.43645" lon="6.72311">
        <ele>461</ele>
        <time>2016-02-28T10:41:58.000Z</time>
      </trkpt>
      <trkpt lat="47.43648" lon="6.72315">
        <ele>461</ele>
        <time>2016-02-28T10:41:59.001Z</time>
      </trkpt>
      <trkpt lat="47.4365" lon="6.72319">
        <ele>461</ele>
        <time>2016-02-28T10:42:00.001Z</time>
      </trkpt>
      <trkpt lat="47.43652" lon="6.72323">
        <ele>461</ele>
        <time>2016-02-28T10:42:01.000Z</time>
      </trkpt>
      <trkpt lat="47.43655" lon="6.72327">
        <ele>461</ele>
        <time>2016-02-28T10:42:02.000Z</time>
      </trkpt>
      <trkpt lat="47.43657" lon="6.72331">
        <ele>461</ele>
        <time>2016-02-28T10:42:03.000Z</time>
      </trkpt>
      <trkpt lat="47.43659" lon="6.72336">
        <ele>462</ele>
        <time>2016-02-28T10:42:04.000Z</time>
      </trkpt>
      <trkpt lat="47.43662" lon="6.7234">
        <ele>462</ele>
        <time>2016-02-28T10:42:05.000Z</time>
      </trkpt>
      <trkpt lat="47.43664" lon="6.72344">
        <ele>462</ele>
        <time>2016-02-28T10:42:06.000Z</time>
      </trkpt>
      <trkpt lat="47.43667" lon="6.72346">
        <ele>461</ele>
        <time>2016-02-28T10:42:07.000Z</time>
      </trkpt>
      <trkpt lat="47.43671" lon="6.72348">
        <ele>461</ele>
        <time>2016-02-28T10:42:08.000Z</time>
      </trkpt>
      <trkpt lat="47.43674" lon="6.7235">
        <ele>461</ele>
        <time>2016-02-28T10:42:09.001Z</time>
      </trkpt>
      <trkpt lat="47.43679" lon="6.72349">
        <ele>461</ele>
        <time>2016-02-28T10:42:10.000Z</time>
      </trkpt>
      <trkpt lat="47.43682" lon="6.72347">
        <ele>461</ele>
        <time>2016-02-28T10:42:11.000Z</time>
      </trkpt>
      <trkpt lat="47.43686" lon="6.72344">
        <ele>461</ele>
        <time>2016-02-28T10:42:12.000Z</time>
      </trkpt>
      <trkpt lat="47.43689" lon="6.72336">
        <ele>461</ele>
        <time>2016-02-28T10:42:13.000Z</time>
      </trkpt>
      <trkpt lat="47.43693" lon="6.72332">
        <ele>460</ele>
        <time>2016-02-28T10:42:14.000Z</time>
      </trkpt>
      <trkpt lat="47.43697" lon="6.7233">
        <ele>460</ele>
        <time>2016-02-28T10:42:15.000Z</time>
      </trkpt>
      <trkpt lat="47.437" lon="6.72328">
        <ele>460</ele>
        <time>2016-02-28T10:42:16.000Z</time>
      </trkpt>
      <trkpt lat="47.43703" lon="6.72325">
        <ele>460</ele>
        <time>2016-02-28T10:42:17.000Z</time>
      </trkpt>
      <trkpt lat="47.43707" lon="6.72322">
        <ele>460</ele>
        <time>2016-02-28T10:42:18.000Z</time>
      </trkpt>
      <trkpt lat="47.43711" lon="6.72318">
        <ele>460</ele>
        <time>2016-02-28T10:42:19.000Z</time>
      </trkpt>
      <trkpt lat="47.43715" lon="6.72315">
        <ele>460</ele>
        <time>2016-02-28T10:42:20.000Z</time>
      </trkpt>
      <trkpt lat="47.43719" lon="6.72312">
        <ele>460</ele>
        <time>2016-02-28T10:42:21.000Z</time>
      </trkpt>
      <trkpt lat="47.43724" lon="6.72309">
        <ele>460</ele>
        <time>2016-02-28T10:42:22.000Z</time>
      </trkpt>
      <trkpt lat="47.43729" lon="6.72306">
        <ele>460</ele>
        <time>2016-02-28T10:42:23.000Z</time>
      </trkpt>
      <trkpt lat="47.43735" lon="6.72303">
        <ele>460</ele>
        <time>2016-02-28T10:42:24.000Z</time>
      </trkpt>
      <trkpt lat="47.4374" lon="6.72304">
        <ele>460</ele>
        <time>2016-02-28T10:42:25.000Z</time>
      </trkpt>
      <trkpt lat="47.43745" lon="6.72306">
        <ele>460</ele>
        <time>2016-02-28T10:42:26.000Z</time>
      </trkpt>
      <trkpt lat="47.43748" lon="6.72311">
        <ele>460</ele>
        <time>2016-02-28T10:42:27.000Z</time>
      </trkpt>
      <trkpt lat="47.43751" lon="6.72315">
        <ele>460</ele>
        <time>2016-02-28T10:42:28.000Z</time>
      </trkpt>
      <trkpt lat="47.43754" lon="6.7232">
        <ele>460</ele>
        <time>2016-02-28T10:42:29.000Z</time>
      </trkpt>
      <trkpt lat="47.43757" lon="6.72326">
        <ele>460</ele>
        <time>2016-02-28T10:42:30.000Z</time>
      </trkpt>
      <trkpt lat="47.4376" lon="6.72331">
        <ele>460</ele>
        <time>2016-02-28T10:42:31.000Z</time>
      </trkpt>
      <trkpt lat="47.43764" lon="6.72337">
        <ele>461</ele>
        <time>2016-02-28T10:42:32.000Z</time>
      </trkpt>
      <trkpt lat="47.43767" lon="6.72342">
        <ele>461</ele>
        <time>2016-02-28T10:42:33.000Z</time>
      </trkpt>
      <trkpt lat="47.43771" lon="6.72347">
        <ele>461</ele>
        <time>2016-02-28T10:42:34.000Z</time>
      </trkpt>
      <trkpt lat="47.43775" lon="6.72352">
        <ele>461</ele>
        <time>2016-02-28T10:42:35.000Z</time>
      </trkpt>
      <trkpt lat="47.43778" lon="6.72357">
        <ele>461</ele>
        <time>2016-02-28T10:42:36.000Z</time>
      </trkpt>
      <trkpt lat="47.43782" lon="6.72363">
        <ele>461</ele>
        <time>2016-02-28T10:42:37.000Z</time>
      </trkpt>
      <trkpt lat="47.43786" lon="6.72367">
        <ele>461</ele>
        <time>2016-02-28T10:42:38.000Z</time>
      </trkpt>
      <trkpt lat="47.4379" lon="6.72372">
        <ele>461</ele>
        <time>2016-02-28T10:42:39.000Z</time>
      </trkpt>
      <trkpt lat="47.43794" lon="6.72376">
        <ele>462</ele>
        <time>2016-02-28T10:42:40.000Z</time>
      </trkpt>
      <trkpt lat="47.43797" lon="6.72381">
        <ele>462</ele>
        <time>2016-02-28T10:42:41.000Z</time>
      </trkpt>
      <trkpt lat="47.43801" lon="6.72385">
        <ele>462</ele>
        <time>2016-02-28T10:42:42.000Z</time>
      </trkpt>
      <trkpt lat="47.43804" lon="6.7239">
        <ele>462</ele>
        <time>2016-02-28T10:42:43.000Z</time>
      </trkpt>
      <trkpt lat="47.43808" lon="6.72394">
        <ele>462</ele>
        <time>2016-02-28T10:42:44.000Z</time>
      </trkpt>
      <trkpt lat="47.4381" lon="6.72397">
        <ele>462</ele>
        <time>2016-02-28T10:42:45.000Z</time>
      </trkpt>
      <trkpt lat="47.43813" lon="6.72401">
        <ele>462</ele>
        <time>2016-02-28T10:42:46.000Z</time>
      </trkpt>
      <trkpt lat="47.43816" lon="6.72404">
        <ele>462</ele>
        <time>2016-02-28T10:42:47.000Z</time>
      </trkpt>
      <trkpt lat="47.4382" lon="6.72408">
        <ele>462</ele>
        <time>2016-02-28T10:42:48.000Z</time>
      </trkpt>
      <trkpt lat="47.43824" lon="6.72412">
        <ele>462</ele>
        <time>2016-02-28T10:42:49.000Z</time>
      </trkpt>
      <trkpt lat="47.43828" lon="6.72416">
        <ele>462</ele>
        <time>2016-02-28T10:42:50.000Z</time>
      </trkpt>
      <trkpt lat="47.43832" lon="6.72419">
        <ele>462</ele>
        <time>2016-02-28T10:42:51.000Z</time>
      </trkpt>
      <trkpt lat="47.43836" lon="6.72423">
        <ele>462</ele>
        <time>2016-02-28T10:42:52.000Z</time>
      </trkpt>
      <trkpt lat="47.4384" lon="6.72427">
        <ele>462</ele>
        <time>2016-02-28T10:42:53.000Z</time>
      </trkpt>
      <trkpt lat="47.43844" lon="6.72431">
        <ele>462</ele>
        <time>2016-02-28T10:42:54.000Z</time>
      </trkpt>
      <trkpt lat="47.43848" lon="6.72436">
        <ele>462</ele>
        <time>2016-02-28T10:42:55.000Z</time>
      </trkpt>
      <trkpt lat="47.43852" lon="6.7244">
        <ele>463</ele>
        <time>2016-02-28T10:42:56.000Z</time>
      </trkpt>
      <trkpt lat="47.43856" lon="6.72444">
        <ele>463</ele>
        <time>2016-02-28T10:42:57.000Z</time>
      </trkpt>
      <trkpt lat="47.43861" lon="6.72447">
        <ele>463</ele>
        <time>2016-02-28T10:42:58.000Z</time>
      </trkpt>
      <trkpt lat="47.43866" lon="6.7245">
        <ele>463</ele>
        <time>2016-02-28T10:42:59.000Z</time>
      </trkpt>
      <trkpt lat="47.4387" lon="6.72454">
        <ele>463</ele>
        <time>2016-02-28T10:43:00.000Z</time>
      </trkpt>
      <trkpt lat="47.43874" lon="6.72457">
        <ele>463</ele>
        <time>2016-02-28T10:43:01.000Z</time>
      </trkpt>
      <trkpt lat="47.43878" lon="6.72461">
        <ele>463</ele>
        <time>2016-02-28T10:43:02.000Z</time>
      </trkpt>
      <trkpt lat="47.43881" lon="6.72466">
        <ele>463</ele>
        <time>2016-02-28T10:43:03.000Z</time>
      </trkpt>
      <trkpt lat="47.43886" lon="6.7247">
        <ele>463</ele>
        <time>2016-02-28T10:43:04.000Z</time>
      </trkpt>
      <trkpt lat="47.43889" lon="6.72473">
        <ele>463</ele>
        <time>2016-02-28T10:43:05.000Z</time>
      </trkpt>
      <trkpt lat="47.43893" lon="6.72476">
        <ele>463</ele>
        <time>2016-02-28T10:43:06.000Z</time>
      </trkpt>
      <trkpt lat="47.43896" lon="6.7248">
        <ele>463</ele>
        <time>2016-02-28T10:43:07.000Z</time>
      </trkpt>
      <trkpt lat="47.439" lon="6.72483">
        <ele>463</ele>
        <time>2016-02-28T10:43:08.000Z</time>
      </trkpt>
      <trkpt lat="47.43902" lon="6.72487">
        <ele>463</ele>
        <time>2016-02-28T10:43:09.000Z</time>
      </trkpt>
      <trkpt lat="47.43905" lon="6.7249">
        <ele>463</ele>
        <time>2016-02-28T10:43:10.000Z</time>
      </trkpt>
      <trkpt lat="47.4391" lon="6.72493">
        <ele>463</ele>
        <time>2016-02-28T10:43:11.000Z</time>
      </trkpt>
      <trkpt lat="47.43913" lon="6.72496">
        <ele>463</ele>
        <time>2016-02-28T10:43:12.000Z</time>
      </trkpt>
      <trkpt lat="47.43917" lon="6.72499">
        <ele>463</ele>
        <time>2016-02-28T10:43:13.000Z</time>
      </trkpt>
      <trkpt lat="47.4392" lon="6.72503">
        <ele>463</ele>
        <time>2016-02-28T10:43:14.000Z</time>
      </trkpt>
      <trkpt lat="47.43924" lon="6.72505">
        <ele>463</ele>
        <time>2016-02-28T10:43:15.000Z</time>
      </trkpt>
      <trkpt lat="47.43928" lon="6.72508">
        <ele>463</ele>
        <time>2016-02-28T10:43:16.000Z</time>
      </trkpt>
      <trkpt lat="47.43932" lon="6.72509">
        <ele>463</ele>
        <time>2016-02-28T10:43:17.000Z</time>
      </trkpt>
      <trkpt lat="47.43937" lon="6.7251">
        <ele>463</ele>
        <time>2016-02-28T10:43:18.000Z</time>
      </trkpt>
      <trkpt lat="47.43941" lon="6.7251">
        <ele>463</ele>
        <time>2016-02-28T10:43:19.000Z</time>
      </trkpt>
      <trkpt lat="47.43946" lon="6.72509">
        <ele>463</ele>
        <time>2016-02-28T10:43:20.000Z</time>
      </trkpt>
      <trkpt lat="47.43951" lon="6.72507">
        <ele>463</ele>
        <time>2016-02-28T10:43:21.000Z</time>
      </trkpt>
      <trkpt lat="47.43955" lon="6.72505">
        <ele>463</ele>
        <time>2016-02-28T10:43:22.000Z</time>
      </trkpt>
      <trkpt lat="47.43962" lon="6.725">
        <ele>464</ele>
        <time>2016-02-28T10:43:23.000Z</time>
      </trkpt>
      <trkpt lat="47.43966" lon="6.72498">
        <ele>464</ele>
        <time>2016-02-28T10:43:24.000Z</time>
      </trkpt>
      <trkpt lat="47.43971" lon="6.72496">
        <ele>464</ele>
        <time>2016-02-28T10:43:25.000Z</time>
      </trkpt>
      <trkpt lat="47.43976" lon="6.72494">
        <ele>464</ele>
        <time>2016-02-28T10:43:26.000Z</time>
      </trkpt>
      <trkpt lat="47.43981" lon="6.72493">
        <ele>464</ele>
        <time>2016-02-28T10:43:27.000Z</time>
      </trkpt>
      <trkpt lat="47.43985" lon="6.72491">
        <ele>464</ele>
        <time>2016-02-28T10:43:28.000Z</time>
      </trkpt>
      <trkpt lat="47.4399" lon="6.72489">
        <ele>464</ele>
        <time>2016-02-28T10:43:29.000Z</time>
      </trkpt>
      <trkpt lat="47.43995" lon="6.72487">
        <ele>464</ele>
        <time>2016-02-28T10:43:30.000Z</time>
      </trkpt>
      <trkpt lat="47.43999" lon="6.72485">
        <ele>464</ele>
        <time>2016-02-28T10:43:31.000Z</time>
      </trkpt>
      <trkpt lat="47.44004" lon="6.72482">
        <ele>466</ele>
        <time>2016-02-28T10:43:32.000Z</time>
      </trkpt>
      <trkpt lat="47.44009" lon="6.72481">
        <ele>466</ele>
        <time>2016-02-28T10:43:33.000Z</time>
      </trkpt>
      <trkpt lat="47.44014" lon="6.72478">
        <ele>466</ele>
        <time>2016-02-28T10:43:34.000Z</time>
      </trkpt>
      <trkpt lat="47.44018" lon="6.72477">
        <ele>466</ele>
        <time>2016-02-28T10:43:35.000Z</time>
      </trkpt>
      <trkpt lat="47.44023" lon="6.72475">
        <ele>466</ele>
        <time>2016-02-28T10:43:36.000Z</time>
      </trkpt>
      <trkpt lat="47.44027" lon="6.72474">
        <ele>467</ele>
        <time>2016-02-28T10:43:37.000Z</time>
      </trkpt>
      <trkpt lat="47.44032" lon="6.72472">
        <ele>467</ele>
        <time>2016-02-28T10:43:38.000Z</time>
      </trkpt>
      <trkpt lat="47.44037" lon="6.72471">
        <ele>467</ele>
        <time>2016-02-28T10:43:39.000Z</time>
      </trkpt>
      <trkpt lat="47.44041" lon="6.7247">
        <ele>467</ele>
        <time>2016-02-28T10:43:40.000Z</time>
      </trkpt>
      <trkpt lat="47.44046" lon="6.72468">
        <ele>467</ele>
        <time>2016-02-28T10:43:41.000Z</time>
      </trkpt>
      <trkpt lat="47.4405" lon="6.72466">
        <ele>467</ele>
        <time>2016-02-28T10:43:42.000Z</time>
      </trkpt>
      <trkpt lat="47.44054" lon="6.72463">
        <ele>467</ele>
        <time>2016-02-28T10:43:43.000Z</time>
      </trkpt>
      <trkpt lat="47.44058" lon="6.72463">
        <ele>468</ele>
        <time>2016-02-28T10:43:44.000Z</time>
      </trkpt>
      <trkpt lat="47.44062" lon="6.72462">
        <ele>468</ele>
        <time>2016-02-28T10:43:45.000Z</time>
      </trkpt>
      <trkpt lat="47.44066" lon="6.72459">
        <ele>468</ele>
        <time>2016-02-28T10:43:46.000Z</time>
      </trkpt>
      <trkpt lat="47.44071" lon="6.72456">
        <ele>468</ele>
        <time>2016-02-28T10:43:47.000Z</time>
      </trkpt>
      <trkpt lat="47.44074" lon="6.72455">
        <ele>468</ele>
        <time>2016-02-28T10:43:48.000Z</time>
      </trkpt>
      <trkpt lat="47.44076" lon="6.72456">
        <ele>468</ele>
        <time>2016-02-28T10:43:49.000Z</time>
      </trkpt>
      <trkpt lat="47.44079" lon="6.72456">
        <ele>468</ele>
        <time>2016-02-28T10:43:51.000Z</time>
      </trkpt>
      <trkpt lat="47.44082" lon="6.72456">
        <ele>468</ele>
        <time>2016-02-28T10:43:52.000Z</time>
      </trkpt>
      <trkpt lat="47.44084" lon="6.72456">
        <ele>473</ele>
        <time>2016-02-28T10:43:53.000Z</time>
      </trkpt>
      <trkpt lat="47.44087" lon="6.72454">
        <ele>473</ele>
        <time>2016-02-28T10:43:54.000Z</time>
      </trkpt>
      <trkpt lat="47.44089" lon="6.72454">
        <ele>473</ele>
        <time>2016-02-28T10:43:55.000Z</time>
      </trkpt>
      <trkpt lat="47.44092" lon="6.72454">
        <ele>473</ele>
        <time>2016-02-28T10:43:56.000Z</time>
      </trkpt>
      <trkpt lat="47.44095" lon="6.72454">
        <ele>473</ele>
        <time>2016-02-28T10:43:57.000Z</time>
      </trkpt>
      <trkpt lat="47.44097" lon="6.72455">
        <ele>473</ele>
        <time>2016-02-28T10:43:58.000Z</time>
      </trkpt>
      <trkpt lat="47.44101" lon="6.72455">
        <ele>473</ele>
        <time>2016-02-28T10:44:00.000Z</time>
      </trkpt>
      <trkpt lat="47.44103" lon="6.72455">
        <ele>474</ele>
        <time>2016-02-28T10:44:01.000Z</time>
      </trkpt>
      <trkpt lat="47.44107" lon="6.72454">
        <ele>474</ele>
        <time>2016-02-28T10:44:03.000Z</time>
      </trkpt>
      <trkpt lat="47.44109" lon="6.72454">
        <ele>474</ele>
        <time>2016-02-28T10:44:04.000Z</time>
      </trkpt>
      <trkpt lat="47.44111" lon="6.72454">
        <ele>474</ele>
        <time>2016-02-28T10:44:05.000Z</time>
      </trkpt>
      <trkpt lat="47.44114" lon="6.72454">
        <ele>474</ele>
        <time>2016-02-28T10:44:06.000Z</time>
      </trkpt>
      <trkpt lat="47.44117" lon="6.72454">
        <ele>474</ele>
        <time>2016-02-28T10:44:07.000Z</time>
      </trkpt>
      <trkpt lat="47.4412" lon="6.72453">
        <ele>475</ele>
        <time>2016-02-28T10:44:08.000Z</time>
      </trkpt>
      <trkpt lat="47.44125" lon="6.72453">
        <ele>475</ele>
        <time>2016-02-28T10:44:09.000Z</time>
      </trkpt>
      <trkpt lat="47.44129" lon="6.72452">
        <ele>475</ele>
        <time>2016-02-28T10:44:10.000Z</time>
      </trkpt>
      <trkpt lat="47.44133" lon="6.72452">
        <ele>475</ele>
        <time>2016-02-28T10:44:11.000Z</time>
      </trkpt>
      <trkpt lat="47.44136" lon="6.72453">
        <ele>476</ele>
        <time>2016-02-28T10:44:12.000Z</time>
      </trkpt>
      <trkpt lat="47.4414" lon="6.72453">
        <ele>476</ele>
        <time>2016-02-28T10:44:13.000Z</time>
      </trkpt>
      <trkpt lat="47.44142" lon="6.72453">
        <ele>476</ele>
        <time>2016-02-28T10:44:14.000Z</time>
      </trkpt>
      <trkpt lat="47.44145" lon="6.72454">
        <ele>476</ele>
        <time>2016-02-28T10:44:15.000Z</time>
      </trkpt>
      <trkpt lat="47.44147" lon="6.72454">
        <ele>476</ele>
        <time>2016-02-28T10:44:16.000Z</time>
      </trkpt>
      <trkpt lat="47.44149" lon="6.72454">
        <ele>476</ele>
        <time>2016-02-28T10:44:17.000Z</time>
      </trkpt>
      <trkpt lat="47.44152" lon="6.72454">
        <ele>476</ele>
        <time>2016-02-28T10:44:18.000Z</time>
      </trkpt>
      <trkpt lat="47.44155" lon="6.72454">
        <ele>477</ele>
        <time>2016-02-28T10:44:19.000Z</time>
      </trkpt>
      <trkpt lat="47.44157" lon="6.72453">
        <ele>477</ele>
        <time>2016-02-28T10:44:20.000Z</time>
      </trkpt>
      <trkpt lat="47.4416" lon="6.72452">
        <ele>477</ele>
        <time>2016-02-28T10:44:21.000Z</time>
      </trkpt>
      <trkpt lat="47.44163" lon="6.72452">
        <ele>477</ele>
        <time>2016-02-28T10:44:22.000Z</time>
      </trkpt>
      <trkpt lat="47.44165" lon="6.72451">
        <ele>477</ele>
        <time>2016-02-28T10:44:23.000Z</time>
      </trkpt>
      <trkpt lat="47.44168" lon="6.72451">
        <ele>481</ele>
        <time>2016-02-28T10:44:24.000Z</time>
      </trkpt>
      <trkpt lat="47.44171" lon="6.7245">
        <ele>481</ele>
        <time>2016-02-28T10:44:25.000Z</time>
      </trkpt>
      <trkpt lat="47.44174" lon="6.7245">
        <ele>481</ele>
        <time>2016-02-28T10:44:26.000Z</time>
      </trkpt>
      <trkpt lat="47.44177" lon="6.72451">
        <ele>481</ele>
        <time>2016-02-28T10:44:27.000Z</time>
      </trkpt>
      <trkpt lat="47.4418" lon="6.72451">
        <ele>481</ele>
        <time>2016-02-28T10:44:28.000Z</time>
      </trkpt>
      <trkpt lat="47.44183" lon="6.72452">
        <ele>481</ele>
        <time>2016-02-28T10:44:29.000Z</time>
      </trkpt>
      <trkpt lat="47.44185" lon="6.72452">
        <ele>481</ele>
        <time>2016-02-28T10:44:30.000Z</time>
      </trkpt>
      <trkpt lat="47.44188" lon="6.72452">
        <ele>481</ele>
        <time>2016-02-28T10:44:31.000Z</time>
      </trkpt>
      <trkpt lat="47.44192" lon="6.72453">
        <ele>481</ele>
        <time>2016-02-28T10:44:32.000Z</time>
      </trkpt>
      <trkpt lat="47.44196" lon="6.72454">
        <ele>481</ele>
        <time>2016-02-28T10:44:33.000Z</time>
      </trkpt>
      <trkpt lat="47.442" lon="6.72455">
        <ele>481</ele>
        <time>2016-02-28T10:44:34.000Z</time>
      </trkpt>
      <trkpt lat="47.44204" lon="6.72456">
        <ele>481</ele>
        <time>2016-02-28T10:44:35.000Z</time>
      </trkpt>
      <trkpt lat="47.44208" lon="6.72456">
        <ele>481</ele>
        <time>2016-02-28T10:44:36.000Z</time>
      </trkpt>
      <trkpt lat="47.44211" lon="6.72456">
        <ele>481</ele>
        <time>2016-02-28T10:44:37.000Z</time>
      </trkpt>
      <trkpt lat="47.44214" lon="6.72456">
        <ele>481</ele>
        <time>2016-02-28T10:44:38.000Z</time>
      </trkpt>
      <trkpt lat="47.44217" lon="6.72456">
        <ele>481</ele>
        <time>2016-02-28T10:44:39.000Z</time>
      </trkpt>
      <trkpt lat="47.44221" lon="6.72455">
        <ele>481</ele>
        <time>2016-02-28T10:44:40.000Z</time>
      </trkpt>
      <trkpt lat="47.44225" lon="6.72454">
        <ele>482</ele>
        <time>2016-02-28T10:44:41.000Z</time>
      </trkpt>
      <trkpt lat="47.44229" lon="6.72453">
        <ele>482</ele>
        <time>2016-02-28T10:44:42.000Z</time>
      </trkpt>
      <trkpt lat="47.44234" lon="6.72452">
        <ele>482</ele>
        <time>2016-02-28T10:44:43.000Z</time>
      </trkpt>
      <trkpt lat="47.44239" lon="6.72451">
        <ele>482</ele>
        <time>2016-02-28T10:44:44.000Z</time>
      </trkpt>
      <trkpt lat="47.44245" lon="6.72449">
        <ele>482</ele>
        <time>2016-02-28T10:44:45.000Z</time>
      </trkpt>
      <trkpt lat="47.4425" lon="6.72448">
        <ele>482</ele>
        <time>2016-02-28T10:44:46.000Z</time>
      </trkpt>
      <trkpt lat="47.44256" lon="6.72446">
        <ele>482</ele>
        <time>2016-02-28T10:44:47.000Z</time>
      </trkpt>
      <trkpt lat="47.44263" lon="6.72444">
        <ele>482</ele>
        <time>2016-02-28T10:44:48.000Z</time>
      </trkpt>
      <trkpt lat="47.44269" lon="6.72442">
        <ele>482</ele>
        <time>2016-02-28T10:44:49.000Z</time>
      </trkpt>
      <trkpt lat="47.44276" lon="6.7244">
        <ele>482</ele>
        <time>2016-02-28T10:44:50.000Z</time>
      </trkpt>
      <trkpt lat="47.44283" lon="6.72438">
        <ele>482</ele>
        <time>2016-02-28T10:44:51.000Z</time>
      </trkpt>
      <trkpt lat="47.4429" lon="6.72436">
        <ele>482</ele>
        <time>2016-02-28T10:44:52.000Z</time>
      </trkpt>
      <trkpt lat="47.44297" lon="6.72434">
        <ele>482</ele>
        <time>2016-02-28T10:44:53.000Z</time>
      </trkpt>
      <trkpt lat="47.44315" lon="6.72425">
        <ele>481</ele>
        <time>2016-02-28T10:44:54.000Z</time>
      </trkpt>
      <trkpt lat="47.44321" lon="6.72421">
        <ele>481</ele>
        <time>2016-02-28T10:44:55.000Z</time>
      </trkpt>
      <trkpt lat="47.44326" lon="6.72419">
        <ele>481</ele>
        <time>2016-02-28T10:44:56.000Z</time>
      </trkpt>
      <trkpt lat="47.4433" lon="6.72417">
        <ele>481</ele>
        <time>2016-02-28T10:44:57.000Z</time>
      </trkpt>
      <trkpt lat="47.44336" lon="6.72415">
        <ele>481</ele>
        <time>2016-02-28T10:44:58.000Z</time>
      </trkpt>
      <trkpt lat="47.4434" lon="6.72409">
        <ele>480</ele>
        <time>2016-02-28T10:44:59.000Z</time>
      </trkpt>
      <trkpt lat="47.44345" lon="6.72407">
        <ele>479</ele>
        <time>2016-02-28T10:45:00.000Z</time>
      </trkpt>
      <trkpt lat="47.4435" lon="6.72405">
        <ele>479</ele>
        <time>2016-02-28T10:45:01.000Z</time>
      </trkpt>
      <trkpt lat="47.44355" lon="6.72403">
        <ele>479</ele>
        <time>2016-02-28T10:45:02.000Z</time>
      </trkpt>
      <trkpt lat="47.44359" lon="6.72401">
        <ele>479</ele>
        <time>2016-02-28T10:45:03.000Z</time>
      </trkpt>
      <trkpt lat="47.44367" lon="6.72398">
        <ele>478</ele>
        <time>2016-02-28T10:45:04.000Z</time>
      </trkpt>
      <trkpt lat="47.44373" lon="6.72394">
        <ele>478</ele>
        <time>2016-02-28T10:45:05.000Z</time>
      </trkpt>
      <trkpt lat="47.44376" lon="6.7239">
        <ele>478</ele>
        <time>2016-02-28T10:45:06.000Z</time>
      </trkpt>
      <trkpt lat="47.44378" lon="6.7239">
        <ele>478</ele>
        <time>2016-02-28T10:45:07.000Z</time>
      </trkpt>
      <trkpt lat="47.44383" lon="6.72386">
        <ele>478</ele>
        <time>2016-02-28T10:45:08.000Z</time>
      </trkpt>
      <trkpt lat="47.44388" lon="6.72387">
        <ele>478</ele>
        <time>2016-02-28T10:45:09.000Z</time>
      </trkpt>
      <trkpt lat="47.44392" lon="6.72384">
        <ele>478</ele>
        <time>2016-02-28T10:45:10.000Z</time>
      </trkpt>
      <trkpt lat="47.44397" lon="6.72383">
        <ele>478</ele>
        <time>2016-02-28T10:45:11.000Z</time>
      </trkpt>
      <trkpt lat="47.44402" lon="6.7238">
        <ele>477</ele>
        <time>2016-02-28T10:45:12.000Z</time>
      </trkpt>
      <trkpt lat="47.44407" lon="6.72378">
        <ele>477</ele>
        <time>2016-02-28T10:45:13.000Z</time>
      </trkpt>
      <trkpt lat="47.44411" lon="6.72377">
        <ele>477</ele>
        <time>2016-02-28T10:45:14.000Z</time>
      </trkpt>
      <trkpt lat="47.44417" lon="6.72376">
        <ele>477</ele>
        <time>2016-02-28T10:45:15.000Z</time>
      </trkpt>
      <trkpt lat="47.44421" lon="6.72376">
        <ele>478</ele>
        <time>2016-02-28T10:45:16.000Z</time>
      </trkpt>
      <trkpt lat="47.44426" lon="6.72375">
        <ele>478</ele>
        <time>2016-02-28T10:45:17.000Z</time>
      </trkpt>
      <trkpt lat="47.44431" lon="6.72375">
        <ele>478</ele>
        <time>2016-02-28T10:45:18.000Z</time>
      </trkpt>
      <trkpt lat="47.44441" lon="6.72368">
        <ele>478</ele>
        <time>2016-02-28T10:45:19.000Z</time>
      </trkpt>
      <trkpt lat="47.44446" lon="6.72369">
        <ele>478</ele>
        <time>2016-02-28T10:45:20.000Z</time>
      </trkpt>
      <trkpt lat="47.4445" lon="6.72369">
        <ele>478</ele>
        <time>2016-02-28T10:45:21.000Z</time>
      </trkpt>
      <trkpt lat="47.44453" lon="6.72369">
        <ele>478</ele>
        <time>2016-02-28T10:45:22.000Z</time>
      </trkpt>
      <trkpt lat="47.44458" lon="6.72367">
        <ele>478</ele>
        <time>2016-02-28T10:45:23.000Z</time>
      </trkpt>
      <trkpt lat="47.44467" lon="6.72364">
        <ele>478</ele>
        <time>2016-02-28T10:45:24.000Z</time>
      </trkpt>
      <trkpt lat="47.44471" lon="6.72362">
        <ele>478</ele>
        <time>2016-02-28T10:45:25.000Z</time>
      </trkpt>
      <trkpt lat="47.44476" lon="6.72362">
        <ele>478</ele>
        <time>2016-02-28T10:45:26.000Z</time>
      </trkpt>
      <trkpt lat="47.44481" lon="6.72361">
        <ele>478</ele>
        <time>2016-02-28T10:45:27.000Z</time>
      </trkpt>
      <trkpt lat="47.44487" lon="6.7236">
        <ele>478</ele>
        <time>2016-02-28T10:45:28.000Z</time>
      </trkpt>
      <trkpt lat="47.44494" lon="6.72358">
        <ele>478</ele>
        <time>2016-02-28T10:45:29.000Z</time>
      </trkpt>
      <trkpt lat="47.44499" lon="6.72358">
        <ele>478</ele>
        <time>2016-02-28T10:45:30.000Z</time>
      </trkpt>
      <trkpt lat="47.44503" lon="6.72359">
        <ele>479</ele>
        <time>2016-02-28T10:45:31.000Z</time>
      </trkpt>
      <trkpt lat="47.44507" lon="6.72358">
        <ele>479</ele>
        <time>2016-02-28T10:45:32.000Z</time>
      </trkpt>
      <trkpt lat="47.4451" lon="6.72357">
        <ele>479</ele>
        <time>2016-02-28T10:45:33.000Z</time>
      </trkpt>
      <trkpt lat="47.44515" lon="6.72357">
        <ele>479</ele>
        <time>2016-02-28T10:45:34.000Z</time>
      </trkpt>
      <trkpt lat="47.4452" lon="6.72359">
        <ele>480</ele>
        <time>2016-02-28T10:45:35.000Z</time>
      </trkpt>
      <trkpt lat="47.44524" lon="6.72357">
        <ele>480</ele>
        <time>2016-02-28T10:45:36.000Z</time>
      </trkpt>
      <trkpt lat="47.44528" lon="6.72356">
        <ele>480</ele>
        <time>2016-02-28T10:45:37.000Z</time>
      </trkpt>
      <trkpt lat="47.44533" lon="6.72356">
        <ele>480</ele>
        <time>2016-02-28T10:45:38.000Z</time>
      </trkpt>
      <trkpt lat="47.44537" lon="6.72356">
        <ele>480</ele>
        <time>2016-02-28T10:45:39.000Z</time>
      </trkpt>
      <trkpt lat="47.44542" lon="6.72356">
        <ele>480</ele>
        <time>2016-02-28T10:45:40.000Z</time>
      </trkpt>
      <trkpt lat="47.44546" lon="6.72356">
        <ele>480</ele>
        <time>2016-02-28T10:45:41.000Z</time>
      </trkpt>
      <trkpt lat="47.4455" lon="6.72356">
        <ele>480</ele>
        <time>2016-02-28T10:45:42.000Z</time>
      </trkpt>
      <trkpt lat="47.44555" lon="6.72357">
        <ele>480</ele>
        <time>2016-02-28T10:45:43.000Z</time>
      </trkpt>
      <trkpt lat="47.44559" lon="6.72357">
        <ele>480</ele>
        <time>2016-02-28T10:45:44.000Z</time>
      </trkpt>
      <trkpt lat="47.44564" lon="6.72357">
        <ele>480</ele>
        <time>2016-02-28T10:45:45.000Z</time>
      </trkpt>
      <trkpt lat="47.44569" lon="6.72356">
        <ele>480</ele>
        <time>2016-02-28T10:45:46.000Z</time>
      </trkpt>
      <trkpt lat="47.44574" lon="6.72354">
        <ele>480</ele>
        <time>2016-02-28T10:45:47.000Z</time>
      </trkpt>
      <trkpt lat="47.44578" lon="6.72353">
        <ele>480</ele>
        <time>2016-02-28T10:45:48.000Z</time>
      </trkpt>
      <trkpt lat="47.44583" lon="6.72351">
        <ele>479</ele>
        <time>2016-02-28T10:45:49.000Z</time>
      </trkpt>
      <trkpt lat="47.44589" lon="6.72348">
        <ele>480</ele>
        <time>2016-02-28T10:45:50.000Z</time>
      </trkpt>
      <trkpt lat="47.44595" lon="6.72345">
        <ele>480</ele>
        <time>2016-02-28T10:45:51.000Z</time>
      </trkpt>
      <trkpt lat="47.44601" lon="6.72343">
        <ele>480</ele>
        <time>2016-02-28T10:45:52.000Z</time>
      </trkpt>
      <trkpt lat="47.44606" lon="6.7234">
        <ele>481</ele>
        <time>2016-02-28T10:45:53.000Z</time>
      </trkpt>
      <trkpt lat="47.44612" lon="6.72339">
        <ele>481</ele>
        <time>2016-02-28T10:45:54.000Z</time>
      </trkpt>
      <trkpt lat="47.44617" lon="6.72339">
        <ele>481</ele>
        <time>2016-02-28T10:45:55.000Z</time>
      </trkpt>
      <trkpt lat="47.44623" lon="6.72339">
        <ele>481</ele>
        <time>2016-02-28T10:45:56.000Z</time>
      </trkpt>
      <trkpt lat="47.44629" lon="6.72338">
        <ele>481</ele>
        <time>2016-02-28T10:45:57.000Z</time>
      </trkpt>
      <trkpt lat="47.44634" lon="6.72337">
        <ele>481</ele>
        <time>2016-02-28T10:45:58.000Z</time>
      </trkpt>
      <trkpt lat="47.44639" lon="6.72337">
        <ele>481</ele>
        <time>2016-02-28T10:45:59.000Z</time>
      </trkpt>
      <trkpt lat="47.44644" lon="6.72336">
        <ele>481</ele>
        <time>2016-02-28T10:46:00.000Z</time>
      </trkpt>
      <trkpt lat="47.44647" lon="6.72335">
        <ele>481</ele>
        <time>2016-02-28T10:46:01.000Z</time>
      </trkpt>
      <trkpt lat="47.44651" lon="6.72334">
        <ele>481</ele>
        <time>2016-02-28T10:46:02.000Z</time>
      </trkpt>
      <trkpt lat="47.44654" lon="6.72333">
        <ele>478</ele>
        <time>2016-02-28T10:46:03.000Z</time>
      </trkpt>
      <trkpt lat="47.44657" lon="6.72331">
        <ele>478</ele>
        <time>2016-02-28T10:46:04.000Z</time>
      </trkpt>
      <trkpt lat="47.44661" lon="6.72329">
        <ele>479</ele>
        <time>2016-02-28T10:46:05.000Z</time>
      </trkpt>
      <trkpt lat="47.44665" lon="6.72329">
        <ele>479</ele>
        <time>2016-02-28T10:46:06.000Z</time>
      </trkpt>
      <trkpt lat="47.44668" lon="6.72328">
        <ele>479</ele>
        <time>2016-02-28T10:46:07.000Z</time>
      </trkpt>
      <trkpt lat="47.44672" lon="6.72327">
        <ele>479</ele>
        <time>2016-02-28T10:46:08.000Z</time>
      </trkpt>
      <trkpt lat="47.44676" lon="6.72326">
        <ele>479</ele>
        <time>2016-02-28T10:46:09.000Z</time>
      </trkpt>
      <trkpt lat="47.4468" lon="6.72325">
        <ele>479</ele>
        <time>2016-02-28T10:46:10.000Z</time>
      </trkpt>
      <trkpt lat="47.44684" lon="6.72323">
        <ele>479</ele>
        <time>2016-02-28T10:46:11.000Z</time>
      </trkpt>
      <trkpt lat="47.44688" lon="6.72321">
        <ele>479</ele>
        <time>2016-02-28T10:46:12.000Z</time>
      </trkpt>
      <trkpt lat="47.44693" lon="6.72319">
        <ele>479</ele>
        <time>2016-02-28T10:46:13.000Z</time>
      </trkpt>
      <trkpt lat="47.44697" lon="6.72317">
        <ele>479</ele>
        <time>2016-02-28T10:46:14.000Z</time>
      </trkpt>
      <trkpt lat="47.44701" lon="6.72315">
        <ele>479</ele>
        <time>2016-02-28T10:46:15.000Z</time>
      </trkpt>
      <trkpt lat="47.44704" lon="6.72313">
        <ele>479</ele>
        <time>2016-02-28T10:46:16.000Z</time>
      </trkpt>
      <trkpt lat="47.44708" lon="6.7231">
        <ele>479</ele>
        <time>2016-02-28T10:46:17.000Z</time>
      </trkpt>
      <trkpt lat="47.44712" lon="6.72307">
        <ele>479</ele>
        <time>2016-02-28T10:46:18.000Z</time>
      </trkpt>
      <trkpt lat="47.44716" lon="6.72303">
        <ele>478</ele>
        <time>2016-02-28T10:46:19.000Z</time>
      </trkpt>
      <trkpt lat="47.44719" lon="6.723">
        <ele>478</ele>
        <time>2016-02-28T10:46:20.000Z</time>
      </trkpt>
      <trkpt lat="47.44723" lon="6.72298">
        <ele>478</ele>
        <time>2016-02-28T10:46:21.000Z</time>
      </trkpt>
      <trkpt lat="47.44727" lon="6.72295">
        <ele>478</ele>
        <time>2016-02-28T10:46:22.000Z</time>
      </trkpt>
      <trkpt lat="47.44738" lon="6.72289">
        <ele>478</ele>
        <time>2016-02-28T10:46:23.000Z</time>
      </trkpt>
      <trkpt lat="47.44743" lon="6.72287">
        <ele>478</ele>
        <time>2016-02-28T10:46:24.000Z</time>
      </trkpt>
      <trkpt lat="47.44748" lon="6.72286">
        <ele>478</ele>
        <time>2016-02-28T10:46:25.000Z</time>
      </trkpt>
      <trkpt lat="47.44752" lon="6.72285">
        <ele>477</ele>
        <time>2016-02-28T10:46:26.000Z</time>
      </trkpt>
      <trkpt lat="47.44756" lon="6.72285">
        <ele>477</ele>
        <time>2016-02-28T10:46:27.000Z</time>
      </trkpt>
      <trkpt lat="47.44761" lon="6.72285">
        <ele>477</ele>
        <time>2016-02-28T10:46:28.000Z</time>
      </trkpt>
      <trkpt lat="47.44769" lon="6.72281">
        <ele>476</ele>
        <time>2016-02-28T10:46:29.000Z</time>
      </trkpt>
      <trkpt lat="47.44776" lon="6.7228">
        <ele>476</ele>
        <time>2016-02-28T10:46:30.000Z</time>
      </trkpt>
      <trkpt lat="47.44783" lon="6.72277">
        <ele>475</ele>
        <time>2016-02-28T10:46:31.000Z</time>
      </trkpt>
      <trkpt lat="47.4479" lon="6.72276">
        <ele>475</ele>
        <time>2016-02-28T10:46:32.000Z</time>
      </trkpt>
      <trkpt lat="47.44798" lon="6.72275">
        <ele>475</ele>
        <time>2016-02-28T10:46:33.000Z</time>
      </trkpt>
      <trkpt lat="47.44807" lon="6.72271">
        <ele>474</ele>
        <time>2016-02-28T10:46:34.000Z</time>
      </trkpt>
      <trkpt lat="47.44818" lon="6.72273">
        <ele>473</ele>
        <time>2016-02-28T10:46:35.000Z</time>
      </trkpt>
      <trkpt lat="47.44827" lon="6.72276">
        <ele>473</ele>
        <time>2016-02-28T10:46:36.000Z</time>
      </trkpt>
      <trkpt lat="47.44834" lon="6.7228">
        <ele>468</ele>
        <time>2016-02-28T10:46:37.000Z</time>
      </trkpt>
      <trkpt lat="47.4484" lon="6.72285">
        <ele>468</ele>
        <time>2016-02-28T10:46:38.000Z</time>
      </trkpt>
      <trkpt lat="47.44847" lon="6.72292">
        <ele>469</ele>
        <time>2016-02-28T10:46:39.000Z</time>
      </trkpt>
      <trkpt lat="47.44855" lon="6.72296">
        <ele>469</ele>
        <time>2016-02-28T10:46:40.000Z</time>
      </trkpt>
      <trkpt lat="47.44866" lon="6.723">
        <ele>468</ele>
        <time>2016-02-28T10:46:41.000Z</time>
      </trkpt>
      <trkpt lat="47.44878" lon="6.72306">
        <ele>467</ele>
        <time>2016-02-28T10:46:42.000Z</time>
      </trkpt>
      <trkpt lat="47.44887" lon="6.7231">
        <ele>467</ele>
        <time>2016-02-28T10:46:43.000Z</time>
      </trkpt>
      <trkpt lat="47.44896" lon="6.72316">
        <ele>466</ele>
        <time>2016-02-28T10:46:44.000Z</time>
      </trkpt>
      <trkpt lat="47.44904" lon="6.72322">
        <ele>466</ele>
        <time>2016-02-28T10:46:45.000Z</time>
      </trkpt>
      <trkpt lat="47.44912" lon="6.72327">
        <ele>466</ele>
        <time>2016-02-28T10:46:46.000Z</time>
      </trkpt>
      <trkpt lat="47.4492" lon="6.72333">
        <ele>464</ele>
        <time>2016-02-28T10:46:47.000Z</time>
      </trkpt>
      <trkpt lat="47.44928" lon="6.72338">
        <ele>464</ele>
        <time>2016-02-28T10:46:48.000Z</time>
      </trkpt>
      <trkpt lat="47.44936" lon="6.72344">
        <ele>463</ele>
        <time>2016-02-28T10:46:49.000Z</time>
      </trkpt>
      <trkpt lat="47.44944" lon="6.72349">
        <ele>463</ele>
        <time>2016-02-28T10:46:50.000Z</time>
      </trkpt>
      <trkpt lat="47.44952" lon="6.72356">
        <ele>462</ele>
        <time>2016-02-28T10:46:51.000Z</time>
      </trkpt>
      <trkpt lat="47.44959" lon="6.72362">
        <ele>462</ele>
        <time>2016-02-28T10:46:52.000Z</time>
      </trkpt>
      <trkpt lat="47.44966" lon="6.72368">
        <ele>462</ele>
        <time>2016-02-28T10:46:53.000Z</time>
      </trkpt>
      <trkpt lat="47.44972" lon="6.72375">
        <ele>461</ele>
        <time>2016-02-28T10:46:54.000Z</time>
      </trkpt>
      <trkpt lat="47.44978" lon="6.72381">
        <ele>461</ele>
        <time>2016-02-28T10:46:55.000Z</time>
      </trkpt>
      <trkpt lat="47.44983" lon="6.72386">
        <ele>461</ele>
        <time>2016-02-28T10:46:56.000Z</time>
      </trkpt>
      <trkpt lat="47.44989" lon="6.72392">
        <ele>461</ele>
        <time>2016-02-28T10:46:57.000Z</time>
      </trkpt>
      <trkpt lat="47.44995" lon="6.72398">
        <ele>461</ele>
        <time>2016-02-28T10:46:58.000Z</time>
      </trkpt>
      <trkpt lat="47.45001" lon="6.72404">
        <ele>456</ele>
        <time>2016-02-28T10:46:59.000Z</time>
      </trkpt>
      <trkpt lat="47.45006" lon="6.72408">
        <ele>457</ele>
        <time>2016-02-28T10:47:00.000Z</time>
      </trkpt>
      <trkpt lat="47.45013" lon="6.72412">
        <ele>456</ele>
        <time>2016-02-28T10:47:01.000Z</time>
      </trkpt>
      <trkpt lat="47.45019" lon="6.72418">
        <ele>457</ele>
        <time>2016-02-28T10:47:02.000Z</time>
      </trkpt>
      <trkpt lat="47.45025" lon="6.72423">
        <ele>457</ele>
        <time>2016-02-28T10:47:03.000Z</time>
      </trkpt>
      <trkpt lat="47.45031" lon="6.72427">
        <ele>456</ele>
        <time>2016-02-28T10:47:04.000Z</time>
      </trkpt>
      <trkpt lat="47.45037" lon="6.72431">
        <ele>456</ele>
        <time>2016-02-28T10:47:05.000Z</time>
      </trkpt>
      <trkpt lat="47.45043" lon="6.72437">
        <ele>456</ele>
        <time>2016-02-28T10:47:06.000Z</time>
      </trkpt>
      <trkpt lat="47.45047" lon="6.72443">
        <ele>456</ele>
        <time>2016-02-28T10:47:07.000Z</time>
      </trkpt>
      <trkpt lat="47.45053" lon="6.72447">
        <ele>455</ele>
        <time>2016-02-28T10:47:08.000Z</time>
      </trkpt>
      <trkpt lat="47.45059" lon="6.72452">
        <ele>455</ele>
        <time>2016-02-28T10:47:09.000Z</time>
      </trkpt>
      <trkpt lat="47.45065" lon="6.72455">
        <ele>455</ele>
        <time>2016-02-28T10:47:10.000Z</time>
      </trkpt>
      <trkpt lat="47.45069" lon="6.72461">
        <ele>455</ele>
        <time>2016-02-28T10:47:11.000Z</time>
      </trkpt>
      <trkpt lat="47.45075" lon="6.72465">
        <ele>455</ele>
        <time>2016-02-28T10:47:12.000Z</time>
      </trkpt>
      <trkpt lat="47.45081" lon="6.72469">
        <ele>455</ele>
        <time>2016-02-28T10:47:13.000Z</time>
      </trkpt>
      <trkpt lat="47.45087" lon="6.72472">
        <ele>451</ele>
        <time>2016-02-28T10:47:14.000Z</time>
      </trkpt>
      <trkpt lat="47.45092" lon="6.72476">
        <ele>451</ele>
        <time>2016-02-28T10:47:15.000Z</time>
      </trkpt>
      <trkpt lat="47.45098" lon="6.7248">
        <ele>451</ele>
        <time>2016-02-28T10:47:16.000Z</time>
      </trkpt>
      <trkpt lat="47.45103" lon="6.72484">
        <ele>451</ele>
        <time>2016-02-28T10:47:17.000Z</time>
      </trkpt>
      <trkpt lat="47.45108" lon="6.72489">
        <ele>451</ele>
        <time>2016-02-28T10:47:18.000Z</time>
      </trkpt>
      <trkpt lat="47.45114" lon="6.72492">
        <ele>451</ele>
        <time>2016-02-28T10:47:19.000Z</time>
      </trkpt>
      <trkpt lat="47.4512" lon="6.72495">
        <ele>450</ele>
        <time>2016-02-28T10:47:20.000Z</time>
      </trkpt>
      <trkpt lat="47.45125" lon="6.72499">
        <ele>450</ele>
        <time>2016-02-28T10:47:21.000Z</time>
      </trkpt>
      <trkpt lat="47.45131" lon="6.72502">
        <ele>451</ele>
        <time>2016-02-28T10:47:22.000Z</time>
      </trkpt>
      <trkpt lat="47.45136" lon="6.72506">
        <ele>451</ele>
        <time>2016-02-28T10:47:23.000Z</time>
      </trkpt>
      <trkpt lat="47.45141" lon="6.72509">
        <ele>451</ele>
        <time>2016-02-28T10:47:24.000Z</time>
      </trkpt>
      <trkpt lat="47.45147" lon="6.72513">
        <ele>451</ele>
        <time>2016-02-28T10:47:25.000Z</time>
      </trkpt>
      <trkpt lat="47.45152" lon="6.72516">
        <ele>451</ele>
        <time>2016-02-28T10:47:26.000Z</time>
      </trkpt>
      <trkpt lat="47.45156" lon="6.72519">
        <ele>451</ele>
        <time>2016-02-28T10:47:27.000Z</time>
      </trkpt>
      <trkpt lat="47.45162" lon="6.72524">
        <ele>451</ele>
        <time>2016-02-28T10:47:28.000Z</time>
      </trkpt>
      <trkpt lat="47.45167" lon="6.72526">
        <ele>450</ele>
        <time>2016-02-28T10:47:29.000Z</time>
      </trkpt>
      <trkpt lat="47.45173" lon="6.72529">
        <ele>450</ele>
        <time>2016-02-28T10:47:30.000Z</time>
      </trkpt>
      <trkpt lat="47.45179" lon="6.72532">
        <ele>450</ele>
        <time>2016-02-28T10:47:31.000Z</time>
      </trkpt>
      <trkpt lat="47.45185" lon="6.72534">
        <ele>451</ele>
        <time>2016-02-28T10:47:32.000Z</time>
      </trkpt>
      <trkpt lat="47.4519" lon="6.72537">
        <ele>451</ele>
        <time>2016-02-28T10:47:33.000Z</time>
      </trkpt>
      <trkpt lat="47.45196" lon="6.7254">
        <ele>451</ele>
        <time>2016-02-28T10:47:34.000Z</time>
      </trkpt>
      <trkpt lat="47.45201" lon="6.72543">
        <ele>451</ele>
        <time>2016-02-28T10:47:35.000Z</time>
      </trkpt>
      <trkpt lat="47.45206" lon="6.72546">
        <ele>451</ele>
        <time>2016-02-28T10:47:36.000Z</time>
      </trkpt>
      <trkpt lat="47.45211" lon="6.7255">
        <ele>451</ele>
        <time>2016-02-28T10:47:37.000Z</time>
      </trkpt>
      <trkpt lat="47.45216" lon="6.72554">
        <ele>451</ele>
        <time>2016-02-28T10:47:38.000Z</time>
      </trkpt>
      <trkpt lat="47.45221" lon="6.72557">
        <ele>451</ele>
        <time>2016-02-28T10:47:39.000Z</time>
      </trkpt>
      <trkpt lat="47.45225" lon="6.72559">
        <ele>451</ele>
        <time>2016-02-28T10:47:40.000Z</time>
      </trkpt>
      <trkpt lat="47.4523" lon="6.72562">
        <ele>452</ele>
        <time>2016-02-28T10:47:41.000Z</time>
      </trkpt>
      <trkpt lat="47.45233" lon="6.72564">
        <ele>452</ele>
        <time>2016-02-28T10:47:42.000Z</time>
      </trkpt>
      <trkpt lat="47.45237" lon="6.72566">
        <ele>452</ele>
        <time>2016-02-28T10:47:43.000Z</time>
      </trkpt>
      <trkpt lat="47.45241" lon="6.72569">
        <ele>452</ele>
        <time>2016-02-28T10:47:44.000Z</time>
      </trkpt>
      <trkpt lat="47.45245" lon="6.72572">
        <ele>452</ele>
        <time>2016-02-28T10:47:45.000Z</time>
      </trkpt>
      <trkpt lat="47.45249" lon="6.72574">
        <ele>452</ele>
        <time>2016-02-28T10:47:46.000Z</time>
      </trkpt>
      <trkpt lat="47.45253" lon="6.72577">
        <ele>453</ele>
        <time>2016-02-28T10:47:47.000Z</time>
      </trkpt>
      <trkpt lat="47.45256" lon="6.7258">
        <ele>453</ele>
        <time>2016-02-28T10:47:48.000Z</time>
      </trkpt>
      <trkpt lat="47.4526" lon="6.72583">
        <ele>452</ele>
        <time>2016-02-28T10:47:49.000Z</time>
      </trkpt>
      <trkpt lat="47.45263" lon="6.72587">
        <ele>453</ele>
        <time>2016-02-28T10:47:50.000Z</time>
      </trkpt>
      <trkpt lat="47.45267" lon="6.7259">
        <ele>453</ele>
        <time>2016-02-28T10:47:51.000Z</time>
      </trkpt>
      <trkpt lat="47.45271" lon="6.72592">
        <ele>453</ele>
        <time>2016-02-28T10:47:52.000Z</time>
      </trkpt>
      <trkpt lat="47.45274" lon="6.72595">
        <ele>453</ele>
        <time>2016-02-28T10:47:53.000Z</time>
      </trkpt>
      <trkpt lat="47.45278" lon="6.72597">
        <ele>453</ele>
        <time>2016-02-28T10:47:54.000Z</time>
      </trkpt>
      <trkpt lat="47.45282" lon="6.726">
        <ele>453</ele>
        <time>2016-02-28T10:47:55.000Z</time>
      </trkpt>
      <trkpt lat="47.45285" lon="6.72603">
        <ele>453</ele>
        <time>2016-02-28T10:47:56.000Z</time>
      </trkpt>
      <trkpt lat="47.45289" lon="6.72606">
        <ele>453</ele>
        <time>2016-02-28T10:47:57.000Z</time>
      </trkpt>
      <trkpt lat="47.45292" lon="6.72608">
        <ele>453</ele>
        <time>2016-02-28T10:47:58.000Z</time>
      </trkpt>
      <trkpt lat="47.45296" lon="6.72611">
        <ele>453</ele>
        <time>2016-02-28T10:47:59.000Z</time>
      </trkpt>
      <trkpt lat="47.453" lon="6.72614">
        <ele>453</ele>
        <time>2016-02-28T10:48:00.000Z</time>
      </trkpt>
      <trkpt lat="47.45304" lon="6.72616">
        <ele>453</ele>
        <time>2016-02-28T10:48:01.000Z</time>
      </trkpt>
      <trkpt lat="47.45308" lon="6.72619">
        <ele>453</ele>
        <time>2016-02-28T10:48:02.000Z</time>
      </trkpt>
      <trkpt lat="47.45311" lon="6.72621">
        <ele>453</ele>
        <time>2016-02-28T10:48:03.000Z</time>
      </trkpt>
      <trkpt lat="47.45315" lon="6.72624">
        <ele>453</ele>
        <time>2016-02-28T10:48:04.000Z</time>
      </trkpt>
      <trkpt lat="47.45318" lon="6.72628">
        <ele>454</ele>
        <time>2016-02-28T10:48:05.000Z</time>
      </trkpt>
      <trkpt lat="47.45321" lon="6.72631">
        <ele>454</ele>
        <time>2016-02-28T10:48:06.000Z</time>
      </trkpt>
      <trkpt lat="47.45325" lon="6.72634">
        <ele>454</ele>
        <time>2016-02-28T10:48:07.000Z</time>
      </trkpt>
      <trkpt lat="47.45328" lon="6.72638">
        <ele>454</ele>
        <time>2016-02-28T10:48:08.000Z</time>
      </trkpt>
      <trkpt lat="47.45331" lon="6.72641">
        <ele>454</ele>
        <time>2016-02-28T10:48:09.000Z</time>
      </trkpt>
      <trkpt lat="47.45335" lon="6.72644">
        <ele>454</ele>
        <time>2016-02-28T10:48:10.000Z</time>
      </trkpt>
      <trkpt lat="47.45338" lon="6.72648">
        <ele>454</ele>
        <time>2016-02-28T10:48:11.000Z</time>
      </trkpt>
      <trkpt lat="47.45341" lon="6.72652">
        <ele>454</ele>
        <time>2016-02-28T10:48:12.000Z</time>
      </trkpt>
      <trkpt lat="47.45344" lon="6.72656">
        <ele>454</ele>
        <time>2016-02-28T10:48:13.000Z</time>
      </trkpt>
      <trkpt lat="47.45347" lon="6.7266">
        <ele>454</ele>
        <time>2016-02-28T10:48:14.000Z</time>
      </trkpt>
      <trkpt lat="47.4535" lon="6.72664">
        <ele>454</ele>
        <time>2016-02-28T10:48:15.000Z</time>
      </trkpt>
      <trkpt lat="47.45353" lon="6.72668">
        <ele>456</ele>
        <time>2016-02-28T10:48:16.000Z</time>
      </trkpt>
      <trkpt lat="47.45356" lon="6.72672">
        <ele>456</ele>
        <time>2016-02-28T10:48:17.000Z</time>
      </trkpt>
      <trkpt lat="47.4536" lon="6.72675">
        <ele>456</ele>
        <time>2016-02-28T10:48:18.000Z</time>
      </trkpt>
      <trkpt lat="47.45363" lon="6.72679">
        <ele>456</ele>
        <time>2016-02-28T10:48:19.000Z</time>
      </trkpt>
      <trkpt lat="47.45367" lon="6.72681">
        <ele>456</ele>
        <time>2016-02-28T10:48:20.000Z</time>
      </trkpt>
      <trkpt lat="47.4537" lon="6.72685">
        <ele>456</ele>
        <time>2016-02-28T10:48:21.000Z</time>
      </trkpt>
      <trkpt lat="47.45374" lon="6.72689">
        <ele>456</ele>
        <time>2016-02-28T10:48:22.000Z</time>
      </trkpt>
      <trkpt lat="47.45377" lon="6.72692">
        <ele>456</ele>
        <time>2016-02-28T10:48:23.000Z</time>
      </trkpt>
      <trkpt lat="47.4538" lon="6.72695">
        <ele>456</ele>
        <time>2016-02-28T10:48:24.000Z</time>
      </trkpt>
      <trkpt lat="47.45382" lon="6.72698">
        <ele>456</ele>
        <time>2016-02-28T10:48:25.000Z</time>
      </trkpt>
      <trkpt lat="47.45385" lon="6.72702">
        <ele>456</ele>
        <time>2016-02-28T10:48:26.000Z</time>
      </trkpt>
      <trkpt lat="47.45388" lon="6.72705">
        <ele>456</ele>
        <time>2016-02-28T10:48:27.000Z</time>
      </trkpt>
      <trkpt lat="47.45391" lon="6.72708">
        <ele>456</ele>
        <time>2016-02-28T10:48:28.000Z</time>
      </trkpt>
      <trkpt lat="47.45395" lon="6.7271">
        <ele>457</ele>
        <time>2016-02-28T10:48:29.000Z</time>
      </trkpt>
      <trkpt lat="47.45398" lon="6.72713">
        <ele>457</ele>
        <time>2016-02-28T10:48:30.000Z</time>
      </trkpt>
      <trkpt lat="47.45401" lon="6.72715">
        <ele>457</ele>
        <time>2016-02-28T10:48:31.000Z</time>
      </trkpt>
      <trkpt lat="47.45404" lon="6.72717">
        <ele>457</ele>
        <time>2016-02-28T10:48:32.000Z</time>
      </trkpt>
      <trkpt lat="47.45407" lon="6.72719">
        <ele>457</ele>
        <time>2016-02-28T10:48:33.000Z</time>
      </trkpt>
      <trkpt lat="47.45409" lon="6.72721">
        <ele>457</ele>
        <time>2016-02-28T10:48:34.000Z</time>
      </trkpt>
      <trkpt lat="47.45412" lon="6.72723">
        <ele>457</ele>
        <time>2016-02-28T10:48:35.000Z</time>
      </trkpt>
      <trkpt lat="47.45415" lon="6.72724">
        <ele>457</ele>
        <time>2016-02-28T10:48:36.000Z</time>
      </trkpt>
      <trkpt lat="47.45419" lon="6.72725">
        <ele>456</ele>
        <time>2016-02-28T10:48:37.000Z</time>
      </trkpt>
      <trkpt lat="47.45423" lon="6.72726">
        <ele>456</ele>
        <time>2016-02-28T10:48:38.000Z</time>
      </trkpt>
      <trkpt lat="47.45426" lon="6.72727">
        <ele>456</ele>
        <time>2016-02-28T10:48:39.000Z</time>
      </trkpt>
      <trkpt lat="47.4543" lon="6.72728">
        <ele>456</ele>
        <time>2016-02-28T10:48:40.000Z</time>
      </trkpt>
      <trkpt lat="47.45433" lon="6.72729">
        <ele>456</ele>
        <time>2016-02-28T10:48:41.000Z</time>
      </trkpt>
      <trkpt lat="47.45436" lon="6.72731">
        <ele>456</ele>
        <time>2016-02-28T10:48:42.000Z</time>
      </trkpt>
      <trkpt lat="47.45438" lon="6.72733">
        <ele>456</ele>
        <time>2016-02-28T10:48:43.000Z</time>
      </trkpt>
      <trkpt lat="47.4544" lon="6.72735">
        <ele>456</ele>
        <time>2016-02-28T10:48:44.000Z</time>
      </trkpt>
      <trkpt lat="47.45442" lon="6.72738">
        <ele>456</ele>
        <time>2016-02-28T10:48:46.000Z</time>
      </trkpt>
      <trkpt lat="47.45443" lon="6.72741">
        <ele>456</ele>
        <time>2016-02-28T10:48:47.000Z</time>
      </trkpt>
      <trkpt lat="47.45443" lon="6.72747">
        <ele>457</ele>
        <time>2016-02-28T10:48:49.000Z</time>
      </trkpt>
      <trkpt lat="47.45442" lon="6.7275">
        <ele>457</ele>
        <time>2016-02-28T10:48:50.000Z</time>
      </trkpt>
      <trkpt lat="47.45441" lon="6.72755">
        <ele>461</ele>
        <time>2016-02-28T10:48:53.000Z</time>
      </trkpt>
      <trkpt lat="47.4544" lon="6.72756">
        <ele>461</ele>
        <time>2016-02-28T10:48:54.000Z</time>
      </trkpt>
      <trkpt lat="47.45438" lon="6.72761">
        <ele>461</ele>
        <time>2016-02-28T10:48:59.000Z</time>
      </trkpt>
      <trkpt lat="47.45439" lon="6.72763">
        <ele>461</ele>
        <time>2016-02-28T10:49:00.000Z</time>
      </trkpt>
      <trkpt lat="47.45441" lon="6.72767">
        <ele>462</ele>
        <time>2016-02-28T10:49:02.000Z</time>
      </trkpt>
      <trkpt lat="47.45442" lon="6.7277">
        <ele>462</ele>
        <time>2016-02-28T10:49:03.000Z</time>
      </trkpt>
      <trkpt lat="47.45444" lon="6.72773">
        <ele>462</ele>
        <time>2016-02-28T10:49:04.000Z</time>
      </trkpt>
      <trkpt lat="47.45445" lon="6.72776">
        <ele>462</ele>
        <time>2016-02-28T10:49:05.000Z</time>
      </trkpt>
      <trkpt lat="47.45447" lon="6.72778">
        <ele>462</ele>
        <time>2016-02-28T10:49:06.000Z</time>
      </trkpt>
      <trkpt lat="47.45449" lon="6.7278">
        <ele>462</ele>
        <time>2016-02-28T10:49:07.000Z</time>
      </trkpt>
      <trkpt lat="47.45451" lon="6.72783">
        <ele>462</ele>
        <time>2016-02-28T10:49:08.000Z</time>
      </trkpt>
      <trkpt lat="47.45452" lon="6.72785">
        <ele>463</ele>
        <time>2016-02-28T10:49:09.000Z</time>
      </trkpt>
      <trkpt lat="47.45453" lon="6.72788">
        <ele>463</ele>
        <time>2016-02-28T10:49:10.000Z</time>
      </trkpt>
      <trkpt lat="47.45454" lon="6.72792">
        <ele>463</ele>
        <time>2016-02-28T10:49:11.000Z</time>
      </trkpt>
      <trkpt lat="47.45455" lon="6.72796">
        <ele>463</ele>
        <time>2016-02-28T10:49:12.000Z</time>
      </trkpt>
      <trkpt lat="47.45456" lon="6.728">
        <ele>464</ele>
        <time>2016-02-28T10:49:13.000Z</time>
      </trkpt>
      <trkpt lat="47.45456" lon="6.72803">
        <ele>464</ele>
        <time>2016-02-28T10:49:14.000Z</time>
      </trkpt>
      <trkpt lat="47.45456" lon="6.72807">
        <ele>464</ele>
        <time>2016-02-28T10:49:15.000Z</time>
      </trkpt>
      <trkpt lat="47.45456" lon="6.7281">
        <ele>464</ele>
        <time>2016-02-28T10:49:16.000Z</time>
      </trkpt>
      <trkpt lat="47.45456" lon="6.72814">
        <ele>464</ele>
        <time>2016-02-28T10:49:17.000Z</time>
      </trkpt>
      <trkpt lat="47.45456" lon="6.72818">
        <ele>465</ele>
        <time>2016-02-28T10:49:18.000Z</time>
      </trkpt>
      <trkpt lat="47.45457" lon="6.72822">
        <ele>465</ele>
        <time>2016-02-28T10:49:19.000Z</time>
      </trkpt>
      <trkpt lat="47.45457" lon="6.72825">
        <ele>465</ele>
        <time>2016-02-28T10:49:20.000Z</time>
      </trkpt>
      <trkpt lat="47.45458" lon="6.72829">
        <ele>465</ele>
        <time>2016-02-28T10:49:21.000Z</time>
      </trkpt>
      <trkpt lat="47.4546" lon="6.72835">
        <ele>469</ele>
        <time>2016-02-28T10:49:23.000Z</time>
      </trkpt>
      <trkpt lat="47.45461" lon="6.72838">
        <ele>469</ele>
        <time>2016-02-28T10:49:24.000Z</time>
      </trkpt>
      <trkpt lat="47.45463" lon="6.72841">
        <ele>469</ele>
        <time>2016-02-28T10:49:25.000Z</time>
      </trkpt>
      <trkpt lat="47.45465" lon="6.72845">
        <ele>469</ele>
        <time>2016-02-28T10:49:26.000Z</time>
      </trkpt>
      <trkpt lat="47.45467" lon="6.72849">
        <ele>469</ele>
        <time>2016-02-28T10:49:27.000Z</time>
      </trkpt>
      <trkpt lat="47.45468" lon="6.72853">
        <ele>469</ele>
        <time>2016-02-28T10:49:28.000Z</time>
      </trkpt>
      <trkpt lat="47.45469" lon="6.72857">
        <ele>469</ele>
        <time>2016-02-28T10:49:29.000Z</time>
      </trkpt>
      <trkpt lat="47.4547" lon="6.72861">
        <ele>469</ele>
        <time>2016-02-28T10:49:30.000Z</time>
      </trkpt>
      <trkpt lat="47.4547" lon="6.72865">
        <ele>469</ele>
        <time>2016-02-28T10:49:31.000Z</time>
      </trkpt>
      <trkpt lat="47.45471" lon="6.72868">
        <ele>469</ele>
        <time>2016-02-28T10:49:32.000Z</time>
      </trkpt>
      <trkpt lat="47.45471" lon="6.72873">
        <ele>469</ele>
        <time>2016-02-28T10:49:33.000Z</time>
      </trkpt>
      <trkpt lat="47.45471" lon="6.72877">
        <ele>469</ele>
        <time>2016-02-28T10:49:34.000Z</time>
      </trkpt>
      <trkpt lat="47.45472" lon="6.7288">
        <ele>469</ele>
        <time>2016-02-28T10:49:35.000Z</time>
      </trkpt>
      <trkpt lat="47.45473" lon="6.72884">
        <ele>469</ele>
        <time>2016-02-28T10:49:36.000Z</time>
      </trkpt>
      <trkpt lat="47.45474" lon="6.72888">
        <ele>469</ele>
        <time>2016-02-28T10:49:37.000Z</time>
      </trkpt>
      <trkpt lat="47.45476" lon="6.72892">
        <ele>469</ele>
        <time>2016-02-28T10:49:38.000Z</time>
      </trkpt>
      <trkpt lat="47.45478" lon="6.72896">
        <ele>470</ele>
        <time>2016-02-28T10:49:39.000Z</time>
      </trkpt>
      <trkpt lat="47.45479" lon="6.729">
        <ele>470</ele>
        <time>2016-02-28T10:49:40.000Z</time>
      </trkpt>
      <trkpt lat="47.4548" lon="6.72903">
        <ele>470</ele>
        <time>2016-02-28T10:49:41.000Z</time>
      </trkpt>
      <trkpt lat="47.45482" lon="6.72907">
        <ele>470</ele>
        <time>2016-02-28T10:49:42.000Z</time>
      </trkpt>
      <trkpt lat="47.45483" lon="6.7291">
        <ele>470</ele>
        <time>2016-02-28T10:49:43.000Z</time>
      </trkpt>
      <trkpt lat="47.45485" lon="6.72913">
        <ele>470</ele>
        <time>2016-02-28T10:49:44.000Z</time>
      </trkpt>
      <trkpt lat="47.45487" lon="6.72917">
        <ele>470</ele>
        <time>2016-02-28T10:49:45.000Z</time>
      </trkpt>
      <trkpt lat="47.45489" lon="6.7292">
        <ele>470</ele>
        <time>2016-02-28T10:49:46.000Z</time>
      </trkpt>
      <trkpt lat="47.4549" lon="6.72924">
        <ele>470</ele>
        <time>2016-02-28T10:49:47.000Z</time>
      </trkpt>
      <trkpt lat="47.45492" lon="6.72929">
        <ele>470</ele>
        <time>2016-02-28T10:49:48.000Z</time>
      </trkpt>
      <trkpt lat="47.45494" lon="6.72934">
        <ele>470</ele>
        <time>2016-02-28T10:49:49.000Z</time>
      </trkpt>
      <trkpt lat="47.45496" lon="6.72939">
        <ele>470</ele>
        <time>2016-02-28T10:49:50.000Z</time>
      </trkpt>
      <trkpt lat="47.45498" lon="6.72943">
        <ele>470</ele>
        <time>2016-02-28T10:49:51.000Z</time>
      </trkpt>
      <trkpt lat="47.455" lon="6.72948">
        <ele>469</ele>
        <time>2016-02-28T10:49:52.000Z</time>
      </trkpt>
      <trkpt lat="47.45501" lon="6.72953">
        <ele>469</ele>
        <time>2016-02-28T10:49:53.000Z</time>
      </trkpt>
      <trkpt lat="47.45503" lon="6.72958">
        <ele>469</ele>
        <time>2016-02-28T10:49:54.000Z</time>
      </trkpt>
      <trkpt lat="47.45505" lon="6.72963">
        <ele>469</ele>
        <time>2016-02-28T10:49:55.000Z</time>
      </trkpt>
      <trkpt lat="47.45507" lon="6.72967">
        <ele>469</ele>
        <time>2016-02-28T10:49:56.000Z</time>
      </trkpt>
      <trkpt lat="47.45509" lon="6.7297">
        <ele>469</ele>
        <time>2016-02-28T10:49:57.000Z</time>
      </trkpt>
      <trkpt lat="47.45511" lon="6.72973">
        <ele>469</ele>
        <time>2016-02-28T10:49:58.000Z</time>
      </trkpt>
      <trkpt lat="47.45514" lon="6.72975">
        <ele>469</ele>
        <time>2016-02-28T10:49:59.000Z</time>
      </trkpt>
      <trkpt lat="47.45516" lon="6.72978">
        <ele>469</ele>
        <time>2016-02-28T10:50:00.000Z</time>
      </trkpt>
      <trkpt lat="47.45519" lon="6.72982">
        <ele>469</ele>
        <time>2016-02-28T10:50:01.000Z</time>
      </trkpt>
      <trkpt lat="47.45521" lon="6.72985">
        <ele>469</ele>
        <time>2016-02-28T10:50:02.000Z</time>
      </trkpt>
      <trkpt lat="47.45523" lon="6.72989">
        <ele>469</ele>
        <time>2016-02-28T10:50:03.000Z</time>
      </trkpt>
      <trkpt lat="47.45525" lon="6.72993">
        <ele>469</ele>
        <time>2016-02-28T10:50:04.000Z</time>
      </trkpt>
      <trkpt lat="47.45527" lon="6.72996">
        <ele>469</ele>
        <time>2016-02-28T10:50:05.000Z</time>
      </trkpt>
      <trkpt lat="47.45529" lon="6.73">
        <ele>469</ele>
        <time>2016-02-28T10:50:06.000Z</time>
      </trkpt>
      <trkpt lat="47.45531" lon="6.73004">
        <ele>469</ele>
        <time>2016-02-28T10:50:07.000Z</time>
      </trkpt>
      <trkpt lat="47.45532" lon="6.73008">
        <ele>469</ele>
        <time>2016-02-28T10:50:08.000Z</time>
      </trkpt>
      <trkpt lat="47.45533" lon="6.73011">
        <ele>469</ele>
        <time>2016-02-28T10:50:09.000Z</time>
      </trkpt>
      <trkpt lat="47.45534" lon="6.73014">
        <ele>469</ele>
        <time>2016-02-28T10:50:10.000Z</time>
      </trkpt>
      <trkpt lat="47.45535" lon="6.73017">
        <ele>469</ele>
        <time>2016-02-28T10:50:11.000Z</time>
      </trkpt>
      <trkpt lat="47.45537" lon="6.7302">
        <ele>469</ele>
        <time>2016-02-28T10:50:12.000Z</time>
      </trkpt>
      <trkpt lat="47.4554" lon="6.73024">
        <ele>469</ele>
        <time>2016-02-28T10:50:13.000Z</time>
      </trkpt>
      <trkpt lat="47.45543" lon="6.73029">
        <ele>469</ele>
        <time>2016-02-28T10:50:14.000Z</time>
      </trkpt>
      <trkpt lat="47.45545" lon="6.73033">
        <ele>469</ele>
        <time>2016-02-28T10:50:15.000Z</time>
      </trkpt>
      <trkpt lat="47.45547" lon="6.73037">
        <ele>469</ele>
        <time>2016-02-28T10:50:16.000Z</time>
      </trkpt>
      <trkpt lat="47.45547" lon="6.7304">
        <ele>469</ele>
        <time>2016-02-28T10:50:17.000Z</time>
      </trkpt>
      <trkpt lat="47.45548" lon="6.73044">
        <ele>469</ele>
        <time>2016-02-28T10:50:18.000Z</time>
      </trkpt>
      <trkpt lat="47.45549" lon="6.7305">
        <ele>469</ele>
        <time>2016-02-28T10:50:20.000Z</time>
      </trkpt>
      <trkpt lat="47.45551" lon="6.73053">
        <ele>469</ele>
        <time>2016-02-28T10:50:21.000Z</time>
      </trkpt>
      <trkpt lat="47.45553" lon="6.73055">
        <ele>469</ele>
        <time>2016-02-28T10:50:22.000Z</time>
      </trkpt>
      <trkpt lat="47.45556" lon="6.73057">
        <ele>469</ele>
        <time>2016-02-28T10:50:23.000Z</time>
      </trkpt>
      <trkpt lat="47.45559" lon="6.73058">
        <ele>469</ele>
        <time>2016-02-28T10:50:24.000Z</time>
      </trkpt>
      <trkpt lat="47.45563" lon="6.73059">
        <ele>469</ele>
        <time>2016-02-28T10:50:25.000Z</time>
      </trkpt>
      <trkpt lat="47.45566" lon="6.73061">
        <ele>469</ele>
        <time>2016-02-28T10:50:26.000Z</time>
      </trkpt>
      <trkpt lat="47.45569" lon="6.73063">
        <ele>469</ele>
        <time>2016-02-28T10:50:27.000Z</time>
      </trkpt>
      <trkpt lat="47.45571" lon="6.73066">
        <ele>469</ele>
        <time>2016-02-28T10:50:28.000Z</time>
      </trkpt>
      <trkpt lat="47.45573" lon="6.7307">
        <ele>469</ele>
        <time>2016-02-28T10:50:29.000Z</time>
      </trkpt>
      <trkpt lat="47.45575" lon="6.73074">
        <ele>469</ele>
        <time>2016-02-28T10:50:30.000Z</time>
      </trkpt>
      <trkpt lat="47.45576" lon="6.73078">
        <ele>469</ele>
        <time>2016-02-28T10:50:31.000Z</time>
      </trkpt>
      <trkpt lat="47.45577" lon="6.73082">
        <ele>470</ele>
        <time>2016-02-28T10:50:32.000Z</time>
      </trkpt>
      <trkpt lat="47.45577" lon="6.73085">
        <ele>469</ele>
        <time>2016-02-28T10:50:33.000Z</time>
      </trkpt>
      <trkpt lat="47.45574" lon="6.73089">
        <ele>469</ele>
        <time>2016-02-28T10:50:35.000Z</time>
      </trkpt>
      <trkpt lat="47.45573" lon="6.73092">
        <ele>469</ele>
        <time>2016-02-28T10:50:36.000Z</time>
      </trkpt>
      <trkpt lat="47.45572" lon="6.73096">
        <ele>469</ele>
        <time>2016-02-28T10:50:37.000Z</time>
      </trkpt>
      <trkpt lat="47.45572" lon="6.73101">
        <ele>469</ele>
        <time>2016-02-28T10:50:38.000Z</time>
      </trkpt>
      <trkpt lat="47.45573" lon="6.73107">
        <ele>468</ele>
        <time>2016-02-28T10:50:39.000Z</time>
      </trkpt>
      <trkpt lat="47.45573" lon="6.73113">
        <ele>468</ele>
        <time>2016-02-28T10:50:40.000Z</time>
      </trkpt>
      <trkpt lat="47.45574" lon="6.73118">
        <ele>468</ele>
        <time>2016-02-28T10:50:41.000Z</time>
      </trkpt>
      <trkpt lat="47.45574" lon="6.73123">
        <ele>468</ele>
        <time>2016-02-28T10:50:42.000Z</time>
      </trkpt>
      <trkpt lat="47.45574" lon="6.73128">
        <ele>468</ele>
        <time>2016-02-28T10:50:43.000Z</time>
      </trkpt>
      <trkpt lat="47.45575" lon="6.73132">
        <ele>468</ele>
        <time>2016-02-28T10:50:44.000Z</time>
      </trkpt>
      <trkpt lat="47.45575" lon="6.73137">
        <ele>468</ele>
        <time>2016-02-28T10:50:45.000Z</time>
      </trkpt>
      <trkpt lat="47.45574" lon="6.73141">
        <ele>469</ele>
        <time>2016-02-28T10:50:46.000Z</time>
      </trkpt>
      <trkpt lat="47.45574" lon="6.73146">
        <ele>469</ele>
        <time>2016-02-28T10:50:47.000Z</time>
      </trkpt>
      <trkpt lat="47.45575" lon="6.73152">
        <ele>469</ele>
        <time>2016-02-28T10:50:48.000Z</time>
      </trkpt>
      <trkpt lat="47.45575" lon="6.73158">
        <ele>469</ele>
        <time>2016-02-28T10:50:49.000Z</time>
      </trkpt>
      <trkpt lat="47.45576" lon="6.73164">
        <ele>470</ele>
        <time>2016-02-28T10:50:50.000Z</time>
      </trkpt>
      <trkpt lat="47.45577" lon="6.7317">
        <ele>469</ele>
        <time>2016-02-28T10:50:51.000Z</time>
      </trkpt>
      <trkpt lat="47.45577" lon="6.73177">
        <ele>469</ele>
        <time>2016-02-28T10:50:52.000Z</time>
      </trkpt>
      <trkpt lat="47.45578" lon="6.73184">
        <ele>468</ele>
        <time>2016-02-28T10:50:53.000Z</time>
      </trkpt>
      <trkpt lat="47.45579" lon="6.7319">
        <ele>468</ele>
        <time>2016-02-28T10:50:54.000Z</time>
      </trkpt>
      <trkpt lat="47.4558" lon="6.73195">
        <ele>467</ele>
        <time>2016-02-28T10:50:55.000Z</time>
      </trkpt>
      <trkpt lat="47.4558" lon="6.732">
        <ele>467</ele>
        <time>2016-02-28T10:50:56.000Z</time>
      </trkpt>
      <trkpt lat="47.45579" lon="6.73205">
        <ele>467</ele>
        <time>2016-02-28T10:50:57.000Z</time>
      </trkpt>
      <trkpt lat="47.45578" lon="6.73209">
        <ele>467</ele>
        <time>2016-02-28T10:50:58.000Z</time>
      </trkpt>
      <trkpt lat="47.45576" lon="6.73213">
        <ele>466</ele>
        <time>2016-02-28T10:50:59.000Z</time>
      </trkpt>
      <trkpt lat="47.45573" lon="6.73216">
        <ele>466</ele>
        <time>2016-02-28T10:51:00.000Z</time>
      </trkpt>
      <trkpt lat="47.45571" lon="6.73219">
        <ele>466</ele>
        <time>2016-02-28T10:51:01.000Z</time>
      </trkpt>
      <trkpt lat="47.45568" lon="6.73223">
        <ele>466</ele>
        <time>2016-02-28T10:51:02.000Z</time>
      </trkpt>
      <trkpt lat="47.45566" lon="6.73226">
        <ele>466</ele>
        <time>2016-02-28T10:51:03.000Z</time>
      </trkpt>
      <trkpt lat="47.45563" lon="6.7323">
        <ele>466</ele>
        <time>2016-02-28T10:51:04.000Z</time>
      </trkpt>
      <trkpt lat="47.4556" lon="6.73234">
        <ele>466</ele>
        <time>2016-02-28T10:51:05.000Z</time>
      </trkpt>
      <trkpt lat="47.45556" lon="6.73239">
        <ele>466</ele>
        <time>2016-02-28T10:51:06.000Z</time>
      </trkpt>
      <trkpt lat="47.45552" lon="6.73243">
        <ele>465</ele>
        <time>2016-02-28T10:51:07.000Z</time>
      </trkpt>
      <trkpt lat="47.45547" lon="6.73247">
        <ele>465</ele>
        <time>2016-02-28T10:51:08.000Z</time>
      </trkpt>
      <trkpt lat="47.45542" lon="6.73252">
        <ele>463</ele>
        <time>2016-02-28T10:51:09.000Z</time>
      </trkpt>
      <trkpt lat="47.45537" lon="6.73257">
        <ele>463</ele>
        <time>2016-02-28T10:51:10.000Z</time>
      </trkpt>
      <trkpt lat="47.45533" lon="6.73261">
        <ele>463</ele>
        <time>2016-02-28T10:51:11.000Z</time>
      </trkpt>
      <trkpt lat="47.45528" lon="6.73264">
        <ele>463</ele>
        <time>2016-02-28T10:51:12.000Z</time>
      </trkpt>
      <trkpt lat="47.45523" lon="6.73266">
        <ele>463</ele>
        <time>2016-02-28T10:51:13.000Z</time>
      </trkpt>
      <trkpt lat="47.45519" lon="6.73269">
        <ele>463</ele>
        <time>2016-02-28T10:51:14.000Z</time>
      </trkpt>
      <trkpt lat="47.45515" lon="6.73271">
        <ele>462</ele>
        <time>2016-02-28T10:51:15.000Z</time>
      </trkpt>
      <trkpt lat="47.45512" lon="6.73275">
        <ele>462</ele>
        <time>2016-02-28T10:51:16.000Z</time>
      </trkpt>
      <trkpt lat="47.45509" lon="6.7328">
        <ele>463</ele>
        <time>2016-02-28T10:51:17.000Z</time>
      </trkpt>
      <trkpt lat="47.45506" lon="6.73285">
        <ele>463</ele>
        <time>2016-02-28T10:51:18.000Z</time>
      </trkpt>
      <trkpt lat="47.45503" lon="6.7329">
        <ele>463</ele>
        <time>2016-02-28T10:51:19.000Z</time>
      </trkpt>
      <trkpt lat="47.455" lon="6.73295">
        <ele>462</ele>
        <time>2016-02-28T10:51:20.000Z</time>
      </trkpt>
      <trkpt lat="47.45496" lon="6.733">
        <ele>462</ele>
        <time>2016-02-28T10:51:21.000Z</time>
      </trkpt>
      <trkpt lat="47.45492" lon="6.73304">
        <ele>462</ele>
        <time>2016-02-28T10:51:22.000Z</time>
      </trkpt>
      <trkpt lat="47.45488" lon="6.73307">
        <ele>462</ele>
        <time>2016-02-28T10:51:23.000Z</time>
      </trkpt>
      <trkpt lat="47.45483" lon="6.73309">
        <ele>462</ele>
        <time>2016-02-28T10:51:24.000Z</time>
      </trkpt>
      <trkpt lat="47.45478" lon="6.73311">
        <ele>462</ele>
        <time>2016-02-28T10:51:25.000Z</time>
      </trkpt>
      <trkpt lat="47.45475" lon="6.73314">
        <ele>462</ele>
        <time>2016-02-28T10:51:26.000Z</time>
      </trkpt>
      <trkpt lat="47.45473" lon="6.73318">
        <ele>462</ele>
        <time>2016-02-28T10:51:27.000Z</time>
      </trkpt>
      <trkpt lat="47.45472" lon="6.73322">
        <ele>463</ele>
        <time>2016-02-28T10:51:28.000Z</time>
      </trkpt>
      <trkpt lat="47.45472" lon="6.73327">
        <ele>463</ele>
        <time>2016-02-28T10:51:29.000Z</time>
      </trkpt>
      <trkpt lat="47.45473" lon="6.73332">
        <ele>463</ele>
        <time>2016-02-28T10:51:30.000Z</time>
      </trkpt>
      <trkpt lat="47.45474" lon="6.73337">
        <ele>464</ele>
        <time>2016-02-28T10:51:31.000Z</time>
      </trkpt>
      <trkpt lat="47.45475" lon="6.73342">
        <ele>464</ele>
        <time>2016-02-28T10:51:32.000Z</time>
      </trkpt>
      <trkpt lat="47.45475" lon="6.73347">
        <ele>464</ele>
        <time>2016-02-28T10:51:33.000Z</time>
      </trkpt>
      <trkpt lat="47.45473" lon="6.73351">
        <ele>464</ele>
        <time>2016-02-28T10:51:34.000Z</time>
      </trkpt>
      <trkpt lat="47.4547" lon="6.73355">
        <ele>464</ele>
        <time>2016-02-28T10:51:35.000Z</time>
      </trkpt>
      <trkpt lat="47.45468" lon="6.7336">
        <ele>464</ele>
        <time>2016-02-28T10:51:36.000Z</time>
      </trkpt>
      <trkpt lat="47.45466" lon="6.73365">
        <ele>464</ele>
        <time>2016-02-28T10:51:37.000Z</time>
      </trkpt>
      <trkpt lat="47.45464" lon="6.7337">
        <ele>464</ele>
        <time>2016-02-28T10:51:38.000Z</time>
      </trkpt>
      <trkpt lat="47.45463" lon="6.73375">
        <ele>464</ele>
        <time>2016-02-28T10:51:39.000Z</time>
      </trkpt>
      <trkpt lat="47.45462" lon="6.73379">
        <ele>464</ele>
        <time>2016-02-28T10:51:40.000Z</time>
      </trkpt>
      <trkpt lat="47.45461" lon="6.73384">
        <ele>464</ele>
        <time>2016-02-28T10:51:41.000Z</time>
      </trkpt>
      <trkpt lat="47.45461" lon="6.73388">
        <ele>464</ele>
        <time>2016-02-28T10:51:42.000Z</time>
      </trkpt>
      <trkpt lat="47.45461" lon="6.73392">
        <ele>464</ele>
        <time>2016-02-28T10:51:43.000Z</time>
      </trkpt>
      <trkpt lat="47.45461" lon="6.73397">
        <ele>464</ele>
        <time>2016-02-28T10:51:44.000Z</time>
      </trkpt>
      <trkpt lat="47.45461" lon="6.73403">
        <ele>464</ele>
        <time>2016-02-28T10:51:45.000Z</time>
      </trkpt>
      <trkpt lat="47.45461" lon="6.73408">
        <ele>464</ele>
        <time>2016-02-28T10:51:46.000Z</time>
      </trkpt>
      <trkpt lat="47.45462" lon="6.73415">
        <ele>464</ele>
        <time>2016-02-28T10:51:47.000Z</time>
      </trkpt>
      <trkpt lat="47.45462" lon="6.7342">
        <ele>465</ele>
        <time>2016-02-28T10:51:48.000Z</time>
      </trkpt>
      <trkpt lat="47.45462" lon="6.73426">
        <ele>465</ele>
        <time>2016-02-28T10:51:49.000Z</time>
      </trkpt>
      <trkpt lat="47.45462" lon="6.73432">
        <ele>465</ele>
        <time>2016-02-28T10:51:50.000Z</time>
      </trkpt>
      <trkpt lat="47.45462" lon="6.73438">
        <ele>465</ele>
        <time>2016-02-28T10:51:51.000Z</time>
      </trkpt>
      <trkpt lat="47.45462" lon="6.73445">
        <ele>465</ele>
        <time>2016-02-28T10:51:52.000Z</time>
      </trkpt>
      <trkpt lat="47.45462" lon="6.73451">
        <ele>465</ele>
        <time>2016-02-28T10:51:53.000Z</time>
      </trkpt>
      <trkpt lat="47.45461" lon="6.73458">
        <ele>465</ele>
        <time>2016-02-28T10:51:54.000Z</time>
      </trkpt>
      <trkpt lat="47.4546" lon="6.73465">
        <ele>465</ele>
        <time>2016-02-28T10:51:55.000Z</time>
      </trkpt>
      <trkpt lat="47.4546" lon="6.73473">
        <ele>465</ele>
        <time>2016-02-28T10:51:56.000Z</time>
      </trkpt>
      <trkpt lat="47.4546" lon="6.73481">
        <ele>465</ele>
        <time>2016-02-28T10:51:57.000Z</time>
      </trkpt>
      <trkpt lat="47.4546" lon="6.7349">
        <ele>465</ele>
        <time>2016-02-28T10:51:58.000Z</time>
      </trkpt>
      <trkpt lat="47.45462" lon="6.73513">
        <ele>464</ele>
        <time>2016-02-28T10:51:59.000Z</time>
      </trkpt>
      <trkpt lat="47.45462" lon="6.73525">
        <ele>464</ele>
        <time>2016-02-28T10:52:00.000Z</time>
      </trkpt>
      <trkpt lat="47.45464" lon="6.73537">
        <ele>464</ele>
        <time>2016-02-28T10:52:01.000Z</time>
      </trkpt>
      <trkpt lat="47.45464" lon="6.73545">
        <ele>464</ele>
        <time>2016-02-28T10:52:02.000Z</time>
      </trkpt>
      <trkpt lat="47.45465" lon="6.73553">
        <ele>464</ele>
        <time>2016-02-28T10:52:03.000Z</time>
      </trkpt>
      <trkpt lat="47.45465" lon="6.73558">
        <ele>464</ele>
        <time>2016-02-28T10:52:04.000Z</time>
      </trkpt>
      <trkpt lat="47.45466" lon="6.73561">
        <ele>464</ele>
        <time>2016-02-28T10:52:05.000Z</time>
      </trkpt>
      <trkpt lat="47.45466" lon="6.73568">
        <ele>464</ele>
        <time>2016-02-28T10:52:06.000Z</time>
      </trkpt>
      <trkpt lat="47.45466" lon="6.73573">
        <ele>464</ele>
        <time>2016-02-28T10:52:07.000Z</time>
      </trkpt>
      <trkpt lat="47.45467" lon="6.73576">
        <ele>464</ele>
        <time>2016-02-28T10:52:08.000Z</time>
      </trkpt>
      <trkpt lat="47.45466" lon="6.73581">
        <ele>464</ele>
        <time>2016-02-28T10:52:09.000Z</time>
      </trkpt>
      <trkpt lat="47.45466" lon="6.73586">
        <ele>463</ele>
        <time>2016-02-28T10:52:10.000Z</time>
      </trkpt>
      <trkpt lat="47.45467" lon="6.73591">
        <ele>463</ele>
        <time>2016-02-28T10:52:11.000Z</time>
      </trkpt>
      <trkpt lat="47.45468" lon="6.73595">
        <ele>463</ele>
        <time>2016-02-28T10:52:12.000Z</time>
      </trkpt>
      <trkpt lat="47.45469" lon="6.73599">
        <ele>463</ele>
        <time>2016-02-28T10:52:13.000Z</time>
      </trkpt>
      <trkpt lat="47.4547" lon="6.73604">
        <ele>463</ele>
        <time>2016-02-28T10:52:14.000Z</time>
      </trkpt>
      <trkpt lat="47.45472" lon="6.7361">
        <ele>463</ele>
        <time>2016-02-28T10:52:15.000Z</time>
      </trkpt>
      <trkpt lat="47.45475" lon="6.73616">
        <ele>462</ele>
        <time>2016-02-28T10:52:16.000Z</time>
      </trkpt>
      <trkpt lat="47.45477" lon="6.73622">
        <ele>462</ele>
        <time>2016-02-28T10:52:17.000Z</time>
      </trkpt>
      <trkpt lat="47.45479" lon="6.73628">
        <ele>462</ele>
        <time>2016-02-28T10:52:18.000Z</time>
      </trkpt>
      <trkpt lat="47.45482" lon="6.73634">
        <ele>462</ele>
        <time>2016-02-28T10:52:19.000Z</time>
      </trkpt>
      <trkpt lat="47.45484" lon="6.7364">
        <ele>462</ele>
        <time>2016-02-28T10:52:20.000Z</time>
      </trkpt>
      <trkpt lat="47.45487" lon="6.73645">
        <ele>462</ele>
        <time>2016-02-28T10:52:21.000Z</time>
      </trkpt>
      <trkpt lat="47.4549" lon="6.73649">
        <ele>462</ele>
        <time>2016-02-28T10:52:22.000Z</time>
      </trkpt>
      <trkpt lat="47.45494" lon="6.73653">
        <ele>462</ele>
        <time>2016-02-28T10:52:23.000Z</time>
      </trkpt>
      <trkpt lat="47.45499" lon="6.73655">
        <ele>462</ele>
        <time>2016-02-28T10:52:24.000Z</time>
      </trkpt>
      <trkpt lat="47.45503" lon="6.73657">
        <ele>462</ele>
        <time>2016-02-28T10:52:25.000Z</time>
      </trkpt>
      <trkpt lat="47.45506" lon="6.73659">
        <ele>462</ele>
        <time>2016-02-28T10:52:26.000Z</time>
      </trkpt>
      <trkpt lat="47.45509" lon="6.73662">
        <ele>462</ele>
        <time>2016-02-28T10:52:27.000Z</time>
      </trkpt>
      <trkpt lat="47.45511" lon="6.73664">
        <ele>462</ele>
        <time>2016-02-28T10:52:28.000Z</time>
      </trkpt>
      <trkpt lat="47.45514" lon="6.73666">
        <ele>462</ele>
        <time>2016-02-28T10:52:29.000Z</time>
      </trkpt>
      <trkpt lat="47.45517" lon="6.73667">
        <ele>462</ele>
        <time>2016-02-28T10:52:30.000Z</time>
      </trkpt>
      <trkpt lat="47.4552" lon="6.73669">
        <ele>462</ele>
        <time>2016-02-28T10:52:31.000Z</time>
      </trkpt>
      <trkpt lat="47.45523" lon="6.7367">
        <ele>461</ele>
        <time>2016-02-28T10:52:32.000Z</time>
      </trkpt>
      <trkpt lat="47.45526" lon="6.73672">
        <ele>461</ele>
        <time>2016-02-28T10:52:33.000Z</time>
      </trkpt>
      <trkpt lat="47.4553" lon="6.73673">
        <ele>461</ele>
        <time>2016-02-28T10:52:34.000Z</time>
      </trkpt>
      <trkpt lat="47.45533" lon="6.73674">
        <ele>461</ele>
        <time>2016-02-28T10:52:35.000Z</time>
      </trkpt>
      <trkpt lat="47.45536" lon="6.73675">
        <ele>461</ele>
        <time>2016-02-28T10:52:36.000Z</time>
      </trkpt>
      <trkpt lat="47.4554" lon="6.73676">
        <ele>461</ele>
        <time>2016-02-28T10:52:37.000Z</time>
      </trkpt>
      <trkpt lat="47.45543" lon="6.73677">
        <ele>461</ele>
        <time>2016-02-28T10:52:38.000Z</time>
      </trkpt>
      <trkpt lat="47.45547" lon="6.73677">
        <ele>461</ele>
        <time>2016-02-28T10:52:39.000Z</time>
      </trkpt>
      <trkpt lat="47.4555" lon="6.73677">
        <ele>461</ele>
        <time>2016-02-28T10:52:40.000Z</time>
      </trkpt>
      <trkpt lat="47.45554" lon="6.73678">
        <ele>461</ele>
        <time>2016-02-28T10:52:41.000Z</time>
      </trkpt>
      <trkpt lat="47.45557" lon="6.73678">
        <ele>461</ele>
        <time>2016-02-28T10:52:42.000Z</time>
      </trkpt>
      <trkpt lat="47.45559" lon="6.73679">
        <ele>461</ele>
        <time>2016-02-28T10:52:43.000Z</time>
      </trkpt>
      <trkpt lat="47.45562" lon="6.7368">
        <ele>461</ele>
        <time>2016-02-28T10:52:44.000Z</time>
      </trkpt>
      <trkpt lat="47.45564" lon="6.73682">
        <ele>461</ele>
        <time>2016-02-28T10:52:45.000Z</time>
      </trkpt>
      <trkpt lat="47.45566" lon="6.73683">
        <ele>461</ele>
        <time>2016-02-28T10:52:46.000Z</time>
      </trkpt>
      <trkpt lat="47.45569" lon="6.73687">
        <ele>461</ele>
        <time>2016-02-28T10:52:48.000Z</time>
      </trkpt>
      <trkpt lat="47.45571" lon="6.73689">
        <ele>461</ele>
        <time>2016-02-28T10:52:49.000Z</time>
      </trkpt>
      <trkpt lat="47.45573" lon="6.7369">
        <ele>461</ele>
        <time>2016-02-28T10:52:50.000Z</time>
      </trkpt>
      <trkpt lat="47.45575" lon="6.73691">
        <ele>461</ele>
        <time>2016-02-28T10:52:51.000Z</time>
      </trkpt>
      <trkpt lat="47.45579" lon="6.73691">
        <ele>461</ele>
        <time>2016-02-28T10:52:52.000Z</time>
      </trkpt>
      <trkpt lat="47.45583" lon="6.7369">
        <ele>461</ele>
        <time>2016-02-28T10:52:53.000Z</time>
      </trkpt>
      <trkpt lat="47.45587" lon="6.7369">
        <ele>459</ele>
        <time>2016-02-28T10:52:54.000Z</time>
      </trkpt>
      <trkpt lat="47.4559" lon="6.73691">
        <ele>458</ele>
        <time>2016-02-28T10:52:55.000Z</time>
      </trkpt>
      <trkpt lat="47.45593" lon="6.73692">
        <ele>458</ele>
        <time>2016-02-28T10:52:56.000Z</time>
      </trkpt>
      <trkpt lat="47.45595" lon="6.73692">
        <ele>458</ele>
        <time>2016-02-28T10:52:57.000Z</time>
      </trkpt>
      <trkpt lat="47.45598" lon="6.73693">
        <ele>458</ele>
        <time>2016-02-28T10:52:58.000Z</time>
      </trkpt>
      <trkpt lat="47.45601" lon="6.73694">
        <ele>458</ele>
        <time>2016-02-28T10:52:59.000Z</time>
      </trkpt>
      <trkpt lat="47.45603" lon="6.73695">
        <ele>458</ele>
        <time>2016-02-28T10:53:00.000Z</time>
      </trkpt>
      <trkpt lat="47.45606" lon="6.73696">
        <ele>458</ele>
        <time>2016-02-28T10:53:01.000Z</time>
      </trkpt>
      <trkpt lat="47.45608" lon="6.73696">
        <ele>458</ele>
        <time>2016-02-28T10:53:02.000Z</time>
      </trkpt>
      <trkpt lat="47.45611" lon="6.73696">
        <ele>458</ele>
        <time>2016-02-28T10:53:03.000Z</time>
      </trkpt>
      <trkpt lat="47.45614" lon="6.73696">
        <ele>457</ele>
        <time>2016-02-28T10:53:04.000Z</time>
      </trkpt>
      <trkpt lat="47.45617" lon="6.73696">
        <ele>457</ele>
        <time>2016-02-28T10:53:05.000Z</time>
      </trkpt>
      <trkpt lat="47.45619" lon="6.73697">
        <ele>457</ele>
        <time>2016-02-28T10:53:06.000Z</time>
      </trkpt>
      <trkpt lat="47.45622" lon="6.73699">
        <ele>457</ele>
        <time>2016-02-28T10:53:07.000Z</time>
      </trkpt>
      <trkpt lat="47.45624" lon="6.737">
        <ele>457</ele>
        <time>2016-02-28T10:53:08.000Z</time>
      </trkpt>
      <trkpt lat="47.45626" lon="6.73702">
        <ele>457</ele>
        <time>2016-02-28T10:53:09.000Z</time>
      </trkpt>
      <trkpt lat="47.45629" lon="6.73706">
        <ele>457</ele>
        <time>2016-02-28T10:53:11.000Z</time>
      </trkpt>
      <trkpt lat="47.45631" lon="6.73708">
        <ele>457</ele>
        <time>2016-02-28T10:53:12.000Z</time>
      </trkpt>
      <trkpt lat="47.45633" lon="6.73713">
        <ele>457</ele>
        <time>2016-02-28T10:53:15.000Z</time>
      </trkpt>
      <trkpt lat="47.45633" lon="6.73715">
        <ele>457</ele>
        <time>2016-02-28T10:53:16.000Z</time>
      </trkpt>
      <trkpt lat="47.45632" lon="6.7372">
        <ele>457</ele>
        <time>2016-02-28T10:53:18.000Z</time>
      </trkpt>
      <trkpt lat="47.45631" lon="6.73722">
        <ele>457</ele>
        <time>2016-02-28T10:53:19.000Z</time>
      </trkpt>
      <trkpt lat="47.45628" lon="6.73727">
        <ele>457</ele>
        <time>2016-02-28T10:53:21.000Z</time>
      </trkpt>
      <trkpt lat="47.45627" lon="6.7373">
        <ele>457</ele>
        <time>2016-02-28T10:53:22.000Z</time>
      </trkpt>
      <trkpt lat="47.45625" lon="6.73734">
        <ele>457</ele>
        <time>2016-02-28T10:53:23.000Z</time>
      </trkpt>
      <trkpt lat="47.45624" lon="6.73737">
        <ele>457</ele>
        <time>2016-02-28T10:53:24.000Z</time>
      </trkpt>
      <trkpt lat="47.45624" lon="6.73741">
        <ele>457</ele>
        <time>2016-02-28T10:53:25.000Z</time>
      </trkpt>
      <trkpt lat="47.45623" lon="6.73744">
        <ele>457</ele>
        <time>2016-02-28T10:53:26.000Z</time>
      </trkpt>
      <trkpt lat="47.45622" lon="6.73748">
        <ele>457</ele>
        <time>2016-02-28T10:53:27.000Z</time>
      </trkpt>
      <trkpt lat="47.45621" lon="6.73751">
        <ele>457</ele>
        <time>2016-02-28T10:53:28.000Z</time>
      </trkpt>
      <trkpt lat="47.4562" lon="6.73754">
        <ele>457</ele>
        <time>2016-02-28T10:53:29.000Z</time>
      </trkpt>
      <trkpt lat="47.45619" lon="6.73757">
        <ele>457</ele>
        <time>2016-02-28T10:53:30.000Z</time>
      </trkpt>
      <trkpt lat="47.45618" lon="6.7376">
        <ele>457</ele>
        <time>2016-02-28T10:53:31.000Z</time>
      </trkpt>
      <trkpt lat="47.45617" lon="6.73764">
        <ele>457</ele>
        <time>2016-02-28T10:53:32.000Z</time>
      </trkpt>
      <trkpt lat="47.45616" lon="6.73767">
        <ele>457</ele>
        <time>2016-02-28T10:53:33.000Z</time>
      </trkpt>
      <trkpt lat="47.45615" lon="6.7377">
        <ele>457</ele>
        <time>2016-02-28T10:53:34.000Z</time>
      </trkpt>
      <trkpt lat="47.45613" lon="6.73773">
        <ele>457</ele>
        <time>2016-02-28T10:53:35.000Z</time>
      </trkpt>
      <trkpt lat="47.45612" lon="6.73778">
        <ele>457</ele>
        <time>2016-02-28T10:53:36.000Z</time>
      </trkpt>
      <trkpt lat="47.45611" lon="6.73783">
        <ele>457</ele>
        <time>2016-02-28T10:53:37.000Z</time>
      </trkpt>
      <trkpt lat="47.4561" lon="6.73788">
        <ele>457</ele>
        <time>2016-02-28T10:53:38.000Z</time>
      </trkpt>
      <trkpt lat="47.4561" lon="6.73793">
        <ele>457</ele>
        <time>2016-02-28T10:53:39.000Z</time>
      </trkpt>
      <trkpt lat="47.45609" lon="6.73798">
        <ele>457</ele>
        <time>2016-02-28T10:53:40.000Z</time>
      </trkpt>
      <trkpt lat="47.45608" lon="6.73802">
        <ele>457</ele>
        <time>2016-02-28T10:53:41.000Z</time>
      </trkpt>
      <trkpt lat="47.45608" lon="6.73807">
        <ele>457</ele>
        <time>2016-02-28T10:53:42.000Z</time>
      </trkpt>
      <trkpt lat="47.45608" lon="6.73811">
        <ele>457</ele>
        <time>2016-02-28T10:53:43.000Z</time>
      </trkpt>
      <trkpt lat="47.45607" lon="6.73816">
        <ele>457</ele>
        <time>2016-02-28T10:53:44.000Z</time>
      </trkpt>
      <trkpt lat="47.45607" lon="6.73821">
        <ele>457</ele>
        <time>2016-02-28T10:53:45.000Z</time>
      </trkpt>
      <trkpt lat="47.45606" lon="6.73825">
        <ele>457</ele>
        <time>2016-02-28T10:53:46.000Z</time>
      </trkpt>
      <trkpt lat="47.45606" lon="6.73829">
        <ele>457</ele>
        <time>2016-02-28T10:53:47.000Z</time>
      </trkpt>
      <trkpt lat="47.45605" lon="6.73833">
        <ele>457</ele>
        <time>2016-02-28T10:53:48.000Z</time>
      </trkpt>
      <trkpt lat="47.45605" lon="6.73836">
        <ele>457</ele>
        <time>2016-02-28T10:53:49.000Z</time>
      </trkpt>
      <trkpt lat="47.45605" lon="6.73841">
        <ele>457</ele>
        <time>2016-02-28T10:53:50.000Z</time>
      </trkpt>
      <trkpt lat="47.45605" lon="6.73844">
        <ele>457</ele>
        <time>2016-02-28T10:53:51.000Z</time>
      </trkpt>
      <trkpt lat="47.45605" lon="6.73848">
        <ele>457</ele>
        <time>2016-02-28T10:53:52.000Z</time>
      </trkpt>
      <trkpt lat="47.45605" lon="6.73852">
        <ele>457</ele>
        <time>2016-02-28T10:53:53.000Z</time>
      </trkpt>
      <trkpt lat="47.45606" lon="6.73855">
        <ele>456</ele>
        <time>2016-02-28T10:53:54.000Z</time>
      </trkpt>
      <trkpt lat="47.45608" lon="6.73859">
        <ele>456</ele>
        <time>2016-02-28T10:53:55.000Z</time>
      </trkpt>
      <trkpt lat="47.45609" lon="6.73863">
        <ele>456</ele>
        <time>2016-02-28T10:53:56.000Z</time>
      </trkpt>
      <trkpt lat="47.45612" lon="6.7387">
        <ele>456</ele>
        <time>2016-02-28T10:53:57.000Z</time>
      </trkpt>
      <trkpt lat="47.45615" lon="6.73876">
        <ele>456</ele>
        <time>2016-02-28T10:53:58.000Z</time>
      </trkpt>
      <trkpt lat="47.45618" lon="6.73883">
        <ele>456</ele>
        <time>2016-02-28T10:53:59.000Z</time>
      </trkpt>
      <trkpt lat="47.45621" lon="6.7389">
        <ele>456</ele>
        <time>2016-02-28T10:54:00.000Z</time>
      </trkpt>
      <trkpt lat="47.45624" lon="6.73896">
        <ele>456</ele>
        <time>2016-02-28T10:54:01.000Z</time>
      </trkpt>
      <trkpt lat="47.45628" lon="6.73902">
        <ele>455</ele>
        <time>2016-02-28T10:54:02.000Z</time>
      </trkpt>
      <trkpt lat="47.45631" lon="6.73909">
        <ele>455</ele>
        <time>2016-02-28T10:54:03.000Z</time>
      </trkpt>
      <trkpt lat="47.45638" lon="6.73924">
        <ele>455</ele>
        <time>2016-02-28T10:54:04.000Z</time>
      </trkpt>
      <trkpt lat="47.45641" lon="6.73932">
        <ele>455</ele>
        <time>2016-02-28T10:54:05.000Z</time>
      </trkpt>
      <trkpt lat="47.45643" lon="6.73938">
        <ele>455</ele>
        <time>2016-02-28T10:54:06.000Z</time>
      </trkpt>
      <trkpt lat="47.45646" lon="6.73945">
        <ele>455</ele>
        <time>2016-02-28T10:54:07.000Z</time>
      </trkpt>
      <trkpt lat="47.4565" lon="6.73954">
        <ele>455</ele>
        <time>2016-02-28T10:54:08.000Z</time>
      </trkpt>
      <trkpt lat="47.45659" lon="6.73961">
        <ele>455</ele>
        <time>2016-02-28T10:54:09.000Z</time>
      </trkpt>
      <trkpt lat="47.45663" lon="6.73965">
        <ele>455</ele>
        <time>2016-02-28T10:54:10.000Z</time>
      </trkpt>
      <trkpt lat="47.45667" lon="6.73973">
        <ele>450</ele>
        <time>2016-02-28T10:54:11.000Z</time>
      </trkpt>
      <trkpt lat="47.45672" lon="6.73979">
        <ele>450</ele>
        <time>2016-02-28T10:54:12.000Z</time>
      </trkpt>
      <trkpt lat="47.45676" lon="6.73985">
        <ele>450</ele>
        <time>2016-02-28T10:54:13.000Z</time>
      </trkpt>
      <trkpt lat="47.45677" lon="6.73991">
        <ele>451</ele>
        <time>2016-02-28T10:54:14.000Z</time>
      </trkpt>
      <trkpt lat="47.45678" lon="6.73997">
        <ele>451</ele>
        <time>2016-02-28T10:54:15.000Z</time>
      </trkpt>
      <trkpt lat="47.45679" lon="6.74004">
        <ele>450</ele>
        <time>2016-02-28T10:54:16.000Z</time>
      </trkpt>
      <trkpt lat="47.45681" lon="6.74008">
        <ele>449</ele>
        <time>2016-02-28T10:54:17.000Z</time>
      </trkpt>
      <trkpt lat="47.45687" lon="6.74012">
        <ele>448</ele>
        <time>2016-02-28T10:54:18.000Z</time>
      </trkpt>
      <trkpt lat="47.4569" lon="6.74015">
        <ele>448</ele>
        <time>2016-02-28T10:54:19.000Z</time>
      </trkpt>
      <trkpt lat="47.45694" lon="6.74019">
        <ele>447</ele>
        <time>2016-02-28T10:54:20.000Z</time>
      </trkpt>
      <trkpt lat="47.45697" lon="6.74021">
        <ele>447</ele>
        <time>2016-02-28T10:54:21.000Z</time>
      </trkpt>
      <trkpt lat="47.457" lon="6.74027">
        <ele>447</ele>
        <time>2016-02-28T10:54:22.000Z</time>
      </trkpt>
      <trkpt lat="47.45703" lon="6.74032">
        <ele>446</ele>
        <time>2016-02-28T10:54:23.000Z</time>
      </trkpt>
      <trkpt lat="47.45707" lon="6.74036">
        <ele>446</ele>
        <time>2016-02-28T10:54:24.000Z</time>
      </trkpt>
      <trkpt lat="47.4571" lon="6.74041">
        <ele>445</ele>
        <time>2016-02-28T10:54:25.000Z</time>
      </trkpt>
      <trkpt lat="47.45714" lon="6.74045">
        <ele>445</ele>
        <time>2016-02-28T10:54:26.000Z</time>
      </trkpt>
      <trkpt lat="47.45717" lon="6.7405">
        <ele>445</ele>
        <time>2016-02-28T10:54:27.000Z</time>
      </trkpt>
      <trkpt lat="47.4572" lon="6.74055">
        <ele>444</ele>
        <time>2016-02-28T10:54:28.000Z</time>
      </trkpt>
      <trkpt lat="47.45723" lon="6.7406">
        <ele>444</ele>
        <time>2016-02-28T10:54:29.000Z</time>
      </trkpt>
      <trkpt lat="47.45726" lon="6.74065">
        <ele>443</ele>
        <time>2016-02-28T10:54:30.000Z</time>
      </trkpt>
      <trkpt lat="47.45728" lon="6.74069">
        <ele>443</ele>
        <time>2016-02-28T10:54:31.000Z</time>
      </trkpt>
      <trkpt lat="47.4573" lon="6.74073">
        <ele>442</ele>
        <time>2016-02-28T10:54:32.000Z</time>
      </trkpt>
      <trkpt lat="47.45731" lon="6.74077">
        <ele>442</ele>
        <time>2016-02-28T10:54:33.000Z</time>
      </trkpt>
      <trkpt lat="47.45733" lon="6.74082">
        <ele>441</ele>
        <time>2016-02-28T10:54:34.000Z</time>
      </trkpt>
      <trkpt lat="47.45734" lon="6.74087">
        <ele>440</ele>
        <time>2016-02-28T10:54:35.000Z</time>
      </trkpt>
      <trkpt lat="47.45735" lon="6.74093">
        <ele>440</ele>
        <time>2016-02-28T10:54:36.000Z</time>
      </trkpt>
      <trkpt lat="47.45737" lon="6.74098">
        <ele>440</ele>
        <time>2016-02-28T10:54:37.000Z</time>
      </trkpt>
      <trkpt lat="47.45738" lon="6.74104">
        <ele>440</ele>
        <time>2016-02-28T10:54:38.000Z</time>
      </trkpt>
      <trkpt lat="47.4574" lon="6.74112">
        <ele>440</ele>
        <time>2016-02-28T10:54:39.000Z</time>
      </trkpt>
      <trkpt lat="47.45742" lon="6.74119">
        <ele>440</ele>
        <time>2016-02-28T10:54:40.000Z</time>
      </trkpt>
      <trkpt lat="47.45749" lon="6.74138">
        <ele>438</ele>
        <time>2016-02-28T10:54:41.000Z</time>
      </trkpt>
      <trkpt lat="47.45752" lon="6.74145">
        <ele>432</ele>
        <time>2016-02-28T10:54:42.000Z</time>
      </trkpt>
      <trkpt lat="47.45755" lon="6.74151">
        <ele>432</ele>
        <time>2016-02-28T10:54:43.000Z</time>
      </trkpt>
      <trkpt lat="47.45758" lon="6.74158">
        <ele>432</ele>
        <time>2016-02-28T10:54:44.000Z</time>
      </trkpt>
      <trkpt lat="47.45762" lon="6.74163">
        <ele>432</ele>
        <time>2016-02-28T10:54:45.000Z</time>
      </trkpt>
      <trkpt lat="47.45766" lon="6.74166">
        <ele>432</ele>
        <time>2016-02-28T10:54:46.000Z</time>
      </trkpt>
      <trkpt lat="47.4577" lon="6.74168">
        <ele>428</ele>
        <time>2016-02-28T10:54:47.000Z</time>
      </trkpt>
      <trkpt lat="47.45774" lon="6.7417">
        <ele>427</ele>
        <time>2016-02-28T10:54:48.000Z</time>
      </trkpt>
      <trkpt lat="47.45776" lon="6.7417">
        <ele>427</ele>
        <time>2016-02-28T10:54:49.000Z</time>
      </trkpt>
      <trkpt lat="47.4578" lon="6.74174">
        <ele>427</ele>
        <time>2016-02-28T10:54:50.000Z</time>
      </trkpt>
      <trkpt lat="47.45782" lon="6.74177">
        <ele>426</ele>
        <time>2016-02-28T10:54:51.000Z</time>
      </trkpt>
      <trkpt lat="47.45784" lon="6.7418">
        <ele>426</ele>
        <time>2016-02-28T10:54:52.000Z</time>
      </trkpt>
      <trkpt lat="47.45787" lon="6.74182">
        <ele>426</ele>
        <time>2016-02-28T10:54:53.000Z</time>
      </trkpt>
      <trkpt lat="47.4579" lon="6.74184">
        <ele>425</ele>
        <time>2016-02-28T10:54:54.000Z</time>
      </trkpt>
      <trkpt lat="47.45793" lon="6.74186">
        <ele>425</ele>
        <time>2016-02-28T10:54:55.000Z</time>
      </trkpt>
      <trkpt lat="47.45797" lon="6.74187">
        <ele>425</ele>
        <time>2016-02-28T10:54:56.000Z</time>
      </trkpt>
      <trkpt lat="47.45801" lon="6.74188">
        <ele>425</ele>
        <time>2016-02-28T10:54:57.000Z</time>
      </trkpt>
      <trkpt lat="47.45804" lon="6.7419">
        <ele>425</ele>
        <time>2016-02-28T10:54:58.000Z</time>
      </trkpt>
      <trkpt lat="47.45808" lon="6.74193">
        <ele>425</ele>
        <time>2016-02-28T10:54:59.000Z</time>
      </trkpt>
      <trkpt lat="47.45811" lon="6.74195">
        <ele>424</ele>
        <time>2016-02-28T10:55:00.000Z</time>
      </trkpt>
      <trkpt lat="47.45815" lon="6.74197">
        <ele>424</ele>
        <time>2016-02-28T10:55:01.000Z</time>
      </trkpt>
      <trkpt lat="47.45818" lon="6.74199">
        <ele>424</ele>
        <time>2016-02-28T10:55:02.000Z</time>
      </trkpt>
      <trkpt lat="47.45822" lon="6.74201">
        <ele>424</ele>
        <time>2016-02-28T10:55:03.000Z</time>
      </trkpt>
      <trkpt lat="47.45826" lon="6.74203">
        <ele>423</ele>
        <time>2016-02-28T10:55:04.000Z</time>
      </trkpt>
      <trkpt lat="47.4583" lon="6.74204">
        <ele>423</ele>
        <time>2016-02-28T10:55:05.000Z</time>
      </trkpt>
      <trkpt lat="47.45833" lon="6.74206">
        <ele>423</ele>
        <time>2016-02-28T10:55:06.000Z</time>
      </trkpt>
      <trkpt lat="47.45836" lon="6.74208">
        <ele>419</ele>
        <time>2016-02-28T10:55:07.000Z</time>
      </trkpt>
      <trkpt lat="47.45839" lon="6.74209">
        <ele>419</ele>
        <time>2016-02-28T10:55:08.000Z</time>
      </trkpt>
      <trkpt lat="47.45842" lon="6.7421">
        <ele>418</ele>
        <time>2016-02-28T10:55:09.000Z</time>
      </trkpt>
      <trkpt lat="47.45846" lon="6.74211">
        <ele>418</ele>
        <time>2016-02-28T10:55:10.000Z</time>
      </trkpt>
      <trkpt lat="47.4585" lon="6.74212">
        <ele>418</ele>
        <time>2016-02-28T10:55:11.000Z</time>
      </trkpt>
      <trkpt lat="47.45855" lon="6.74212">
        <ele>418</ele>
        <time>2016-02-28T10:55:12.000Z</time>
      </trkpt>
      <trkpt lat="47.4586" lon="6.74212">
        <ele>418</ele>
        <time>2016-02-28T10:55:13.000Z</time>
      </trkpt>
      <trkpt lat="47.45866" lon="6.74212">
        <ele>418</ele>
        <time>2016-02-28T10:55:14.000Z</time>
      </trkpt>
      <trkpt lat="47.4587" lon="6.74212">
        <ele>418</ele>
        <time>2016-02-28T10:55:15.000Z</time>
      </trkpt>
      <trkpt lat="47.45875" lon="6.74212">
        <ele>417</ele>
        <time>2016-02-28T10:55:16.000Z</time>
      </trkpt>
      <trkpt lat="47.45879" lon="6.74211">
        <ele>417</ele>
        <time>2016-02-28T10:55:17.000Z</time>
      </trkpt>
      <trkpt lat="47.45883" lon="6.7421">
        <ele>417</ele>
        <time>2016-02-28T10:55:18.000Z</time>
      </trkpt>
      <trkpt lat="47.45887" lon="6.74209">
        <ele>417</ele>
        <time>2016-02-28T10:55:19.000Z</time>
      </trkpt>
      <trkpt lat="47.4589" lon="6.74209">
        <ele>417</ele>
        <time>2016-02-28T10:55:20.000Z</time>
      </trkpt>
      <trkpt lat="47.45894" lon="6.7421">
        <ele>417</ele>
        <time>2016-02-28T10:55:21.000Z</time>
      </trkpt>
      <trkpt lat="47.45897" lon="6.74211">
        <ele>417</ele>
        <time>2016-02-28T10:55:22.000Z</time>
      </trkpt>
      <trkpt lat="47.45901" lon="6.74212">
        <ele>417</ele>
        <time>2016-02-28T10:55:23.000Z</time>
      </trkpt>
      <trkpt lat="47.45903" lon="6.74213">
        <ele>416</ele>
        <time>2016-02-28T10:55:24.000Z</time>
      </trkpt>
      <trkpt lat="47.45906" lon="6.74213">
        <ele>416</ele>
        <time>2016-02-28T10:55:25.000Z</time>
      </trkpt>
      <trkpt lat="47.4591" lon="6.74213">
        <ele>416</ele>
        <time>2016-02-28T10:55:26.000Z</time>
      </trkpt>
      <trkpt lat="47.45913" lon="6.74214">
        <ele>416</ele>
        <time>2016-02-28T10:55:27.000Z</time>
      </trkpt>
      <trkpt lat="47.45917" lon="6.74214">
        <ele>416</ele>
        <time>2016-02-28T10:55:28.000Z</time>
      </trkpt>
      <trkpt lat="47.4592" lon="6.74214">
        <ele>415</ele>
        <time>2016-02-28T10:55:29.000Z</time>
      </trkpt>
      <trkpt lat="47.45924" lon="6.74215">
        <ele>415</ele>
        <time>2016-02-28T10:55:30.000Z</time>
      </trkpt>
      <trkpt lat="47.45927" lon="6.74217">
        <ele>415</ele>
        <time>2016-02-28T10:55:31.000Z</time>
      </trkpt>
      <trkpt lat="47.45931" lon="6.74219">
        <ele>414</ele>
        <time>2016-02-28T10:55:32.000Z</time>
      </trkpt>
      <trkpt lat="47.45934" lon="6.74222">
        <ele>414</ele>
        <time>2016-02-28T10:55:33.000Z</time>
      </trkpt>
      <trkpt lat="47.45937" lon="6.74225">
        <ele>414</ele>
        <time>2016-02-28T10:55:34.000Z</time>
      </trkpt>
      <trkpt lat="47.45941" lon="6.74229">
        <ele>414</ele>
        <time>2016-02-28T10:55:35.000Z</time>
      </trkpt>
      <trkpt lat="47.45944" lon="6.74232">
        <ele>414</ele>
        <time>2016-02-28T10:55:36.000Z</time>
      </trkpt>
      <trkpt lat="47.45947" lon="6.74236">
        <ele>414</ele>
        <time>2016-02-28T10:55:37.000Z</time>
      </trkpt>
      <trkpt lat="47.4595" lon="6.74238">
        <ele>414</ele>
        <time>2016-02-28T10:55:38.000Z</time>
      </trkpt>
      <trkpt lat="47.45954" lon="6.7424">
        <ele>414</ele>
        <time>2016-02-28T10:55:39.000Z</time>
      </trkpt>
      <trkpt lat="47.45958" lon="6.74241">
        <ele>414</ele>
        <time>2016-02-28T10:55:40.000Z</time>
      </trkpt>
      <trkpt lat="47.45962" lon="6.74241">
        <ele>414</ele>
        <time>2016-02-28T10:55:41.000Z</time>
      </trkpt>
      <trkpt lat="47.45965" lon="6.7424">
        <ele>414</ele>
        <time>2016-02-28T10:55:42.000Z</time>
      </trkpt>
      <trkpt lat="47.45968" lon="6.7424">
        <ele>414</ele>
        <time>2016-02-28T10:55:43.000Z</time>
      </trkpt>
      <trkpt lat="47.4597" lon="6.74239">
        <ele>414</ele>
        <time>2016-02-28T10:55:44.000Z</time>
      </trkpt>
      <trkpt lat="47.45973" lon="6.74239">
        <ele>414</ele>
        <time>2016-02-28T10:55:45.000Z</time>
      </trkpt>
      <trkpt lat="47.45976" lon="6.74238">
        <ele>414</ele>
        <time>2016-02-28T10:55:46.000Z</time>
      </trkpt>
      <trkpt lat="47.45978" lon="6.74237">
        <ele>414</ele>
        <time>2016-02-28T10:55:47.000Z</time>
      </trkpt>
      <trkpt lat="47.45981" lon="6.74236">
        <ele>414</ele>
        <time>2016-02-28T10:55:48.000Z</time>
      </trkpt>
      <trkpt lat="47.45984" lon="6.74235">
        <ele>414</ele>
        <time>2016-02-28T10:55:49.000Z</time>
      </trkpt>
      <trkpt lat="47.45987" lon="6.74234">
        <ele>414</ele>
        <time>2016-02-28T10:55:50.000Z</time>
      </trkpt>
      <trkpt lat="47.4599" lon="6.74233">
        <ele>414</ele>
        <time>2016-02-28T10:55:51.000Z</time>
      </trkpt>
      <trkpt lat="47.45993" lon="6.74232">
        <ele>414</ele>
        <time>2016-02-28T10:55:52.000Z</time>
      </trkpt>
      <trkpt lat="47.45996" lon="6.74231">
        <ele>414</ele>
        <time>2016-02-28T10:55:53.000Z</time>
      </trkpt>
      <trkpt lat="47.46" lon="6.7423">
        <ele>414</ele>
        <time>2016-02-28T10:55:54.000Z</time>
      </trkpt>
      <trkpt lat="47.46002" lon="6.7423">
        <ele>415</ele>
        <time>2016-02-28T10:55:55.000Z</time>
      </trkpt>
      <trkpt lat="47.46005" lon="6.74229">
        <ele>415</ele>
        <time>2016-02-28T10:55:56.000Z</time>
      </trkpt>
      <trkpt lat="47.46009" lon="6.74229">
        <ele>415</ele>
        <time>2016-02-28T10:55:58.000Z</time>
      </trkpt>
      <trkpt lat="47.46011" lon="6.74228">
        <ele>415</ele>
        <time>2016-02-28T10:55:59.000Z</time>
      </trkpt>
      <trkpt lat="47.46013" lon="6.74228">
        <ele>415</ele>
        <time>2016-02-28T10:56:00.000Z</time>
      </trkpt>
      <trkpt lat="47.46015" lon="6.74228">
        <ele>415</ele>
        <time>2016-02-28T10:56:01.000Z</time>
      </trkpt>
      <trkpt lat="47.46018" lon="6.74229">
        <ele>416</ele>
        <time>2016-02-28T10:56:02.000Z</time>
      </trkpt>
      <trkpt lat="47.46021" lon="6.74229">
        <ele>416</ele>
        <time>2016-02-28T10:56:03.000Z</time>
      </trkpt>
      <trkpt lat="47.46024" lon="6.74229">
        <ele>416</ele>
        <time>2016-02-28T10:56:04.000Z</time>
      </trkpt>
      <trkpt lat="47.46027" lon="6.74229">
        <ele>416</ele>
        <time>2016-02-28T10:56:05.000Z</time>
      </trkpt>
      <trkpt lat="47.46031" lon="6.74229">
        <ele>416</ele>
        <time>2016-02-28T10:56:06.000Z</time>
      </trkpt>
      <trkpt lat="47.46034" lon="6.74229">
        <ele>416</ele>
        <time>2016-02-28T10:56:07.000Z</time>
      </trkpt>
      <trkpt lat="47.46038" lon="6.74228">
        <ele>416</ele>
        <time>2016-02-28T10:56:08.000Z</time>
      </trkpt>
      <trkpt lat="47.46041" lon="6.74227">
        <ele>416</ele>
        <time>2016-02-28T10:56:09.000Z</time>
      </trkpt>
      <trkpt lat="47.46043" lon="6.74226">
        <ele>417</ele>
        <time>2016-02-28T10:56:10.000Z</time>
      </trkpt>
      <trkpt lat="47.46045" lon="6.74225">
        <ele>417</ele>
        <time>2016-02-28T10:56:11.000Z</time>
      </trkpt>
      <trkpt lat="47.46048" lon="6.74226">
        <ele>417</ele>
        <time>2016-02-28T10:56:12.000Z</time>
      </trkpt>
      <trkpt lat="47.4605" lon="6.74227">
        <ele>417</ele>
        <time>2016-02-28T10:56:13.000Z</time>
      </trkpt>
      <trkpt lat="47.46053" lon="6.74229">
        <ele>416</ele>
        <time>2016-02-28T10:56:14.000Z</time>
      </trkpt>
      <trkpt lat="47.46056" lon="6.7423">
        <ele>416</ele>
        <time>2016-02-28T10:56:15.000Z</time>
      </trkpt>
      <trkpt lat="47.4606" lon="6.7423">
        <ele>416</ele>
        <time>2016-02-28T10:56:17.000Z</time>
      </trkpt>
      <trkpt lat="47.46061" lon="6.74231">
        <ele>416</ele>
        <time>2016-02-28T10:56:18.000Z</time>
      </trkpt>
      <trkpt lat="47.46064" lon="6.74232">
        <ele>416</ele>
        <time>2016-02-28T10:56:20.000Z</time>
      </trkpt>
      <trkpt lat="47.46066" lon="6.74233">
        <ele>416</ele>
        <time>2016-02-28T10:56:21.000Z</time>
      </trkpt>
      <trkpt lat="47.46068" lon="6.74236">
        <ele>416</ele>
        <time>2016-02-28T10:56:22.000Z</time>
      </trkpt>
      <trkpt lat="47.4607" lon="6.74238">
        <ele>416</ele>
        <time>2016-02-28T10:56:23.000Z</time>
      </trkpt>
      <trkpt lat="47.46072" lon="6.7424">
        <ele>416</ele>
        <time>2016-02-28T10:56:24.000Z</time>
      </trkpt>
      <trkpt lat="47.46075" lon="6.74241">
        <ele>415</ele>
        <time>2016-02-28T10:56:25.000Z</time>
      </trkpt>
      <trkpt lat="47.46078" lon="6.74242">
        <ele>415</ele>
        <time>2016-02-28T10:56:26.000Z</time>
      </trkpt>
      <trkpt lat="47.46081" lon="6.74241">
        <ele>415</ele>
        <time>2016-02-28T10:56:27.000Z</time>
      </trkpt>
      <trkpt lat="47.46084" lon="6.74241">
        <ele>415</ele>
        <time>2016-02-28T10:56:28.000Z</time>
      </trkpt>
      <trkpt lat="47.46087" lon="6.74242">
        <ele>415</ele>
        <time>2016-02-28T10:56:29.000Z</time>
      </trkpt>
      <trkpt lat="47.4609" lon="6.74243">
        <ele>415</ele>
        <time>2016-02-28T10:56:30.000Z</time>
      </trkpt>
      <trkpt lat="47.46092" lon="6.74244">
        <ele>416</ele>
        <time>2016-02-28T10:56:31.000Z</time>
      </trkpt>
      <trkpt lat="47.46095" lon="6.74244">
        <ele>416</ele>
        <time>2016-02-28T10:56:32.000Z</time>
      </trkpt>
      <trkpt lat="47.46097" lon="6.74243">
        <ele>416</ele>
        <time>2016-02-28T10:56:33.000Z</time>
      </trkpt>
      <trkpt lat="47.461" lon="6.74244">
        <ele>416</ele>
        <time>2016-02-28T10:56:34.000Z</time>
      </trkpt>
      <trkpt lat="47.46102" lon="6.74245">
        <ele>416</ele>
        <time>2016-02-28T10:56:35.000Z</time>
      </trkpt>
      <trkpt lat="47.46105" lon="6.74246">
        <ele>416</ele>
        <time>2016-02-28T10:56:36.000Z</time>
      </trkpt>
      <trkpt lat="47.46109" lon="6.74247">
        <ele>417</ele>
        <time>2016-02-28T10:56:37.000Z</time>
      </trkpt>
      <trkpt lat="47.46112" lon="6.74248">
        <ele>417</ele>
        <time>2016-02-28T10:56:38.000Z</time>
      </trkpt>
      <trkpt lat="47.46115" lon="6.74249">
        <ele>417</ele>
        <time>2016-02-28T10:56:39.000Z</time>
      </trkpt>
      <trkpt lat="47.46119" lon="6.7425">
        <ele>408</ele>
        <time>2016-02-28T10:56:40.000Z</time>
      </trkpt>
      <trkpt lat="47.46122" lon="6.74251">
        <ele>408</ele>
        <time>2016-02-28T10:56:41.000Z</time>
      </trkpt>
      <trkpt lat="47.46125" lon="6.74252">
        <ele>408</ele>
        <time>2016-02-28T10:56:42.000Z</time>
      </trkpt>
      <trkpt lat="47.46128" lon="6.74253">
        <ele>408</ele>
        <time>2016-02-28T10:56:43.000Z</time>
      </trkpt>
      <trkpt lat="47.46131" lon="6.74253">
        <ele>408</ele>
        <time>2016-02-28T10:56:44.000Z</time>
      </trkpt>
      <trkpt lat="47.46133" lon="6.74253">
        <ele>408</ele>
        <time>2016-02-28T10:56:45.000Z</time>
      </trkpt>
      <trkpt lat="47.46136" lon="6.74253">
        <ele>408</ele>
        <time>2016-02-28T10:56:46.000Z</time>
      </trkpt>
      <trkpt lat="47.46139" lon="6.74253">
        <ele>408</ele>
        <time>2016-02-28T10:56:47.000Z</time>
      </trkpt>
      <trkpt lat="47.46142" lon="6.74253">
        <ele>409</ele>
        <time>2016-02-28T10:56:48.000Z</time>
      </trkpt>
      <trkpt lat="47.46146" lon="6.74253">
        <ele>409</ele>
        <time>2016-02-28T10:56:49.000Z</time>
      </trkpt>
      <trkpt lat="47.4615" lon="6.74254">
        <ele>410</ele>
        <time>2016-02-28T10:56:50.000Z</time>
      </trkpt>
      <trkpt lat="47.46154" lon="6.74254">
        <ele>411</ele>
        <time>2016-02-28T10:56:51.000Z</time>
      </trkpt>
      <trkpt lat="47.46157" lon="6.74254">
        <ele>411</ele>
        <time>2016-02-28T10:56:52.000Z</time>
      </trkpt>
      <trkpt lat="47.4616" lon="6.74254">
        <ele>412</ele>
        <time>2016-02-28T10:56:53.000Z</time>
      </trkpt>
      <trkpt lat="47.46163" lon="6.74255">
        <ele>412</ele>
        <time>2016-02-28T10:56:54.000Z</time>
      </trkpt>
      <trkpt lat="47.46165" lon="6.74257">
        <ele>412</ele>
        <time>2016-02-28T10:56:55.000Z</time>
      </trkpt>
      <trkpt lat="47.46168" lon="6.74259">
        <ele>412</ele>
        <time>2016-02-28T10:56:56.000Z</time>
      </trkpt>
      <trkpt lat="47.4617" lon="6.7426">
        <ele>411</ele>
        <time>2016-02-28T10:56:57.000Z</time>
      </trkpt>
      <trkpt lat="47.46172" lon="6.74262">
        <ele>411</ele>
        <time>2016-02-28T10:56:58.000Z</time>
      </trkpt>
      <trkpt lat="47.46175" lon="6.74262">
        <ele>410</ele>
        <time>2016-02-28T10:56:59.000Z</time>
      </trkpt>
      <trkpt lat="47.46178" lon="6.74263">
        <ele>410</ele>
        <time>2016-02-28T10:57:00.000Z</time>
      </trkpt>
      <trkpt lat="47.46181" lon="6.74265">
        <ele>409</ele>
        <time>2016-02-28T10:57:01.000Z</time>
      </trkpt>
      <trkpt lat="47.46184" lon="6.74266">
        <ele>409</ele>
        <time>2016-02-28T10:57:02.000Z</time>
      </trkpt>
      <trkpt lat="47.46187" lon="6.74268">
        <ele>408</ele>
        <time>2016-02-28T10:57:03.000Z</time>
      </trkpt>
      <trkpt lat="47.46191" lon="6.7427">
        <ele>408</ele>
        <time>2016-02-28T10:57:04.000Z</time>
      </trkpt>
      <trkpt lat="47.46194" lon="6.74271">
        <ele>407</ele>
        <time>2016-02-28T10:57:05.000Z</time>
      </trkpt>
      <trkpt lat="47.46197" lon="6.74273">
        <ele>407</ele>
        <time>2016-02-28T10:57:06.000Z</time>
      </trkpt>
      <trkpt lat="47.46199" lon="6.74274">
        <ele>407</ele>
        <time>2016-02-28T10:57:07.000Z</time>
      </trkpt>
      <trkpt lat="47.46201" lon="6.74275">
        <ele>407</ele>
        <time>2016-02-28T10:57:08.000Z</time>
      </trkpt>
      <trkpt lat="47.46203" lon="6.74276">
        <ele>407</ele>
        <time>2016-02-28T10:57:09.000Z</time>
      </trkpt>
      <trkpt lat="47.46206" lon="6.74277">
        <ele>407</ele>
        <time>2016-02-28T10:57:10.000Z</time>
      </trkpt>
      <trkpt lat="47.46208" lon="6.74278">
        <ele>406</ele>
        <time>2016-02-28T10:57:11.000Z</time>
      </trkpt>
      <trkpt lat="47.46211" lon="6.7428">
        <ele>406</ele>
        <time>2016-02-28T10:57:12.000Z</time>
      </trkpt>
      <trkpt lat="47.46214" lon="6.74281">
        <ele>406</ele>
        <time>2016-02-28T10:57:13.000Z</time>
      </trkpt>
      <trkpt lat="47.46217" lon="6.74282">
        <ele>406</ele>
        <time>2016-02-28T10:57:14.000Z</time>
      </trkpt>
      <trkpt lat="47.46221" lon="6.74283">
        <ele>406</ele>
        <time>2016-02-28T10:57:15.000Z</time>
      </trkpt>
      <trkpt lat="47.46224" lon="6.74284">
        <ele>406</ele>
        <time>2016-02-28T10:57:16.000Z</time>
      </trkpt>
      <trkpt lat="47.46228" lon="6.74285">
        <ele>406</ele>
        <time>2016-02-28T10:57:17.000Z</time>
      </trkpt>
      <trkpt lat="47.46232" lon="6.74286">
        <ele>406</ele>
        <time>2016-02-28T10:57:18.000Z</time>
      </trkpt>
      <trkpt lat="47.46235" lon="6.74287">
        <ele>406</ele>
        <time>2016-02-28T10:57:19.000Z</time>
      </trkpt>
      <trkpt lat="47.46238" lon="6.74287">
        <ele>406</ele>
        <time>2016-02-28T10:57:20.000Z</time>
      </trkpt>
      <trkpt lat="47.46241" lon="6.74284">
        <ele>406</ele>
        <time>2016-02-28T10:57:21.000Z</time>
      </trkpt>
      <trkpt lat="47.46244" lon="6.74283">
        <ele>406</ele>
        <time>2016-02-28T10:57:22.000Z</time>
      </trkpt>
      <trkpt lat="47.46246" lon="6.74283">
        <ele>406</ele>
        <time>2016-02-28T10:57:23.000Z</time>
      </trkpt>
      <trkpt lat="47.46248" lon="6.74285">
        <ele>406</ele>
        <time>2016-02-28T10:57:24.000Z</time>
      </trkpt>
      <trkpt lat="47.46251" lon="6.74289">
        <ele>407</ele>
        <time>2016-02-28T10:57:25.000Z</time>
      </trkpt>
      <trkpt lat="47.46254" lon="6.74293">
        <ele>406</ele>
        <time>2016-02-28T10:57:26.000Z</time>
      </trkpt>
      <trkpt lat="47.46257" lon="6.74298">
        <ele>406</ele>
        <time>2016-02-28T10:57:27.000Z</time>
      </trkpt>
      <trkpt lat="47.4626" lon="6.74301">
        <ele>406</ele>
        <time>2016-02-28T10:57:28.000Z</time>
      </trkpt>
      <trkpt lat="47.46263" lon="6.74303">
        <ele>405</ele>
        <time>2016-02-28T10:57:29.000Z</time>
      </trkpt>
      <trkpt lat="47.46266" lon="6.74305">
        <ele>405</ele>
        <time>2016-02-28T10:57:30.000Z</time>
      </trkpt>
      <trkpt lat="47.46271" lon="6.74306">
        <ele>405</ele>
        <time>2016-02-28T10:57:31.000Z</time>
      </trkpt>
      <trkpt lat="47.46275" lon="6.74307">
        <ele>405</ele>
        <time>2016-02-28T10:57:32.000Z</time>
      </trkpt>
      <trkpt lat="47.46279" lon="6.74307">
        <ele>406</ele>
        <time>2016-02-28T10:57:33.000Z</time>
      </trkpt>
      <trkpt lat="47.46283" lon="6.74308">
        <ele>406</ele>
        <time>2016-02-28T10:57:34.000Z</time>
      </trkpt>
      <trkpt lat="47.46286" lon="6.74309">
        <ele>406</ele>
        <time>2016-02-28T10:57:35.000Z</time>
      </trkpt>
      <trkpt lat="47.4629" lon="6.74309">
        <ele>406</ele>
        <time>2016-02-28T10:57:36.000Z</time>
      </trkpt>
      <trkpt lat="47.46293" lon="6.7431">
        <ele>406</ele>
        <time>2016-02-28T10:57:37.000Z</time>
      </trkpt>
      <trkpt lat="47.46296" lon="6.7431">
        <ele>406</ele>
        <time>2016-02-28T10:57:38.000Z</time>
      </trkpt>
      <trkpt lat="47.46298" lon="6.74311">
        <ele>406</ele>
        <time>2016-02-28T10:57:39.000Z</time>
      </trkpt>
      <trkpt lat="47.46301" lon="6.74312">
        <ele>406</ele>
        <time>2016-02-28T10:57:40.000Z</time>
      </trkpt>
      <trkpt lat="47.46304" lon="6.74313">
        <ele>406</ele>
        <time>2016-02-28T10:57:41.000Z</time>
      </trkpt>
      <trkpt lat="47.46307" lon="6.74314">
        <ele>406</ele>
        <time>2016-02-28T10:57:42.000Z</time>
      </trkpt>
      <trkpt lat="47.4631" lon="6.74315">
        <ele>406</ele>
        <time>2016-02-28T10:57:43.000Z</time>
      </trkpt>
      <trkpt lat="47.46313" lon="6.74316">
        <ele>406</ele>
        <time>2016-02-28T10:57:44.000Z</time>
      </trkpt>
      <trkpt lat="47.46316" lon="6.74317">
        <ele>406</ele>
        <time>2016-02-28T10:57:45.000Z</time>
      </trkpt>
      <trkpt lat="47.46319" lon="6.74318">
        <ele>406</ele>
        <time>2016-02-28T10:57:46.000Z</time>
      </trkpt>
      <trkpt lat="47.46322" lon="6.7432">
        <ele>406</ele>
        <time>2016-02-28T10:57:47.000Z</time>
      </trkpt>
      <trkpt lat="47.46325" lon="6.74322">
        <ele>405</ele>
        <time>2016-02-28T10:57:48.000Z</time>
      </trkpt>
      <trkpt lat="47.46328" lon="6.74324">
        <ele>405</ele>
        <time>2016-02-28T10:57:49.000Z</time>
      </trkpt>
      <trkpt lat="47.46331" lon="6.74326">
        <ele>405</ele>
        <time>2016-02-28T10:57:50.000Z</time>
      </trkpt>
      <trkpt lat="47.46334" lon="6.74327">
        <ele>405</ele>
        <time>2016-02-28T10:57:51.000Z</time>
      </trkpt>
      <trkpt lat="47.46337" lon="6.74329">
        <ele>405</ele>
        <time>2016-02-28T10:57:52.000Z</time>
      </trkpt>
      <trkpt lat="47.46341" lon="6.7433">
        <ele>405</ele>
        <time>2016-02-28T10:57:53.000Z</time>
      </trkpt>
      <trkpt lat="47.46345" lon="6.7433">
        <ele>406</ele>
        <time>2016-02-28T10:57:54.000Z</time>
      </trkpt>
      <trkpt lat="47.46349" lon="6.74331">
        <ele>406</ele>
        <time>2016-02-28T10:57:55.000Z</time>
      </trkpt>
      <trkpt lat="47.46353" lon="6.74331">
        <ele>406</ele>
        <time>2016-02-28T10:57:56.000Z</time>
      </trkpt>
      <trkpt lat="47.46357" lon="6.74333">
        <ele>406</ele>
        <time>2016-02-28T10:57:57.000Z</time>
      </trkpt>
      <trkpt lat="47.46361" lon="6.74335">
        <ele>399</ele>
        <time>2016-02-28T10:57:58.000Z</time>
      </trkpt>
      <trkpt lat="47.46365" lon="6.74336">
        <ele>398</ele>
        <time>2016-02-28T10:57:59.000Z</time>
      </trkpt>
      <trkpt lat="47.46369" lon="6.74338">
        <ele>398</ele>
        <time>2016-02-28T10:58:00.000Z</time>
      </trkpt>
      <trkpt lat="47.46373" lon="6.74339">
        <ele>398</ele>
        <time>2016-02-28T10:58:01.000Z</time>
      </trkpt>
      <trkpt lat="47.46377" lon="6.74341">
        <ele>398</ele>
        <time>2016-02-28T10:58:02.000Z</time>
      </trkpt>
      <trkpt lat="47.46381" lon="6.74343">
        <ele>398</ele>
        <time>2016-02-28T10:58:03.000Z</time>
      </trkpt>
      <trkpt lat="47.46384" lon="6.74345">
        <ele>398</ele>
        <time>2016-02-28T10:58:04.000Z</time>
      </trkpt>
      <trkpt lat="47.46388" lon="6.74347">
        <ele>398</ele>
        <time>2016-02-28T10:58:05.000Z</time>
      </trkpt>
      <trkpt lat="47.46391" lon="6.74349">
        <ele>398</ele>
        <time>2016-02-28T10:58:06.000Z</time>
      </trkpt>
      <trkpt lat="47.46395" lon="6.74352">
        <ele>398</ele>
        <time>2016-02-28T10:58:07.000Z</time>
      </trkpt>
      <trkpt lat="47.46398" lon="6.74354">
        <ele>398</ele>
        <time>2016-02-28T10:58:08.000Z</time>
      </trkpt>
      <trkpt lat="47.46401" lon="6.74356">
        <ele>398</ele>
        <time>2016-02-28T10:58:09.000Z</time>
      </trkpt>
      <trkpt lat="47.46404" lon="6.74358">
        <ele>398</ele>
        <time>2016-02-28T10:58:10.000Z</time>
      </trkpt>
      <trkpt lat="47.46408" lon="6.7436">
        <ele>398</ele>
        <time>2016-02-28T10:58:11.000Z</time>
      </trkpt>
      <trkpt lat="47.46411" lon="6.74362">
        <ele>398</ele>
        <time>2016-02-28T10:58:12.000Z</time>
      </trkpt>
      <trkpt lat="47.46414" lon="6.74363">
        <ele>397</ele>
        <time>2016-02-28T10:58:13.000Z</time>
      </trkpt>
      <trkpt lat="47.46417" lon="6.74365">
        <ele>400</ele>
        <time>2016-02-28T10:58:14.000Z</time>
      </trkpt>
      <trkpt lat="47.46418" lon="6.74367">
        <ele>400</ele>
        <time>2016-02-28T10:58:15.000Z</time>
      </trkpt>
      <trkpt lat="47.46421" lon="6.74372">
        <ele>400</ele>
        <time>2016-02-28T10:58:17.000Z</time>
      </trkpt>
      <trkpt lat="47.46434" lon="6.74379">
        <ele>399</ele>
        <time>2016-02-28T10:58:18.000Z</time>
      </trkpt>
      <trkpt lat="47.46439" lon="6.74384">
        <ele>399</ele>
        <time>2016-02-28T10:58:19.000Z</time>
      </trkpt>
      <trkpt lat="47.46442" lon="6.74389">
        <ele>398</ele>
        <time>2016-02-28T10:58:20.000Z</time>
      </trkpt>
      <trkpt lat="47.46445" lon="6.74395">
        <ele>398</ele>
        <time>2016-02-28T10:58:21.000Z</time>
      </trkpt>
      <trkpt lat="47.46453" lon="6.74399">
        <ele>399</ele>
        <time>2016-02-28T10:58:22.000Z</time>
      </trkpt>
      <trkpt lat="47.46458" lon="6.74405">
        <ele>399</ele>
        <time>2016-02-28T10:58:23.000Z</time>
      </trkpt>
      <trkpt lat="47.46464" lon="6.7441">
        <ele>399</ele>
        <time>2016-02-28T10:58:24.000Z</time>
      </trkpt>
      <trkpt lat="47.46468" lon="6.74415">
        <ele>399</ele>
        <time>2016-02-28T10:58:25.000Z</time>
      </trkpt>
      <trkpt lat="47.4647" lon="6.74421">
        <ele>390</ele>
        <time>2016-02-28T10:58:26.000Z</time>
      </trkpt>
      <trkpt lat="47.46475" lon="6.74427">
        <ele>391</ele>
        <time>2016-02-28T10:58:27.000Z</time>
      </trkpt>
      <trkpt lat="47.4648" lon="6.74434">
        <ele>391</ele>
        <time>2016-02-28T10:58:28.000Z</time>
      </trkpt>
      <trkpt lat="47.46487" lon="6.74443">
        <ele>390</ele>
        <time>2016-02-28T10:58:29.000Z</time>
      </trkpt>
      <trkpt lat="47.4649" lon="6.74449">
        <ele>389</ele>
        <time>2016-02-28T10:58:30.000Z</time>
      </trkpt>
      <trkpt lat="47.46494" lon="6.74456">
        <ele>388</ele>
        <time>2016-02-28T10:58:31.000Z</time>
      </trkpt>
      <trkpt lat="47.46499" lon="6.74461">
        <ele>388</ele>
        <time>2016-02-28T10:58:32.000Z</time>
      </trkpt>
      <trkpt lat="47.46504" lon="6.74464">
        <ele>394</ele>
        <time>2016-02-28T10:58:33.000Z</time>
      </trkpt>
      <trkpt lat="47.46507" lon="6.74469">
        <ele>393</ele>
        <time>2016-02-28T10:58:34.000Z</time>
      </trkpt>
      <trkpt lat="47.46509" lon="6.74473">
        <ele>392</ele>
        <time>2016-02-28T10:58:35.000Z</time>
      </trkpt>
      <trkpt lat="47.46511" lon="6.74478">
        <ele>392</ele>
        <time>2016-02-28T10:58:36.000Z</time>
      </trkpt>
      <trkpt lat="47.46516" lon="6.74483">
        <ele>391</ele>
        <time>2016-02-28T10:58:37.000Z</time>
      </trkpt>
      <trkpt lat="47.46519" lon="6.74489">
        <ele>391</ele>
        <time>2016-02-28T10:58:38.000Z</time>
      </trkpt>
      <trkpt lat="47.46524" lon="6.74499">
        <ele>391</ele>
        <time>2016-02-28T10:58:39.000Z</time>
      </trkpt>
      <trkpt lat="47.46529" lon="6.74508">
        <ele>383</ele>
        <time>2016-02-28T10:58:40.000Z</time>
      </trkpt>
      <trkpt lat="47.46531" lon="6.74516">
        <ele>383</ele>
        <time>2016-02-28T10:58:41.000Z</time>
      </trkpt>
      <trkpt lat="47.46537" lon="6.74523">
        <ele>383</ele>
        <time>2016-02-28T10:58:42.000Z</time>
      </trkpt>
      <trkpt lat="47.46542" lon="6.74532">
        <ele>382</ele>
        <time>2016-02-28T10:58:43.000Z</time>
      </trkpt>
      <trkpt lat="47.46548" lon="6.74539">
        <ele>382</ele>
        <time>2016-02-28T10:58:44.000Z</time>
      </trkpt>
      <trkpt lat="47.46552" lon="6.74544">
        <ele>382</ele>
        <time>2016-02-28T10:58:45.000Z</time>
      </trkpt>
      <trkpt lat="47.46557" lon="6.74553">
        <ele>381</ele>
        <time>2016-02-28T10:58:46.000Z</time>
      </trkpt>
      <trkpt lat="47.46561" lon="6.74561">
        <ele>381</ele>
        <time>2016-02-28T10:58:47.000Z</time>
      </trkpt>
      <trkpt lat="47.46569" lon="6.74567">
        <ele>380</ele>
        <time>2016-02-28T10:58:48.000Z</time>
      </trkpt>
      <trkpt lat="47.46575" lon="6.74577">
        <ele>380</ele>
        <time>2016-02-28T10:58:49.000Z</time>
      </trkpt>
      <trkpt lat="47.46578" lon="6.74584">
        <ele>377</ele>
        <time>2016-02-28T10:58:50.000Z</time>
      </trkpt>
      <trkpt lat="47.46584" lon="6.74593">
        <ele>377</ele>
        <time>2016-02-28T10:58:51.000Z</time>
      </trkpt>
      <trkpt lat="47.46589" lon="6.74601">
        <ele>376</ele>
        <time>2016-02-28T10:58:52.000Z</time>
      </trkpt>
      <trkpt lat="47.46589" lon="6.74607">
        <ele>375</ele>
        <time>2016-02-28T10:58:53.000Z</time>
      </trkpt>
      <trkpt lat="47.46595" lon="6.74613">
        <ele>374</ele>
        <time>2016-02-28T10:58:54.000Z</time>
      </trkpt>
      <trkpt lat="47.46598" lon="6.74616">
        <ele>373</ele>
        <time>2016-02-28T10:58:55.000Z</time>
      </trkpt>
      <trkpt lat="47.46604" lon="6.74624">
        <ele>372</ele>
        <time>2016-02-28T10:58:56.000Z</time>
      </trkpt>
      <trkpt lat="47.46609" lon="6.74632">
        <ele>371</ele>
        <time>2016-02-28T10:58:57.000Z</time>
      </trkpt>
      <trkpt lat="47.46614" lon="6.74642">
        <ele>370</ele>
        <time>2016-02-28T10:58:58.000Z</time>
      </trkpt>
      <trkpt lat="47.46621" lon="6.74651">
        <ele>370</ele>
        <time>2016-02-28T10:58:59.000Z</time>
      </trkpt>
      <trkpt lat="47.46628" lon="6.74659">
        <ele>369</ele>
        <time>2016-02-28T10:59:00.000Z</time>
      </trkpt>
      <trkpt lat="47.46633" lon="6.74667">
        <ele>362</ele>
        <time>2016-02-28T10:59:01.000Z</time>
      </trkpt>
      <trkpt lat="47.46641" lon="6.74678">
        <ele>362</ele>
        <time>2016-02-28T10:59:02.000Z</time>
      </trkpt>
      <trkpt lat="47.4665" lon="6.74691">
        <ele>361</ele>
        <time>2016-02-28T10:59:03.000Z</time>
      </trkpt>
      <trkpt lat="47.4666" lon="6.74706">
        <ele>360</ele>
        <time>2016-02-28T10:59:04.000Z</time>
      </trkpt>
      <trkpt lat="47.46667" lon="6.74721">
        <ele>357</ele>
        <time>2016-02-28T10:59:05.000Z</time>
      </trkpt>
      <trkpt lat="47.46676" lon="6.74733">
        <ele>356</ele>
        <time>2016-02-28T10:59:06.000Z</time>
      </trkpt>
      <trkpt lat="47.46684" lon="6.74739">
        <ele>356</ele>
        <time>2016-02-28T10:59:07.000Z</time>
      </trkpt>
      <trkpt lat="47.46692" lon="6.74741">
        <ele>355</ele>
        <time>2016-02-28T10:59:08.000Z</time>
      </trkpt>
      <trkpt lat="47.46697" lon="6.74745">
        <ele>355</ele>
        <time>2016-02-28T10:59:09.000Z</time>
      </trkpt>
      <trkpt lat="47.46702" lon="6.74746">
        <ele>355</ele>
        <time>2016-02-28T10:59:10.000Z</time>
      </trkpt>
      <trkpt lat="47.46705" lon="6.74751">
        <ele>353</ele>
        <time>2016-02-28T10:59:11.000Z</time>
      </trkpt>
      <trkpt lat="47.4671" lon="6.74749">
        <ele>354</ele>
        <time>2016-02-28T10:59:12.000Z</time>
      </trkpt>
      <trkpt lat="47.46713" lon="6.74749">
        <ele>354</ele>
        <time>2016-02-28T10:59:13.000Z</time>
      </trkpt>
      <trkpt lat="47.46715" lon="6.74748">
        <ele>354</ele>
        <time>2016-02-28T10:59:14.000Z</time>
      </trkpt>
      <trkpt lat="47.46716" lon="6.74749">
        <ele>354</ele>
        <time>2016-02-28T10:59:15.000Z</time>
      </trkpt>
      <trkpt lat="47.4672" lon="6.74748">
        <ele>353</ele>
        <time>2016-02-28T10:59:16.000Z</time>
      </trkpt>
      <trkpt lat="47.46719" lon="6.74755">
        <ele>351</ele>
        <time>2016-02-28T10:59:22.000Z</time>
      </trkpt>
      <trkpt lat="47.46718" lon="6.74756">
        <ele>352</ele>
        <time>2016-02-28T10:59:23.000Z</time>
      </trkpt>
      <trkpt lat="47.46715" lon="6.7476">
        <ele>352</ele>
        <time>2016-02-28T10:59:26.000Z</time>
      </trkpt>
      <trkpt lat="47.46714" lon="6.74761">
        <ele>352</ele>
        <time>2016-02-28T10:59:27.000Z</time>
      </trkpt>
      <trkpt lat="47.4671" lon="6.74764">
        <ele>352</ele>
        <time>2016-02-28T10:59:31.000Z</time>
      </trkpt>
      <trkpt lat="47.46709" lon="6.74765">
        <ele>353</ele>
        <time>2016-02-28T10:59:32.000Z</time>
      </trkpt>
      <trkpt lat="47.46707" lon="6.7477">
        <ele>353</ele>
        <time>2016-02-28T10:59:34.000Z</time>
      </trkpt>
      <trkpt lat="47.46706" lon="6.74772">
        <ele>353</ele>
        <time>2016-02-28T10:59:35.000Z</time>
      </trkpt>
      <trkpt lat="47.46706" lon="6.74778">
        <ele>353</ele>
        <time>2016-02-28T10:59:40.000Z</time>
      </trkpt>
      <trkpt lat="47.46707" lon="6.7478">
        <ele>353</ele>
        <time>2016-02-28T10:59:41.000Z</time>
      </trkpt>
      <trkpt lat="47.46707" lon="6.74786">
        <ele>353</ele>
        <time>2016-02-28T10:59:44.000Z</time>
      </trkpt>
      <trkpt lat="47.46708" lon="6.74787">
        <ele>353</ele>
        <time>2016-02-28T10:59:45.000Z</time>
      </trkpt>
      <trkpt lat="47.46706" lon="6.74792">
        <ele>354</ele>
        <time>2016-02-28T10:59:48.000Z</time>
      </trkpt>
      <trkpt lat="47.46705" lon="6.74793">
        <ele>354</ele>
        <time>2016-02-28T10:59:49.000Z</time>
      </trkpt>
      <trkpt lat="47.46704" lon="6.74799">
        <ele>354</ele>
        <time>2016-02-28T10:59:52.000Z</time>
      </trkpt>
      <trkpt lat="47.46704" lon="6.748">
        <ele>354</ele>
        <time>2016-02-28T10:59:53.000Z</time>
      </trkpt>
      <trkpt lat="47.46701" lon="6.74804">
        <ele>355</ele>
        <time>2016-02-28T10:59:57.000Z</time>
      </trkpt>
      <trkpt lat="47.467" lon="6.74805">
        <ele>355</ele>
        <time>2016-02-28T10:59:58.000Z</time>
      </trkpt>
      <trkpt lat="47.467" lon="6.74811">
        <ele>355</ele>
        <time>2016-02-28T11:00:02.000Z</time>
      </trkpt>
      <trkpt lat="47.46699" lon="6.74812">
        <ele>355</ele>
        <time>2016-02-28T11:00:03.000Z</time>
      </trkpt>
      <trkpt lat="47.46696" lon="6.74814">
        <ele>356</ele>
        <time>2016-02-28T11:00:07.000Z</time>
      </trkpt>
      <trkpt lat="47.46695" lon="6.74815">
        <ele>356</ele>
        <time>2016-02-28T11:00:08.000Z</time>
      </trkpt>
      <trkpt lat="47.46691" lon="6.74816">
        <ele>356</ele>
        <time>2016-02-28T11:00:11.000Z</time>
      </trkpt>
      <trkpt lat="47.46691" lon="6.74816">
        <ele>356</ele>
        <time>2016-02-28T11:00:12.000Z</time>
      </trkpt>
      <trkpt lat="47.46686" lon="6.74815">
        <ele>357</ele>
        <time>2016-02-28T11:00:17.000Z</time>
      </trkpt>
      <trkpt lat="47.46685" lon="6.74815">
        <ele>357</ele>
        <time>2016-02-28T11:00:18.000Z</time>
      </trkpt>
      <trkpt lat="47.46681" lon="6.74812">
        <ele>357</ele>
        <time>2016-02-28T11:00:26.000Z</time>
      </trkpt>
      <trkpt lat="47.4668" lon="6.74812">
        <ele>357</ele>
        <time>2016-02-28T11:00:27.000Z</time>
      </trkpt>
      <trkpt lat="47.46677" lon="6.74813">
        <ele>358</ele>
        <time>2016-02-28T11:00:30.000Z</time>
      </trkpt>
      <trkpt lat="47.46676" lon="6.74813">
        <ele>358</ele>
        <time>2016-02-28T11:00:31.000Z</time>
      </trkpt>
      <trkpt lat="47.46672" lon="6.74814">
        <ele>358</ele>
        <time>2016-02-28T11:00:35.000Z</time>
      </trkpt>
      <trkpt lat="47.4667" lon="6.74814">
        <ele>358</ele>
        <time>2016-02-28T11:00:36.000Z</time>
      </trkpt>
      <trkpt lat="47.46666" lon="6.74814">
        <ele>364</ele>
        <time>2016-02-28T11:00:39.000Z</time>
      </trkpt>
      <trkpt lat="47.46665" lon="6.74813">
        <ele>364</ele>
        <time>2016-02-28T11:00:40.000Z</time>
      </trkpt>
      <trkpt lat="47.46661" lon="6.74812">
        <ele>364</ele>
        <time>2016-02-28T11:00:43.000Z</time>
      </trkpt>
      <trkpt lat="47.46659" lon="6.74812">
        <ele>364</ele>
        <time>2016-02-28T11:00:44.000Z</time>
      </trkpt>
      <trkpt lat="47.46656" lon="6.74811">
        <ele>364</ele>
        <time>2016-02-28T11:00:47.000Z</time>
      </trkpt>
      <trkpt lat="47.46655" lon="6.74811">
        <ele>364</ele>
        <time>2016-02-28T11:00:48.000Z</time>
      </trkpt>
      <trkpt lat="47.46652" lon="6.74812">
        <ele>364</ele>
        <time>2016-02-28T11:00:50.000Z</time>
      </trkpt>
      <trkpt lat="47.4665" lon="6.74813">
        <ele>364</ele>
        <time>2016-02-28T11:00:51.000Z</time>
      </trkpt>
      <trkpt lat="47.46647" lon="6.74814">
        <ele>364</ele>
        <time>2016-02-28T11:00:54.000Z</time>
      </trkpt>
      <trkpt lat="47.46646" lon="6.74815">
        <ele>364</ele>
        <time>2016-02-28T11:00:55.000Z</time>
      </trkpt>
      <trkpt lat="47.46642" lon="6.74817">
        <ele>364</ele>
        <time>2016-02-28T11:00:59.000Z</time>
      </trkpt>
      <trkpt lat="47.46642" lon="6.74819">
        <ele>364</ele>
        <time>2016-02-28T11:01:00.000Z</time>
      </trkpt>
      <trkpt lat="47.4664" lon="6.74825">
        <ele>365</ele>
        <time>2016-02-28T11:01:08.000Z</time>
      </trkpt>
      <trkpt lat="47.4664" lon="6.74825">
        <ele>365</ele>
        <time>2016-02-28T11:01:09.000Z</time>
      </trkpt>
      <trkpt lat="47.46639" lon="6.74831">
        <ele>365</ele>
        <time>2016-02-28T11:01:15.000Z</time>
      </trkpt>
      <trkpt lat="47.46639" lon="6.74832">
        <ele>365</ele>
        <time>2016-02-28T11:01:16.000Z</time>
      </trkpt>
      <trkpt lat="47.46638" lon="6.74838">
        <ele>368</ele>
        <time>2016-02-28T11:02:11.000Z</time>
      </trkpt>
      <trkpt lat="47.46639" lon="6.74839">
        <ele>368</ele>
        <time>2016-02-28T11:02:12.000Z</time>
      </trkpt>
      <trkpt lat="47.4664" lon="6.74844">
        <ele>368</ele>
        <time>2016-02-28T11:02:15.000Z</time>
      </trkpt>
      <trkpt lat="47.4664" lon="6.74846">
        <ele>368</ele>
        <time>2016-02-28T11:02:16.000Z</time>
      </trkpt>
      <trkpt lat="47.46642" lon="6.74851">
        <ele>368</ele>
        <time>2016-02-28T11:02:18.000Z</time>
      </trkpt>
      <trkpt lat="47.46643" lon="6.74854">
        <ele>368</ele>
        <time>2016-02-28T11:02:19.000Z</time>
      </trkpt>
      <trkpt lat="47.46644" lon="6.74857">
        <ele>368</ele>
        <time>2016-02-28T11:02:20.000Z</time>
      </trkpt>
      <trkpt lat="47.46645" lon="6.7486">
        <ele>368</ele>
        <time>2016-02-28T11:02:21.000Z</time>
      </trkpt>
      <trkpt lat="47.46647" lon="6.74866">
        <ele>369</ele>
        <time>2016-02-28T11:02:23.000Z</time>
      </trkpt>
      <trkpt lat="47.46647" lon="6.74869">
        <ele>369</ele>
        <time>2016-02-28T11:02:24.000Z</time>
      </trkpt>
      <trkpt lat="47.46648" lon="6.74875">
        <ele>369</ele>
        <time>2016-02-28T11:02:26.000Z</time>
      </trkpt>
      <trkpt lat="47.46649" lon="6.74878">
        <ele>369</ele>
        <time>2016-02-28T11:02:27.000Z</time>
      </trkpt>
      <trkpt lat="47.4665" lon="6.74884">
        <ele>368</ele>
        <time>2016-02-28T11:02:29.000Z</time>
      </trkpt>
      <trkpt lat="47.46651" lon="6.74887">
        <ele>368</ele>
        <time>2016-02-28T11:02:30.000Z</time>
      </trkpt>
      <trkpt lat="47.46652" lon="6.7489">
        <ele>368</ele>
        <time>2016-02-28T11:02:31.000Z</time>
      </trkpt>
      <trkpt lat="47.46654" lon="6.74894">
        <ele>368</ele>
        <time>2016-02-28T11:02:32.000Z</time>
      </trkpt>
      <trkpt lat="47.46655" lon="6.74898">
        <ele>368</ele>
        <time>2016-02-28T11:02:33.000Z</time>
      </trkpt>
      <trkpt lat="47.46656" lon="6.74902">
        <ele>368</ele>
        <time>2016-02-28T11:02:34.000Z</time>
      </trkpt>
      <trkpt lat="47.46658" lon="6.74905">
        <ele>367</ele>
        <time>2016-02-28T11:02:35.000Z</time>
      </trkpt>
      <trkpt lat="47.4666" lon="6.74908">
        <ele>367</ele>
        <time>2016-02-28T11:02:36.000Z</time>
      </trkpt>
      <trkpt lat="47.46663" lon="6.74912">
        <ele>366</ele>
        <time>2016-02-28T11:02:38.000Z</time>
      </trkpt>
      <trkpt lat="47.46664" lon="6.74914">
        <ele>366</ele>
        <time>2016-02-28T11:02:39.000Z</time>
      </trkpt>
      <trkpt lat="47.46667" lon="6.74918">
        <ele>365</ele>
        <time>2016-02-28T11:02:41.000Z</time>
      </trkpt>
      <trkpt lat="47.46669" lon="6.7492">
        <ele>364</ele>
        <time>2016-02-28T11:02:42.000Z</time>
      </trkpt>
      <trkpt lat="47.46671" lon="6.74924">
        <ele>364</ele>
        <time>2016-02-28T11:02:44.000Z</time>
      </trkpt>
      <trkpt lat="47.46672" lon="6.74927">
        <ele>363</ele>
        <time>2016-02-28T11:02:45.000Z</time>
      </trkpt>
      <trkpt lat="47.46673" lon="6.74931">
        <ele>363</ele>
        <time>2016-02-28T11:02:46.000Z</time>
      </trkpt>
      <trkpt lat="47.46674" lon="6.74935">
        <ele>363</ele>
        <time>2016-02-28T11:02:47.000Z</time>
      </trkpt>
      <trkpt lat="47.46675" lon="6.74939">
        <ele>363</ele>
        <time>2016-02-28T11:02:48.000Z</time>
      </trkpt>
      <trkpt lat="47.46676" lon="6.74942">
        <ele>363</ele>
        <time>2016-02-28T11:02:49.000Z</time>
      </trkpt>
      <trkpt lat="47.46677" lon="6.74946">
        <ele>362</ele>
        <time>2016-02-28T11:02:50.000Z</time>
      </trkpt>
      <trkpt lat="47.46678" lon="6.74949">
        <ele>362</ele>
        <time>2016-02-28T11:02:51.000Z</time>
      </trkpt>
      <trkpt lat="47.46679" lon="6.74953">
        <ele>362</ele>
        <time>2016-02-28T11:02:52.000Z</time>
      </trkpt>
      <trkpt lat="47.4668" lon="6.74956">
        <ele>362</ele>
        <time>2016-02-28T11:02:53.000Z</time>
      </trkpt>
      <trkpt lat="47.46681" lon="6.74959">
        <ele>363</ele>
        <time>2016-02-28T11:02:54.000Z</time>
      </trkpt>
      <trkpt lat="47.46682" lon="6.74963">
        <ele>363</ele>
        <time>2016-02-28T11:02:55.000Z</time>
      </trkpt>
      <trkpt lat="47.46683" lon="6.74966">
        <ele>363</ele>
        <time>2016-02-28T11:02:56.000Z</time>
      </trkpt>
      <trkpt lat="47.46684" lon="6.74969">
        <ele>363</ele>
        <time>2016-02-28T11:02:57.000Z</time>
      </trkpt>
      <trkpt lat="47.46685" lon="6.74973">
        <ele>363</ele>
        <time>2016-02-28T11:02:58.000Z</time>
      </trkpt>
      <trkpt lat="47.46686" lon="6.74976">
        <ele>363</ele>
        <time>2016-02-28T11:02:59.000Z</time>
      </trkpt>
      <trkpt lat="47.46687" lon="6.7498">
        <ele>363</ele>
        <time>2016-02-28T11:03:00.000Z</time>
      </trkpt>
      <trkpt lat="47.46687" lon="6.74984">
        <ele>364</ele>
        <time>2016-02-28T11:03:01.000Z</time>
      </trkpt>
      <trkpt lat="47.46686" lon="6.74988">
        <ele>364</ele>
        <time>2016-02-28T11:03:02.000Z</time>
      </trkpt>
      <trkpt lat="47.46686" lon="6.74992">
        <ele>365</ele>
        <time>2016-02-28T11:03:03.000Z</time>
      </trkpt>
      <trkpt lat="47.46686" lon="6.74995">
        <ele>365</ele>
        <time>2016-02-28T11:03:04.000Z</time>
      </trkpt>
      <trkpt lat="47.46687" lon="6.74999">
        <ele>365</ele>
        <time>2016-02-28T11:03:05.000Z</time>
      </trkpt>
      <trkpt lat="47.46689" lon="6.75004">
        <ele>366</ele>
        <time>2016-02-28T11:03:07.000Z</time>
      </trkpt>
      <trkpt lat="47.46689" lon="6.75006">
        <ele>366</ele>
        <time>2016-02-28T11:03:08.000Z</time>
      </trkpt>
      <trkpt lat="47.4669" lon="6.75009">
        <ele>366</ele>
        <time>2016-02-28T11:03:09.000Z</time>
      </trkpt>
      <trkpt lat="47.46691" lon="6.75013">
        <ele>366</ele>
        <time>2016-02-28T11:03:10.000Z</time>
      </trkpt>
      <trkpt lat="47.46691" lon="6.75017">
        <ele>366</ele>
        <time>2016-02-28T11:03:11.000Z</time>
      </trkpt>
      <trkpt lat="47.46692" lon="6.7502">
        <ele>365</ele>
        <time>2016-02-28T11:03:12.000Z</time>
      </trkpt>
      <trkpt lat="47.46694" lon="6.75026">
        <ele>365</ele>
        <time>2016-02-28T11:03:14.000Z</time>
      </trkpt>
      <trkpt lat="47.46694" lon="6.75029">
        <ele>365</ele>
        <time>2016-02-28T11:03:15.000Z</time>
      </trkpt>
      <trkpt lat="47.46696" lon="6.75034">
        <ele>365</ele>
        <time>2016-02-28T11:03:18.000Z</time>
      </trkpt>
      <trkpt lat="47.46696" lon="6.75036">
        <ele>365</ele>
        <time>2016-02-28T11:03:19.000Z</time>
      </trkpt>
      <trkpt lat="47.46696" lon="6.75041">
        <ele>365</ele>
        <time>2016-02-28T11:03:24.000Z</time>
      </trkpt>
      <trkpt lat="47.46696" lon="6.75043">
        <ele>365</ele>
        <time>2016-02-28T11:03:25.000Z</time>
      </trkpt>
      <trkpt lat="47.46697" lon="6.75048">
        <ele>365</ele>
        <time>2016-02-28T11:03:27.000Z</time>
      </trkpt>
      <trkpt lat="47.46698" lon="6.75051">
        <ele>366</ele>
        <time>2016-02-28T11:03:28.000Z</time>
      </trkpt>
      <trkpt lat="47.46698" lon="6.75055">
        <ele>366</ele>
        <time>2016-02-28T11:03:29.000Z</time>
      </trkpt>
      <trkpt lat="47.46699" lon="6.75059">
        <ele>366</ele>
        <time>2016-02-28T11:03:30.000Z</time>
      </trkpt>
      <trkpt lat="47.46699" lon="6.75063">
        <ele>366</ele>
        <time>2016-02-28T11:03:31.000Z</time>
      </trkpt>
      <trkpt lat="47.46699" lon="6.75067">
        <ele>366</ele>
        <time>2016-02-28T11:03:32.000Z</time>
      </trkpt>
      <trkpt lat="47.46699" lon="6.75072">
        <ele>366</ele>
        <time>2016-02-28T11:03:33.000Z</time>
      </trkpt>
      <trkpt lat="47.46699" lon="6.75076">
        <ele>366</ele>
        <time>2016-02-28T11:03:34.000Z</time>
      </trkpt>
      <trkpt lat="47.46699" lon="6.75081">
        <ele>367</ele>
        <time>2016-02-28T11:03:35.000Z</time>
      </trkpt>
      <trkpt lat="47.46699" lon="6.75086">
        <ele>368</ele>
        <time>2016-02-28T11:03:36.000Z</time>
      </trkpt>
      <trkpt lat="47.46699" lon="6.75091">
        <ele>368</ele>
        <time>2016-02-28T11:03:37.000Z</time>
      </trkpt>
      <trkpt lat="47.467" lon="6.75096">
        <ele>368</ele>
        <time>2016-02-28T11:03:38.000Z</time>
      </trkpt>
      <trkpt lat="47.467" lon="6.751">
        <ele>368</ele>
        <time>2016-02-28T11:03:39.000Z</time>
      </trkpt>
      <trkpt lat="47.467" lon="6.75105">
        <ele>368</ele>
        <time>2016-02-28T11:03:40.000Z</time>
      </trkpt>
      <trkpt lat="47.46701" lon="6.75109">
        <ele>368</ele>
        <time>2016-02-28T11:03:41.000Z</time>
      </trkpt>
      <trkpt lat="47.46701" lon="6.75112">
        <ele>368</ele>
        <time>2016-02-28T11:03:42.000Z</time>
      </trkpt>
      <trkpt lat="47.46701" lon="6.75117">
        <ele>368</ele>
        <time>2016-02-28T11:03:44.000Z</time>
      </trkpt>
      <trkpt lat="47.467" lon="6.75119">
        <ele>368</ele>
        <time>2016-02-28T11:03:45.000Z</time>
      </trkpt>
      <trkpt lat="47.46699" lon="6.75124">
        <ele>368</ele>
        <time>2016-02-28T11:03:47.000Z</time>
      </trkpt>
      <trkpt lat="47.46698" lon="6.75128">
        <ele>368</ele>
        <time>2016-02-28T11:03:48.000Z</time>
      </trkpt>
      <trkpt lat="47.46698" lon="6.75131">
        <ele>368</ele>
        <time>2016-02-28T11:03:49.000Z</time>
      </trkpt>
      <trkpt lat="47.46698" lon="6.75134">
        <ele>368</ele>
        <time>2016-02-28T11:03:50.000Z</time>
      </trkpt>
      <trkpt lat="47.46698" lon="6.7514">
        <ele>368</ele>
        <time>2016-02-28T11:03:52.000Z</time>
      </trkpt>
      <trkpt lat="47.46699" lon="6.75143">
        <ele>368</ele>
        <time>2016-02-28T11:03:53.000Z</time>
      </trkpt>
      <trkpt lat="47.467" lon="6.7515">
        <ele>368</ele>
        <time>2016-02-28T11:03:55.000Z</time>
      </trkpt>
      <trkpt lat="47.46699" lon="6.75153">
        <ele>368</ele>
        <time>2016-02-28T11:03:56.000Z</time>
      </trkpt>
      <trkpt lat="47.46699" lon="6.75159">
        <ele>369</ele>
        <time>2016-02-28T11:03:58.000Z</time>
      </trkpt>
      <trkpt lat="47.46698" lon="6.75162">
        <ele>369</ele>
        <time>2016-02-28T11:03:59.000Z</time>
      </trkpt>
      <trkpt lat="47.46697" lon="6.75168">
        <ele>369</ele>
        <time>2016-02-28T11:04:01.000Z</time>
      </trkpt>
      <trkpt lat="47.46697" lon="6.75172">
        <ele>369</ele>
        <time>2016-02-28T11:04:02.000Z</time>
      </trkpt>
      <trkpt lat="47.46698" lon="6.75176">
        <ele>369</ele>
        <time>2016-02-28T11:04:03.000Z</time>
      </trkpt>
      <trkpt lat="47.46698" lon="6.75182">
        <ele>368</ele>
        <time>2016-02-28T11:04:04.000Z</time>
      </trkpt>
      <trkpt lat="47.46698" lon="6.75187">
        <ele>368</ele>
        <time>2016-02-28T11:04:05.000Z</time>
      </trkpt>
      <trkpt lat="47.46699" lon="6.75193">
        <ele>368</ele>
        <time>2016-02-28T11:04:06.000Z</time>
      </trkpt>
      <trkpt lat="47.46698" lon="6.75198">
        <ele>368</ele>
        <time>2016-02-28T11:04:07.000Z</time>
      </trkpt>
      <trkpt lat="47.46698" lon="6.75202">
        <ele>368</ele>
        <time>2016-02-28T11:04:08.000Z</time>
      </trkpt>
      <trkpt lat="47.46698" lon="6.75207">
        <ele>368</ele>
        <time>2016-02-28T11:04:09.000Z</time>
      </trkpt>
      <trkpt lat="47.46698" lon="6.75212">
        <ele>368</ele>
        <time>2016-02-28T11:04:10.000Z</time>
      </trkpt>
      <trkpt lat="47.46698" lon="6.75216">
        <ele>368</ele>
        <time>2016-02-28T11:04:11.000Z</time>
      </trkpt>
      <trkpt lat="47.46698" lon="6.7522">
        <ele>368</ele>
        <time>2016-02-28T11:04:12.000Z</time>
      </trkpt>
      <trkpt lat="47.46698" lon="6.75224">
        <ele>368</ele>
        <time>2016-02-28T11:04:13.000Z</time>
      </trkpt>
      <trkpt lat="47.46698" lon="6.75228">
        <ele>368</ele>
        <time>2016-02-28T11:04:14.000Z</time>
      </trkpt>
      <trkpt lat="47.467" lon="6.75232">
        <ele>367</ele>
        <time>2016-02-28T11:04:15.000Z</time>
      </trkpt>
      <trkpt lat="47.46701" lon="6.75236">
        <ele>367</ele>
        <time>2016-02-28T11:04:16.000Z</time>
      </trkpt>
      <trkpt lat="47.46702" lon="6.7524">
        <ele>367</ele>
        <time>2016-02-28T11:04:17.000Z</time>
      </trkpt>
      <trkpt lat="47.46702" lon="6.75244">
        <ele>367</ele>
        <time>2016-02-28T11:04:18.000Z</time>
      </trkpt>
      <trkpt lat="47.46701" lon="6.75249">
        <ele>367</ele>
        <time>2016-02-28T11:04:20.000Z</time>
      </trkpt>
      <trkpt lat="47.467" lon="6.7525">
        <ele>368</ele>
        <time>2016-02-28T11:04:21.000Z</time>
      </trkpt>
      <trkpt lat="47.46699" lon="6.75254">
        <ele>368</ele>
        <time>2016-02-28T11:04:24.000Z</time>
      </trkpt>
      <trkpt lat="47.46699" lon="6.75257">
        <ele>368</ele>
        <time>2016-02-28T11:04:25.000Z</time>
      </trkpt>
      <trkpt lat="47.467" lon="6.75262">
        <ele>367</ele>
        <time>2016-02-28T11:04:27.000Z</time>
      </trkpt>
      <trkpt lat="47.467" lon="6.75265">
        <ele>367</ele>
        <time>2016-02-28T11:04:28.000Z</time>
      </trkpt>
      <trkpt lat="47.467" lon="6.75268">
        <ele>367</ele>
        <time>2016-02-28T11:04:29.000Z</time>
      </trkpt>
      <trkpt lat="47.467" lon="6.75272">
        <ele>367</ele>
        <time>2016-02-28T11:04:30.000Z</time>
      </trkpt>
      <trkpt lat="47.467" lon="6.75276">
        <ele>367</ele>
        <time>2016-02-28T11:04:31.000Z</time>
      </trkpt>
      <trkpt lat="47.46701" lon="6.75282">
        <ele>367</ele>
        <time>2016-02-28T11:04:32.000Z</time>
      </trkpt>
      <trkpt lat="47.46706" lon="6.75303">
        <ele>366</ele>
        <time>2016-02-28T11:04:33.000Z</time>
      </trkpt>
      <trkpt lat="47.46711" lon="6.75311">
        <ele>365</ele>
        <time>2016-02-28T11:04:34.000Z</time>
      </trkpt>
      <trkpt lat="47.46713" lon="6.75316">
        <ele>365</ele>
        <time>2016-02-28T11:04:35.000Z</time>
      </trkpt>
      <trkpt lat="47.46715" lon="6.75322">
        <ele>364</ele>
        <time>2016-02-28T11:04:36.000Z</time>
      </trkpt>
      <trkpt lat="47.46717" lon="6.7533">
        <ele>364</ele>
        <time>2016-02-28T11:04:37.000Z</time>
      </trkpt>
      <trkpt lat="47.46718" lon="6.75339">
        <ele>362</ele>
        <time>2016-02-28T11:04:38.000Z</time>
      </trkpt>
      <trkpt lat="47.46714" lon="6.75351">
        <ele>363</ele>
        <time>2016-02-28T11:04:39.000Z</time>
      </trkpt>
      <trkpt lat="47.46714" lon="6.7536">
        <ele>363</ele>
        <time>2016-02-28T11:04:40.000Z</time>
      </trkpt>
      <trkpt lat="47.46714" lon="6.7537">
        <ele>363</ele>
        <time>2016-02-28T11:04:41.000Z</time>
      </trkpt>
      <trkpt lat="47.46715" lon="6.75379">
        <ele>362</ele>
        <time>2016-02-28T11:04:42.000Z</time>
      </trkpt>
      <trkpt lat="47.46716" lon="6.75386">
        <ele>362</ele>
        <time>2016-02-28T11:04:43.000Z</time>
      </trkpt>
      <trkpt lat="47.46715" lon="6.75391">
        <ele>362</ele>
        <time>2016-02-28T11:04:44.000Z</time>
      </trkpt>
      <trkpt lat="47.4671" lon="6.75397">
        <ele>363</ele>
        <time>2016-02-28T11:04:45.000Z</time>
      </trkpt>
      <trkpt lat="47.46708" lon="6.75402">
        <ele>363</ele>
        <time>2016-02-28T11:04:46.000Z</time>
      </trkpt>
      <trkpt lat="47.46706" lon="6.75408">
        <ele>363</ele>
        <time>2016-02-28T11:04:47.000Z</time>
      </trkpt>
      <trkpt lat="47.46704" lon="6.75413">
        <ele>364</ele>
        <time>2016-02-28T11:04:48.000Z</time>
      </trkpt>
      <trkpt lat="47.46701" lon="6.75417">
        <ele>361</ele>
        <time>2016-02-28T11:04:49.000Z</time>
      </trkpt>
      <trkpt lat="47.46698" lon="6.75422">
        <ele>361</ele>
        <time>2016-02-28T11:04:50.000Z</time>
      </trkpt>
      <trkpt lat="47.46696" lon="6.75425">
        <ele>362</ele>
        <time>2016-02-28T11:04:51.000Z</time>
      </trkpt>
      <trkpt lat="47.46695" lon="6.75427">
        <ele>362</ele>
        <time>2016-02-28T11:04:52.000Z</time>
      </trkpt>
      <trkpt lat="47.46694" lon="6.75432">
        <ele>362</ele>
        <time>2016-02-28T11:04:53.000Z</time>
      </trkpt>
      <trkpt lat="47.46692" lon="6.75436">
        <ele>362</ele>
        <time>2016-02-28T11:04:54.000Z</time>
      </trkpt>
      <trkpt lat="47.46689" lon="6.75442">
        <ele>362</ele>
        <time>2016-02-28T11:04:55.000Z</time>
      </trkpt>
      <trkpt lat="47.46688" lon="6.75447">
        <ele>362</ele>
        <time>2016-02-28T11:04:56.000Z</time>
      </trkpt>
      <trkpt lat="47.46686" lon="6.75451">
        <ele>361</ele>
        <time>2016-02-28T11:04:57.000Z</time>
      </trkpt>
      <trkpt lat="47.46684" lon="6.75455">
        <ele>361</ele>
        <time>2016-02-28T11:04:58.000Z</time>
      </trkpt>
      <trkpt lat="47.46683" lon="6.75459">
        <ele>361</ele>
        <time>2016-02-28T11:04:59.000Z</time>
      </trkpt>
      <trkpt lat="47.46681" lon="6.75462">
        <ele>361</ele>
        <time>2016-02-28T11:05:00.000Z</time>
      </trkpt>
      <trkpt lat="47.4668" lon="6.75465">
        <ele>361</ele>
        <time>2016-02-28T11:05:01.000Z</time>
      </trkpt>
      <trkpt lat="47.46678" lon="6.7547">
        <ele>361</ele>
        <time>2016-02-28T11:05:02.000Z</time>
      </trkpt>
      <trkpt lat="47.46677" lon="6.75474">
        <ele>361</ele>
        <time>2016-02-28T11:05:03.000Z</time>
      </trkpt>
      <trkpt lat="47.46675" lon="6.75478">
        <ele>361</ele>
        <time>2016-02-28T11:05:04.000Z</time>
      </trkpt>
      <trkpt lat="47.46674" lon="6.75482">
        <ele>361</ele>
        <time>2016-02-28T11:05:05.000Z</time>
      </trkpt>
      <trkpt lat="47.46672" lon="6.75485">
        <ele>361</ele>
        <time>2016-02-28T11:05:06.000Z</time>
      </trkpt>
      <trkpt lat="47.4667" lon="6.75488">
        <ele>362</ele>
        <time>2016-02-28T11:05:07.000Z</time>
      </trkpt>
      <trkpt lat="47.46668" lon="6.7549">
        <ele>362</ele>
        <time>2016-02-28T11:05:08.000Z</time>
      </trkpt>
      <trkpt lat="47.46666" lon="6.75493">
        <ele>368</ele>
        <time>2016-02-28T11:05:09.000Z</time>
      </trkpt>
      <trkpt lat="47.46664" lon="6.75496">
        <ele>367</ele>
        <time>2016-02-28T11:05:10.000Z</time>
      </trkpt>
      <trkpt lat="47.46662" lon="6.75499">
        <ele>367</ele>
        <time>2016-02-28T11:05:11.000Z</time>
      </trkpt>
      <trkpt lat="47.4666" lon="6.75503">
        <ele>366</ele>
        <time>2016-02-28T11:05:12.000Z</time>
      </trkpt>
      <trkpt lat="47.46659" lon="6.75506">
        <ele>367</ele>
        <time>2016-02-28T11:05:13.000Z</time>
      </trkpt>
      <trkpt lat="47.46656" lon="6.75511">
        <ele>368</ele>
        <time>2016-02-28T11:05:15.000Z</time>
      </trkpt>
      <trkpt lat="47.46655" lon="6.75514">
        <ele>369</ele>
        <time>2016-02-28T11:05:16.000Z</time>
      </trkpt>
      <trkpt lat="47.46655" lon="6.75521">
        <ele>369</ele>
        <time>2016-02-28T11:05:18.000Z</time>
      </trkpt>
      <trkpt lat="47.46654" lon="6.75524">
        <ele>369</ele>
        <time>2016-02-28T11:05:19.000Z</time>
      </trkpt>
      <trkpt lat="47.46654" lon="6.75528">
        <ele>370</ele>
        <time>2016-02-28T11:05:20.000Z</time>
      </trkpt>
      <trkpt lat="47.46653" lon="6.75532">
        <ele>370</ele>
        <time>2016-02-28T11:05:21.000Z</time>
      </trkpt>
      <trkpt lat="47.46653" lon="6.75538">
        <ele>370</ele>
        <time>2016-02-28T11:05:22.000Z</time>
      </trkpt>
      <trkpt lat="47.46652" lon="6.75543">
        <ele>369</ele>
        <time>2016-02-28T11:05:23.000Z</time>
      </trkpt>
      <trkpt lat="47.46651" lon="6.75549">
        <ele>369</ele>
        <time>2016-02-28T11:05:24.000Z</time>
      </trkpt>
      <trkpt lat="47.4665" lon="6.75555">
        <ele>368</ele>
        <time>2016-02-28T11:05:25.000Z</time>
      </trkpt>
      <trkpt lat="47.4665" lon="6.75561">
        <ele>368</ele>
        <time>2016-02-28T11:05:26.000Z</time>
      </trkpt>
      <trkpt lat="47.46649" lon="6.75566">
        <ele>367</ele>
        <time>2016-02-28T11:05:27.000Z</time>
      </trkpt>
      <trkpt lat="47.46649" lon="6.75572">
        <ele>366</ele>
        <time>2016-02-28T11:05:28.000Z</time>
      </trkpt>
      <trkpt lat="47.46649" lon="6.75577">
        <ele>366</ele>
        <time>2016-02-28T11:05:29.000Z</time>
      </trkpt>
      <trkpt lat="47.46648" lon="6.75582">
        <ele>365</ele>
        <time>2016-02-28T11:05:30.000Z</time>
      </trkpt>
      <trkpt lat="47.46648" lon="6.75588">
        <ele>364</ele>
        <time>2016-02-28T11:05:31.000Z</time>
      </trkpt>
      <trkpt lat="47.46648" lon="6.75594">
        <ele>364</ele>
        <time>2016-02-28T11:05:32.000Z</time>
      </trkpt>
      <trkpt lat="47.46647" lon="6.756">
        <ele>365</ele>
        <time>2016-02-28T11:05:33.000Z</time>
      </trkpt>
      <trkpt lat="47.46646" lon="6.75606">
        <ele>366</ele>
        <time>2016-02-28T11:05:34.000Z</time>
      </trkpt>
      <trkpt lat="47.46646" lon="6.75612">
        <ele>366</ele>
        <time>2016-02-28T11:05:35.000Z</time>
      </trkpt>
      <trkpt lat="47.46645" lon="6.75619">
        <ele>367</ele>
        <time>2016-02-28T11:05:36.000Z</time>
      </trkpt>
      <trkpt lat="47.46645" lon="6.75626">
        <ele>367</ele>
        <time>2016-02-28T11:05:37.000Z</time>
      </trkpt>
      <trkpt lat="47.46646" lon="6.75634">
        <ele>367</ele>
        <time>2016-02-28T11:05:38.000Z</time>
      </trkpt>
      <trkpt lat="47.46648" lon="6.75642">
        <ele>366</ele>
        <time>2016-02-28T11:05:39.000Z</time>
      </trkpt>
      <trkpt lat="47.46649" lon="6.7565">
        <ele>366</ele>
        <time>2016-02-28T11:05:40.000Z</time>
      </trkpt>
      <trkpt lat="47.46651" lon="6.75657">
        <ele>365</ele>
        <time>2016-02-28T11:05:41.000Z</time>
      </trkpt>
      <trkpt lat="47.46654" lon="6.75664">
        <ele>364</ele>
        <time>2016-02-28T11:05:42.000Z</time>
      </trkpt>
      <trkpt lat="47.46656" lon="6.75671">
        <ele>363</ele>
        <time>2016-02-28T11:05:43.000Z</time>
      </trkpt>
      <trkpt lat="47.46659" lon="6.75677">
        <ele>363</ele>
        <time>2016-02-28T11:05:44.000Z</time>
      </trkpt>
      <trkpt lat="47.46662" lon="6.75682">
        <ele>363</ele>
        <time>2016-02-28T11:05:45.000Z</time>
      </trkpt>
      <trkpt lat="47.46665" lon="6.75688">
        <ele>364</ele>
        <time>2016-02-28T11:05:46.000Z</time>
      </trkpt>
      <trkpt lat="47.46668" lon="6.75693">
        <ele>356</ele>
        <time>2016-02-28T11:05:47.000Z</time>
      </trkpt>
      <trkpt lat="47.4667" lon="6.75698">
        <ele>356</ele>
        <time>2016-02-28T11:05:48.000Z</time>
      </trkpt>
      <trkpt lat="47.46672" lon="6.75703">
        <ele>356</ele>
        <time>2016-02-28T11:05:49.000Z</time>
      </trkpt>
      <trkpt lat="47.46674" lon="6.75707">
        <ele>356</ele>
        <time>2016-02-28T11:05:50.000Z</time>
      </trkpt>
      <trkpt lat="47.46676" lon="6.75712">
        <ele>356</ele>
        <time>2016-02-28T11:05:51.000Z</time>
      </trkpt>
      <trkpt lat="47.46678" lon="6.75717">
        <ele>356</ele>
        <time>2016-02-28T11:05:52.000Z</time>
      </trkpt>
      <trkpt lat="47.4668" lon="6.75723">
        <ele>356</ele>
        <time>2016-02-28T11:05:53.000Z</time>
      </trkpt>
      <trkpt lat="47.46682" lon="6.75729">
        <ele>356</ele>
        <time>2016-02-28T11:05:54.000Z</time>
      </trkpt>
      <trkpt lat="47.46684" lon="6.75736">
        <ele>357</ele>
        <time>2016-02-28T11:05:55.000Z</time>
      </trkpt>
      <trkpt lat="47.46686" lon="6.75747">
        <ele>357</ele>
        <time>2016-02-28T11:05:56.000Z</time>
      </trkpt>
      <trkpt lat="47.46689" lon="6.75753">
        <ele>356</ele>
        <time>2016-02-28T11:05:57.000Z</time>
      </trkpt>
      <trkpt lat="47.46691" lon="6.75759">
        <ele>355</ele>
        <time>2016-02-28T11:05:58.000Z</time>
      </trkpt>
      <trkpt lat="47.46696" lon="6.75765">
        <ele>355</ele>
        <time>2016-02-28T11:05:59.000Z</time>
      </trkpt>
      <trkpt lat="47.46698" lon="6.75771">
        <ele>354</ele>
        <time>2016-02-28T11:06:00.000Z</time>
      </trkpt>
      <trkpt lat="47.46698" lon="6.75777">
        <ele>354</ele>
        <time>2016-02-28T11:06:01.000Z</time>
      </trkpt>
      <trkpt lat="47.467" lon="6.75783">
        <ele>354</ele>
        <time>2016-02-28T11:06:02.000Z</time>
      </trkpt>
      <trkpt lat="47.467" lon="6.75791">
        <ele>353</ele>
        <time>2016-02-28T11:06:03.000Z</time>
      </trkpt>
      <trkpt lat="47.46701" lon="6.75796">
        <ele>353</ele>
        <time>2016-02-28T11:06:04.000Z</time>
      </trkpt>
      <trkpt lat="47.46702" lon="6.75801">
        <ele>353</ele>
        <time>2016-02-28T11:06:05.000Z</time>
      </trkpt>
      <trkpt lat="47.46702" lon="6.75805">
        <ele>353</ele>
        <time>2016-02-28T11:06:06.000Z</time>
      </trkpt>
      <trkpt lat="47.46701" lon="6.75811">
        <ele>353</ele>
        <time>2016-02-28T11:06:07.000Z</time>
      </trkpt>
      <trkpt lat="47.46701" lon="6.75816">
        <ele>353</ele>
        <time>2016-02-28T11:06:08.000Z</time>
      </trkpt>
      <trkpt lat="47.46698" lon="6.75821">
        <ele>354</ele>
        <time>2016-02-28T11:06:09.000Z</time>
      </trkpt>
      <trkpt lat="47.46697" lon="6.75827">
        <ele>354</ele>
        <time>2016-02-28T11:06:10.000Z</time>
      </trkpt>
      <trkpt lat="47.46696" lon="6.75833">
        <ele>354</ele>
        <time>2016-02-28T11:06:11.000Z</time>
      </trkpt>
      <trkpt lat="47.46695" lon="6.75842">
        <ele>352</ele>
        <time>2016-02-28T11:06:12.000Z</time>
      </trkpt>
      <trkpt lat="47.46695" lon="6.75852">
        <ele>351</ele>
        <time>2016-02-28T11:06:13.000Z</time>
      </trkpt>
      <trkpt lat="47.46695" lon="6.7586">
        <ele>351</ele>
        <time>2016-02-28T11:06:14.000Z</time>
      </trkpt>
      <trkpt lat="47.46694" lon="6.75868">
        <ele>351</ele>
        <time>2016-02-28T11:06:15.000Z</time>
      </trkpt>
      <trkpt lat="47.46692" lon="6.75875">
        <ele>350</ele>
        <time>2016-02-28T11:06:16.000Z</time>
      </trkpt>
      <trkpt lat="47.46692" lon="6.7588">
        <ele>350</ele>
        <time>2016-02-28T11:06:17.000Z</time>
      </trkpt>
      <trkpt lat="47.46692" lon="6.75888">
        <ele>350</ele>
        <time>2016-02-28T11:06:18.000Z</time>
      </trkpt>
      <trkpt lat="47.46691" lon="6.75897">
        <ele>350</ele>
        <time>2016-02-28T11:06:19.000Z</time>
      </trkpt>
      <trkpt lat="47.4669" lon="6.75908">
        <ele>350</ele>
        <time>2016-02-28T11:06:20.000Z</time>
      </trkpt>
      <trkpt lat="47.4669" lon="6.75913">
        <ele>350</ele>
        <time>2016-02-28T11:06:21.000Z</time>
      </trkpt>
      <trkpt lat="47.4669" lon="6.75919">
        <ele>348</ele>
        <time>2016-02-28T11:06:22.000Z</time>
      </trkpt>
      <trkpt lat="47.4669" lon="6.75924">
        <ele>348</ele>
        <time>2016-02-28T11:06:23.000Z</time>
      </trkpt>
      <trkpt lat="47.46689" lon="6.75929">
        <ele>348</ele>
        <time>2016-02-28T11:06:24.000Z</time>
      </trkpt>
      <trkpt lat="47.4669" lon="6.75935">
        <ele>347</ele>
        <time>2016-02-28T11:06:25.000Z</time>
      </trkpt>
      <trkpt lat="47.4669" lon="6.75941">
        <ele>347</ele>
        <time>2016-02-28T11:06:26.000Z</time>
      </trkpt>
      <trkpt lat="47.4669" lon="6.75948">
        <ele>346</ele>
        <time>2016-02-28T11:06:27.000Z</time>
      </trkpt>
      <trkpt lat="47.46689" lon="6.75954">
        <ele>346</ele>
        <time>2016-02-28T11:06:28.000Z</time>
      </trkpt>
      <trkpt lat="47.46689" lon="6.75961">
        <ele>346</ele>
        <time>2016-02-28T11:06:29.000Z</time>
      </trkpt>
      <trkpt lat="47.46688" lon="6.75969">
        <ele>346</ele>
        <time>2016-02-28T11:06:30.000Z</time>
      </trkpt>
      <trkpt lat="47.46686" lon="6.75977">
        <ele>346</ele>
        <time>2016-02-28T11:06:31.000Z</time>
      </trkpt>
      <trkpt lat="47.46684" lon="6.75985">
        <ele>346</ele>
        <time>2016-02-28T11:06:32.000Z</time>
      </trkpt>
      <trkpt lat="47.46684" lon="6.75993">
        <ele>346</ele>
        <time>2016-02-28T11:06:33.000Z</time>
      </trkpt>
      <trkpt lat="47.46684" lon="6.75999">
        <ele>346</ele>
        <time>2016-02-28T11:06:34.000Z</time>
      </trkpt>
      <trkpt lat="47.46687" lon="6.76004">
        <ele>343</ele>
        <time>2016-02-28T11:06:35.000Z</time>
      </trkpt>
      <trkpt lat="47.46692" lon="6.76006">
        <ele>342</ele>
        <time>2016-02-28T11:06:36.000Z</time>
      </trkpt>
      <trkpt lat="47.46698" lon="6.76007">
        <ele>341</ele>
        <time>2016-02-28T11:06:37.000Z</time>
      </trkpt>
      <trkpt lat="47.46704" lon="6.76007">
        <ele>340</ele>
        <time>2016-02-28T11:06:38.000Z</time>
      </trkpt>
      <trkpt lat="47.46709" lon="6.76007">
        <ele>339</ele>
        <time>2016-02-28T11:06:39.000Z</time>
      </trkpt>
      <trkpt lat="47.46712" lon="6.76009">
        <ele>339</ele>
        <time>2016-02-28T11:06:40.000Z</time>
      </trkpt>
      <trkpt lat="47.46714" lon="6.76011">
        <ele>339</ele>
        <time>2016-02-28T11:06:41.000Z</time>
      </trkpt>
      <trkpt lat="47.46718" lon="6.76012">
        <ele>338</ele>
        <time>2016-02-28T11:06:45.000Z</time>
      </trkpt>
      <trkpt lat="47.46718" lon="6.76012">
        <ele>338</ele>
        <time>2016-02-28T11:06:46.000Z</time>
      </trkpt>
      <trkpt lat="47.46723" lon="6.76012">
        <ele>338</ele>
        <time>2016-02-28T11:07:05.000Z</time>
      </trkpt>
      <trkpt lat="47.46724" lon="6.76012">
        <ele>338</ele>
        <time>2016-02-28T11:07:06.000Z</time>
      </trkpt>
      <trkpt lat="47.46728" lon="6.7601">
        <ele>337</ele>
        <time>2016-02-28T11:07:08.000Z</time>
      </trkpt>
      <trkpt lat="47.46731" lon="6.76009">
        <ele>337</ele>
        <time>2016-02-28T11:07:09.000Z</time>
      </trkpt>
      <trkpt lat="47.46733" lon="6.76009">
        <ele>337</ele>
        <time>2016-02-28T11:07:10.000Z</time>
      </trkpt>
      <trkpt lat="47.46735" lon="6.76009">
        <ele>337</ele>
        <time>2016-02-28T11:07:11.000Z</time>
      </trkpt>
      <trkpt lat="47.46739" lon="6.7601">
        <ele>336</ele>
        <time>2016-02-28T11:07:13.000Z</time>
      </trkpt>
      <trkpt lat="47.4674" lon="6.7601">
        <ele>336</ele>
        <time>2016-02-28T11:07:14.000Z</time>
      </trkpt>
      <trkpt lat="47.46744" lon="6.76011">
        <ele>336</ele>
        <time>2016-02-28T11:07:17.000Z</time>
      </trkpt>
      <trkpt lat="47.46745" lon="6.76011">
        <ele>336</ele>
        <time>2016-02-28T11:07:17.999Z</time>
      </trkpt>
      <trkpt lat="47.46747" lon="6.76012">
        <ele>336</ele>
        <time>2016-02-28T11:07:19.000Z</time>
      </trkpt>
      <trkpt lat="47.46749" lon="6.76013">
        <ele>336</ele>
        <time>2016-02-28T11:07:20.000Z</time>
      </trkpt>
      <trkpt lat="47.46754" lon="6.76014">
        <ele>333</ele>
        <time>2016-02-28T11:07:22.000Z</time>
      </trkpt>
      <trkpt lat="47.46756" lon="6.76015">
        <ele>333</ele>
        <time>2016-02-28T11:07:23.000Z</time>
      </trkpt>
      <trkpt lat="47.46759" lon="6.76018">
        <ele>333</ele>
        <time>2016-02-28T11:07:25.000Z</time>
      </trkpt>
      <trkpt lat="47.46761" lon="6.76019">
        <ele>332</ele>
        <time>2016-02-28T11:07:25.999Z</time>
      </trkpt>
      <trkpt lat="47.46764" lon="6.76023">
        <ele>332</ele>
        <time>2016-02-28T11:07:27.000Z</time>
      </trkpt>
      <trkpt lat="47.46766" lon="6.76027">
        <ele>332</ele>
        <time>2016-02-28T11:07:28.000Z</time>
      </trkpt>
      <trkpt lat="47.46769" lon="6.76029">
        <ele>332</ele>
        <time>2016-02-28T11:07:29.000Z</time>
      </trkpt>
      <trkpt lat="47.46771" lon="6.76032">
        <ele>332</ele>
        <time>2016-02-28T11:07:30.000Z</time>
      </trkpt>
      <trkpt lat="47.46774" lon="6.76033">
        <ele>331</ele>
        <time>2016-02-28T11:07:31.000Z</time>
      </trkpt>
      <trkpt lat="47.46776" lon="6.76035">
        <ele>331</ele>
        <time>2016-02-28T11:07:32.000Z</time>
      </trkpt>
      <trkpt lat="47.46779" lon="6.76036">
        <ele>331</ele>
        <time>2016-02-28T11:07:33.000Z</time>
      </trkpt>
      <trkpt lat="47.46781" lon="6.76037">
        <ele>331</ele>
        <time>2016-02-28T11:07:34.000Z</time>
      </trkpt>
      <trkpt lat="47.46784" lon="6.76036">
        <ele>331</ele>
        <time>2016-02-28T11:07:36.000Z</time>
      </trkpt>
      <trkpt lat="47.46786" lon="6.76035">
        <ele>331</ele>
        <time>2016-02-28T11:07:37.000Z</time>
      </trkpt>
      <trkpt lat="47.46789" lon="6.76034">
        <ele>331</ele>
        <time>2016-02-28T11:07:38.000Z</time>
      </trkpt>
      <trkpt lat="47.46791" lon="6.76032">
        <ele>331</ele>
        <time>2016-02-28T11:07:39.000Z</time>
      </trkpt>
      <trkpt lat="47.46794" lon="6.76029">
        <ele>331</ele>
        <time>2016-02-28T11:07:40.000Z</time>
      </trkpt>
      <trkpt lat="47.46796" lon="6.76028">
        <ele>331</ele>
        <time>2016-02-28T11:07:41.000Z</time>
      </trkpt>
      <trkpt lat="47.46799" lon="6.76026">
        <ele>331</ele>
        <time>2016-02-28T11:07:42.000Z</time>
      </trkpt>
      <trkpt lat="47.46802" lon="6.76025">
        <ele>331</ele>
        <time>2016-02-28T11:07:43.000Z</time>
      </trkpt>
      <trkpt lat="47.46805" lon="6.76023">
        <ele>331</ele>
        <time>2016-02-28T11:07:44.000Z</time>
      </trkpt>
      <trkpt lat="47.46807" lon="6.76022">
        <ele>331</ele>
        <time>2016-02-28T11:07:45.000Z</time>
      </trkpt>
      <trkpt lat="47.4681" lon="6.76022">
        <ele>331</ele>
        <time>2016-02-28T11:07:46.000Z</time>
      </trkpt>
      <trkpt lat="47.46813" lon="6.76021">
        <ele>331</ele>
        <time>2016-02-28T11:07:47.000Z</time>
      </trkpt>
      <trkpt lat="47.46815" lon="6.76021">
        <ele>331</ele>
        <time>2016-02-28T11:07:48.000Z</time>
      </trkpt>
      <trkpt lat="47.46818" lon="6.76021">
        <ele>331</ele>
        <time>2016-02-28T11:07:49.000Z</time>
      </trkpt>
      <trkpt lat="47.4682" lon="6.76021">
        <ele>331</ele>
        <time>2016-02-28T11:07:50.000Z</time>
      </trkpt>
      <trkpt lat="47.46823" lon="6.7602">
        <ele>332</ele>
        <time>2016-02-28T11:07:51.000Z</time>
      </trkpt>
      <trkpt lat="47.46826" lon="6.76019">
        <ele>332</ele>
        <time>2016-02-28T11:07:52.000Z</time>
      </trkpt>
      <trkpt lat="47.46829" lon="6.76018">
        <ele>332</ele>
        <time>2016-02-28T11:07:53.000Z</time>
      </trkpt>
      <trkpt lat="47.46832" lon="6.76016">
        <ele>332</ele>
        <time>2016-02-28T11:07:54.000Z</time>
      </trkpt>
      <trkpt lat="47.46835" lon="6.76014">
        <ele>332</ele>
        <time>2016-02-28T11:07:55.000Z</time>
      </trkpt>
      <trkpt lat="47.46837" lon="6.76012">
        <ele>332</ele>
        <time>2016-02-28T11:07:56.000Z</time>
      </trkpt>
      <trkpt lat="47.4684" lon="6.7601">
        <ele>332</ele>
        <time>2016-02-28T11:07:57.000Z</time>
      </trkpt>
      <trkpt lat="47.46842" lon="6.76008">
        <ele>332</ele>
        <time>2016-02-28T11:07:58.000Z</time>
      </trkpt>
      <trkpt lat="47.46844" lon="6.76006">
        <ele>332</ele>
        <time>2016-02-28T11:07:59.000Z</time>
      </trkpt>
      <trkpt lat="47.46847" lon="6.76005">
        <ele>332</ele>
        <time>2016-02-28T11:08:00.000Z</time>
      </trkpt>
      <trkpt lat="47.46849" lon="6.76004">
        <ele>332</ele>
        <time>2016-02-28T11:08:01.000Z</time>
      </trkpt>
      <trkpt lat="47.46852" lon="6.76004">
        <ele>332</ele>
        <time>2016-02-28T11:08:02.000Z</time>
      </trkpt>
      <trkpt lat="47.46854" lon="6.76004">
        <ele>332</ele>
        <time>2016-02-28T11:08:03.000Z</time>
      </trkpt>
      <trkpt lat="47.46857" lon="6.76005">
        <ele>332</ele>
        <time>2016-02-28T11:08:04.000Z</time>
      </trkpt>
      <trkpt lat="47.46859" lon="6.76006">
        <ele>332</ele>
        <time>2016-02-28T11:08:05.000Z</time>
      </trkpt>
      <trkpt lat="47.46862" lon="6.76008">
        <ele>332</ele>
        <time>2016-02-28T11:08:06.000Z</time>
      </trkpt>
      <trkpt lat="47.46865" lon="6.76009">
        <ele>332</ele>
        <time>2016-02-28T11:08:07.000Z</time>
      </trkpt>
      <trkpt lat="47.46868" lon="6.76011">
        <ele>332</ele>
        <time>2016-02-28T11:08:08.000Z</time>
      </trkpt>
      <trkpt lat="47.46871" lon="6.76012">
        <ele>332</ele>
        <time>2016-02-28T11:08:09.000Z</time>
      </trkpt>
      <trkpt lat="47.46874" lon="6.76013">
        <ele>332</ele>
        <time>2016-02-28T11:08:10.000Z</time>
      </trkpt>
      <trkpt lat="47.46876" lon="6.76015">
        <ele>332</ele>
        <time>2016-02-28T11:08:11.000Z</time>
      </trkpt>
      <trkpt lat="47.46878" lon="6.76017">
        <ele>332</ele>
        <time>2016-02-28T11:08:12.000Z</time>
      </trkpt>
      <trkpt lat="47.46881" lon="6.76019">
        <ele>332</ele>
        <time>2016-02-28T11:08:13.000Z</time>
      </trkpt>
      <trkpt lat="47.46883" lon="6.7602">
        <ele>332</ele>
        <time>2016-02-28T11:08:14.000Z</time>
      </trkpt>
      <trkpt lat="47.46886" lon="6.76022">
        <ele>332</ele>
        <time>2016-02-28T11:08:15.000Z</time>
      </trkpt>
      <trkpt lat="47.46889" lon="6.76023">
        <ele>332</ele>
        <time>2016-02-28T11:08:16.000Z</time>
      </trkpt>
      <trkpt lat="47.46891" lon="6.76024">
        <ele>332</ele>
        <time>2016-02-28T11:08:17.000Z</time>
      </trkpt>
      <trkpt lat="47.46894" lon="6.76025">
        <ele>332</ele>
        <time>2016-02-28T11:08:18.000Z</time>
      </trkpt>
      <trkpt lat="47.46896" lon="6.76026">
        <ele>332</ele>
        <time>2016-02-28T11:08:19.000Z</time>
      </trkpt>
      <trkpt lat="47.46898" lon="6.76027">
        <ele>332</ele>
        <time>2016-02-28T11:08:20.000Z</time>
      </trkpt>
      <trkpt lat="47.46901" lon="6.76029">
        <ele>332</ele>
        <time>2016-02-28T11:08:21.000Z</time>
      </trkpt>
      <trkpt lat="47.46904" lon="6.7603">
        <ele>332</ele>
        <time>2016-02-28T11:08:22.000Z</time>
      </trkpt>
      <trkpt lat="47.46906" lon="6.76033">
        <ele>332</ele>
        <time>2016-02-28T11:08:23.000Z</time>
      </trkpt>
      <trkpt lat="47.4691" lon="6.76035">
        <ele>332</ele>
        <time>2016-02-28T11:08:24.000Z</time>
      </trkpt>
      <trkpt lat="47.46912" lon="6.76038">
        <ele>332</ele>
        <time>2016-02-28T11:08:25.000Z</time>
      </trkpt>
      <trkpt lat="47.46915" lon="6.76041">
        <ele>332</ele>
        <time>2016-02-28T11:08:26.000Z</time>
      </trkpt>
      <trkpt lat="47.46918" lon="6.76045">
        <ele>333</ele>
        <time>2016-02-28T11:08:27.000Z</time>
      </trkpt>
      <trkpt lat="47.46921" lon="6.76048">
        <ele>333</ele>
        <time>2016-02-28T11:08:28.000Z</time>
      </trkpt>
      <trkpt lat="47.46925" lon="6.7605">
        <ele>333</ele>
        <time>2016-02-28T11:08:29.000Z</time>
      </trkpt>
      <trkpt lat="47.46928" lon="6.76053">
        <ele>333</ele>
        <time>2016-02-28T11:08:30.000Z</time>
      </trkpt>
      <trkpt lat="47.46933" lon="6.76055">
        <ele>333</ele>
        <time>2016-02-28T11:08:31.000Z</time>
      </trkpt>
      <trkpt lat="47.46937" lon="6.76057">
        <ele>333</ele>
        <time>2016-02-28T11:08:32.000Z</time>
      </trkpt>
      <trkpt lat="47.46941" lon="6.76058">
        <ele>333</ele>
        <time>2016-02-28T11:08:33.000Z</time>
      </trkpt>
      <trkpt lat="47.46946" lon="6.7606">
        <ele>333</ele>
        <time>2016-02-28T11:08:34.000Z</time>
      </trkpt>
      <trkpt lat="47.4695" lon="6.76061">
        <ele>333</ele>
        <time>2016-02-28T11:08:35.000Z</time>
      </trkpt>
      <trkpt lat="47.46954" lon="6.76063">
        <ele>334</ele>
        <time>2016-02-28T11:08:36.000Z</time>
      </trkpt>
      <trkpt lat="47.46958" lon="6.76064">
        <ele>334</ele>
        <time>2016-02-28T11:08:37.000Z</time>
      </trkpt>
      <trkpt lat="47.46962" lon="6.76066">
        <ele>334</ele>
        <time>2016-02-28T11:08:38.000Z</time>
      </trkpt>
      <trkpt lat="47.46966" lon="6.76067">
        <ele>334</ele>
        <time>2016-02-28T11:08:39.000Z</time>
      </trkpt>
      <trkpt lat="47.4697" lon="6.76069">
        <ele>334</ele>
        <time>2016-02-28T11:08:40.000Z</time>
      </trkpt>
      <trkpt lat="47.46974" lon="6.7607">
        <ele>334</ele>
        <time>2016-02-28T11:08:41.000Z</time>
      </trkpt>
      <trkpt lat="47.46978" lon="6.76072">
        <ele>334</ele>
        <time>2016-02-28T11:08:42.000Z</time>
      </trkpt>
      <trkpt lat="47.46981" lon="6.76074">
        <ele>334</ele>
        <time>2016-02-28T11:08:43.000Z</time>
      </trkpt>
      <trkpt lat="47.46985" lon="6.76076">
        <ele>334</ele>
        <time>2016-02-28T11:08:44.000Z</time>
      </trkpt>
      <trkpt lat="47.46988" lon="6.76078">
        <ele>334</ele>
        <time>2016-02-28T11:08:45.000Z</time>
      </trkpt>
      <trkpt lat="47.46991" lon="6.7608">
        <ele>334</ele>
        <time>2016-02-28T11:08:46.000Z</time>
      </trkpt>
      <trkpt lat="47.46995" lon="6.76082">
        <ele>334</ele>
        <time>2016-02-28T11:08:47.000Z</time>
      </trkpt>
      <trkpt lat="47.46999" lon="6.76084">
        <ele>334</ele>
        <time>2016-02-28T11:08:48.000Z</time>
      </trkpt>
      <trkpt lat="47.47002" lon="6.76086">
        <ele>333</ele>
        <time>2016-02-28T11:08:49.000Z</time>
      </trkpt>
      <trkpt lat="47.47006" lon="6.76089">
        <ele>333</ele>
        <time>2016-02-28T11:08:50.000Z</time>
      </trkpt>
      <trkpt lat="47.4701" lon="6.76091">
        <ele>333</ele>
        <time>2016-02-28T11:08:51.000Z</time>
      </trkpt>
      <trkpt lat="47.47014" lon="6.76094">
        <ele>332</ele>
        <time>2016-02-28T11:08:52.000Z</time>
      </trkpt>
      <trkpt lat="47.47018" lon="6.76096">
        <ele>332</ele>
        <time>2016-02-28T11:08:53.000Z</time>
      </trkpt>
      <trkpt lat="47.47022" lon="6.76098">
        <ele>332</ele>
        <time>2016-02-28T11:08:54.000Z</time>
      </trkpt>
      <trkpt lat="47.47025" lon="6.761">
        <ele>332</ele>
        <time>2016-02-28T11:08:55.000Z</time>
      </trkpt>
      <trkpt lat="47.47029" lon="6.76103">
        <ele>331</ele>
        <time>2016-02-28T11:08:56.000Z</time>
      </trkpt>
      <trkpt lat="47.47033" lon="6.76105">
        <ele>331</ele>
        <time>2016-02-28T11:08:57.000Z</time>
      </trkpt>
      <trkpt lat="47.47036" lon="6.76107">
        <ele>331</ele>
        <time>2016-02-28T11:08:58.000Z</time>
      </trkpt>
      <trkpt lat="47.4704" lon="6.76109">
        <ele>331</ele>
        <time>2016-02-28T11:08:59.000Z</time>
      </trkpt>
      <trkpt lat="47.47044" lon="6.76111">
        <ele>331</ele>
        <time>2016-02-28T11:09:00.000Z</time>
      </trkpt>
      <trkpt lat="47.47048" lon="6.76113">
        <ele>331</ele>
        <time>2016-02-28T11:09:01.000Z</time>
      </trkpt>
      <trkpt lat="47.47052" lon="6.76115">
        <ele>331</ele>
        <time>2016-02-28T11:09:02.000Z</time>
      </trkpt>
      <trkpt lat="47.47055" lon="6.76117">
        <ele>331</ele>
        <time>2016-02-28T11:09:03.000Z</time>
      </trkpt>
      <trkpt lat="47.47059" lon="6.76119">
        <ele>331</ele>
        <time>2016-02-28T11:09:04.000Z</time>
      </trkpt>
      <trkpt lat="47.47063" lon="6.76121">
        <ele>331</ele>
        <time>2016-02-28T11:09:05.000Z</time>
      </trkpt>
      <trkpt lat="47.47066" lon="6.76123">
        <ele>331</ele>
        <time>2016-02-28T11:09:06.000Z</time>
      </trkpt>
      <trkpt lat="47.47069" lon="6.76125">
        <ele>331</ele>
        <time>2016-02-28T11:09:07.000Z</time>
      </trkpt>
      <trkpt lat="47.47073" lon="6.76128">
        <ele>331</ele>
        <time>2016-02-28T11:09:08.000Z</time>
      </trkpt>
      <trkpt lat="47.47076" lon="6.76129">
        <ele>330</ele>
        <time>2016-02-28T11:09:09.000Z</time>
      </trkpt>
      <trkpt lat="47.47078" lon="6.76131">
        <ele>330</ele>
        <time>2016-02-28T11:09:10.000Z</time>
      </trkpt>
      <trkpt lat="47.47081" lon="6.76132">
        <ele>330</ele>
        <time>2016-02-28T11:09:11.000Z</time>
      </trkpt>
      <trkpt lat="47.47084" lon="6.76134">
        <ele>331</ele>
        <time>2016-02-28T11:09:12.000Z</time>
      </trkpt>
      <trkpt lat="47.47087" lon="6.76137">
        <ele>331</ele>
        <time>2016-02-28T11:09:13.000Z</time>
      </trkpt>
      <trkpt lat="47.47092" lon="6.76142">
        <ele>331</ele>
        <time>2016-02-28T11:09:14.000Z</time>
      </trkpt>
      <trkpt lat="47.47095" lon="6.76144">
        <ele>331</ele>
        <time>2016-02-28T11:09:15.000Z</time>
      </trkpt>
      <trkpt lat="47.47099" lon="6.76147">
        <ele>331</ele>
        <time>2016-02-28T11:09:16.000Z</time>
      </trkpt>
      <trkpt lat="47.47102" lon="6.76151">
        <ele>331</ele>
        <time>2016-02-28T11:09:17.000Z</time>
      </trkpt>
      <trkpt lat="47.47108" lon="6.76154">
        <ele>331</ele>
        <time>2016-02-28T11:09:18.000Z</time>
      </trkpt>
      <trkpt lat="47.47115" lon="6.76158">
        <ele>331</ele>
        <time>2016-02-28T11:09:19.000Z</time>
      </trkpt>
      <trkpt lat="47.47121" lon="6.76163">
        <ele>331</ele>
        <time>2016-02-28T11:09:20.000Z</time>
      </trkpt>
      <trkpt lat="47.47126" lon="6.76168">
        <ele>328</ele>
        <time>2016-02-28T11:09:21.000Z</time>
      </trkpt>
      <trkpt lat="47.47131" lon="6.76175">
        <ele>328</ele>
        <time>2016-02-28T11:09:22.000Z</time>
      </trkpt>
      <trkpt lat="47.47135" lon="6.76183">
        <ele>328</ele>
        <time>2016-02-28T11:09:23.000Z</time>
      </trkpt>
      <trkpt lat="47.47138" lon="6.76192">
        <ele>328</ele>
        <time>2016-02-28T11:09:24.000Z</time>
      </trkpt>
      <trkpt lat="47.47141" lon="6.762">
        <ele>327</ele>
        <time>2016-02-28T11:09:25.000Z</time>
      </trkpt>
      <trkpt lat="47.47144" lon="6.76208">
        <ele>327</ele>
        <time>2016-02-28T11:09:26.000Z</time>
      </trkpt>
      <trkpt lat="47.47148" lon="6.76215">
        <ele>327</ele>
        <time>2016-02-28T11:09:27.000Z</time>
      </trkpt>
      <trkpt lat="47.47153" lon="6.76221">
        <ele>327</ele>
        <time>2016-02-28T11:09:28.000Z</time>
      </trkpt>
      <trkpt lat="47.47157" lon="6.76226">
        <ele>327</ele>
        <time>2016-02-28T11:09:29.000Z</time>
      </trkpt>
      <trkpt lat="47.47162" lon="6.76231">
        <ele>326</ele>
        <time>2016-02-28T11:09:30.000Z</time>
      </trkpt>
      <trkpt lat="47.47167" lon="6.76235">
        <ele>328</ele>
        <time>2016-02-28T11:09:31.000Z</time>
      </trkpt>
      <trkpt lat="47.47172" lon="6.76239">
        <ele>328</ele>
        <time>2016-02-28T11:09:32.000Z</time>
      </trkpt>
      <trkpt lat="47.47177" lon="6.76244">
        <ele>328</ele>
        <time>2016-02-28T11:09:33.000Z</time>
      </trkpt>
      <trkpt lat="47.47181" lon="6.76248">
        <ele>328</ele>
        <time>2016-02-28T11:09:34.000Z</time>
      </trkpt>
      <trkpt lat="47.47186" lon="6.76251">
        <ele>325</ele>
        <time>2016-02-28T11:09:35.000Z</time>
      </trkpt>
      <trkpt lat="47.4719" lon="6.76256">
        <ele>325</ele>
        <time>2016-02-28T11:09:36.000Z</time>
      </trkpt>
      <trkpt lat="47.47194" lon="6.76259">
        <ele>325</ele>
        <time>2016-02-28T11:09:37.000Z</time>
      </trkpt>
      <trkpt lat="47.47198" lon="6.76261">
        <ele>325</ele>
        <time>2016-02-28T11:09:38.000Z</time>
      </trkpt>
      <trkpt lat="47.47201" lon="6.76265">
        <ele>325</ele>
        <time>2016-02-28T11:09:39.000Z</time>
      </trkpt>
      <trkpt lat="47.47205" lon="6.76268">
        <ele>325</ele>
        <time>2016-02-28T11:09:40.000Z</time>
      </trkpt>
      <trkpt lat="47.47209" lon="6.7627">
        <ele>325</ele>
        <time>2016-02-28T11:09:41.000Z</time>
      </trkpt>
      <trkpt lat="47.47213" lon="6.76273">
        <ele>325</ele>
        <time>2016-02-28T11:09:42.000Z</time>
      </trkpt>
      <trkpt lat="47.47217" lon="6.76275">
        <ele>325</ele>
        <time>2016-02-28T11:09:43.000Z</time>
      </trkpt>
      <trkpt lat="47.47221" lon="6.76277">
        <ele>325</ele>
        <time>2016-02-28T11:09:44.000Z</time>
      </trkpt>
      <trkpt lat="47.47224" lon="6.76279">
        <ele>325</ele>
        <time>2016-02-28T11:09:45.000Z</time>
      </trkpt>
      <trkpt lat="47.47229" lon="6.76281">
        <ele>325</ele>
        <time>2016-02-28T11:09:46.000Z</time>
      </trkpt>
      <trkpt lat="47.47233" lon="6.76284">
        <ele>325</ele>
        <time>2016-02-28T11:09:47.000Z</time>
      </trkpt>
      <trkpt lat="47.47239" lon="6.76287">
        <ele>324</ele>
        <time>2016-02-28T11:09:48.000Z</time>
      </trkpt>
      <trkpt lat="47.47243" lon="6.76289">
        <ele>324</ele>
        <time>2016-02-28T11:09:49.000Z</time>
      </trkpt>
      <trkpt lat="47.47248" lon="6.76292">
        <ele>324</ele>
        <time>2016-02-28T11:09:50.000Z</time>
      </trkpt>
      <trkpt lat="47.47252" lon="6.76293">
        <ele>325</ele>
        <time>2016-02-28T11:09:51.000Z</time>
      </trkpt>
      <trkpt lat="47.47256" lon="6.76296">
        <ele>325</ele>
        <time>2016-02-28T11:09:52.000Z</time>
      </trkpt>
      <trkpt lat="47.47261" lon="6.76298">
        <ele>325</ele>
        <time>2016-02-28T11:09:53.000Z</time>
      </trkpt>
      <trkpt lat="47.47265" lon="6.76302">
        <ele>325</ele>
        <time>2016-02-28T11:09:54.000Z</time>
      </trkpt>
      <trkpt lat="47.47269" lon="6.76304">
        <ele>324</ele>
        <time>2016-02-28T11:09:55.000Z</time>
      </trkpt>
      <trkpt lat="47.47272" lon="6.76308">
        <ele>324</ele>
        <time>2016-02-28T11:09:56.000Z</time>
      </trkpt>
      <trkpt lat="47.47276" lon="6.7631">
        <ele>324</ele>
        <time>2016-02-28T11:09:57.000Z</time>
      </trkpt>
      <trkpt lat="47.47281" lon="6.76312">
        <ele>324</ele>
        <time>2016-02-28T11:09:58.000Z</time>
      </trkpt>
      <trkpt lat="47.47285" lon="6.76316">
        <ele>324</ele>
        <time>2016-02-28T11:09:59.000Z</time>
      </trkpt>
      <trkpt lat="47.4729" lon="6.76319">
        <ele>324</ele>
        <time>2016-02-28T11:10:00.000Z</time>
      </trkpt>
      <trkpt lat="47.47295" lon="6.76322">
        <ele>324</ele>
        <time>2016-02-28T11:10:01.000Z</time>
      </trkpt>
      <trkpt lat="47.473" lon="6.76325">
        <ele>324</ele>
        <time>2016-02-28T11:10:02.000Z</time>
      </trkpt>
      <trkpt lat="47.47306" lon="6.76328">
        <ele>324</ele>
        <time>2016-02-28T11:10:03.000Z</time>
      </trkpt>
      <trkpt lat="47.47313" lon="6.76332">
        <ele>324</ele>
        <time>2016-02-28T11:10:04.000Z</time>
      </trkpt>
      <trkpt lat="47.4732" lon="6.76335">
        <ele>321</ele>
        <time>2016-02-28T11:10:05.000Z</time>
      </trkpt>
      <trkpt lat="47.47326" lon="6.76339">
        <ele>321</ele>
        <time>2016-02-28T11:10:06.000Z</time>
      </trkpt>
      <trkpt lat="47.47331" lon="6.76343">
        <ele>321</ele>
        <time>2016-02-28T11:10:07.000Z</time>
      </trkpt>
      <trkpt lat="47.47338" lon="6.76347">
        <ele>320</ele>
        <time>2016-02-28T11:10:08.000Z</time>
      </trkpt>
      <trkpt lat="47.47348" lon="6.76352">
        <ele>320</ele>
        <time>2016-02-28T11:10:09.000Z</time>
      </trkpt>
      <trkpt lat="47.47356" lon="6.76357">
        <ele>319</ele>
        <time>2016-02-28T11:10:10.000Z</time>
      </trkpt>
      <trkpt lat="47.47364" lon="6.76363">
        <ele>319</ele>
        <time>2016-02-28T11:10:11.000Z</time>
      </trkpt>
      <trkpt lat="47.47368" lon="6.76371">
        <ele>318</ele>
        <time>2016-02-28T11:10:12.000Z</time>
      </trkpt>
      <trkpt lat="47.47372" lon="6.76379">
        <ele>318</ele>
        <time>2016-02-28T11:10:13.000Z</time>
      </trkpt>
      <trkpt lat="47.47376" lon="6.76388">
        <ele>317</ele>
        <time>2016-02-28T11:10:14.000Z</time>
      </trkpt>
      <trkpt lat="47.47383" lon="6.76396">
        <ele>317</ele>
        <time>2016-02-28T11:10:15.000Z</time>
      </trkpt>
      <trkpt lat="47.47389" lon="6.76403">
        <ele>317</ele>
        <time>2016-02-28T11:10:16.000Z</time>
      </trkpt>
      <trkpt lat="47.47395" lon="6.7641">
        <ele>316</ele>
        <time>2016-02-28T11:10:17.000Z</time>
      </trkpt>
      <trkpt lat="47.47401" lon="6.76418">
        <ele>313</ele>
        <time>2016-02-28T11:10:18.000Z</time>
      </trkpt>
      <trkpt lat="47.47407" lon="6.76424">
        <ele>313</ele>
        <time>2016-02-28T11:10:19.000Z</time>
      </trkpt>
      <trkpt lat="47.47412" lon="6.76432">
        <ele>313</ele>
        <time>2016-02-28T11:10:20.000Z</time>
      </trkpt>
      <trkpt lat="47.47417" lon="6.76437">
        <ele>312</ele>
        <time>2016-02-28T11:10:21.000Z</time>
      </trkpt>
      <trkpt lat="47.47421" lon="6.76442">
        <ele>311</ele>
        <time>2016-02-28T11:10:22.000Z</time>
      </trkpt>
      <trkpt lat="47.47424" lon="6.76446">
        <ele>311</ele>
        <time>2016-02-28T11:10:23.000Z</time>
      </trkpt>
      <trkpt lat="47.47426" lon="6.76447">
        <ele>311</ele>
        <time>2016-02-28T11:10:24.000Z</time>
      </trkpt>
      <trkpt lat="47.47428" lon="6.76449">
        <ele>311</ele>
        <time>2016-02-28T11:10:26.000Z</time>
      </trkpt>
      <trkpt lat="47.4743" lon="6.76449">
        <ele>311</ele>
        <time>2016-02-28T11:10:27.000Z</time>
      </trkpt>
      <trkpt lat="47.47434" lon="6.76448">
        <ele>311</ele>
        <time>2016-02-28T11:10:29.000Z</time>
      </trkpt>
      <trkpt lat="47.47436" lon="6.76447">
        <ele>311</ele>
        <time>2016-02-28T11:10:30.000Z</time>
      </trkpt>
      <trkpt lat="47.4744" lon="6.76448">
        <ele>311</ele>
        <time>2016-02-28T11:10:32.000Z</time>
      </trkpt>
      <trkpt lat="47.47443" lon="6.76447">
        <ele>311</ele>
        <time>2016-02-28T11:10:33.000Z</time>
      </trkpt>
      <trkpt lat="47.47446" lon="6.76446">
        <ele>311</ele>
        <time>2016-02-28T11:10:34.000Z</time>
      </trkpt>
      <trkpt lat="47.47454" lon="6.76443">
        <ele>311</ele>
        <time>2016-02-28T11:10:35.000Z</time>
      </trkpt>
      <trkpt lat="47.47458" lon="6.76443">
        <ele>311</ele>
        <time>2016-02-28T11:10:36.000Z</time>
      </trkpt>
      <trkpt lat="47.47463" lon="6.76444">
        <ele>310</ele>
        <time>2016-02-28T11:10:37.000Z</time>
      </trkpt>
      <trkpt lat="47.47468" lon="6.76444">
        <ele>310</ele>
        <time>2016-02-28T11:10:38.000Z</time>
      </trkpt>
      <trkpt lat="47.47471" lon="6.76447">
        <ele>310</ele>
        <time>2016-02-28T11:10:39.000Z</time>
      </trkpt>
      <trkpt lat="47.47476" lon="6.7645">
        <ele>310</ele>
        <time>2016-02-28T11:10:40.000Z</time>
      </trkpt>
      <trkpt lat="47.4748" lon="6.76449">
        <ele>310</ele>
        <time>2016-02-28T11:10:41.000Z</time>
      </trkpt>
      <trkpt lat="47.47485" lon="6.76445">
        <ele>310</ele>
        <time>2016-02-28T11:10:42.000Z</time>
      </trkpt>
      <trkpt lat="47.47487" lon="6.7644">
        <ele>310</ele>
        <time>2016-02-28T11:10:43.000Z</time>
      </trkpt>
      <trkpt lat="47.4749" lon="6.76433">
        <ele>310</ele>
        <time>2016-02-28T11:10:44.000Z</time>
      </trkpt>
      <trkpt lat="47.47494" lon="6.76428">
        <ele>310</ele>
        <time>2016-02-28T11:10:45.000Z</time>
      </trkpt>
      <trkpt lat="47.47497" lon="6.76425">
        <ele>309</ele>
        <time>2016-02-28T11:10:46.000Z</time>
      </trkpt>
      <trkpt lat="47.475" lon="6.76423">
        <ele>309</ele>
        <time>2016-02-28T11:10:47.000Z</time>
      </trkpt>
      <trkpt lat="47.47503" lon="6.76422">
        <ele>309</ele>
        <time>2016-02-28T11:10:48.000Z</time>
      </trkpt>
      <trkpt lat="47.47507" lon="6.76422">
        <ele>309</ele>
        <time>2016-02-28T11:10:49.000Z</time>
      </trkpt>
      <trkpt lat="47.47511" lon="6.7642">
        <ele>309</ele>
        <time>2016-02-28T11:10:50.000Z</time>
      </trkpt>
      <trkpt lat="47.47517" lon="6.76421">
        <ele>309</ele>
        <time>2016-02-28T11:10:51.000Z</time>
      </trkpt>
      <trkpt lat="47.47521" lon="6.76419">
        <ele>309</ele>
        <time>2016-02-28T11:10:52.000Z</time>
      </trkpt>
      <trkpt lat="47.47523" lon="6.7642">
        <ele>309</ele>
        <time>2016-02-28T11:10:53.000Z</time>
      </trkpt>
      <trkpt lat="47.47527" lon="6.76419">
        <ele>309</ele>
        <time>2016-02-28T11:10:54.000Z</time>
      </trkpt>
      <trkpt lat="47.47531" lon="6.76414">
        <ele>309</ele>
        <time>2016-02-28T11:10:55.000Z</time>
      </trkpt>
      <trkpt lat="47.47536" lon="6.7641">
        <ele>310</ele>
        <time>2016-02-28T11:10:56.000Z</time>
      </trkpt>
      <trkpt lat="47.4754" lon="6.76405">
        <ele>310</ele>
        <time>2016-02-28T11:10:57.000Z</time>
      </trkpt>
      <trkpt lat="47.47545" lon="6.76399">
        <ele>310</ele>
        <time>2016-02-28T11:10:58.000Z</time>
      </trkpt>
      <trkpt lat="47.47546" lon="6.7639">
        <ele>310</ele>
        <time>2016-02-28T11:10:59.000Z</time>
      </trkpt>
      <trkpt lat="47.47549" lon="6.76383">
        <ele>310</ele>
        <time>2016-02-28T11:11:00.000Z</time>
      </trkpt>
      <trkpt lat="47.47552" lon="6.76376">
        <ele>310</ele>
        <time>2016-02-28T11:11:01.000Z</time>
      </trkpt>
      <trkpt lat="47.47554" lon="6.76369">
        <ele>310</ele>
        <time>2016-02-28T11:11:02.000Z</time>
      </trkpt>
      <trkpt lat="47.47557" lon="6.76363">
        <ele>310</ele>
        <time>2016-02-28T11:11:03.000Z</time>
      </trkpt>
      <trkpt lat="47.4756" lon="6.76356">
        <ele>310</ele>
        <time>2016-02-28T11:11:04.000Z</time>
      </trkpt>
      <trkpt lat="47.47563" lon="6.76351">
        <ele>311</ele>
        <time>2016-02-28T11:11:05.000Z</time>
      </trkpt>
      <trkpt lat="47.47566" lon="6.76345">
        <ele>311</ele>
        <time>2016-02-28T11:11:06.000Z</time>
      </trkpt>
      <trkpt lat="47.47569" lon="6.7634">
        <ele>311</ele>
        <time>2016-02-28T11:11:07.000Z</time>
      </trkpt>
      <trkpt lat="47.47572" lon="6.76334">
        <ele>311</ele>
        <time>2016-02-28T11:11:08.000Z</time>
      </trkpt>
      <trkpt lat="47.47576" lon="6.76327">
        <ele>312</ele>
        <time>2016-02-28T11:11:09.000Z</time>
      </trkpt>
      <trkpt lat="47.47579" lon="6.76322">
        <ele>312</ele>
        <time>2016-02-28T11:11:10.000Z</time>
      </trkpt>
      <trkpt lat="47.47583" lon="6.7632">
        <ele>312</ele>
        <time>2016-02-28T11:11:11.000Z</time>
      </trkpt>
      <trkpt lat="47.47586" lon="6.76314">
        <ele>311</ele>
        <time>2016-02-28T11:11:12.000Z</time>
      </trkpt>
      <trkpt lat="47.47589" lon="6.7631">
        <ele>311</ele>
        <time>2016-02-28T11:11:13.000Z</time>
      </trkpt>
      <trkpt lat="47.47592" lon="6.76305">
        <ele>311</ele>
        <time>2016-02-28T11:11:14.000Z</time>
      </trkpt>
      <trkpt lat="47.47595" lon="6.763">
        <ele>311</ele>
        <time>2016-02-28T11:11:15.000Z</time>
      </trkpt>
      <trkpt lat="47.47597" lon="6.76293">
        <ele>311</ele>
        <time>2016-02-28T11:11:16.000Z</time>
      </trkpt>
      <trkpt lat="47.476" lon="6.76287">
        <ele>311</ele>
        <time>2016-02-28T11:11:17.000Z</time>
      </trkpt>
      <trkpt lat="47.47605" lon="6.76281">
        <ele>311</ele>
        <time>2016-02-28T11:11:18.000Z</time>
      </trkpt>
      <trkpt lat="47.4761" lon="6.76275">
        <ele>311</ele>
        <time>2016-02-28T11:11:19.000Z</time>
      </trkpt>
      <trkpt lat="47.47613" lon="6.76271">
        <ele>311</ele>
        <time>2016-02-28T11:11:20.000Z</time>
      </trkpt>
      <trkpt lat="47.47616" lon="6.76264">
        <ele>311</ele>
        <time>2016-02-28T11:11:21.000Z</time>
      </trkpt>
      <trkpt lat="47.47618" lon="6.76256">
        <ele>311</ele>
        <time>2016-02-28T11:11:22.000Z</time>
      </trkpt>
      <trkpt lat="47.47619" lon="6.76248">
        <ele>311</ele>
        <time>2016-02-28T11:11:23.000Z</time>
      </trkpt>
      <trkpt lat="47.47621" lon="6.76241">
        <ele>311</ele>
        <time>2016-02-28T11:11:24.000Z</time>
      </trkpt>
      <trkpt lat="47.47624" lon="6.76235">
        <ele>311</ele>
        <time>2016-02-28T11:11:25.000Z</time>
      </trkpt>
      <trkpt lat="47.47627" lon="6.7623">
        <ele>311</ele>
        <time>2016-02-28T11:11:26.000Z</time>
      </trkpt>
      <trkpt lat="47.47629" lon="6.76224">
        <ele>311</ele>
        <time>2016-02-28T11:11:27.000Z</time>
      </trkpt>
      <trkpt lat="47.47631" lon="6.76217">
        <ele>311</ele>
        <time>2016-02-28T11:11:28.000Z</time>
      </trkpt>
      <trkpt lat="47.47634" lon="6.76211">
        <ele>311</ele>
        <time>2016-02-28T11:11:29.000Z</time>
      </trkpt>
      <trkpt lat="47.47637" lon="6.76204">
        <ele>311</ele>
        <time>2016-02-28T11:11:30.000Z</time>
      </trkpt>
      <trkpt lat="47.47642" lon="6.76198">
        <ele>311</ele>
        <time>2016-02-28T11:11:31.000Z</time>
      </trkpt>
      <trkpt lat="47.47645" lon="6.76191">
        <ele>311</ele>
        <time>2016-02-28T11:11:32.000Z</time>
      </trkpt>
      <trkpt lat="47.47648" lon="6.76184">
        <ele>311</ele>
        <time>2016-02-28T11:11:33.000Z</time>
      </trkpt>
      <trkpt lat="47.4765" lon="6.76177">
        <ele>311</ele>
        <time>2016-02-28T11:11:34.000Z</time>
      </trkpt>
      <trkpt lat="47.47653" lon="6.7617">
        <ele>311</ele>
        <time>2016-02-28T11:11:35.000Z</time>
      </trkpt>
      <trkpt lat="47.47654" lon="6.76162">
        <ele>311</ele>
        <time>2016-02-28T11:11:36.000Z</time>
      </trkpt>
      <trkpt lat="47.47657" lon="6.76155">
        <ele>311</ele>
        <time>2016-02-28T11:11:37.000Z</time>
      </trkpt>
      <trkpt lat="47.47659" lon="6.76149">
        <ele>311</ele>
        <time>2016-02-28T11:11:38.000Z</time>
      </trkpt>
      <trkpt lat="47.47661" lon="6.76145">
        <ele>311</ele>
        <time>2016-02-28T11:11:39.000Z</time>
      </trkpt>
      <trkpt lat="47.47664" lon="6.76139">
        <ele>311</ele>
        <time>2016-02-28T11:11:40.000Z</time>
      </trkpt>
      <trkpt lat="47.47665" lon="6.76133">
        <ele>311</ele>
        <time>2016-02-28T11:11:41.000Z</time>
      </trkpt>
      <trkpt lat="47.47667" lon="6.76124">
        <ele>311</ele>
        <time>2016-02-28T11:11:42.000Z</time>
      </trkpt>
      <trkpt lat="47.47668" lon="6.76116">
        <ele>310</ele>
        <time>2016-02-28T11:11:43.000Z</time>
      </trkpt>
      <trkpt lat="47.47671" lon="6.7611">
        <ele>310</ele>
        <time>2016-02-28T11:11:44.000Z</time>
      </trkpt>
      <trkpt lat="47.47675" lon="6.76102">
        <ele>310</ele>
        <time>2016-02-28T11:11:45.000Z</time>
      </trkpt>
      <trkpt lat="47.47678" lon="6.76097">
        <ele>310</ele>
        <time>2016-02-28T11:11:46.000Z</time>
      </trkpt>
      <trkpt lat="47.4768" lon="6.76096">
        <ele>310</ele>
        <time>2016-02-28T11:11:47.000Z</time>
      </trkpt>
      <trkpt lat="47.47683" lon="6.76095">
        <ele>310</ele>
        <time>2016-02-28T11:11:49.000Z</time>
      </trkpt>
      <trkpt lat="47.47686" lon="6.76096">
        <ele>310</ele>
        <time>2016-02-28T11:11:50.000Z</time>
      </trkpt>
      <trkpt lat="47.47688" lon="6.761">
        <ele>310</ele>
        <time>2016-02-28T11:11:52.000Z</time>
      </trkpt>
      <trkpt lat="47.4769" lon="6.76103">
        <ele>310</ele>
        <time>2016-02-28T11:11:53.000Z</time>
      </trkpt>
      <trkpt lat="47.47694" lon="6.76109">
        <ele>310</ele>
        <time>2016-02-28T11:11:54.000Z</time>
      </trkpt>
      <trkpt lat="47.47697" lon="6.76114">
        <ele>310</ele>
        <time>2016-02-28T11:11:55.000Z</time>
      </trkpt>
      <trkpt lat="47.47699" lon="6.76117">
        <ele>310</ele>
        <time>2016-02-28T11:11:56.000Z</time>
      </trkpt>
      <trkpt lat="47.47702" lon="6.76122">
        <ele>310</ele>
        <time>2016-02-28T11:11:57.000Z</time>
      </trkpt>
      <trkpt lat="47.47704" lon="6.76126">
        <ele>310</ele>
        <time>2016-02-28T11:11:58.000Z</time>
      </trkpt>
      <trkpt lat="47.47707" lon="6.7613">
        <ele>309</ele>
        <time>2016-02-28T11:11:59.000Z</time>
      </trkpt>
      <trkpt lat="47.47709" lon="6.76134">
        <ele>309</ele>
        <time>2016-02-28T11:12:00.000Z</time>
      </trkpt>
      <trkpt lat="47.47712" lon="6.76139">
        <ele>309</ele>
        <time>2016-02-28T11:12:01.000Z</time>
      </trkpt>
      <trkpt lat="47.47715" lon="6.76143">
        <ele>309</ele>
        <time>2016-02-28T11:12:02.000Z</time>
      </trkpt>
      <trkpt lat="47.47717" lon="6.76147">
        <ele>309</ele>
        <time>2016-02-28T11:12:03.000Z</time>
      </trkpt>
      <trkpt lat="47.4772" lon="6.76151">
        <ele>309</ele>
        <time>2016-02-28T11:12:04.000Z</time>
      </trkpt>
      <trkpt lat="47.47723" lon="6.76156">
        <ele>309</ele>
        <time>2016-02-28T11:12:05.000Z</time>
      </trkpt>
      <trkpt lat="47.47725" lon="6.7616">
        <ele>309</ele>
        <time>2016-02-28T11:12:06.000Z</time>
      </trkpt>
      <trkpt lat="47.47728" lon="6.76164">
        <ele>309</ele>
        <time>2016-02-28T11:12:07.000Z</time>
      </trkpt>
      <trkpt lat="47.47731" lon="6.76169">
        <ele>308</ele>
        <time>2016-02-28T11:12:08.000Z</time>
      </trkpt>
      <trkpt lat="47.47733" lon="6.76173">
        <ele>308</ele>
        <time>2016-02-28T11:12:09.000Z</time>
      </trkpt>
      <trkpt lat="47.47737" lon="6.76178">
        <ele>308</ele>
        <time>2016-02-28T11:12:10.000Z</time>
      </trkpt>
      <trkpt lat="47.4774" lon="6.76182">
        <ele>308</ele>
        <time>2016-02-28T11:12:11.000Z</time>
      </trkpt>
      <trkpt lat="47.47742" lon="6.76187">
        <ele>308</ele>
        <time>2016-02-28T11:12:12.000Z</time>
      </trkpt>
      <trkpt lat="47.47745" lon="6.76191">
        <ele>309</ele>
        <time>2016-02-28T11:12:13.000Z</time>
      </trkpt>
      <trkpt lat="47.47748" lon="6.76196">
        <ele>309</ele>
        <time>2016-02-28T11:12:14.000Z</time>
      </trkpt>
      <trkpt lat="47.47751" lon="6.76201">
        <ele>309</ele>
        <time>2016-02-28T11:12:15.000Z</time>
      </trkpt>
      <trkpt lat="47.47754" lon="6.76206">
        <ele>309</ele>
        <time>2016-02-28T11:12:16.000Z</time>
      </trkpt>
      <trkpt lat="47.47757" lon="6.76211">
        <ele>309</ele>
        <time>2016-02-28T11:12:17.000Z</time>
      </trkpt>
      <trkpt lat="47.47761" lon="6.76216">
        <ele>309</ele>
        <time>2016-02-28T11:12:18.000Z</time>
      </trkpt>
      <trkpt lat="47.47764" lon="6.76222">
        <ele>309</ele>
        <time>2016-02-28T11:12:19.000Z</time>
      </trkpt>
      <trkpt lat="47.47767" lon="6.76228">
        <ele>309</ele>
        <time>2016-02-28T11:12:20.000Z</time>
      </trkpt>
      <trkpt lat="47.47771" lon="6.76234">
        <ele>309</ele>
        <time>2016-02-28T11:12:21.000Z</time>
      </trkpt>
      <trkpt lat="47.47774" lon="6.76239">
        <ele>309</ele>
        <time>2016-02-28T11:12:22.000Z</time>
      </trkpt>
      <trkpt lat="47.47778" lon="6.76244">
        <ele>309</ele>
        <time>2016-02-28T11:12:23.000Z</time>
      </trkpt>
      <trkpt lat="47.47782" lon="6.76248">
        <ele>309</ele>
        <time>2016-02-28T11:12:24.000Z</time>
      </trkpt>
      <trkpt lat="47.47785" lon="6.76252">
        <ele>310</ele>
        <time>2016-02-28T11:12:25.000Z</time>
      </trkpt>
      <trkpt lat="47.47789" lon="6.76256">
        <ele>310</ele>
        <time>2016-02-28T11:12:26.000Z</time>
      </trkpt>
      <trkpt lat="47.47794" lon="6.76259">
        <ele>310</ele>
        <time>2016-02-28T11:12:27.000Z</time>
      </trkpt>
      <trkpt lat="47.47799" lon="6.76263">
        <ele>310</ele>
        <time>2016-02-28T11:12:28.000Z</time>
      </trkpt>
      <trkpt lat="47.47803" lon="6.76265">
        <ele>310</ele>
        <time>2016-02-28T11:12:29.000Z</time>
      </trkpt>
      <trkpt lat="47.47807" lon="6.76268">
        <ele>310</ele>
        <time>2016-02-28T11:12:30.000Z</time>
      </trkpt>
      <trkpt lat="47.47812" lon="6.76271">
        <ele>310</ele>
        <time>2016-02-28T11:12:31.000Z</time>
      </trkpt>
      <trkpt lat="47.47818" lon="6.76274">
        <ele>310</ele>
        <time>2016-02-28T11:12:32.000Z</time>
      </trkpt>
      <trkpt lat="47.47823" lon="6.76278">
        <ele>310</ele>
        <time>2016-02-28T11:12:33.000Z</time>
      </trkpt>
      <trkpt lat="47.47829" lon="6.7628">
        <ele>310</ele>
        <time>2016-02-28T11:12:34.000Z</time>
      </trkpt>
      <trkpt lat="47.47833" lon="6.76284">
        <ele>310</ele>
        <time>2016-02-28T11:12:35.000Z</time>
      </trkpt>
      <trkpt lat="47.47837" lon="6.76287">
        <ele>311</ele>
        <time>2016-02-28T11:12:36.000Z</time>
      </trkpt>
      <trkpt lat="47.4784" lon="6.76291">
        <ele>311</ele>
        <time>2016-02-28T11:12:37.000Z</time>
      </trkpt>
      <trkpt lat="47.47844" lon="6.76296">
        <ele>311</ele>
        <time>2016-02-28T11:12:38.000Z</time>
      </trkpt>
      <trkpt lat="47.47849" lon="6.76302">
        <ele>310</ele>
        <time>2016-02-28T11:12:39.000Z</time>
      </trkpt>
      <trkpt lat="47.47852" lon="6.76308">
        <ele>310</ele>
        <time>2016-02-28T11:12:40.000Z</time>
      </trkpt>
      <trkpt lat="47.47854" lon="6.76313">
        <ele>310</ele>
        <time>2016-02-28T11:12:41.000Z</time>
      </trkpt>
      <trkpt lat="47.47858" lon="6.76319">
        <ele>310</ele>
        <time>2016-02-28T11:12:42.000Z</time>
      </trkpt>
      <trkpt lat="47.47859" lon="6.76325">
        <ele>311</ele>
        <time>2016-02-28T11:12:43.000Z</time>
      </trkpt>
      <trkpt lat="47.47863" lon="6.76331">
        <ele>310</ele>
        <time>2016-02-28T11:12:44.000Z</time>
      </trkpt>
      <trkpt lat="47.47865" lon="6.76337">
        <ele>311</ele>
        <time>2016-02-28T11:12:45.000Z</time>
      </trkpt>
      <trkpt lat="47.47869" lon="6.76344">
        <ele>311</ele>
        <time>2016-02-28T11:12:46.000Z</time>
      </trkpt>
      <trkpt lat="47.47871" lon="6.7635">
        <ele>311</ele>
        <time>2016-02-28T11:12:47.000Z</time>
      </trkpt>
      <trkpt lat="47.47874" lon="6.76356">
        <ele>311</ele>
        <time>2016-02-28T11:12:48.000Z</time>
      </trkpt>
      <trkpt lat="47.47877" lon="6.76362">
        <ele>311</ele>
        <time>2016-02-28T11:12:49.000Z</time>
      </trkpt>
      <trkpt lat="47.47879" lon="6.76368">
        <ele>311</ele>
        <time>2016-02-28T11:12:50.000Z</time>
      </trkpt>
      <trkpt lat="47.47882" lon="6.76374">
        <ele>311</ele>
        <time>2016-02-28T11:12:51.000Z</time>
      </trkpt>
      <trkpt lat="47.47885" lon="6.76378">
        <ele>311</ele>
        <time>2016-02-28T11:12:52.000Z</time>
      </trkpt>
      <trkpt lat="47.47887" lon="6.76384">
        <ele>311</ele>
        <time>2016-02-28T11:12:53.000Z</time>
      </trkpt>
      <trkpt lat="47.4789" lon="6.7639">
        <ele>311</ele>
        <time>2016-02-28T11:12:54.000Z</time>
      </trkpt>
      <trkpt lat="47.47892" lon="6.76395">
        <ele>311</ele>
        <time>2016-02-28T11:12:55.000Z</time>
      </trkpt>
      <trkpt lat="47.47895" lon="6.76401">
        <ele>311</ele>
        <time>2016-02-28T11:12:56.000Z</time>
      </trkpt>
      <trkpt lat="47.47899" lon="6.76409">
        <ele>311</ele>
        <time>2016-02-28T11:12:57.000Z</time>
      </trkpt>
      <trkpt lat="47.47902" lon="6.76414">
        <ele>311</ele>
        <time>2016-02-28T11:12:58.000Z</time>
      </trkpt>
      <trkpt lat="47.47904" lon="6.7642">
        <ele>311</ele>
        <time>2016-02-28T11:12:59.000Z</time>
      </trkpt>
      <trkpt lat="47.47906" lon="6.76426">
        <ele>311</ele>
        <time>2016-02-28T11:13:00.000Z</time>
      </trkpt>
      <trkpt lat="47.47909" lon="6.76433">
        <ele>311</ele>
        <time>2016-02-28T11:13:01.000Z</time>
      </trkpt>
      <trkpt lat="47.47911" lon="6.7644">
        <ele>311</ele>
        <time>2016-02-28T11:13:02.000Z</time>
      </trkpt>
      <trkpt lat="47.47913" lon="6.76447">
        <ele>311</ele>
        <time>2016-02-28T11:13:03.000Z</time>
      </trkpt>
      <trkpt lat="47.47915" lon="6.76454">
        <ele>311</ele>
        <time>2016-02-28T11:13:04.000Z</time>
      </trkpt>
      <trkpt lat="47.47916" lon="6.7646">
        <ele>311</ele>
        <time>2016-02-28T11:13:05.000Z</time>
      </trkpt>
      <trkpt lat="47.47918" lon="6.76467">
        <ele>311</ele>
        <time>2016-02-28T11:13:06.000Z</time>
      </trkpt>
      <trkpt lat="47.4792" lon="6.76474">
        <ele>311</ele>
        <time>2016-02-28T11:13:07.000Z</time>
      </trkpt>
      <trkpt lat="47.47921" lon="6.7648">
        <ele>311</ele>
        <time>2016-02-28T11:13:08.000Z</time>
      </trkpt>
      <trkpt lat="47.47922" lon="6.76486">
        <ele>311</ele>
        <time>2016-02-28T11:13:09.000Z</time>
      </trkpt>
      <trkpt lat="47.47923" lon="6.76491">
        <ele>310</ele>
        <time>2016-02-28T11:13:10.000Z</time>
      </trkpt>
      <trkpt lat="47.47925" lon="6.76496">
        <ele>310</ele>
        <time>2016-02-28T11:13:11.000Z</time>
      </trkpt>
      <trkpt lat="47.47927" lon="6.76502">
        <ele>310</ele>
        <time>2016-02-28T11:13:12.000Z</time>
      </trkpt>
      <trkpt lat="47.47929" lon="6.76508">
        <ele>310</ele>
        <time>2016-02-28T11:13:13.000Z</time>
      </trkpt>
      <trkpt lat="47.4793" lon="6.76514">
        <ele>311</ele>
        <time>2016-02-28T11:13:14.000Z</time>
      </trkpt>
      <trkpt lat="47.47932" lon="6.7652">
        <ele>311</ele>
        <time>2016-02-28T11:13:15.000Z</time>
      </trkpt>
      <trkpt lat="47.47934" lon="6.76527">
        <ele>311</ele>
        <time>2016-02-28T11:13:16.000Z</time>
      </trkpt>
      <trkpt lat="47.47935" lon="6.76534">
        <ele>311</ele>
        <time>2016-02-28T11:13:17.000Z</time>
      </trkpt>
      <trkpt lat="47.47937" lon="6.76541">
        <ele>311</ele>
        <time>2016-02-28T11:13:18.000Z</time>
      </trkpt>
      <trkpt lat="47.47939" lon="6.76547">
        <ele>311</ele>
        <time>2016-02-28T11:13:19.000Z</time>
      </trkpt>
      <trkpt lat="47.4794" lon="6.76553">
        <ele>311</ele>
        <time>2016-02-28T11:13:20.000Z</time>
      </trkpt>
      <trkpt lat="47.47941" lon="6.76559">
        <ele>311</ele>
        <time>2016-02-28T11:13:21.000Z</time>
      </trkpt>
      <trkpt lat="47.47942" lon="6.76564">
        <ele>311</ele>
        <time>2016-02-28T11:13:22.000Z</time>
      </trkpt>
      <trkpt lat="47.47943" lon="6.76569">
        <ele>311</ele>
        <time>2016-02-28T11:13:23.000Z</time>
      </trkpt>
      <trkpt lat="47.47944" lon="6.76575">
        <ele>311</ele>
        <time>2016-02-28T11:13:24.000Z</time>
      </trkpt>
      <trkpt lat="47.47945" lon="6.7658">
        <ele>311</ele>
        <time>2016-02-28T11:13:25.000Z</time>
      </trkpt>
      <trkpt lat="47.47946" lon="6.76586">
        <ele>311</ele>
        <time>2016-02-28T11:13:26.000Z</time>
      </trkpt>
      <trkpt lat="47.47947" lon="6.76592">
        <ele>311</ele>
        <time>2016-02-28T11:13:27.000Z</time>
      </trkpt>
      <trkpt lat="47.47948" lon="6.76597">
        <ele>311</ele>
        <time>2016-02-28T11:13:28.000Z</time>
      </trkpt>
      <trkpt lat="47.47948" lon="6.76602">
        <ele>311</ele>
        <time>2016-02-28T11:13:29.000Z</time>
      </trkpt>
      <trkpt lat="47.47949" lon="6.76607">
        <ele>311</ele>
        <time>2016-02-28T11:13:30.000Z</time>
      </trkpt>
      <trkpt lat="47.47949" lon="6.76611">
        <ele>311</ele>
        <time>2016-02-28T11:13:31.000Z</time>
      </trkpt>
      <trkpt lat="47.4795" lon="6.76617">
        <ele>311</ele>
        <time>2016-02-28T11:13:33.000Z</time>
      </trkpt>
      <trkpt lat="47.47951" lon="6.76618">
        <ele>311</ele>
        <time>2016-02-28T11:13:34.000Z</time>
      </trkpt>
      <trkpt lat="47.47953" lon="6.76623">
        <ele>311</ele>
        <time>2016-02-28T11:13:37.000Z</time>
      </trkpt>
      <trkpt lat="47.47954" lon="6.76625">
        <ele>311</ele>
        <time>2016-02-28T11:13:38.000Z</time>
      </trkpt>
      <trkpt lat="47.47956" lon="6.76626">
        <ele>311</ele>
        <time>2016-02-28T11:13:39.000Z</time>
      </trkpt>
      <trkpt lat="47.47959" lon="6.76626">
        <ele>311</ele>
        <time>2016-02-28T11:13:40.000Z</time>
      </trkpt>
      <trkpt lat="47.47963" lon="6.76625">
        <ele>311</ele>
        <time>2016-02-28T11:13:41.000Z</time>
      </trkpt>
      <trkpt lat="47.47967" lon="6.76624">
        <ele>311</ele>
        <time>2016-02-28T11:13:42.000Z</time>
      </trkpt>
      <trkpt lat="47.47971" lon="6.76622">
        <ele>311</ele>
        <time>2016-02-28T11:13:43.000Z</time>
      </trkpt>
      <trkpt lat="47.47974" lon="6.76619">
        <ele>311</ele>
        <time>2016-02-28T11:13:44.000Z</time>
      </trkpt>
      <trkpt lat="47.47978" lon="6.76617">
        <ele>311</ele>
        <time>2016-02-28T11:13:45.000Z</time>
      </trkpt>
      <trkpt lat="47.47981" lon="6.76614">
        <ele>311</ele>
        <time>2016-02-28T11:13:46.000Z</time>
      </trkpt>
      <trkpt lat="47.47985" lon="6.76612">
        <ele>311</ele>
        <time>2016-02-28T11:13:47.000Z</time>
      </trkpt>
      <trkpt lat="47.47989" lon="6.76609">
        <ele>312</ele>
        <time>2016-02-28T11:13:48.000Z</time>
      </trkpt>
      <trkpt lat="47.47994" lon="6.76607">
        <ele>312</ele>
        <time>2016-02-28T11:13:49.000Z</time>
      </trkpt>
      <trkpt lat="47.47997" lon="6.76605">
        <ele>312</ele>
        <time>2016-02-28T11:13:50.000Z</time>
      </trkpt>
      <trkpt lat="47.48001" lon="6.76603">
        <ele>312</ele>
        <time>2016-02-28T11:13:51.000Z</time>
      </trkpt>
      <trkpt lat="47.48005" lon="6.76602">
        <ele>312</ele>
        <time>2016-02-28T11:13:52.000Z</time>
      </trkpt>
      <trkpt lat="47.48009" lon="6.766">
        <ele>312</ele>
        <time>2016-02-28T11:13:53.000Z</time>
      </trkpt>
      <trkpt lat="47.48013" lon="6.76598">
        <ele>312</ele>
        <time>2016-02-28T11:13:54.000Z</time>
      </trkpt>
      <trkpt lat="47.48019" lon="6.76594">
        <ele>312</ele>
        <time>2016-02-28T11:13:55.000Z</time>
      </trkpt>
      <trkpt lat="47.48023" lon="6.76591">
        <ele>312</ele>
        <time>2016-02-28T11:13:56.000Z</time>
      </trkpt>
      <trkpt lat="47.48027" lon="6.76589">
        <ele>312</ele>
        <time>2016-02-28T11:13:57.000Z</time>
      </trkpt>
      <trkpt lat="47.48031" lon="6.76586">
        <ele>312</ele>
        <time>2016-02-28T11:13:58.000Z</time>
      </trkpt>
      <trkpt lat="47.48035" lon="6.76583">
        <ele>312</ele>
        <time>2016-02-28T11:13:59.000Z</time>
      </trkpt>
      <trkpt lat="47.48039" lon="6.7658">
        <ele>312</ele>
        <time>2016-02-28T11:14:00.000Z</time>
      </trkpt>
      <trkpt lat="47.48044" lon="6.76576">
        <ele>312</ele>
        <time>2016-02-28T11:14:01.000Z</time>
      </trkpt>
      <trkpt lat="47.48048" lon="6.76573">
        <ele>312</ele>
        <time>2016-02-28T11:14:02.000Z</time>
      </trkpt>
      <trkpt lat="47.48053" lon="6.76569">
        <ele>312</ele>
        <time>2016-02-28T11:14:03.000Z</time>
      </trkpt>
      <trkpt lat="47.48057" lon="6.76565">
        <ele>312</ele>
        <time>2016-02-28T11:14:04.000Z</time>
      </trkpt>
      <trkpt lat="47.48062" lon="6.76561">
        <ele>312</ele>
        <time>2016-02-28T11:14:05.000Z</time>
      </trkpt>
      <trkpt lat="47.48066" lon="6.76558">
        <ele>312</ele>
        <time>2016-02-28T11:14:06.000Z</time>
      </trkpt>
      <trkpt lat="47.48071" lon="6.76553">
        <ele>312</ele>
        <time>2016-02-28T11:14:07.000Z</time>
      </trkpt>
      <trkpt lat="47.48075" lon="6.76547">
        <ele>312</ele>
        <time>2016-02-28T11:14:08.000Z</time>
      </trkpt>
      <trkpt lat="47.48079" lon="6.76542">
        <ele>312</ele>
        <time>2016-02-28T11:14:09.000Z</time>
      </trkpt>
      <trkpt lat="47.48083" lon="6.76538">
        <ele>312</ele>
        <time>2016-02-28T11:14:10.000Z</time>
      </trkpt>
      <trkpt lat="47.48087" lon="6.76534">
        <ele>317</ele>
        <time>2016-02-28T11:14:11.000Z</time>
      </trkpt>
      <trkpt lat="47.48091" lon="6.7653">
        <ele>317</ele>
        <time>2016-02-28T11:14:12.000Z</time>
      </trkpt>
      <trkpt lat="47.48095" lon="6.76526">
        <ele>318</ele>
        <time>2016-02-28T11:14:13.000Z</time>
      </trkpt>
      <trkpt lat="47.48098" lon="6.76523">
        <ele>318</ele>
        <time>2016-02-28T11:14:14.000Z</time>
      </trkpt>
      <trkpt lat="47.48102" lon="6.76519">
        <ele>318</ele>
        <time>2016-02-28T11:14:15.000Z</time>
      </trkpt>
      <trkpt lat="47.48105" lon="6.76516">
        <ele>318</ele>
        <time>2016-02-28T11:14:16.000Z</time>
      </trkpt>
      <trkpt lat="47.48108" lon="6.76522">
        <ele>319</ele>
        <time>2016-02-28T11:14:17.000Z</time>
      </trkpt>
      <trkpt lat="47.4811" lon="6.76526">
        <ele>319</ele>
        <time>2016-02-28T11:14:18.000Z</time>
      </trkpt>
      <trkpt lat="47.48112" lon="6.76532">
        <ele>319</ele>
        <time>2016-02-28T11:14:19.000Z</time>
      </trkpt>
      <trkpt lat="47.48114" lon="6.76536">
        <ele>319</ele>
        <time>2016-02-28T11:14:20.000Z</time>
      </trkpt>
      <trkpt lat="47.48117" lon="6.7654">
        <ele>319</ele>
        <time>2016-02-28T11:14:21.000Z</time>
      </trkpt>
      <trkpt lat="47.4812" lon="6.76545">
        <ele>319</ele>
        <time>2016-02-28T11:14:22.000Z</time>
      </trkpt>
      <trkpt lat="47.48121" lon="6.76549">
        <ele>319</ele>
        <time>2016-02-28T11:14:23.000Z</time>
      </trkpt>
      <trkpt lat="47.4812" lon="6.76554">
        <ele>319</ele>
        <time>2016-02-28T11:14:24.000Z</time>
      </trkpt>
      <trkpt lat="47.48113" lon="6.7656">
        <ele>318</ele>
        <time>2016-02-28T11:14:25.000Z</time>
      </trkpt>
      <trkpt lat="47.4811" lon="6.76565">
        <ele>318</ele>
        <time>2016-02-28T11:14:26.000Z</time>
      </trkpt>
      <trkpt lat="47.48106" lon="6.76571">
        <ele>317</ele>
        <time>2016-02-28T11:14:27.000Z</time>
      </trkpt>
      <trkpt lat="47.48102" lon="6.76576">
        <ele>316</ele>
        <time>2016-02-28T11:14:28.000Z</time>
      </trkpt>
      <trkpt lat="47.48098" lon="6.76582">
        <ele>315</ele>
        <time>2016-02-28T11:14:29.000Z</time>
      </trkpt>
      <trkpt lat="47.48096" lon="6.7659">
        <ele>313</ele>
        <time>2016-02-28T11:14:30.000Z</time>
      </trkpt>
      <trkpt lat="47.48095" lon="6.76598">
        <ele>313</ele>
        <time>2016-02-28T11:14:31.000Z</time>
      </trkpt>
      <trkpt lat="47.48094" lon="6.76606">
        <ele>313</ele>
        <time>2016-02-28T11:14:32.000Z</time>
      </trkpt>
      <trkpt lat="47.48095" lon="6.76613">
        <ele>313</ele>
        <time>2016-02-28T11:14:33.000Z</time>
      </trkpt>
      <trkpt lat="47.48094" lon="6.76623">
        <ele>313</ele>
        <time>2016-02-28T11:14:34.000Z</time>
      </trkpt>
      <trkpt lat="47.48096" lon="6.76629">
        <ele>313</ele>
        <time>2016-02-28T11:14:35.000Z</time>
      </trkpt>
      <trkpt lat="47.48101" lon="6.76632">
        <ele>313</ele>
        <time>2016-02-28T11:14:36.000Z</time>
      </trkpt>
      <trkpt lat="47.48103" lon="6.76639">
        <ele>313</ele>
        <time>2016-02-28T11:14:37.000Z</time>
      </trkpt>
      <trkpt lat="47.48105" lon="6.76646">
        <ele>312</ele>
        <time>2016-02-28T11:14:38.000Z</time>
      </trkpt>
      <trkpt lat="47.48108" lon="6.76653">
        <ele>312</ele>
        <time>2016-02-28T11:14:39.000Z</time>
      </trkpt>
      <trkpt lat="47.48112" lon="6.76659">
        <ele>312</ele>
        <time>2016-02-28T11:14:40.000Z</time>
      </trkpt>
      <trkpt lat="47.48115" lon="6.76665">
        <ele>312</ele>
        <time>2016-02-28T11:14:41.000Z</time>
      </trkpt>
      <trkpt lat="47.4812" lon="6.76671">
        <ele>312</ele>
        <time>2016-02-28T11:14:42.000Z</time>
      </trkpt>
      <trkpt lat="47.48123" lon="6.76677">
        <ele>312</ele>
        <time>2016-02-28T11:14:43.000Z</time>
      </trkpt>
      <trkpt lat="47.48126" lon="6.76683">
        <ele>312</ele>
        <time>2016-02-28T11:14:44.000Z</time>
      </trkpt>
      <trkpt lat="47.4813" lon="6.7669">
        <ele>312</ele>
        <time>2016-02-28T11:14:45.000Z</time>
      </trkpt>
      <trkpt lat="47.48134" lon="6.76697">
        <ele>312</ele>
        <time>2016-02-28T11:14:46.000Z</time>
      </trkpt>
      <trkpt lat="47.48137" lon="6.76705">
        <ele>312</ele>
        <time>2016-02-28T11:14:47.000Z</time>
      </trkpt>
      <trkpt lat="47.4814" lon="6.76712">
        <ele>312</ele>
        <time>2016-02-28T11:14:48.000Z</time>
      </trkpt>
      <trkpt lat="47.48143" lon="6.76719">
        <ele>312</ele>
        <time>2016-02-28T11:14:49.000Z</time>
      </trkpt>
      <trkpt lat="47.48145" lon="6.76725">
        <ele>312</ele>
        <time>2016-02-28T11:14:50.000Z</time>
      </trkpt>
      <trkpt lat="47.48149" lon="6.76732">
        <ele>312</ele>
        <time>2016-02-28T11:14:51.000Z</time>
      </trkpt>
      <trkpt lat="47.48151" lon="6.76738">
        <ele>312</ele>
        <time>2016-02-28T11:14:52.000Z</time>
      </trkpt>
      <trkpt lat="47.48155" lon="6.76743">
        <ele>313</ele>
        <time>2016-02-28T11:14:53.000Z</time>
      </trkpt>
      <trkpt lat="47.48158" lon="6.76748">
        <ele>313</ele>
        <time>2016-02-28T11:14:54.000Z</time>
      </trkpt>
      <trkpt lat="47.48161" lon="6.76753">
        <ele>313</ele>
        <time>2016-02-28T11:14:55.000Z</time>
      </trkpt>
      <trkpt lat="47.48165" lon="6.76758">
        <ele>313</ele>
        <time>2016-02-28T11:14:56.000Z</time>
      </trkpt>
      <trkpt lat="47.48169" lon="6.76762">
        <ele>313</ele>
        <time>2016-02-28T11:14:57.000Z</time>
      </trkpt>
      <trkpt lat="47.48173" lon="6.76766">
        <ele>313</ele>
        <time>2016-02-28T11:14:58.000Z</time>
      </trkpt>
      <trkpt lat="47.48177" lon="6.7677">
        <ele>312</ele>
        <time>2016-02-28T11:14:59.000Z</time>
      </trkpt>
      <trkpt lat="47.48181" lon="6.76774">
        <ele>312</ele>
        <time>2016-02-28T11:15:00.000Z</time>
      </trkpt>
      <trkpt lat="47.48184" lon="6.76778">
        <ele>312</ele>
        <time>2016-02-28T11:15:01.000Z</time>
      </trkpt>
      <trkpt lat="47.48189" lon="6.76782">
        <ele>312</ele>
        <time>2016-02-28T11:15:02.000Z</time>
      </trkpt>
      <trkpt lat="47.48193" lon="6.76785">
        <ele>312</ele>
        <time>2016-02-28T11:15:03.000Z</time>
      </trkpt>
      <trkpt lat="47.48197" lon="6.76788">
        <ele>312</ele>
        <time>2016-02-28T11:15:04.000Z</time>
      </trkpt>
      <trkpt lat="47.48202" lon="6.7679">
        <ele>312</ele>
        <time>2016-02-28T11:15:05.000Z</time>
      </trkpt>
      <trkpt lat="47.48206" lon="6.76793">
        <ele>312</ele>
        <time>2016-02-28T11:15:06.000Z</time>
      </trkpt>
      <trkpt lat="47.4821" lon="6.76796">
        <ele>312</ele>
        <time>2016-02-28T11:15:07.000Z</time>
      </trkpt>
      <trkpt lat="47.48215" lon="6.76798">
        <ele>312</ele>
        <time>2016-02-28T11:15:08.000Z</time>
      </trkpt>
      <trkpt lat="47.48219" lon="6.76801">
        <ele>312</ele>
        <time>2016-02-28T11:15:09.000Z</time>
      </trkpt>
      <trkpt lat="47.48224" lon="6.76803">
        <ele>312</ele>
        <time>2016-02-28T11:15:10.000Z</time>
      </trkpt>
      <trkpt lat="47.48229" lon="6.76805">
        <ele>312</ele>
        <time>2016-02-28T11:15:11.000Z</time>
      </trkpt>
      <trkpt lat="47.48233" lon="6.76808">
        <ele>312</ele>
        <time>2016-02-28T11:15:12.000Z</time>
      </trkpt>
      <trkpt lat="47.48238" lon="6.7681">
        <ele>312</ele>
        <time>2016-02-28T11:15:13.000Z</time>
      </trkpt>
      <trkpt lat="47.48243" lon="6.76814">
        <ele>312</ele>
        <time>2016-02-28T11:15:14.000Z</time>
      </trkpt>
      <trkpt lat="47.48247" lon="6.76819">
        <ele>311</ele>
        <time>2016-02-28T11:15:15.000Z</time>
      </trkpt>
      <trkpt lat="47.48252" lon="6.76822">
        <ele>312</ele>
        <time>2016-02-28T11:15:16.000Z</time>
      </trkpt>
      <trkpt lat="47.48255" lon="6.76828">
        <ele>312</ele>
        <time>2016-02-28T11:15:17.000Z</time>
      </trkpt>
      <trkpt lat="47.48258" lon="6.76833">
        <ele>312</ele>
        <time>2016-02-28T11:15:18.000Z</time>
      </trkpt>
      <trkpt lat="47.48262" lon="6.76838">
        <ele>311</ele>
        <time>2016-02-28T11:15:19.000Z</time>
      </trkpt>
      <trkpt lat="47.48266" lon="6.76843">
        <ele>311</ele>
        <time>2016-02-28T11:15:20.000Z</time>
      </trkpt>
      <trkpt lat="47.48268" lon="6.76849">
        <ele>311</ele>
        <time>2016-02-28T11:15:21.000Z</time>
      </trkpt>
      <trkpt lat="47.48272" lon="6.76854">
        <ele>310</ele>
        <time>2016-02-28T11:15:22.000Z</time>
      </trkpt>
      <trkpt lat="47.48275" lon="6.7686">
        <ele>310</ele>
        <time>2016-02-28T11:15:23.000Z</time>
      </trkpt>
      <trkpt lat="47.48278" lon="6.76865">
        <ele>310</ele>
        <time>2016-02-28T11:15:24.000Z</time>
      </trkpt>
      <trkpt lat="47.48283" lon="6.7687">
        <ele>310</ele>
        <time>2016-02-28T11:15:25.000Z</time>
      </trkpt>
      <trkpt lat="47.48287" lon="6.76875">
        <ele>310</ele>
        <time>2016-02-28T11:15:26.000Z</time>
      </trkpt>
      <trkpt lat="47.48291" lon="6.76879">
        <ele>310</ele>
        <time>2016-02-28T11:15:27.000Z</time>
      </trkpt>
      <trkpt lat="47.48296" lon="6.76883">
        <ele>310</ele>
        <time>2016-02-28T11:15:28.000Z</time>
      </trkpt>
      <trkpt lat="47.48301" lon="6.76887">
        <ele>310</ele>
        <time>2016-02-28T11:15:29.000Z</time>
      </trkpt>
      <trkpt lat="47.48306" lon="6.76891">
        <ele>310</ele>
        <time>2016-02-28T11:15:30.000Z</time>
      </trkpt>
      <trkpt lat="47.48311" lon="6.76894">
        <ele>310</ele>
        <time>2016-02-28T11:15:31.000Z</time>
      </trkpt>
      <trkpt lat="47.48315" lon="6.76898">
        <ele>310</ele>
        <time>2016-02-28T11:15:32.000Z</time>
      </trkpt>
      <trkpt lat="47.4832" lon="6.76903">
        <ele>310</ele>
        <time>2016-02-28T11:15:33.000Z</time>
      </trkpt>
      <trkpt lat="47.48324" lon="6.76906">
        <ele>310</ele>
        <time>2016-02-28T11:15:34.000Z</time>
      </trkpt>
      <trkpt lat="47.48328" lon="6.7691">
        <ele>309</ele>
        <time>2016-02-28T11:15:35.000Z</time>
      </trkpt>
      <trkpt lat="47.48332" lon="6.76913">
        <ele>309</ele>
        <time>2016-02-28T11:15:36.000Z</time>
      </trkpt>
      <trkpt lat="47.48337" lon="6.76916">
        <ele>309</ele>
        <time>2016-02-28T11:15:37.000Z</time>
      </trkpt>
      <trkpt lat="47.48341" lon="6.7692">
        <ele>310</ele>
        <time>2016-02-28T11:15:38.000Z</time>
      </trkpt>
      <trkpt lat="47.48345" lon="6.76924">
        <ele>310</ele>
        <time>2016-02-28T11:15:39.000Z</time>
      </trkpt>
      <trkpt lat="47.48352" lon="6.76926">
        <ele>311</ele>
        <time>2016-02-28T11:15:40.000Z</time>
      </trkpt>
      <trkpt lat="47.48357" lon="6.76929">
        <ele>311</ele>
        <time>2016-02-28T11:15:41.000Z</time>
      </trkpt>
      <trkpt lat="47.48362" lon="6.76931">
        <ele>311</ele>
        <time>2016-02-28T11:15:42.000Z</time>
      </trkpt>
      <trkpt lat="47.48366" lon="6.76935">
        <ele>311</ele>
        <time>2016-02-28T11:15:43.000Z</time>
      </trkpt>
      <trkpt lat="47.48371" lon="6.76937">
        <ele>312</ele>
        <time>2016-02-28T11:15:44.000Z</time>
      </trkpt>
      <trkpt lat="47.48375" lon="6.76941">
        <ele>312</ele>
        <time>2016-02-28T11:15:45.000Z</time>
      </trkpt>
      <trkpt lat="47.4838" lon="6.76942">
        <ele>312</ele>
        <time>2016-02-28T11:15:46.000Z</time>
      </trkpt>
      <trkpt lat="47.48386" lon="6.76944">
        <ele>312</ele>
        <time>2016-02-28T11:15:47.000Z</time>
      </trkpt>
      <trkpt lat="47.4839" lon="6.76947">
        <ele>312</ele>
        <time>2016-02-28T11:15:48.000Z</time>
      </trkpt>
      <trkpt lat="47.48395" lon="6.7695">
        <ele>312</ele>
        <time>2016-02-28T11:15:49.000Z</time>
      </trkpt>
      <trkpt lat="47.484" lon="6.76952">
        <ele>312</ele>
        <time>2016-02-28T11:15:50.000Z</time>
      </trkpt>
      <trkpt lat="47.48405" lon="6.76954">
        <ele>312</ele>
        <time>2016-02-28T11:15:51.000Z</time>
      </trkpt>
      <trkpt lat="47.48409" lon="6.76957">
        <ele>312</ele>
        <time>2016-02-28T11:15:52.000Z</time>
      </trkpt>
      <trkpt lat="47.48414" lon="6.76959">
        <ele>312</ele>
        <time>2016-02-28T11:15:53.000Z</time>
      </trkpt>
      <trkpt lat="47.48419" lon="6.76962">
        <ele>314</ele>
        <time>2016-02-28T11:15:54.000Z</time>
      </trkpt>
      <trkpt lat="47.48424" lon="6.76964">
        <ele>314</ele>
        <time>2016-02-28T11:15:55.000Z</time>
      </trkpt>
      <trkpt lat="47.48428" lon="6.76967">
        <ele>314</ele>
        <time>2016-02-28T11:15:56.000Z</time>
      </trkpt>
      <trkpt lat="47.48433" lon="6.76969">
        <ele>314</ele>
        <time>2016-02-28T11:15:57.000Z</time>
      </trkpt>
      <trkpt lat="47.48438" lon="6.76971">
        <ele>314</ele>
        <time>2016-02-28T11:15:58.000Z</time>
      </trkpt>
      <trkpt lat="47.48442" lon="6.76975">
        <ele>315</ele>
        <time>2016-02-28T11:15:59.000Z</time>
      </trkpt>
      <trkpt lat="47.48446" lon="6.76979">
        <ele>315</ele>
        <time>2016-02-28T11:16:00.000Z</time>
      </trkpt>
      <trkpt lat="47.4845" lon="6.76982">
        <ele>315</ele>
        <time>2016-02-28T11:16:01.000Z</time>
      </trkpt>
      <trkpt lat="47.48454" lon="6.76986">
        <ele>315</ele>
        <time>2016-02-28T11:16:02.000Z</time>
      </trkpt>
      <trkpt lat="47.48458" lon="6.7699">
        <ele>315</ele>
        <time>2016-02-28T11:16:03.000Z</time>
      </trkpt>
      <trkpt lat="47.48462" lon="6.76993">
        <ele>315</ele>
        <time>2016-02-28T11:16:04.000Z</time>
      </trkpt>
      <trkpt lat="47.48467" lon="6.76996">
        <ele>315</ele>
        <time>2016-02-28T11:16:05.000Z</time>
      </trkpt>
      <trkpt lat="47.48471" lon="6.76999">
        <ele>315</ele>
        <time>2016-02-28T11:16:06.000Z</time>
      </trkpt>
      <trkpt lat="47.48476" lon="6.77001">
        <ele>314</ele>
        <time>2016-02-28T11:16:07.000Z</time>
      </trkpt>
      <trkpt lat="47.4848" lon="6.77005">
        <ele>315</ele>
        <time>2016-02-28T11:16:08.000Z</time>
      </trkpt>
      <trkpt lat="47.48485" lon="6.77008">
        <ele>315</ele>
        <time>2016-02-28T11:16:09.000Z</time>
      </trkpt>
      <trkpt lat="47.48489" lon="6.77011">
        <ele>315</ele>
        <time>2016-02-28T11:16:10.000Z</time>
      </trkpt>
      <trkpt lat="47.48493" lon="6.77014">
        <ele>315</ele>
        <time>2016-02-28T11:16:11.000Z</time>
      </trkpt>
      <trkpt lat="47.48498" lon="6.77016">
        <ele>315</ele>
        <time>2016-02-28T11:16:12.000Z</time>
      </trkpt>
      <trkpt lat="47.48502" lon="6.7702">
        <ele>315</ele>
        <time>2016-02-28T11:16:13.000Z</time>
      </trkpt>
      <trkpt lat="47.48506" lon="6.77023">
        <ele>315</ele>
        <time>2016-02-28T11:16:14.000Z</time>
      </trkpt>
      <trkpt lat="47.48511" lon="6.77026">
        <ele>314</ele>
        <time>2016-02-28T11:16:15.000Z</time>
      </trkpt>
      <trkpt lat="47.48515" lon="6.77028">
        <ele>314</ele>
        <time>2016-02-28T11:16:16.000Z</time>
      </trkpt>
      <trkpt lat="47.4852" lon="6.77032">
        <ele>314</ele>
        <time>2016-02-28T11:16:17.000Z</time>
      </trkpt>
      <trkpt lat="47.48524" lon="6.77035">
        <ele>314</ele>
        <time>2016-02-28T11:16:18.000Z</time>
      </trkpt>
      <trkpt lat="47.48527" lon="6.77037">
        <ele>314</ele>
        <time>2016-02-28T11:16:19.000Z</time>
      </trkpt>
      <trkpt lat="47.4853" lon="6.7704">
        <ele>314</ele>
        <time>2016-02-28T11:16:20.000Z</time>
      </trkpt>
      <trkpt lat="47.48534" lon="6.77044">
        <ele>314</ele>
        <time>2016-02-28T11:16:21.000Z</time>
      </trkpt>
      <trkpt lat="47.48538" lon="6.77046">
        <ele>314</ele>
        <time>2016-02-28T11:16:22.000Z</time>
      </trkpt>
      <trkpt lat="47.48543" lon="6.77048">
        <ele>314</ele>
        <time>2016-02-28T11:16:23.000Z</time>
      </trkpt>
      <trkpt lat="47.48548" lon="6.7705">
        <ele>314</ele>
        <time>2016-02-28T11:16:24.000Z</time>
      </trkpt>
      <trkpt lat="47.48552" lon="6.77051">
        <ele>314</ele>
        <time>2016-02-28T11:16:25.000Z</time>
      </trkpt>
      <trkpt lat="47.48557" lon="6.77052">
        <ele>314</ele>
        <time>2016-02-28T11:16:26.000Z</time>
      </trkpt>
      <trkpt lat="47.4856" lon="6.77053">
        <ele>314</ele>
        <time>2016-02-28T11:16:27.000Z</time>
      </trkpt>
      <trkpt lat="47.48562" lon="6.77054">
        <ele>314</ele>
        <time>2016-02-28T11:16:28.000Z</time>
      </trkpt>
      <trkpt lat="47.48566" lon="6.77056">
        <ele>314</ele>
        <time>2016-02-28T11:16:29.000Z</time>
      </trkpt>
      <trkpt lat="47.4857" lon="6.77059">
        <ele>314</ele>
        <time>2016-02-28T11:16:30.000Z</time>
      </trkpt>
      <trkpt lat="47.48575" lon="6.77061">
        <ele>314</ele>
        <time>2016-02-28T11:16:31.000Z</time>
      </trkpt>
      <trkpt lat="47.48579" lon="6.77062">
        <ele>314</ele>
        <time>2016-02-28T11:16:32.000Z</time>
      </trkpt>
      <trkpt lat="47.48584" lon="6.77063">
        <ele>313</ele>
        <time>2016-02-28T11:16:33.000Z</time>
      </trkpt>
      <trkpt lat="47.48588" lon="6.77065">
        <ele>313</ele>
        <time>2016-02-28T11:16:34.000Z</time>
      </trkpt>
      <trkpt lat="47.48593" lon="6.77068">
        <ele>313</ele>
        <time>2016-02-28T11:16:35.000Z</time>
      </trkpt>
      <trkpt lat="47.48597" lon="6.77069">
        <ele>313</ele>
        <time>2016-02-28T11:16:36.000Z</time>
      </trkpt>
      <trkpt lat="47.48601" lon="6.77073">
        <ele>313</ele>
        <time>2016-02-28T11:16:37.000Z</time>
      </trkpt>
      <trkpt lat="47.48605" lon="6.77076">
        <ele>313</ele>
        <time>2016-02-28T11:16:38.000Z</time>
      </trkpt>
      <trkpt lat="47.48609" lon="6.7708">
        <ele>313</ele>
        <time>2016-02-28T11:16:39.000Z</time>
      </trkpt>
      <trkpt lat="47.48614" lon="6.77081">
        <ele>313</ele>
        <time>2016-02-28T11:16:40.000Z</time>
      </trkpt>
      <trkpt lat="47.48617" lon="6.77084">
        <ele>312</ele>
        <time>2016-02-28T11:16:41.000Z</time>
      </trkpt>
      <trkpt lat="47.4862" lon="6.77087">
        <ele>312</ele>
        <time>2016-02-28T11:16:42.000Z</time>
      </trkpt>
      <trkpt lat="47.48624" lon="6.77089">
        <ele>312</ele>
        <time>2016-02-28T11:16:43.000Z</time>
      </trkpt>
      <trkpt lat="47.48628" lon="6.77093">
        <ele>312</ele>
        <time>2016-02-28T11:16:44.000Z</time>
      </trkpt>
      <trkpt lat="47.48633" lon="6.77098">
        <ele>312</ele>
        <time>2016-02-28T11:16:45.000Z</time>
      </trkpt>
      <trkpt lat="47.48636" lon="6.77103">
        <ele>312</ele>
        <time>2016-02-28T11:16:46.000Z</time>
      </trkpt>
      <trkpt lat="47.48641" lon="6.77107">
        <ele>312</ele>
        <time>2016-02-28T11:16:47.000Z</time>
      </trkpt>
      <trkpt lat="47.48645" lon="6.77112">
        <ele>312</ele>
        <time>2016-02-28T11:16:48.000Z</time>
      </trkpt>
      <trkpt lat="47.48649" lon="6.77116">
        <ele>312</ele>
        <time>2016-02-28T11:16:49.000Z</time>
      </trkpt>
      <trkpt lat="47.48653" lon="6.77122">
        <ele>312</ele>
        <time>2016-02-28T11:16:50.000Z</time>
      </trkpt>
      <trkpt lat="47.48658" lon="6.77126">
        <ele>312</ele>
        <time>2016-02-28T11:16:51.000Z</time>
      </trkpt>
      <trkpt lat="47.48661" lon="6.77131">
        <ele>312</ele>
        <time>2016-02-28T11:16:52.000Z</time>
      </trkpt>
      <trkpt lat="47.48665" lon="6.77135">
        <ele>312</ele>
        <time>2016-02-28T11:16:53.000Z</time>
      </trkpt>
      <trkpt lat="47.48669" lon="6.7714">
        <ele>311</ele>
        <time>2016-02-28T11:16:54.000Z</time>
      </trkpt>
      <trkpt lat="47.48674" lon="6.77143">
        <ele>311</ele>
        <time>2016-02-28T11:16:55.000Z</time>
      </trkpt>
      <trkpt lat="47.48678" lon="6.77148">
        <ele>311</ele>
        <time>2016-02-28T11:16:56.000Z</time>
      </trkpt>
      <trkpt lat="47.48682" lon="6.77152">
        <ele>311</ele>
        <time>2016-02-28T11:16:57.000Z</time>
      </trkpt>
      <trkpt lat="47.48686" lon="6.77156">
        <ele>311</ele>
        <time>2016-02-28T11:16:58.000Z</time>
      </trkpt>
      <trkpt lat="47.4869" lon="6.7716">
        <ele>311</ele>
        <time>2016-02-28T11:16:59.000Z</time>
      </trkpt>
      <trkpt lat="47.48694" lon="6.77163">
        <ele>311</ele>
        <time>2016-02-28T11:17:00.000Z</time>
      </trkpt>
      <trkpt lat="47.48698" lon="6.77167">
        <ele>311</ele>
        <time>2016-02-28T11:17:01.000Z</time>
      </trkpt>
      <trkpt lat="47.48702" lon="6.7717">
        <ele>311</ele>
        <time>2016-02-28T11:17:02.000Z</time>
      </trkpt>
      <trkpt lat="47.48706" lon="6.77175">
        <ele>311</ele>
        <time>2016-02-28T11:17:03.000Z</time>
      </trkpt>
      <trkpt lat="47.4871" lon="6.77178">
        <ele>310</ele>
        <time>2016-02-28T11:17:04.000Z</time>
      </trkpt>
      <trkpt lat="47.48714" lon="6.77182">
        <ele>310</ele>
        <time>2016-02-28T11:17:05.000Z</time>
      </trkpt>
      <trkpt lat="47.48718" lon="6.77185">
        <ele>310</ele>
        <time>2016-02-28T11:17:06.000Z</time>
      </trkpt>
      <trkpt lat="47.48722" lon="6.77188">
        <ele>310</ele>
        <time>2016-02-28T11:17:07.000Z</time>
      </trkpt>
      <trkpt lat="47.48726" lon="6.77191">
        <ele>310</ele>
        <time>2016-02-28T11:17:08.000Z</time>
      </trkpt>
      <trkpt lat="47.4873" lon="6.77194">
        <ele>310</ele>
        <time>2016-02-28T11:17:09.000Z</time>
      </trkpt>
      <trkpt lat="47.48734" lon="6.77197">
        <ele>310</ele>
        <time>2016-02-28T11:17:10.000Z</time>
      </trkpt>
      <trkpt lat="47.48738" lon="6.772">
        <ele>310</ele>
        <time>2016-02-28T11:17:11.000Z</time>
      </trkpt>
      <trkpt lat="47.48742" lon="6.77203">
        <ele>310</ele>
        <time>2016-02-28T11:17:12.000Z</time>
      </trkpt>
      <trkpt lat="47.48746" lon="6.77207">
        <ele>310</ele>
        <time>2016-02-28T11:17:13.000Z</time>
      </trkpt>
      <trkpt lat="47.4875" lon="6.7721">
        <ele>310</ele>
        <time>2016-02-28T11:17:14.000Z</time>
      </trkpt>
      <trkpt lat="47.48755" lon="6.77213">
        <ele>310</ele>
        <time>2016-02-28T11:17:15.000Z</time>
      </trkpt>
      <trkpt lat="47.48759" lon="6.77216">
        <ele>310</ele>
        <time>2016-02-28T11:17:16.000Z</time>
      </trkpt>
      <trkpt lat="47.48763" lon="6.7722">
        <ele>310</ele>
        <time>2016-02-28T11:17:17.000Z</time>
      </trkpt>
      <trkpt lat="47.48767" lon="6.77223">
        <ele>310</ele>
        <time>2016-02-28T11:17:18.000Z</time>
      </trkpt>
      <trkpt lat="47.48771" lon="6.77226">
        <ele>310</ele>
        <time>2016-02-28T11:17:19.000Z</time>
      </trkpt>
      <trkpt lat="47.48775" lon="6.77229">
        <ele>310</ele>
        <time>2016-02-28T11:17:20.000Z</time>
      </trkpt>
      <trkpt lat="47.4878" lon="6.77231">
        <ele>310</ele>
        <time>2016-02-28T11:17:21.000Z</time>
      </trkpt>
      <trkpt lat="47.48784" lon="6.77236">
        <ele>310</ele>
        <time>2016-02-28T11:17:22.000Z</time>
      </trkpt>
      <trkpt lat="47.48788" lon="6.77239">
        <ele>310</ele>
        <time>2016-02-28T11:17:23.000Z</time>
      </trkpt>
      <trkpt lat="47.48792" lon="6.77242">
        <ele>310</ele>
        <time>2016-02-28T11:17:24.000Z</time>
      </trkpt>
      <trkpt lat="47.48797" lon="6.77244">
        <ele>310</ele>
        <time>2016-02-28T11:17:25.000Z</time>
      </trkpt>
      <trkpt lat="47.488" lon="6.77248">
        <ele>310</ele>
        <time>2016-02-28T11:17:26.000Z</time>
      </trkpt>
      <trkpt lat="47.48803" lon="6.77252">
        <ele>310</ele>
        <time>2016-02-28T11:17:27.000Z</time>
      </trkpt>
      <trkpt lat="47.48807" lon="6.77255">
        <ele>310</ele>
        <time>2016-02-28T11:17:28.000Z</time>
      </trkpt>
      <trkpt lat="47.48811" lon="6.77258">
        <ele>310</ele>
        <time>2016-02-28T11:17:29.000Z</time>
      </trkpt>
      <trkpt lat="47.48815" lon="6.77261">
        <ele>310</ele>
        <time>2016-02-28T11:17:30.000Z</time>
      </trkpt>
      <trkpt lat="47.48819" lon="6.77263">
        <ele>310</ele>
        <time>2016-02-28T11:17:31.000Z</time>
      </trkpt>
      <trkpt lat="47.48822" lon="6.77266">
        <ele>310</ele>
        <time>2016-02-28T11:17:32.000Z</time>
      </trkpt>
      <trkpt lat="47.48826" lon="6.7727">
        <ele>310</ele>
        <time>2016-02-28T11:17:33.000Z</time>
      </trkpt>
      <trkpt lat="47.4883" lon="6.77272">
        <ele>310</ele>
        <time>2016-02-28T11:17:34.000Z</time>
      </trkpt>
      <trkpt lat="47.48834" lon="6.77275">
        <ele>310</ele>
        <time>2016-02-28T11:17:35.000Z</time>
      </trkpt>
      <trkpt lat="47.48838" lon="6.77276">
        <ele>310</ele>
        <time>2016-02-28T11:17:36.000Z</time>
      </trkpt>
      <trkpt lat="47.48842" lon="6.77279">
        <ele>310</ele>
        <time>2016-02-28T11:17:37.000Z</time>
      </trkpt>
      <trkpt lat="47.48845" lon="6.77282">
        <ele>310</ele>
        <time>2016-02-28T11:17:38.000Z</time>
      </trkpt>
      <trkpt lat="47.4885" lon="6.77284">
        <ele>310</ele>
        <time>2016-02-28T11:17:39.000Z</time>
      </trkpt>
      <trkpt lat="47.48854" lon="6.77286">
        <ele>310</ele>
        <time>2016-02-28T11:17:40.000Z</time>
      </trkpt>
      <trkpt lat="47.48859" lon="6.77288">
        <ele>310</ele>
        <time>2016-02-28T11:17:41.000Z</time>
      </trkpt>
      <trkpt lat="47.48863" lon="6.77289">
        <ele>310</ele>
        <time>2016-02-28T11:17:42.000Z</time>
      </trkpt>
      <trkpt lat="47.48868" lon="6.77291">
        <ele>310</ele>
        <time>2016-02-28T11:17:43.000Z</time>
      </trkpt>
      <trkpt lat="47.48873" lon="6.77293">
        <ele>310</ele>
        <time>2016-02-28T11:17:44.000Z</time>
      </trkpt>
      <trkpt lat="47.48877" lon="6.77294">
        <ele>310</ele>
        <time>2016-02-28T11:17:45.000Z</time>
      </trkpt>
      <trkpt lat="47.48882" lon="6.77296">
        <ele>310</ele>
        <time>2016-02-28T11:17:46.000Z</time>
      </trkpt>
      <trkpt lat="47.48887" lon="6.77297">
        <ele>310</ele>
        <time>2016-02-28T11:17:47.000Z</time>
      </trkpt>
      <trkpt lat="47.48892" lon="6.77298">
        <ele>310</ele>
        <time>2016-02-28T11:17:48.000Z</time>
      </trkpt>
      <trkpt lat="47.48896" lon="6.773">
        <ele>310</ele>
        <time>2016-02-28T11:17:49.000Z</time>
      </trkpt>
      <trkpt lat="47.48901" lon="6.77301">
        <ele>310</ele>
        <time>2016-02-28T11:17:50.000Z</time>
      </trkpt>
      <trkpt lat="47.48905" lon="6.77302">
        <ele>310</ele>
        <time>2016-02-28T11:17:51.000Z</time>
      </trkpt>
      <trkpt lat="47.48909" lon="6.77304">
        <ele>310</ele>
        <time>2016-02-28T11:17:52.000Z</time>
      </trkpt>
      <trkpt lat="47.48914" lon="6.77306">
        <ele>310</ele>
        <time>2016-02-28T11:17:53.000Z</time>
      </trkpt>
      <trkpt lat="47.48918" lon="6.77308">
        <ele>310</ele>
        <time>2016-02-28T11:17:54.000Z</time>
      </trkpt>
      <trkpt lat="47.48922" lon="6.7731">
        <ele>310</ele>
        <time>2016-02-28T11:17:55.000Z</time>
      </trkpt>
      <trkpt lat="47.48927" lon="6.77311">
        <ele>310</ele>
        <time>2016-02-28T11:17:56.000Z</time>
      </trkpt>
      <trkpt lat="47.48931" lon="6.77313">
        <ele>311</ele>
        <time>2016-02-28T11:17:57.000Z</time>
      </trkpt>
      <trkpt lat="47.48935" lon="6.77315">
        <ele>311</ele>
        <time>2016-02-28T11:17:58.000Z</time>
      </trkpt>
      <trkpt lat="47.4894" lon="6.77317">
        <ele>311</ele>
        <time>2016-02-28T11:17:59.000Z</time>
      </trkpt>
      <trkpt lat="47.48945" lon="6.77319">
        <ele>311</ele>
        <time>2016-02-28T11:18:00.000Z</time>
      </trkpt>
      <trkpt lat="47.48949" lon="6.77321">
        <ele>311</ele>
        <time>2016-02-28T11:18:01.000Z</time>
      </trkpt>
      <trkpt lat="47.48953" lon="6.77323">
        <ele>311</ele>
        <time>2016-02-28T11:18:02.000Z</time>
      </trkpt>
      <trkpt lat="47.48958" lon="6.77325">
        <ele>311</ele>
        <time>2016-02-28T11:18:03.000Z</time>
      </trkpt>
      <trkpt lat="47.48963" lon="6.77324">
        <ele>311</ele>
        <time>2016-02-28T11:18:04.000Z</time>
      </trkpt>
      <trkpt lat="47.48968" lon="6.77325">
        <ele>311</ele>
        <time>2016-02-28T11:18:05.000Z</time>
      </trkpt>
      <trkpt lat="47.48973" lon="6.77325">
        <ele>311</ele>
        <time>2016-02-28T11:18:06.000Z</time>
      </trkpt>
      <trkpt lat="47.48977" lon="6.77326">
        <ele>311</ele>
        <time>2016-02-28T11:18:07.000Z</time>
      </trkpt>
      <trkpt lat="47.48982" lon="6.77326">
        <ele>311</ele>
        <time>2016-02-28T11:18:08.000Z</time>
      </trkpt>
      <trkpt lat="47.48986" lon="6.77326">
        <ele>311</ele>
        <time>2016-02-28T11:18:09.000Z</time>
      </trkpt>
      <trkpt lat="47.48991" lon="6.77326">
        <ele>311</ele>
        <time>2016-02-28T11:18:10.000Z</time>
      </trkpt>
      <trkpt lat="47.48996" lon="6.77327">
        <ele>311</ele>
        <time>2016-02-28T11:18:11.000Z</time>
      </trkpt>
      <trkpt lat="47.49002" lon="6.77327">
        <ele>311</ele>
        <time>2016-02-28T11:18:12.000Z</time>
      </trkpt>
      <trkpt lat="47.49007" lon="6.77327">
        <ele>311</ele>
        <time>2016-02-28T11:18:13.000Z</time>
      </trkpt>
      <trkpt lat="47.49012" lon="6.77328">
        <ele>311</ele>
        <time>2016-02-28T11:18:14.000Z</time>
      </trkpt>
      <trkpt lat="47.49017" lon="6.77326">
        <ele>311</ele>
        <time>2016-02-28T11:18:15.000Z</time>
      </trkpt>
      <trkpt lat="47.49021" lon="6.77327">
        <ele>311</ele>
        <time>2016-02-28T11:18:16.000Z</time>
      </trkpt>
      <trkpt lat="47.49026" lon="6.77328">
        <ele>311</ele>
        <time>2016-02-28T11:18:17.000Z</time>
      </trkpt>
      <trkpt lat="47.49031" lon="6.77328">
        <ele>311</ele>
        <time>2016-02-28T11:18:18.000Z</time>
      </trkpt>
      <trkpt lat="47.49035" lon="6.77329">
        <ele>311</ele>
        <time>2016-02-28T11:18:19.000Z</time>
      </trkpt>
      <trkpt lat="47.49039" lon="6.77328">
        <ele>311</ele>
        <time>2016-02-28T11:18:20.000Z</time>
      </trkpt>
      <trkpt lat="47.49043" lon="6.77329">
        <ele>311</ele>
        <time>2016-02-28T11:18:21.000Z</time>
      </trkpt>
      <trkpt lat="47.49048" lon="6.77329">
        <ele>311</ele>
        <time>2016-02-28T11:18:22.000Z</time>
      </trkpt>
      <trkpt lat="47.49051" lon="6.77332">
        <ele>311</ele>
        <time>2016-02-28T11:18:23.000Z</time>
      </trkpt>
      <trkpt lat="47.49057" lon="6.77333">
        <ele>311</ele>
        <time>2016-02-28T11:18:24.000Z</time>
      </trkpt>
      <trkpt lat="47.49062" lon="6.77333">
        <ele>311</ele>
        <time>2016-02-28T11:18:25.000Z</time>
      </trkpt>
      <trkpt lat="47.49067" lon="6.77334">
        <ele>311</ele>
        <time>2016-02-28T11:18:26.000Z</time>
      </trkpt>
      <trkpt lat="47.49072" lon="6.77334">
        <ele>311</ele>
        <time>2016-02-28T11:18:27.000Z</time>
      </trkpt>
      <trkpt lat="47.49077" lon="6.77334">
        <ele>311</ele>
        <time>2016-02-28T11:18:28.000Z</time>
      </trkpt>
      <trkpt lat="47.49081" lon="6.77335">
        <ele>311</ele>
        <time>2016-02-28T11:18:29.000Z</time>
      </trkpt>
      <trkpt lat="47.49086" lon="6.77336">
        <ele>311</ele>
        <time>2016-02-28T11:18:30.000Z</time>
      </trkpt>
      <trkpt lat="47.49091" lon="6.77335">
        <ele>311</ele>
        <time>2016-02-28T11:18:31.000Z</time>
      </trkpt>
      <trkpt lat="47.49096" lon="6.77335">
        <ele>311</ele>
        <time>2016-02-28T11:18:32.000Z</time>
      </trkpt>
      <trkpt lat="47.491" lon="6.77334">
        <ele>310</ele>
        <time>2016-02-28T11:18:33.000Z</time>
      </trkpt>
      <trkpt lat="47.49105" lon="6.77335">
        <ele>310</ele>
        <time>2016-02-28T11:18:34.000Z</time>
      </trkpt>
      <trkpt lat="47.49109" lon="6.77336">
        <ele>310</ele>
        <time>2016-02-28T11:18:35.000Z</time>
      </trkpt>
      <trkpt lat="47.49114" lon="6.77336">
        <ele>310</ele>
        <time>2016-02-28T11:18:36.000Z</time>
      </trkpt>
      <trkpt lat="47.49117" lon="6.77337">
        <ele>310</ele>
        <time>2016-02-28T11:18:37.000Z</time>
      </trkpt>
      <trkpt lat="47.49121" lon="6.77337">
        <ele>310</ele>
        <time>2016-02-28T11:18:38.000Z</time>
      </trkpt>
      <trkpt lat="47.49124" lon="6.77338">
        <ele>310</ele>
        <time>2016-02-28T11:18:39.000Z</time>
      </trkpt>
      <trkpt lat="47.49128" lon="6.77339">
        <ele>310</ele>
        <time>2016-02-28T11:18:40.000Z</time>
      </trkpt>
      <trkpt lat="47.49131" lon="6.77338">
        <ele>310</ele>
        <time>2016-02-28T11:18:41.000Z</time>
      </trkpt>
      <trkpt lat="47.49135" lon="6.77339">
        <ele>310</ele>
        <time>2016-02-28T11:18:42.000Z</time>
      </trkpt>
      <trkpt lat="47.49139" lon="6.77339">
        <ele>310</ele>
        <time>2016-02-28T11:18:43.000Z</time>
      </trkpt>
      <trkpt lat="47.49143" lon="6.77339">
        <ele>310</ele>
        <time>2016-02-28T11:18:44.000Z</time>
      </trkpt>
      <trkpt lat="47.49147" lon="6.77339">
        <ele>310</ele>
        <time>2016-02-28T11:18:45.000Z</time>
      </trkpt>
      <trkpt lat="47.4915" lon="6.77339">
        <ele>310</ele>
        <time>2016-02-28T11:18:46.000Z</time>
      </trkpt>
      <trkpt lat="47.49153" lon="6.77339">
        <ele>310</ele>
        <time>2016-02-28T11:18:47.000Z</time>
      </trkpt>
      <trkpt lat="47.49156" lon="6.7734">
        <ele>310</ele>
        <time>2016-02-28T11:18:48.000Z</time>
      </trkpt>
      <trkpt lat="47.4916" lon="6.7734">
        <ele>310</ele>
        <time>2016-02-28T11:18:49.000Z</time>
      </trkpt>
      <trkpt lat="47.49163" lon="6.7734">
        <ele>310</ele>
        <time>2016-02-28T11:18:50.000Z</time>
      </trkpt>
      <trkpt lat="47.49165" lon="6.77339">
        <ele>310</ele>
        <time>2016-02-28T11:18:51.000Z</time>
      </trkpt>
      <trkpt lat="47.49168" lon="6.77339">
        <ele>310</ele>
        <time>2016-02-28T11:18:52.000Z</time>
      </trkpt>
      <trkpt lat="47.49172" lon="6.77339">
        <ele>310</ele>
        <time>2016-02-28T11:18:54.000Z</time>
      </trkpt>
      <trkpt lat="47.49174" lon="6.77339">
        <ele>310</ele>
        <time>2016-02-28T11:18:55.000Z</time>
      </trkpt>
      <trkpt lat="47.49178" lon="6.77339">
        <ele>310</ele>
        <time>2016-02-28T11:18:58.000Z</time>
      </trkpt>
      <trkpt lat="47.49179" lon="6.77339">
        <ele>310</ele>
        <time>2016-02-28T11:18:59.000Z</time>
      </trkpt>
      <trkpt lat="47.49181" lon="6.77339">
        <ele>310</ele>
        <time>2016-02-28T11:19:47.000Z</time>
      </trkpt>
      <trkpt lat="47.49183" lon="6.77339">
        <ele>310</ele>
        <time>2016-02-28T11:19:48.000Z</time>
      </trkpt>
      <trkpt lat="47.49186" lon="6.7734">
        <ele>309</ele>
        <time>2016-02-28T11:19:49.000Z</time>
      </trkpt>
      <trkpt lat="47.49189" lon="6.7734">
        <ele>309</ele>
        <time>2016-02-28T11:19:50.000Z</time>
      </trkpt>
      <trkpt lat="47.49192" lon="6.7734">
        <ele>309</ele>
        <time>2016-02-28T11:19:51.000Z</time>
      </trkpt>
      <trkpt lat="47.49196" lon="6.7734">
        <ele>309</ele>
        <time>2016-02-28T11:19:52.000Z</time>
      </trkpt>
      <trkpt lat="47.492" lon="6.7734">
        <ele>309</ele>
        <time>2016-02-28T11:19:53.000Z</time>
      </trkpt>
      <trkpt lat="47.49203" lon="6.7734">
        <ele>309</ele>
        <time>2016-02-28T11:19:54.000Z</time>
      </trkpt>
      <trkpt lat="47.49207" lon="6.7734">
        <ele>309</ele>
        <time>2016-02-28T11:19:55.000Z</time>
      </trkpt>
      <trkpt lat="47.49211" lon="6.77341">
        <ele>309</ele>
        <time>2016-02-28T11:19:56.000Z</time>
      </trkpt>
      <trkpt lat="47.49216" lon="6.77341">
        <ele>309</ele>
        <time>2016-02-28T11:19:57.000Z</time>
      </trkpt>
      <trkpt lat="47.4922" lon="6.77341">
        <ele>309</ele>
        <time>2016-02-28T11:19:58.000Z</time>
      </trkpt>
      <trkpt lat="47.49225" lon="6.77341">
        <ele>309</ele>
        <time>2016-02-28T11:19:59.000Z</time>
      </trkpt>
      <trkpt lat="47.49229" lon="6.77341">
        <ele>309</ele>
        <time>2016-02-28T11:20:00.000Z</time>
      </trkpt>
      <trkpt lat="47.49233" lon="6.77341">
        <ele>309</ele>
        <time>2016-02-28T11:20:01.000Z</time>
      </trkpt>
      <trkpt lat="47.49237" lon="6.77342">
        <ele>310</ele>
        <time>2016-02-28T11:20:02.000Z</time>
      </trkpt>
      <trkpt lat="47.49241" lon="6.77342">
        <ele>310</ele>
        <time>2016-02-28T11:20:03.000Z</time>
      </trkpt>
      <trkpt lat="47.49246" lon="6.77341">
        <ele>310</ele>
        <time>2016-02-28T11:20:04.000Z</time>
      </trkpt>
      <trkpt lat="47.4925" lon="6.77339">
        <ele>310</ele>
        <time>2016-02-28T11:20:05.000Z</time>
      </trkpt>
      <trkpt lat="47.49254" lon="6.77337">
        <ele>310</ele>
        <time>2016-02-28T11:20:06.000Z</time>
      </trkpt>
      <trkpt lat="47.49258" lon="6.77334">
        <ele>310</ele>
        <time>2016-02-28T11:20:07.000Z</time>
      </trkpt>
      <trkpt lat="47.49263" lon="6.77331">
        <ele>310</ele>
        <time>2016-02-28T11:20:08.000Z</time>
      </trkpt>
      <trkpt lat="47.49268" lon="6.7733">
        <ele>310</ele>
        <time>2016-02-28T11:20:09.000Z</time>
      </trkpt>
      <trkpt lat="47.49274" lon="6.7733">
        <ele>310</ele>
        <time>2016-02-28T11:20:10.000Z</time>
      </trkpt>
      <trkpt lat="47.4928" lon="6.7733">
        <ele>310</ele>
        <time>2016-02-28T11:20:11.000Z</time>
      </trkpt>
      <trkpt lat="47.49285" lon="6.77331">
        <ele>310</ele>
        <time>2016-02-28T11:20:12.000Z</time>
      </trkpt>
      <trkpt lat="47.49291" lon="6.77332">
        <ele>310</ele>
        <time>2016-02-28T11:20:13.000Z</time>
      </trkpt>
      <trkpt lat="47.49296" lon="6.77333">
        <ele>310</ele>
        <time>2016-02-28T11:20:14.000Z</time>
      </trkpt>
      <trkpt lat="47.49302" lon="6.77333">
        <ele>310</ele>
        <time>2016-02-28T11:20:15.000Z</time>
      </trkpt>
      <trkpt lat="47.49307" lon="6.77333">
        <ele>310</ele>
        <time>2016-02-28T11:20:16.000Z</time>
      </trkpt>
      <trkpt lat="47.49312" lon="6.77333">
        <ele>310</ele>
        <time>2016-02-28T11:20:17.000Z</time>
      </trkpt>
      <trkpt lat="47.49316" lon="6.77334">
        <ele>310</ele>
        <time>2016-02-28T11:20:18.000Z</time>
      </trkpt>
      <trkpt lat="47.49322" lon="6.77334">
        <ele>310</ele>
        <time>2016-02-28T11:20:19.000Z</time>
      </trkpt>
      <trkpt lat="47.49326" lon="6.77335">
        <ele>310</ele>
        <time>2016-02-28T11:20:20.000Z</time>
      </trkpt>
      <trkpt lat="47.49329" lon="6.77338">
        <ele>310</ele>
        <time>2016-02-28T11:20:21.000Z</time>
      </trkpt>
      <trkpt lat="47.49332" lon="6.77342">
        <ele>310</ele>
        <time>2016-02-28T11:20:22.000Z</time>
      </trkpt>
      <trkpt lat="47.49334" lon="6.77345">
        <ele>310</ele>
        <time>2016-02-28T11:20:23.000Z</time>
      </trkpt>
      <trkpt lat="47.49338" lon="6.77347">
        <ele>310</ele>
        <time>2016-02-28T11:20:24.000Z</time>
      </trkpt>
      <trkpt lat="47.49341" lon="6.77349">
        <ele>310</ele>
        <time>2016-02-28T11:20:25.000Z</time>
      </trkpt>
      <trkpt lat="47.49345" lon="6.77348">
        <ele>310</ele>
        <time>2016-02-28T11:20:26.000Z</time>
      </trkpt>
      <trkpt lat="47.49349" lon="6.77348">
        <ele>310</ele>
        <time>2016-02-28T11:20:27.000Z</time>
      </trkpt>
      <trkpt lat="47.49353" lon="6.77349">
        <ele>310</ele>
        <time>2016-02-28T11:20:28.000Z</time>
      </trkpt>
      <trkpt lat="47.49357" lon="6.77349">
        <ele>310</ele>
        <time>2016-02-28T11:20:29.000Z</time>
      </trkpt>
      <trkpt lat="47.49361" lon="6.7735">
        <ele>310</ele>
        <time>2016-02-28T11:20:30.000Z</time>
      </trkpt>
      <trkpt lat="47.49365" lon="6.7735">
        <ele>310</ele>
        <time>2016-02-28T11:20:31.000Z</time>
      </trkpt>
      <trkpt lat="47.49369" lon="6.7735">
        <ele>310</ele>
        <time>2016-02-28T11:20:32.000Z</time>
      </trkpt>
      <trkpt lat="47.49373" lon="6.77351">
        <ele>310</ele>
        <time>2016-02-28T11:20:33.000Z</time>
      </trkpt>
      <trkpt lat="47.49377" lon="6.77351">
        <ele>310</ele>
        <time>2016-02-28T11:20:34.000Z</time>
      </trkpt>
      <trkpt lat="47.49381" lon="6.77352">
        <ele>310</ele>
        <time>2016-02-28T11:20:35.000Z</time>
      </trkpt>
      <trkpt lat="47.49385" lon="6.77353">
        <ele>310</ele>
        <time>2016-02-28T11:20:36.000Z</time>
      </trkpt>
      <trkpt lat="47.49389" lon="6.77353">
        <ele>310</ele>
        <time>2016-02-28T11:20:37.000Z</time>
      </trkpt>
      <trkpt lat="47.49394" lon="6.77354">
        <ele>310</ele>
        <time>2016-02-28T11:20:38.000Z</time>
      </trkpt>
      <trkpt lat="47.49398" lon="6.77354">
        <ele>310</ele>
        <time>2016-02-28T11:20:39.000Z</time>
      </trkpt>
      <trkpt lat="47.49402" lon="6.77355">
        <ele>310</ele>
        <time>2016-02-28T11:20:40.000Z</time>
      </trkpt>
      <trkpt lat="47.49407" lon="6.77356">
        <ele>310</ele>
        <time>2016-02-28T11:20:41.000Z</time>
      </trkpt>
      <trkpt lat="47.49412" lon="6.77356">
        <ele>310</ele>
        <time>2016-02-28T11:20:42.000Z</time>
      </trkpt>
      <trkpt lat="47.49416" lon="6.77356">
        <ele>310</ele>
        <time>2016-02-28T11:20:43.000Z</time>
      </trkpt>
      <trkpt lat="47.4942" lon="6.77356">
        <ele>311</ele>
        <time>2016-02-28T11:20:44.000Z</time>
      </trkpt>
      <trkpt lat="47.49425" lon="6.77356">
        <ele>311</ele>
        <time>2016-02-28T11:20:45.000Z</time>
      </trkpt>
      <trkpt lat="47.4943" lon="6.77356">
        <ele>311</ele>
        <time>2016-02-28T11:20:46.000Z</time>
      </trkpt>
      <trkpt lat="47.49434" lon="6.77357">
        <ele>311</ele>
        <time>2016-02-28T11:20:47.000Z</time>
      </trkpt>
      <trkpt lat="47.49438" lon="6.77358">
        <ele>311</ele>
        <time>2016-02-28T11:20:48.000Z</time>
      </trkpt>
      <trkpt lat="47.49443" lon="6.77358">
        <ele>311</ele>
        <time>2016-02-28T11:20:49.000Z</time>
      </trkpt>
      <trkpt lat="47.49447" lon="6.77359">
        <ele>311</ele>
        <time>2016-02-28T11:20:50.000Z</time>
      </trkpt>
      <trkpt lat="47.49451" lon="6.77359">
        <ele>311</ele>
        <time>2016-02-28T11:20:51.000Z</time>
      </trkpt>
      <trkpt lat="47.49455" lon="6.7736">
        <ele>311</ele>
        <time>2016-02-28T11:20:52.000Z</time>
      </trkpt>
      <trkpt lat="47.4946" lon="6.77361">
        <ele>311</ele>
        <time>2016-02-28T11:20:53.000Z</time>
      </trkpt>
      <trkpt lat="47.49464" lon="6.77361">
        <ele>311</ele>
        <time>2016-02-28T11:20:54.000Z</time>
      </trkpt>
      <trkpt lat="47.49469" lon="6.77361">
        <ele>311</ele>
        <time>2016-02-28T11:20:55.000Z</time>
      </trkpt>
      <trkpt lat="47.49473" lon="6.77362">
        <ele>311</ele>
        <time>2016-02-28T11:20:56.000Z</time>
      </trkpt>
      <trkpt lat="47.49477" lon="6.77362">
        <ele>311</ele>
        <time>2016-02-28T11:20:57.000Z</time>
      </trkpt>
      <trkpt lat="47.49481" lon="6.77363">
        <ele>311</ele>
        <time>2016-02-28T11:20:58.000Z</time>
      </trkpt>
      <trkpt lat="47.49485" lon="6.77363">
        <ele>311</ele>
        <time>2016-02-28T11:20:59.000Z</time>
      </trkpt>
      <trkpt lat="47.4949" lon="6.77363">
        <ele>311</ele>
        <time>2016-02-28T11:21:00.000Z</time>
      </trkpt>
      <trkpt lat="47.49494" lon="6.77363">
        <ele>311</ele>
        <time>2016-02-28T11:21:01.000Z</time>
      </trkpt>
      <trkpt lat="47.49498" lon="6.77364">
        <ele>311</ele>
        <time>2016-02-28T11:21:02.000Z</time>
      </trkpt>
      <trkpt lat="47.49502" lon="6.77364">
        <ele>312</ele>
        <time>2016-02-28T11:21:03.000Z</time>
      </trkpt>
      <trkpt lat="47.49506" lon="6.77364">
        <ele>312</ele>
        <time>2016-02-28T11:21:04.000Z</time>
      </trkpt>
      <trkpt lat="47.49511" lon="6.77364">
        <ele>312</ele>
        <time>2016-02-28T11:21:05.000Z</time>
      </trkpt>
      <trkpt lat="47.49515" lon="6.77365">
        <ele>312</ele>
        <time>2016-02-28T11:21:06.000Z</time>
      </trkpt>
      <trkpt lat="47.49519" lon="6.77365">
        <ele>312</ele>
        <time>2016-02-28T11:21:07.000Z</time>
      </trkpt>
      <trkpt lat="47.49524" lon="6.77365">
        <ele>312</ele>
        <time>2016-02-28T11:21:08.000Z</time>
      </trkpt>
      <trkpt lat="47.49528" lon="6.77365">
        <ele>312</ele>
        <time>2016-02-28T11:21:09.000Z</time>
      </trkpt>
      <trkpt lat="47.49532" lon="6.77365">
        <ele>312</ele>
        <time>2016-02-28T11:21:10.000Z</time>
      </trkpt>
      <trkpt lat="47.49537" lon="6.77365">
        <ele>312</ele>
        <time>2016-02-28T11:21:11.000Z</time>
      </trkpt>
      <trkpt lat="47.49542" lon="6.77365">
        <ele>312</ele>
        <time>2016-02-28T11:21:12.000Z</time>
      </trkpt>
      <trkpt lat="47.49547" lon="6.77365">
        <ele>312</ele>
        <time>2016-02-28T11:21:13.000Z</time>
      </trkpt>
      <trkpt lat="47.49551" lon="6.77367">
        <ele>312</ele>
        <time>2016-02-28T11:21:14.000Z</time>
      </trkpt>
      <trkpt lat="47.49556" lon="6.77367">
        <ele>312</ele>
        <time>2016-02-28T11:21:15.000Z</time>
      </trkpt>
      <trkpt lat="47.4956" lon="6.77367">
        <ele>312</ele>
        <time>2016-02-28T11:21:16.000Z</time>
      </trkpt>
      <trkpt lat="47.49565" lon="6.77369">
        <ele>312</ele>
        <time>2016-02-28T11:21:17.000Z</time>
      </trkpt>
      <trkpt lat="47.4957" lon="6.77369">
        <ele>312</ele>
        <time>2016-02-28T11:21:18.000Z</time>
      </trkpt>
      <trkpt lat="47.49575" lon="6.77368">
        <ele>313</ele>
        <time>2016-02-28T11:21:19.000Z</time>
      </trkpt>
      <trkpt lat="47.4958" lon="6.77368">
        <ele>313</ele>
        <time>2016-02-28T11:21:20.000Z</time>
      </trkpt>
      <trkpt lat="47.49585" lon="6.77367">
        <ele>313</ele>
        <time>2016-02-28T11:21:21.000Z</time>
      </trkpt>
      <trkpt lat="47.4959" lon="6.77366">
        <ele>313</ele>
        <time>2016-02-28T11:21:22.000Z</time>
      </trkpt>
      <trkpt lat="47.49595" lon="6.77365">
        <ele>313</ele>
        <time>2016-02-28T11:21:23.000Z</time>
      </trkpt>
      <trkpt lat="47.49601" lon="6.77363">
        <ele>313</ele>
        <time>2016-02-28T11:21:24.000Z</time>
      </trkpt>
      <trkpt lat="47.49606" lon="6.77361">
        <ele>313</ele>
        <time>2016-02-28T11:21:25.000Z</time>
      </trkpt>
      <trkpt lat="47.49611" lon="6.77359">
        <ele>313</ele>
        <time>2016-02-28T11:21:26.000Z</time>
      </trkpt>
      <trkpt lat="47.49615" lon="6.77358">
        <ele>313</ele>
        <time>2016-02-28T11:21:27.000Z</time>
      </trkpt>
      <trkpt lat="47.4962" lon="6.77357">
        <ele>313</ele>
        <time>2016-02-28T11:21:28.000Z</time>
      </trkpt>
      <trkpt lat="47.49625" lon="6.77356">
        <ele>313</ele>
        <time>2016-02-28T11:21:29.000Z</time>
      </trkpt>
      <trkpt lat="47.4963" lon="6.77356">
        <ele>313</ele>
        <time>2016-02-28T11:21:30.000Z</time>
      </trkpt>
      <trkpt lat="47.49635" lon="6.77354">
        <ele>313</ele>
        <time>2016-02-28T11:21:31.000Z</time>
      </trkpt>
      <trkpt lat="47.4964" lon="6.77353">
        <ele>313</ele>
        <time>2016-02-28T11:21:32.000Z</time>
      </trkpt>
      <trkpt lat="47.49645" lon="6.77353">
        <ele>313</ele>
        <time>2016-02-28T11:21:33.000Z</time>
      </trkpt>
      <trkpt lat="47.4965" lon="6.77353">
        <ele>313</ele>
        <time>2016-02-28T11:21:34.000Z</time>
      </trkpt>
      <trkpt lat="47.49655" lon="6.77353">
        <ele>313</ele>
        <time>2016-02-28T11:21:35.000Z</time>
      </trkpt>
      <trkpt lat="47.49659" lon="6.77351">
        <ele>313</ele>
        <time>2016-02-28T11:21:36.000Z</time>
      </trkpt>
      <trkpt lat="47.49664" lon="6.77351">
        <ele>313</ele>
        <time>2016-02-28T11:21:37.000Z</time>
      </trkpt>
      <trkpt lat="47.49669" lon="6.7735">
        <ele>313</ele>
        <time>2016-02-28T11:21:38.000Z</time>
      </trkpt>
      <trkpt lat="47.49674" lon="6.77348">
        <ele>313</ele>
        <time>2016-02-28T11:21:39.000Z</time>
      </trkpt>
      <trkpt lat="47.49679" lon="6.77347">
        <ele>313</ele>
        <time>2016-02-28T11:21:40.000Z</time>
      </trkpt>
      <trkpt lat="47.49683" lon="6.77347">
        <ele>313</ele>
        <time>2016-02-28T11:21:41.000Z</time>
      </trkpt>
      <trkpt lat="47.49688" lon="6.77346">
        <ele>313</ele>
        <time>2016-02-28T11:21:42.000Z</time>
      </trkpt>
      <trkpt lat="47.49692" lon="6.77345">
        <ele>313</ele>
        <time>2016-02-28T11:21:43.000Z</time>
      </trkpt>
      <trkpt lat="47.49697" lon="6.77344">
        <ele>313</ele>
        <time>2016-02-28T11:21:44.000Z</time>
      </trkpt>
      <trkpt lat="47.49701" lon="6.77343">
        <ele>313</ele>
        <time>2016-02-28T11:21:45.000Z</time>
      </trkpt>
      <trkpt lat="47.49705" lon="6.77342">
        <ele>313</ele>
        <time>2016-02-28T11:21:46.000Z</time>
      </trkpt>
      <trkpt lat="47.49708" lon="6.77341">
        <ele>313</ele>
        <time>2016-02-28T11:21:47.000Z</time>
      </trkpt>
      <trkpt lat="47.49711" lon="6.77338">
        <ele>313</ele>
        <time>2016-02-28T11:21:48.000Z</time>
      </trkpt>
      <trkpt lat="47.49715" lon="6.77337">
        <ele>313</ele>
        <time>2016-02-28T11:21:49.000Z</time>
      </trkpt>
      <trkpt lat="47.49718" lon="6.77335">
        <ele>313</ele>
        <time>2016-02-28T11:21:50.000Z</time>
      </trkpt>
      <trkpt lat="47.49723" lon="6.77335">
        <ele>313</ele>
        <time>2016-02-28T11:21:51.000Z</time>
      </trkpt>
      <trkpt lat="47.49727" lon="6.77333">
        <ele>314</ele>
        <time>2016-02-28T11:21:52.000Z</time>
      </trkpt>
      <trkpt lat="47.49731" lon="6.77332">
        <ele>314</ele>
        <time>2016-02-28T11:21:53.000Z</time>
      </trkpt>
      <trkpt lat="47.49735" lon="6.77329">
        <ele>314</ele>
        <time>2016-02-28T11:21:54.000Z</time>
      </trkpt>
      <trkpt lat="47.49739" lon="6.77327">
        <ele>314</ele>
        <time>2016-02-28T11:21:55.000Z</time>
      </trkpt>
      <trkpt lat="47.49743" lon="6.77324">
        <ele>314</ele>
        <time>2016-02-28T11:21:56.000Z</time>
      </trkpt>
      <trkpt lat="47.49747" lon="6.77322">
        <ele>314</ele>
        <time>2016-02-28T11:21:57.000Z</time>
      </trkpt>
      <trkpt lat="47.4975" lon="6.7732">
        <ele>315</ele>
        <time>2016-02-28T11:21:58.000Z</time>
      </trkpt>
      <trkpt lat="47.49754" lon="6.77318">
        <ele>315</ele>
        <time>2016-02-28T11:21:59.000Z</time>
      </trkpt>
      <trkpt lat="47.49758" lon="6.77316">
        <ele>315</ele>
        <time>2016-02-28T11:22:00.000Z</time>
      </trkpt>
      <trkpt lat="47.49763" lon="6.77314">
        <ele>316</ele>
        <time>2016-02-28T11:22:01.000Z</time>
      </trkpt>
      <trkpt lat="47.49767" lon="6.77313">
        <ele>316</ele>
        <time>2016-02-28T11:22:02.000Z</time>
      </trkpt>
      <trkpt lat="47.49771" lon="6.77314">
        <ele>316</ele>
        <time>2016-02-28T11:22:03.000Z</time>
      </trkpt>
      <trkpt lat="47.49776" lon="6.77315">
        <ele>316</ele>
        <time>2016-02-28T11:22:04.000Z</time>
      </trkpt>
      <trkpt lat="47.49781" lon="6.77314">
        <ele>316</ele>
        <time>2016-02-28T11:22:05.000Z</time>
      </trkpt>
      <trkpt lat="47.49786" lon="6.77314">
        <ele>316</ele>
        <time>2016-02-28T11:22:06.000Z</time>
      </trkpt>
      <trkpt lat="47.4979" lon="6.77314">
        <ele>317</ele>
        <time>2016-02-28T11:22:07.000Z</time>
      </trkpt>
      <trkpt lat="47.49794" lon="6.77314">
        <ele>317</ele>
        <time>2016-02-28T11:22:08.000Z</time>
      </trkpt>
      <trkpt lat="47.49799" lon="6.77315">
        <ele>317</ele>
        <time>2016-02-28T11:22:09.000Z</time>
      </trkpt>
      <trkpt lat="47.49804" lon="6.77313">
        <ele>317</ele>
        <time>2016-02-28T11:22:10.000Z</time>
      </trkpt>
      <trkpt lat="47.49809" lon="6.77312">
        <ele>317</ele>
        <time>2016-02-28T11:22:11.000Z</time>
      </trkpt>
      <trkpt lat="47.49812" lon="6.77314">
        <ele>316</ele>
        <time>2016-02-28T11:22:12.000Z</time>
      </trkpt>
      <trkpt lat="47.49817" lon="6.77313">
        <ele>316</ele>
        <time>2016-02-28T11:22:13.000Z</time>
      </trkpt>
      <trkpt lat="47.49822" lon="6.77313">
        <ele>316</ele>
        <time>2016-02-28T11:22:14.000Z</time>
      </trkpt>
      <trkpt lat="47.49826" lon="6.77312">
        <ele>316</ele>
        <time>2016-02-28T11:22:15.000Z</time>
      </trkpt>
      <trkpt lat="47.49831" lon="6.77311">
        <ele>316</ele>
        <time>2016-02-28T11:22:16.000Z</time>
      </trkpt>
      <trkpt lat="47.49835" lon="6.77314">
        <ele>317</ele>
        <time>2016-02-28T11:22:17.000Z</time>
      </trkpt>
      <trkpt lat="47.4984" lon="6.77312">
        <ele>317</ele>
        <time>2016-02-28T11:22:18.000Z</time>
      </trkpt>
      <trkpt lat="47.49845" lon="6.77312">
        <ele>317</ele>
        <time>2016-02-28T11:22:19.000Z</time>
      </trkpt>
      <trkpt lat="47.4985" lon="6.77311">
        <ele>317</ele>
        <time>2016-02-28T11:22:20.000Z</time>
      </trkpt>
      <trkpt lat="47.49854" lon="6.77311">
        <ele>317</ele>
        <time>2016-02-28T11:22:21.000Z</time>
      </trkpt>
      <trkpt lat="47.49859" lon="6.77312">
        <ele>317</ele>
        <time>2016-02-28T11:22:22.000Z</time>
      </trkpt>
      <trkpt lat="47.49864" lon="6.77311">
        <ele>317</ele>
        <time>2016-02-28T11:22:23.000Z</time>
      </trkpt>
      <trkpt lat="47.49868" lon="6.7731">
        <ele>318</ele>
        <time>2016-02-28T11:22:24.000Z</time>
      </trkpt>
      <trkpt lat="47.49871" lon="6.77312">
        <ele>317</ele>
        <time>2016-02-28T11:22:25.000Z</time>
      </trkpt>
      <trkpt lat="47.49875" lon="6.77312">
        <ele>317</ele>
        <time>2016-02-28T11:22:26.000Z</time>
      </trkpt>
      <trkpt lat="47.49879" lon="6.77308">
        <ele>318</ele>
        <time>2016-02-28T11:22:27.000Z</time>
      </trkpt>
      <trkpt lat="47.49883" lon="6.77309">
        <ele>317</ele>
        <time>2016-02-28T11:22:28.000Z</time>
      </trkpt>
      <trkpt lat="47.49888" lon="6.77308">
        <ele>317</ele>
        <time>2016-02-28T11:22:29.000Z</time>
      </trkpt>
      <trkpt lat="47.49892" lon="6.77307">
        <ele>317</ele>
        <time>2016-02-28T11:22:30.000Z</time>
      </trkpt>
      <trkpt lat="47.49897" lon="6.77306">
        <ele>317</ele>
        <time>2016-02-28T11:22:31.000Z</time>
      </trkpt>
      <trkpt lat="47.49901" lon="6.77305">
        <ele>317</ele>
        <time>2016-02-28T11:22:32.000Z</time>
      </trkpt>
      <trkpt lat="47.49905" lon="6.77302">
        <ele>317</ele>
        <time>2016-02-28T11:22:33.000Z</time>
      </trkpt>
      <trkpt lat="47.49909" lon="6.77299">
        <ele>318</ele>
        <time>2016-02-28T11:22:34.000Z</time>
      </trkpt>
      <trkpt lat="47.49914" lon="6.77296">
        <ele>318</ele>
        <time>2016-02-28T11:22:35.000Z</time>
      </trkpt>
      <trkpt lat="47.49918" lon="6.77291">
        <ele>317</ele>
        <time>2016-02-28T11:22:36.000Z</time>
      </trkpt>
      <trkpt lat="47.49922" lon="6.77287">
        <ele>317</ele>
        <time>2016-02-28T11:22:37.000Z</time>
      </trkpt>
      <trkpt lat="47.49926" lon="6.77285">
        <ele>317</ele>
        <time>2016-02-28T11:22:38.000Z</time>
      </trkpt>
      <trkpt lat="47.49933" lon="6.77282">
        <ele>317</ele>
        <time>2016-02-28T11:22:39.000Z</time>
      </trkpt>
      <trkpt lat="47.49938" lon="6.77278">
        <ele>318</ele>
        <time>2016-02-28T11:22:40.000Z</time>
      </trkpt>
      <trkpt lat="47.49943" lon="6.77275">
        <ele>318</ele>
        <time>2016-02-28T11:22:41.000Z</time>
      </trkpt>
      <trkpt lat="47.49947" lon="6.77274">
        <ele>317</ele>
        <time>2016-02-28T11:22:42.000Z</time>
      </trkpt>
      <trkpt lat="47.49951" lon="6.77272">
        <ele>317</ele>
        <time>2016-02-28T11:22:43.000Z</time>
      </trkpt>
      <trkpt lat="47.49956" lon="6.77267">
        <ele>317</ele>
        <time>2016-02-28T11:22:44.000Z</time>
      </trkpt>
      <trkpt lat="47.49962" lon="6.77262">
        <ele>317</ele>
        <time>2016-02-28T11:22:45.000Z</time>
      </trkpt>
      <trkpt lat="47.49967" lon="6.77259">
        <ele>317</ele>
        <time>2016-02-28T11:22:46.000Z</time>
      </trkpt>
      <trkpt lat="47.49971" lon="6.77256">
        <ele>317</ele>
        <time>2016-02-28T11:22:47.000Z</time>
      </trkpt>
      <trkpt lat="47.49975" lon="6.77253">
        <ele>317</ele>
        <time>2016-02-28T11:22:48.000Z</time>
      </trkpt>
      <trkpt lat="47.4998" lon="6.7725">
        <ele>316</ele>
        <time>2016-02-28T11:22:49.000Z</time>
      </trkpt>
      <trkpt lat="47.49984" lon="6.77247">
        <ele>325</ele>
        <time>2016-02-28T11:22:50.000Z</time>
      </trkpt>
      <trkpt lat="47.49988" lon="6.77245">
        <ele>324</ele>
        <time>2016-02-28T11:22:51.000Z</time>
      </trkpt>
      <trkpt lat="47.49992" lon="6.77242">
        <ele>323</ele>
        <time>2016-02-28T11:22:52.000Z</time>
      </trkpt>
      <trkpt lat="47.49996" lon="6.7724">
        <ele>323</ele>
        <time>2016-02-28T11:22:53.000Z</time>
      </trkpt>
      <trkpt lat="47.5" lon="6.77238">
        <ele>322</ele>
        <time>2016-02-28T11:22:54.000Z</time>
      </trkpt>
      <trkpt lat="47.50004" lon="6.77238">
        <ele>322</ele>
        <time>2016-02-28T11:22:55.000Z</time>
      </trkpt>
      <trkpt lat="47.50007" lon="6.77237">
        <ele>323</ele>
        <time>2016-02-28T11:22:56.000Z</time>
      </trkpt>
      <trkpt lat="47.50011" lon="6.77236">
        <ele>323</ele>
        <time>2016-02-28T11:22:57.000Z</time>
      </trkpt>
      <trkpt lat="47.50014" lon="6.77235">
        <ele>324</ele>
        <time>2016-02-28T11:22:58.000Z</time>
      </trkpt>
      <trkpt lat="47.50018" lon="6.77232">
        <ele>325</ele>
        <time>2016-02-28T11:22:59.000Z</time>
      </trkpt>
      <trkpt lat="47.50021" lon="6.7723">
        <ele>326</ele>
        <time>2016-02-28T11:23:00.000Z</time>
      </trkpt>
      <trkpt lat="47.50025" lon="6.77228">
        <ele>326</ele>
        <time>2016-02-28T11:23:01.000Z</time>
      </trkpt>
      <trkpt lat="47.50029" lon="6.77226">
        <ele>327</ele>
        <time>2016-02-28T11:23:02.000Z</time>
      </trkpt>
      <trkpt lat="47.50033" lon="6.77225">
        <ele>327</ele>
        <time>2016-02-28T11:23:03.000Z</time>
      </trkpt>
      <trkpt lat="47.50037" lon="6.77223">
        <ele>328</ele>
        <time>2016-02-28T11:23:04.000Z</time>
      </trkpt>
      <trkpt lat="47.50041" lon="6.77221">
        <ele>328</ele>
        <time>2016-02-28T11:23:05.000Z</time>
      </trkpt>
      <trkpt lat="47.50046" lon="6.77218">
        <ele>328</ele>
        <time>2016-02-28T11:23:06.000Z</time>
      </trkpt>
      <trkpt lat="47.5005" lon="6.77216">
        <ele>328</ele>
        <time>2016-02-28T11:23:07.000Z</time>
      </trkpt>
      <trkpt lat="47.50054" lon="6.77213">
        <ele>329</ele>
        <time>2016-02-28T11:23:08.000Z</time>
      </trkpt>
      <trkpt lat="47.50058" lon="6.77213">
        <ele>329</ele>
        <time>2016-02-28T11:23:09.000Z</time>
      </trkpt>
      <trkpt lat="47.50061" lon="6.77213">
        <ele>328</ele>
        <time>2016-02-28T11:23:10.000Z</time>
      </trkpt>
      <trkpt lat="47.50066" lon="6.77215">
        <ele>328</ele>
        <time>2016-02-28T11:23:11.000Z</time>
      </trkpt>
      <trkpt lat="47.5007" lon="6.77216">
        <ele>327</ele>
        <time>2016-02-28T11:23:12.000Z</time>
      </trkpt>
      <trkpt lat="47.50074" lon="6.77213">
        <ele>328</ele>
        <time>2016-02-28T11:23:13.000Z</time>
      </trkpt>
      <trkpt lat="47.50078" lon="6.77212">
        <ele>328</ele>
        <time>2016-02-28T11:23:14.000Z</time>
      </trkpt>
      <trkpt lat="47.50082" lon="6.7721">
        <ele>329</ele>
        <time>2016-02-28T11:23:15.000Z</time>
      </trkpt>
      <trkpt lat="47.50086" lon="6.77208">
        <ele>325</ele>
        <time>2016-02-28T11:23:16.000Z</time>
      </trkpt>
      <trkpt lat="47.5009" lon="6.77207">
        <ele>325</ele>
        <time>2016-02-28T11:23:17.000Z</time>
      </trkpt>
      <trkpt lat="47.50094" lon="6.77205">
        <ele>325</ele>
        <time>2016-02-28T11:23:18.000Z</time>
      </trkpt>
      <trkpt lat="47.50097" lon="6.77205">
        <ele>325</ele>
        <time>2016-02-28T11:23:19.000Z</time>
      </trkpt>
      <trkpt lat="47.50101" lon="6.77206">
        <ele>324</ele>
        <time>2016-02-28T11:23:20.000Z</time>
      </trkpt>
      <trkpt lat="47.50105" lon="6.77207">
        <ele>324</ele>
        <time>2016-02-28T11:23:21.000Z</time>
      </trkpt>
      <trkpt lat="47.5011" lon="6.77207">
        <ele>324</ele>
        <time>2016-02-28T11:23:22.000Z</time>
      </trkpt>
      <trkpt lat="47.50115" lon="6.77208">
        <ele>323</ele>
        <time>2016-02-28T11:23:23.000Z</time>
      </trkpt>
      <trkpt lat="47.5012" lon="6.77209">
        <ele>323</ele>
        <time>2016-02-28T11:23:24.000Z</time>
      </trkpt>
      <trkpt lat="47.50125" lon="6.7721">
        <ele>323</ele>
        <time>2016-02-28T11:23:25.000Z</time>
      </trkpt>
      <trkpt lat="47.50131" lon="6.7721">
        <ele>322</ele>
        <time>2016-02-28T11:23:26.000Z</time>
      </trkpt>
      <trkpt lat="47.50137" lon="6.77211">
        <ele>322</ele>
        <time>2016-02-28T11:23:27.000Z</time>
      </trkpt>
      <trkpt lat="47.50142" lon="6.77213">
        <ele>321</ele>
        <time>2016-02-28T11:23:28.000Z</time>
      </trkpt>
      <trkpt lat="47.50147" lon="6.77217">
        <ele>321</ele>
        <time>2016-02-28T11:23:29.000Z</time>
      </trkpt>
      <trkpt lat="47.50151" lon="6.77221">
        <ele>320</ele>
        <time>2016-02-28T11:23:30.000Z</time>
      </trkpt>
      <trkpt lat="47.50155" lon="6.77225">
        <ele>319</ele>
        <time>2016-02-28T11:23:31.000Z</time>
      </trkpt>
      <trkpt lat="47.5016" lon="6.77229">
        <ele>319</ele>
        <time>2016-02-28T11:23:32.000Z</time>
      </trkpt>
      <trkpt lat="47.50165" lon="6.77232">
        <ele>318</ele>
        <time>2016-02-28T11:23:33.000Z</time>
      </trkpt>
      <trkpt lat="47.50169" lon="6.77236">
        <ele>315</ele>
        <time>2016-02-28T11:23:34.000Z</time>
      </trkpt>
      <trkpt lat="47.50173" lon="6.7724">
        <ele>315</ele>
        <time>2016-02-28T11:23:35.000Z</time>
      </trkpt>
      <trkpt lat="47.50177" lon="6.77245">
        <ele>315</ele>
        <time>2016-02-28T11:23:36.000Z</time>
      </trkpt>
      <trkpt lat="47.50182" lon="6.77249">
        <ele>315</ele>
        <time>2016-02-28T11:23:37.000Z</time>
      </trkpt>
      <trkpt lat="47.50186" lon="6.77254">
        <ele>313</ele>
        <time>2016-02-28T11:23:38.000Z</time>
      </trkpt>
      <trkpt lat="47.5019" lon="6.77259">
        <ele>313</ele>
        <time>2016-02-28T11:23:39.000Z</time>
      </trkpt>
      <trkpt lat="47.50194" lon="6.77263">
        <ele>313</ele>
        <time>2016-02-28T11:23:40.000Z</time>
      </trkpt>
      <trkpt lat="47.50199" lon="6.77266">
        <ele>313</ele>
        <time>2016-02-28T11:23:41.000Z</time>
      </trkpt>
      <trkpt lat="47.50203" lon="6.7727">
        <ele>313</ele>
        <time>2016-02-28T11:23:42.000Z</time>
      </trkpt>
      <trkpt lat="47.50207" lon="6.77275">
        <ele>313</ele>
        <time>2016-02-28T11:23:43.000Z</time>
      </trkpt>
      <trkpt lat="47.50212" lon="6.77279">
        <ele>313</ele>
        <time>2016-02-28T11:23:44.000Z</time>
      </trkpt>
      <trkpt lat="47.50216" lon="6.77282">
        <ele>313</ele>
        <time>2016-02-28T11:23:45.000Z</time>
      </trkpt>
      <trkpt lat="47.50221" lon="6.77284">
        <ele>313</ele>
        <time>2016-02-28T11:23:46.000Z</time>
      </trkpt>
      <trkpt lat="47.50226" lon="6.77286">
        <ele>313</ele>
        <time>2016-02-28T11:23:47.000Z</time>
      </trkpt>
      <trkpt lat="47.50231" lon="6.77289">
        <ele>313</ele>
        <time>2016-02-28T11:23:48.000Z</time>
      </trkpt>
      <trkpt lat="47.50236" lon="6.77292">
        <ele>313</ele>
        <time>2016-02-28T11:23:49.000Z</time>
      </trkpt>
      <trkpt lat="47.50241" lon="6.77294">
        <ele>313</ele>
        <time>2016-02-28T11:23:50.000Z</time>
      </trkpt>
      <trkpt lat="47.50245" lon="6.77297">
        <ele>313</ele>
        <time>2016-02-28T11:23:51.000Z</time>
      </trkpt>
      <trkpt lat="47.5025" lon="6.77299">
        <ele>313</ele>
        <time>2016-02-28T11:23:52.000Z</time>
      </trkpt>
      <trkpt lat="47.50254" lon="6.77302">
        <ele>313</ele>
        <time>2016-02-28T11:23:53.000Z</time>
      </trkpt>
      <trkpt lat="47.50259" lon="6.77305">
        <ele>313</ele>
        <time>2016-02-28T11:23:54.000Z</time>
      </trkpt>
      <trkpt lat="47.50263" lon="6.77308">
        <ele>313</ele>
        <time>2016-02-28T11:23:55.000Z</time>
      </trkpt>
      <trkpt lat="47.50268" lon="6.77311">
        <ele>313</ele>
        <time>2016-02-28T11:23:56.000Z</time>
      </trkpt>
      <trkpt lat="47.50272" lon="6.77314">
        <ele>313</ele>
        <time>2016-02-28T11:23:57.000Z</time>
      </trkpt>
      <trkpt lat="47.50277" lon="6.77317">
        <ele>313</ele>
        <time>2016-02-28T11:23:58.000Z</time>
      </trkpt>
      <trkpt lat="47.50282" lon="6.77319">
        <ele>313</ele>
        <time>2016-02-28T11:23:59.000Z</time>
      </trkpt>
      <trkpt lat="47.50286" lon="6.77323">
        <ele>313</ele>
        <time>2016-02-28T11:24:00.000Z</time>
      </trkpt>
      <trkpt lat="47.50291" lon="6.77327">
        <ele>312</ele>
        <time>2016-02-28T11:24:01.000Z</time>
      </trkpt>
      <trkpt lat="47.50295" lon="6.7733">
        <ele>312</ele>
        <time>2016-02-28T11:24:02.000Z</time>
      </trkpt>
      <trkpt lat="47.50299" lon="6.77334">
        <ele>312</ele>
        <time>2016-02-28T11:24:03.000Z</time>
      </trkpt>
      <trkpt lat="47.50304" lon="6.77338">
        <ele>312</ele>
        <time>2016-02-28T11:24:04.000Z</time>
      </trkpt>
      <trkpt lat="47.50307" lon="6.77341">
        <ele>312</ele>
        <time>2016-02-28T11:24:05.000Z</time>
      </trkpt>
      <trkpt lat="47.50312" lon="6.77344">
        <ele>312</ele>
        <time>2016-02-28T11:24:06.000Z</time>
      </trkpt>
      <trkpt lat="47.50316" lon="6.77347">
        <ele>312</ele>
        <time>2016-02-28T11:24:07.000Z</time>
      </trkpt>
      <trkpt lat="47.50321" lon="6.7735">
        <ele>312</ele>
        <time>2016-02-28T11:24:08.000Z</time>
      </trkpt>
      <trkpt lat="47.50325" lon="6.77353">
        <ele>312</ele>
        <time>2016-02-28T11:24:09.000Z</time>
      </trkpt>
      <trkpt lat="47.50329" lon="6.77356">
        <ele>312</ele>
        <time>2016-02-28T11:24:10.000Z</time>
      </trkpt>
      <trkpt lat="47.50333" lon="6.77359">
        <ele>312</ele>
        <time>2016-02-28T11:24:11.000Z</time>
      </trkpt>
      <trkpt lat="47.50337" lon="6.77363">
        <ele>312</ele>
        <time>2016-02-28T11:24:12.000Z</time>
      </trkpt>
      <trkpt lat="47.5034" lon="6.77367">
        <ele>312</ele>
        <time>2016-02-28T11:24:13.000Z</time>
      </trkpt>
      <trkpt lat="47.50345" lon="6.77371">
        <ele>312</ele>
        <time>2016-02-28T11:24:14.000Z</time>
      </trkpt>
      <trkpt lat="47.50349" lon="6.77375">
        <ele>312</ele>
        <time>2016-02-28T11:24:15.000Z</time>
      </trkpt>
      <trkpt lat="47.50352" lon="6.7738">
        <ele>312</ele>
        <time>2016-02-28T11:24:16.000Z</time>
      </trkpt>
      <trkpt lat="47.50357" lon="6.77382">
        <ele>312</ele>
        <time>2016-02-28T11:24:17.000Z</time>
      </trkpt>
      <trkpt lat="47.50362" lon="6.77385">
        <ele>312</ele>
        <time>2016-02-28T11:24:18.000Z</time>
      </trkpt>
      <trkpt lat="47.50366" lon="6.77389">
        <ele>312</ele>
        <time>2016-02-28T11:24:19.000Z</time>
      </trkpt>
      <trkpt lat="47.5037" lon="6.77392">
        <ele>312</ele>
        <time>2016-02-28T11:24:20.000Z</time>
      </trkpt>
      <trkpt lat="47.50374" lon="6.77395">
        <ele>312</ele>
        <time>2016-02-28T11:24:21.000Z</time>
      </trkpt>
      <trkpt lat="47.50378" lon="6.77399">
        <ele>312</ele>
        <time>2016-02-28T11:24:22.000Z</time>
      </trkpt>
      <trkpt lat="47.50382" lon="6.77402">
        <ele>312</ele>
        <time>2016-02-28T11:24:23.000Z</time>
      </trkpt>
      <trkpt lat="47.50386" lon="6.77406">
        <ele>312</ele>
        <time>2016-02-28T11:24:24.000Z</time>
      </trkpt>
      <trkpt lat="47.5039" lon="6.77409">
        <ele>312</ele>
        <time>2016-02-28T11:24:25.000Z</time>
      </trkpt>
      <trkpt lat="47.50394" lon="6.77413">
        <ele>312</ele>
        <time>2016-02-28T11:24:26.000Z</time>
      </trkpt>
      <trkpt lat="47.50398" lon="6.77415">
        <ele>312</ele>
        <time>2016-02-28T11:24:27.000Z</time>
      </trkpt>
      <trkpt lat="47.50402" lon="6.77418">
        <ele>311</ele>
        <time>2016-02-28T11:24:28.000Z</time>
      </trkpt>
      <trkpt lat="47.50406" lon="6.77422">
        <ele>311</ele>
        <time>2016-02-28T11:24:29.000Z</time>
      </trkpt>
      <trkpt lat="47.5041" lon="6.77425">
        <ele>311</ele>
        <time>2016-02-28T11:24:30.000Z</time>
      </trkpt>
      <trkpt lat="47.50415" lon="6.77429">
        <ele>311</ele>
        <time>2016-02-28T11:24:31.000Z</time>
      </trkpt>
      <trkpt lat="47.50419" lon="6.77432">
        <ele>312</ele>
        <time>2016-02-28T11:24:32.000Z</time>
      </trkpt>
      <trkpt lat="47.50423" lon="6.77436">
        <ele>312</ele>
        <time>2016-02-28T11:24:33.000Z</time>
      </trkpt>
      <trkpt lat="47.50428" lon="6.7744">
        <ele>312</ele>
        <time>2016-02-28T11:24:34.000Z</time>
      </trkpt>
      <trkpt lat="47.50431" lon="6.77443">
        <ele>312</ele>
        <time>2016-02-28T11:24:35.000Z</time>
      </trkpt>
      <trkpt lat="47.50436" lon="6.77447">
        <ele>312</ele>
        <time>2016-02-28T11:24:36.000Z</time>
      </trkpt>
      <trkpt lat="47.50439" lon="6.7745">
        <ele>312</ele>
        <time>2016-02-28T11:24:37.000Z</time>
      </trkpt>
      <trkpt lat="47.50444" lon="6.77453">
        <ele>312</ele>
        <time>2016-02-28T11:24:38.000Z</time>
      </trkpt>
      <trkpt lat="47.50447" lon="6.77457">
        <ele>312</ele>
        <time>2016-02-28T11:24:39.000Z</time>
      </trkpt>
      <trkpt lat="47.50451" lon="6.7746">
        <ele>312</ele>
        <time>2016-02-28T11:24:40.000Z</time>
      </trkpt>
      <trkpt lat="47.50456" lon="6.77463">
        <ele>312</ele>
        <time>2016-02-28T11:24:41.000Z</time>
      </trkpt>
      <trkpt lat="47.5046" lon="6.77466">
        <ele>313</ele>
        <time>2016-02-28T11:24:42.000Z</time>
      </trkpt>
      <trkpt lat="47.50464" lon="6.77471">
        <ele>313</ele>
        <time>2016-02-28T11:24:43.000Z</time>
      </trkpt>
      <trkpt lat="47.50467" lon="6.77475">
        <ele>313</ele>
        <time>2016-02-28T11:24:44.000Z</time>
      </trkpt>
      <trkpt lat="47.50471" lon="6.77478">
        <ele>313</ele>
        <time>2016-02-28T11:24:45.000Z</time>
      </trkpt>
      <trkpt lat="47.50474" lon="6.7748">
        <ele>313</ele>
        <time>2016-02-28T11:24:46.000Z</time>
      </trkpt>
      <trkpt lat="47.50478" lon="6.77483">
        <ele>313</ele>
        <time>2016-02-28T11:24:47.000Z</time>
      </trkpt>
      <trkpt lat="47.50483" lon="6.77487">
        <ele>313</ele>
        <time>2016-02-28T11:24:48.000Z</time>
      </trkpt>
      <trkpt lat="47.50487" lon="6.77491">
        <ele>313</ele>
        <time>2016-02-28T11:24:49.000Z</time>
      </trkpt>
      <trkpt lat="47.5049" lon="6.77495">
        <ele>313</ele>
        <time>2016-02-28T11:24:50.000Z</time>
      </trkpt>
      <trkpt lat="47.50493" lon="6.77498">
        <ele>314</ele>
        <time>2016-02-28T11:24:51.000Z</time>
      </trkpt>
      <trkpt lat="47.50498" lon="6.77502">
        <ele>314</ele>
        <time>2016-02-28T11:24:52.000Z</time>
      </trkpt>
      <trkpt lat="47.50501" lon="6.77505">
        <ele>314</ele>
        <time>2016-02-28T11:24:53.000Z</time>
      </trkpt>
      <trkpt lat="47.50505" lon="6.77508">
        <ele>314</ele>
        <time>2016-02-28T11:24:54.000Z</time>
      </trkpt>
      <trkpt lat="47.50509" lon="6.77511">
        <ele>314</ele>
        <time>2016-02-28T11:24:55.000Z</time>
      </trkpt>
      <trkpt lat="47.50513" lon="6.77513">
        <ele>314</ele>
        <time>2016-02-28T11:24:56.000Z</time>
      </trkpt>
      <trkpt lat="47.50518" lon="6.77515">
        <ele>314</ele>
        <time>2016-02-28T11:24:57.000Z</time>
      </trkpt>
      <trkpt lat="47.50522" lon="6.77518">
        <ele>313</ele>
        <time>2016-02-28T11:24:58.000Z</time>
      </trkpt>
      <trkpt lat="47.50526" lon="6.7752">
        <ele>313</ele>
        <time>2016-02-28T11:24:59.000Z</time>
      </trkpt>
      <trkpt lat="47.5053" lon="6.77523">
        <ele>313</ele>
        <time>2016-02-28T11:25:00.000Z</time>
      </trkpt>
      <trkpt lat="47.50534" lon="6.77526">
        <ele>313</ele>
        <time>2016-02-28T11:25:01.000Z</time>
      </trkpt>
      <trkpt lat="47.5054" lon="6.77528">
        <ele>313</ele>
        <time>2016-02-28T11:25:02.000Z</time>
      </trkpt>
      <trkpt lat="47.50543" lon="6.77531">
        <ele>313</ele>
        <time>2016-02-28T11:25:03.000Z</time>
      </trkpt>
      <trkpt lat="47.50547" lon="6.77534">
        <ele>313</ele>
        <time>2016-02-28T11:25:04.000Z</time>
      </trkpt>
      <trkpt lat="47.5055" lon="6.77538">
        <ele>313</ele>
        <time>2016-02-28T11:25:05.000Z</time>
      </trkpt>
      <trkpt lat="47.50552" lon="6.77542">
        <ele>313</ele>
        <time>2016-02-28T11:25:06.000Z</time>
      </trkpt>
      <trkpt lat="47.50554" lon="6.77546">
        <ele>313</ele>
        <time>2016-02-28T11:25:07.000Z</time>
      </trkpt>
      <trkpt lat="47.50556" lon="6.77549">
        <ele>313</ele>
        <time>2016-02-28T11:25:08.000Z</time>
      </trkpt>
      <trkpt lat="47.50558" lon="6.77552">
        <ele>313</ele>
        <time>2016-02-28T11:25:09.000Z</time>
      </trkpt>
      <trkpt lat="47.50561" lon="6.77554">
        <ele>313</ele>
        <time>2016-02-28T11:25:10.000Z</time>
      </trkpt>
      <trkpt lat="47.50565" lon="6.77556">
        <ele>313</ele>
        <time>2016-02-28T11:25:11.000Z</time>
      </trkpt>
      <trkpt lat="47.50568" lon="6.77557">
        <ele>313</ele>
        <time>2016-02-28T11:25:12.000Z</time>
      </trkpt>
      <trkpt lat="47.50572" lon="6.77557">
        <ele>313</ele>
        <time>2016-02-28T11:25:13.000Z</time>
      </trkpt>
      <trkpt lat="47.50576" lon="6.77556">
        <ele>313</ele>
        <time>2016-02-28T11:25:14.000Z</time>
      </trkpt>
      <trkpt lat="47.5058" lon="6.77554">
        <ele>313</ele>
        <time>2016-02-28T11:25:15.000Z</time>
      </trkpt>
      <trkpt lat="47.50583" lon="6.7755">
        <ele>313</ele>
        <time>2016-02-28T11:25:16.000Z</time>
      </trkpt>
      <trkpt lat="47.50585" lon="6.77546">
        <ele>313</ele>
        <time>2016-02-28T11:25:17.000Z</time>
      </trkpt>
      <trkpt lat="47.50588" lon="6.77542">
        <ele>313</ele>
        <time>2016-02-28T11:25:18.000Z</time>
      </trkpt>
      <trkpt lat="47.5059" lon="6.77538">
        <ele>313</ele>
        <time>2016-02-28T11:25:19.000Z</time>
      </trkpt>
      <trkpt lat="47.50594" lon="6.77537">
        <ele>313</ele>
        <time>2016-02-28T11:25:20.000Z</time>
      </trkpt>
      <trkpt lat="47.50598" lon="6.77537">
        <ele>313</ele>
        <time>2016-02-28T11:25:21.000Z</time>
      </trkpt>
      <trkpt lat="47.50601" lon="6.77536">
        <ele>313</ele>
        <time>2016-02-28T11:25:22.000Z</time>
      </trkpt>
      <trkpt lat="47.50604" lon="6.77536">
        <ele>313</ele>
        <time>2016-02-28T11:25:23.000Z</time>
      </trkpt>
      <trkpt lat="47.50606" lon="6.77535">
        <ele>313</ele>
        <time>2016-02-28T11:25:24.000Z</time>
      </trkpt>
      <trkpt lat="47.5061" lon="6.77534">
        <ele>313</ele>
        <time>2016-02-28T11:25:26.000Z</time>
      </trkpt>
      <trkpt lat="47.50611" lon="6.77534">
        <ele>313</ele>
        <time>2016-02-28T11:25:27.000Z</time>
      </trkpt>
      <trkpt lat="47.50615" lon="6.77532">
        <ele>313</ele>
        <time>2016-02-28T11:25:29.000Z</time>
      </trkpt>
      <trkpt lat="47.50618" lon="6.77533">
        <ele>313</ele>
        <time>2016-02-28T11:25:30.000Z</time>
      </trkpt>
      <trkpt lat="47.50621" lon="6.77534">
        <ele>313</ele>
        <time>2016-02-28T11:25:31.000Z</time>
      </trkpt>
      <trkpt lat="47.50623" lon="6.77536">
        <ele>313</ele>
        <time>2016-02-28T11:25:32.000Z</time>
      </trkpt>
      <trkpt lat="47.50626" lon="6.77537">
        <ele>313</ele>
        <time>2016-02-28T11:25:33.000Z</time>
      </trkpt>
      <trkpt lat="47.50629" lon="6.77538">
        <ele>313</ele>
        <time>2016-02-28T11:25:34.000Z</time>
      </trkpt>
      <trkpt lat="47.50632" lon="6.77538">
        <ele>313</ele>
        <time>2016-02-28T11:25:35.000Z</time>
      </trkpt>
      <trkpt lat="47.50636" lon="6.77538">
        <ele>313</ele>
        <time>2016-02-28T11:25:36.000Z</time>
      </trkpt>
      <trkpt lat="47.50641" lon="6.77539">
        <ele>313</ele>
        <time>2016-02-28T11:25:37.000Z</time>
      </trkpt>
      <trkpt lat="47.50645" lon="6.77541">
        <ele>313</ele>
        <time>2016-02-28T11:25:38.000Z</time>
      </trkpt>
      <trkpt lat="47.5065" lon="6.77543">
        <ele>313</ele>
        <time>2016-02-28T11:25:39.000Z</time>
      </trkpt>
      <trkpt lat="47.50654" lon="6.77545">
        <ele>313</ele>
        <time>2016-02-28T11:25:40.000Z</time>
      </trkpt>
      <trkpt lat="47.50658" lon="6.77546">
        <ele>313</ele>
        <time>2016-02-28T11:25:41.000Z</time>
      </trkpt>
      <trkpt lat="47.50662" lon="6.77546">
        <ele>313</ele>
        <time>2016-02-28T11:25:42.000Z</time>
      </trkpt>
      <trkpt lat="47.50666" lon="6.77546">
        <ele>313</ele>
        <time>2016-02-28T11:25:43.000Z</time>
      </trkpt>
      <trkpt lat="47.5067" lon="6.77545">
        <ele>313</ele>
        <time>2016-02-28T11:25:44.000Z</time>
      </trkpt>
      <trkpt lat="47.50677" lon="6.77542">
        <ele>313</ele>
        <time>2016-02-28T11:25:45.000Z</time>
      </trkpt>
      <trkpt lat="47.50681" lon="6.77542">
        <ele>313</ele>
        <time>2016-02-28T11:25:46.000Z</time>
      </trkpt>
      <trkpt lat="47.50686" lon="6.77541">
        <ele>313</ele>
        <time>2016-02-28T11:25:47.000Z</time>
      </trkpt>
      <trkpt lat="47.5069" lon="6.77541">
        <ele>313</ele>
        <time>2016-02-28T11:25:48.000Z</time>
      </trkpt>
      <trkpt lat="47.50695" lon="6.77541">
        <ele>313</ele>
        <time>2016-02-28T11:25:49.000Z</time>
      </trkpt>
      <trkpt lat="47.507" lon="6.77542">
        <ele>313</ele>
        <time>2016-02-28T11:25:50.000Z</time>
      </trkpt>
      <trkpt lat="47.50704" lon="6.77543">
        <ele>313</ele>
        <time>2016-02-28T11:25:51.000Z</time>
      </trkpt>
      <trkpt lat="47.50708" lon="6.77545">
        <ele>313</ele>
        <time>2016-02-28T11:25:52.000Z</time>
      </trkpt>
      <trkpt lat="47.50712" lon="6.77547">
        <ele>313</ele>
        <time>2016-02-28T11:25:53.000Z</time>
      </trkpt>
      <trkpt lat="47.50716" lon="6.77549">
        <ele>313</ele>
        <time>2016-02-28T11:25:54.000Z</time>
      </trkpt>
      <trkpt lat="47.5072" lon="6.77551">
        <ele>313</ele>
        <time>2016-02-28T11:25:55.000Z</time>
      </trkpt>
      <trkpt lat="47.50725" lon="6.77552">
        <ele>313</ele>
        <time>2016-02-28T11:25:56.000Z</time>
      </trkpt>
      <trkpt lat="47.50731" lon="6.77555">
        <ele>313</ele>
        <time>2016-02-28T11:25:57.000Z</time>
      </trkpt>
      <trkpt lat="47.50735" lon="6.77557">
        <ele>313</ele>
        <time>2016-02-28T11:25:58.000Z</time>
      </trkpt>
      <trkpt lat="47.50739" lon="6.7756">
        <ele>313</ele>
        <time>2016-02-28T11:25:59.000Z</time>
      </trkpt>
      <trkpt lat="47.50743" lon="6.77563">
        <ele>313</ele>
        <time>2016-02-28T11:26:00.000Z</time>
      </trkpt>
      <trkpt lat="47.50748" lon="6.77566">
        <ele>313</ele>
        <time>2016-02-28T11:26:01.000Z</time>
      </trkpt>
      <trkpt lat="47.50752" lon="6.7757">
        <ele>314</ele>
        <time>2016-02-28T11:26:02.000Z</time>
      </trkpt>
      <trkpt lat="47.50756" lon="6.77572">
        <ele>314</ele>
        <time>2016-02-28T11:26:03.000Z</time>
      </trkpt>
      <trkpt lat="47.50761" lon="6.77576">
        <ele>314</ele>
        <time>2016-02-28T11:26:04.000Z</time>
      </trkpt>
      <trkpt lat="47.50764" lon="6.77579">
        <ele>314</ele>
        <time>2016-02-28T11:26:05.000Z</time>
      </trkpt>
      <trkpt lat="47.50768" lon="6.77582">
        <ele>314</ele>
        <time>2016-02-28T11:26:06.000Z</time>
      </trkpt>
      <trkpt lat="47.50773" lon="6.77584">
        <ele>314</ele>
        <time>2016-02-28T11:26:07.000Z</time>
      </trkpt>
      <trkpt lat="47.50777" lon="6.77587">
        <ele>314</ele>
        <time>2016-02-28T11:26:08.000Z</time>
      </trkpt>
      <trkpt lat="47.50781" lon="6.7759">
        <ele>315</ele>
        <time>2016-02-28T11:26:09.000Z</time>
      </trkpt>
      <trkpt lat="47.50786" lon="6.77594">
        <ele>315</ele>
        <time>2016-02-28T11:26:10.000Z</time>
      </trkpt>
      <trkpt lat="47.5079" lon="6.77598">
        <ele>315</ele>
        <time>2016-02-28T11:26:11.000Z</time>
      </trkpt>
      <trkpt lat="47.50794" lon="6.77601">
        <ele>315</ele>
        <time>2016-02-28T11:26:12.000Z</time>
      </trkpt>
      <trkpt lat="47.50799" lon="6.77605">
        <ele>315</ele>
        <time>2016-02-28T11:26:13.000Z</time>
      </trkpt>
      <trkpt lat="47.50804" lon="6.77608">
        <ele>315</ele>
        <time>2016-02-28T11:26:14.000Z</time>
      </trkpt>
      <trkpt lat="47.50808" lon="6.77611">
        <ele>315</ele>
        <time>2016-02-28T11:26:15.000Z</time>
      </trkpt>
      <trkpt lat="47.50813" lon="6.77615">
        <ele>316</ele>
        <time>2016-02-28T11:26:16.000Z</time>
      </trkpt>
      <trkpt lat="47.50817" lon="6.77617">
        <ele>316</ele>
        <time>2016-02-28T11:26:17.000Z</time>
      </trkpt>
      <trkpt lat="47.5082" lon="6.7762">
        <ele>316</ele>
        <time>2016-02-28T11:26:18.000Z</time>
      </trkpt>
      <trkpt lat="47.50822" lon="6.77623">
        <ele>316</ele>
        <time>2016-02-28T11:26:19.000Z</time>
      </trkpt>
      <trkpt lat="47.50825" lon="6.77626">
        <ele>316</ele>
        <time>2016-02-28T11:26:20.000Z</time>
      </trkpt>
      <trkpt lat="47.50828" lon="6.7763">
        <ele>316</ele>
        <time>2016-02-28T11:26:21.000Z</time>
      </trkpt>
      <trkpt lat="47.50832" lon="6.77633">
        <ele>316</ele>
        <time>2016-02-28T11:26:22.000Z</time>
      </trkpt>
      <trkpt lat="47.50836" lon="6.77638">
        <ele>317</ele>
        <time>2016-02-28T11:26:23.000Z</time>
      </trkpt>
      <trkpt lat="47.5084" lon="6.77642">
        <ele>317</ele>
        <time>2016-02-28T11:26:24.000Z</time>
      </trkpt>
      <trkpt lat="47.50843" lon="6.77644">
        <ele>317</ele>
        <time>2016-02-28T11:26:25.000Z</time>
      </trkpt>
      <trkpt lat="47.50845" lon="6.77649">
        <ele>317</ele>
        <time>2016-02-28T11:26:26.000Z</time>
      </trkpt>
      <trkpt lat="47.50848" lon="6.77652">
        <ele>317</ele>
        <time>2016-02-28T11:26:27.000Z</time>
      </trkpt>
      <trkpt lat="47.5085" lon="6.77656">
        <ele>317</ele>
        <time>2016-02-28T11:26:28.000Z</time>
      </trkpt>
      <trkpt lat="47.50852" lon="6.7766">
        <ele>317</ele>
        <time>2016-02-28T11:26:29.000Z</time>
      </trkpt>
      <trkpt lat="47.50853" lon="6.77663">
        <ele>317</ele>
        <time>2016-02-28T11:26:30.000Z</time>
      </trkpt>
      <trkpt lat="47.50855" lon="6.77666">
        <ele>317</ele>
        <time>2016-02-28T11:26:31.000Z</time>
      </trkpt>
      <trkpt lat="47.50858" lon="6.7767">
        <ele>316</ele>
        <time>2016-02-28T11:26:32.000Z</time>
      </trkpt>
      <trkpt lat="47.50861" lon="6.77674">
        <ele>316</ele>
        <time>2016-02-28T11:26:33.000Z</time>
      </trkpt>
      <trkpt lat="47.50863" lon="6.77678">
        <ele>316</ele>
        <time>2016-02-28T11:26:34.000Z</time>
      </trkpt>
      <trkpt lat="47.50865" lon="6.77682">
        <ele>316</ele>
        <time>2016-02-28T11:26:35.000Z</time>
      </trkpt>
      <trkpt lat="47.50867" lon="6.77686">
        <ele>316</ele>
        <time>2016-02-28T11:26:36.000Z</time>
      </trkpt>
      <trkpt lat="47.5087" lon="6.7769">
        <ele>316</ele>
        <time>2016-02-28T11:26:37.000Z</time>
      </trkpt>
      <trkpt lat="47.50872" lon="6.77695">
        <ele>316</ele>
        <time>2016-02-28T11:26:38.000Z</time>
      </trkpt>
      <trkpt lat="47.50875" lon="6.77699">
        <ele>316</ele>
        <time>2016-02-28T11:26:39.000Z</time>
      </trkpt>
      <trkpt lat="47.50877" lon="6.77703">
        <ele>316</ele>
        <time>2016-02-28T11:26:40.000Z</time>
      </trkpt>
      <trkpt lat="47.5088" lon="6.77707">
        <ele>316</ele>
        <time>2016-02-28T11:26:41.000Z</time>
      </trkpt>
      <trkpt lat="47.50883" lon="6.77709">
        <ele>316</ele>
        <time>2016-02-28T11:26:42.000Z</time>
      </trkpt>
      <trkpt lat="47.50887" lon="6.77709">
        <ele>316</ele>
        <time>2016-02-28T11:26:43.000Z</time>
      </trkpt>
      <trkpt lat="47.50891" lon="6.77709">
        <ele>316</ele>
        <time>2016-02-28T11:26:44.000Z</time>
      </trkpt>
      <trkpt lat="47.50895" lon="6.77709">
        <ele>316</ele>
        <time>2016-02-28T11:26:45.000Z</time>
      </trkpt>
      <trkpt lat="47.509" lon="6.77708">
        <ele>316</ele>
        <time>2016-02-28T11:26:46.000Z</time>
      </trkpt>
      <trkpt lat="47.50904" lon="6.77707">
        <ele>316</ele>
        <time>2016-02-28T11:26:47.000Z</time>
      </trkpt>
      <trkpt lat="47.50908" lon="6.77706">
        <ele>316</ele>
        <time>2016-02-28T11:26:48.000Z</time>
      </trkpt>
      <trkpt lat="47.50913" lon="6.77705">
        <ele>316</ele>
        <time>2016-02-28T11:26:49.000Z</time>
      </trkpt>
      <trkpt lat="47.50918" lon="6.77705">
        <ele>315</ele>
        <time>2016-02-28T11:26:50.000Z</time>
      </trkpt>
      <trkpt lat="47.50922" lon="6.77706">
        <ele>315</ele>
        <time>2016-02-28T11:26:51.000Z</time>
      </trkpt>
      <trkpt lat="47.50925" lon="6.77706">
        <ele>315</ele>
        <time>2016-02-28T11:26:52.000Z</time>
      </trkpt>
      <trkpt lat="47.50929" lon="6.77706">
        <ele>315</ele>
        <time>2016-02-28T11:26:53.000Z</time>
      </trkpt>
      <trkpt lat="47.50932" lon="6.77705">
        <ele>315</ele>
        <time>2016-02-28T11:26:54.000Z</time>
      </trkpt>
      <trkpt lat="47.50935" lon="6.77705">
        <ele>315</ele>
        <time>2016-02-28T11:26:55.000Z</time>
      </trkpt>
      <trkpt lat="47.5094" lon="6.77705">
        <ele>315</ele>
        <time>2016-02-28T11:26:57.000Z</time>
      </trkpt>
      <trkpt lat="47.50941" lon="6.77705">
        <ele>315</ele>
        <time>2016-02-28T11:26:58.000Z</time>
      </trkpt>
      <trkpt lat="47.50945" lon="6.77706">
        <ele>315</ele>
        <time>2016-02-28T11:27:02.000Z</time>
      </trkpt>
      <trkpt lat="47.50947" lon="6.77705">
        <ele>315</ele>
        <time>2016-02-28T11:27:03.000Z</time>
      </trkpt>
      <trkpt lat="47.5095" lon="6.77702">
        <ele>315</ele>
        <time>2016-02-28T11:27:04.000Z</time>
      </trkpt>
      <trkpt lat="47.50954" lon="6.777">
        <ele>315</ele>
        <time>2016-02-28T11:27:05.000Z</time>
      </trkpt>
      <trkpt lat="47.50957" lon="6.77697">
        <ele>315</ele>
        <time>2016-02-28T11:27:06.000Z</time>
      </trkpt>
      <trkpt lat="47.5096" lon="6.77697">
        <ele>315</ele>
        <time>2016-02-28T11:27:07.000Z</time>
      </trkpt>
      <trkpt lat="47.50963" lon="6.77698">
        <ele>315</ele>
        <time>2016-02-28T11:27:08.000Z</time>
      </trkpt>
      <trkpt lat="47.50967" lon="6.77701">
        <ele>315</ele>
        <time>2016-02-28T11:27:09.000Z</time>
      </trkpt>
      <trkpt lat="47.5097" lon="6.77705">
        <ele>315</ele>
        <time>2016-02-28T11:27:10.000Z</time>
      </trkpt>
      <trkpt lat="47.50974" lon="6.77708">
        <ele>315</ele>
        <time>2016-02-28T11:27:11.000Z</time>
      </trkpt>
      <trkpt lat="47.50977" lon="6.77711">
        <ele>315</ele>
        <time>2016-02-28T11:27:12.000Z</time>
      </trkpt>
      <trkpt lat="47.50981" lon="6.77714">
        <ele>315</ele>
        <time>2016-02-28T11:27:13.000Z</time>
      </trkpt>
      <trkpt lat="47.50985" lon="6.77717">
        <ele>315</ele>
        <time>2016-02-28T11:27:14.000Z</time>
      </trkpt>
      <trkpt lat="47.50988" lon="6.77719">
        <ele>315</ele>
        <time>2016-02-28T11:27:15.000Z</time>
      </trkpt>
      <trkpt lat="47.50992" lon="6.77722">
        <ele>315</ele>
        <time>2016-02-28T11:27:16.000Z</time>
      </trkpt>
      <trkpt lat="47.50995" lon="6.77724">
        <ele>315</ele>
        <time>2016-02-28T11:27:17.000Z</time>
      </trkpt>
      <trkpt lat="47.50998" lon="6.77727">
        <ele>315</ele>
        <time>2016-02-28T11:27:18.000Z</time>
      </trkpt>
      <trkpt lat="47.51002" lon="6.7773">
        <ele>316</ele>
        <time>2016-02-28T11:27:19.000Z</time>
      </trkpt>
      <trkpt lat="47.51005" lon="6.77732">
        <ele>316</ele>
        <time>2016-02-28T11:27:20.000Z</time>
      </trkpt>
      <trkpt lat="47.51008" lon="6.77734">
        <ele>316</ele>
        <time>2016-02-28T11:27:21.000Z</time>
      </trkpt>
      <trkpt lat="47.51011" lon="6.77737">
        <ele>316</ele>
        <time>2016-02-28T11:27:22.000Z</time>
      </trkpt>
      <trkpt lat="47.51013" lon="6.77739">
        <ele>317</ele>
        <time>2016-02-28T11:27:23.000Z</time>
      </trkpt>
      <trkpt lat="47.51016" lon="6.77741">
        <ele>317</ele>
        <time>2016-02-28T11:27:24.000Z</time>
      </trkpt>
      <trkpt lat="47.5102" lon="6.77744">
        <ele>317</ele>
        <time>2016-02-28T11:27:25.000Z</time>
      </trkpt>
      <trkpt lat="47.51023" lon="6.77746">
        <ele>317</ele>
        <time>2016-02-28T11:27:26.000Z</time>
      </trkpt>
      <trkpt lat="47.51027" lon="6.77748">
        <ele>317</ele>
        <time>2016-02-28T11:27:27.000Z</time>
      </trkpt>
      <trkpt lat="47.5103" lon="6.7775">
        <ele>317</ele>
        <time>2016-02-28T11:27:28.000Z</time>
      </trkpt>
      <trkpt lat="47.51033" lon="6.77752">
        <ele>318</ele>
        <time>2016-02-28T11:27:29.000Z</time>
      </trkpt>
      <trkpt lat="47.51036" lon="6.77754">
        <ele>318</ele>
        <time>2016-02-28T11:27:30.000Z</time>
      </trkpt>
      <trkpt lat="47.51039" lon="6.77756">
        <ele>318</ele>
        <time>2016-02-28T11:27:31.000Z</time>
      </trkpt>
      <trkpt lat="47.51042" lon="6.77758">
        <ele>318</ele>
        <time>2016-02-28T11:27:32.000Z</time>
      </trkpt>
      <trkpt lat="47.51045" lon="6.7776">
        <ele>318</ele>
        <time>2016-02-28T11:27:33.000Z</time>
      </trkpt>
      <trkpt lat="47.51047" lon="6.77762">
        <ele>318</ele>
        <time>2016-02-28T11:27:34.000Z</time>
      </trkpt>
      <trkpt lat="47.51049" lon="6.77764">
        <ele>318</ele>
        <time>2016-02-28T11:27:35.000Z</time>
      </trkpt>
      <trkpt lat="47.51052" lon="6.77767">
        <ele>318</ele>
        <time>2016-02-28T11:27:38.000Z</time>
      </trkpt>
      <trkpt lat="47.51053" lon="6.77769">
        <ele>318</ele>
        <time>2016-02-28T11:27:39.000Z</time>
      </trkpt>
      <trkpt lat="47.51056" lon="6.77771">
        <ele>318</ele>
        <time>2016-02-28T11:27:40.000Z</time>
      </trkpt>
      <trkpt lat="47.51058" lon="6.77772">
        <ele>318</ele>
        <time>2016-02-28T11:27:41.000Z</time>
      </trkpt>
      <trkpt lat="47.51061" lon="6.77774">
        <ele>318</ele>
        <time>2016-02-28T11:27:42.000Z</time>
      </trkpt>
      <trkpt lat="47.51064" lon="6.77775">
        <ele>318</ele>
        <time>2016-02-28T11:27:43.000Z</time>
      </trkpt>
      <trkpt lat="47.51068" lon="6.77776">
        <ele>319</ele>
        <time>2016-02-28T11:27:44.000Z</time>
      </trkpt>
      <trkpt lat="47.51071" lon="6.77777">
        <ele>319</ele>
        <time>2016-02-28T11:27:45.000Z</time>
      </trkpt>
      <trkpt lat="47.51074" lon="6.77777">
        <ele>319</ele>
        <time>2016-02-28T11:27:46.000Z</time>
      </trkpt>
      <trkpt lat="47.51076" lon="6.77778">
        <ele>319</ele>
        <time>2016-02-28T11:27:47.000Z</time>
      </trkpt>
      <trkpt lat="47.51079" lon="6.77778">
        <ele>319</ele>
        <time>2016-02-28T11:27:48.000Z</time>
      </trkpt>
      <trkpt lat="47.51081" lon="6.77778">
        <ele>319</ele>
        <time>2016-02-28T11:27:49.000Z</time>
      </trkpt>
      <trkpt lat="47.51083" lon="6.77778">
        <ele>319</ele>
        <time>2016-02-28T11:27:50.000Z</time>
      </trkpt>
      <trkpt lat="47.51086" lon="6.77778">
        <ele>321</ele>
        <time>2016-02-28T11:27:51.000Z</time>
      </trkpt>
      <trkpt lat="47.51088" lon="6.77778">
        <ele>321</ele>
        <time>2016-02-28T11:27:52.000Z</time>
      </trkpt>
      <trkpt lat="47.51091" lon="6.77779">
        <ele>321</ele>
        <time>2016-02-28T11:27:53.000Z</time>
      </trkpt>
      <trkpt lat="47.51094" lon="6.7778">
        <ele>321</ele>
        <time>2016-02-28T11:27:54.000Z</time>
      </trkpt>
      <trkpt lat="47.51097" lon="6.77781">
        <ele>322</ele>
        <time>2016-02-28T11:27:55.000Z</time>
      </trkpt>
      <trkpt lat="47.511" lon="6.77783">
        <ele>322</ele>
        <time>2016-02-28T11:27:56.000Z</time>
      </trkpt>
      <trkpt lat="47.51103" lon="6.77784">
        <ele>322</ele>
        <time>2016-02-28T11:27:57.000Z</time>
      </trkpt>
      <trkpt lat="47.51106" lon="6.77784">
        <ele>322</ele>
        <time>2016-02-28T11:27:58.000Z</time>
      </trkpt>
      <trkpt lat="47.51109" lon="6.77785">
        <ele>322</ele>
        <time>2016-02-28T11:27:59.000Z</time>
      </trkpt>
      <trkpt lat="47.51112" lon="6.77786">
        <ele>322</ele>
        <time>2016-02-28T11:28:00.000Z</time>
      </trkpt>
      <trkpt lat="47.51114" lon="6.77787">
        <ele>322</ele>
        <time>2016-02-28T11:28:01.000Z</time>
      </trkpt>
      <trkpt lat="47.51117" lon="6.77787">
        <ele>322</ele>
        <time>2016-02-28T11:28:02.000Z</time>
      </trkpt>
      <trkpt lat="47.5112" lon="6.77788">
        <ele>322</ele>
        <time>2016-02-28T11:28:03.000Z</time>
      </trkpt>
      <trkpt lat="47.51123" lon="6.77788">
        <ele>322</ele>
        <time>2016-02-28T11:28:04.000Z</time>
      </trkpt>
      <trkpt lat="47.51127" lon="6.77788">
        <ele>322</ele>
        <time>2016-02-28T11:28:05.000Z</time>
      </trkpt>
      <trkpt lat="47.5113" lon="6.77788">
        <ele>322</ele>
        <time>2016-02-28T11:28:06.000Z</time>
      </trkpt>
      <trkpt lat="47.51133" lon="6.77788">
        <ele>322</ele>
        <time>2016-02-28T11:28:07.000Z</time>
      </trkpt>
      <trkpt lat="47.51135" lon="6.77788">
        <ele>323</ele>
        <time>2016-02-28T11:28:08.000Z</time>
      </trkpt>
      <trkpt lat="47.51137" lon="6.77788">
        <ele>323</ele>
        <time>2016-02-28T11:28:09.000Z</time>
      </trkpt>
      <trkpt lat="47.51141" lon="6.77789">
        <ele>323</ele>
        <time>2016-02-28T11:28:11.000Z</time>
      </trkpt>
      <trkpt lat="47.51143" lon="6.77789">
        <ele>323</ele>
        <time>2016-02-28T11:28:12.000Z</time>
      </trkpt>
      <trkpt lat="47.51147" lon="6.77789">
        <ele>323</ele>
        <time>2016-02-28T11:28:14.000Z</time>
      </trkpt>
      <trkpt lat="47.51149" lon="6.7779">
        <ele>323</ele>
        <time>2016-02-28T11:28:15.000Z</time>
      </trkpt>
      <trkpt lat="47.51152" lon="6.77791">
        <ele>323</ele>
        <time>2016-02-28T11:28:16.000Z</time>
      </trkpt>
      <trkpt lat="47.51154" lon="6.77792">
        <ele>323</ele>
        <time>2016-02-28T11:28:17.000Z</time>
      </trkpt>
      <trkpt lat="47.51156" lon="6.77793">
        <ele>323</ele>
        <time>2016-02-28T11:28:18.000Z</time>
      </trkpt>
      <trkpt lat="47.51159" lon="6.77793">
        <ele>323</ele>
        <time>2016-02-28T11:28:19.000Z</time>
      </trkpt>
      <trkpt lat="47.51161" lon="6.77794">
        <ele>323</ele>
        <time>2016-02-28T11:28:20.000Z</time>
      </trkpt>
      <trkpt lat="47.51163" lon="6.77794">
        <ele>323</ele>
        <time>2016-02-28T11:28:21.000Z</time>
      </trkpt>
      <trkpt lat="47.51166" lon="6.77794">
        <ele>323</ele>
        <time>2016-02-28T11:28:22.000Z</time>
      </trkpt>
      <trkpt lat="47.51168" lon="6.77794">
        <ele>326</ele>
        <time>2016-02-28T11:28:23.000Z</time>
      </trkpt>
      <trkpt lat="47.51171" lon="6.77794">
        <ele>326</ele>
        <time>2016-02-28T11:28:24.000Z</time>
      </trkpt>
      <trkpt lat="47.51173" lon="6.77793">
        <ele>326</ele>
        <time>2016-02-28T11:28:25.000Z</time>
      </trkpt>
      <trkpt lat="47.51175" lon="6.77793">
        <ele>326</ele>
        <time>2016-02-28T11:28:26.000Z</time>
      </trkpt>
      <trkpt lat="47.51178" lon="6.77793">
        <ele>326</ele>
        <time>2016-02-28T11:28:27.000Z</time>
      </trkpt>
      <trkpt lat="47.5118" lon="6.77792">
        <ele>326</ele>
        <time>2016-02-28T11:28:28.000Z</time>
      </trkpt>
      <trkpt lat="47.51182" lon="6.77792">
        <ele>326</ele>
        <time>2016-02-28T11:28:29.000Z</time>
      </trkpt>
      <trkpt lat="47.51187" lon="6.77792">
        <ele>326</ele>
        <time>2016-02-28T11:28:31.000Z</time>
      </trkpt>
      <trkpt lat="47.51188" lon="6.77791">
        <ele>326</ele>
        <time>2016-02-28T11:28:32.000Z</time>
      </trkpt>
      <trkpt lat="47.51192" lon="6.7779">
        <ele>327</ele>
        <time>2016-02-28T11:28:38.000Z</time>
      </trkpt>
      <trkpt lat="47.51193" lon="6.7779">
        <ele>327</ele>
        <time>2016-02-28T11:28:39.000Z</time>
      </trkpt>
      <trkpt lat="47.51197" lon="6.7779">
        <ele>327</ele>
        <time>2016-02-28T11:28:41.000Z</time>
      </trkpt>
      <trkpt lat="47.51199" lon="6.7779">
        <ele>327</ele>
        <time>2016-02-28T11:28:42.000Z</time>
      </trkpt>
      <trkpt lat="47.51201" lon="6.7779">
        <ele>327</ele>
        <time>2016-02-28T11:28:43.000Z</time>
      </trkpt>
      <trkpt lat="47.51203" lon="6.7779">
        <ele>327</ele>
        <time>2016-02-28T11:28:44.000Z</time>
      </trkpt>
      <trkpt lat="47.51207" lon="6.77792">
        <ele>327</ele>
        <time>2016-02-28T11:28:46.000Z</time>
      </trkpt>
      <trkpt lat="47.51209" lon="6.77793">
        <ele>327</ele>
        <time>2016-02-28T11:28:47.000Z</time>
      </trkpt>
      <trkpt lat="47.51213" lon="6.77793">
        <ele>327</ele>
        <time>2016-02-28T11:28:49.000Z</time>
      </trkpt>
      <trkpt lat="47.51215" lon="6.77793">
        <ele>327</ele>
        <time>2016-02-28T11:28:50.000Z</time>
      </trkpt>
      <trkpt lat="47.51219" lon="6.77793">
        <ele>327</ele>
        <time>2016-02-28T11:28:52.000Z</time>
      </trkpt>
      <trkpt lat="47.5122" lon="6.77793">
        <ele>327</ele>
        <time>2016-02-28T11:28:53.000Z</time>
      </trkpt>
      <trkpt lat="47.51223" lon="6.77793">
        <ele>327</ele>
        <time>2016-02-28T11:28:55.000Z</time>
      </trkpt>
      <trkpt lat="47.51225" lon="6.77792">
        <ele>327</ele>
        <time>2016-02-28T11:28:56.000Z</time>
      </trkpt>
      <trkpt lat="47.51228" lon="6.77791">
        <ele>328</ele>
        <time>2016-02-28T11:28:58.000Z</time>
      </trkpt>
      <trkpt lat="47.5123" lon="6.77791">
        <ele>328</ele>
        <time>2016-02-28T11:28:59.000Z</time>
      </trkpt>
      <trkpt lat="47.51233" lon="6.7779">
        <ele>328</ele>
        <time>2016-02-28T11:29:01.000Z</time>
      </trkpt>
      <trkpt lat="47.51235" lon="6.7779">
        <ele>328</ele>
        <time>2016-02-28T11:29:02.000Z</time>
      </trkpt>
      <trkpt lat="47.51238" lon="6.7779">
        <ele>328</ele>
        <time>2016-02-28T11:29:04.000Z</time>
      </trkpt>
      <trkpt lat="47.51239" lon="6.7779">
        <ele>328</ele>
        <time>2016-02-28T11:29:05.000Z</time>
      </trkpt>
      <trkpt lat="47.51244" lon="6.77789">
        <ele>328</ele>
        <time>2016-02-28T11:29:08.000Z</time>
      </trkpt>
      <trkpt lat="47.51245" lon="6.77789">
        <ele>328</ele>
        <time>2016-02-28T11:29:09.000Z</time>
      </trkpt>
      <trkpt lat="47.51249" lon="6.77789">
        <ele>328</ele>
        <time>2016-02-28T11:29:12.000Z</time>
      </trkpt>
      <trkpt lat="47.51251" lon="6.77789">
        <ele>334</ele>
        <time>2016-02-28T11:29:13.000Z</time>
      </trkpt>
      <trkpt lat="47.51255" lon="6.77787">
        <ele>334</ele>
        <time>2016-02-28T11:29:16.000Z</time>
      </trkpt>
      <trkpt lat="47.51256" lon="6.77786">
        <ele>334</ele>
        <time>2016-02-28T11:29:17.000Z</time>
      </trkpt>
      <trkpt lat="47.5126" lon="6.77784">
        <ele>334</ele>
        <time>2016-02-28T11:29:20.000Z</time>
      </trkpt>
      <trkpt lat="47.51261" lon="6.77784">
        <ele>334</ele>
        <time>2016-02-28T11:29:21.000Z</time>
      </trkpt>
      <trkpt lat="47.51265" lon="6.77783">
        <ele>334</ele>
        <time>2016-02-28T11:29:23.000Z</time>
      </trkpt>
      <trkpt lat="47.51266" lon="6.77783">
        <ele>334</ele>
        <time>2016-02-28T11:29:24.000Z</time>
      </trkpt>
      <trkpt lat="47.5127" lon="6.77783">
        <ele>335</ele>
        <time>2016-02-28T11:29:27.000Z</time>
      </trkpt>
      <trkpt lat="47.51271" lon="6.77784">
        <ele>335</ele>
        <time>2016-02-28T11:29:28.000Z</time>
      </trkpt>
      <trkpt lat="47.51275" lon="6.77783">
        <ele>335</ele>
        <time>2016-02-28T11:29:31.000Z</time>
      </trkpt>
      <trkpt lat="47.51276" lon="6.77783">
        <ele>335</ele>
        <time>2016-02-28T11:29:32.000Z</time>
      </trkpt>
      <trkpt lat="47.51279" lon="6.77782">
        <ele>335</ele>
        <time>2016-02-28T11:29:34.000Z</time>
      </trkpt>
      <trkpt lat="47.51281" lon="6.77782">
        <ele>335</ele>
        <time>2016-02-28T11:29:35.000Z</time>
      </trkpt>
      <trkpt lat="47.51284" lon="6.77782">
        <ele>336</ele>
        <time>2016-02-28T11:29:37.000Z</time>
      </trkpt>
      <trkpt lat="47.51286" lon="6.77782">
        <ele>336</ele>
        <time>2016-02-28T11:29:38.000Z</time>
      </trkpt>
      <trkpt lat="47.5129" lon="6.77782">
        <ele>336</ele>
        <time>2016-02-28T11:29:40.000Z</time>
      </trkpt>
      <trkpt lat="47.51291" lon="6.77782">
        <ele>336</ele>
        <time>2016-02-28T11:29:41.000Z</time>
      </trkpt>
      <trkpt lat="47.51295" lon="6.77782">
        <ele>336</ele>
        <time>2016-02-28T11:29:43.000Z</time>
      </trkpt>
      <trkpt lat="47.51297" lon="6.77782">
        <ele>337</ele>
        <time>2016-02-28T11:29:44.000Z</time>
      </trkpt>
      <trkpt lat="47.513" lon="6.77781">
        <ele>337</ele>
        <time>2016-02-28T11:29:46.000Z</time>
      </trkpt>
      <trkpt lat="47.51302" lon="6.77781">
        <ele>337</ele>
        <time>2016-02-28T11:29:47.000Z</time>
      </trkpt>
      <trkpt lat="47.51305" lon="6.77779">
        <ele>337</ele>
        <time>2016-02-28T11:29:49.000Z</time>
      </trkpt>
      <trkpt lat="47.51307" lon="6.77779">
        <ele>338</ele>
        <time>2016-02-28T11:29:50.000Z</time>
      </trkpt>
      <trkpt lat="47.51311" lon="6.77778">
        <ele>338</ele>
        <time>2016-02-28T11:29:52.000Z</time>
      </trkpt>
      <trkpt lat="47.51313" lon="6.77777">
        <ele>338</ele>
        <time>2016-02-28T11:29:53.000Z</time>
      </trkpt>
      <trkpt lat="47.51316" lon="6.77777">
        <ele>338</ele>
        <time>2016-02-28T11:29:55.000Z</time>
      </trkpt>
      <trkpt lat="47.51318" lon="6.77777">
        <ele>338</ele>
        <time>2016-02-28T11:29:56.000Z</time>
      </trkpt>
      <trkpt lat="47.51321" lon="6.77775">
        <ele>339</ele>
        <time>2016-02-28T11:29:58.000Z</time>
      </trkpt>
      <trkpt lat="47.51323" lon="6.77775">
        <ele>339</ele>
        <time>2016-02-28T11:29:59.000Z</time>
      </trkpt>
      <trkpt lat="47.51326" lon="6.77775">
        <ele>339</ele>
        <time>2016-02-28T11:30:02.000Z</time>
      </trkpt>
      <trkpt lat="47.51327" lon="6.77776">
        <ele>339</ele>
        <time>2016-02-28T11:30:03.000Z</time>
      </trkpt>
      <trkpt lat="47.5133" lon="6.77776">
        <ele>339</ele>
        <time>2016-02-28T11:30:05.000Z</time>
      </trkpt>
      <trkpt lat="47.51332" lon="6.77777">
        <ele>339</ele>
        <time>2016-02-28T11:30:06.000Z</time>
      </trkpt>
      <trkpt lat="47.51336" lon="6.77776">
        <ele>348</ele>
        <time>2016-02-28T11:30:08.000Z</time>
      </trkpt>
      <trkpt lat="47.51338" lon="6.77776">
        <ele>348</ele>
        <time>2016-02-28T11:30:09.000Z</time>
      </trkpt>
      <trkpt lat="47.51342" lon="6.77776">
        <ele>348</ele>
        <time>2016-02-28T11:30:11.000Z</time>
      </trkpt>
      <trkpt lat="47.51344" lon="6.77776">
        <ele>348</ele>
        <time>2016-02-28T11:30:12.000Z</time>
      </trkpt>
      <trkpt lat="47.51347" lon="6.77775">
        <ele>348</ele>
        <time>2016-02-28T11:30:15.000Z</time>
      </trkpt>
      <trkpt lat="47.51349" lon="6.77774">
        <ele>348</ele>
        <time>2016-02-28T11:30:16.000Z</time>
      </trkpt>
      <trkpt lat="47.51353" lon="6.77772">
        <ele>349</ele>
        <time>2016-02-28T11:30:19.000Z</time>
      </trkpt>
      <trkpt lat="47.51354" lon="6.77771">
        <ele>349</ele>
        <time>2016-02-28T11:30:20.000Z</time>
      </trkpt>
      <trkpt lat="47.51358" lon="6.77768">
        <ele>349</ele>
        <time>2016-02-28T11:30:23.000Z</time>
      </trkpt>
      <trkpt lat="47.51359" lon="6.77767">
        <ele>349</ele>
        <time>2016-02-28T11:30:24.000Z</time>
      </trkpt>
      <trkpt lat="47.51362" lon="6.77766">
        <ele>349</ele>
        <time>2016-02-28T11:30:26.000Z</time>
      </trkpt>
      <trkpt lat="47.51363" lon="6.77765">
        <ele>350</ele>
        <time>2016-02-28T11:30:27.000Z</time>
      </trkpt>
      <trkpt lat="47.51366" lon="6.77764">
        <ele>350</ele>
        <time>2016-02-28T11:30:29.000Z</time>
      </trkpt>
      <trkpt lat="47.51368" lon="6.77763">
        <ele>350</ele>
        <time>2016-02-28T11:30:30.000Z</time>
      </trkpt>
      <trkpt lat="47.51372" lon="6.77761">
        <ele>351</ele>
        <time>2016-02-28T11:30:33.000Z</time>
      </trkpt>
      <trkpt lat="47.51374" lon="6.77761">
        <ele>351</ele>
        <time>2016-02-28T11:30:34.000Z</time>
      </trkpt>
      <trkpt lat="47.51376" lon="6.77759">
        <ele>351</ele>
        <time>2016-02-28T11:30:36.000Z</time>
      </trkpt>
      <trkpt lat="47.51378" lon="6.77758">
        <ele>351</ele>
        <time>2016-02-28T11:30:37.000Z</time>
      </trkpt>
      <trkpt lat="47.51381" lon="6.77755">
        <ele>351</ele>
        <time>2016-02-28T11:30:39.000Z</time>
      </trkpt>
      <trkpt lat="47.51382" lon="6.77754">
        <ele>352</ele>
        <time>2016-02-28T11:30:40.000Z</time>
      </trkpt>
      <trkpt lat="47.51385" lon="6.77752">
        <ele>352</ele>
        <time>2016-02-28T11:30:42.000Z</time>
      </trkpt>
      <trkpt lat="47.51387" lon="6.77752">
        <ele>352</ele>
        <time>2016-02-28T11:30:43.000Z</time>
      </trkpt>
      <trkpt lat="47.5139" lon="6.77749">
        <ele>355</ele>
        <time>2016-02-28T11:30:45.000Z</time>
      </trkpt>
      <trkpt lat="47.51391" lon="6.77748">
        <ele>355</ele>
        <time>2016-02-28T11:30:46.000Z</time>
      </trkpt>
      <trkpt lat="47.51395" lon="6.77747">
        <ele>355</ele>
        <time>2016-02-28T11:30:49.000Z</time>
      </trkpt>
      <trkpt lat="47.51396" lon="6.77746">
        <ele>355</ele>
        <time>2016-02-28T11:30:50.000Z</time>
      </trkpt>
      <trkpt lat="47.514" lon="6.77747">
        <ele>356</ele>
        <time>2016-02-28T11:30:53.000Z</time>
      </trkpt>
      <trkpt lat="47.51401" lon="6.77748">
        <ele>356</ele>
        <time>2016-02-28T11:30:54.000Z</time>
      </trkpt>
      <trkpt lat="47.51405" lon="6.77746">
        <ele>356</ele>
        <time>2016-02-28T11:30:58.000Z</time>
      </trkpt>
      <trkpt lat="47.51406" lon="6.77745">
        <ele>356</ele>
        <time>2016-02-28T11:30:59.000Z</time>
      </trkpt>
      <trkpt lat="47.51408" lon="6.77742">
        <ele>356</ele>
        <time>2016-02-28T11:31:00.000Z</time>
      </trkpt>
      <trkpt lat="47.5141" lon="6.77739">
        <ele>356</ele>
        <time>2016-02-28T11:31:01.000Z</time>
      </trkpt>
      <trkpt lat="47.51413" lon="6.77735">
        <ele>356</ele>
        <time>2016-02-28T11:31:03.000Z</time>
      </trkpt>
      <trkpt lat="47.51415" lon="6.77735">
        <ele>356</ele>
        <time>2016-02-28T11:31:04.000Z</time>
      </trkpt>
      <trkpt lat="47.51419" lon="6.77737">
        <ele>360</ele>
        <time>2016-02-28T11:31:07.000Z</time>
      </trkpt>
      <trkpt lat="47.5142" lon="6.77737">
        <ele>360</ele>
        <time>2016-02-28T11:31:08.000Z</time>
      </trkpt>
      <trkpt lat="47.51424" lon="6.77739">
        <ele>361</ele>
        <time>2016-02-28T11:31:11.000Z</time>
      </trkpt>
      <trkpt lat="47.51425" lon="6.77739">
        <ele>360</ele>
        <time>2016-02-28T11:31:12.000Z</time>
      </trkpt>
      <trkpt lat="47.51429" lon="6.77741">
        <ele>361</ele>
        <time>2016-02-28T11:31:16.000Z</time>
      </trkpt>
      <trkpt lat="47.5143" lon="6.7774">
        <ele>361</ele>
        <time>2016-02-28T11:31:17.000Z</time>
      </trkpt>
      <trkpt lat="47.51434" lon="6.77738">
        <ele>362</ele>
        <time>2016-02-28T11:31:20.000Z</time>
      </trkpt>
      <trkpt lat="47.51436" lon="6.77738">
        <ele>362</ele>
        <time>2016-02-28T11:31:21.000Z</time>
      </trkpt>
      <trkpt lat="47.5144" lon="6.77739">
        <ele>363</ele>
        <time>2016-02-28T11:31:24.000Z</time>
      </trkpt>
      <trkpt lat="47.51441" lon="6.7774">
        <ele>363</ele>
        <time>2016-02-28T11:31:25.000Z</time>
      </trkpt>
      <trkpt lat="47.51445" lon="6.77742">
        <ele>363</ele>
        <time>2016-02-28T11:31:29.000Z</time>
      </trkpt>
      <trkpt lat="47.51446" lon="6.77742">
        <ele>363</ele>
        <time>2016-02-28T11:31:30.000Z</time>
      </trkpt>
      <trkpt lat="47.5145" lon="6.77743">
        <ele>364</ele>
        <time>2016-02-28T11:31:33.000Z</time>
      </trkpt>
      <trkpt lat="47.51451" lon="6.77743">
        <ele>364</ele>
        <time>2016-02-28T11:31:34.000Z</time>
      </trkpt>
      <trkpt lat="47.51455" lon="6.77742">
        <ele>364</ele>
        <time>2016-02-28T11:31:37.000Z</time>
      </trkpt>
      <trkpt lat="47.51457" lon="6.77742">
        <ele>364</ele>
        <time>2016-02-28T11:31:38.000Z</time>
      </trkpt>
      <trkpt lat="47.51461" lon="6.77742">
        <ele>365</ele>
        <time>2016-02-28T11:31:41.000Z</time>
      </trkpt>
      <trkpt lat="47.51463" lon="6.77742">
        <ele>365</ele>
        <time>2016-02-28T11:31:42.000Z</time>
      </trkpt>
      <trkpt lat="47.51467" lon="6.77741">
        <ele>365</ele>
        <time>2016-02-28T11:31:45.000Z</time>
      </trkpt>
      <trkpt lat="47.51468" lon="6.77741">
        <ele>365</ele>
        <time>2016-02-28T11:31:46.000Z</time>
      </trkpt>
      <trkpt lat="47.51472" lon="6.77739">
        <ele>365</ele>
        <time>2016-02-28T11:31:49.000Z</time>
      </trkpt>
      <trkpt lat="47.51472" lon="6.77738">
        <ele>365</ele>
        <time>2016-02-28T11:31:50.000Z</time>
      </trkpt>
      <trkpt lat="47.51476" lon="6.77736">
        <ele>366</ele>
        <time>2016-02-28T11:31:53.000Z</time>
      </trkpt>
      <trkpt lat="47.51478" lon="6.77735">
        <ele>366</ele>
        <time>2016-02-28T11:31:54.000Z</time>
      </trkpt>
      <trkpt lat="47.51481" lon="6.77735">
        <ele>366</ele>
        <time>2016-02-28T11:31:56.000Z</time>
      </trkpt>
      <trkpt lat="47.51482" lon="6.77735">
        <ele>366</ele>
        <time>2016-02-28T11:31:57.000Z</time>
      </trkpt>
      <trkpt lat="47.51487" lon="6.77735">
        <ele>366</ele>
        <time>2016-02-28T11:32:00.000Z</time>
      </trkpt>
      <trkpt lat="47.51488" lon="6.77735">
        <ele>366</ele>
        <time>2016-02-28T11:32:01.000Z</time>
      </trkpt>
      <trkpt lat="47.51492" lon="6.77735">
        <ele>366</ele>
        <time>2016-02-28T11:32:04.000Z</time>
      </trkpt>
      <trkpt lat="47.51494" lon="6.77734">
        <ele>366</ele>
        <time>2016-02-28T11:32:05.000Z</time>
      </trkpt>
      <trkpt lat="47.51497" lon="6.77733">
        <ele>366</ele>
        <time>2016-02-28T11:32:07.000Z</time>
      </trkpt>
      <trkpt lat="47.51498" lon="6.77733">
        <ele>366</ele>
        <time>2016-02-28T11:32:08.000Z</time>
      </trkpt>
      <trkpt lat="47.51502" lon="6.77731">
        <ele>370</ele>
        <time>2016-02-28T11:32:11.000Z</time>
      </trkpt>
      <trkpt lat="47.51504" lon="6.77731">
        <ele>370</ele>
        <time>2016-02-28T11:32:12.000Z</time>
      </trkpt>
      <trkpt lat="47.51508" lon="6.77732">
        <ele>370</ele>
        <time>2016-02-28T11:32:15.000Z</time>
      </trkpt>
      <trkpt lat="47.51509" lon="6.77732">
        <ele>370</ele>
        <time>2016-02-28T11:32:16.000Z</time>
      </trkpt>
      <trkpt lat="47.51512" lon="6.77737">
        <ele>369</ele>
        <time>2016-02-28T11:32:19.000Z</time>
      </trkpt>
      <trkpt lat="47.51513" lon="6.77738">
        <ele>370</ele>
        <time>2016-02-28T11:32:20.000Z</time>
      </trkpt>
      <trkpt lat="47.51517" lon="6.77737">
        <ele>370</ele>
        <time>2016-02-28T11:32:23.000Z</time>
      </trkpt>
      <trkpt lat="47.51519" lon="6.77736">
        <ele>370</ele>
        <time>2016-02-28T11:32:24.000Z</time>
      </trkpt>
      <trkpt lat="47.51523" lon="6.77733">
        <ele>371</ele>
        <time>2016-02-28T11:32:30.000Z</time>
      </trkpt>
      <trkpt lat="47.51524" lon="6.77733">
        <ele>371</ele>
        <time>2016-02-28T11:32:31.000Z</time>
      </trkpt>
      <trkpt lat="47.51527" lon="6.77733">
        <ele>372</ele>
        <time>2016-02-28T11:32:33.000Z</time>
      </trkpt>
      <trkpt lat="47.51529" lon="6.77733">
        <ele>372</ele>
        <time>2016-02-28T11:32:34.000Z</time>
      </trkpt>
      <trkpt lat="47.51533" lon="6.77734">
        <ele>372</ele>
        <time>2016-02-28T11:32:37.000Z</time>
      </trkpt>
      <trkpt lat="47.51534" lon="6.77735">
        <ele>372</ele>
        <time>2016-02-28T11:32:38.000Z</time>
      </trkpt>
      <trkpt lat="47.51538" lon="6.77736">
        <ele>372</ele>
        <time>2016-02-28T11:32:41.000Z</time>
      </trkpt>
      <trkpt lat="47.5154" lon="6.77736">
        <ele>373</ele>
        <time>2016-02-28T11:32:42.000Z</time>
      </trkpt>
      <trkpt lat="47.51544" lon="6.77735">
        <ele>373</ele>
        <time>2016-02-28T11:32:45.000Z</time>
      </trkpt>
      <trkpt lat="47.51545" lon="6.77735">
        <ele>373</ele>
        <time>2016-02-28T11:32:46.000Z</time>
      </trkpt>
      <trkpt lat="47.51548" lon="6.77737">
        <ele>373</ele>
        <time>2016-02-28T11:32:49.000Z</time>
      </trkpt>
      <trkpt lat="47.5155" lon="6.77737">
        <ele>373</ele>
        <time>2016-02-28T11:32:50.000Z</time>
      </trkpt>
      <trkpt lat="47.51553" lon="6.77737">
        <ele>374</ele>
        <time>2016-02-28T11:32:53.000Z</time>
      </trkpt>
      <trkpt lat="47.51554" lon="6.77737">
        <ele>374</ele>
        <time>2016-02-28T11:32:54.000Z</time>
      </trkpt>
      <trkpt lat="47.51559" lon="6.77737">
        <ele>374</ele>
        <time>2016-02-28T11:32:57.000Z</time>
      </trkpt>
      <trkpt lat="47.5156" lon="6.77737">
        <ele>374</ele>
        <time>2016-02-28T11:32:58.000Z</time>
      </trkpt>
      <trkpt lat="47.51563" lon="6.77737">
        <ele>374</ele>
        <time>2016-02-28T11:33:00.000Z</time>
      </trkpt>
      <trkpt lat="47.51565" lon="6.77738">
        <ele>374</ele>
        <time>2016-02-28T11:33:01.000Z</time>
      </trkpt>
      <trkpt lat="47.51569" lon="6.77737">
        <ele>375</ele>
        <time>2016-02-28T11:33:04.000Z</time>
      </trkpt>
      <trkpt lat="47.51571" lon="6.77738">
        <ele>375</ele>
        <time>2016-02-28T11:33:05.000Z</time>
      </trkpt>
      <trkpt lat="47.51574" lon="6.77739">
        <ele>375</ele>
        <time>2016-02-28T11:33:08.000Z</time>
      </trkpt>
      <trkpt lat="47.51576" lon="6.77739">
        <ele>375</ele>
        <time>2016-02-28T11:33:09.000Z</time>
      </trkpt>
      <trkpt lat="47.51579" lon="6.77741">
        <ele>375</ele>
        <time>2016-02-28T11:33:12.000Z</time>
      </trkpt>
      <trkpt lat="47.5158" lon="6.77741">
        <ele>375</ele>
        <time>2016-02-28T11:33:13.000Z</time>
      </trkpt>
      <trkpt lat="47.51583" lon="6.77745">
        <ele>376</ele>
        <time>2016-02-28T11:33:16.000Z</time>
      </trkpt>
      <trkpt lat="47.51584" lon="6.77746">
        <ele>377</ele>
        <time>2016-02-28T11:33:17.000Z</time>
      </trkpt>
      <trkpt lat="47.51586" lon="6.77751">
        <ele>377</ele>
        <time>2016-02-28T11:33:20.000Z</time>
      </trkpt>
      <trkpt lat="47.51586" lon="6.77753">
        <ele>377</ele>
        <time>2016-02-28T11:33:21.000Z</time>
      </trkpt>
      <trkpt lat="47.51589" lon="6.77757">
        <ele>378</ele>
        <time>2016-02-28T11:33:24.000Z</time>
      </trkpt>
      <trkpt lat="47.5159" lon="6.77758">
        <ele>378</ele>
        <time>2016-02-28T11:33:25.000Z</time>
      </trkpt>
      <trkpt lat="47.51594" lon="6.77758">
        <ele>379</ele>
        <time>2016-02-28T11:33:28.000Z</time>
      </trkpt>
      <trkpt lat="47.51595" lon="6.77757">
        <ele>379</ele>
        <time>2016-02-28T11:33:29.000Z</time>
      </trkpt>
      <trkpt lat="47.51598" lon="6.77754">
        <ele>379</ele>
        <time>2016-02-28T11:33:32.000Z</time>
      </trkpt>
      <trkpt lat="47.516" lon="6.77754">
        <ele>379</ele>
        <time>2016-02-28T11:33:33.000Z</time>
      </trkpt>
      <trkpt lat="47.51603" lon="6.77756">
        <ele>380</ele>
        <time>2016-02-28T11:33:35.000Z</time>
      </trkpt>
      <trkpt lat="47.51604" lon="6.77756">
        <ele>380</ele>
        <time>2016-02-28T11:33:36.000Z</time>
      </trkpt>
      <trkpt lat="47.51607" lon="6.77757">
        <ele>380</ele>
        <time>2016-02-28T11:33:38.000Z</time>
      </trkpt>
      <trkpt lat="47.51609" lon="6.77757">
        <ele>380</ele>
        <time>2016-02-28T11:33:39.000Z</time>
      </trkpt>
      <trkpt lat="47.51612" lon="6.77758">
        <ele>381</ele>
        <time>2016-02-28T11:33:41.000Z</time>
      </trkpt>
      <trkpt lat="47.51614" lon="6.77758">
        <ele>381</ele>
        <time>2016-02-28T11:33:42.000Z</time>
      </trkpt>
      <trkpt lat="47.51618" lon="6.77759">
        <ele>381</ele>
        <time>2016-02-28T11:33:45.000Z</time>
      </trkpt>
      <trkpt lat="47.51619" lon="6.77759">
        <ele>381</ele>
        <time>2016-02-28T11:33:46.000Z</time>
      </trkpt>
      <trkpt lat="47.51624" lon="6.7776">
        <ele>381</ele>
        <time>2016-02-28T11:33:49.000Z</time>
      </trkpt>
      <trkpt lat="47.51625" lon="6.77761">
        <ele>382</ele>
        <time>2016-02-28T11:33:50.000Z</time>
      </trkpt>
      <trkpt lat="47.51628" lon="6.77763">
        <ele>382</ele>
        <time>2016-02-28T11:33:53.000Z</time>
      </trkpt>
      <trkpt lat="47.51629" lon="6.77763">
        <ele>382</ele>
        <time>2016-02-28T11:33:54.000Z</time>
      </trkpt>
      <trkpt lat="47.51632" lon="6.77764">
        <ele>382</ele>
        <time>2016-02-28T11:33:56.000Z</time>
      </trkpt>
      <trkpt lat="47.51634" lon="6.77765">
        <ele>382</ele>
        <time>2016-02-28T11:33:57.000Z</time>
      </trkpt>
      <trkpt lat="47.51637" lon="6.77765">
        <ele>382</ele>
        <time>2016-02-28T11:33:59.000Z</time>
      </trkpt>
      <trkpt lat="47.51638" lon="6.77765">
        <ele>382</ele>
        <time>2016-02-28T11:34:00.000Z</time>
      </trkpt>
      <trkpt lat="47.51642" lon="6.77766">
        <ele>382</ele>
        <time>2016-02-28T11:34:03.000Z</time>
      </trkpt>
      <trkpt lat="47.51643" lon="6.77766">
        <ele>382</ele>
        <time>2016-02-28T11:34:04.000Z</time>
      </trkpt>
      <trkpt lat="47.51646" lon="6.77766">
        <ele>382</ele>
        <time>2016-02-28T11:34:07.000Z</time>
      </trkpt>
      <trkpt lat="47.51648" lon="6.77767">
        <ele>382</ele>
        <time>2016-02-28T11:34:08.000Z</time>
      </trkpt>
      <trkpt lat="47.51651" lon="6.77769">
        <ele>383</ele>
        <time>2016-02-28T11:34:10.000Z</time>
      </trkpt>
      <trkpt lat="47.51652" lon="6.7777">
        <ele>383</ele>
        <time>2016-02-28T11:34:11.000Z</time>
      </trkpt>
      <trkpt lat="47.51656" lon="6.77772">
        <ele>383</ele>
        <time>2016-02-28T11:34:13.000Z</time>
      </trkpt>
      <trkpt lat="47.51657" lon="6.77772">
        <ele>383</ele>
        <time>2016-02-28T11:34:14.000Z</time>
      </trkpt>
      <trkpt lat="47.51661" lon="6.77773">
        <ele>383</ele>
        <time>2016-02-28T11:34:16.000Z</time>
      </trkpt>
      <trkpt lat="47.51662" lon="6.77774">
        <ele>383</ele>
        <time>2016-02-28T11:34:17.000Z</time>
      </trkpt>
      <trkpt lat="47.51667" lon="6.77774">
        <ele>383</ele>
        <time>2016-02-28T11:34:19.000Z</time>
      </trkpt>
      <trkpt lat="47.51669" lon="6.77775">
        <ele>385</ele>
        <time>2016-02-28T11:34:20.000Z</time>
      </trkpt>
      <trkpt lat="47.51673" lon="6.77776">
        <ele>385</ele>
        <time>2016-02-28T11:34:22.000Z</time>
      </trkpt>
      <trkpt lat="47.51675" lon="6.77776">
        <ele>385</ele>
        <time>2016-02-28T11:34:23.000Z</time>
      </trkpt>
      <trkpt lat="47.51678" lon="6.77777">
        <ele>385</ele>
        <time>2016-02-28T11:34:25.000Z</time>
      </trkpt>
      <trkpt lat="47.5168" lon="6.77777">
        <ele>385</ele>
        <time>2016-02-28T11:34:26.000Z</time>
      </trkpt>
      <trkpt lat="47.51684" lon="6.77777">
        <ele>385</ele>
        <time>2016-02-28T11:34:28.000Z</time>
      </trkpt>
      <trkpt lat="47.51685" lon="6.77777">
        <ele>385</ele>
        <time>2016-02-28T11:34:29.000Z</time>
      </trkpt>
      <trkpt lat="47.51688" lon="6.77773">
        <ele>385</ele>
        <time>2016-02-28T11:34:31.000Z</time>
      </trkpt>
      <trkpt lat="47.51689" lon="6.7777">
        <ele>385</ele>
        <time>2016-02-28T11:34:32.000Z</time>
      </trkpt>
      <trkpt lat="47.51691" lon="6.77766">
        <ele>385</ele>
        <time>2016-02-28T11:34:34.000Z</time>
      </trkpt>
      <trkpt lat="47.51692" lon="6.77763">
        <ele>385</ele>
        <time>2016-02-28T11:34:35.000Z</time>
      </trkpt>
      <trkpt lat="47.51695" lon="6.77759">
        <ele>385</ele>
        <time>2016-02-28T11:34:37.000Z</time>
      </trkpt>
      <trkpt lat="47.51696" lon="6.77757">
        <ele>385</ele>
        <time>2016-02-28T11:34:38.000Z</time>
      </trkpt>
      <trkpt lat="47.51697" lon="6.77753">
        <ele>385</ele>
        <time>2016-02-28T11:34:40.000Z</time>
      </trkpt>
      <trkpt lat="47.51698" lon="6.77751">
        <ele>385</ele>
        <time>2016-02-28T11:34:41.000Z</time>
      </trkpt>
      <trkpt lat="47.51698" lon="6.77746">
        <ele>386</ele>
        <time>2016-02-28T11:34:43.000Z</time>
      </trkpt>
      <trkpt lat="47.51699" lon="6.77743">
        <ele>386</ele>
        <time>2016-02-28T11:34:44.000Z</time>
      </trkpt>
      <trkpt lat="47.51699" lon="6.77738">
        <ele>387</ele>
        <time>2016-02-28T11:34:46.000Z</time>
      </trkpt>
      <trkpt lat="47.51699" lon="6.77735">
        <ele>387</ele>
        <time>2016-02-28T11:34:47.000Z</time>
      </trkpt>
      <trkpt lat="47.51699" lon="6.7773">
        <ele>387</ele>
        <time>2016-02-28T11:34:49.000Z</time>
      </trkpt>
      <trkpt lat="47.517" lon="6.77728">
        <ele>387</ele>
        <time>2016-02-28T11:34:50.000Z</time>
      </trkpt>
      <trkpt lat="47.51701" lon="6.77723">
        <ele>387</ele>
        <time>2016-02-28T11:34:52.000Z</time>
      </trkpt>
      <trkpt lat="47.51701" lon="6.7772">
        <ele>387</ele>
        <time>2016-02-28T11:34:53.000Z</time>
      </trkpt>
      <trkpt lat="47.51702" lon="6.77714">
        <ele>387</ele>
        <time>2016-02-28T11:34:56.000Z</time>
      </trkpt>
      <trkpt lat="47.51702" lon="6.77712">
        <ele>387</ele>
        <time>2016-02-28T11:34:57.000Z</time>
      </trkpt>
      <trkpt lat="47.51703" lon="6.77707">
        <ele>387</ele>
        <time>2016-02-28T11:34:59.000Z</time>
      </trkpt>
      <trkpt lat="47.51703" lon="6.77705">
        <ele>387</ele>
        <time>2016-02-28T11:35:00.000Z</time>
      </trkpt>
      <trkpt lat="47.51703" lon="6.77698">
        <ele>388</ele>
        <time>2016-02-28T11:35:03.000Z</time>
      </trkpt>
      <trkpt lat="47.51703" lon="6.77696">
        <ele>388</ele>
        <time>2016-02-28T11:35:04.000Z</time>
      </trkpt>
      <trkpt lat="47.51703" lon="6.7769">
        <ele>388</ele>
        <time>2016-02-28T11:35:07.000Z</time>
      </trkpt>
      <trkpt lat="47.51703" lon="6.77689">
        <ele>388</ele>
        <time>2016-02-28T11:35:08.000Z</time>
      </trkpt>
      <trkpt lat="47.51707" lon="6.77686">
        <ele>388</ele>
        <time>2016-02-28T11:35:12.000Z</time>
      </trkpt>
      <trkpt lat="47.51708" lon="6.77685">
        <ele>388</ele>
        <time>2016-02-28T11:35:13.000Z</time>
      </trkpt>
      <trkpt lat="47.5171" lon="6.77681">
        <ele>388</ele>
        <time>2016-02-28T11:35:15.000Z</time>
      </trkpt>
      <trkpt lat="47.51711" lon="6.77678">
        <ele>388</ele>
        <time>2016-02-28T11:35:16.000Z</time>
      </trkpt>
      <trkpt lat="47.51712" lon="6.77673">
        <ele>388</ele>
        <time>2016-02-28T11:35:18.000Z</time>
      </trkpt>
      <trkpt lat="47.51712" lon="6.7767">
        <ele>388</ele>
        <time>2016-02-28T11:35:19.000Z</time>
      </trkpt>
      <trkpt lat="47.51712" lon="6.77664">
        <ele>390</ele>
        <time>2016-02-28T11:35:21.000Z</time>
      </trkpt>
      <trkpt lat="47.51712" lon="6.7766">
        <ele>390</ele>
        <time>2016-02-28T11:35:22.000Z</time>
      </trkpt>
      <trkpt lat="47.51712" lon="6.77657">
        <ele>390</ele>
        <time>2016-02-28T11:35:23.000Z</time>
      </trkpt>
      <trkpt lat="47.51712" lon="6.77653">
        <ele>390</ele>
        <time>2016-02-28T11:35:24.000Z</time>
      </trkpt>
      <trkpt lat="47.51712" lon="6.7765">
        <ele>390</ele>
        <time>2016-02-28T11:35:25.000Z</time>
      </trkpt>
      <trkpt lat="47.51712" lon="6.77646">
        <ele>390</ele>
        <time>2016-02-28T11:35:26.000Z</time>
      </trkpt>
      <trkpt lat="47.51712" lon="6.77643">
        <ele>390</ele>
        <time>2016-02-28T11:35:27.000Z</time>
      </trkpt>
      <trkpt lat="47.51712" lon="6.77639">
        <ele>390</ele>
        <time>2016-02-28T11:35:28.000Z</time>
      </trkpt>
      <trkpt lat="47.51713" lon="6.77636">
        <ele>390</ele>
        <time>2016-02-28T11:35:29.000Z</time>
      </trkpt>
      <trkpt lat="47.51714" lon="6.77632">
        <ele>390</ele>
        <time>2016-02-28T11:35:30.000Z</time>
      </trkpt>
      <trkpt lat="47.51714" lon="6.77629">
        <ele>390</ele>
        <time>2016-02-28T11:35:31.000Z</time>
      </trkpt>
      <trkpt lat="47.51714" lon="6.77625">
        <ele>390</ele>
        <time>2016-02-28T11:35:32.000Z</time>
      </trkpt>
      <trkpt lat="47.51714" lon="6.77619">
        <ele>390</ele>
        <time>2016-02-28T11:35:34.000Z</time>
      </trkpt>
      <trkpt lat="47.51714" lon="6.77616">
        <ele>390</ele>
        <time>2016-02-28T11:35:35.000Z</time>
      </trkpt>
      <trkpt lat="47.51714" lon="6.7761">
        <ele>390</ele>
        <time>2016-02-28T11:35:37.000Z</time>
      </trkpt>
      <trkpt lat="47.51714" lon="6.77607">
        <ele>390</ele>
        <time>2016-02-28T11:35:38.000Z</time>
      </trkpt>
      <trkpt lat="47.51715" lon="6.77602">
        <ele>390</ele>
        <time>2016-02-28T11:35:40.000Z</time>
      </trkpt>
      <trkpt lat="47.51715" lon="6.77599">
        <ele>390</ele>
        <time>2016-02-28T11:35:41.000Z</time>
      </trkpt>
      <trkpt lat="47.51716" lon="6.77594">
        <ele>390</ele>
        <time>2016-02-28T11:35:43.000Z</time>
      </trkpt>
      <trkpt lat="47.51718" lon="6.77592">
        <ele>390</ele>
        <time>2016-02-28T11:35:44.000Z</time>
      </trkpt>
      <trkpt lat="47.51722" lon="6.77591">
        <ele>390</ele>
        <time>2016-02-28T11:35:47.000Z</time>
      </trkpt>
      <trkpt lat="47.51723" lon="6.7759">
        <ele>390</ele>
        <time>2016-02-28T11:35:48.000Z</time>
      </trkpt>
      <trkpt lat="47.51725" lon="6.77584">
        <ele>391</ele>
        <time>2016-02-28T11:35:51.000Z</time>
      </trkpt>
      <trkpt lat="47.51724" lon="6.77581">
        <ele>391</ele>
        <time>2016-02-28T11:35:52.000Z</time>
      </trkpt>
      <trkpt lat="47.51723" lon="6.77577">
        <ele>391</ele>
        <time>2016-02-28T11:35:53.000Z</time>
      </trkpt>
      <trkpt lat="47.51722" lon="6.77574">
        <ele>391</ele>
        <time>2016-02-28T11:35:54.000Z</time>
      </trkpt>
      <trkpt lat="47.51721" lon="6.77571">
        <ele>390</ele>
        <time>2016-02-28T11:35:55.000Z</time>
      </trkpt>
      <trkpt lat="47.5172" lon="6.77567">
        <ele>390</ele>
        <time>2016-02-28T11:35:56.000Z</time>
      </trkpt>
      <trkpt lat="47.5172" lon="6.77564">
        <ele>390</ele>
        <time>2016-02-28T11:35:57.000Z</time>
      </trkpt>
      <trkpt lat="47.5172" lon="6.7756">
        <ele>390</ele>
        <time>2016-02-28T11:35:58.000Z</time>
      </trkpt>
      <trkpt lat="47.51721" lon="6.77556">
        <ele>390</ele>
        <time>2016-02-28T11:35:59.000Z</time>
      </trkpt>
      <trkpt lat="47.51722" lon="6.77552">
        <ele>390</ele>
        <time>2016-02-28T11:36:00.000Z</time>
      </trkpt>
      <trkpt lat="47.51723" lon="6.77547">
        <ele>390</ele>
        <time>2016-02-28T11:36:01.000Z</time>
      </trkpt>
      <trkpt lat="47.51724" lon="6.77542">
        <ele>390</ele>
        <time>2016-02-28T11:36:02.000Z</time>
      </trkpt>
      <trkpt lat="47.51725" lon="6.77537">
        <ele>390</ele>
        <time>2016-02-28T11:36:03.000Z</time>
      </trkpt>
      <trkpt lat="47.51725" lon="6.77532">
        <ele>390</ele>
        <time>2016-02-28T11:36:04.000Z</time>
      </trkpt>
      <trkpt lat="47.51726" lon="6.77527">
        <ele>390</ele>
        <time>2016-02-28T11:36:05.000Z</time>
      </trkpt>
      <trkpt lat="47.51727" lon="6.77521">
        <ele>390</ele>
        <time>2016-02-28T11:36:06.000Z</time>
      </trkpt>
      <trkpt lat="47.51728" lon="6.77517">
        <ele>390</ele>
        <time>2016-02-28T11:36:07.000Z</time>
      </trkpt>
      <trkpt lat="47.51728" lon="6.77512">
        <ele>390</ele>
        <time>2016-02-28T11:36:08.000Z</time>
      </trkpt>
      <trkpt lat="47.51729" lon="6.77508">
        <ele>390</ele>
        <time>2016-02-28T11:36:09.000Z</time>
      </trkpt>
      <trkpt lat="47.5173" lon="6.77503">
        <ele>390</ele>
        <time>2016-02-28T11:36:10.000Z</time>
      </trkpt>
      <trkpt lat="47.51731" lon="6.77499">
        <ele>389</ele>
        <time>2016-02-28T11:36:11.000Z</time>
      </trkpt>
      <trkpt lat="47.51731" lon="6.77495">
        <ele>389</ele>
        <time>2016-02-28T11:36:12.000Z</time>
      </trkpt>
      <trkpt lat="47.51732" lon="6.7749">
        <ele>389</ele>
        <time>2016-02-28T11:36:13.000Z</time>
      </trkpt>
      <trkpt lat="47.51733" lon="6.77486">
        <ele>389</ele>
        <time>2016-02-28T11:36:14.000Z</time>
      </trkpt>
      <trkpt lat="47.51734" lon="6.77481">
        <ele>389</ele>
        <time>2016-02-28T11:36:15.000Z</time>
      </trkpt>
      <trkpt lat="47.51736" lon="6.77478">
        <ele>389</ele>
        <time>2016-02-28T11:36:16.000Z</time>
      </trkpt>
      <trkpt lat="47.51738" lon="6.77475">
        <ele>389</ele>
        <time>2016-02-28T11:36:17.000Z</time>
      </trkpt>
      <trkpt lat="47.51741" lon="6.77474">
        <ele>389</ele>
        <time>2016-02-28T11:36:18.000Z</time>
      </trkpt>
      <trkpt lat="47.51745" lon="6.77475">
        <ele>389</ele>
        <time>2016-02-28T11:36:19.000Z</time>
      </trkpt>
      <trkpt lat="47.51749" lon="6.77476">
        <ele>389</ele>
        <time>2016-02-28T11:36:20.000Z</time>
      </trkpt>
      <trkpt lat="47.51753" lon="6.77476">
        <ele>389</ele>
        <time>2016-02-28T11:36:21.000Z</time>
      </trkpt>
      <trkpt lat="47.51757" lon="6.77477">
        <ele>389</ele>
        <time>2016-02-28T11:36:22.000Z</time>
      </trkpt>
      <trkpt lat="47.5176" lon="6.77477">
        <ele>389</ele>
        <time>2016-02-28T11:36:23.000Z</time>
      </trkpt>
      <trkpt lat="47.51764" lon="6.77478">
        <ele>389</ele>
        <time>2016-02-28T11:36:24.000Z</time>
      </trkpt>
      <trkpt lat="47.51767" lon="6.77479">
        <ele>389</ele>
        <time>2016-02-28T11:36:25.000Z</time>
      </trkpt>
      <trkpt lat="47.5177" lon="6.77481">
        <ele>388</ele>
        <time>2016-02-28T11:36:26.000Z</time>
      </trkpt>
      <trkpt lat="47.51773" lon="6.77482">
        <ele>388</ele>
        <time>2016-02-28T11:36:27.000Z</time>
      </trkpt>
      <trkpt lat="47.51776" lon="6.77483">
        <ele>388</ele>
        <time>2016-02-28T11:36:28.000Z</time>
      </trkpt>
      <trkpt lat="47.5178" lon="6.77484">
        <ele>388</ele>
        <time>2016-02-28T11:36:29.000Z</time>
      </trkpt>
      <trkpt lat="47.51783" lon="6.77486">
        <ele>388</ele>
        <time>2016-02-28T11:36:30.000Z</time>
      </trkpt>
      <trkpt lat="47.51787" lon="6.77487">
        <ele>388</ele>
        <time>2016-02-28T11:36:31.000Z</time>
      </trkpt>
      <trkpt lat="47.5179" lon="6.77489">
        <ele>388</ele>
        <time>2016-02-28T11:36:32.000Z</time>
      </trkpt>
      <trkpt lat="47.51794" lon="6.77491">
        <ele>388</ele>
        <time>2016-02-28T11:36:33.000Z</time>
      </trkpt>
      <trkpt lat="47.51798" lon="6.77493">
        <ele>388</ele>
        <time>2016-02-28T11:36:34.000Z</time>
      </trkpt>
      <trkpt lat="47.51802" lon="6.77494">
        <ele>388</ele>
        <time>2016-02-28T11:36:35.000Z</time>
      </trkpt>
      <trkpt lat="47.51806" lon="6.77494">
        <ele>388</ele>
        <time>2016-02-28T11:36:36.000Z</time>
      </trkpt>
      <trkpt lat="47.5181" lon="6.77494">
        <ele>388</ele>
        <time>2016-02-28T11:36:37.000Z</time>
      </trkpt>
      <trkpt lat="47.51812" lon="6.77491">
        <ele>388</ele>
        <time>2016-02-28T11:36:38.000Z</time>
      </trkpt>
      <trkpt lat="47.5181" lon="6.77486">
        <ele>388</ele>
        <time>2016-02-28T11:36:40.000Z</time>
      </trkpt>
      <trkpt lat="47.51807" lon="6.77484">
        <ele>388</ele>
        <time>2016-02-28T11:36:41.000Z</time>
      </trkpt>
      <trkpt lat="47.51804" lon="6.77482">
        <ele>388</ele>
        <time>2016-02-28T11:36:42.000Z</time>
      </trkpt>
      <trkpt lat="47.51801" lon="6.77481">
        <ele>388</ele>
        <time>2016-02-28T11:36:43.000Z</time>
      </trkpt>
      <trkpt lat="47.51799" lon="6.77477">
        <ele>388</ele>
        <time>2016-02-28T11:36:45.000Z</time>
      </trkpt>
      <trkpt lat="47.51798" lon="6.77475">
        <ele>388</ele>
        <time>2016-02-28T11:36:46.000Z</time>
      </trkpt>
      <trkpt lat="47.51797" lon="6.77469">
        <ele>388</ele>
        <time>2016-02-28T11:36:48.000Z</time>
      </trkpt>
      <trkpt lat="47.51797" lon="6.77467">
        <ele>388</ele>
        <time>2016-02-28T11:36:49.000Z</time>
      </trkpt>
      <trkpt lat="47.51799" lon="6.77462">
        <ele>388</ele>
        <time>2016-02-28T11:36:53.000Z</time>
      </trkpt>
      <trkpt lat="47.518" lon="6.77462">
        <ele>388</ele>
        <time>2016-02-28T11:36:54.000Z</time>
      </trkpt>
      <trkpt lat="47.51798" lon="6.77467">
        <ele>388</ele>
        <time>2016-02-28T11:37:06.000Z</time>
      </trkpt>
      <trkpt lat="47.51797" lon="6.77469">
        <ele>388</ele>
        <time>2016-02-28T11:37:07.000Z</time>
      </trkpt>
      <trkpt lat="47.51796" lon="6.77474">
        <ele>388</ele>
        <time>2016-02-28T11:37:12.000Z</time>
      </trkpt>
      <trkpt lat="47.51795" lon="6.77475">
        <ele>388</ele>
        <time>2016-02-28T11:37:13.000Z</time>
      </trkpt>
      <trkpt lat="47.51796" lon="6.7748">
        <ele>388</ele>
        <time>2016-02-28T11:37:18.000Z</time>
      </trkpt>
      <trkpt lat="47.51797" lon="6.7748">
        <ele>388</ele>
        <time>2016-02-28T11:37:19.000Z</time>
      </trkpt>
      <trkpt lat="47.51802" lon="6.77478">
        <ele>388</ele>
        <time>2016-02-28T11:37:22.000Z</time>
      </trkpt>
      <trkpt lat="47.51802" lon="6.77478">
        <ele>388</ele>
        <time>2016-02-28T11:37:23.000Z</time>
      </trkpt>
      <trkpt lat="47.51803" lon="6.77478">
        <ele>388</ele>
        <time>2016-02-28T11:38:22.000Z</time>
      </trkpt>
    </trkseg>
  </trk>
</gpx>